<?xml version='1.0' encoding='UTF-8'?><gpx version="1.1" creator="JPX - https://github.com/jenetics/jpx" xmlns="http://www.topografix.com/GPX/1/1"><trk><trkseg><trkpt lat="14.558294502778507" lon="120.99541079290385"><ele>9.0</ele><time>2026-05-05T04:07:27.987Z</time></trkpt><trkpt lat="14.558220422739486" lon="120.99548299194954"><ele>9.0</ele><time>2026-05-05T04:07:30.989Z</time></trkpt><trkpt lat="14.55816860763958" lon="120.99554952731097"><ele>9.0</ele><time>2026-05-05T04:07:32.99Z</time></trkpt><trkpt lat="14.558110257654695" lon="120.99559927432091"><ele>9.0</ele><time>2026-05-05T04:07:34.992Z</time></trkpt><trkpt lat="14.558008293395657" lon="120.99568959419678"><ele>9.0</ele><time>2026-05-05T04:07:37.071Z</time></trkpt><trkpt lat="14.557943539906626" lon="120.9957504034772"><ele>9.0</ele><time>2026-05-05T04:07:40.037Z</time></trkpt><trkpt lat="14.557884784264417" lon="120.99579960815858"><ele>9.0</ele><time>2026-05-05T04:07:42.038Z</time></trkpt><trkpt lat="14.558134710539763" lon="120.99610133392481"><ele>9.0</ele><time>2026-05-05T04:08:48Z</time></trkpt><trkpt lat="14.558164710055696" lon="120.99615956729394"><ele>9.0</ele><time>2026-05-05T04:08:53Z</time></trkpt><trkpt lat="14.558285095040395" lon="120.99619843754172"><ele>9.0</ele><time>2026-05-05T04:09:03.001Z</time></trkpt><trkpt lat="14.558377287606891" lon="120.99617409989168"><ele>9.0</ele><time>2026-05-05T04:09:04.001Z</time></trkpt><trkpt lat="14.558285862647436" lon="120.99620667788929"><ele>9.0</ele><time>2026-05-05T04:09:06.001Z</time></trkpt><trkpt lat="14.55840896718352" lon="120.99622049709565"><ele>9.0</ele><time>2026-05-05T04:09:10.001Z</time></trkpt><trkpt lat="14.558517771659623" lon="120.9961896829719"><ele>9.0</ele><time>2026-05-05T04:09:11.001Z</time></trkpt><trkpt lat="14.558603943409452" lon="120.99615046007784"><ele>9.0</ele><time>2026-05-05T04:09:12.001Z</time></trkpt><trkpt lat="14.558696166362635" lon="120.99614832887835"><ele>9.0</ele><time>2026-05-05T04:09:13.001Z</time></trkpt><trkpt lat="14.558786736674996" lon="120.9961398903099"><ele>9.0</ele><time>2026-05-05T04:09:14.001Z</time></trkpt><trkpt lat="14.558881113507669" lon="120.99611520858083"><ele>9.0</ele><time>2026-05-05T04:09:15.001Z</time></trkpt><trkpt lat="14.558974665709227" lon="120.99609763820656"><ele>9.0</ele><time>2026-05-05T04:09:16.001Z</time></trkpt><trkpt lat="14.559083532160077" lon="120.99606254239814"><ele>9.0</ele><time>2026-05-05T04:09:17.001Z</time></trkpt><trkpt lat="14.559172026234576" lon="120.99603741557044"><ele>9.0</ele><time>2026-05-05T04:09:18.001Z</time></trkpt><trkpt lat="14.559276162261828" lon="120.99601630332296"><ele>9.0</ele><time>2026-05-05T04:09:19.001Z</time></trkpt><trkpt lat="14.559380929792814" lon="120.9959923791045"><ele>9.0</ele><time>2026-05-05T04:09:20.001Z</time></trkpt><trkpt lat="14.559512012504225" lon="120.99596913485763"><ele>9.0</ele><time>2026-05-05T04:09:21.001Z</time></trkpt><trkpt lat="14.55963965101155" lon="120.99595231181019"><ele>9.0</ele><time>2026-05-05T04:09:22.001Z</time></trkpt><trkpt lat="14.559781829901128" lon="120.99592490542553"><ele>9.0</ele><time>2026-05-05T04:09:23.001Z</time></trkpt><trkpt lat="14.55991236249676" lon="120.99588336443843"><ele>8.8</ele><time>2026-05-05T04:09:24.001Z</time></trkpt><trkpt lat="14.560030554693922" lon="120.99585905701255"><ele>8.600000000000001</ele><time>2026-05-05T04:09:25.001Z</time></trkpt><trkpt lat="14.560142224094962" lon="120.99583195794924"><ele>8.4</ele><time>2026-05-05T04:09:26.001Z</time></trkpt><trkpt lat="14.56023373559527" lon="120.99580745543022"><ele>8.200000000000001</ele><time>2026-05-05T04:09:27Z</time></trkpt><trkpt lat="14.56033837994588" lon="120.99578622119402"><ele>8.0</ele><time>2026-05-05T04:09:28Z</time></trkpt><trkpt lat="14.560440651041173" lon="120.99575771506854"><ele>7.800000000000001</ele><time>2026-05-05T04:09:28.999Z</time></trkpt><trkpt lat="14.5605418567657" lon="120.99573714982934"><ele>7.6000000000000005</ele><time>2026-05-05T04:09:29.999Z</time></trkpt><trkpt lat="14.560640342824003" lon="120.99572060630304"><ele>7.3999999999999995</ele><time>2026-05-05T04:09:30.999Z</time></trkpt><trkpt lat="14.560742947142298" lon="120.9956945606993"><ele>7.199999999999999</ele><time>2026-05-05T04:09:31.999Z</time></trkpt><trkpt lat="14.560849391122888" lon="120.9956705947531"><ele>7.0</ele><time>2026-05-05T04:09:32.999Z</time></trkpt><trkpt lat="14.560958472050386" lon="120.99564767356448"><ele>7.0</ele><time>2026-05-05T04:09:33.999Z</time></trkpt><trkpt lat="14.56107635188646" lon="120.99562446520734"><ele>7.0</ele><time>2026-05-05T04:09:34.999Z</time></trkpt><trkpt lat="14.56119383274345" lon="120.99559764615256"><ele>7.0</ele><time>2026-05-05T04:09:35.999Z</time></trkpt><trkpt lat="14.561317769084022" lon="120.99556861708423"><ele>7.0</ele><time>2026-05-05T04:09:36.999Z</time></trkpt><trkpt lat="14.561437396131403" lon="120.99554486554567"><ele>7.5</ele><time>2026-05-05T04:09:37.999Z</time></trkpt><trkpt lat="14.561563467679346" lon="120.9955086491718"><ele>8.0</ele><time>2026-05-05T04:09:38.999Z</time></trkpt><trkpt lat="14.561686783358756" lon="120.99547138643263"><ele>8.5</ele><time>2026-05-05T04:09:39.999Z</time></trkpt><trkpt lat="14.561797198544857" lon="120.9954400738785"><ele>9.0</ele><time>2026-05-05T04:09:40.999Z</time></trkpt><trkpt lat="14.561907247254002" lon="120.9954106683258"><ele>9.0</ele><time>2026-05-05T04:09:41.999Z</time></trkpt><trkpt lat="14.562005923940156" lon="120.99538766347064"><ele>9.0</ele><time>2026-05-05T04:09:42.999Z</time></trkpt><trkpt lat="14.562088004272274" lon="120.99537036602952"><ele>9.0</ele><time>2026-05-05T04:09:43.999Z</time></trkpt><trkpt lat="14.562157453649151" lon="120.99535016652129"><ele>9.0</ele><time>2026-05-05T04:09:44.999Z</time></trkpt><trkpt lat="14.562216897915805" lon="120.99532789591245"><ele>9.0</ele><time>2026-05-05T04:09:45.999Z</time></trkpt><trkpt lat="14.56228559102476" lon="120.99530037044134"><ele>9.0</ele><time>2026-05-05T04:09:47.999Z</time></trkpt><trkpt lat="14.56237939294294" lon="120.99528293987859"><ele>9.2</ele><time>2026-05-05T04:09:49.999Z</time></trkpt><trkpt lat="14.562467461375451" lon="120.9952765906619"><ele>9.4</ele><time>2026-05-05T04:09:51.999Z</time></trkpt><trkpt lat="14.562532019700406" lon="120.99527937680995"><ele>9.6</ele><time>2026-05-05T04:10:01.999Z</time></trkpt><trkpt lat="14.562619479728367" lon="120.99525794383813"><ele>9.8</ele><time>2026-05-05T04:10:27Z</time></trkpt><trkpt lat="14.562729735266918" lon="120.99523675296051"><ele>10.0</ele><time>2026-05-05T04:10:29Z</time></trkpt><trkpt lat="14.562848070860484" lon="120.9951731674438"><ele>10.4</ele><time>2026-05-05T04:10:31Z</time></trkpt><trkpt lat="14.562931917634758" lon="120.99513657805308"><ele>10.8</ele><time>2026-05-05T04:10:32Z</time></trkpt><trkpt lat="14.563039086947665" lon="120.99508981107631"><ele>11.2</ele><time>2026-05-05T04:10:33Z</time></trkpt><trkpt lat="14.563141497847209" lon="120.99504512058232"><ele>11.6</ele><time>2026-05-05T04:10:34Z</time></trkpt><trkpt lat="14.563225322722781" lon="120.99500854074519"><ele>12.0</ele><time>2026-05-05T04:10:35Z</time></trkpt><trkpt lat="14.563332273625504" lon="120.99493329493963"><ele>12.0</ele><time>2026-05-05T04:10:37Z</time></trkpt><trkpt lat="14.563414129846786" lon="120.99487080473119"><ele>12.0</ele><time>2026-05-05T04:10:38Z</time></trkpt><trkpt lat="14.563488190366288" lon="120.99483340599147"><ele>12.0</ele><time>2026-05-05T04:10:39Z</time></trkpt><trkpt lat="14.563576440610293" lon="120.99481387805517"><ele>12.0</ele><time>2026-05-05T04:10:40Z</time></trkpt><trkpt lat="14.563659158515977" lon="120.99479140138008"><ele>12.0</ele><time>2026-05-05T04:10:41Z</time></trkpt><trkpt lat="14.563751577782908" lon="120.99474345362626"><ele>12.6</ele><time>2026-05-05T04:10:42Z</time></trkpt><trkpt lat="14.563826741421126" lon="120.9947276444257"><ele>13.2</ele><time>2026-05-05T04:10:43Z</time></trkpt><trkpt lat="14.56392290222362" lon="120.99468066466058"><ele>13.8</ele><time>2026-05-05T04:10:44Z</time></trkpt><trkpt lat="14.564022592993986" lon="120.9946220080831"><ele>14.4</ele><time>2026-05-05T04:10:45Z</time></trkpt><trkpt lat="14.56412199576094" lon="120.99457435476205"><ele>15.0</ele><time>2026-05-05T04:10:46Z</time></trkpt><trkpt lat="14.564216854804743" lon="120.99452140673426"><ele>15.0</ele><time>2026-05-05T04:10:47Z</time></trkpt><trkpt lat="14.56431510075124" lon="120.99447599460305"><ele>15.0</ele><time>2026-05-05T04:10:48Z</time></trkpt><trkpt lat="14.564421060632089" lon="120.9944232357108"><ele>15.0</ele><time>2026-05-05T04:10:49Z</time></trkpt><trkpt lat="14.564521563014063" lon="120.9943747094368"><ele>15.0</ele><time>2026-05-05T04:10:50Z</time></trkpt><trkpt lat="14.564624535866388" lon="120.99432100845887"><ele>14.0</ele><time>2026-05-05T04:10:51Z</time></trkpt><trkpt lat="14.56471800632463" lon="120.9942682172071"><ele>13.0</ele><time>2026-05-05T04:10:52Z</time></trkpt><trkpt lat="14.564815264560606" lon="120.99423358912647"><ele>12.0</ele><time>2026-05-05T04:10:53Z</time></trkpt><trkpt lat="14.564898281938635" lon="120.99420010726863"><ele>11.0</ele><time>2026-05-05T04:10:54Z</time></trkpt><trkpt lat="14.56496676317351" lon="120.99416350742067"><ele>10.0</ele><time>2026-05-05T04:10:55Z</time></trkpt><trkpt lat="14.565053347255377" lon="120.99411482679187"><ele>10.0</ele><time>2026-05-05T04:10:57Z</time></trkpt><trkpt lat="14.565096562315373" lon="120.9940640029641"><ele>10.0</ele><time>2026-05-05T04:11:33.999Z</time></trkpt><trkpt lat="14.565186442645741" lon="120.99401888603647"><ele>10.0</ele><time>2026-05-05T04:11:35.999Z</time></trkpt><trkpt lat="14.565269914570148" lon="120.9939807624376"><ele>10.0</ele><time>2026-05-05T04:11:36.999Z</time></trkpt><trkpt lat="14.565365576407494" lon="120.99394257554297"><ele>10.0</ele><time>2026-05-05T04:11:37.999Z</time></trkpt><trkpt lat="14.56545914093216" lon="120.9938987174136"><ele>9.75</ele><time>2026-05-05T04:11:38.999Z</time></trkpt><trkpt lat="14.565568632808121" lon="120.99384489376483"><ele>9.5</ele><time>2026-05-05T04:11:39.999Z</time></trkpt><trkpt lat="14.565674248121312" lon="120.9937780248766"><ele>9.25</ele><time>2026-05-05T04:11:40.999Z</time></trkpt><trkpt lat="14.56578859167204" lon="120.99373123871096"><ele>9.0</ele><time>2026-05-05T04:11:41.999Z</time></trkpt><trkpt lat="14.565914715749772" lon="120.99367420519725"><ele>9.0</ele><time>2026-05-05T04:11:42.999Z</time></trkpt><trkpt lat="14.56604366619502" lon="120.99361361477801"><ele>9.0</ele><time>2026-05-05T04:11:43.999Z</time></trkpt><trkpt lat="14.566176242387423" lon="120.99354649832654"><ele>9.0</ele><time>2026-05-05T04:11:44.999Z</time></trkpt><trkpt lat="14.566304401586622" lon="120.99349379021369"><ele>9.0</ele><time>2026-05-05T04:11:45.998Z</time></trkpt><trkpt lat="14.566426198509202" lon="120.9934427923502"><ele>9.0</ele><time>2026-05-05T04:11:46.998Z</time></trkpt><trkpt lat="14.566520874811832" lon="120.9933990152961"><ele>9.0</ele><time>2026-05-05T04:11:47.998Z</time></trkpt><trkpt lat="14.566613882727271" lon="120.99335516170588"><ele>9.0</ele><time>2026-05-05T04:11:48.998Z</time></trkpt><trkpt lat="14.566702874059457" lon="120.9933102377755"><ele>9.0</ele><time>2026-05-05T04:11:49.999Z</time></trkpt><trkpt lat="14.56678695062829" lon="120.99326869782942"><ele>9.0</ele><time>2026-05-05T04:11:50.999Z</time></trkpt><trkpt lat="14.566875262035351" lon="120.99322944196955"><ele>9.25</ele><time>2026-05-05T04:11:51.999Z</time></trkpt><trkpt lat="14.566974213130761" lon="120.99317099161583"><ele>9.5</ele><time>2026-05-05T04:11:52.999Z</time></trkpt><trkpt lat="14.567086082715816" lon="120.99312385049794"><ele>9.75</ele><time>2026-05-05T04:11:53.999Z</time></trkpt><trkpt lat="14.56721861244232" lon="120.99306174551226"><ele>10.0</ele><time>2026-05-05T04:11:54.999Z</time></trkpt><trkpt lat="14.567351089598034" lon="120.99300599110684"><ele>9.5</ele><time>2026-05-05T04:11:55.999Z</time></trkpt><trkpt lat="14.567478337357818" lon="120.99295040551463"><ele>9.0</ele><time>2026-05-05T04:11:56.999Z</time></trkpt><trkpt lat="14.567601888823912" lon="120.99290790171727"><ele>8.5</ele><time>2026-05-05T04:11:57.999Z</time></trkpt><trkpt lat="14.567736090365402" lon="120.9928439065453"><ele>8.0</ele><time>2026-05-05T04:11:58.999Z</time></trkpt><trkpt lat="14.567860500691062" lon="120.99278212758445"><ele>8.0</ele><time>2026-05-05T04:11:59.999Z</time></trkpt><trkpt lat="14.567993712476936" lon="120.99272057641286"><ele>8.0</ele><time>2026-05-05T04:12:00.999Z</time></trkpt><trkpt lat="14.56813500767561" lon="120.99265566099972"><ele>8.0</ele><time>2026-05-05T04:12:01.999Z</time></trkpt><trkpt lat="14.568268769300229" lon="120.99259676236505"><ele>8.0</ele><time>2026-05-05T04:12:02.999Z</time></trkpt><trkpt lat="14.568395845675889" lon="120.99253750305743"><ele>8.0</ele><time>2026-05-05T04:12:03.999Z</time></trkpt><trkpt lat="14.568516963639645" lon="120.99248862471315"><ele>8.0</ele><time>2026-05-05T04:12:04.999Z</time></trkpt><trkpt lat="14.568633422196823" lon="120.99243761020506"><ele>8.0</ele><time>2026-05-05T04:12:05.999Z</time></trkpt><trkpt lat="14.56874750981709" lon="120.99238311949699"><ele>8.0</ele><time>2026-05-05T04:12:06.999Z</time></trkpt><trkpt lat="14.568858726022805" lon="120.99233385345087"><ele>8.0</ele><time>2026-05-05T04:12:07.999Z</time></trkpt><trkpt lat="14.568974036772806" lon="120.99228027966802"><ele>8.0</ele><time>2026-05-05T04:12:08.999Z</time></trkpt><trkpt lat="14.56908530498115" lon="120.99222410121891"><ele>8.0</ele><time>2026-05-05T04:12:09.999Z</time></trkpt><trkpt lat="14.569182474367674" lon="120.9921846539834"><ele>8.0</ele><time>2026-05-05T04:12:10.999Z</time></trkpt><trkpt lat="14.569275418529092" lon="120.99213745884555"><ele>7.999999999999999</ele><time>2026-05-05T04:12:11.999Z</time></trkpt><trkpt lat="14.569361807170768" lon="120.99209322149058"><ele>8.0</ele><time>2026-05-05T04:12:12.999Z</time></trkpt><trkpt lat="14.569442497332574" lon="120.9920590637373"><ele>8.0</ele><time>2026-05-05T04:12:13.999Z</time></trkpt><trkpt lat="14.569513193713034" lon="120.99202750523949"><ele>8.0</ele><time>2026-05-05T04:12:14.999Z</time></trkpt><trkpt lat="14.569610701538076" lon="120.99199662131575"><ele>7.999999999999999</ele><time>2026-05-05T04:12:16.999Z</time></trkpt><trkpt lat="14.569666748518156" lon="120.9919572442352"><ele>8.0</ele><time>2026-05-05T04:12:18.999Z</time></trkpt><trkpt lat="14.56974239428043" lon="120.99192182934202"><ele>8.200000000000001</ele><time>2026-05-05T04:12:20.999Z</time></trkpt><trkpt lat="14.569803748924501" lon="120.99188367969158"><ele>8.4</ele><time>2026-05-05T04:12:24.999Z</time></trkpt><trkpt lat="14.569892299097386" lon="120.99181138903076"><ele>8.600000000000001</ele><time>2026-05-05T04:12:31.999Z</time></trkpt><trkpt lat="14.569989024898646" lon="120.99176997374644"><ele>8.8</ele><time>2026-05-05T04:12:33.999Z</time></trkpt><trkpt lat="14.570042029797303" lon="120.99173384861628"><ele>9.0</ele><time>2026-05-05T04:12:34.999Z</time></trkpt><trkpt lat="14.570144276522447" lon="120.9916711997558"><ele>9.0</ele><time>2026-05-05T04:12:37Z</time></trkpt><trkpt lat="14.570204275812008" lon="120.99164855932011"><ele>9.0</ele><time>2026-05-05T04:12:38Z</time></trkpt><trkpt lat="14.570280746150123" lon="120.9916232884236"><ele>9.0</ele><time>2026-05-05T04:12:40Z</time></trkpt><trkpt lat="14.570356247485206" lon="120.99160941637179"><ele>9.0</ele><time>2026-05-05T04:12:43Z</time></trkpt><trkpt lat="14.570402131614664" lon="120.99167239901033"><ele>9.0</ele><time>2026-05-05T04:12:44Z</time></trkpt><trkpt lat="14.570494594429478" lon="120.99176896640283"><ele>9.0</ele><time>2026-05-05T04:12:46Z</time></trkpt><trkpt lat="14.570546340541974" lon="120.99181189732892"><ele>8.6</ele><time>2026-05-05T04:12:47Z</time></trkpt><trkpt lat="14.570621854549902" lon="120.99188208752427"><ele>8.2</ele><time>2026-05-05T04:12:49Z</time></trkpt><trkpt lat="14.570700584055654" lon="120.99196848199408"><ele>7.799999999999999</ele><time>2026-05-05T04:12:51Z</time></trkpt><trkpt lat="14.570780933339867" lon="120.99204888727587"><ele>7.3999999999999995</ele><time>2026-05-05T04:12:53Z</time></trkpt><trkpt lat="14.5708395805427" lon="120.99209203362781"><ele>7.0</ele><time>2026-05-05T04:12:55Z</time></trkpt><trkpt lat="14.570936715422214" lon="120.99211115383056"><ele>7.0</ele><time>2026-05-05T04:13:51.999Z</time></trkpt><trkpt lat="14.570998299299786" lon="120.99216957453902"><ele>6.999999999999999</ele><time>2026-05-05T04:13:52.999Z</time></trkpt><trkpt lat="14.571071983537754" lon="120.99222926433731"><ele>6.999999999999999</ele><time>2026-05-05T04:13:54Z</time></trkpt><trkpt lat="14.571161526066753" lon="120.99230097112029"><ele>7.0</ele><time>2026-05-05T04:13:55Z</time></trkpt><trkpt lat="14.571276229861025" lon="120.99239224344306"><ele>7.0</ele><time>2026-05-05T04:13:56Z</time></trkpt><trkpt lat="14.57140381536196" lon="120.9924960627255"><ele>6.75</ele><time>2026-05-05T04:13:57Z</time></trkpt><trkpt lat="14.571532658524214" lon="120.99259788755315"><ele>6.5</ele><time>2026-05-05T04:13:58Z</time></trkpt><trkpt lat="14.571654040376151" lon="120.99269453298727"><ele>6.25</ele><time>2026-05-05T04:13:59Z</time></trkpt><trkpt lat="14.571750969314197" lon="120.99277827018386"><ele>6.0</ele><time>2026-05-05T04:14:00Z</time></trkpt><trkpt lat="14.571837759738983" lon="120.99285123372213"><ele>6.0</ele><time>2026-05-05T04:14:01Z</time></trkpt><trkpt lat="14.571889134155366" lon="120.99289442352024"><ele>6.0</ele><time>2026-05-05T04:14:02Z</time></trkpt><trkpt lat="14.571944432896048" lon="120.99293918115453"><ele>6.0</ele><time>2026-05-05T04:14:03Z</time></trkpt><trkpt lat="14.571999266836524" lon="120.99298356224529"><ele>6.0</ele><time>2026-05-05T04:14:04Z</time></trkpt><trkpt lat="14.572059299149581" lon="120.99303151235242"><ele>6.0</ele><time>2026-05-05T04:14:05Z</time></trkpt><trkpt lat="14.572122559780142" lon="120.9930818084725"><ele>6.0</ele><time>2026-05-05T04:14:08Z</time></trkpt><trkpt lat="14.572205118461682" lon="120.99314744715423"><ele>6.199999999999999</ele><time>2026-05-05T04:14:15Z</time></trkpt><trkpt lat="14.572263957950891" lon="120.99319422895012"><ele>6.3999999999999995</ele><time>2026-05-05T04:14:16Z</time></trkpt><trkpt lat="14.572330943191268" lon="120.9932483811414"><ele>6.6</ele><time>2026-05-05T04:14:17Z</time></trkpt><trkpt lat="14.572416152610366" lon="120.99329678391071"><ele>6.8</ele><time>2026-05-05T04:14:18Z</time></trkpt><trkpt lat="14.572486242286658" lon="120.99336273653333"><ele>7.0</ele><time>2026-05-05T04:14:19Z</time></trkpt><trkpt lat="14.572573569779845" lon="120.99343410122599"><ele>7.0</ele><time>2026-05-05T04:14:20Z</time></trkpt><trkpt lat="14.572658206931873" lon="120.99350793203472"><ele>7.0</ele><time>2026-05-05T04:14:21Z</time></trkpt><trkpt lat="14.57275458885402" lon="120.99359555133958"><ele>7.0</ele><time>2026-05-05T04:14:22Z</time></trkpt><trkpt lat="14.57284362674686" lon="120.9936718951611"><ele>7.0</ele><time>2026-05-05T04:14:23Z</time></trkpt><trkpt lat="14.572935122897418" lon="120.9937471511466"><ele>7.0</ele><time>2026-05-05T04:14:24Z</time></trkpt><trkpt lat="14.573027750840138" lon="120.99382545259458"><ele>7.0</ele><time>2026-05-05T04:14:25Z</time></trkpt><trkpt lat="14.573115028901377" lon="120.99390243018344"><ele>7.0</ele><time>2026-05-05T04:14:26Z</time></trkpt><trkpt lat="14.573202984931884" lon="120.99397915725531"><ele>7.0</ele><time>2026-05-05T04:14:27Z</time></trkpt><trkpt lat="14.573284188873174" lon="120.99404527136896"><ele>7.0</ele><time>2026-05-05T04:14:28Z</time></trkpt><trkpt lat="14.573374436161606" lon="120.99412411672284"><ele>6.999999999999999</ele><time>2026-05-05T04:14:29Z</time></trkpt><trkpt lat="14.57345408658681" lon="120.9941911764422"><ele>6.999999999999999</ele><time>2026-05-05T04:14:30Z</time></trkpt><trkpt lat="14.573531828608152" lon="120.99425728992188"><ele>7.0</ele><time>2026-05-05T04:14:31Z</time></trkpt><trkpt lat="14.573610907258315" lon="120.99431701094208"><ele>7.0</ele><time>2026-05-05T04:14:32Z</time></trkpt><trkpt lat="14.573697204839705" lon="120.99438145586616"><ele>6.75</ele><time>2026-05-05T04:14:33Z</time></trkpt><trkpt lat="14.573793050054595" lon="120.99445448456848"><ele>6.5</ele><time>2026-05-05T04:14:34Z</time></trkpt><trkpt lat="14.573891438731772" lon="120.99453324009149"><ele>6.25</ele><time>2026-05-05T04:14:35Z</time></trkpt><trkpt lat="14.573981216960526" lon="120.99460573201323"><ele>6.0</ele><time>2026-05-05T04:14:36Z</time></trkpt><trkpt lat="14.574059270005893" lon="120.99467379139921"><ele>6.0</ele><time>2026-05-05T04:14:37Z</time></trkpt><trkpt lat="14.574141289560252" lon="120.99473885393492"><ele>6.0</ele><time>2026-05-05T04:14:38Z</time></trkpt><trkpt lat="14.574239099933136" lon="120.99479330600452"><ele>6.0</ele><time>2026-05-05T04:14:39Z</time></trkpt><trkpt lat="14.5743335593446" lon="120.99485829930771"><ele>6.0</ele><time>2026-05-05T04:14:40Z</time></trkpt><trkpt lat="14.57443598860944" lon="120.99493186483977"><ele>5.5</ele><time>2026-05-05T04:14:41Z</time></trkpt><trkpt lat="14.574534466207625" lon="120.99501026107633"><ele>5.0</ele><time>2026-05-05T04:14:42Z</time></trkpt><trkpt lat="14.574638520569247" lon="120.99507568269443"><ele>4.5</ele><time>2026-05-05T04:14:43Z</time></trkpt><trkpt lat="14.574737758113649" lon="120.99515029958594"><ele>4.0</ele><time>2026-05-05T04:14:44Z</time></trkpt><trkpt lat="14.574834922429824" lon="120.99522905164915"><ele>4.0</ele><time>2026-05-05T04:14:45Z</time></trkpt><trkpt lat="14.574935905193687" lon="120.99531550083849"><ele>4.0</ele><time>2026-05-05T04:14:46Z</time></trkpt><trkpt lat="14.575040901559301" lon="120.99540062687512"><ele>4.0</ele><time>2026-05-05T04:14:47Z</time></trkpt><trkpt lat="14.575148785292843" lon="120.99548702950904"><ele>4.0</ele><time>2026-05-05T04:14:48Z</time></trkpt><trkpt lat="14.575261411161188" lon="120.99558062133808"><ele>4.0</ele><time>2026-05-05T04:14:49Z</time></trkpt><trkpt lat="14.575371137874747" lon="120.99567182353677"><ele>4.0</ele><time>2026-05-05T04:14:50Z</time></trkpt><trkpt lat="14.575483309653952" lon="120.99576562733742"><ele>4.0</ele><time>2026-05-05T04:14:51Z</time></trkpt><trkpt lat="14.575593813788315" lon="120.9958670874354"><ele>4.0</ele><time>2026-05-05T04:14:52Z</time></trkpt><trkpt lat="14.575705538294251" lon="120.99595755388164"><ele>5.0</ele><time>2026-05-05T04:14:53Z</time></trkpt><trkpt lat="14.575816108639104" lon="120.9960480599069"><ele>6.0</ele><time>2026-05-05T04:14:54Z</time></trkpt><trkpt lat="14.575918254003518" lon="120.99613511763766"><ele>7.0</ele><time>2026-05-05T04:14:55Z</time></trkpt><trkpt lat="14.576011453712807" lon="120.9962144342051"><ele>8.0</ele><time>2026-05-05T04:14:56Z</time></trkpt><trkpt lat="14.576106267614199" lon="120.99629013345032"><ele>8.5</ele><time>2026-05-05T04:14:57Z</time></trkpt><trkpt lat="14.576196826154204" lon="120.99636423139991"><ele>9.0</ele><time>2026-05-05T04:14:58Z</time></trkpt><trkpt lat="14.57629162785387" lon="120.99644397397905"><ele>9.5</ele><time>2026-05-05T04:14:59Z</time></trkpt><trkpt lat="14.576381022295951" lon="120.99651678397213"><ele>10.0</ele><time>2026-05-05T04:15:00Z</time></trkpt><trkpt lat="14.576473053016324" lon="120.99659113448595"><ele>10.0</ele><time>2026-05-05T04:15:01Z</time></trkpt><trkpt lat="14.576546004057821" lon="120.99665527283312"><ele>10.0</ele><time>2026-05-05T04:15:02Z</time></trkpt><trkpt lat="14.576604545535565" lon="120.99670556755508"><ele>10.0</ele><time>2026-05-05T04:15:03Z</time></trkpt><trkpt lat="14.576663983522025" lon="120.99673914220291"><ele>10.0</ele><time>2026-05-05T04:15:04Z</time></trkpt><trkpt lat="14.57669911717416" lon="120.99680330579005"><ele>10.0</ele><time>2026-05-05T04:15:05Z</time></trkpt><trkpt lat="14.576750359690779" lon="120.99684423908718"><ele>10.0</ele><time>2026-05-05T04:15:06Z</time></trkpt><trkpt lat="14.576799561334068" lon="120.99689145544929"><ele>10.0</ele><time>2026-05-05T04:15:08Z</time></trkpt><trkpt lat="14.576852144907583" lon="120.99693464398526"><ele>9.6</ele><time>2026-05-05T04:15:11Z</time></trkpt><trkpt lat="14.576932992064805" lon="120.9969858021943"><ele>9.2</ele><time>2026-05-05T04:17:05Z</time></trkpt><trkpt lat="14.5770046332035" lon="120.99705468819705"><ele>8.8</ele><time>2026-05-05T04:17:06Z</time></trkpt><trkpt lat="14.577087215598857" lon="120.99711254162298"><ele>8.4</ele><time>2026-05-05T04:17:07Z</time></trkpt><trkpt lat="14.577171420487588" lon="120.9971799853535"><ele>8.0</ele><time>2026-05-05T04:17:08Z</time></trkpt><trkpt lat="14.57725718029759" lon="120.99724906147318"><ele>8.5</ele><time>2026-05-05T04:17:09Z</time></trkpt><trkpt lat="14.577338364323705" lon="120.99731416356235"><ele>9.0</ele><time>2026-05-05T04:17:10Z</time></trkpt><trkpt lat="14.57743466674686" lon="120.99739138919496"><ele>9.5</ele><time>2026-05-05T04:17:11Z</time></trkpt><trkpt lat="14.577529869582415" lon="120.997468370444"><ele>10.0</ele><time>2026-05-05T04:17:12Z</time></trkpt><trkpt lat="14.577625897226616" lon="120.99754658869196"><ele>10.0</ele><time>2026-05-05T04:17:13Z</time></trkpt><trkpt lat="14.577716651229128" lon="120.99762074561568"><ele>10.0</ele><time>2026-05-05T04:17:14Z</time></trkpt><trkpt lat="14.577822933513287" lon="120.99770788992502"><ele>10.0</ele><time>2026-05-05T04:17:15Z</time></trkpt><trkpt lat="14.577904902041913" lon="120.99777489686318"><ele>10.0</ele><time>2026-05-05T04:17:16Z</time></trkpt><trkpt lat="14.578010434562387" lon="120.9978604226547"><ele>9.333333333333334</ele><time>2026-05-05T04:17:17Z</time></trkpt><trkpt lat="14.578103859645289" lon="120.99793333807773"><ele>8.666666666666668</ele><time>2026-05-05T04:17:18Z</time></trkpt><trkpt lat="14.578180441517812" lon="120.99799009801188"><ele>8.0</ele><time>2026-05-05T04:17:19Z</time></trkpt><trkpt lat="14.578243209410683" lon="120.99803661948899"><ele>7.333333333333334</ele><time>2026-05-05T04:17:20Z</time></trkpt><trkpt lat="14.578294928812257" lon="120.99807495218761"><ele>6.666666666666667</ele><time>2026-05-05T04:17:21Z</time></trkpt><trkpt lat="14.578353574411354" lon="120.9981184183683"><ele>6.0</ele><time>2026-05-05T04:17:22Z</time></trkpt><trkpt lat="14.578450025271325" lon="120.99818990452795"><ele>6.0</ele><time>2026-05-05T04:17:24Z</time></trkpt><trkpt lat="14.57851041259436" lon="120.99823466160383"><ele>6.0</ele><time>2026-05-05T04:17:25Z</time></trkpt><trkpt lat="14.578569396606754" lon="120.99827850370714"><ele>6.0</ele><time>2026-05-05T04:17:26Z</time></trkpt><trkpt lat="14.578642943020057" lon="120.99832221467369"><ele>6.0</ele><time>2026-05-05T04:17:27Z</time></trkpt><trkpt lat="14.578711197633499" lon="120.99840641020131"><ele>6.0</ele><time>2026-05-05T04:17:28Z</time></trkpt><trkpt lat="14.578784068441289" lon="120.99844372098804"><ele>6.0</ele><time>2026-05-05T04:17:29Z</time></trkpt><trkpt lat="14.57887110621596" lon="120.9985157781573"><ele>6.0</ele><time>2026-05-05T04:17:30Z</time></trkpt><trkpt lat="14.578945941033899" lon="120.99858276003494"><ele>6.0</ele><time>2026-05-05T04:17:31Z</time></trkpt><trkpt lat="14.579019740093957" lon="120.99863534818563"><ele>6.0</ele><time>2026-05-05T04:17:32Z</time></trkpt><trkpt lat="14.579103625199556" lon="120.99870565150167"><ele>6.0</ele><time>2026-05-05T04:17:33Z</time></trkpt><trkpt lat="14.5791688527424" lon="120.99876253867632"><ele>6.0</ele><time>2026-05-05T04:17:34Z</time></trkpt><trkpt lat="14.579231236789163" lon="120.99880801698261"><ele>6.0</ele><time>2026-05-05T04:17:35Z</time></trkpt><trkpt lat="14.579290014415124" lon="120.99885253166914"><ele>6.0</ele><time>2026-05-05T04:17:36Z</time></trkpt><trkpt lat="14.579350904333708" lon="120.99890712002788"><ele>6.0</ele><time>2026-05-05T04:17:37Z</time></trkpt><trkpt lat="14.579423602179881" lon="120.99896756850372"><ele>6.0</ele><time>2026-05-05T04:17:38Z</time></trkpt><trkpt lat="14.579489814787541" lon="120.99902763678779"><ele>6.0</ele><time>2026-05-05T04:17:39Z</time></trkpt><trkpt lat="14.579579358977243" lon="120.99911722672162"><ele>6.8</ele><time>2026-05-05T04:17:41Z</time></trkpt><trkpt lat="14.579682557226423" lon="120.99919402185"><ele>7.6</ele><time>2026-05-05T04:17:43Z</time></trkpt><trkpt lat="14.579740670565085" lon="120.99923804407062"><ele>8.4</ele><time>2026-05-05T04:17:44Z</time></trkpt><trkpt lat="14.579836486261291" lon="120.99932862541063"><ele>9.2</ele><time>2026-05-05T04:17:46Z</time></trkpt><trkpt lat="14.579891567825522" lon="120.99937522174105"><ele>10.0</ele><time>2026-05-05T04:17:47Z</time></trkpt><trkpt lat="14.57995019264451" lon="120.99942436308777"><ele>10.0</ele><time>2026-05-05T04:17:48Z</time></trkpt><trkpt lat="14.580017165978783" lon="120.99946911258564"><ele>10.0</ele><time>2026-05-05T04:17:49Z</time></trkpt><trkpt lat="14.580063843648121" lon="120.99951416048765"><ele>10.0</ele><time>2026-05-05T04:17:50Z</time></trkpt><trkpt lat="14.580117269617167" lon="120.9995675921261"><ele>10.0</ele><time>2026-05-05T04:17:51Z</time></trkpt><trkpt lat="14.580236683011616" lon="120.9996341832309"><ele>10.0</ele><time>2026-05-05T04:17:52Z</time></trkpt><trkpt lat="14.580344032445243" lon="120.99970021988533"><ele>9.6</ele><time>2026-05-05T04:17:53Z</time></trkpt><trkpt lat="14.580434908777718" lon="120.99978447800513"><ele>9.2</ele><time>2026-05-05T04:17:55Z</time></trkpt><trkpt lat="14.580515497613524" lon="120.99984511801733"><ele>8.8</ele><time>2026-05-05T04:17:57Z</time></trkpt><trkpt lat="14.58057474865962" lon="120.99990435941254"><ele>8.4</ele><time>2026-05-05T04:17:58Z</time></trkpt><trkpt lat="14.58065229687701" lon="120.99996745570115"><ele>8.0</ele><time>2026-05-05T04:17:59Z</time></trkpt><trkpt lat="14.580719363041588" lon="121.00002591738134"><ele>8.0</ele><time>2026-05-05T04:18:00Z</time></trkpt><trkpt lat="14.580805920704165" lon="121.00009024034838"><ele>8.0</ele><time>2026-05-05T04:18:01Z</time></trkpt><trkpt lat="14.580906197940998" lon="121.00016439156039"><ele>8.0</ele><time>2026-05-05T04:18:02Z</time></trkpt><trkpt lat="14.580998948630372" lon="121.00023810096506"><ele>8.0</ele><time>2026-05-05T04:18:03Z</time></trkpt><trkpt lat="14.581095621868473" lon="121.00031754406199"><ele>8.0</ele><time>2026-05-05T04:18:04Z</time></trkpt><trkpt lat="14.581186917950303" lon="121.00039616558702"><ele>8.0</ele><time>2026-05-05T04:18:05Z</time></trkpt><trkpt lat="14.581263708815401" lon="121.00046841634934"><ele>8.0</ele><time>2026-05-05T04:18:06Z</time></trkpt><trkpt lat="14.581333473370906" lon="121.00052982753385"><ele>8.0</ele><time>2026-05-05T04:18:07Z</time></trkpt><trkpt lat="14.581398792358893" lon="121.0005902495238"><ele>8.0</ele><time>2026-05-05T04:18:08Z</time></trkpt><trkpt lat="14.58145815205469" lon="121.00064417467658"><ele>8.0</ele><time>2026-05-05T04:18:09Z</time></trkpt><trkpt lat="14.581516063847804" lon="121.00071132495366"><ele>8.0</ele><time>2026-05-05T04:18:10Z</time></trkpt><trkpt lat="14.581586880973608" lon="121.00076677480926"><ele>8.0</ele><time>2026-05-05T04:18:11Z</time></trkpt><trkpt lat="14.581660453783519" lon="121.00083426862814"><ele>8.0</ele><time>2026-05-05T04:18:12Z</time></trkpt><trkpt lat="14.581731087906457" lon="121.0008975232725"><ele>8.0</ele><time>2026-05-05T04:18:13Z</time></trkpt><trkpt lat="14.581806318063327" lon="121.00095835980554"><ele>8.166666666666666</ele><time>2026-05-05T04:18:14Z</time></trkpt><trkpt lat="14.581867732608654" lon="121.0010113706657"><ele>8.333333333333332</ele><time>2026-05-05T04:18:15Z</time></trkpt><trkpt lat="14.581932246064977" lon="121.00106540624837"><ele>8.5</ele><time>2026-05-05T04:18:16Z</time></trkpt><trkpt lat="14.581995471025495" lon="121.00112040319742"><ele>8.666666666666666</ele><time>2026-05-05T04:18:17Z</time></trkpt><trkpt lat="14.582057349909258" lon="121.00117271855076"><ele>8.833333333333334</ele><time>2026-05-05T04:18:18Z</time></trkpt><trkpt lat="14.582150835845892" lon="121.00124979373325"><ele>9.0</ele><time>2026-05-05T04:18:20Z</time></trkpt><trkpt lat="14.582209202288942" lon="121.00129620785313"><ele>9.0</ele><time>2026-05-05T04:18:21Z</time></trkpt><trkpt lat="14.582260246555084" lon="121.00134309799282"><ele>9.0</ele><time>2026-05-05T04:18:22Z</time></trkpt><trkpt lat="14.582322450136262" lon="121.00140293829887"><ele>9.0</ele><time>2026-05-05T04:18:23Z</time></trkpt><trkpt lat="14.582384065441882" lon="121.00147199557098"><ele>9.0</ele><time>2026-05-05T04:18:24Z</time></trkpt><trkpt lat="14.582455941419688" lon="121.00153965941942"><ele>9.0</ele><time>2026-05-05T04:18:25Z</time></trkpt><trkpt lat="14.58252300196114" lon="121.0016074954815"><ele>9.0</ele><time>2026-05-05T04:18:26Z</time></trkpt><trkpt lat="14.582596170533993" lon="121.00167659322143"><ele>8.8</ele><time>2026-05-05T04:18:27Z</time></trkpt><trkpt lat="14.582668774927185" lon="121.00174240136445"><ele>8.600000000000001</ele><time>2026-05-05T04:18:28Z</time></trkpt><trkpt lat="14.582752734870187" lon="121.00182037761141"><ele>8.4</ele><time>2026-05-05T04:18:29Z</time></trkpt><trkpt lat="14.582843724124837" lon="121.00189182889146"><ele>8.200000000000001</ele><time>2026-05-05T04:18:30Z</time></trkpt><trkpt lat="14.582920971363365" lon="121.00196043008299"><ele>8.0</ele><time>2026-05-05T04:18:31Z</time></trkpt><trkpt lat="14.582980189660761" lon="121.00201882952959"><ele>7.999999999999999</ele><time>2026-05-05T04:18:32Z</time></trkpt><trkpt lat="14.583047108526094" lon="121.00206284344311"><ele>8.0</ele><time>2026-05-05T04:18:33Z</time></trkpt><trkpt lat="14.583123901118201" lon="121.00215306624413"><ele>8.0</ele><time>2026-05-05T04:18:35Z</time></trkpt><trkpt lat="14.583172322780571" lon="121.00220354015867"><ele>8.0</ele><time>2026-05-05T04:18:36Z</time></trkpt><trkpt lat="14.583224778762176" lon="121.0022526410754"><ele>7.999999999999999</ele><time>2026-05-05T04:18:37Z</time></trkpt><trkpt lat="14.583271983020285" lon="121.00230328717298"><ele>8.0</ele><time>2026-05-05T04:18:38Z</time></trkpt><trkpt lat="14.583369938588019" lon="121.00238580075761"><ele>7.999999999999999</ele><time>2026-05-05T04:18:40Z</time></trkpt><trkpt lat="14.583447934087216" lon="121.00247114090807"><ele>8.0</ele><time>2026-05-05T04:18:42Z</time></trkpt><trkpt lat="14.583501163146371" lon="121.00252064392056"><ele>8.0</ele><time>2026-05-05T04:18:43Z</time></trkpt><trkpt lat="14.583558711102922" lon="121.00256693191714"><ele>8.0</ele><time>2026-05-05T04:18:44Z</time></trkpt><trkpt lat="14.583624201770016" lon="121.0026159506088"><ele>7.999999999999999</ele><time>2026-05-05T04:18:45Z</time></trkpt><trkpt lat="14.583694721617958" lon="121.00265304930349"><ele>8.0</ele><time>2026-05-05T04:18:46Z</time></trkpt><trkpt lat="14.583754429598335" lon="121.00269463486728"><ele>7.800000000000001</ele><time>2026-05-05T04:18:47Z</time></trkpt><trkpt lat="14.583760276917248" lon="121.00278538482884"><ele>7.6000000000000005</ele><time>2026-05-05T04:18:48Z</time></trkpt><trkpt lat="14.58391103243384" lon="121.00272889857031"><ele>7.3999999999999995</ele><time>2026-05-05T04:18:49Z</time></trkpt><trkpt lat="14.583980335099291" lon="121.0027196782614"><ele>7.199999999999999</ele><time>2026-05-05T04:18:50Z</time></trkpt><trkpt lat="14.584052565918604" lon="121.00271552237453"><ele>7.0</ele><time>2026-05-05T04:18:53Z</time></trkpt><trkpt lat="14.584119192270887" lon="121.00271193801062"><ele>7.000000000000001</ele><time>2026-05-05T04:18:57Z</time></trkpt><trkpt lat="14.584169809407197" lon="121.00267202550249"><ele>7.0</ele><time>2026-05-05T04:18:59Z</time></trkpt><trkpt lat="14.584242649169825" lon="121.00265868852809"><ele>7.0</ele><time>2026-05-05T04:19:01Z</time></trkpt><trkpt lat="14.584308183073484" lon="121.00260687888485"><ele>7.0</ele><time>2026-05-05T04:19:03Z</time></trkpt><trkpt lat="14.58437354327753" lon="121.00252119538042"><ele>7.000000000000001</ele><time>2026-05-05T04:19:05Z</time></trkpt><trkpt lat="14.584451019012265" lon="121.00247352974046"><ele>7.0</ele><time>2026-05-05T04:19:06Z</time></trkpt><trkpt lat="14.584528887044272" lon="121.00244415142652"><ele>7.199999999999999</ele><time>2026-05-05T04:19:07Z</time></trkpt><trkpt lat="14.584636502240926" lon="121.00239449244076"><ele>7.3999999999999995</ele><time>2026-05-05T04:19:09Z</time></trkpt><trkpt lat="14.584724357671995" lon="121.00236550292584"><ele>7.6000000000000005</ele><time>2026-05-05T04:19:11Z</time></trkpt><trkpt lat="14.584817127778983" lon="121.0023351183206"><ele>7.800000000000001</ele><time>2026-05-05T04:19:13Z</time></trkpt><trkpt lat="14.584879303691086" lon="121.00231825599316"><ele>8.0</ele><time>2026-05-05T04:19:15Z</time></trkpt><trkpt lat="14.584984668598066" lon="121.00229098489937"><ele>8.0</ele><time>2026-05-05T04:19:18Z</time></trkpt><trkpt lat="14.585097466124298" lon="121.00226079397075"><ele>8.0</ele><time>2026-05-05T04:19:20Z</time></trkpt><trkpt lat="14.585227329357583" lon="121.00224875069094"><ele>8.0</ele><time>2026-05-05T04:19:22Z</time></trkpt><trkpt lat="14.585315023866157" lon="121.00224061806044"><ele>8.0</ele><time>2026-05-05T04:19:23Z</time></trkpt><trkpt lat="14.5854035918269" lon="121.00223240444117"><ele>8.0</ele><time>2026-05-05T04:19:24Z</time></trkpt><trkpt lat="14.585501131889254" lon="121.00222335876003"><ele>7.6000000000000005</ele><time>2026-05-05T04:19:25Z</time></trkpt><trkpt lat="14.585592431170713" lon="121.00221437338551"><ele>7.200000000000001</ele><time>2026-05-05T04:19:26Z</time></trkpt><trkpt lat="14.585701691699002" lon="121.0022043472194"><ele>6.8</ele><time>2026-05-05T04:19:27Z</time></trkpt><trkpt lat="14.585808067933433" lon="121.00220651607061"><ele>6.4</ele><time>2026-05-05T04:19:28Z</time></trkpt><trkpt lat="14.585925913753051" lon="121.00217473925635"><ele>6.0</ele><time>2026-05-05T04:19:29Z</time></trkpt><trkpt lat="14.586040750771128" lon="121.00216521479705"><ele>6.0</ele><time>2026-05-05T04:19:30Z</time></trkpt><trkpt lat="14.586134382725357" lon="121.00215747046076"><ele>6.0</ele><time>2026-05-05T04:19:31Z</time></trkpt><trkpt lat="14.586237099108933" lon="121.00214572922482"><ele>6.0</ele><time>2026-05-05T04:19:32Z</time></trkpt><trkpt lat="14.58632853850776" lon="121.0021345087076"><ele>6.0</ele><time>2026-05-05T04:19:33Z</time></trkpt><trkpt lat="14.586408450878778" lon="121.00213087847818"><ele>6.0</ele><time>2026-05-05T04:19:34Z</time></trkpt><trkpt lat="14.586503227000858" lon="121.0021206418629"><ele>7.0</ele><time>2026-05-05T04:19:35Z</time></trkpt><trkpt lat="14.586601070858192" lon="121.00211361068628"><ele>8.0</ele><time>2026-05-05T04:19:36Z</time></trkpt><trkpt lat="14.586713848721695" lon="121.00210862657528"><ele>9.0</ele><time>2026-05-05T04:19:37Z</time></trkpt><trkpt lat="14.586834737070275" lon="121.00209760876041"><ele>10.0</ele><time>2026-05-05T04:19:38Z</time></trkpt><trkpt lat="14.586965185234597" lon="121.00207562714228"><ele>10.0</ele><time>2026-05-05T04:19:39Z</time></trkpt><trkpt lat="14.587083981928503" lon="121.00205924225479"><ele>10.0</ele><time>2026-05-05T04:19:40Z</time></trkpt><trkpt lat="14.58719749879725" lon="121.00204750507118"><ele>10.0</ele><time>2026-05-05T04:19:41Z</time></trkpt><trkpt lat="14.587300950382604" lon="121.00203528424204"><ele>10.0</ele><time>2026-05-05T04:19:42Z</time></trkpt><trkpt lat="14.587400690329767" lon="121.00202096199165"><ele>10.0</ele><time>2026-05-05T04:19:43Z</time></trkpt><trkpt lat="14.587485091784654" lon="121.00201588024167"><ele>10.0</ele><time>2026-05-05T04:19:44Z</time></trkpt><trkpt lat="14.587576182777932" lon="121.00200499248439"><ele>10.0</ele><time>2026-05-05T04:19:45Z</time></trkpt><trkpt lat="14.587661699444475" lon="121.0020004976168"><ele>10.0</ele><time>2026-05-05T04:19:46Z</time></trkpt><trkpt lat="14.587737022314323" lon="121.0019985107257"><ele>10.0</ele><time>2026-05-05T04:19:47Z</time></trkpt><trkpt lat="14.58781422726172" lon="121.00199372079943"><ele>10.0</ele><time>2026-05-05T04:19:48Z</time></trkpt><trkpt lat="14.587924662375372" lon="121.00199659721251"><ele>10.0</ele><time>2026-05-05T04:19:50Z</time></trkpt><trkpt lat="14.58801757138559" lon="121.00200219696845"><ele>9.333333333333334</ele><time>2026-05-05T04:19:52Z</time></trkpt><trkpt lat="14.588100735374269" lon="121.00200706680475"><ele>8.666666666666668</ele><time>2026-05-05T04:19:54.001Z</time></trkpt><trkpt lat="14.588169311059941" lon="121.00200817076096"><ele>8.0</ele><time>2026-05-05T04:19:56Z</time></trkpt><trkpt lat="14.588287400561853" lon="121.0019929353351"><ele>7.333333333333334</ele><time>2026-05-05T04:19:58Z</time></trkpt><trkpt lat="14.58836369329587" lon="121.0019839154852"><ele>6.666666666666667</ele><time>2026-05-05T04:19:59Z</time></trkpt><trkpt lat="14.58843786205488" lon="121.0019779205854"><ele>6.0</ele><time>2026-05-05T04:20:00Z</time></trkpt><trkpt lat="14.588511498067636" lon="121.00197418658115"><ele>6.0</ele><time>2026-05-05T04:20:01Z</time></trkpt><trkpt lat="14.58859004803553" lon="121.00197232452601"><ele>6.0</ele><time>2026-05-05T04:20:02Z</time></trkpt><trkpt lat="14.588670107781862" lon="121.00196210569902"><ele>6.0</ele><time>2026-05-05T04:20:03Z</time></trkpt><trkpt lat="14.588744390329872" lon="121.00195953212528"><ele>6.0</ele><time>2026-05-05T04:20:04Z</time></trkpt><trkpt lat="14.588830348719588" lon="121.00195348365769"><ele>6.0</ele><time>2026-05-05T04:20:05Z</time></trkpt><trkpt lat="14.588910036599337" lon="121.00194741722093"><ele>6.0</ele><time>2026-05-05T04:20:06Z</time></trkpt><trkpt lat="14.588983009133603" lon="121.00193837799728"><ele>6.0</ele><time>2026-05-05T04:20:07Z</time></trkpt><trkpt lat="14.589062546250812" lon="121.00193224353745"><ele>6.0</ele><time>2026-05-05T04:20:08Z</time></trkpt><trkpt lat="14.589130490745395" lon="121.00193170505702"><ele>6.0</ele><time>2026-05-05T04:20:09Z</time></trkpt><trkpt lat="14.589198584341275" lon="121.00192804896571"><ele>6.0</ele><time>2026-05-05T04:20:10Z</time></trkpt><trkpt lat="14.589325510854012" lon="121.00192071462581"><ele>6.0</ele><time>2026-05-05T04:20:12Z</time></trkpt><trkpt lat="14.589389869850297" lon="121.001915372612"><ele>6.0</ele><time>2026-05-05T04:20:13Z</time></trkpt><trkpt lat="14.589493654166164" lon="121.0019052815961"><ele>6.0</ele><time>2026-05-05T04:20:15Z</time></trkpt><trkpt lat="14.589605284405453" lon="121.00189209190295"><ele>6.0</ele><time>2026-05-05T04:20:17Z</time></trkpt><trkpt lat="14.589730412646087" lon="121.00188309185064"><ele>6.0</ele><time>2026-05-05T04:20:19Z</time></trkpt><trkpt lat="14.589853960812867" lon="121.00187192048224"><ele>6.0</ele><time>2026-05-05T04:20:21Z</time></trkpt><trkpt lat="14.589922341204693" lon="121.00186858655556"><ele>6.0</ele><time>2026-05-05T04:20:22Z</time></trkpt><trkpt lat="14.590002592394136" lon="121.00186345288913"><ele>6.0</ele><time>2026-05-05T04:20:23Z</time></trkpt><trkpt lat="14.590072009877941" lon="121.00185814704393"><ele>6.0</ele><time>2026-05-05T04:20:24Z</time></trkpt><trkpt lat="14.590150308461459" lon="121.00184832113194"><ele>6.0</ele><time>2026-05-05T04:20:25Z</time></trkpt><trkpt lat="14.590240688822135" lon="121.00183083899218"><ele>6.0</ele><time>2026-05-05T04:20:26Z</time></trkpt><trkpt lat="14.590330655603474" lon="121.00180895629957"><ele>6.0</ele><time>2026-05-05T04:20:27Z</time></trkpt><trkpt lat="14.590437438730525" lon="121.00178652257793"><ele>6.0</ele><time>2026-05-05T04:20:28Z</time></trkpt><trkpt lat="14.59055333786958" lon="121.00178539068175"><ele>5.75</ele><time>2026-05-05T04:20:29Z</time></trkpt><trkpt lat="14.590689496702337" lon="121.0017759762025"><ele>5.5</ele><time>2026-05-05T04:20:30Z</time></trkpt><trkpt lat="14.590827166267774" lon="121.00176457301421"><ele>5.25</ele><time>2026-05-05T04:20:31Z</time></trkpt><trkpt lat="14.590949631670444" lon="121.00175475267697"><ele>5.0</ele><time>2026-05-05T04:20:32Z</time></trkpt><trkpt lat="14.59107477497868" lon="121.00174734074446"><ele>4.8</ele><time>2026-05-05T04:20:33Z</time></trkpt><trkpt lat="14.591195015920487" lon="121.0017408543167"><ele>4.6</ele><time>2026-05-05T04:20:34Z</time></trkpt><trkpt lat="14.591307359179584" lon="121.00173479392896"><ele>4.4</ele><time>2026-05-05T04:20:35Z</time></trkpt><trkpt lat="14.591412746376093" lon="121.00172863551147"><ele>4.2</ele><time>2026-05-05T04:20:36Z</time></trkpt><trkpt lat="14.59151080330541" lon="121.00172340702306"><ele>4.0</ele><time>2026-05-05T04:20:37Z</time></trkpt><trkpt lat="14.591602290746046" lon="121.00171764186649"><ele>3.9999999999999996</ele><time>2026-05-05T04:20:38Z</time></trkpt><trkpt lat="14.591690494913175" lon="121.00171221718664"><ele>4.0</ele><time>2026-05-05T04:20:39Z</time></trkpt><trkpt lat="14.591766995268058" lon="121.00170751230122"><ele>4.0</ele><time>2026-05-05T04:20:40Z</time></trkpt><trkpt lat="14.591841724239487" lon="121.00170291637141"><ele>4.0</ele><time>2026-05-05T04:20:41Z</time></trkpt><trkpt lat="14.591909974818906" lon="121.00169871886088"><ele>3.9999999999999996</ele><time>2026-05-05T04:20:42Z</time></trkpt><trkpt lat="14.592027388411003" lon="121.00169124979348"><ele>4.0</ele><time>2026-05-05T04:20:44Z</time></trkpt><trkpt lat="14.59210539390645" lon="121.00168621097632"><ele>3.833333333333333</ele><time>2026-05-05T04:20:48Z</time></trkpt><trkpt lat="14.592185086524498" lon="121.00168106317678"><ele>3.6666666666666665</ele><time>2026-05-05T04:20:50Z</time></trkpt><trkpt lat="14.592283882488072" lon="121.00167468138517"><ele>3.5</ele><time>2026-05-05T04:20:52Z</time></trkpt><trkpt lat="14.592373502368718" lon="121.00166889233175"><ele>3.333333333333333</ele><time>2026-05-05T04:20:54Z</time></trkpt><trkpt lat="14.592456877247262" lon="121.00166350667689"><ele>3.1666666666666665</ele><time>2026-05-05T04:20:56Z</time></trkpt><trkpt lat="14.592521701169654" lon="121.00165931933537"><ele>3.0</ele><time>2026-05-05T04:20:58Z</time></trkpt><trkpt lat="14.592597409446363" lon="121.0016503728794"><ele>3.0</ele><time>2026-05-05T04:21:02Z</time></trkpt><trkpt lat="14.592670750313259" lon="121.00164533743758"><ele>3.0</ele><time>2026-05-05T04:22:13.999Z</time></trkpt><trkpt lat="14.592746574122366" lon="121.0016447341231"><ele>3.0</ele><time>2026-05-05T04:22:15.999Z</time></trkpt><trkpt lat="14.592869894224311" lon="121.00164337521794"><ele>3.0</ele><time>2026-05-05T04:22:17.999Z</time></trkpt><trkpt lat="14.593023175383813" lon="121.00165089743584"><ele>3.0</ele><time>2026-05-05T04:22:19.999Z</time></trkpt><trkpt lat="14.593118456526065" lon="121.00165231140548"><ele>4.75</ele><time>2026-05-05T04:22:20.999Z</time></trkpt><trkpt lat="14.593229910937586" lon="121.00165293502246"><ele>6.5</ele><time>2026-05-05T04:22:21.999Z</time></trkpt><trkpt lat="14.593347631319961" lon="121.00164516726008"><ele>8.25</ele><time>2026-05-05T04:22:22.999Z</time></trkpt><trkpt lat="14.593471251692952" lon="121.00162054549139"><ele>10.0</ele><time>2026-05-05T04:22:23.999Z</time></trkpt><trkpt lat="14.593611866591745" lon="121.0015998933729"><ele>8.75</ele><time>2026-05-05T04:22:25Z</time></trkpt><trkpt lat="14.593749107377022" lon="121.00158510749819"><ele>7.5</ele><time>2026-05-05T04:22:26Z</time></trkpt><trkpt lat="14.593903212954709" lon="121.00157423790021"><ele>6.25</ele><time>2026-05-05T04:22:27Z</time></trkpt><trkpt lat="14.59405277200812" lon="121.00156750245651"><ele>5.0</ele><time>2026-05-05T04:22:28Z</time></trkpt><trkpt lat="14.594214553168824" lon="121.00155537340846"><ele>5.0</ele><time>2026-05-05T04:22:29Z</time></trkpt><trkpt lat="14.59437697991229" lon="121.00154485808682"><ele>5.0</ele><time>2026-05-05T04:22:30Z</time></trkpt><trkpt lat="14.594540526934452" lon="121.00153610749366"><ele>5.0</ele><time>2026-05-05T04:22:31Z</time></trkpt><trkpt lat="14.594706953077402" lon="121.00152780677104"><ele>6.25</ele><time>2026-05-05T04:22:32Z</time></trkpt><trkpt lat="14.594869650435598" lon="121.0015193595898"><ele>7.5</ele><time>2026-05-05T04:22:33Z</time></trkpt><trkpt lat="14.595013248831805" lon="121.00151600971641"><ele>8.75</ele><time>2026-05-05T04:22:34Z</time></trkpt><trkpt lat="14.595148966444423" lon="121.00150879530823"><ele>10.0</ele><time>2026-05-05T04:22:35Z</time></trkpt><trkpt lat="14.59527875849333" lon="121.00150487540961"><ele>9.0</ele><time>2026-05-05T04:22:36Z</time></trkpt><trkpt lat="14.595398652435048" lon="121.00150179193248"><ele>8.0</ele><time>2026-05-05T04:22:37Z</time></trkpt><trkpt lat="14.595513529718696" lon="121.00149640300218"><ele>7.0</ele><time>2026-05-05T04:22:38Z</time></trkpt><trkpt lat="14.59562036331732" lon="121.00148802410014"><ele>6.0</ele><time>2026-05-05T04:22:39Z</time></trkpt><trkpt lat="14.595718938782943" lon="121.001482050553"><ele>5.0</ele><time>2026-05-05T04:22:40Z</time></trkpt><trkpt lat="14.595809545424634" lon="121.00147701038847"><ele>5.0</ele><time>2026-05-05T04:22:41Z</time></trkpt><trkpt lat="14.595897512195537" lon="121.00146991447508"><ele>5.0</ele><time>2026-05-05T04:22:42Z</time></trkpt><trkpt lat="14.595979247751599" lon="121.00146352438074"><ele>5.0</ele><time>2026-05-05T04:22:43Z</time></trkpt><trkpt lat="14.596052387032948" lon="121.00146119750764"><ele>5.0</ele><time>2026-05-05T04:22:44Z</time></trkpt><trkpt lat="14.596123783027082" lon="121.00145570415992"><ele>5.0</ele><time>2026-05-05T04:22:45Z</time></trkpt><trkpt lat="14.596189299710257" lon="121.0014497634732"><ele>5.0</ele><time>2026-05-05T04:22:46Z</time></trkpt><trkpt lat="14.596292915116841" lon="121.00144375226681"><ele>4.666666666666667</ele><time>2026-05-05T04:22:48Z</time></trkpt><trkpt lat="14.596379785617982" lon="121.00143626380063"><ele>4.333333333333334</ele><time>2026-05-05T04:22:50Z</time></trkpt><trkpt lat="14.59646320044022" lon="121.00143214110487"><ele>4.0</ele><time>2026-05-05T04:22:52Z</time></trkpt><trkpt lat="14.596533031704633" lon="121.00143242795757"><ele>3.666666666666667</ele><time>2026-05-05T04:22:54Z</time></trkpt><trkpt lat="14.596623632569438" lon="121.00143371083512"><ele>3.3333333333333335</ele><time>2026-05-05T04:22:56Z</time></trkpt><trkpt lat="14.596725762936575" lon="121.00142425594507"><ele>3.0</ele><time>2026-05-05T04:22:58Z</time></trkpt><trkpt lat="14.596817626056133" lon="121.0014171443486"><ele>3.0</ele><time>2026-05-05T04:23:00Z</time></trkpt><trkpt lat="14.596924624868386" lon="121.00140754532647"><ele>3.0</ele><time>2026-05-05T04:23:02Z</time></trkpt><trkpt lat="14.597020528937941" lon="121.00139180136023"><ele>3.0</ele><time>2026-05-05T04:23:04Z</time></trkpt><trkpt lat="14.597139617717415" lon="121.00137095280874"><ele>3.0</ele><time>2026-05-05T04:23:06Z</time></trkpt><trkpt lat="14.597260621653671" lon="121.0013386402588"><ele>3.666666666666667</ele><time>2026-05-05T04:23:08Z</time></trkpt><trkpt lat="14.59732832813057" lon="121.0013186803477"><ele>4.333333333333334</ele><time>2026-05-05T04:23:09Z</time></trkpt><trkpt lat="14.59740578467618" lon="121.00129068109985"><ele>5.0</ele><time>2026-05-05T04:23:10Z</time></trkpt><trkpt lat="14.59748112023706" lon="121.00126275691167"><ele>5.666666666666667</ele><time>2026-05-05T04:23:11Z</time></trkpt><trkpt lat="14.597545883697592" lon="121.00123970391542"><ele>6.333333333333334</ele><time>2026-05-05T04:23:12Z</time></trkpt><trkpt lat="14.597608934089738" lon="121.00121008006757"><ele>7.0</ele><time>2026-05-05T04:23:13Z</time></trkpt><trkpt lat="14.597688972472183" lon="121.0011722259029"><ele>7.0</ele><time>2026-05-05T04:23:15Z</time></trkpt><trkpt lat="14.597751316325303" lon="121.00113060075947"><ele>7.0</ele><time>2026-05-05T04:23:18Z</time></trkpt><trkpt lat="14.59781078494922" lon="121.00110654831958"><ele>7.0</ele><time>2026-05-05T04:23:20Z</time></trkpt><trkpt lat="14.597868662780021" lon="121.0010537416639"><ele>7.0</ele><time>2026-05-05T04:23:23Z</time></trkpt><trkpt lat="14.59792193890718" lon="121.00101740409012"><ele>7.0</ele><time>2026-05-05T04:23:25Z</time></trkpt><trkpt lat="14.59798605704422" lon="121.00097501055566"><ele>7.0</ele><time>2026-05-05T04:23:27Z</time></trkpt><trkpt lat="14.59806023758402" lon="121.00093349441362"><ele>7.0</ele><time>2026-05-05T04:23:29Z</time></trkpt><trkpt lat="14.598168507091774" lon="121.00090599909787"><ele>7.0</ele><time>2026-05-05T04:23:31Z</time></trkpt><trkpt lat="14.598246348894069" lon="121.00087966091648"><ele>6.999999999999999</ele><time>2026-05-05T04:23:32Z</time></trkpt><trkpt lat="14.59832796125037" lon="121.00082264794752"><ele>6.999999999999999</ele><time>2026-05-05T04:23:33Z</time></trkpt><trkpt lat="14.598415374033507" lon="121.00077927994167"><ele>7.0</ele><time>2026-05-05T04:23:34Z</time></trkpt><trkpt lat="14.598489509190822" lon="121.00073345141274"><ele>7.0</ele><time>2026-05-05T04:23:35Z</time></trkpt><trkpt lat="14.598570242456994" lon="121.0006880720972"><ele>7.0</ele><time>2026-05-05T04:23:36Z</time></trkpt><trkpt lat="14.598664718772518" lon="121.0006313063897"><ele>7.0</ele><time>2026-05-05T04:23:37Z</time></trkpt><trkpt lat="14.598772066796101" lon="121.00056700761873"><ele>7.0</ele><time>2026-05-05T04:23:38Z</time></trkpt><trkpt lat="14.598881048338182" lon="121.00051368000811"><ele>7.0</ele><time>2026-05-05T04:23:39Z</time></trkpt><trkpt lat="14.599004228570003" lon="121.00045481649637"><ele>6.5</ele><time>2026-05-05T04:23:40Z</time></trkpt><trkpt lat="14.599091876725224" lon="121.00040668052024"><ele>6.0</ele><time>2026-05-05T04:23:41Z</time></trkpt><trkpt lat="14.599200504201344" lon="121.00035045437194"><ele>5.5</ele><time>2026-05-05T04:23:42Z</time></trkpt><trkpt lat="14.599319400331462" lon="121.00028725800522"><ele>5.0</ele><time>2026-05-05T04:23:43Z</time></trkpt><trkpt lat="14.599447933849982" lon="121.00021736043486"><ele>4.75</ele><time>2026-05-05T04:23:44Z</time></trkpt><trkpt lat="14.59958164927705" lon="121.0001561098101"><ele>4.5</ele><time>2026-05-05T04:23:45Z</time></trkpt><trkpt lat="14.599717151652053" lon="121.0000979351853"><ele>4.25</ele><time>2026-05-05T04:23:46Z</time></trkpt><trkpt lat="14.599854755518749" lon="121.00003553770671"><ele>4.0</ele><time>2026-05-05T04:23:47Z</time></trkpt><trkpt lat="14.599985013611438" lon="120.99997514011031"><ele>4.0</ele><time>2026-05-05T04:23:48Z</time></trkpt><trkpt lat="14.600103789172547" lon="120.99991283037483"><ele>4.0</ele><time>2026-05-05T04:23:49Z</time></trkpt><trkpt lat="14.600198089286938" lon="120.99985565322837"><ele>4.0</ele><time>2026-05-05T04:23:50Z</time></trkpt><trkpt lat="14.60030171143008" lon="120.99980447134573"><ele>4.0</ele><time>2026-05-05T04:23:51Z</time></trkpt><trkpt lat="14.600389140173196" lon="120.99975893558346"><ele>5.0</ele><time>2026-05-05T04:23:52Z</time></trkpt><trkpt lat="14.60048300222171" lon="120.99970964792665"><ele>6.0</ele><time>2026-05-05T04:23:53Z</time></trkpt><trkpt lat="14.60058951971596" lon="120.99965386141515"><ele>7.0</ele><time>2026-05-05T04:23:54Z</time></trkpt><trkpt lat="14.600679500972372" lon="120.99960772383436"><ele>8.0</ele><time>2026-05-05T04:23:55Z</time></trkpt><trkpt lat="14.600757596645023" lon="120.99956116176627"><ele>9.0</ele><time>2026-05-05T04:23:56Z</time></trkpt><trkpt lat="14.600816814314024" lon="120.99952224560253"><ele>9.0</ele><time>2026-05-05T04:23:57Z</time></trkpt><trkpt lat="14.60089562477974" lon="120.99947712417811"><ele>9.0</ele><time>2026-05-05T04:23:58Z</time></trkpt><trkpt lat="14.600983092926754" lon="120.99943078634371"><ele>9.0</ele><time>2026-05-05T04:23:59Z</time></trkpt><trkpt lat="14.601087987688452" lon="120.99938593094191"><ele>9.0</ele><time>2026-05-05T04:24:00Z</time></trkpt><trkpt lat="14.601205596513251" lon="120.99933170431993"><ele>9.0</ele><time>2026-05-05T04:24:01Z</time></trkpt><trkpt lat="14.601326978005781" lon="120.99927053030848"><ele>8.666666666666666</ele><time>2026-05-05T04:24:02Z</time></trkpt><trkpt lat="14.601458866775879" lon="120.99920433436068"><ele>8.333333333333332</ele><time>2026-05-05T04:24:03Z</time></trkpt><trkpt lat="14.601598793108764" lon="120.99913528264574"><ele>8.0</ele><time>2026-05-05T04:24:04Z</time></trkpt><trkpt lat="14.601747801607102" lon="120.99906010349922"><ele>8.0</ele><time>2026-05-05T04:24:05Z</time></trkpt><trkpt lat="14.601901286930438" lon="120.99898157193749"><ele>8.0</ele><time>2026-05-05T04:24:06Z</time></trkpt><trkpt lat="14.602059673140493" lon="120.99890310294124"><ele>8.0</ele><time>2026-05-05T04:24:07Z</time></trkpt><trkpt lat="14.6022128809701" lon="120.99882469629303"><ele>8.0</ele><time>2026-05-05T04:24:07.999Z</time></trkpt><trkpt lat="14.602359898925345" lon="120.9987540730066"><ele>8.0</ele><time>2026-05-05T04:24:08.999Z</time></trkpt><trkpt lat="14.60251469719525" lon="120.99866959787747"><ele>8.0</ele><time>2026-05-05T04:24:09.999Z</time></trkpt><trkpt lat="14.602657578668651" lon="120.99859285692406"><ele>8.0</ele><time>2026-05-05T04:24:10.999Z</time></trkpt><trkpt lat="14.602790786922627" lon="120.99851906157264"><ele>8.0</ele><time>2026-05-05T04:24:11.999Z</time></trkpt><trkpt lat="14.602944455273482" lon="120.99842615499239"><ele>8.0</ele><time>2026-05-05T04:24:12.999Z</time></trkpt><trkpt lat="14.603096414387524" lon="120.99833859354985"><ele>6.666666666666666</ele><time>2026-05-05T04:24:13.999Z</time></trkpt><trkpt lat="14.603235325160671" lon="120.99826579060955"><ele>5.333333333333333</ele><time>2026-05-05T04:24:14.999Z</time></trkpt><trkpt lat="14.603370764574166" lon="120.99818807599314"><ele>4.0</ele><time>2026-05-05T04:24:15.999Z</time></trkpt><trkpt lat="14.603496800282816" lon="120.99812769215025"><ele>4.0</ele><time>2026-05-05T04:24:16.999Z</time></trkpt><trkpt lat="14.603620500675035" lon="120.99805932080737"><ele>4.0</ele><time>2026-05-05T04:24:17.999Z</time></trkpt><trkpt lat="14.603744433844932" lon="120.99800342522431"><ele>4.0</ele><time>2026-05-05T04:24:18.999Z</time></trkpt><trkpt lat="14.603864706255207" lon="120.99793518107552"><ele>4.0</ele><time>2026-05-05T04:24:19.999Z</time></trkpt><trkpt lat="14.603973888142503" lon="120.9978804742582"><ele>4.0</ele><time>2026-05-05T04:24:20.999Z</time></trkpt><trkpt lat="14.604091661351815" lon="120.99784720313377"><ele>4.0</ele><time>2026-05-05T04:24:21.999Z</time></trkpt><trkpt lat="14.604215003107011" lon="120.99778680830212"><ele>4.0</ele><time>2026-05-05T04:24:22.999Z</time></trkpt><trkpt lat="14.604323791748214" lon="120.99770947413982"><ele>4.0</ele><time>2026-05-05T04:24:23.999Z</time></trkpt><trkpt lat="14.60445343104864" lon="120.99764838247064"><ele>4.25</ele><time>2026-05-05T04:24:24.999Z</time></trkpt><trkpt lat="14.60457965737711" lon="120.99757189921432"><ele>4.5</ele><time>2026-05-05T04:24:25.999Z</time></trkpt><trkpt lat="14.60470629832639" lon="120.9974940034352"><ele>4.75</ele><time>2026-05-05T04:24:26.999Z</time></trkpt><trkpt lat="14.604819770977251" lon="120.99741862258831"><ele>5.0</ele><time>2026-05-05T04:24:27.999Z</time></trkpt><trkpt lat="14.604935638125111" lon="120.99734239808997"><ele>5.75</ele><time>2026-05-05T04:24:28.999Z</time></trkpt><trkpt lat="14.605032673856275" lon="120.99724778018948"><ele>6.5</ele><time>2026-05-05T04:24:29.999Z</time></trkpt><trkpt lat="14.60513776952489" lon="120.99717953225516"><ele>7.25</ele><time>2026-05-05T04:24:30.999Z</time></trkpt><trkpt lat="14.605246692904455" lon="120.99707289712494"><ele>8.0</ele><time>2026-05-05T04:24:31.999Z</time></trkpt><trkpt lat="14.605350796117163" lon="120.99698194932184"><ele>8.0</ele><time>2026-05-05T04:24:32.999Z</time></trkpt><trkpt lat="14.605451324172813" lon="120.99688267054766"><ele>8.0</ele><time>2026-05-05T04:24:33.999Z</time></trkpt><trkpt lat="14.605555928133604" lon="120.99678609029915"><ele>8.0</ele><time>2026-05-05T04:24:34.999Z</time></trkpt><trkpt lat="14.605660398827814" lon="120.99668620777595"><ele>8.0</ele><time>2026-05-05T04:24:35.999Z</time></trkpt><trkpt lat="14.605772081580849" lon="120.99657733588452"><ele>8.0</ele><time>2026-05-05T04:24:36.999Z</time></trkpt><trkpt lat="14.605882559450917" lon="120.9964791640386"><ele>8.0</ele><time>2026-05-05T04:24:37.999Z</time></trkpt><trkpt lat="14.606016969737967" lon="120.99636725587328"><ele>8.0</ele><time>2026-05-05T04:24:38.999Z</time></trkpt><trkpt lat="14.60613647422908" lon="120.99625432843331"><ele>7.5</ele><time>2026-05-05T04:24:39.999Z</time></trkpt><trkpt lat="14.606237464479353" lon="120.99615889570588"><ele>7.0</ele><time>2026-05-05T04:24:40.999Z</time></trkpt><trkpt lat="14.60633574564216" lon="120.99606602349641"><ele>6.5</ele><time>2026-05-05T04:24:41.999Z</time></trkpt><trkpt lat="14.606434848340571" lon="120.99597237499701"><ele>6.0</ele><time>2026-05-05T04:24:42.999Z</time></trkpt><trkpt lat="14.606536792916947" lon="120.9958751242507"><ele>6.25</ele><time>2026-05-05T04:24:43.999Z</time></trkpt><trkpt lat="14.606641976186344" lon="120.99577419262731"><ele>6.5</ele><time>2026-05-05T04:24:44.999Z</time></trkpt><trkpt lat="14.606737497234148" lon="120.9956825326703"><ele>6.75</ele><time>2026-05-05T04:24:45.999Z</time></trkpt><trkpt lat="14.606822582358326" lon="120.99557822126359"><ele>7.0</ele><time>2026-05-05T04:24:46.999Z</time></trkpt><trkpt lat="14.606914413271085" lon="120.99549780774119"><ele>6.5</ele><time>2026-05-05T04:24:47.999Z</time></trkpt><trkpt lat="14.607005606148661" lon="120.99541893702347"><ele>6.0</ele><time>2026-05-05T04:24:48.999Z</time></trkpt><trkpt lat="14.607100045222255" lon="120.99533472002717"><ele>5.5</ele><time>2026-05-05T04:24:49.999Z</time></trkpt><trkpt lat="14.607188666447882" lon="120.99525144287"><ele>5.0</ele><time>2026-05-05T04:24:51Z</time></trkpt><trkpt lat="14.607274934954605" lon="120.99516760242332"><ele>5.0</ele><time>2026-05-05T04:24:52Z</time></trkpt><trkpt lat="14.607357575027635" lon="120.99509341505014"><ele>5.0</ele><time>2026-05-05T04:24:53Z</time></trkpt><trkpt lat="14.607437051559657" lon="120.99501385778639"><ele>5.0</ele><time>2026-05-05T04:24:54Z</time></trkpt><trkpt lat="14.607515645201913" lon="120.99493788268083"><ele>5.0</ele><time>2026-05-05T04:24:55Z</time></trkpt><trkpt lat="14.607596768482924" lon="120.99486609202494"><ele>5.0</ele><time>2026-05-05T04:24:56Z</time></trkpt><trkpt lat="14.607671501518857" lon="120.9947952826031"><ele>5.25</ele><time>2026-05-05T04:24:57Z</time></trkpt><trkpt lat="14.607751793557561" lon="120.99470883314874"><ele>5.5</ele><time>2026-05-05T04:24:58Z</time></trkpt><trkpt lat="14.607845110067469" lon="120.9946113449819"><ele>5.75</ele><time>2026-05-05T04:24:59Z</time></trkpt><trkpt lat="14.607941327819843" lon="120.99452531615384"><ele>6.0</ele><time>2026-05-05T04:25:00Z</time></trkpt><trkpt lat="14.608032721243234" lon="120.994462556469"><ele>6.0</ele><time>2026-05-05T04:25:01Z</time></trkpt><trkpt lat="14.60810564595269" lon="120.99439706096618"><ele>6.0</ele><time>2026-05-05T04:25:02Z</time></trkpt><trkpt lat="14.608186270358859" lon="120.99434391126627"><ele>6.0</ele><time>2026-05-05T04:25:04Z</time></trkpt><trkpt lat="14.608272567262249" lon="120.99427655322111"><ele>6.0</ele><time>2026-05-05T04:25:06Z</time></trkpt><trkpt lat="14.608320491726866" lon="120.99423191982125"><ele>6.0</ele><time>2026-05-05T04:25:07Z</time></trkpt><trkpt lat="14.608405506115899" lon="120.99414472703134"><ele>6.166666666666667</ele><time>2026-05-05T04:25:09Z</time></trkpt><trkpt lat="14.608481031999467" lon="120.99406913014305"><ele>6.333333333333334</ele><time>2026-05-05T04:25:11Z</time></trkpt><trkpt lat="14.608528255662776" lon="120.99402593315158"><ele>6.5</ele><time>2026-05-05T04:25:13Z</time></trkpt><trkpt lat="14.608605904578173" lon="120.9939515417302"><ele>6.666666666666667</ele><time>2026-05-05T04:25:15Z</time></trkpt><trkpt lat="14.608671714858195" lon="120.99389693993037"><ele>6.833333333333334</ele><time>2026-05-05T04:25:17Z</time></trkpt><trkpt lat="14.60872095613346" lon="120.99385501877406"><ele>7.0</ele><time>2026-05-05T04:25:19Z</time></trkpt><trkpt lat="14.608778204451173" lon="120.99381096832097"><ele>6.500000000000001</ele><time>2026-05-05T04:25:24Z</time></trkpt><trkpt lat="14.608817038479746" lon="120.99374122409301"><ele>6.0</ele><time>2026-05-05T04:25:42Z</time></trkpt><trkpt lat="14.608848461024849" lon="120.99367946152749"><ele>5.5</ele><time>2026-05-05T04:26:07Z</time></trkpt><trkpt lat="14.608909277110248" lon="120.99362749293519"><ele>5.0</ele><time>2026-05-05T04:26:09Z</time></trkpt><trkpt lat="14.608971318827374" lon="120.99358233275153"><ele>4.5</ele><time>2026-05-05T04:26:11Z</time></trkpt><trkpt lat="14.609037296626624" lon="120.99352221777349"><ele>4.0</ele><time>2026-05-05T04:26:13Z</time></trkpt><trkpt lat="14.609123905140972" lon="120.99344999447857"><ele>4.0</ele><time>2026-05-05T04:26:14.999Z</time></trkpt><trkpt lat="14.609174835958562" lon="120.9934098536229"><ele>4.0</ele><time>2026-05-05T04:26:15.999Z</time></trkpt><trkpt lat="14.60923664600555" lon="120.99336905316312"><ele>4.0</ele><time>2026-05-05T04:26:16.999Z</time></trkpt><trkpt lat="14.60934564188557" lon="120.99328827152415"><ele>4.0</ele><time>2026-05-05T04:26:18.999Z</time></trkpt><trkpt lat="14.609457903213945" lon="120.99333114629292"><ele>4.0</ele><time>2026-05-05T04:26:19.999Z</time></trkpt><trkpt lat="14.60955140169959" lon="120.99333758036624"><ele>4.6</ele><time>2026-05-05T04:26:20.999Z</time></trkpt><trkpt lat="14.609652446694646" lon="120.99334119982409"><ele>5.2</ele><time>2026-05-05T04:26:21.999Z</time></trkpt><trkpt lat="14.60975736351429" lon="120.99334145083641"><ele>5.799999999999999</ele><time>2026-05-05T04:26:22.999Z</time></trkpt><trkpt lat="14.609852334180312" lon="120.99334131481943"><ele>6.3999999999999995</ele><time>2026-05-05T04:26:23.999Z</time></trkpt><trkpt lat="14.609927741423705" lon="120.99334519609837"><ele>7.0</ele><time>2026-05-05T04:26:24.999Z</time></trkpt><trkpt lat="14.610009683297523" lon="120.99334634404534"><ele>7.0</ele><time>2026-05-05T04:26:25.999Z</time></trkpt><trkpt lat="14.61007534042815" lon="120.9933621499793"><ele>6.999999999999999</ele><time>2026-05-05T04:26:26.999Z</time></trkpt><trkpt lat="14.610143818074915" lon="120.99336720014661"><ele>6.999999999999999</ele><time>2026-05-05T04:26:27.999Z</time></trkpt><trkpt lat="14.610216266881574" lon="120.99336931713121"><ele>7.0</ele><time>2026-05-05T04:26:28.999Z</time></trkpt><trkpt lat="14.610283373396843" lon="120.99354578550083"><ele>7.0</ele><time>2026-05-05T04:26:29.999Z</time></trkpt><trkpt lat="14.610363331023928" lon="120.99362753606387"><ele>7.5</ele><time>2026-05-05T04:26:30.999Z</time></trkpt><trkpt lat="14.610442593472616" lon="120.99372285378819"><ele>8.0</ele><time>2026-05-05T04:26:31.999Z</time></trkpt><trkpt lat="14.610536661213612" lon="120.99382030110753"><ele>8.5</ele><time>2026-05-05T04:26:32.999Z</time></trkpt><trkpt lat="14.6106372444149" lon="120.99390976457653"><ele>9.0</ele><time>2026-05-05T04:26:33.999Z</time></trkpt><trkpt lat="14.610724221446311" lon="120.99400135358059"><ele>9.0</ele><time>2026-05-05T04:26:34.999Z</time></trkpt><trkpt lat="14.610803183116582" lon="120.99408890764518"><ele>9.0</ele><time>2026-05-05T04:26:35.999Z</time></trkpt><trkpt lat="14.610875339049091" lon="120.99416436217476"><ele>9.0</ele><time>2026-05-05T04:26:36.999Z</time></trkpt><trkpt lat="14.610936534464543" lon="120.99422728652422"><ele>9.0</ele><time>2026-05-05T04:26:37.999Z</time></trkpt><trkpt lat="14.610991925502601" lon="120.9942833660836"><ele>9.0</ele><time>2026-05-05T04:26:38.999Z</time></trkpt><trkpt lat="14.611051401315141" lon="120.99435853542664"><ele>8.833333333333334</ele><time>2026-05-05T04:26:40.999Z</time></trkpt><trkpt lat="14.611104059048206" lon="120.99440207951947"><ele>8.666666666666666</ele><time>2026-05-05T04:26:45Z</time></trkpt><trkpt lat="14.611152133009067" lon="120.9944456221484"><ele>8.5</ele><time>2026-05-05T04:27:20Z</time></trkpt><trkpt lat="14.611219158819075" lon="120.99452202939433"><ele>8.333333333333332</ele><time>2026-05-05T04:27:22Z</time></trkpt><trkpt lat="14.61126707818613" lon="120.99457172739363"><ele>8.166666666666666</ele><time>2026-05-05T04:27:23Z</time></trkpt><trkpt lat="14.611341497128528" lon="120.99467062159175"><ele>8.0</ele><time>2026-05-05T04:27:26Z</time></trkpt><trkpt lat="14.611404656655484" lon="120.9947304186135"><ele>7.833333333333333</ele><time>2026-05-05T04:27:27Z</time></trkpt><trkpt lat="14.611457392159036" lon="120.99478820653987"><ele>7.666666666666666</ele><time>2026-05-05T04:27:28Z</time></trkpt><trkpt lat="14.611508935798923" lon="120.99485031598394"><ele>7.5</ele><time>2026-05-05T04:27:29Z</time></trkpt><trkpt lat="14.611572648748325" lon="120.99491990850525"><ele>7.333333333333334</ele><time>2026-05-05T04:27:30Z</time></trkpt><trkpt lat="14.611629120173037" lon="120.99498267725923"><ele>7.166666666666667</ele><time>2026-05-05T04:27:31Z</time></trkpt><trkpt lat="14.61167573563396" lon="120.99503557440659"><ele>7.0</ele><time>2026-05-05T04:27:32Z</time></trkpt><trkpt lat="14.611771593010458" lon="120.99513611635368"><ele>7.0</ele><time>2026-05-05T04:27:34Z</time></trkpt><trkpt lat="14.61184177415436" lon="120.9952123028766"><ele>7.0</ele><time>2026-05-05T04:27:35Z</time></trkpt><trkpt lat="14.611918223944976" lon="120.99530140006915"><ele>7.0</ele><time>2026-05-05T04:27:36Z</time></trkpt><trkpt lat="14.61199370430435" lon="120.99539672049964"><ele>7.0</ele><time>2026-05-05T04:27:37Z</time></trkpt><trkpt lat="14.612086073261763" lon="120.99549460165957"><ele>7.25</ele><time>2026-05-05T04:27:38Z</time></trkpt><trkpt lat="14.612180813490186" lon="120.99559187739428"><ele>7.5</ele><time>2026-05-05T04:27:39Z</time></trkpt><trkpt lat="14.612270368746444" lon="120.99569060410657"><ele>7.75</ele><time>2026-05-05T04:27:40Z</time></trkpt><trkpt lat="14.61235526335279" lon="120.99578980312413"><ele>8.0</ele><time>2026-05-05T04:27:41Z</time></trkpt><trkpt lat="14.612441998876667" lon="120.99588868166485"><ele>7.6000000000000005</ele><time>2026-05-05T04:27:42Z</time></trkpt><trkpt lat="14.612515619170994" lon="120.99597346791235"><ele>7.200000000000001</ele><time>2026-05-05T04:27:43Z</time></trkpt><trkpt lat="14.612579880471797" lon="120.9960427778261"><ele>6.8</ele><time>2026-05-05T04:27:44Z</time></trkpt><trkpt lat="14.612627464828345" lon="120.99609866910117"><ele>6.4</ele><time>2026-05-05T04:27:45Z</time></trkpt><trkpt lat="14.612676136684014" lon="120.99615105920078"><ele>6.0</ele><time>2026-05-05T04:27:46Z</time></trkpt><trkpt lat="14.612769446420142" lon="120.99624929832635"><ele>6.0</ele><time>2026-05-05T04:27:48Z</time></trkpt><trkpt lat="14.612842153791824" lon="120.9963239283237"><ele>6.0</ele><time>2026-05-05T04:27:50Z</time></trkpt><trkpt lat="14.612926012169286" lon="120.99641279987962"><ele>6.0</ele><time>2026-05-05T04:27:52Z</time></trkpt><trkpt lat="14.612977935056497" lon="120.99647315384962"><ele>6.0</ele><time>2026-05-05T04:27:53Z</time></trkpt><trkpt lat="14.613029057161908" lon="120.99652113737639"><ele>6.0</ele><time>2026-05-05T04:27:54Z</time></trkpt><trkpt lat="14.61309370839443" lon="120.99660373158338"><ele>6.0</ele><time>2026-05-05T04:27:56Z</time></trkpt><trkpt lat="14.61314668706727" lon="120.99665526802"><ele>6.0</ele><time>2026-05-05T04:27:59Z</time></trkpt><trkpt lat="14.613193141907583" lon="120.9967074063736"><ele>6.0</ele><time>2026-05-05T04:28:25.999Z</time></trkpt><trkpt lat="14.613244668036394" lon="120.9967752397739"><ele>6.0</ele><time>2026-05-05T04:28:28.999Z</time></trkpt><trkpt lat="14.613289531227274" lon="120.99683049456092"><ele>6.0</ele><time>2026-05-05T04:28:30.999Z</time></trkpt><trkpt lat="14.613351068619291" lon="120.99690213909217"><ele>6.0</ele><time>2026-05-05T04:28:32.999Z</time></trkpt><trkpt lat="14.613418593964306" lon="120.99697563246553"><ele>6.333333333333333</ele><time>2026-05-05T04:28:34.999Z</time></trkpt><trkpt lat="14.613508619698075" lon="120.9970691731039"><ele>6.666666666666666</ele><time>2026-05-05T04:28:36.999Z</time></trkpt><trkpt lat="14.613558699598604" lon="120.99712139729937"><ele>7.0</ele><time>2026-05-05T04:28:37.999Z</time></trkpt><trkpt lat="14.613605207883461" lon="120.997172111664"><ele>7.333333333333333</ele><time>2026-05-05T04:28:38.999Z</time></trkpt><trkpt lat="14.613658937953826" lon="120.99722901427533"><ele>7.666666666666666</ele><time>2026-05-05T04:28:39.999Z</time></trkpt><trkpt lat="14.613712276653873" lon="120.99728767993558"><ele>8.0</ele><time>2026-05-05T04:28:41Z</time></trkpt><trkpt lat="14.613763353033267" lon="120.9973482326584"><ele>7.999999999999999</ele><time>2026-05-05T04:28:42Z</time></trkpt><trkpt lat="14.613814743575155" lon="120.99740742976307"><ele>8.0</ele><time>2026-05-05T04:28:43Z</time></trkpt><trkpt lat="14.6138639352993" lon="120.99745833097982"><ele>8.0</ele><time>2026-05-05T04:28:44Z</time></trkpt><trkpt lat="14.61391643717992" lon="120.99751784725548"><ele>8.0</ele><time>2026-05-05T04:28:45Z</time></trkpt><trkpt lat="14.613972619297236" lon="120.99758079008988"><ele>7.999999999999999</ele><time>2026-05-05T04:28:46Z</time></trkpt><trkpt lat="14.614023062241584" lon="120.99763830800013"><ele>8.0</ele><time>2026-05-05T04:28:47Z</time></trkpt><trkpt lat="14.614074099612575" lon="120.99769249202086"><ele>7.999999999999999</ele><time>2026-05-05T04:28:48Z</time></trkpt><trkpt lat="14.61413493168139" lon="120.99775562874053"><ele>8.0</ele><time>2026-05-05T04:28:49Z</time></trkpt><trkpt lat="14.614191512992335" lon="120.99781868960928"><ele>8.0</ele><time>2026-05-05T04:28:50Z</time></trkpt><trkpt lat="14.614254882740106" lon="120.99788557948898"><ele>8.0</ele><time>2026-05-05T04:28:51Z</time></trkpt><trkpt lat="14.614310779677563" lon="120.99794195084682"><ele>7.999999999999999</ele><time>2026-05-05T04:28:52Z</time></trkpt><trkpt lat="14.614365403048673" lon="120.99800529232392"><ele>8.0</ele><time>2026-05-05T04:28:53Z</time></trkpt><trkpt lat="14.614422607729532" lon="120.99806003429241"><ele>7.999999999999999</ele><time>2026-05-05T04:28:54Z</time></trkpt><trkpt lat="14.614488637133872" lon="120.99812896833802"><ele>8.0</ele><time>2026-05-05T04:28:55Z</time></trkpt><trkpt lat="14.614547431086157" lon="120.99819597831757"><ele>8.0</ele><time>2026-05-05T04:28:56Z</time></trkpt><trkpt lat="14.614601422369942" lon="120.998257998071"><ele>8.0</ele><time>2026-05-05T04:28:57Z</time></trkpt><trkpt lat="14.61465453584259" lon="120.99831278223533"><ele>7.999999999999999</ele><time>2026-05-05T04:28:58Z</time></trkpt><trkpt lat="14.614701845107394" lon="120.99836340453142"><ele>8.0</ele><time>2026-05-05T04:28:59Z</time></trkpt><trkpt lat="14.614750786036545" lon="120.9984223059213"><ele>8.0</ele><time>2026-05-05T04:29:00Z</time></trkpt><trkpt lat="14.614798902750282" lon="120.99848402334452"><ele>8.0</ele><time>2026-05-05T04:29:01Z</time></trkpt><trkpt lat="14.614878065649942" lon="120.99857452497481"><ele>8.0</ele><time>2026-05-05T04:29:02Z</time></trkpt><trkpt lat="14.614959080966077" lon="120.99865691098016"><ele>8.0</ele><time>2026-05-05T04:29:03Z</time></trkpt><trkpt lat="14.615036184844534" lon="120.99873268246239"><ele>8.0</ele><time>2026-05-05T04:29:04Z</time></trkpt><trkpt lat="14.615106165211639" lon="120.99880536814524"><ele>8.0</ele><time>2026-05-05T04:29:05Z</time></trkpt><trkpt lat="14.615165393810328" lon="120.99886959567178"><ele>8.0</ele><time>2026-05-05T04:29:06Z</time></trkpt><trkpt lat="14.615218106252094" lon="120.9989318711798"><ele>8.0</ele><time>2026-05-05T04:29:07Z</time></trkpt><trkpt lat="14.615287807909908" lon="120.99900726882684"><ele>8.0</ele><time>2026-05-05T04:29:08Z</time></trkpt><trkpt lat="14.61535377063037" lon="120.99907838520726"><ele>8.0</ele><time>2026-05-05T04:29:09Z</time></trkpt><trkpt lat="14.615414243661364" lon="120.99914770052186"><ele>8.8</ele><time>2026-05-05T04:29:10Z</time></trkpt><trkpt lat="14.615488720454767" lon="120.9992289845763"><ele>9.600000000000001</ele><time>2026-05-05T04:29:11Z</time></trkpt><trkpt lat="14.615550833952133" lon="120.99930129505873"><ele>10.399999999999999</ele><time>2026-05-05T04:29:12Z</time></trkpt><trkpt lat="14.61561855524405" lon="120.99937510168132"><ele>11.2</ele><time>2026-05-05T04:29:13Z</time></trkpt><trkpt lat="14.615694453887102" lon="120.9994524535364"><ele>12.0</ele><time>2026-05-05T04:29:14Z</time></trkpt><trkpt lat="14.615768518369013" lon="120.99953519910012"><ele>12.0</ele><time>2026-05-05T04:29:15Z</time></trkpt><trkpt lat="14.615849470726735" lon="120.99962716936396"><ele>12.0</ele><time>2026-05-05T04:29:16Z</time></trkpt><trkpt lat="14.615933077190759" lon="120.99972006480186"><ele>12.0</ele><time>2026-05-05T04:29:17Z</time></trkpt><trkpt lat="14.61600374065533" lon="120.99980468475377"><ele>12.0</ele><time>2026-05-05T04:29:18Z</time></trkpt><trkpt lat="14.616087989228545" lon="120.99989838671983"><ele>14.5</ele><time>2026-05-05T04:29:19Z</time></trkpt><trkpt lat="14.616169842323307" lon="120.99998725515601"><ele>17.0</ele><time>2026-05-05T04:29:20Z</time></trkpt><trkpt lat="14.616245135888725" lon="121.00006968655632"><ele>19.5</ele><time>2026-05-05T04:29:21Z</time></trkpt><trkpt lat="14.616322768669722" lon="121.00015294114404"><ele>22.0</ele><time>2026-05-05T04:29:22Z</time></trkpt><trkpt lat="14.616398340531985" lon="121.00023865850594"><ele>22.0</ele><time>2026-05-05T04:29:23Z</time></trkpt><trkpt lat="14.61647097006662" lon="121.0003239316587"><ele>22.0</ele><time>2026-05-05T04:29:24Z</time></trkpt><trkpt lat="14.616547292527816" lon="121.00040758130147"><ele>22.0</ele><time>2026-05-05T04:29:25Z</time></trkpt><trkpt lat="14.616623222890421" lon="121.0004915094924"><ele>22.0</ele><time>2026-05-05T04:29:26Z</time></trkpt><trkpt lat="14.616697849338372" lon="121.00058126421192"><ele>22.0</ele><time>2026-05-05T04:29:27Z</time></trkpt><trkpt lat="14.616773224931025" lon="121.0006678915698"><ele>22.0</ele><time>2026-05-05T04:29:28Z</time></trkpt><trkpt lat="14.616851045408891" lon="121.0007583803817"><ele>22.0</ele><time>2026-05-05T04:29:29Z</time></trkpt><trkpt lat="14.616929716243549" lon="121.00084806248495"><ele>22.0</ele><time>2026-05-05T04:29:30Z</time></trkpt><trkpt lat="14.617003746339956" lon="121.00093387543379"><ele>22.0</ele><time>2026-05-05T04:29:31Z</time></trkpt><trkpt lat="14.617070796665748" lon="121.00100715662872"><ele>22.0</ele><time>2026-05-05T04:29:32Z</time></trkpt><trkpt lat="14.617144562804473" lon="121.00108232036474"><ele>21.5</ele><time>2026-05-05T04:29:33Z</time></trkpt><trkpt lat="14.617211826541368" lon="121.0011545515155"><ele>21.0</ele><time>2026-05-05T04:29:34Z</time></trkpt><trkpt lat="14.617269805636921" lon="121.00122018536157"><ele>20.5</ele><time>2026-05-05T04:29:35Z</time></trkpt><trkpt lat="14.617330582098473" lon="121.00128929936594"><ele>20.0</ele><time>2026-05-05T04:29:36Z</time></trkpt><trkpt lat="14.617379282509683" lon="121.0013478183682"><ele>19.5</ele><time>2026-05-05T04:29:37Z</time></trkpt><trkpt lat="14.617424519126617" lon="121.001402964105"><ele>19.0</ele><time>2026-05-05T04:29:38Z</time></trkpt><trkpt lat="14.61750038478994" lon="121.00150126016264"><ele>19.0</ele><time>2026-05-05T04:29:40Z</time></trkpt><trkpt lat="14.61755632766355" lon="121.00158659727256"><ele>19.0</ele><time>2026-05-05T04:29:42Z</time></trkpt><trkpt lat="14.617591637914872" lon="121.00167437179041"><ele>19.0</ele><time>2026-05-05T04:29:44Z</time></trkpt><trkpt lat="14.617629657007166" lon="121.0017664161801"><ele>19.0</ele><time>2026-05-05T04:29:47Z</time></trkpt><trkpt lat="14.617689017156641" lon="121.00184644174507"><ele>19.0</ele><time>2026-05-05T04:29:49Z</time></trkpt><trkpt lat="14.617750514742168" lon="121.00189259319257"><ele>18.599999999999998</ele><time>2026-05-05T04:29:50Z</time></trkpt><trkpt lat="14.617824826817902" lon="121.00193930852349"><ele>18.2</ele><time>2026-05-05T04:29:51Z</time></trkpt><trkpt lat="14.617906507418295" lon="121.00199566914706"><ele>17.799999999999997</ele><time>2026-05-05T04:29:52Z</time></trkpt><trkpt lat="14.617994550891403" lon="121.00206240041364"><ele>17.4</ele><time>2026-05-05T04:29:53Z</time></trkpt><trkpt lat="14.618078050353498" lon="121.00214149097869"><ele>17.0</ele><time>2026-05-05T04:29:54Z</time></trkpt><trkpt lat="14.618153003277358" lon="121.00222647228993"><ele>17.0</ele><time>2026-05-05T04:29:55Z</time></trkpt><trkpt lat="14.618241227517638" lon="121.00232101587302"><ele>17.0</ele><time>2026-05-05T04:29:56Z</time></trkpt><trkpt lat="14.618327637416842" lon="121.00241633231981"><ele>17.0</ele><time>2026-05-05T04:29:57Z</time></trkpt><trkpt lat="14.61841708604102" lon="121.00251809771632"><ele>17.0</ele><time>2026-05-05T04:29:58Z</time></trkpt><trkpt lat="14.618504539854424" lon="121.00261809128342"><ele>16.75</ele><time>2026-05-05T04:29:59Z</time></trkpt><trkpt lat="14.618592675133387" lon="121.00271311117193"><ele>16.5</ele><time>2026-05-05T04:30:00Z</time></trkpt><trkpt lat="14.61867278102923" lon="121.0027998049472"><ele>16.25</ele><time>2026-05-05T04:30:01Z</time></trkpt><trkpt lat="14.618751477302522" lon="121.00288471447874"><ele>16.0</ele><time>2026-05-05T04:30:02Z</time></trkpt><trkpt lat="14.618822700027623" lon="121.00296650529323"><ele>16.0</ele><time>2026-05-05T04:30:03Z</time></trkpt><trkpt lat="14.61889921225815" lon="121.00305298362095"><ele>16.0</ele><time>2026-05-05T04:30:04Z</time></trkpt><trkpt lat="14.618976993816984" lon="121.00313577742783"><ele>16.0</ele><time>2026-05-05T04:30:05Z</time></trkpt><trkpt lat="14.619039663244946" lon="121.0031973581373"><ele>16.0</ele><time>2026-05-05T04:30:06Z</time></trkpt><trkpt lat="14.619104154297451" lon="121.00325937675932"><ele>16.0</ele><time>2026-05-05T04:30:07Z</time></trkpt><trkpt lat="14.61915654140178" lon="121.00331900019317"><ele>16.333333333333332</ele><time>2026-05-05T04:30:08Z</time></trkpt><trkpt lat="14.619197451837367" lon="121.00337155586938"><ele>16.666666666666664</ele><time>2026-05-05T04:30:09Z</time></trkpt><trkpt lat="14.619240389462389" lon="121.00342398322385"><ele>17.0</ele><time>2026-05-05T04:30:10Z</time></trkpt><trkpt lat="14.619290195267688" lon="121.00348372687138"><ele>17.333333333333332</ele><time>2026-05-05T04:30:11Z</time></trkpt><trkpt lat="14.619358067951561" lon="121.00355176748866"><ele>17.666666666666668</ele><time>2026-05-05T04:30:12Z</time></trkpt><trkpt lat="14.619425866159284" lon="121.00361533187004"><ele>18.0</ele><time>2026-05-05T04:30:13Z</time></trkpt><trkpt lat="14.619491093222422" lon="121.00367320396047"><ele>18.0</ele><time>2026-05-05T04:30:14Z</time></trkpt><trkpt lat="14.619546093682102" lon="121.0037244865209"><ele>18.0</ele><time>2026-05-05T04:30:15.001Z</time></trkpt><trkpt lat="14.619594595092329" lon="121.00378177340738"><ele>18.0</ele><time>2026-05-05T04:30:16.001Z</time></trkpt><trkpt lat="14.6196548308653" lon="121.0038564624899"><ele>18.0</ele><time>2026-05-05T04:30:18.001Z</time></trkpt><trkpt lat="14.619718691478393" lon="121.00391710513102"><ele>18.0</ele><time>2026-05-05T04:30:49Z</time></trkpt><trkpt lat="14.619781909196961" lon="121.00399126513787"><ele>18.0</ele><time>2026-05-05T04:30:51Z</time></trkpt><trkpt lat="14.619826149938259" lon="121.00403865555124"><ele>18.000000000000004</ele><time>2026-05-05T04:30:52Z</time></trkpt><trkpt lat="14.619872060922892" lon="121.00408839584676"><ele>18.0</ele><time>2026-05-05T04:30:53Z</time></trkpt><trkpt lat="14.6199198276302" lon="121.00413935348517"><ele>18.0</ele><time>2026-05-05T04:30:54Z</time></trkpt><trkpt lat="14.619964477881032" lon="121.00418895140706"><ele>18.0</ele><time>2026-05-05T04:30:55Z</time></trkpt><trkpt lat="14.620009608838657" lon="121.00424133284062"><ele>18.0</ele><time>2026-05-05T04:30:56Z</time></trkpt><trkpt lat="14.62005948083645" lon="121.00430153098785"><ele>18.000000000000004</ele><time>2026-05-05T04:30:57Z</time></trkpt><trkpt lat="14.620129015230946" lon="121.00437230083627"><ele>18.0</ele><time>2026-05-05T04:30:58Z</time></trkpt><trkpt lat="14.620193550310013" lon="121.00444351394111"><ele>17.2</ele><time>2026-05-05T04:30:59Z</time></trkpt><trkpt lat="14.620264349358138" lon="121.00451593818885"><ele>16.4</ele><time>2026-05-05T04:31:00Z</time></trkpt><trkpt lat="14.620335328260458" lon="121.00459322473705"><ele>15.599999999999998</ele><time>2026-05-05T04:31:01Z</time></trkpt><trkpt lat="14.620405824834153" lon="121.00467584364974"><ele>14.799999999999999</ele><time>2026-05-05T04:31:02Z</time></trkpt><trkpt lat="14.620479763836117" lon="121.00475779834404"><ele>14.0</ele><time>2026-05-05T04:31:03Z</time></trkpt><trkpt lat="14.620552766993816" lon="121.00483775066463"><ele>14.0</ele><time>2026-05-05T04:31:04Z</time></trkpt><trkpt lat="14.620625034405666" lon="121.00491890428721"><ele>13.999999999999998</ele><time>2026-05-05T04:31:05Z</time></trkpt><trkpt lat="14.62069897707209" lon="121.00500395367023"><ele>13.999999999999998</ele><time>2026-05-05T04:31:06Z</time></trkpt><trkpt lat="14.620760090669485" lon="121.00508097730525"><ele>14.0</ele><time>2026-05-05T04:31:07Z</time></trkpt><trkpt lat="14.620832210218184" lon="121.00516376129542"><ele>14.0</ele><time>2026-05-05T04:31:08Z</time></trkpt><trkpt lat="14.620896851732036" lon="121.00524616055269"><ele>14.75</ele><time>2026-05-05T04:31:09Z</time></trkpt><trkpt lat="14.620972348980677" lon="121.00533022936793"><ele>15.5</ele><time>2026-05-05T04:31:10Z</time></trkpt><trkpt lat="14.621050196383408" lon="121.00541501712298"><ele>16.25</ele><time>2026-05-05T04:31:11Z</time></trkpt><trkpt lat="14.621127181726182" lon="121.00549663860653"><ele>17.0</ele><time>2026-05-05T04:31:12Z</time></trkpt><trkpt lat="14.621212675019148" lon="121.00557683557524"><ele>17.0</ele><time>2026-05-05T04:31:13Z</time></trkpt><trkpt lat="14.621296529582208" lon="121.005660946494"><ele>17.0</ele><time>2026-05-05T04:31:14Z</time></trkpt><trkpt lat="14.621381306003286" lon="121.00575093863084"><ele>17.0</ele><time>2026-05-05T04:31:15Z</time></trkpt><trkpt lat="14.621445200128418" lon="121.00582386066495"><ele>17.0</ele><time>2026-05-05T04:31:16Z</time></trkpt><trkpt lat="14.621518642674426" lon="121.00590904883356"><ele>17.0</ele><time>2026-05-05T04:31:18Z</time></trkpt><trkpt lat="14.621578762558464" lon="121.00596841312132"><ele>17.75</ele><time>2026-05-05T04:31:19Z</time></trkpt><trkpt lat="14.62165446831404" lon="121.00604627011697"><ele>18.5</ele><time>2026-05-05T04:31:20Z</time></trkpt><trkpt lat="14.621732651701043" lon="121.00613531076557"><ele>19.25</ele><time>2026-05-05T04:31:21Z</time></trkpt><trkpt lat="14.621817631336668" lon="121.00623157423308"><ele>20.0</ele><time>2026-05-05T04:31:22Z</time></trkpt><trkpt lat="14.621899247818133" lon="121.00632400049123"><ele>20.0</ele><time>2026-05-05T04:31:23Z</time></trkpt><trkpt lat="14.621976960254205" lon="121.00640856910061"><ele>20.0</ele><time>2026-05-05T04:31:24Z</time></trkpt><trkpt lat="14.6220416320383" lon="121.00648181545525"><ele>20.0</ele><time>2026-05-05T04:31:25Z</time></trkpt><trkpt lat="14.622097466639428" lon="121.00654449343429"><ele>20.0</ele><time>2026-05-05T04:31:26Z</time></trkpt><trkpt lat="14.622142286788373" lon="121.00659948786553"><ele>20.0</ele><time>2026-05-05T04:31:27Z</time></trkpt><trkpt lat="14.622209770087407" lon="121.00667765520072"><ele>19.6</ele><time>2026-05-05T04:31:29Z</time></trkpt><trkpt lat="14.622309722497937" lon="121.0067710202591"><ele>19.2</ele><time>2026-05-05T04:31:35Z</time></trkpt><trkpt lat="14.62236358805268" lon="121.00684162514143"><ele>18.8</ele><time>2026-05-05T04:31:36Z</time></trkpt><trkpt lat="14.622411688271704" lon="121.00689296419009"><ele>18.4</ele><time>2026-05-05T04:31:37Z</time></trkpt><trkpt lat="14.622487637767266" lon="121.00698611781952"><ele>18.0</ele><time>2026-05-05T04:31:38Z</time></trkpt><trkpt lat="14.622555247814436" lon="121.00705007465304"><ele>18.0</ele><time>2026-05-05T04:31:39Z</time></trkpt><trkpt lat="14.622625750993429" lon="121.00710681334382"><ele>18.0</ele><time>2026-05-05T04:31:40Z</time></trkpt><trkpt lat="14.622693981019205" lon="121.00719478243451"><ele>18.0</ele><time>2026-05-05T04:31:41Z</time></trkpt><trkpt lat="14.622783847708977" lon="121.00728390752863"><ele>18.0</ele><time>2026-05-05T04:31:42Z</time></trkpt><trkpt lat="14.622869360722284" lon="121.00739255397625"><ele>18.25</ele><time>2026-05-05T04:31:43Z</time></trkpt><trkpt lat="14.622962924385371" lon="121.00750409531443"><ele>18.5</ele><time>2026-05-05T04:31:44Z</time></trkpt><trkpt lat="14.623062689113633" lon="121.00761161252737"><ele>18.75</ele><time>2026-05-05T04:31:45Z</time></trkpt><trkpt lat="14.6231638883681" lon="121.00771575407886"><ele>19.0</ele><time>2026-05-05T04:31:46Z</time></trkpt><trkpt lat="14.62326148141036" lon="121.00782676356435"><ele>19.0</ele><time>2026-05-05T04:31:47Z</time></trkpt><trkpt lat="14.62335165919611" lon="121.0079340725668"><ele>19.0</ele><time>2026-05-05T04:31:48Z</time></trkpt><trkpt lat="14.623439325700899" lon="121.00803236560958"><ele>19.0</ele><time>2026-05-05T04:31:49Z</time></trkpt><trkpt lat="14.623519474317801" lon="121.0081208493679"><ele>19.0</ele><time>2026-05-05T04:31:50Z</time></trkpt><trkpt lat="14.623584629042487" lon="121.00819676128573"><ele>19.0</ele><time>2026-05-05T04:31:51Z</time></trkpt><trkpt lat="14.623646023425819" lon="121.00826604908012"><ele>19.0</ele><time>2026-05-05T04:31:52Z</time></trkpt><trkpt lat="14.623717173188759" lon="121.00834236597285"><ele>19.0</ele><time>2026-05-05T04:31:53Z</time></trkpt><trkpt lat="14.62379524888071" lon="121.00842536857633"><ele>19.0</ele><time>2026-05-05T04:31:54Z</time></trkpt><trkpt lat="14.62387290962109" lon="121.00851292601683"><ele>19.0</ele><time>2026-05-05T04:31:55Z</time></trkpt><trkpt lat="14.623951922403817" lon="121.00860881677562"><ele>17.5</ele><time>2026-05-05T04:31:56Z</time></trkpt><trkpt lat="14.624039197212142" lon="121.0086997810317"><ele>16.0</ele><time>2026-05-05T04:31:57Z</time></trkpt><trkpt lat="14.624140138775854" lon="121.00879957195295"><ele>14.5</ele><time>2026-05-05T04:31:58Z</time></trkpt><trkpt lat="14.62424532214954" lon="121.00890640856235"><ele>13.0</ele><time>2026-05-05T04:31:59Z</time></trkpt><trkpt lat="14.624346419105647" lon="121.0090276505688"><ele>13.0</ele><time>2026-05-05T04:32:00Z</time></trkpt><trkpt lat="14.624435215099242" lon="121.00913392719701"><ele>13.0</ele><time>2026-05-05T04:32:01Z</time></trkpt><trkpt lat="14.624527261023214" lon="121.0092497879886"><ele>13.0</ele><time>2026-05-05T04:32:02Z</time></trkpt><trkpt lat="14.62462932440493" lon="121.00936598975423"><ele>13.0</ele><time>2026-05-05T04:32:03Z</time></trkpt><trkpt lat="14.62473528656539" lon="121.0094790745579"><ele>13.0</ele><time>2026-05-05T04:32:04Z</time></trkpt><trkpt lat="14.624840128254197" lon="121.00959084474516"><ele>13.0</ele><time>2026-05-05T04:32:05Z</time></trkpt><trkpt lat="14.62494605209045" lon="121.00970715606472"><ele>13.0</ele><time>2026-05-05T04:32:06Z</time></trkpt><trkpt lat="14.625051513243449" lon="121.00982477610154"><ele>13.0</ele><time>2026-05-05T04:32:07Z</time></trkpt><trkpt lat="14.62515126222521" lon="121.00993759517354"><ele>13.0</ele><time>2026-05-05T04:32:08Z</time></trkpt><trkpt lat="14.625244653366913" lon="121.01004819326306"><ele>13.0</ele><time>2026-05-05T04:32:09Z</time></trkpt><trkpt lat="14.625337212652427" lon="121.01015887681635"><ele>13.0</ele><time>2026-05-05T04:32:10Z</time></trkpt><trkpt lat="14.625434274334639" lon="121.01026944466561"><ele>13.5</ele><time>2026-05-05T04:32:11Z</time></trkpt><trkpt lat="14.625531353660831" lon="121.01037414800174"><ele>14.0</ele><time>2026-05-05T04:32:12Z</time></trkpt><trkpt lat="14.625629914068394" lon="121.01048492175096"><ele>14.5</ele><time>2026-05-05T04:32:13Z</time></trkpt><trkpt lat="14.625726731031664" lon="121.0105821237415"><ele>15.0</ele><time>2026-05-05T04:32:14Z</time></trkpt><trkpt lat="14.625808621660724" lon="121.01066886668667"><ele>15.0</ele><time>2026-05-05T04:32:15Z</time></trkpt><trkpt lat="14.625902068790987" lon="121.01075192526035"><ele>15.0</ele><time>2026-05-05T04:32:16Z</time></trkpt><trkpt lat="14.625976817376815" lon="121.01082613386637"><ele>15.0</ele><time>2026-05-05T04:32:17Z</time></trkpt><trkpt lat="14.62603133253575" lon="121.01088911382624"><ele>15.0</ele><time>2026-05-05T04:32:18.001Z</time></trkpt><trkpt lat="14.626095882957564" lon="121.01094474212407"><ele>15.0</ele><time>2026-05-05T04:32:19.001Z</time></trkpt><trkpt lat="14.626187254429542" lon="121.0110416788923"><ele>15.0</ele><time>2026-05-05T04:32:21.001Z</time></trkpt><trkpt lat="14.626232654896583" lon="121.0110877158219"><ele>15.0</ele><time>2026-05-05T04:32:22.001Z</time></trkpt><trkpt lat="14.626276856591835" lon="121.0111451631815"><ele>15.0</ele><time>2026-05-05T04:32:23.001Z</time></trkpt><trkpt lat="14.62633059409624" lon="121.01120166579156"><ele>15.0</ele><time>2026-05-05T04:32:24.001Z</time></trkpt><trkpt lat="14.626396562949411" lon="121.01127124183324"><ele>15.0</ele><time>2026-05-05T04:32:25.001Z</time></trkpt><trkpt lat="14.626462436850767" lon="121.0113477882267"><ele>15.0</ele><time>2026-05-05T04:32:26.001Z</time></trkpt><trkpt lat="14.626538072926103" lon="121.01143110939567"><ele>15.0</ele><time>2026-05-05T04:32:27.001Z</time></trkpt><trkpt lat="14.626618760365794" lon="121.01151914779666"><ele>15.0</ele><time>2026-05-05T04:32:28.001Z</time></trkpt><trkpt lat="14.626703820172448" lon="121.0116089933852"><ele>15.0</ele><time>2026-05-05T04:32:29.001Z</time></trkpt><trkpt lat="14.626791913566842" lon="121.01170964978633"><ele>15.0</ele><time>2026-05-05T04:32:30.001Z</time></trkpt><trkpt lat="14.626878640284128" lon="121.01181318470026"><ele>15.75</ele><time>2026-05-05T04:32:31.001Z</time></trkpt><trkpt lat="14.626951452985848" lon="121.01190402513369"><ele>16.5</ele><time>2026-05-05T04:32:31.999Z</time></trkpt><trkpt lat="14.627045479986869" lon="121.01200541555623"><ele>17.25</ele><time>2026-05-05T04:32:32.999Z</time></trkpt><trkpt lat="14.627167917235301" lon="121.01209317483182"><ele>18.0</ele><time>2026-05-05T04:32:33.999Z</time></trkpt><trkpt lat="14.627205555022336" lon="121.01217114302798"><ele>17.8</ele><time>2026-05-05T04:32:34.999Z</time></trkpt><trkpt lat="14.627278464204558" lon="121.0122347885216"><ele>17.6</ele><time>2026-05-05T04:32:35.999Z</time></trkpt><trkpt lat="14.627352138786499" lon="121.01229694469599"><ele>17.4</ele><time>2026-05-05T04:32:36.999Z</time></trkpt><trkpt lat="14.627416947895144" lon="121.01237035107053"><ele>17.2</ele><time>2026-05-05T04:32:37.999Z</time></trkpt><trkpt lat="14.627502339135646" lon="121.01245831405484"><ele>17.0</ele><time>2026-05-05T04:32:38.999Z</time></trkpt><trkpt lat="14.627576287758473" lon="121.0125405279176"><ele>17.0</ele><time>2026-05-05T04:32:39.999Z</time></trkpt><trkpt lat="14.627652313359363" lon="121.01262143602045"><ele>17.0</ele><time>2026-05-05T04:32:40.999Z</time></trkpt><trkpt lat="14.62772800928642" lon="121.01270869546599"><ele>17.0</ele><time>2026-05-05T04:32:41.999Z</time></trkpt><trkpt lat="14.627809800294067" lon="121.01280000724651"><ele>17.0</ele><time>2026-05-05T04:32:42.999Z</time></trkpt><trkpt lat="14.627890143945683" lon="121.01288228756496"><ele>16.4</ele><time>2026-05-05T04:32:43.999Z</time></trkpt><trkpt lat="14.627965826838766" lon="121.01297015867624"><ele>15.799999999999999</ele><time>2026-05-05T04:32:44.999Z</time></trkpt><trkpt lat="14.628046168342099" lon="121.01305370326122"><ele>15.2</ele><time>2026-05-05T04:32:45.999Z</time></trkpt><trkpt lat="14.62811078899822" lon="121.01312850358562"><ele>14.6</ele><time>2026-05-05T04:32:46.999Z</time></trkpt><trkpt lat="14.62817057685052" lon="121.01320453799522"><ele>14.0</ele><time>2026-05-05T04:32:47.999Z</time></trkpt><trkpt lat="14.628231610929218" lon="121.01327945776954"><ele>14.0</ele><time>2026-05-05T04:32:48.999Z</time></trkpt><trkpt lat="14.628298954874134" lon="121.01335114974545"><ele>13.999999999999998</ele><time>2026-05-05T04:32:49.999Z</time></trkpt><trkpt lat="14.628368935180871" lon="121.01342751273808"><ele>13.999999999999998</ele><time>2026-05-05T04:32:51Z</time></trkpt><trkpt lat="14.628430341647897" lon="121.01349569606526"><ele>14.0</ele><time>2026-05-05T04:32:52Z</time></trkpt><trkpt lat="14.628485046290528" lon="121.01357733300344"><ele>14.0</ele><time>2026-05-05T04:32:53Z</time></trkpt><trkpt lat="14.628565836283837" lon="121.01363048972189"><ele>14.0</ele><time>2026-05-05T04:32:54Z</time></trkpt><trkpt lat="14.628633992203993" lon="121.0136972454516"><ele>13.999999999999998</ele><time>2026-05-05T04:32:55Z</time></trkpt><trkpt lat="14.62869975520956" lon="121.01377801680641"><ele>13.999999999999998</ele><time>2026-05-05T04:32:56Z</time></trkpt><trkpt lat="14.628759540575057" lon="121.01385935465355"><ele>14.0</ele><time>2026-05-05T04:32:57Z</time></trkpt><trkpt lat="14.628833420681966" lon="121.01392822300099"><ele>14.0</ele><time>2026-05-05T04:32:58Z</time></trkpt><trkpt lat="14.628893040596179" lon="121.01400372198437"><ele>13.399999999999999</ele><time>2026-05-05T04:32:59Z</time></trkpt><trkpt lat="14.628970131671622" lon="121.01407216058122"><ele>12.799999999999999</ele><time>2026-05-05T04:33:00Z</time></trkpt><trkpt lat="14.629029445947946" lon="121.01414898971818"><ele>12.2</ele><time>2026-05-05T04:33:01Z</time></trkpt><trkpt lat="14.629110775417182" lon="121.01421612875181"><ele>11.600000000000001</ele><time>2026-05-05T04:33:02Z</time></trkpt><trkpt lat="14.629164115213534" lon="121.01428743691339"><ele>11.0</ele><time>2026-05-05T04:33:03Z</time></trkpt><trkpt lat="14.62923047911432" lon="121.01435916735464"><ele>11.8</ele><time>2026-05-05T04:33:04Z</time></trkpt><trkpt lat="14.629301807155722" lon="121.01443549927977"><ele>12.600000000000001</ele><time>2026-05-05T04:33:05Z</time></trkpt><trkpt lat="14.62937554489761" lon="121.01451493321585"><ele>13.4</ele><time>2026-05-05T04:33:06Z</time></trkpt><trkpt lat="14.629451527830856" lon="121.01459746918995"><ele>14.2</ele><time>2026-05-05T04:33:07Z</time></trkpt><trkpt lat="14.629526670100034" lon="121.01468107812548"><ele>15.0</ele><time>2026-05-05T04:33:08Z</time></trkpt><trkpt lat="14.629603887280467" lon="121.0147656336605"><ele>15.0</ele><time>2026-05-05T04:33:09Z</time></trkpt><trkpt lat="14.629683555252887" lon="121.01485253100886"><ele>15.0</ele><time>2026-05-05T04:33:10Z</time></trkpt><trkpt lat="14.629765759003876" lon="121.0149474779234"><ele>15.0</ele><time>2026-05-05T04:33:11Z</time></trkpt><trkpt lat="14.629853051742158" lon="121.01504966298174"><ele>15.0</ele><time>2026-05-05T04:33:12Z</time></trkpt><trkpt lat="14.629946143681108" lon="121.01515731628257"><ele>14.333333333333332</ele><time>2026-05-05T04:33:13Z</time></trkpt><trkpt lat="14.630044577171908" lon="121.0152750215765"><ele>13.666666666666666</ele><time>2026-05-05T04:33:14Z</time></trkpt><trkpt lat="14.630147978975302" lon="121.01539786005104"><ele>13.0</ele><time>2026-05-05T04:33:15Z</time></trkpt><trkpt lat="14.630255028461143" lon="121.01552361759407"><ele>13.666666666666666</ele><time>2026-05-05T04:33:16Z</time></trkpt><trkpt lat="14.630366368377574" lon="121.01565207633404"><ele>14.333333333333332</ele><time>2026-05-05T04:33:17Z</time></trkpt><trkpt lat="14.630487069896853" lon="121.01578483651913"><ele>15.0</ele><time>2026-05-05T04:33:18Z</time></trkpt><trkpt lat="14.63060587939481" lon="121.01591685573833"><ele>15.0</ele><time>2026-05-05T04:33:19Z</time></trkpt><trkpt lat="14.630724294445336" lon="121.01606476595333"><ele>15.0</ele><time>2026-05-05T04:33:20Z</time></trkpt><trkpt lat="14.630839466644243" lon="121.01621627666968"><ele>15.0</ele><time>2026-05-05T04:33:21Z</time></trkpt><trkpt lat="14.630953958459742" lon="121.01636901332041"><ele>15.0</ele><time>2026-05-05T04:33:22Z</time></trkpt><trkpt lat="14.63106889189758" lon="121.01651810130782"><ele>15.0</ele><time>2026-05-05T04:33:23Z</time></trkpt><trkpt lat="14.631175912694575" lon="121.01666195282098"><ele>15.0</ele><time>2026-05-05T04:33:24Z</time></trkpt><trkpt lat="14.631269237475717" lon="121.01680238736913"><ele>15.2</ele><time>2026-05-05T04:33:25Z</time></trkpt><trkpt lat="14.631337701974388" lon="121.01692356504729"><ele>15.4</ele><time>2026-05-05T04:33:26Z</time></trkpt><trkpt lat="14.631379563439527" lon="121.01702252715587"><ele>15.600000000000001</ele><time>2026-05-05T04:33:27Z</time></trkpt><trkpt lat="14.631443974127587" lon="121.01710812231535"><ele>15.8</ele><time>2026-05-05T04:33:28Z</time></trkpt><trkpt lat="14.631480442763436" lon="121.01716452123593"><ele>16.0</ele><time>2026-05-05T04:33:29Z</time></trkpt><trkpt lat="14.631506765199175" lon="121.01723194380016"><ele>15.999999999999998</ele><time>2026-05-05T04:33:30Z</time></trkpt><trkpt lat="14.631567198955855" lon="121.01735558903069"><ele>16.0</ele><time>2026-05-05T04:33:32Z</time></trkpt><trkpt lat="14.631611070770779" lon="121.01741753063763"><ele>16.0</ele><time>2026-05-05T04:33:33Z</time></trkpt><trkpt lat="14.631658391574346" lon="121.01747568262421"><ele>16.0</ele><time>2026-05-05T04:33:34Z</time></trkpt><trkpt lat="14.631695302097436" lon="121.01754570347241"><ele>15.999999999999998</ele><time>2026-05-05T04:33:35Z</time></trkpt><trkpt lat="14.631730296151789" lon="121.01760861033362"><ele>16.0</ele><time>2026-05-05T04:33:36Z</time></trkpt><trkpt lat="14.6317733896121" lon="121.01768047308694"><ele>15.75</ele><time>2026-05-05T04:33:37Z</time></trkpt><trkpt lat="14.631845561683004" lon="121.01775796737331"><ele>15.5</ele><time>2026-05-05T04:33:38Z</time></trkpt><trkpt lat="14.631915386754763" lon="121.01786104954085"><ele>15.25</ele><time>2026-05-05T04:33:39Z</time></trkpt><trkpt lat="14.63199007802976" lon="121.01798098198758"><ele>15.0</ele><time>2026-05-05T04:33:40Z</time></trkpt><trkpt lat="14.632067556188316" lon="121.01810538928981"><ele>15.5</ele><time>2026-05-05T04:33:41Z</time></trkpt><trkpt lat="14.632142419089645" lon="121.01822559732949"><ele>16.0</ele><time>2026-05-05T04:33:42Z</time></trkpt><trkpt lat="14.632216002691464" lon="121.01834375114127"><ele>16.5</ele><time>2026-05-05T04:33:43Z</time></trkpt><trkpt lat="14.632290874951607" lon="121.0184639741744"><ele>17.0</ele><time>2026-05-05T04:33:44Z</time></trkpt><trkpt lat="14.632367754018457" lon="121.01858821269461"><ele>17.0</ele><time>2026-05-05T04:33:45Z</time></trkpt><trkpt lat="14.632448917163556" lon="121.01871919775111"><ele>17.0</ele><time>2026-05-05T04:33:46Z</time></trkpt><trkpt lat="14.632533464572012" lon="121.01885453064604"><ele>17.0</ele><time>2026-05-05T04:33:47Z</time></trkpt><trkpt lat="14.632608827526242" lon="121.01897698159439"><ele>17.0</ele><time>2026-05-05T04:33:48Z</time></trkpt><trkpt lat="14.63268131736879" lon="121.01909454662422"><ele>17.75</ele><time>2026-05-05T04:33:49Z</time></trkpt><trkpt lat="14.632763261473679" lon="121.01922736522674"><ele>18.5</ele><time>2026-05-05T04:33:50Z</time></trkpt><trkpt lat="14.632838205639016" lon="121.01934883800018"><ele>19.25</ele><time>2026-05-05T04:33:51Z</time></trkpt><trkpt lat="14.632906876616104" lon="121.01946004356935"><ele>20.0</ele><time>2026-05-05T04:33:52Z</time></trkpt><trkpt lat="14.632969264814466" lon="121.01956098140226"><ele>20.2</ele><time>2026-05-05T04:33:53Z</time></trkpt><trkpt lat="14.633027740466723" lon="121.01965553404774"><ele>20.4</ele><time>2026-05-05T04:33:54Z</time></trkpt><trkpt lat="14.633084115746593" lon="121.01974662450215"><ele>20.6</ele><time>2026-05-05T04:33:55Z</time></trkpt><trkpt lat="14.63311759544144" lon="121.01983263982366"><ele>20.8</ele><time>2026-05-05T04:33:56Z</time></trkpt><trkpt lat="14.63316895686123" lon="121.01988370970585"><ele>21.0</ele><time>2026-05-05T04:33:57Z</time></trkpt><trkpt lat="14.633225866048356" lon="121.01997566285768"><ele>21.200000000000003</ele><time>2026-05-05T04:33:59Z</time></trkpt><trkpt lat="14.633265286246708" lon="121.02003935752576"><ele>21.400000000000002</ele><time>2026-05-05T04:34:01Z</time></trkpt><trkpt lat="14.633302981120437" lon="121.02010054546363"><ele>21.6</ele><time>2026-05-05T04:34:04Z</time></trkpt><trkpt lat="14.633349333986613" lon="121.02017582470569"><ele>21.8</ele><time>2026-05-05T04:34:07Z</time></trkpt><trkpt lat="14.633414914534537" lon="121.02028233063889"><ele>22.0</ele><time>2026-05-05T04:34:09Z</time></trkpt><trkpt lat="14.633473204315813" lon="121.02037699599936"><ele>22.0</ele><time>2026-05-05T04:34:11Z</time></trkpt><trkpt lat="14.633511636675207" lon="121.02043933907078"><ele>22.0</ele><time>2026-05-05T04:34:13Z</time></trkpt><trkpt lat="14.633545790314376" lon="121.02051694803876"><ele>22.0</ele><time>2026-05-05T04:34:17Z</time></trkpt><trkpt lat="14.633598027660408" lon="121.02059871839258"><ele>22.0</ele><time>2026-05-05T04:34:19Z</time></trkpt><trkpt lat="14.633637109951891" lon="121.02065623204956"><ele>22.0</ele><time>2026-05-05T04:34:20Z</time></trkpt><trkpt lat="14.63368650656514" lon="121.02072902310972"><ele>22.0</ele><time>2026-05-05T04:34:21Z</time></trkpt><trkpt lat="14.633733614776716" lon="121.02080445858122"><ele>21.5</ele><time>2026-05-05T04:34:22Z</time></trkpt><trkpt lat="14.633786503587107" lon="121.02088043615404"><ele>21.0</ele><time>2026-05-05T04:34:23.001Z</time></trkpt><trkpt lat="14.633847915062539" lon="121.02098502985612"><ele>20.5</ele><time>2026-05-05T04:34:24.001Z</time></trkpt><trkpt lat="14.633905243373647" lon="121.02109699484943"><ele>20.0</ele><time>2026-05-05T04:34:25.001Z</time></trkpt><trkpt lat="14.633985432359877" lon="121.02121945688477"><ele>20.0</ele><time>2026-05-05T04:34:26.001Z</time></trkpt><trkpt lat="14.634070457092875" lon="121.02134547047959"><ele>20.0</ele><time>2026-05-05T04:34:27.001Z</time></trkpt><trkpt lat="14.634157403154436" lon="121.02147900496175"><ele>20.0</ele><time>2026-05-05T04:34:28.001Z</time></trkpt><trkpt lat="14.63424644655781" lon="121.02162718857906"><ele>20.0</ele><time>2026-05-05T04:34:29.001Z</time></trkpt><trkpt lat="14.634337658444997" lon="121.02177373694448"><ele>20.0</ele><time>2026-05-05T04:34:30.001Z</time></trkpt><trkpt lat="14.634426504598856" lon="121.02191040500689"><ele>20.0</ele><time>2026-05-05T04:34:31.001Z</time></trkpt><trkpt lat="14.634518251810126" lon="121.02204736564883"><ele>20.25</ele><time>2026-05-05T04:34:32.001Z</time></trkpt><trkpt lat="14.634597743178746" lon="121.02217087598429"><ele>20.5</ele><time>2026-05-05T04:34:33.001Z</time></trkpt><trkpt lat="14.634672117416871" lon="121.02228543496463"><ele>20.75</ele><time>2026-05-05T04:34:34.001Z</time></trkpt><trkpt lat="14.63473809423407" lon="121.02238840725386"><ele>21.0</ele><time>2026-05-05T04:34:35.001Z</time></trkpt><trkpt lat="14.634783507441998" lon="121.02247961367233"><ele>20.666666666666668</ele><time>2026-05-05T04:34:36.001Z</time></trkpt><trkpt lat="14.634841599149233" lon="121.02256176535143"><ele>20.333333333333332</ele><time>2026-05-05T04:34:37.001Z</time></trkpt><trkpt lat="14.6348971717116" lon="121.02263274388477"><ele>20.0</ele><time>2026-05-05T04:34:37.999Z</time></trkpt><trkpt lat="14.634943701413277" lon="121.02270441288242"><ele>19.666666666666664</ele><time>2026-05-05T04:34:38.999Z</time></trkpt><trkpt lat="14.634978600759046" lon="121.02276978256043"><ele>19.333333333333332</ele><time>2026-05-05T04:34:39.999Z</time></trkpt><trkpt lat="14.635024891672368" lon="121.02284496887009"><ele>19.0</ele><time>2026-05-05T04:34:40.999Z</time></trkpt><trkpt lat="14.635071050782905" lon="121.02292176412239"><ele>19.0</ele><time>2026-05-05T04:34:41.999Z</time></trkpt><trkpt lat="14.635114387998886" lon="121.02299699033567"><ele>19.0</ele><time>2026-05-05T04:34:42.999Z</time></trkpt><trkpt lat="14.635155344100411" lon="121.02307467055805"><ele>19.0</ele><time>2026-05-05T04:34:43.999Z</time></trkpt><trkpt lat="14.635198810577792" lon="121.02315888474762"><ele>19.0</ele><time>2026-05-05T04:34:44.999Z</time></trkpt><trkpt lat="14.6352568445589" lon="121.02325151387927"><ele>19.0</ele><time>2026-05-05T04:34:45.999Z</time></trkpt><trkpt lat="14.63532524383634" lon="121.02335588902031"><ele>20.75</ele><time>2026-05-05T04:34:46.999Z</time></trkpt><trkpt lat="14.635396896377813" lon="121.02347059563182"><ele>22.5</ele><time>2026-05-05T04:34:47.999Z</time></trkpt><trkpt lat="14.635469598375128" lon="121.02358946055129"><ele>24.25</ele><time>2026-05-05T04:34:48.999Z</time></trkpt><trkpt lat="14.635534989101464" lon="121.02370002107533"><ele>26.0</ele><time>2026-05-05T04:34:49.999Z</time></trkpt><trkpt lat="14.635598830054597" lon="121.02379477641563"><ele>26.0</ele><time>2026-05-05T04:34:50.999Z</time></trkpt><trkpt lat="14.635665392901911" lon="121.02387998915128"><ele>26.0</ele><time>2026-05-05T04:34:51.999Z</time></trkpt><trkpt lat="14.635735390734672" lon="121.02397381614291"><ele>26.0</ele><time>2026-05-05T04:34:52.999Z</time></trkpt><trkpt lat="14.635788622281312" lon="121.02406087447562"><ele>26.0</ele><time>2026-05-05T04:34:53.999Z</time></trkpt><trkpt lat="14.635839127971156" lon="121.02414658738192"><ele>26.0</ele><time>2026-05-05T04:34:54.999Z</time></trkpt><trkpt lat="14.635886607818476" lon="121.02423179529609"><ele>26.8</ele><time>2026-05-05T04:34:55.999Z</time></trkpt><trkpt lat="14.635931345712535" lon="121.02431805101692"><ele>27.6</ele><time>2026-05-05T04:34:56.999Z</time></trkpt><trkpt lat="14.635970392875736" lon="121.02439414425604"><ele>28.4</ele><time>2026-05-05T04:34:57.999Z</time></trkpt><trkpt lat="14.636007190693908" lon="121.02445754328281"><ele>29.2</ele><time>2026-05-05T04:34:58.999Z</time></trkpt><trkpt lat="14.636074976801318" lon="121.0245620262879"><ele>30.0</ele><time>2026-05-05T04:35:01Z</time></trkpt><trkpt lat="14.636128355063388" lon="121.0246389560843"><ele>30.0</ele><time>2026-05-05T04:35:03Z</time></trkpt><trkpt lat="14.636180106865803" lon="121.02472633808061"><ele>30.0</ele><time>2026-05-05T04:35:05Z</time></trkpt><trkpt lat="14.6362238273144" lon="121.02478966368737"><ele>30.0</ele><time>2026-05-05T04:35:07Z</time></trkpt><trkpt lat="14.636263555565002" lon="121.02486033151851"><ele>30.0</ele><time>2026-05-05T04:35:13Z</time></trkpt><trkpt lat="14.636310285486834" lon="121.0249309182097"><ele>30.0</ele><time>2026-05-05T04:35:16Z</time></trkpt><trkpt lat="14.636356279148025" lon="121.025004474215"><ele>30.0</ele><time>2026-05-05T04:35:19Z</time></trkpt><trkpt lat="14.636364200331771" lon="121.02508633107102"><ele>30.0</ele><time>2026-05-05T04:35:25Z</time></trkpt><trkpt lat="14.63641283422923" lon="121.02514689359055"><ele>30.0</ele><time>2026-05-05T04:35:27Z</time></trkpt><trkpt lat="14.63646357968661" lon="121.02521822298685"><ele>30.0</ele><time>2026-05-05T04:35:30Z</time></trkpt><trkpt lat="14.636504393811334" lon="121.02528801760832"><ele>30.0</ele><time>2026-05-05T04:35:33Z</time></trkpt><trkpt lat="14.636546373154497" lon="121.0253602103197"><ele>30.0</ele><time>2026-05-05T04:35:37Z</time></trkpt><trkpt lat="14.636590202540484" lon="121.02542305809952"><ele>30.0</ele><time>2026-05-05T04:35:42Z</time></trkpt><trkpt lat="14.636633787848073" lon="121.0254928385082"><ele>30.0</ele><time>2026-05-05T04:35:45Z</time></trkpt><trkpt lat="14.636690553339895" lon="121.02557389831577"><ele>30.0</ele><time>2026-05-05T04:35:48Z</time></trkpt><trkpt lat="14.636784230581343" lon="121.02567715617486"><ele>30.0</ele><time>2026-05-05T04:35:50Z</time></trkpt><trkpt lat="14.6368398775795" lon="121.02575525117618"><ele>30.0</ele><time>2026-05-05T04:35:51Z</time></trkpt><trkpt lat="14.636895523017328" lon="121.02584344773692"><ele>30.0</ele><time>2026-05-05T04:35:52Z</time></trkpt><trkpt lat="14.636941585503353" lon="121.02592791367296"><ele>29.666666666666668</ele><time>2026-05-05T04:35:53Z</time></trkpt><trkpt lat="14.636969951492103" lon="121.02600257740146"><ele>29.333333333333336</ele><time>2026-05-05T04:35:54Z</time></trkpt><trkpt lat="14.637033266257102" lon="121.02607372021669"><ele>29.0</ele><time>2026-05-05T04:35:55Z</time></trkpt><trkpt lat="14.637071147831357" lon="121.02613520234502"><ele>28.666666666666668</ele><time>2026-05-05T04:35:56Z</time></trkpt><trkpt lat="14.637134762401462" lon="121.02622678141022"><ele>28.333333333333336</ele><time>2026-05-05T04:35:58Z</time></trkpt><trkpt lat="14.63717392492413" lon="121.02628773445488"><ele>28.0</ele><time>2026-05-05T04:36:00Z</time></trkpt><trkpt lat="14.63722286536819" lon="121.0263606188785"><ele>28.0</ele><time>2026-05-05T04:36:02Z</time></trkpt><trkpt lat="14.637268336947702" lon="121.02643493706856"><ele>27.999999999999996</ele><time>2026-05-05T04:36:04Z</time></trkpt><trkpt lat="14.637335525273734" lon="121.02654814230765"><ele>27.999999999999996</ele><time>2026-05-05T04:36:06Z</time></trkpt><trkpt lat="14.637378753178888" lon="121.02661941391628"><ele>28.0</ele><time>2026-05-05T04:36:07Z</time></trkpt><trkpt lat="14.637424643125222" lon="121.02669403976905"><ele>28.0</ele><time>2026-05-05T04:36:08Z</time></trkpt><trkpt lat="14.637480214045665" lon="121.02678370198353"><ele>27.5</ele><time>2026-05-05T04:36:09Z</time></trkpt><trkpt lat="14.637542555466865" lon="121.02688010687504"><ele>27.0</ele><time>2026-05-05T04:36:10Z</time></trkpt><trkpt lat="14.63761295741273" lon="121.02699711236104"><ele>26.5</ele><time>2026-05-05T04:36:11Z</time></trkpt><trkpt lat="14.637687443016912" lon="121.02712881506983"><ele>26.0</ele><time>2026-05-05T04:36:12Z</time></trkpt><trkpt lat="14.63776426212368" lon="121.02725678051162"><ele>25.25</ele><time>2026-05-05T04:36:13Z</time></trkpt><trkpt lat="14.637841715282539" lon="121.02737678134568"><ele>24.5</ele><time>2026-05-05T04:36:14Z</time></trkpt><trkpt lat="14.637910640431953" lon="121.02748684552152"><ele>23.75</ele><time>2026-05-05T04:36:15Z</time></trkpt><trkpt lat="14.637976378370318" lon="121.02758950655212"><ele>23.0</ele><time>2026-05-05T04:36:16Z</time></trkpt><trkpt lat="14.638043514065942" lon="121.02769107326922"><ele>22.75</ele><time>2026-05-05T04:36:17Z</time></trkpt><trkpt lat="14.638107510256926" lon="121.02779000850444"><ele>22.5</ele><time>2026-05-05T04:36:18Z</time></trkpt><trkpt lat="14.638175726833946" lon="121.02789557342358"><ele>22.25</ele><time>2026-05-05T04:36:19Z</time></trkpt><trkpt lat="14.638236044854656" lon="121.02799288174477"><ele>22.0</ele><time>2026-05-05T04:36:20Z</time></trkpt><trkpt lat="14.638298531287198" lon="121.02809475915176"><ele>22.0</ele><time>2026-05-05T04:36:21Z</time></trkpt><trkpt lat="14.638349539935273" lon="121.02818474059737"><ele>22.0</ele><time>2026-05-05T04:36:22Z</time></trkpt><trkpt lat="14.638399909671651" lon="121.0282673786406"><ele>22.0</ele><time>2026-05-05T04:36:23Z</time></trkpt><trkpt lat="14.638440110266512" lon="121.02834158107672"><ele>22.0</ele><time>2026-05-05T04:36:24Z</time></trkpt><trkpt lat="14.638486446488612" lon="121.0284194345238"><ele>22.0</ele><time>2026-05-05T04:36:25Z</time></trkpt><trkpt lat="14.638536031940367" lon="121.02850008734536"><ele>21.75</ele><time>2026-05-05T04:36:26Z</time></trkpt><trkpt lat="14.638589941694946" lon="121.0285916796874"><ele>21.5</ele><time>2026-05-05T04:36:27Z</time></trkpt><trkpt lat="14.638651718107095" lon="121.0286901286917"><ele>21.25</ele><time>2026-05-05T04:36:28.001Z</time></trkpt><trkpt lat="14.638717126360602" lon="121.02879826110306"><ele>21.0</ele><time>2026-05-05T04:36:29.001Z</time></trkpt><trkpt lat="14.638783154572351" lon="121.02890427169227"><ele>21.6</ele><time>2026-05-05T04:36:30.001Z</time></trkpt><trkpt lat="14.638849676633416" lon="121.02900696861087"><ele>22.200000000000003</ele><time>2026-05-05T04:36:31.001Z</time></trkpt><trkpt lat="14.63890730515847" lon="121.02910429246174"><ele>22.799999999999997</ele><time>2026-05-05T04:36:32.001Z</time></trkpt><trkpt lat="14.638966282237115" lon="121.02919579419573"><ele>23.4</ele><time>2026-05-05T04:36:33.001Z</time></trkpt><trkpt lat="14.63901919016643" lon="121.02928278631887"><ele>24.0</ele><time>2026-05-05T04:36:34.001Z</time></trkpt><trkpt lat="14.63906096595772" lon="121.02935690943946"><ele>24.0</ele><time>2026-05-05T04:36:35.001Z</time></trkpt><trkpt lat="14.639099052931359" lon="121.0294215902154"><ele>24.0</ele><time>2026-05-05T04:36:36.001Z</time></trkpt><trkpt lat="14.639135966200794" lon="121.02948143928461"><ele>24.0</ele><time>2026-05-05T04:36:37.001Z</time></trkpt><trkpt lat="14.639173473732642" lon="121.02953780595313"><ele>24.0</ele><time>2026-05-05T04:36:38.001Z</time></trkpt><trkpt lat="14.639210297785286" lon="121.02959432022286"><ele>24.0</ele><time>2026-05-05T04:36:39.001Z</time></trkpt><trkpt lat="14.639266104342719" lon="121.02969340748047"><ele>24.0</ele><time>2026-05-05T04:36:41.001Z</time></trkpt><trkpt lat="14.639313506905143" lon="121.02977222346416"><ele>24.0</ele><time>2026-05-05T04:36:43.001Z</time></trkpt><trkpt lat="14.639339994717378" lon="121.0298385567603"><ele>24.0</ele><time>2026-05-05T04:36:45.999Z</time></trkpt><trkpt lat="14.639382579234963" lon="121.0298958810901"><ele>24.0</ele><time>2026-05-05T04:36:50.999Z</time></trkpt><trkpt lat="14.639420172722836" lon="121.02995512006908"><ele>24.0</ele><time>2026-05-05T04:36:53.999Z</time></trkpt><trkpt lat="14.63945332876415" lon="121.03001570998859"><ele>24.0</ele><time>2026-05-05T04:36:58.999Z</time></trkpt><trkpt lat="14.63950448128091" lon="121.0301123721341"><ele>24.0</ele><time>2026-05-05T04:37:01.999Z</time></trkpt><trkpt lat="14.639549569145101" lon="121.03018344918868"><ele>25.0</ele><time>2026-05-05T04:37:03.999Z</time></trkpt><trkpt lat="14.639611365149442" lon="121.03027261258438"><ele>26.0</ele><time>2026-05-05T04:37:05.999Z</time></trkpt><trkpt lat="14.639666264703875" lon="121.03037394948508"><ele>27.0</ele><time>2026-05-05T04:37:07.999Z</time></trkpt><trkpt lat="14.63970894182141" lon="121.03043264791827"><ele>28.0</ele><time>2026-05-05T04:37:08.999Z</time></trkpt><trkpt lat="14.639753506651362" lon="121.0305009427108"><ele>29.0</ele><time>2026-05-05T04:37:09.999Z</time></trkpt><trkpt lat="14.639792745797823" lon="121.03057246218195"><ele>30.0</ele><time>2026-05-05T04:37:10.999Z</time></trkpt><trkpt lat="14.639830944309958" lon="121.03064965294882"><ele>30.0</ele><time>2026-05-05T04:37:12Z</time></trkpt><trkpt lat="14.639866479317952" lon="121.03071793036374"><ele>30.0</ele><time>2026-05-05T04:37:13Z</time></trkpt><trkpt lat="14.639911957064857" lon="121.03078792202668"><ele>30.0</ele><time>2026-05-05T04:37:14Z</time></trkpt><trkpt lat="14.639956742232929" lon="121.03086348685291"><ele>30.0</ele><time>2026-05-05T04:37:15Z</time></trkpt><trkpt lat="14.640006157070657" lon="121.03094194692393"><ele>30.0</ele><time>2026-05-05T04:37:16Z</time></trkpt><trkpt lat="14.640049783853161" lon="121.03101188279051"><ele>30.0</ele><time>2026-05-05T04:37:17Z</time></trkpt><trkpt lat="14.640095371834295" lon="121.03107987001408"><ele>30.0</ele><time>2026-05-05T04:37:18Z</time></trkpt><trkpt lat="14.640140089985318" lon="121.03115452618187"><ele>30.0</ele><time>2026-05-05T04:37:19Z</time></trkpt><trkpt lat="14.64018290315032" lon="121.03123620438029"><ele>30.0</ele><time>2026-05-05T04:37:20Z</time></trkpt><trkpt lat="14.640235051324954" lon="121.03131254949066"><ele>30.0</ele><time>2026-05-05T04:37:21Z</time></trkpt><trkpt lat="14.64029090216364" lon="121.0313941709374"><ele>30.0</ele><time>2026-05-05T04:37:22Z</time></trkpt><trkpt lat="14.640343262123443" lon="121.03147428079583"><ele>29.8</ele><time>2026-05-05T04:37:23Z</time></trkpt><trkpt lat="14.64039794398607" lon="121.03156105546199"><ele>29.6</ele><time>2026-05-05T04:37:24Z</time></trkpt><trkpt lat="14.640454146646945" lon="121.03165390918598"><ele>29.4</ele><time>2026-05-05T04:37:25Z</time></trkpt><trkpt lat="14.640513105650099" lon="121.03174849572221"><ele>29.2</ele><time>2026-05-05T04:37:26Z</time></trkpt><trkpt lat="14.640563823046996" lon="121.03183741512171"><ele>29.0</ele><time>2026-05-05T04:37:27Z</time></trkpt><trkpt lat="14.640611761172003" lon="121.03191876237887"><ele>29.4</ele><time>2026-05-05T04:37:28Z</time></trkpt><trkpt lat="14.640654843312547" lon="121.03200239008105"><ele>29.799999999999997</ele><time>2026-05-05T04:37:29Z</time></trkpt><trkpt lat="14.640698483595495" lon="121.03209056926316"><ele>30.200000000000003</ele><time>2026-05-05T04:37:30Z</time></trkpt><trkpt lat="14.640745859820209" lon="121.03217636990763"><ele>30.6</ele><time>2026-05-05T04:37:31Z</time></trkpt><trkpt lat="14.64080017740193" lon="121.03225736972477"><ele>31.0</ele><time>2026-05-05T04:37:32Z</time></trkpt><trkpt lat="14.640856123636295" lon="121.0323370182997"><ele>31.000000000000004</ele><time>2026-05-05T04:37:33Z</time></trkpt><trkpt lat="14.640907069088788" lon="121.03242430512739"><ele>31.0</ele><time>2026-05-05T04:37:34.001Z</time></trkpt><trkpt lat="14.640946383486602" lon="121.03249144509367"><ele>31.0</ele><time>2026-05-05T04:37:35.001Z</time></trkpt><trkpt lat="14.640993448706293" lon="121.0325529658799"><ele>31.0</ele><time>2026-05-05T04:37:36.001Z</time></trkpt><trkpt lat="14.641033060863585" lon="121.03262169984262"><ele>31.000000000000004</ele><time>2026-05-05T04:37:37.001Z</time></trkpt><trkpt lat="14.641075849110015" lon="121.0326891068029"><ele>31.0</ele><time>2026-05-05T04:37:38.001Z</time></trkpt><trkpt lat="14.641112569386983" lon="121.03274853478722"><ele>31.166666666666668</ele><time>2026-05-05T04:37:39.001Z</time></trkpt><trkpt lat="14.641149761939504" lon="121.03280951258623"><ele>31.333333333333336</ele><time>2026-05-05T04:37:40.001Z</time></trkpt><trkpt lat="14.641183089905974" lon="121.03287325885498"><ele>31.5</ele><time>2026-05-05T04:37:41.001Z</time></trkpt><trkpt lat="14.641216994044244" lon="121.03292919810289"><ele>31.666666666666664</ele><time>2026-05-05T04:37:42.001Z</time></trkpt><trkpt lat="14.641252785556194" lon="121.03298424216509"><ele>31.833333333333332</ele><time>2026-05-05T04:37:43.001Z</time></trkpt><trkpt lat="14.641266704030148" lon="121.03312518489744"><ele>32.0</ele><time>2026-05-05T04:37:45.001Z</time></trkpt><trkpt lat="14.641338693729875" lon="121.03323597947161"><ele>32.4</ele><time>2026-05-05T04:37:47.001Z</time></trkpt><trkpt lat="14.641385629330419" lon="121.03330839591344"><ele>32.800000000000004</ele><time>2026-05-05T04:37:48.001Z</time></trkpt><trkpt lat="14.641436904382703" lon="121.03339789301917"><ele>33.2</ele><time>2026-05-05T04:37:49.001Z</time></trkpt><trkpt lat="14.641477865562617" lon="121.03348103543182"><ele>33.6</ele><time>2026-05-05T04:37:50.001Z</time></trkpt><trkpt lat="14.641526918558716" lon="121.03356395631083"><ele>34.0</ele><time>2026-05-05T04:37:51.001Z</time></trkpt><trkpt lat="14.641584657774107" lon="121.0336482758866"><ele>34.0</ele><time>2026-05-05T04:37:52.001Z</time></trkpt><trkpt lat="14.64164098294835" lon="121.03374115719129"><ele>34.0</ele><time>2026-05-05T04:37:53.001Z</time></trkpt><trkpt lat="14.641697773430407" lon="121.03384022834716"><ele>34.0</ele><time>2026-05-05T04:37:54.001Z</time></trkpt><trkpt lat="14.641755864269058" lon="121.03392729665521"><ele>34.0</ele><time>2026-05-05T04:37:55.001Z</time></trkpt><trkpt lat="14.64181467980707" lon="121.03401267062715"><ele>34.0</ele><time>2026-05-05T04:37:56.001Z</time></trkpt><trkpt lat="14.641872049067734" lon="121.03409989676251"><ele>34.2</ele><time>2026-05-05T04:37:57.001Z</time></trkpt><trkpt lat="14.641930203162294" lon="121.03420368142504"><ele>34.4</ele><time>2026-05-05T04:37:58.001Z</time></trkpt><trkpt lat="14.64198865064447" lon="121.03429635491116"><ele>34.6</ele><time>2026-05-05T04:37:59.001Z</time></trkpt><trkpt lat="14.642051052624089" lon="121.03439008795372"><ele>34.8</ele><time>2026-05-05T04:38:00.001Z</time></trkpt><trkpt lat="14.642113441468835" lon="121.03448640693986"><ele>35.0</ele><time>2026-05-05T04:38:01.001Z</time></trkpt><trkpt lat="14.642176646715809" lon="121.03457922467209"><ele>35.0</ele><time>2026-05-05T04:38:02.001Z</time></trkpt><trkpt lat="14.642232181401399" lon="121.03467875478843"><ele>35.0</ele><time>2026-05-05T04:38:03.001Z</time></trkpt><trkpt lat="14.642362278958883" lon="121.03474870825912"><ele>35.0</ele><time>2026-05-05T04:38:04.001Z</time></trkpt><trkpt lat="14.642360612719427" lon="121.03489757190066"><ele>35.0</ele><time>2026-05-05T04:38:05.001Z</time></trkpt><trkpt lat="14.642416732305167" lon="121.03498609376489"><ele>35.5</ele><time>2026-05-05T04:38:06.001Z</time></trkpt><trkpt lat="14.642467988152433" lon="121.03508114223081"><ele>36.0</ele><time>2026-05-05T04:38:07.001Z</time></trkpt><trkpt lat="14.642517721245314" lon="121.03515664510437"><ele>36.5</ele><time>2026-05-05T04:38:08.001Z</time></trkpt><trkpt lat="14.642567053004818" lon="121.03521763095868"><ele>37.0</ele><time>2026-05-05T04:38:09.001Z</time></trkpt><trkpt lat="14.642610231869561" lon="121.03529711874553"><ele>37.5</ele><time>2026-05-05T04:38:10.001Z</time></trkpt><trkpt lat="14.64264661247386" lon="121.03536486209549"><ele>38.0</ele><time>2026-05-05T04:38:11.001Z</time></trkpt><trkpt lat="14.64268099031315" lon="121.03542223348583"><ele>38.0</ele><time>2026-05-05T04:38:12.001Z</time></trkpt><trkpt lat="14.642718142322877" lon="121.03549903867592"><ele>38.0</ele><time>2026-05-05T04:38:13.001Z</time></trkpt><trkpt lat="14.642755110090876" lon="121.03557191316544"><ele>38.0</ele><time>2026-05-05T04:38:14.001Z</time></trkpt><trkpt lat="14.642803187829779" lon="121.03564226281361"><ele>38.0</ele><time>2026-05-05T04:38:15.001Z</time></trkpt><trkpt lat="14.642846133095675" lon="121.03570629016113"><ele>38.0</ele><time>2026-05-05T04:38:16.001Z</time></trkpt><trkpt lat="14.642887462869057" lon="121.03577405247145"><ele>38.0</ele><time>2026-05-05T04:38:17.001Z</time></trkpt><trkpt lat="14.642925997416048" lon="121.03584434825757"><ele>38.0</ele><time>2026-05-05T04:38:18.001Z</time></trkpt><trkpt lat="14.64296744361053" lon="121.03592840423703"><ele>38.0</ele><time>2026-05-05T04:38:19.001Z</time></trkpt><trkpt lat="14.643008047756023" lon="121.03600344029533"><ele>38.0</ele><time>2026-05-05T04:38:20.001Z</time></trkpt><trkpt lat="14.643055136623257" lon="121.03608752470736"><ele>38.0</ele><time>2026-05-05T04:38:21.001Z</time></trkpt><trkpt lat="14.643112370102909" lon="121.03619045761752"><ele>38.0</ele><time>2026-05-05T04:38:22.001Z</time></trkpt><trkpt lat="14.64317754970984" lon="121.03629782472893"><ele>38.0</ele><time>2026-05-05T04:38:23.001Z</time></trkpt><trkpt lat="14.643243581426887" lon="121.03640664951737"><ele>38.0</ele><time>2026-05-05T04:38:24.001Z</time></trkpt><trkpt lat="14.643311065850405" lon="121.03650836649304"><ele>38.0</ele><time>2026-05-05T04:38:25.001Z</time></trkpt><trkpt lat="14.643374202957823" lon="121.03660256034061"><ele>38.0</ele><time>2026-05-05T04:38:26.001Z</time></trkpt><trkpt lat="14.6434322457086" lon="121.03668860198125"><ele>37.8</ele><time>2026-05-05T04:38:27.001Z</time></trkpt><trkpt lat="14.643471209115356" lon="121.03676737703778"><ele>37.599999999999994</ele><time>2026-05-05T04:38:28.001Z</time></trkpt><trkpt lat="14.643502116846658" lon="121.03683256312634"><ele>37.400000000000006</ele><time>2026-05-05T04:38:29.001Z</time></trkpt><trkpt lat="14.643547031364198" lon="121.03691941590196"><ele>37.2</ele><time>2026-05-05T04:38:31.001Z</time></trkpt><trkpt lat="14.643617862539399" lon="121.03703613150226"><ele>37.0</ele><time>2026-05-05T04:38:33.001Z</time></trkpt><trkpt lat="14.643663222134238" lon="121.03710293089128"><ele>37.0</ele><time>2026-05-05T04:38:34.001Z</time></trkpt><trkpt lat="14.643706636117278" lon="121.03716770706983"><ele>37.0</ele><time>2026-05-05T04:38:35.001Z</time></trkpt><trkpt lat="14.643741141952667" lon="121.03722576315671"><ele>37.0</ele><time>2026-05-05T04:38:36.001Z</time></trkpt><trkpt lat="14.643786357364018" lon="121.03731218391025"><ele>37.0</ele><time>2026-05-05T04:38:38.002Z</time></trkpt><trkpt lat="14.643829204931967" lon="121.03736496460341"><ele>37.0</ele><time>2026-05-05T04:38:42.002Z</time></trkpt><trkpt lat="14.643867911392963" lon="121.03741948123354"><ele>37.0</ele><time>2026-05-05T04:38:47.002Z</time></trkpt><trkpt lat="14.643905947557283" lon="121.0375176189851"><ele>37.2</ele><time>2026-05-05T04:38:49.002Z</time></trkpt><trkpt lat="14.64395063718848" lon="121.037613977649"><ele>37.400000000000006</ele><time>2026-05-05T04:38:52Z</time></trkpt><trkpt lat="14.643997809803269" lon="121.03770597171575"><ele>37.599999999999994</ele><time>2026-05-05T04:38:54Z</time></trkpt><trkpt lat="14.644080940673321" lon="121.03777233390589"><ele>37.8</ele><time>2026-05-05T04:38:57Z</time></trkpt><trkpt lat="14.644134439662679" lon="121.03786143571284"><ele>38.0</ele><time>2026-05-05T04:38:59Z</time></trkpt><trkpt lat="14.644171520907218" lon="121.03792057410583"><ele>38.0</ele><time>2026-05-05T04:39:01Z</time></trkpt><trkpt lat="14.644204758859114" lon="121.03800289429792"><ele>38.0</ele><time>2026-05-05T04:39:03Z</time></trkpt><trkpt lat="14.644309230863092" lon="121.03811275620656"><ele>38.0</ele><time>2026-05-05T04:39:05Z</time></trkpt><trkpt lat="14.644364393499933" lon="121.03819609573569"><ele>38.0</ele><time>2026-05-05T04:39:06Z</time></trkpt><trkpt lat="14.644421954424693" lon="121.03828744304201"><ele>38.0</ele><time>2026-05-05T04:39:07Z</time></trkpt><trkpt lat="14.644477370487294" lon="121.03837737789831"><ele>38.8</ele><time>2026-05-05T04:39:08Z</time></trkpt><trkpt lat="14.644535644003565" lon="121.03846174166006"><ele>39.599999999999994</ele><time>2026-05-05T04:39:09Z</time></trkpt><trkpt lat="14.644584800543484" lon="121.03854317245919"><ele>40.400000000000006</ele><time>2026-05-05T04:39:10Z</time></trkpt><trkpt lat="14.644633116435465" lon="121.03862394401601"><ele>41.2</ele><time>2026-05-05T04:39:11Z</time></trkpt><trkpt lat="14.644681466289029" lon="121.03870490364051"><ele>42.0</ele><time>2026-05-05T04:39:12Z</time></trkpt><trkpt lat="14.644726552723453" lon="121.03878273425694"><ele>42.0</ele><time>2026-05-05T04:39:13Z</time></trkpt><trkpt lat="14.644776162092596" lon="121.0388604101148"><ele>42.0</ele><time>2026-05-05T04:39:14Z</time></trkpt><trkpt lat="14.644819297644231" lon="121.03892819571857"><ele>42.0</ele><time>2026-05-05T04:39:15Z</time></trkpt><trkpt lat="14.644865973490553" lon="121.03899420054285"><ele>42.0</ele><time>2026-05-05T04:39:16Z</time></trkpt><trkpt lat="14.644902211891608" lon="121.03905252346064"><ele>42.0</ele><time>2026-05-05T04:39:17Z</time></trkpt><trkpt lat="14.644940798133204" lon="121.03910726721739"><ele>42.0</ele><time>2026-05-05T04:39:18Z</time></trkpt><trkpt lat="14.64497819479607" lon="121.03916733099301"><ele>42.0</ele><time>2026-05-05T04:39:19Z</time></trkpt><trkpt lat="14.645015480166254" lon="121.03923175494802"><ele>42.8</ele><time>2026-05-05T04:39:20.001Z</time></trkpt><trkpt lat="14.645059329797695" lon="121.03930270914272"><ele>43.6</ele><time>2026-05-05T04:39:21.001Z</time></trkpt><trkpt lat="14.645104293860893" lon="121.03937754708653"><ele>44.4</ele><time>2026-05-05T04:39:22.001Z</time></trkpt><trkpt lat="14.645153659349585" lon="121.0394614976103"><ele>45.199999999999996</ele><time>2026-05-05T04:39:23.001Z</time></trkpt><trkpt lat="14.645209488927767" lon="121.03954987360275"><ele>46.0</ele><time>2026-05-05T04:39:24.001Z</time></trkpt><trkpt lat="14.645260704717568" lon="121.03963761853048"><ele>46.0</ele><time>2026-05-05T04:39:25.001Z</time></trkpt><trkpt lat="14.645315212616731" lon="121.03972363866795"><ele>46.0</ele><time>2026-05-05T04:39:26.001Z</time></trkpt><trkpt lat="14.645364781197078" lon="121.03979913426151"><ele>46.0</ele><time>2026-05-05T04:39:27.001Z</time></trkpt><trkpt lat="14.645408588051186" lon="121.03986627610313"><ele>46.0</ele><time>2026-05-05T04:39:28.001Z</time></trkpt><trkpt lat="14.64545271522916" lon="121.0399361459309"><ele>46.0</ele><time>2026-05-05T04:39:29.001Z</time></trkpt><trkpt lat="14.645495629995867" lon="121.04000389446463"><ele>46.0</ele><time>2026-05-05T04:39:30.001Z</time></trkpt><trkpt lat="14.645539445615194" lon="121.04007274247274"><ele>46.0</ele><time>2026-05-05T04:39:31.001Z</time></trkpt><trkpt lat="14.64558658250194" lon="121.04014085271487"><ele>46.0</ele><time>2026-05-05T04:39:32.001Z</time></trkpt><trkpt lat="14.645634641135995" lon="121.04020001635912"><ele>46.0</ele><time>2026-05-05T04:39:33.001Z</time></trkpt><trkpt lat="14.645679804865493" lon="121.04025524589498"><ele>46.0</ele><time>2026-05-05T04:39:34.001Z</time></trkpt><trkpt lat="14.645743089276946" lon="121.04032807534243"><ele>46.0</ele><time>2026-05-05T04:39:36.001Z</time></trkpt><trkpt lat="14.645802620977046" lon="121.04035199360932"><ele>46.0</ele><time>2026-05-05T04:39:41.001Z</time></trkpt><trkpt lat="14.645837507960197" lon="121.04042241707096"><ele>46.0</ele><time>2026-05-05T04:40:00.001Z</time></trkpt><trkpt lat="14.645886571849092" lon="121.04049558074847"><ele>46.0</ele><time>2026-05-05T04:41:47.001Z</time></trkpt><trkpt lat="14.645940946725144" lon="121.04057044367472"><ele>46.0</ele><time>2026-05-05T04:41:51.001Z</time></trkpt><trkpt lat="14.645967604200237" lon="121.0406327523591"><ele>46.0</ele><time>2026-05-05T04:41:53.001Z</time></trkpt><trkpt lat="14.64605716247374" lon="121.0407120692943"><ele>46.0</ele><time>2026-05-05T04:41:56.001Z</time></trkpt><trkpt lat="14.646115089488623" lon="121.04074004306717"><ele>46.0</ele><time>2026-05-05T04:41:57.001Z</time></trkpt><trkpt lat="14.646098770549955" lon="121.04081918383284"><ele>45.75</ele><time>2026-05-05T04:41:58.001Z</time></trkpt><trkpt lat="14.646313686749968" lon="121.04076403117561"><ele>45.5</ele><time>2026-05-05T04:42:00.001Z</time></trkpt><trkpt lat="14.646380654999364" lon="121.04073452407285"><ele>45.25</ele><time>2026-05-05T04:42:01.001Z</time></trkpt><trkpt lat="14.64646083194535" lon="121.04068393359078"><ele>45.0</ele><time>2026-05-05T04:42:02.001Z</time></trkpt><trkpt lat="14.64655532601194" lon="121.04062594379597"><ele>45.0</ele><time>2026-05-05T04:42:03.001Z</time></trkpt><trkpt lat="14.646659344744183" lon="121.04056816332594"><ele>45.0</ele><time>2026-05-05T04:42:04.001Z</time></trkpt><trkpt lat="14.646769453165819" lon="121.04050975183969"><ele>45.0</ele><time>2026-05-05T04:42:05.001Z</time></trkpt><trkpt lat="14.646879792280838" lon="121.04045598009824"><ele>45.0</ele><time>2026-05-05T04:42:06.001Z</time></trkpt><trkpt lat="14.646994891321967" lon="121.04039972894975"><ele>44.5</ele><time>2026-05-05T04:42:07.001Z</time></trkpt><trkpt lat="14.647113752850458" lon="121.040343224492"><ele>44.0</ele><time>2026-05-05T04:42:08.001Z</time></trkpt><trkpt lat="14.64723658446831" lon="121.04028699079348"><ele>43.5</ele><time>2026-05-05T04:42:09.001Z</time></trkpt><trkpt lat="14.64737650300785" lon="121.04020692646185"><ele>43.0</ele><time>2026-05-05T04:42:10.001Z</time></trkpt><trkpt lat="14.647518492440842" lon="121.0401622359122"><ele>43.0</ele><time>2026-05-05T04:42:11.001Z</time></trkpt><trkpt lat="14.647639558752605" lon="121.04009706420902"><ele>43.0</ele><time>2026-05-05T04:42:12.001Z</time></trkpt><trkpt lat="14.647769952394775" lon="121.04003830188975"><ele>43.0</ele><time>2026-05-05T04:42:13.001Z</time></trkpt><trkpt lat="14.647899695566245" lon="121.03997874903173"><ele>43.0</ele><time>2026-05-05T04:42:14.001Z</time></trkpt><trkpt lat="14.648023748719238" lon="121.03992152147438"><ele>41.0</ele><time>2026-05-05T04:42:15.001Z</time></trkpt><trkpt lat="14.64814098291804" lon="121.03986722276832"><ele>39.0</ele><time>2026-05-05T04:42:16.001Z</time></trkpt><trkpt lat="14.64825977135982" lon="121.0398167992375"><ele>37.0</ele><time>2026-05-05T04:42:17.001Z</time></trkpt><trkpt lat="14.648375450917595" lon="121.03976734212985"><ele>35.0</ele><time>2026-05-05T04:42:18.001Z</time></trkpt><trkpt lat="14.648494995771888" lon="121.03971762090255"><ele>35.0</ele><time>2026-05-05T04:42:19.001Z</time></trkpt><trkpt lat="14.648605428718149" lon="121.03967695598092"><ele>35.0</ele><time>2026-05-05T04:42:20.001Z</time></trkpt><trkpt lat="14.648718312102845" lon="121.0396389128128"><ele>35.0</ele><time>2026-05-05T04:42:21.001Z</time></trkpt><trkpt lat="14.648834029691983" lon="121.03960322415296"><ele>35.0</ele><time>2026-05-05T04:42:22.001Z</time></trkpt><trkpt lat="14.64895655462226" lon="121.03955713135382"><ele>35.75</ele><time>2026-05-05T04:42:23.001Z</time></trkpt><trkpt lat="14.64908571338165" lon="121.0395050774003"><ele>36.5</ele><time>2026-05-05T04:42:24.001Z</time></trkpt><trkpt lat="14.649221550924322" lon="121.03945011359112"><ele>37.25</ele><time>2026-05-05T04:42:25.001Z</time></trkpt><trkpt lat="14.64936615165853" lon="121.03940184206544"><ele>38.0</ele><time>2026-05-05T04:42:26.001Z</time></trkpt><trkpt lat="14.649498453198433" lon="121.03935979449385"><ele>38.0</ele><time>2026-05-05T04:42:27.001Z</time></trkpt><trkpt lat="14.649625977940918" lon="121.03932523050442"><ele>38.0</ele><time>2026-05-05T04:42:28.001Z</time></trkpt><trkpt lat="14.649753298565285" lon="121.03929227954009"><ele>38.0</ele><time>2026-05-05T04:42:29.001Z</time></trkpt><trkpt lat="14.649882397569437" lon="121.03925953777222"><ele>38.0</ele><time>2026-05-05T04:42:30.001Z</time></trkpt><trkpt lat="14.650021525906757" lon="121.03921860486656"><ele>38.0</ele><time>2026-05-05T04:42:31.001Z</time></trkpt><trkpt lat="14.650173636640437" lon="121.0391818590708"><ele>38.0</ele><time>2026-05-05T04:42:32.001Z</time></trkpt><trkpt lat="14.650340503909145" lon="121.03914917792308"><ele>38.0</ele><time>2026-05-05T04:42:33.001Z</time></trkpt><trkpt lat="14.65050503150911" lon="121.03911255702667"><ele>38.0</ele><time>2026-05-05T04:42:34.001Z</time></trkpt><trkpt lat="14.650667066785823" lon="121.03907241722183"><ele>38.0</ele><time>2026-05-05T04:42:35.001Z</time></trkpt><trkpt lat="14.650815387970642" lon="121.03903946506472"><ele>38.0</ele><time>2026-05-05T04:42:36.001Z</time></trkpt><trkpt lat="14.650952902904779" lon="121.03901027455923"><ele>38.0</ele><time>2026-05-05T04:42:37.001Z</time></trkpt><trkpt lat="14.651071539474946" lon="121.03898944158738"><ele>38.0</ele><time>2026-05-05T04:42:38.001Z</time></trkpt><trkpt lat="14.651180019508452" lon="121.03898185824575"><ele>38.0</ele><time>2026-05-05T04:42:39.001Z</time></trkpt><trkpt lat="14.651296460927867" lon="121.03898079644422"><ele>38.0</ele><time>2026-05-05T04:42:40.001Z</time></trkpt><trkpt lat="14.651426399566022" lon="121.0389630234383"><ele>38.25</ele><time>2026-05-05T04:42:41.001Z</time></trkpt><trkpt lat="14.651565191880907" lon="121.03893059393792"><ele>38.5</ele><time>2026-05-05T04:42:42.001Z</time></trkpt><trkpt lat="14.651709469405064" lon="121.03890014934298"><ele>38.75</ele><time>2026-05-05T04:42:43.002Z</time></trkpt><trkpt lat="14.65185832173233" lon="121.0388702546673"><ele>39.0</ele><time>2026-05-05T04:42:44.002Z</time></trkpt><trkpt lat="14.652008667559354" lon="121.03884710260118"><ele>39.0</ele><time>2026-05-05T04:42:45.002Z</time></trkpt><trkpt lat="14.652154155501801" lon="121.03883197870152"><ele>39.0</ele><time>2026-05-05T04:42:46.002Z</time></trkpt><trkpt lat="14.65229668056383" lon="121.03881704103817"><ele>39.0</ele><time>2026-05-05T04:42:47.002Z</time></trkpt><trkpt lat="14.652441012464159" lon="121.03879643477205"><ele>39.0</ele><time>2026-05-05T04:42:48.002Z</time></trkpt><trkpt lat="14.652588910141507" lon="121.03876708464728"><ele>39.0</ele><time>2026-05-05T04:42:49.002Z</time></trkpt><trkpt lat="14.652740937775924" lon="121.03874566790763"><ele>39.0</ele><time>2026-05-05T04:42:50.002Z</time></trkpt><trkpt lat="14.652893878367946" lon="121.03873030791023"><ele>39.0</ele><time>2026-05-05T04:42:51.002Z</time></trkpt><trkpt lat="14.65303776932924" lon="121.03871423308286"><ele>39.8</ele><time>2026-05-05T04:42:52.002Z</time></trkpt><trkpt lat="14.65317161148858" lon="121.03870009128727"><ele>40.599999999999994</ele><time>2026-05-05T04:42:53.002Z</time></trkpt><trkpt lat="14.653292234855767" lon="121.03868673936627"><ele>41.4</ele><time>2026-05-05T04:42:54.002Z</time></trkpt><trkpt lat="14.653391472623893" lon="121.03867595096631"><ele>42.199999999999996</ele><time>2026-05-05T04:42:55.002Z</time></trkpt><trkpt lat="14.653472203648091" lon="121.03866759387414"><ele>43.0</ele><time>2026-05-05T04:42:56.002Z</time></trkpt><trkpt lat="14.65353971235324" lon="121.03866105193666"><ele>43.0</ele><time>2026-05-05T04:42:57.002Z</time></trkpt><trkpt lat="14.65361120998914" lon="121.0386533948625"><ele>43.0</ele><time>2026-05-05T04:42:59.002Z</time></trkpt><trkpt lat="14.653710393731942" lon="121.0386464320857"><ele>43.0</ele><time>2026-05-05T04:43:27Z</time></trkpt><trkpt lat="14.653804494509526" lon="121.03855911144137"><ele>43.0</ele><time>2026-05-05T04:43:29Z</time></trkpt><trkpt lat="14.653849514671911" lon="121.03849081749333"><ele>43.0</ele><time>2026-05-05T04:43:30Z</time></trkpt><trkpt lat="14.653875975266086" lon="121.03841784563934"><ele>43.2</ele><time>2026-05-05T04:43:31Z</time></trkpt><trkpt lat="14.653903455804448" lon="121.03832142259061"><ele>43.4</ele><time>2026-05-05T04:43:32Z</time></trkpt><trkpt lat="14.653917163253851" lon="121.0382292134646"><ele>43.6</ele><time>2026-05-05T04:43:33Z</time></trkpt><trkpt lat="14.653930677187864" lon="121.03813908047294"><ele>43.800000000000004</ele><time>2026-05-05T04:43:34Z</time></trkpt><trkpt lat="14.653946556129627" lon="121.03805844392437"><ele>44.0</ele><time>2026-05-05T04:43:35Z</time></trkpt><trkpt lat="14.6539585608297" lon="121.03792893547586"><ele>44.0</ele><time>2026-05-05T04:43:37Z</time></trkpt><trkpt lat="14.653974582633303" lon="121.03781544714529"><ele>44.0</ele><time>2026-05-05T04:43:39Z</time></trkpt><trkpt lat="14.65399859912494" lon="121.03774210498439"><ele>44.0</ele><time>2026-05-05T04:43:41.001Z</time></trkpt><trkpt lat="14.65401355661603" lon="121.03767192110121"><ele>44.0</ele><time>2026-05-05T04:43:44.001Z</time></trkpt><trkpt lat="14.654031956840782" lon="121.03759223780824"><ele>44.0</ele><time>2026-05-05T04:43:46.001Z</time></trkpt><trkpt lat="14.65404617488836" lon="121.03751345787819"><ele>44.0</ele><time>2026-05-05T04:43:48.001Z</time></trkpt><trkpt lat="14.654067348062343" lon="121.0374434221923"><ele>43.2</ele><time>2026-05-05T04:43:54.001Z</time></trkpt><trkpt lat="14.654108174354924" lon="121.0373909297584"><ele>42.400000000000006</ele><time>2026-05-05T04:44:00.001Z</time></trkpt><trkpt lat="14.65412553631754" lon="121.03729415877923"><ele>41.6</ele><time>2026-05-05T04:44:03.001Z</time></trkpt><trkpt lat="14.654150190532993" lon="121.03718787306833"><ele>40.8</ele><time>2026-05-05T04:44:05.001Z</time></trkpt><trkpt lat="14.654178085277062" lon="121.0370693408037"><ele>40.0</ele><time>2026-05-05T04:44:07.001Z</time></trkpt><trkpt lat="14.654199976510798" lon="121.03695995718647"><ele>40.0</ele><time>2026-05-05T04:44:09.001Z</time></trkpt><trkpt lat="14.654224280218697" lon="121.03685166367565"><ele>40.0</ele><time>2026-05-05T04:44:11.001Z</time></trkpt><trkpt lat="14.654244887678711" lon="121.03673832588485"><ele>40.0</ele><time>2026-05-05T04:44:13.001Z</time></trkpt><trkpt lat="14.65426666616865" lon="121.03663773808717"><ele>40.0</ele><time>2026-05-05T04:44:15.001Z</time></trkpt><trkpt lat="14.654286435170997" lon="121.03654644402336"><ele>40.0</ele><time>2026-05-05T04:44:17.001Z</time></trkpt><trkpt lat="14.654300970199817" lon="121.03645805989744"><ele>39.66666666666667</ele><time>2026-05-05T04:44:19.001Z</time></trkpt><trkpt lat="14.65432016047545" lon="121.03637994503364"><ele>39.333333333333336</ele><time>2026-05-05T04:44:21.001Z</time></trkpt><trkpt lat="14.654337031554793" lon="121.03630498949494"><ele>39.0</ele><time>2026-05-05T04:44:23.001Z</time></trkpt><trkpt lat="14.654354373523402" lon="121.0362328206436"><ele>38.666666666666664</ele><time>2026-05-05T04:44:25.001Z</time></trkpt><trkpt lat="14.654374026388115" lon="121.03615190761644"><ele>38.33333333333333</ele><time>2026-05-05T04:44:27.001Z</time></trkpt><trkpt lat="14.654394229099033" lon="121.03607080846268"><ele>38.0</ele><time>2026-05-05T04:44:29.001Z</time></trkpt><trkpt lat="14.654414218816694" lon="121.03599479815533"><ele>38.0</ele><time>2026-05-05T04:44:31.001Z</time></trkpt><trkpt lat="14.654437604119519" lon="121.03592469116694"><ele>38.0</ele><time>2026-05-05T04:44:33.001Z</time></trkpt><trkpt lat="14.654455710076892" lon="121.03585028375754"><ele>38.0</ele><time>2026-05-05T04:44:37.001Z</time></trkpt><trkpt lat="14.654473786308312" lon="121.03578148746487"><ele>38.0</ele><time>2026-05-05T04:44:41.001Z</time></trkpt><trkpt lat="14.654484279412214" lon="121.03571357284252"><ele>38.0</ele><time>2026-05-05T04:44:46.001Z</time></trkpt><trkpt lat="14.65450168440945" lon="121.03563353512406"><ele>38.0</ele><time>2026-05-05T04:44:49.001Z</time></trkpt><trkpt lat="14.65451572510691" lon="121.03555641423063"><ele>38.0</ele><time>2026-05-05T04:44:52.002Z</time></trkpt><trkpt lat="14.654537690168501" lon="121.03546185756018"><ele>38.33333333333333</ele><time>2026-05-05T04:44:55.002Z</time></trkpt><trkpt lat="14.654560042769734" lon="121.03537324275808"><ele>38.666666666666664</ele><time>2026-05-05T04:44:58.002Z</time></trkpt><trkpt lat="14.654602811845544" lon="121.03531412830515"><ele>39.0</ele><time>2026-05-05T04:45:00.002Z</time></trkpt><trkpt lat="14.654691477590173" lon="121.03530689583586"><ele>39.333333333333336</ele><time>2026-05-05T04:45:01.002Z</time></trkpt><trkpt lat="14.65478215054532" lon="121.03530194652826"><ele>39.66666666666667</ele><time>2026-05-05T04:45:02.002Z</time></trkpt><trkpt lat="14.654877118769413" lon="121.03531471354879"><ele>40.0</ele><time>2026-05-05T04:45:03.002Z</time></trkpt><trkpt lat="14.654980713945609" lon="121.03533676021482"><ele>40.0</ele><time>2026-05-05T04:45:04.002Z</time></trkpt><trkpt lat="14.655080808796436" lon="121.03536056125063"><ele>40.0</ele><time>2026-05-05T04:45:05.002Z</time></trkpt><trkpt lat="14.6551737592924" lon="121.03537894837064"><ele>40.0</ele><time>2026-05-05T04:45:06.002Z</time></trkpt><trkpt lat="14.655251490293029" lon="121.03539781056591"><ele>40.0</ele><time>2026-05-05T04:45:07.002Z</time></trkpt><trkpt lat="14.655348770023185" lon="121.03541005995086"><ele>40.0</ele><time>2026-05-05T04:45:08Z</time></trkpt><trkpt lat="14.655438119548771" lon="121.03543394975988"><ele>40.6</ele><time>2026-05-05T04:45:09Z</time></trkpt><trkpt lat="14.655532235168094" lon="121.03545476998826"><ele>41.2</ele><time>2026-05-05T04:45:10Z</time></trkpt><trkpt lat="14.655632820329522" lon="121.03547634439738"><ele>41.8</ele><time>2026-05-05T04:45:11Z</time></trkpt><trkpt lat="14.65573317932665" lon="121.03550068329912"><ele>42.4</ele><time>2026-05-05T04:45:12Z</time></trkpt><trkpt lat="14.65584078902365" lon="121.03552808227602"><ele>43.0</ele><time>2026-05-05T04:45:13Z</time></trkpt><trkpt lat="14.655955816857574" lon="121.0355544625339"><ele>43.0</ele><time>2026-05-05T04:45:14Z</time></trkpt><trkpt lat="14.656071009800106" lon="121.0355829448582"><ele>43.0</ele><time>2026-05-05T04:45:15Z</time></trkpt><trkpt lat="14.656182680316585" lon="121.03560928547829"><ele>43.0</ele><time>2026-05-05T04:45:16Z</time></trkpt><trkpt lat="14.656294000927236" lon="121.03563200809373"><ele>43.0</ele><time>2026-05-05T04:45:17Z</time></trkpt><trkpt lat="14.656395337376265" lon="121.03566881207337"><ele>42.5</ele><time>2026-05-05T04:45:18Z</time></trkpt><trkpt lat="14.656506848713237" lon="121.03570293399412"><ele>42.0</ele><time>2026-05-05T04:45:19Z</time></trkpt><trkpt lat="14.65662291060311" lon="121.0357435114896"><ele>41.5</ele><time>2026-05-05T04:45:20Z</time></trkpt><trkpt lat="14.656749969538044" lon="121.03577603941038"><ele>41.0</ele><time>2026-05-05T04:45:21Z</time></trkpt><trkpt lat="14.656876849259165" lon="121.03580706301726"><ele>41.25</ele><time>2026-05-05T04:45:22Z</time></trkpt><trkpt lat="14.657014151695204" lon="121.03583456951156"><ele>41.5</ele><time>2026-05-05T04:45:23Z</time></trkpt><trkpt lat="14.657152203283726" lon="121.03586441630941"><ele>41.75</ele><time>2026-05-05T04:45:24Z</time></trkpt><trkpt lat="14.657292137715533" lon="121.03588940393554"><ele>42.0</ele><time>2026-05-05T04:45:25Z</time></trkpt><trkpt lat="14.657429321578821" lon="121.03592414255675"><ele>42.0</ele><time>2026-05-05T04:45:26Z</time></trkpt><trkpt lat="14.657570258453509" lon="121.03595484108115"><ele>42.0</ele><time>2026-05-05T04:45:27Z</time></trkpt><trkpt lat="14.657708924283872" lon="121.03598400808042"><ele>42.0</ele><time>2026-05-05T04:45:28Z</time></trkpt><trkpt lat="14.657846552643743" lon="121.03601181941109"><ele>42.0</ele><time>2026-05-05T04:45:29Z</time></trkpt><trkpt lat="14.657978468426462" lon="121.03604172159453"><ele>41.5</ele><time>2026-05-05T04:45:30Z</time></trkpt><trkpt lat="14.65809420132961" lon="121.03607076235097"><ele>41.0</ele><time>2026-05-05T04:45:31Z</time></trkpt><trkpt lat="14.658197862592987" lon="121.03609946315585"><ele>40.5</ele><time>2026-05-05T04:45:32Z</time></trkpt><trkpt lat="14.658318667268796" lon="121.03612151764345"><ele>40.0</ele><time>2026-05-05T04:45:33Z</time></trkpt><trkpt lat="14.658416376574275" lon="121.03614909217546"><ele>40.0</ele><time>2026-05-05T04:45:34Z</time></trkpt><trkpt lat="14.658505944082522" lon="121.03617443830828"><ele>40.0</ele><time>2026-05-05T04:45:35Z</time></trkpt><trkpt lat="14.65859339117787" lon="121.03619674444407"><ele>40.0</ele><time>2026-05-05T04:45:36Z</time></trkpt><trkpt lat="14.658670443157478" lon="121.03621797328401"><ele>40.0</ele><time>2026-05-05T04:45:37Z</time></trkpt><trkpt lat="14.658760359021864" lon="121.03623639451199"><ele>40.0</ele><time>2026-05-05T04:45:38Z</time></trkpt><trkpt lat="14.658856180844234" lon="121.03625267521997"><ele>40.2</ele><time>2026-05-05T04:45:39Z</time></trkpt><trkpt lat="14.658947500486498" lon="121.03627051482283"><ele>40.4</ele><time>2026-05-05T04:45:40Z</time></trkpt><trkpt lat="14.659048562971956" lon="121.03628868148837"><ele>40.599999999999994</ele><time>2026-05-05T04:45:41Z</time></trkpt><trkpt lat="14.659128989381847" lon="121.03631611239321"><ele>40.8</ele><time>2026-05-05T04:45:42.001Z</time></trkpt><trkpt lat="14.659230309776383" lon="121.03633629303025"><ele>41.0</ele><time>2026-05-05T04:45:43.001Z</time></trkpt><trkpt lat="14.659320717429335" lon="121.03635358525284"><ele>41.0</ele><time>2026-05-05T04:45:44.001Z</time></trkpt><trkpt lat="14.659403335619555" lon="121.03637333791137"><ele>41.0</ele><time>2026-05-05T04:45:45.001Z</time></trkpt><trkpt lat="14.659489018733963" lon="121.03639250672568"><ele>41.0</ele><time>2026-05-05T04:45:46.001Z</time></trkpt><trkpt lat="14.659570292540387" lon="121.03640963239008"><ele>41.0</ele><time>2026-05-05T04:45:47.001Z</time></trkpt><trkpt lat="14.659652955745594" lon="121.0364289573391"><ele>41.0</ele><time>2026-05-05T04:45:48.001Z</time></trkpt><trkpt lat="14.659745362512448" lon="121.03645253926732"><ele>41.0</ele><time>2026-05-05T04:45:49.001Z</time></trkpt><trkpt lat="14.659839907707951" lon="121.03647572072965"><ele>41.0</ele><time>2026-05-05T04:45:50.001Z</time></trkpt><trkpt lat="14.659949707780164" lon="121.03649962718526"><ele>41.0</ele><time>2026-05-05T04:45:51.001Z</time></trkpt><trkpt lat="14.660046976975293" lon="121.03652462269194"><ele>41.0</ele><time>2026-05-05T04:45:52.001Z</time></trkpt><trkpt lat="14.660140110495881" lon="121.03654671507124"><ele>41.0</ele><time>2026-05-05T04:45:53.001Z</time></trkpt><trkpt lat="14.660233297703373" lon="121.0365650791948"><ele>41.0</ele><time>2026-05-05T04:45:54.001Z</time></trkpt><trkpt lat="14.660323495000153" lon="121.03658821657196"><ele>41.0</ele><time>2026-05-05T04:45:55.001Z</time></trkpt><trkpt lat="14.660419287636433" lon="121.03658573913474"><ele>41.0</ele><time>2026-05-05T04:45:56.001Z</time></trkpt><trkpt lat="14.660528082729948" lon="121.0366026994194"><ele>41.0</ele><time>2026-05-05T04:45:57.001Z</time></trkpt><trkpt lat="14.660645307189823" lon="121.03662110016077"><ele>41.0</ele><time>2026-05-05T04:45:58.001Z</time></trkpt><trkpt lat="14.660759914130194" lon="121.03663909002917"><ele>41.0</ele><time>2026-05-05T04:45:59.001Z</time></trkpt><trkpt lat="14.66085802140348" lon="121.03666927901926"><ele>40.83333333333333</ele><time>2026-05-05T04:46:00.001Z</time></trkpt><trkpt lat="14.660954358671622" lon="121.03667693941304"><ele>40.666666666666664</ele><time>2026-05-05T04:46:01.001Z</time></trkpt><trkpt lat="14.661033164735171" lon="121.03668267226304"><ele>40.5</ele><time>2026-05-05T04:46:02.001Z</time></trkpt><trkpt lat="14.661097684745751" lon="121.03668260345528"><ele>40.333333333333336</ele><time>2026-05-05T04:46:03.001Z</time></trkpt><trkpt lat="14.661222161826554" lon="121.03669671546294"><ele>40.16666666666667</ele><time>2026-05-05T04:46:05.001Z</time></trkpt><trkpt lat="14.661287958759498" lon="121.03670264792662"><ele>40.0</ele><time>2026-05-05T04:46:06.001Z</time></trkpt><trkpt lat="14.66140684709466" lon="121.03673655381576"><ele>40.6</ele><time>2026-05-05T04:46:08.001Z</time></trkpt><trkpt lat="14.661473673287093" lon="121.03673122954466"><ele>41.2</ele><time>2026-05-05T04:46:09.001Z</time></trkpt><trkpt lat="14.661556534016867" lon="121.03673840390555"><ele>41.8</ele><time>2026-05-05T04:46:10.001Z</time></trkpt><trkpt lat="14.661651143821206" lon="121.03675925777212"><ele>42.4</ele><time>2026-05-05T04:46:11.001Z</time></trkpt><trkpt lat="14.661752120206323" lon="121.03676347727182"><ele>43.0</ele><time>2026-05-05T04:46:12.001Z</time></trkpt><trkpt lat="14.661859589436062" lon="121.03676568990794"><ele>42.8</ele><time>2026-05-05T04:46:13.001Z</time></trkpt><trkpt lat="14.661967300133893" lon="121.03676806539744"><ele>42.599999999999994</ele><time>2026-05-05T04:46:14.001Z</time></trkpt><trkpt lat="14.66207280405507" lon="121.03675315029462"><ele>42.400000000000006</ele><time>2026-05-05T04:46:15.001Z</time></trkpt><trkpt lat="14.662167227895079" lon="121.036754836435"><ele>42.2</ele><time>2026-05-05T04:46:16.001Z</time></trkpt><trkpt lat="14.662253884545708" lon="121.03677914277789"><ele>42.0</ele><time>2026-05-05T04:46:17.001Z</time></trkpt><trkpt lat="14.662349130948726" lon="121.03678031000878"><ele>42.0</ele><time>2026-05-05T04:46:18.001Z</time></trkpt><trkpt lat="14.66244032333007" lon="121.03678306974395"><ele>42.0</ele><time>2026-05-05T04:46:19.001Z</time></trkpt><trkpt lat="14.662522303165554" lon="121.03678298841986"><ele>42.0</ele><time>2026-05-05T04:46:20.001Z</time></trkpt><trkpt lat="14.662599754867216" lon="121.0367812465809"><ele>42.0</ele><time>2026-05-05T04:46:21.001Z</time></trkpt><trkpt lat="14.662685460364182" lon="121.03674481618744"><ele>42.0</ele><time>2026-05-05T04:46:23.001Z</time></trkpt><trkpt lat="14.662784668166447" lon="121.03676378428717"><ele>42.0</ele><time>2026-05-05T04:46:25.001Z</time></trkpt><trkpt lat="14.662869999756284" lon="121.03674633993955"><ele>41.4</ele><time>2026-05-05T04:46:26.001Z</time></trkpt><trkpt lat="14.66295899329608" lon="121.03673621409894"><ele>40.800000000000004</ele><time>2026-05-05T04:46:27.001Z</time></trkpt><trkpt lat="14.663063774780609" lon="121.03672387467292"><ele>40.2</ele><time>2026-05-05T04:46:28.001Z</time></trkpt><trkpt lat="14.663180479300289" lon="121.03670403993858"><ele>39.6</ele><time>2026-05-05T04:46:29.001Z</time></trkpt><trkpt lat="14.663275949991704" lon="121.03668008670047"><ele>39.0</ele><time>2026-05-05T04:46:30.001Z</time></trkpt><trkpt lat="14.663375820077505" lon="121.03665815445781"><ele>39.75</ele><time>2026-05-05T04:46:31.001Z</time></trkpt><trkpt lat="14.663485030752224" lon="121.03663362703983"><ele>40.5</ele><time>2026-05-05T04:46:32.001Z</time></trkpt><trkpt lat="14.663598012183671" lon="121.0366054141442"><ele>41.25</ele><time>2026-05-05T04:46:33.001Z</time></trkpt><trkpt lat="14.66371180540869" lon="121.03656911772146"><ele>42.0</ele><time>2026-05-05T04:46:34.001Z</time></trkpt><trkpt lat="14.66382717049082" lon="121.03653807030192"><ele>40.5</ele><time>2026-05-05T04:46:35.001Z</time></trkpt><trkpt lat="14.663957586455222" lon="121.03651553982704"><ele>39.0</ele><time>2026-05-05T04:46:36.001Z</time></trkpt><trkpt lat="14.664078444090014" lon="121.03649253312203"><ele>37.5</ele><time>2026-05-05T04:46:37.001Z</time></trkpt><trkpt lat="14.66419184017143" lon="121.03646365550078"><ele>36.0</ele><time>2026-05-05T04:46:38.001Z</time></trkpt><trkpt lat="14.664315462034931" lon="121.03643505920715"><ele>36.0</ele><time>2026-05-05T04:46:39.001Z</time></trkpt><trkpt lat="14.664440434370379" lon="121.03640066748449"><ele>36.0</ele><time>2026-05-05T04:46:40.001Z</time></trkpt><trkpt lat="14.664562993773497" lon="121.03636680337372"><ele>36.0</ele><time>2026-05-05T04:46:41.001Z</time></trkpt><trkpt lat="14.664668523083737" lon="121.03633445273518"><ele>36.0</ele><time>2026-05-05T04:46:42.001Z</time></trkpt><trkpt lat="14.66477260540544" lon="121.03629648703418"><ele>35.4</ele><time>2026-05-05T04:46:43.001Z</time></trkpt><trkpt lat="14.664854936636411" lon="121.03626419822908"><ele>34.8</ele><time>2026-05-05T04:46:44.001Z</time></trkpt><trkpt lat="14.664927069264788" lon="121.03623375351566"><ele>34.199999999999996</ele><time>2026-05-05T04:46:45.001Z</time></trkpt><trkpt lat="14.664989881002228" lon="121.0362077683257"><ele>33.6</ele><time>2026-05-05T04:46:46.001Z</time></trkpt><trkpt lat="14.665075719383664" lon="121.0361608657012"><ele>33.0</ele><time>2026-05-05T04:46:48.001Z</time></trkpt><trkpt lat="14.665155392023456" lon="121.03627907520462"><ele>33.0</ele><time>2026-05-05T04:46:52.002Z</time></trkpt><trkpt lat="14.66519294112299" lon="121.03639322709276"><ele>33.0</ele><time>2026-05-05T04:46:54.002Z</time></trkpt><trkpt lat="14.665230151787096" lon="121.03647815075902"><ele>33.0</ele><time>2026-05-05T04:46:56.002Z</time></trkpt><trkpt lat="14.665278134363785" lon="121.03656470944325"><ele>33.0</ele><time>2026-05-05T04:46:58.002Z</time></trkpt><trkpt lat="14.66531444922512" lon="121.03663514883739"><ele>33.0</ele><time>2026-05-05T04:47:00.002Z</time></trkpt><trkpt lat="14.66532370420611" lon="121.03671024708007"><ele>33.14285714285714</ele><time>2026-05-05T04:47:02.002Z</time></trkpt><trkpt lat="14.665338695953668" lon="121.03680231166905"><ele>33.285714285714285</ele><time>2026-05-05T04:47:04.002Z</time></trkpt><trkpt lat="14.665357807743126" lon="121.03686450048541"><ele>33.42857142857143</ele><time>2026-05-05T04:47:05.002Z</time></trkpt><trkpt lat="14.665381282122649" lon="121.03694175721887"><ele>33.57142857142857</ele><time>2026-05-05T04:47:07.002Z</time></trkpt><trkpt lat="14.665395511107139" lon="121.03701102346989"><ele>33.714285714285715</ele><time>2026-05-05T04:47:09.002Z</time></trkpt><trkpt lat="14.665340999051997" lon="121.03705494693111"><ele>33.857142857142854</ele><time>2026-05-05T04:47:13.002Z</time></trkpt><trkpt lat="14.665281009138956" lon="121.03707499157785"><ele>34.0</ele><time>2026-05-05T04:47:16Z</time></trkpt><trkpt lat="14.66520400309346" lon="121.03710700744477"><ele>34.16666666666667</ele><time>2026-05-05T04:47:20Z</time></trkpt><trkpt lat="14.665140835364873" lon="121.0371497993026"><ele>34.333333333333336</ele><time>2026-05-05T04:47:24Z</time></trkpt><trkpt lat="14.665170730414111" lon="121.03723608557333"><ele>34.5</ele><time>2026-05-05T04:47:29Z</time></trkpt><trkpt lat="14.665211856900985" lon="121.03730519297274"><ele>34.666666666666664</ele><time>2026-05-05T04:47:33Z</time></trkpt><trkpt lat="14.665241033188416" lon="121.03736311031123"><ele>34.83333333333333</ele><time>2026-05-05T04:47:35Z</time></trkpt><trkpt lat="14.665274105134332" lon="121.03742570570384"><ele>35.0</ele><time>2026-05-05T04:47:38Z</time></trkpt><trkpt lat="14.665315384968686" lon="121.03750073164039"><ele>35.0</ele><time>2026-05-05T04:47:42Z</time></trkpt><trkpt lat="14.665324413734664" lon="121.03756615558542"><ele>35.0</ele><time>2026-05-05T04:47:48.001Z</time></trkpt><trkpt lat="14.665214633667587" lon="121.03756742637478"><ele>35.0</ele><time>2026-05-05T04:47:51.001Z</time></trkpt><trkpt lat="14.665152191936679" lon="121.03758893277808"><ele>35.0</ele><time>2026-05-05T04:47:56.001Z</time></trkpt><trkpt lat="14.665092403306042" lon="121.03761466870715"><ele>35.0</ele><time>2026-05-05T04:50:05.001Z</time></trkpt><trkpt lat="14.665059834265223" lon="121.03755785080207"><ele>35.0</ele><time>2026-05-05T04:50:07.001Z</time></trkpt><trkpt lat="14.664971420765525" lon="121.03749544474852"><ele>35.0</ele><time>2026-05-05T04:50:18.001Z</time></trkpt><trkpt lat="14.665008155613393" lon="121.03757164451082"><ele>35.0</ele><time>2026-05-05T04:50:34.001Z</time></trkpt><trkpt lat="14.665029082717663" lon="121.03764597526794"><ele>35.0</ele><time>2026-05-05T04:50:39.001Z</time></trkpt><trkpt lat="14.665089538086345" lon="121.03761846828228"><ele>35.0</ele><time>2026-05-05T04:51:09.002Z</time></trkpt><trkpt lat="14.66514253575734" lon="121.03756224920865"><ele>35.0</ele><time>2026-05-05T04:51:12.002Z</time></trkpt><trkpt lat="14.665196241563674" lon="121.03752530643645"><ele>35.0</ele><time>2026-05-05T04:51:14.002Z</time></trkpt><trkpt lat="14.665258589389094" lon="121.03755112481633"><ele>35.0</ele><time>2026-05-05T04:51:24.002Z</time></trkpt><trkpt lat="14.66534079720312" lon="121.03758876909792"><ele>35.0</ele><time>2026-05-05T04:52:09.001Z</time></trkpt><trkpt lat="14.665442648438505" lon="121.03763805124925"><ele>35.0</ele><time>2026-05-05T04:56:36.001Z</time></trkpt><trkpt lat="14.665374517839183" lon="121.03760751351366"><ele>35.0</ele><time>2026-05-05T04:56:56.001Z</time></trkpt><trkpt lat="14.665299061361445" lon="121.037624181491"><ele>35.0</ele><time>2026-05-05T04:57:07.001Z</time></trkpt><trkpt lat="14.665229622321224" lon="121.03764321351511"><ele>35.0</ele><time>2026-05-05T04:57:23.002Z</time></trkpt><trkpt lat="14.665176277020956" lon="121.0375990709121"><ele>35.0</ele><time>2026-05-05T04:57:44Z</time></trkpt><trkpt lat="14.665107547635396" lon="121.03757302283606"><ele>35.0</ele><time>2026-05-05T04:57:45Z</time></trkpt><trkpt lat="14.665213749886954" lon="121.03755707803207"><ele>35.0</ele><time>2026-05-05T04:58:03Z</time></trkpt><trkpt lat="14.665313286527743" lon="121.0375590349395"><ele>35.0</ele><time>2026-05-05T04:58:39.001Z</time></trkpt><trkpt lat="14.665252360826132" lon="121.03758942192677"><ele>35.0</ele><time>2026-05-05T05:00:28.001Z</time></trkpt><trkpt lat="14.665185025681597" lon="121.03758426438935"><ele>35.0</ele><time>2026-05-05T05:00:38.001Z</time></trkpt><trkpt lat="14.665079256205697" lon="121.03765296821375"><ele>35.0</ele><time>2026-05-05T05:01:54.002Z</time></trkpt><trkpt lat="14.665169484914978" lon="121.03765921145754"><ele>35.0</ele><time>2026-05-05T05:02:28.001Z</time></trkpt><trkpt lat="14.665156477631044" lon="121.03775727128351"><ele>35.0</ele><time>2026-05-05T05:04:14.001Z</time></trkpt><trkpt lat="14.665107391376367" lon="121.03767697000215"><ele>35.0</ele><time>2026-05-05T05:04:16.001Z</time></trkpt><trkpt lat="14.66512885962347" lon="121.03760014822899"><ele>35.0</ele><time>2026-05-05T05:04:50.001Z</time></trkpt><trkpt lat="14.665164013289429" lon="121.03754305410634"><ele>35.0</ele><time>2026-05-05T05:05:10.001Z</time></trkpt><trkpt lat="14.665225798455237" lon="121.03750502514455"><ele>35.0</ele><time>2026-05-05T05:05:13.001Z</time></trkpt><trkpt lat="14.665195035155442" lon="121.03756241945077"><ele>35.0</ele><time>2026-05-05T05:05:21.001Z</time></trkpt><trkpt lat="14.66514273360409" lon="121.03760608254387"><ele>35.0</ele><time>2026-05-05T05:05:46.002Z</time></trkpt><trkpt lat="14.665102065956232" lon="121.03755044578175"><ele>35.0</ele><time>2026-05-05T05:06:12.001Z</time></trkpt><trkpt lat="14.665043686511906" lon="121.03758769799201"><ele>35.0</ele><time>2026-05-05T05:06:25.001Z</time></trkpt><trkpt lat="14.665116334756696" lon="121.03756774965969"><ele>35.0</ele><time>2026-05-05T05:06:45.001Z</time></trkpt><trkpt lat="14.66516644765189" lon="121.03751166944868"><ele>35.0</ele><time>2026-05-05T05:06:49.001Z</time></trkpt><trkpt lat="14.665134970380535" lon="121.03757605301186"><ele>35.0</ele><time>2026-05-05T05:07:41.001Z</time></trkpt><trkpt lat="14.665086107949325" lon="121.03762055427525"><ele>35.0</ele><time>2026-05-05T05:07:51.002Z</time></trkpt><trkpt lat="14.6650213093408" lon="121.0376111843385"><ele>35.0</ele><time>2026-05-05T05:08:02.002Z</time></trkpt><trkpt lat="14.665009106788457" lon="121.03753186539844"><ele>35.0</ele><time>2026-05-05T05:08:06.002Z</time></trkpt><trkpt lat="14.665012857967548" lon="121.03744289211326"><ele>35.0</ele><time>2026-05-05T05:08:09.002Z</time></trkpt><trkpt lat="14.665021361675791" lon="121.03734850883974"><ele>35.0</ele><time>2026-05-05T05:08:11.002Z</time></trkpt><trkpt lat="14.66502064421133" lon="121.03728148135214"><ele>34.83333333333333</ele><time>2026-05-05T05:08:13.002Z</time></trkpt><trkpt lat="14.665056556407142" lon="121.03721509547749"><ele>34.666666666666664</ele><time>2026-05-05T05:08:16.001Z</time></trkpt><trkpt lat="14.665121723169882" lon="121.03716345807987"><ele>34.5</ele><time>2026-05-05T05:08:19.001Z</time></trkpt><trkpt lat="14.665201157789566" lon="121.03712898865786"><ele>34.333333333333336</ele><time>2026-05-05T05:08:23.001Z</time></trkpt><trkpt lat="14.66527783844962" lon="121.03710000231352"><ele>34.16666666666667</ele><time>2026-05-05T05:08:26.001Z</time></trkpt><trkpt lat="14.665343302153962" lon="121.03706810290126"><ele>34.0</ele><time>2026-05-05T05:08:30.001Z</time></trkpt><trkpt lat="14.665406210999098" lon="121.03703494245072"><ele>33.99999999999999</ele><time>2026-05-05T05:08:33.001Z</time></trkpt><trkpt lat="14.665378183388023" lon="121.03692645051335"><ele>34.0</ele><time>2026-05-05T05:08:36.001Z</time></trkpt><trkpt lat="14.665346000630336" lon="121.03686100419104"><ele>34.0</ele><time>2026-05-05T05:08:37.001Z</time></trkpt><trkpt lat="14.665335101142611" lon="121.03679643734321"><ele>34.0</ele><time>2026-05-05T05:08:38.001Z</time></trkpt><trkpt lat="14.665323392624453" lon="121.03673024354288"><ele>34.0</ele><time>2026-05-05T05:08:39.001Z</time></trkpt><trkpt lat="14.665303837581925" lon="121.03666294751675"><ele>33.99999999999999</ele><time>2026-05-05T05:08:40.001Z</time></trkpt><trkpt lat="14.665278803753937" lon="121.0365950747928"><ele>34.0</ele><time>2026-05-05T05:08:41.001Z</time></trkpt><trkpt lat="14.66524773026901" lon="121.03653081269597"><ele>33.833333333333336</ele><time>2026-05-05T05:08:42.001Z</time></trkpt><trkpt lat="14.66527074893775" lon="121.03645315718998"><ele>33.66666666666667</ele><time>2026-05-05T05:08:43.001Z</time></trkpt><trkpt lat="14.665244292637698" lon="121.03638389061368"><ele>33.5</ele><time>2026-05-05T05:08:44.001Z</time></trkpt><trkpt lat="14.665217812160304" lon="121.03631514578146"><ele>33.333333333333336</ele><time>2026-05-05T05:08:45.001Z</time></trkpt><trkpt lat="14.665184106829427" lon="121.03622781979371"><ele>33.166666666666664</ele><time>2026-05-05T05:08:47.001Z</time></trkpt><trkpt lat="14.665145394934568" lon="121.03616462279648"><ele>33.0</ele><time>2026-05-05T05:08:50.001Z</time></trkpt><trkpt lat="14.66528535696186" lon="121.03605883944532"><ele>32.4</ele><time>2026-05-05T05:08:53.001Z</time></trkpt><trkpt lat="14.665360544473176" lon="121.03602090722958"><ele>31.799999999999997</ele><time>2026-05-05T05:08:54.001Z</time></trkpt><trkpt lat="14.665439410938744" lon="121.03598111892966"><ele>31.2</ele><time>2026-05-05T05:08:55.001Z</time></trkpt><trkpt lat="14.66552187281473" lon="121.03593884062819"><ele>30.6</ele><time>2026-05-05T05:08:56.001Z</time></trkpt><trkpt lat="14.665610641876123" lon="121.03588815335506"><ele>30.0</ele><time>2026-05-05T05:08:57.001Z</time></trkpt><trkpt lat="14.665710843905819" lon="121.03583111355515"><ele>30.25</ele><time>2026-05-05T05:08:58.001Z</time></trkpt><trkpt lat="14.66580950703293" lon="121.03577494977247"><ele>30.5</ele><time>2026-05-05T05:08:59.001Z</time></trkpt><trkpt lat="14.665923992228588" lon="121.03572137439895"><ele>30.75</ele><time>2026-05-05T05:09:00.001Z</time></trkpt><trkpt lat="14.666019906391693" lon="121.03565955322928"><ele>31.0</ele><time>2026-05-05T05:09:01.001Z</time></trkpt><trkpt lat="14.666115212023616" lon="121.03559346136932"><ele>31.75</ele><time>2026-05-05T05:09:02.001Z</time></trkpt><trkpt lat="14.66620896133888" lon="121.03552088372358"><ele>32.5</ele><time>2026-05-05T05:09:03.001Z</time></trkpt><trkpt lat="14.666306824147215" lon="121.03544441401739"><ele>33.25</ele><time>2026-05-05T05:09:04.001Z</time></trkpt><trkpt lat="14.666404332406797" lon="121.03537518269258"><ele>34.0</ele><time>2026-05-05T05:09:05.001Z</time></trkpt><trkpt lat="14.666493633286295" lon="121.0352996122315"><ele>34.0</ele><time>2026-05-05T05:09:06.001Z</time></trkpt><trkpt lat="14.666577653582152" lon="121.03522714407461"><ele>34.0</ele><time>2026-05-05T05:09:07.001Z</time></trkpt><trkpt lat="14.666658799136348" lon="121.03516269754522"><ele>34.0</ele><time>2026-05-05T05:09:08.001Z</time></trkpt><trkpt lat="14.666744990173802" lon="121.03508730236143"><ele>34.0</ele><time>2026-05-05T05:09:09.001Z</time></trkpt><trkpt lat="14.66683245700153" lon="121.03500546953974"><ele>34.0</ele><time>2026-05-05T05:09:10.001Z</time></trkpt><trkpt lat="14.666908465632003" lon="121.03493048718111"><ele>33.8</ele><time>2026-05-05T05:09:11.001Z</time></trkpt><trkpt lat="14.666978855701045" lon="121.0348635646083"><ele>33.599999999999994</ele><time>2026-05-05T05:09:12.001Z</time></trkpt><trkpt lat="14.667049928410675" lon="121.03479971812212"><ele>33.4</ele><time>2026-05-05T05:09:13.001Z</time></trkpt><trkpt lat="14.66711615616957" lon="121.03473924673808"><ele>33.199999999999996</ele><time>2026-05-05T05:09:14.001Z</time></trkpt><trkpt lat="14.667188263675147" lon="121.03467131491425"><ele>33.0</ele><time>2026-05-05T05:09:15.001Z</time></trkpt><trkpt lat="14.667249735110039" lon="121.03460852237322"><ele>33.0</ele><time>2026-05-05T05:09:16.001Z</time></trkpt><trkpt lat="14.667304591881617" lon="121.03455995263884"><ele>33.0</ele><time>2026-05-05T05:09:17.001Z</time></trkpt><trkpt lat="14.667358623539211" lon="121.03451119590615"><ele>33.0</ele><time>2026-05-05T05:09:18.001Z</time></trkpt><trkpt lat="14.667432700541909" lon="121.03443964819809"><ele>33.0</ele><time>2026-05-05T05:09:20.001Z</time></trkpt><trkpt lat="14.66749787046271" lon="121.03438671485334"><ele>33.0</ele><time>2026-05-05T05:09:22.001Z</time></trkpt><trkpt lat="14.667540123541096" lon="121.03433449282711"><ele>33.0</ele><time>2026-05-05T05:09:25.001Z</time></trkpt><trkpt lat="14.667597055536435" lon="121.03430450999356"><ele>33.0</ele><time>2026-05-05T05:09:33.001Z</time></trkpt><trkpt lat="14.667663742029662" lon="121.03424574082545"><ele>33.0</ele><time>2026-05-05T05:09:36.001Z</time></trkpt><trkpt lat="14.667729209313805" lon="121.03419207434311"><ele>33.0</ele><time>2026-05-05T05:09:39.001Z</time></trkpt><trkpt lat="14.667780551537072" lon="121.03415012375696"><ele>33.0</ele><time>2026-05-05T05:09:44.001Z</time></trkpt><trkpt lat="14.667817574766158" lon="121.0340593716184"><ele>33.0</ele><time>2026-05-05T05:11:45.001Z</time></trkpt><trkpt lat="14.667912324236852" lon="121.0340098957446"><ele>33.0</ele><time>2026-05-05T05:11:47.001Z</time></trkpt><trkpt lat="14.667971119664896" lon="121.03396740671181"><ele>32.8</ele><time>2026-05-05T05:11:48.001Z</time></trkpt><trkpt lat="14.668024218019914" lon="121.03392219999311"><ele>32.599999999999994</ele><time>2026-05-05T05:11:49.001Z</time></trkpt><trkpt lat="14.668077756219636" lon="121.03387314149504"><ele>32.400000000000006</ele><time>2026-05-05T05:11:50.001Z</time></trkpt><trkpt lat="14.668142641428325" lon="121.03381135974945"><ele>32.2</ele><time>2026-05-05T05:11:51.001Z</time></trkpt><trkpt lat="14.66822860271593" lon="121.03372932484335"><ele>32.0</ele><time>2026-05-05T05:11:52.001Z</time></trkpt><trkpt lat="14.668335963124099" lon="121.03364952176189"><ele>32.0</ele><time>2026-05-05T05:11:53.001Z</time></trkpt><trkpt lat="14.66843518270193" lon="121.03356368476624"><ele>32.0</ele><time>2026-05-05T05:11:54.001Z</time></trkpt><trkpt lat="14.668549893861043" lon="121.03346444569101"><ele>32.0</ele><time>2026-05-05T05:11:55.001Z</time></trkpt><trkpt lat="14.668667578767977" lon="121.0333662469366"><ele>32.0</ele><time>2026-05-05T05:11:56.001Z</time></trkpt><trkpt lat="14.66879112682463" lon="121.03327061480022"><ele>34.0</ele><time>2026-05-05T05:11:57.001Z</time></trkpt><trkpt lat="14.668916333909719" lon="121.03318144602996"><ele>36.0</ele><time>2026-05-05T05:11:58.001Z</time></trkpt><trkpt lat="14.6690521812726" lon="121.03309326924759"><ele>38.0</ele><time>2026-05-05T05:11:59.001Z</time></trkpt><trkpt lat="14.669190169590028" lon="121.03300926478536"><ele>38.0</ele><time>2026-05-05T05:12:00.001Z</time></trkpt><trkpt lat="14.669321038707286" lon="121.03291512026388"><ele>38.0</ele><time>2026-05-05T05:12:01.001Z</time></trkpt><trkpt lat="14.669469655107166" lon="121.03285471436295"><ele>38.0</ele><time>2026-05-05T05:12:02.001Z</time></trkpt><trkpt lat="14.669596332397218" lon="121.03277240830053"><ele>38.25</ele><time>2026-05-05T05:12:03.001Z</time></trkpt><trkpt lat="14.669732069954819" lon="121.03272970464711"><ele>38.5</ele><time>2026-05-05T05:12:04.001Z</time></trkpt><trkpt lat="14.669850060929559" lon="121.03267930076238"><ele>38.75</ele><time>2026-05-05T05:12:05.001Z</time></trkpt><trkpt lat="14.66995318794191" lon="121.03262426331743"><ele>39.0</ele><time>2026-05-05T05:12:06.001Z</time></trkpt><trkpt lat="14.67005359945586" lon="121.0325869723909"><ele>39.0</ele><time>2026-05-05T05:12:07.001Z</time></trkpt><trkpt lat="14.670128380376603" lon="121.03256055452147"><ele>39.0</ele><time>2026-05-05T05:12:08.001Z</time></trkpt><trkpt lat="14.670211479486836" lon="121.03254736655671"><ele>39.0</ele><time>2026-05-05T05:12:10.001Z</time></trkpt><trkpt lat="14.67007158094689" lon="121.03250929445838"><ele>39.0</ele><time>2026-05-05T05:12:15.001Z</time></trkpt><trkpt lat="14.669988740711664" lon="121.03255924344992"><ele>39.0</ele><time>2026-05-05T05:12:16.001Z</time></trkpt><trkpt lat="14.669901145760859" lon="121.03258065990072"><ele>39.0</ele><time>2026-05-05T05:12:17.001Z</time></trkpt><trkpt lat="14.669801755359838" lon="121.03261385078706"><ele>39.0</ele><time>2026-05-05T05:12:18.001Z</time></trkpt><trkpt lat="14.66969641686614" lon="121.03265259635128"><ele>39.0</ele><time>2026-05-05T05:12:19.001Z</time></trkpt><trkpt lat="14.669595098017913" lon="121.03269604629524"><ele>39.0</ele><time>2026-05-05T05:12:20.001Z</time></trkpt><trkpt lat="14.669489523860452" lon="121.03274723031382"><ele>39.0</ele><time>2026-05-05T05:12:21.001Z</time></trkpt><trkpt lat="14.669388245643313" lon="121.03279748502112"><ele>38.75</ele><time>2026-05-05T05:12:22.001Z</time></trkpt><trkpt lat="14.6692831940005" lon="121.03285051626746"><ele>38.5</ele><time>2026-05-05T05:12:23.001Z</time></trkpt><trkpt lat="14.66918153616104" lon="121.03290928305357"><ele>38.25</ele><time>2026-05-05T05:12:24.002Z</time></trkpt><trkpt lat="14.66907011731926" lon="121.03297338825759"><ele>38.0</ele><time>2026-05-05T05:12:25.002Z</time></trkpt><trkpt lat="14.66894644341205" lon="121.03304438795071"><ele>38.0</ele><time>2026-05-05T05:12:26.001Z</time></trkpt><trkpt lat="14.668830269430854" lon="121.03311370237168"><ele>38.0</ele><time>2026-05-05T05:12:27.001Z</time></trkpt><trkpt lat="14.668716527527375" lon="121.03318689226604"><ele>38.0</ele><time>2026-05-05T05:12:28.001Z</time></trkpt><trkpt lat="14.668610784383686" lon="121.03325648093656"><ele>38.0</ele><time>2026-05-05T05:12:29.001Z</time></trkpt><trkpt lat="14.668513521140294" lon="121.03331883509384"><ele>36.8</ele><time>2026-05-05T05:12:30.001Z</time></trkpt><trkpt lat="14.668420264010946" lon="121.03337879323182"><ele>35.599999999999994</ele><time>2026-05-05T05:12:31.001Z</time></trkpt><trkpt lat="14.668344667122899" lon="121.03343356719469"><ele>34.400000000000006</ele><time>2026-05-05T05:12:32.001Z</time></trkpt><trkpt lat="14.66826883241097" lon="121.03349599072958"><ele>33.2</ele><time>2026-05-05T05:12:33.001Z</time></trkpt><trkpt lat="14.668198904838869" lon="121.03355825616185"><ele>32.0</ele><time>2026-05-05T05:12:34.001Z</time></trkpt><trkpt lat="14.668141883213586" lon="121.0336113159978"><ele>32.0</ele><time>2026-05-05T05:12:35.001Z</time></trkpt><trkpt lat="14.668051030118988" lon="121.03368463187753"><ele>32.0</ele><time>2026-05-05T05:12:37.001Z</time></trkpt><trkpt lat="14.667991259679763" lon="121.03372145306895"><ele>32.0</ele><time>2026-05-05T05:12:39.001Z</time></trkpt><trkpt lat="14.66790102471877" lon="121.03378166653023"><ele>32.0</ele><time>2026-05-05T05:14:11.001Z</time></trkpt><trkpt lat="14.667849138345852" lon="121.0338584988459"><ele>32.0</ele><time>2026-05-05T05:14:13.001Z</time></trkpt><trkpt lat="14.667791750534985" lon="121.03391906870804"><ele>31.8</ele><time>2026-05-05T05:14:14.001Z</time></trkpt><trkpt lat="14.667729213295516" lon="121.03398385751184"><ele>31.6</ele><time>2026-05-05T05:14:15.001Z</time></trkpt><trkpt lat="14.667661651538898" lon="121.03405731059766"><ele>31.400000000000002</ele><time>2026-05-05T05:14:16.001Z</time></trkpt><trkpt lat="14.667586597289093" lon="121.03413507611242"><ele>31.200000000000003</ele><time>2026-05-05T05:14:17.001Z</time></trkpt><trkpt lat="14.667502963896931" lon="121.03421114149475"><ele>31.0</ele><time>2026-05-05T05:14:18.001Z</time></trkpt><trkpt lat="14.667419254371719" lon="121.03428720936351"><ele>31.4</ele><time>2026-05-05T05:14:19.001Z</time></trkpt><trkpt lat="14.667339295209391" lon="121.0343626118529"><ele>31.8</ele><time>2026-05-05T05:14:20.001Z</time></trkpt><trkpt lat="14.667260232754712" lon="121.03443727453303"><ele>32.199999999999996</ele><time>2026-05-05T05:14:21.001Z</time></trkpt><trkpt lat="14.66717704402721" lon="121.03451497821256"><ele>32.6</ele><time>2026-05-05T05:14:22.001Z</time></trkpt><trkpt lat="14.66709152959882" lon="121.0345912704439"><ele>33.0</ele><time>2026-05-05T05:14:23.001Z</time></trkpt><trkpt lat="14.66701247646625" lon="121.03465895935699"><ele>32.8</ele><time>2026-05-05T05:14:24.001Z</time></trkpt><trkpt lat="14.666938394854272" lon="121.03472259120578"><ele>32.599999999999994</ele><time>2026-05-05T05:14:25.001Z</time></trkpt><trkpt lat="14.666862132759626" lon="121.03478991297104"><ele>32.400000000000006</ele><time>2026-05-05T05:14:26.001Z</time></trkpt><trkpt lat="14.666790029118909" lon="121.03485571994793"><ele>32.2</ele><time>2026-05-05T05:14:27.001Z</time></trkpt><trkpt lat="14.66672377899624" lon="121.03491212048759"><ele>32.0</ele><time>2026-05-05T05:14:28.001Z</time></trkpt><trkpt lat="14.666661210557539" lon="121.03496586902322"><ele>32.0</ele><time>2026-05-05T05:14:29.001Z</time></trkpt><trkpt lat="14.666606659730794" lon="121.03501390142787"><ele>32.0</ele><time>2026-05-05T05:14:30.001Z</time></trkpt><trkpt lat="14.666525134781333" lon="121.0350659747748"><ele>32.0</ele><time>2026-05-05T05:14:32Z</time></trkpt><trkpt lat="14.666429964257393" lon="121.03496434183677"><ele>32.0</ele><time>2026-05-05T05:14:39Z</time></trkpt><trkpt lat="14.666432985895563" lon="121.03489486306249"><ele>32.0</ele><time>2026-05-05T05:14:42Z</time></trkpt><trkpt lat="14.666390462476471" lon="121.03481305736291"><ele>32.0</ele><time>2026-05-05T05:14:45Z</time></trkpt><trkpt lat="14.666395475489225" lon="121.03474779713463"><ele>32.0</ele><time>2026-05-05T05:14:52Z</time></trkpt><trkpt lat="14.666497466033949" lon="121.0347169451845"><ele>32.0</ele><time>2026-05-05T05:15:41.001Z</time></trkpt><trkpt lat="14.666621436398048" lon="121.03472767963363"><ele>32.0</ele><time>2026-05-05T05:16:45Z</time></trkpt><trkpt lat="14.666540183345504" lon="121.03473078058224"><ele>32.0</ele><time>2026-05-05T05:17:28Z</time></trkpt><trkpt lat="14.66646719313389" lon="121.03471259710045"><ele>32.0</ele><time>2026-05-05T05:17:33Z</time></trkpt><trkpt lat="14.666584275167445" lon="121.03471326842741"><ele>32.0</ele><time>2026-05-05T05:19:20Z</time></trkpt><trkpt lat="14.66667648333037" lon="121.03470000714059"><ele>32.0</ele><time>2026-05-05T05:19:22Z</time></trkpt><trkpt lat="14.666756962009911" lon="121.03467943467018"><ele>32.0</ele><time>2026-05-05T05:19:24Z</time></trkpt><trkpt lat="14.666741815961647" lon="121.0348535330722"><ele>31.999999999999996</ele><time>2026-05-05T05:19:32Z</time></trkpt><trkpt lat="14.666673687235672" lon="121.03489548264754"><ele>32.0</ele><time>2026-05-05T05:19:33Z</time></trkpt><trkpt lat="14.666607607855562" lon="121.03496153057006"><ele>32.0</ele><time>2026-05-05T05:19:34Z</time></trkpt><trkpt lat="14.666542437590246" lon="121.03503047305308"><ele>32.0</ele><time>2026-05-05T05:19:35Z</time></trkpt><trkpt lat="14.666476462883177" lon="121.0350868545445"><ele>31.999999999999996</ele><time>2026-05-05T05:19:36Z</time></trkpt><trkpt lat="14.666401873593358" lon="121.03514292959008"><ele>32.0</ele><time>2026-05-05T05:19:37.001Z</time></trkpt><trkpt lat="14.666320325697654" lon="121.03519865971184"><ele>31.75</ele><time>2026-05-05T05:19:38.001Z</time></trkpt><trkpt lat="14.66624051981556" lon="121.03525671716068"><ele>31.5</ele><time>2026-05-05T05:19:39.001Z</time></trkpt><trkpt lat="14.6661505963637" lon="121.03532323595327"><ele>31.25</ele><time>2026-05-05T05:19:40.001Z</time></trkpt><trkpt lat="14.666049507927758" lon="121.03539127004777"><ele>31.0</ele><time>2026-05-05T05:19:41.001Z</time></trkpt><trkpt lat="14.665941025596652" lon="121.03546716640129"><ele>31.0</ele><time>2026-05-05T05:19:42.001Z</time></trkpt><trkpt lat="14.665831062039741" lon="121.03553985989835"><ele>31.0</ele><time>2026-05-05T05:19:43.001Z</time></trkpt><trkpt lat="14.665722263576853" lon="121.03561535368227"><ele>31.0</ele><time>2026-05-05T05:19:44.001Z</time></trkpt><trkpt lat="14.66561135563464" lon="121.03568699514774"><ele>31.0</ele><time>2026-05-05T05:19:45.001Z</time></trkpt><trkpt lat="14.665496037165545" lon="121.03575390492898"><ele>30.75</ele><time>2026-05-05T05:19:46.001Z</time></trkpt><trkpt lat="14.66537398439611" lon="121.0358195890054"><ele>30.5</ele><time>2026-05-05T05:19:47.001Z</time></trkpt><trkpt lat="14.66525268494852" lon="121.03588298671842"><ele>30.25</ele><time>2026-05-05T05:19:48.001Z</time></trkpt><trkpt lat="14.665131706523669" lon="121.03594073215334"><ele>30.0</ele><time>2026-05-05T05:19:49.001Z</time></trkpt><trkpt lat="14.665008333066261" lon="121.03599623077565"><ele>30.75</ele><time>2026-05-05T05:19:50.001Z</time></trkpt><trkpt lat="14.664880651939276" lon="121.03605623849911"><ele>31.5</ele><time>2026-05-05T05:19:51.001Z</time></trkpt><trkpt lat="14.664763471107664" lon="121.03611241452866"><ele>32.25</ele><time>2026-05-05T05:19:52.001Z</time></trkpt><trkpt lat="14.664657298701583" lon="121.03616508200138"><ele>33.0</ele><time>2026-05-05T05:19:53.001Z</time></trkpt><trkpt lat="14.664562499445946" lon="121.03621213369027"><ele>33.0</ele><time>2026-05-05T05:19:54.001Z</time></trkpt><trkpt lat="14.66446714773741" lon="121.03625754883531"><ele>33.0</ele><time>2026-05-05T05:19:55.001Z</time></trkpt><trkpt lat="14.664376080013177" lon="121.03629116179906"><ele>33.0</ele><time>2026-05-05T05:19:56.001Z</time></trkpt><trkpt lat="14.664267757308634" lon="121.03632466446427"><ele>33.0</ele><time>2026-05-05T05:19:57.001Z</time></trkpt><trkpt lat="14.66415226865376" lon="121.0363554103341"><ele>33.0</ele><time>2026-05-05T05:19:58.001Z</time></trkpt><trkpt lat="14.664027738465679" lon="121.03638476226591"><ele>33.75</ele><time>2026-05-05T05:19:59.001Z</time></trkpt><trkpt lat="14.663908175462343" lon="121.0364077700607"><ele>34.5</ele><time>2026-05-05T05:20:00.001Z</time></trkpt><trkpt lat="14.663783641984054" lon="121.03644112984684"><ele>35.25</ele><time>2026-05-05T05:20:01.001Z</time></trkpt><trkpt lat="14.663667929019807" lon="121.0364725018818"><ele>36.0</ele><time>2026-05-05T05:20:02.001Z</time></trkpt><trkpt lat="14.66356488100192" lon="121.03649996349645"><ele>37.2</ele><time>2026-05-05T05:20:03.001Z</time></trkpt><trkpt lat="14.663461666352742" lon="121.0365227374304"><ele>38.400000000000006</ele><time>2026-05-05T05:20:04.001Z</time></trkpt><trkpt lat="14.663356694633064" lon="121.03654188200854"><ele>39.6</ele><time>2026-05-05T05:20:05.001Z</time></trkpt><trkpt lat="14.663256068733888" lon="121.03655562227017"><ele>40.800000000000004</ele><time>2026-05-05T05:20:06.001Z</time></trkpt><trkpt lat="14.663159949934329" lon="121.03656975504637"><ele>42.0</ele><time>2026-05-05T05:20:07.001Z</time></trkpt><trkpt lat="14.663068508878286" lon="121.03658215692845"><ele>42.0</ele><time>2026-05-05T05:20:08.001Z</time></trkpt><trkpt lat="14.662992812630744" lon="121.03659007126642"><ele>42.0</ele><time>2026-05-05T05:20:09.001Z</time></trkpt><trkpt lat="14.662898233804308" lon="121.03658825237157"><ele>42.0</ele><time>2026-05-05T05:20:11.001Z</time></trkpt><trkpt lat="14.662822439849716" lon="121.03658672289791"><ele>42.0</ele><time>2026-05-05T05:20:13.001Z</time></trkpt><trkpt lat="14.662738639970533" lon="121.03658941588607"><ele>42.0</ele><time>2026-05-05T05:20:15.001Z</time></trkpt><trkpt lat="14.662667257214594" lon="121.0366142703671"><ele>42.0</ele><time>2026-05-05T05:20:17.001Z</time></trkpt><trkpt lat="14.662707076676716" lon="121.03669479718283"><ele>42.0</ele><time>2026-05-05T05:20:20.001Z</time></trkpt><trkpt lat="14.662769424630033" lon="121.0367108528106"><ele>42.0</ele><time>2026-05-05T05:20:21.001Z</time></trkpt><trkpt lat="14.662837700641738" lon="121.03669893231991"><ele>42.0</ele><time>2026-05-05T05:20:22.001Z</time></trkpt><trkpt lat="14.662921119439398" lon="121.03669018577568"><ele>42.0</ele><time>2026-05-05T05:20:23.001Z</time></trkpt><trkpt lat="14.663019560456235" lon="121.03667541795215"><ele>42.0</ele><time>2026-05-05T05:20:24.001Z</time></trkpt><trkpt lat="14.663136167557749" lon="121.03665935363796"><ele>42.0</ele><time>2026-05-05T05:20:25.001Z</time></trkpt><trkpt lat="14.663243438721135" lon="121.0366436484674"><ele>42.0</ele><time>2026-05-05T05:20:26.001Z</time></trkpt><trkpt lat="14.66336775470695" lon="121.03662306268183"><ele>42.0</ele><time>2026-05-05T05:20:27.001Z</time></trkpt><trkpt lat="14.663494660622966" lon="121.03659857124472"><ele>42.0</ele><time>2026-05-05T05:20:28.001Z</time></trkpt><trkpt lat="14.66361350772963" lon="121.03657841673824"><ele>42.0</ele><time>2026-05-05T05:20:29.001Z</time></trkpt><trkpt lat="14.663742631120549" lon="121.0365558587576"><ele>40.5</ele><time>2026-05-05T05:20:30.001Z</time></trkpt><trkpt lat="14.663883229797698" lon="121.03651313935741"><ele>39.0</ele><time>2026-05-05T05:20:31.001Z</time></trkpt><trkpt lat="14.664024485383276" lon="121.03647128556896"><ele>37.5</ele><time>2026-05-05T05:20:32.001Z</time></trkpt><trkpt lat="14.664157498405139" lon="121.03644392263107"><ele>36.0</ele><time>2026-05-05T05:20:33.001Z</time></trkpt><trkpt lat="14.664283660739818" lon="121.03640812893562"><ele>36.0</ele><time>2026-05-05T05:20:34.001Z</time></trkpt><trkpt lat="14.664398854278273" lon="121.036375495186"><ele>36.0</ele><time>2026-05-05T05:20:35.001Z</time></trkpt><trkpt lat="14.664504885236058" lon="121.03635481413941"><ele>36.0</ele><time>2026-05-05T05:20:36.001Z</time></trkpt><trkpt lat="14.664602691952826" lon="121.03633287329139"><ele>36.0</ele><time>2026-05-05T05:20:37.001Z</time></trkpt><trkpt lat="14.664695372398855" lon="121.03630248298325"><ele>36.0</ele><time>2026-05-05T05:20:38.001Z</time></trkpt><trkpt lat="14.664783203021349" lon="121.03626678319843"><ele>35.5</ele><time>2026-05-05T05:20:39.001Z</time></trkpt><trkpt lat="14.66486212340879" lon="121.03623486587865"><ele>35.0</ele><time>2026-05-05T05:20:40.001Z</time></trkpt><trkpt lat="14.66492936228209" lon="121.03620468469762"><ele>34.5</ele><time>2026-05-05T05:20:41.001Z</time></trkpt><trkpt lat="14.664997608809768" lon="121.03617835252678"><ele>34.0</ele><time>2026-05-05T05:20:42.001Z</time></trkpt><trkpt lat="14.665082073916944" lon="121.03615692058078"><ele>33.5</ele><time>2026-05-05T05:20:44.001Z</time></trkpt><trkpt lat="14.665160535420904" lon="121.036264863848"><ele>33.0</ele><time>2026-05-05T05:20:48.001Z</time></trkpt><trkpt lat="14.66520879790804" lon="121.0363815363343"><ele>33.0</ele><time>2026-05-05T05:20:50Z</time></trkpt><trkpt lat="14.66525272413661" lon="121.03649773019191"><ele>33.0</ele><time>2026-05-05T05:20:52Z</time></trkpt><trkpt lat="14.665281997420633" lon="121.03656515903637"><ele>33.0</ele><time>2026-05-05T05:20:53Z</time></trkpt><trkpt lat="14.665306495988183" lon="121.03663172054387"><ele>33.0</ele><time>2026-05-05T05:20:54Z</time></trkpt><trkpt lat="14.665339314025262" lon="121.03675367413082"><ele>33.0</ele><time>2026-05-05T05:20:56Z</time></trkpt><trkpt lat="14.665364773403487" lon="121.03687818832825"><ele>33.166666666666664</ele><time>2026-05-05T05:20:58Z</time></trkpt><trkpt lat="14.665387427981985" lon="121.03696106430809"><ele>33.333333333333336</ele><time>2026-05-05T05:21:00Z</time></trkpt><trkpt lat="14.665318111759579" lon="121.03700951276164"><ele>33.5</ele><time>2026-05-05T05:21:05Z</time></trkpt><trkpt lat="14.665259285293176" lon="121.03705863251798"><ele>33.66666666666667</ele><time>2026-05-05T05:21:08Z</time></trkpt><trkpt lat="14.665200046608767" lon="121.03708583069272"><ele>33.833333333333336</ele><time>2026-05-05T05:21:11Z</time></trkpt><trkpt lat="14.665129005724111" lon="121.03710621195243"><ele>34.0</ele><time>2026-05-05T05:21:14Z</time></trkpt><trkpt lat="14.665185910342503" lon="121.03724119233443"><ele>33.99999999999999</ele><time>2026-05-05T05:21:20Z</time></trkpt><trkpt lat="14.665220973262107" lon="121.03730451501143"><ele>34.0</ele><time>2026-05-05T05:21:23Z</time></trkpt><trkpt lat="14.665261693930448" lon="121.03737783864088"><ele>34.0</ele><time>2026-05-05T05:21:26Z</time></trkpt><trkpt lat="14.665296996098691" lon="121.03744502207732"><ele>34.0</ele><time>2026-05-05T05:21:29Z</time></trkpt><trkpt lat="14.665317874213422" lon="121.0375207542762"><ele>34.0</ele><time>2026-05-05T05:21:33Z</time></trkpt><trkpt lat="14.665278613111996" lon="121.03758021524179"><ele>33.99999999999999</ele><time>2026-05-05T05:21:38Z</time></trkpt><trkpt lat="14.665210656799209" lon="121.03757979897897"><ele>34.0</ele><time>2026-05-05T05:21:40Z</time></trkpt><trkpt lat="14.665071180884581" lon="121.03758391153109"><ele>34.5</ele><time>2026-05-05T05:21:47.001Z</time></trkpt><trkpt lat="14.665017373819852" lon="121.03790469192711"><ele>35.0</ele><time>2026-05-05T05:33:28.006Z</time></trkpt><trkpt lat="14.665108457065276" lon="121.03776192717785"><ele>35.0</ele><time>2026-05-05T05:33:29.006Z</time></trkpt><trkpt lat="14.665050752865836" lon="121.03752908838182"><ele>35.0</ele><time>2026-05-05T05:33:30.006Z</time></trkpt><trkpt lat="14.665107718843322" lon="121.03748314491081"><ele>35.0</ele><time>2026-05-05T05:33:31.006Z</time></trkpt><trkpt lat="14.66473968814007" lon="121.03746200811345"><ele>33.0</ele><time>2026-05-05T05:33:32.006Z</time></trkpt><trkpt lat="14.665183874749317" lon="121.03739189227738"><ele>31.0</ele><time>2026-05-05T05:33:45.001Z</time></trkpt><trkpt lat="14.665073028538812" lon="121.03739724733838"><ele>31.0</ele><time>2026-05-05T05:34:17Z</time></trkpt><trkpt lat="14.665007747381974" lon="121.03740280720356"><ele>31.0</ele><time>2026-05-05T05:34:36Z</time></trkpt><trkpt lat="14.664923438635155" lon="121.03732558782252"><ele>31.0</ele><time>2026-05-05T05:35:32.001Z</time></trkpt><trkpt lat="14.664966471369336" lon="121.03726765102492"><ele>31.0</ele><time>2026-05-05T05:35:51.999Z</time></trkpt><trkpt lat="14.665112347072977" lon="121.03728469447564"><ele>31.0</ele><time>2026-05-05T05:36:41Z</time></trkpt><trkpt lat="14.665186264764309" lon="121.0373105460358"><ele>31.0</ele><time>2026-05-05T05:37:28.001Z</time></trkpt><trkpt lat="14.665256752219666" lon="121.03733667356441"><ele>31.0</ele><time>2026-05-05T05:37:31.001Z</time></trkpt><trkpt lat="14.665077375995642" lon="121.03760889798406"><ele>31.0</ele><time>2026-05-05T05:54:12.009Z</time></trkpt><trkpt lat="14.66505049093914" lon="121.03769487774967"><ele>31.000000000000004</ele><time>2026-05-05T05:54:13.009Z</time></trkpt><trkpt lat="14.665066627168747" lon="121.0376027746513"><ele>31.0</ele><time>2026-05-05T05:54:15.009Z</time></trkpt><trkpt lat="14.665119806588404" lon="121.03755979317056"><ele>31.0</ele><time>2026-05-05T05:54:17.005Z</time></trkpt><trkpt lat="14.665150628728702" lon="121.03747423490898"><ele>31.0</ele><time>2026-05-05T05:54:19.005Z</time></trkpt><trkpt lat="14.665113150735232" lon="121.03739201451124"><ele>31.000000000000004</ele><time>2026-05-05T05:54:23.004Z</time></trkpt><trkpt lat="14.665040496200383" lon="121.0373754632312"><ele>31.0</ele><time>2026-05-05T05:54:26.003Z</time></trkpt><trkpt lat="14.664969489842305" lon="121.03736038809271"><ele>31.0</ele><time>2026-05-05T05:54:30.002Z</time></trkpt><trkpt lat="14.664954637492649" lon="121.03729271655529"><ele>31.000000000000004</ele><time>2026-05-05T05:54:36.002Z</time></trkpt><trkpt lat="14.664970393723616" lon="121.03736467006344"><ele>31.0</ele><time>2026-05-05T05:57:26Z</time></trkpt><trkpt lat="14.665014309627246" lon="121.03741382178656"><ele>31.0</ele><time>2026-05-05T05:57:31Z</time></trkpt><trkpt lat="14.665025393986737" lon="121.03748040547929"><ele>31.000000000000004</ele><time>2026-05-05T05:57:36Z</time></trkpt><trkpt lat="14.665025038201293" lon="121.03754808641338"><ele>31.0</ele><time>2026-05-05T05:57:40Z</time></trkpt><trkpt lat="14.665035805194536" lon="121.03763162677754"><ele>31.0</ele><time>2026-05-05T05:57:45Z</time></trkpt><trkpt lat="14.665056694816386" lon="121.03741320883927"><ele>31.000000000000004</ele><time>2026-05-05T05:57:48.082Z</time></trkpt><trkpt lat="14.664975246078304" lon="121.03740766558784"><ele>31.0</ele><time>2026-05-05T05:59:19.016Z</time></trkpt><trkpt lat="14.66490775175825" lon="121.0372962064522"><ele>31.0</ele><time>2026-05-05T05:59:25.001Z</time></trkpt><trkpt lat="14.664945987787831" lon="121.03737127031597"><ele>31.0</ele><time>2026-05-05T06:03:24Z</time></trkpt><trkpt lat="14.66497440455214" lon="121.03743790401445"><ele>31.000000000000004</ele><time>2026-05-05T06:03:29Z</time></trkpt><trkpt lat="14.665014586602265" lon="121.03749168848485"><ele>31.0</ele><time>2026-05-05T06:03:34Z</time></trkpt><trkpt lat="14.665064078848648" lon="121.03754245895287"><ele>31.0</ele><time>2026-05-05T06:03:38Z</time></trkpt><trkpt lat="14.66511996081775" lon="121.03758248058465"><ele>31.000000000000004</ele><time>2026-05-05T06:03:41Z</time></trkpt><trkpt lat="14.665161579870398" lon="121.03763366938006"><ele>31.0</ele><time>2026-05-05T06:03:45Z</time></trkpt><trkpt lat="14.665129581065704" lon="121.03756766888259"><ele>31.0</ele><time>2026-05-05T06:04:47Z</time></trkpt><trkpt lat="14.665091112749856" lon="121.03750901817692"><ele>31.000000000000004</ele><time>2026-05-05T06:04:56Z</time></trkpt><trkpt lat="14.665062509665361" lon="121.037441562574"><ele>31.0</ele><time>2026-05-05T06:05:03Z</time></trkpt><trkpt lat="14.664982879045748" lon="121.03741404027082"><ele>31.0</ele><time>2026-05-05T06:05:09Z</time></trkpt><trkpt lat="14.664921053584267" lon="121.03736693378914"><ele>31.000000000000004</ele><time>2026-05-05T06:05:16Z</time></trkpt><trkpt lat="14.664909340790706" lon="121.0372944013292"><ele>31.0</ele><time>2026-05-05T06:05:21Z</time></trkpt><trkpt lat="14.664923586288426" lon="121.0372219696497"><ele>31.0</ele><time>2026-05-05T06:06:25Z</time></trkpt><trkpt lat="14.664980243883894" lon="121.03717902616141"><ele>31.0</ele><time>2026-05-05T06:06:28Z</time></trkpt><trkpt lat="14.665043719689177" lon="121.0371314504127"><ele>31.000000000000004</ele><time>2026-05-05T06:06:30Z</time></trkpt><trkpt lat="14.665134849437854" lon="121.03709485556286"><ele>31.0</ele><time>2026-05-05T06:06:34Z</time></trkpt><trkpt lat="14.665210263423004" lon="121.03707775332593"><ele>31.5</ele><time>2026-05-05T06:06:37Z</time></trkpt><trkpt lat="14.66529996284803" lon="121.03704895146289"><ele>32.0</ele><time>2026-05-05T06:06:40Z</time></trkpt><trkpt lat="14.665323914879384" lon="121.03682260014932"><ele>32.5</ele><time>2026-05-05T06:06:48Z</time></trkpt><trkpt lat="14.665305694194828" lon="121.03671071113484"><ele>33.0</ele><time>2026-05-05T06:06:50Z</time></trkpt><trkpt lat="14.66526771794261" lon="121.03659306597653"><ele>33.0</ele><time>2026-05-05T06:06:52Z</time></trkpt><trkpt lat="14.66525180584532" lon="121.03652372736863"><ele>33.0</ele><time>2026-05-05T06:07:28Z</time></trkpt><trkpt lat="14.66520575487161" lon="121.03644914720101"><ele>33.0</ele><time>2026-05-05T06:07:32Z</time></trkpt><trkpt lat="14.665151220302768" lon="121.03635162353973"><ele>33.0</ele><time>2026-05-05T06:07:34Z</time></trkpt><trkpt lat="14.665203125902595" lon="121.03627709563744"><ele>33.0</ele><time>2026-05-05T06:07:35Z</time></trkpt><trkpt lat="14.665171727967238" lon="121.03619574779374"><ele>33.0</ele><time>2026-05-05T06:07:37Z</time></trkpt><trkpt lat="14.665146638888952" lon="121.03612513681456"><ele>32.4</ele><time>2026-05-05T06:07:42Z</time></trkpt><trkpt lat="14.665279767508896" lon="121.03605225694581"><ele>31.799999999999997</ele><time>2026-05-05T06:07:44Z</time></trkpt><trkpt lat="14.66535306321349" lon="121.03601786531466"><ele>31.2</ele><time>2026-05-05T06:07:45Z</time></trkpt><trkpt lat="14.665442345609655" lon="121.03596566710445"><ele>30.6</ele><time>2026-05-05T06:07:46Z</time></trkpt><trkpt lat="14.665532326497056" lon="121.0359153296384"><ele>30.0</ele><time>2026-05-05T06:07:47Z</time></trkpt><trkpt lat="14.665633768088151" lon="121.03586124676623"><ele>30.25</ele><time>2026-05-05T06:07:48Z</time></trkpt><trkpt lat="14.665734746233436" lon="121.03580261479954"><ele>30.5</ele><time>2026-05-05T06:07:49Z</time></trkpt><trkpt lat="14.665836792869905" lon="121.03574116546315"><ele>30.75</ele><time>2026-05-05T06:07:50Z</time></trkpt><trkpt lat="14.665941856684553" lon="121.03567363780373"><ele>31.0</ele><time>2026-05-05T06:07:51Z</time></trkpt><trkpt lat="14.666047082291133" lon="121.03560318792528"><ele>31.6</ele><time>2026-05-05T06:07:52Z</time></trkpt><trkpt lat="14.666149856520489" lon="121.03553816933398"><ele>32.2</ele><time>2026-05-05T06:07:53Z</time></trkpt><trkpt lat="14.666242624539692" lon="121.03547453968913"><ele>32.8</ele><time>2026-05-05T06:07:54Z</time></trkpt><trkpt lat="14.666326840759917" lon="121.03541746781931"><ele>33.4</ele><time>2026-05-05T06:07:55Z</time></trkpt><trkpt lat="14.66640870899631" lon="121.03535779335297"><ele>34.0</ele><time>2026-05-05T06:07:56Z</time></trkpt><trkpt lat="14.66647816032984" lon="121.03530896705172"><ele>33.99999999999999</ele><time>2026-05-05T06:07:57Z</time></trkpt><trkpt lat="14.66655031572694" lon="121.0352578320841"><ele>34.0</ele><time>2026-05-05T06:07:58Z</time></trkpt><trkpt lat="14.666612472534421" lon="121.03520912347184"><ele>34.0</ele><time>2026-05-05T06:07:59Z</time></trkpt><trkpt lat="14.666677126267162" lon="121.03515983132262"><ele>34.0</ele><time>2026-05-05T06:08:00Z</time></trkpt><trkpt lat="14.66673668316815" lon="121.0351175531778"><ele>34.0</ele><time>2026-05-05T06:08:01Z</time></trkpt><trkpt lat="14.666789388921687" lon="121.03507847294404"><ele>33.99999999999999</ele><time>2026-05-05T06:08:02Z</time></trkpt><trkpt lat="14.666841083099039" lon="121.0350412897022"><ele>34.0</ele><time>2026-05-05T06:08:03Z</time></trkpt><trkpt lat="14.666917272223898" lon="121.03498654481449"><ele>33.857142857142854</ele><time>2026-05-05T06:08:05Z</time></trkpt><trkpt lat="14.666974451181293" lon="121.0349406101699"><ele>33.714285714285715</ele><time>2026-05-05T06:08:07Z</time></trkpt><trkpt lat="14.667030098218728" lon="121.03489169613144"><ele>33.57142857142857</ele><time>2026-05-05T06:08:11Z</time></trkpt><trkpt lat="14.667082180897847" lon="121.03484924516445"><ele>33.42857142857143</ele><time>2026-05-05T06:08:13Z</time></trkpt><trkpt lat="14.66713796249818" lon="121.03479952147188"><ele>33.285714285714285</ele><time>2026-05-05T06:08:16Z</time></trkpt><trkpt lat="14.66718620273448" lon="121.03475276975557"><ele>33.14285714285714</ele><time>2026-05-05T06:08:19Z</time></trkpt><trkpt lat="14.667239054738824" lon="121.03470806011016"><ele>33.0</ele><time>2026-05-05T06:08:21Z</time></trkpt><trkpt lat="14.667316177785164" lon="121.03463741357378"><ele>33.0</ele><time>2026-05-05T06:08:23Z</time></trkpt><trkpt lat="14.66739582964734" lon="121.03456477833494"><ele>33.0</ele><time>2026-05-05T06:08:25Z</time></trkpt><trkpt lat="14.667489439249774" lon="121.03447508549384"><ele>33.0</ele><time>2026-05-05T06:08:27Z</time></trkpt><trkpt lat="14.667547790294723" lon="121.03442485301852"><ele>33.0</ele><time>2026-05-05T06:08:28Z</time></trkpt><trkpt lat="14.667610876125828" lon="121.03437186493328"><ele>33.0</ele><time>2026-05-05T06:08:29Z</time></trkpt><trkpt lat="14.667664291038644" lon="121.03432461156599"><ele>33.0</ele><time>2026-05-05T06:08:30Z</time></trkpt><trkpt lat="14.667748108519099" lon="121.0342506924643"><ele>33.0</ele><time>2026-05-05T06:08:32Z</time></trkpt><trkpt lat="14.667822789335863" lon="121.03419678928014"><ele>33.0</ele><time>2026-05-05T06:08:34Z</time></trkpt><trkpt lat="14.667896614512165" lon="121.03413068411973"><ele>33.0</ele><time>2026-05-05T06:08:36Z</time></trkpt><trkpt lat="14.667968960479289" lon="121.0340847355589"><ele>33.0</ele><time>2026-05-05T06:08:38Z</time></trkpt><trkpt lat="14.668127870432048" lon="121.03421902464271"><ele>33.0</ele><time>2026-05-05T06:08:39Z</time></trkpt><trkpt lat="14.66820242231511" lon="121.03428708116888"><ele>33.0</ele><time>2026-05-05T06:08:40Z</time></trkpt><trkpt lat="14.668277474758124" lon="121.03436960083991"><ele>33.0</ele><time>2026-05-05T06:08:41Z</time></trkpt><trkpt lat="14.668358218040668" lon="121.0344589149176"><ele>33.0</ele><time>2026-05-05T06:08:42Z</time></trkpt><trkpt lat="14.668441674432794" lon="121.03454899037136"><ele>33.0</ele><time>2026-05-05T06:08:43Z</time></trkpt><trkpt lat="14.668527092133099" lon="121.03464936193049"><ele>33.0</ele><time>2026-05-05T06:08:44Z</time></trkpt><trkpt lat="14.668610336125468" lon="121.03474912590804"><ele>33.0</ele><time>2026-05-05T06:08:45Z</time></trkpt><trkpt lat="14.668693988653045" lon="121.03484265479986"><ele>33.0</ele><time>2026-05-05T06:08:46Z</time></trkpt><trkpt lat="14.668769723971087" lon="121.03492717169895"><ele>33.0</ele><time>2026-05-05T06:08:47Z</time></trkpt><trkpt lat="14.668840121925667" lon="121.03501126808915"><ele>32.75</ele><time>2026-05-05T06:08:48Z</time></trkpt><trkpt lat="14.668892189020182" lon="121.03509394628725"><ele>32.5</ele><time>2026-05-05T06:08:49Z</time></trkpt><trkpt lat="14.668967578250008" lon="121.03518535862011"><ele>32.25</ele><time>2026-05-05T06:08:50Z</time></trkpt><trkpt lat="14.669041915064035" lon="121.03527629526577"><ele>32.0</ele><time>2026-05-05T06:08:51Z</time></trkpt><trkpt lat="14.669123132890979" lon="121.03538142618876"><ele>32.0</ele><time>2026-05-05T06:08:52Z</time></trkpt><trkpt lat="14.669197293726944" lon="121.03548234999325"><ele>32.0</ele><time>2026-05-05T06:08:53Z</time></trkpt><trkpt lat="14.669280225450356" lon="121.03559164388223"><ele>32.0</ele><time>2026-05-05T06:08:54Z</time></trkpt><trkpt lat="14.669368514411918" lon="121.03570945583782"><ele>32.0</ele><time>2026-05-05T06:08:55Z</time></trkpt><trkpt lat="14.669454980444517" lon="121.03583192052993"><ele>33.0</ele><time>2026-05-05T06:08:56Z</time></trkpt><trkpt lat="14.66953749715423" lon="121.03596362266947"><ele>34.0</ele><time>2026-05-05T06:08:57Z</time></trkpt><trkpt lat="14.6696216029249" lon="121.03610086909153"><ele>35.0</ele><time>2026-05-05T06:08:58Z</time></trkpt><trkpt lat="14.669700241052249" lon="121.03624203518245"><ele>35.0</ele><time>2026-05-05T06:08:59Z</time></trkpt><trkpt lat="14.669773600431537" lon="121.03637507717079"><ele>35.0</ele><time>2026-05-05T06:09:00Z</time></trkpt><trkpt lat="14.669837093294452" lon="121.03650036190922"><ele>35.0</ele><time>2026-05-05T06:09:01Z</time></trkpt><trkpt lat="14.66989143043157" lon="121.03660882135057"><ele>35.0</ele><time>2026-05-05T06:09:02Z</time></trkpt><trkpt lat="14.66994173402057" lon="121.03670067454279"><ele>34.6</ele><time>2026-05-05T06:09:03Z</time></trkpt><trkpt lat="14.669994843316566" lon="121.03679152404742"><ele>34.2</ele><time>2026-05-05T06:09:04Z</time></trkpt><trkpt lat="14.670044476107776" lon="121.03687290095634"><ele>33.8</ele><time>2026-05-05T06:09:05Z</time></trkpt><trkpt lat="14.670089040434998" lon="121.03694799228745"><ele>33.4</ele><time>2026-05-05T06:09:06Z</time></trkpt><trkpt lat="14.670132812509847" lon="121.03702276120504"><ele>33.0</ele><time>2026-05-05T06:09:07Z</time></trkpt><trkpt lat="14.670172528496595" lon="121.03710567202887"><ele>33.0</ele><time>2026-05-05T06:09:08Z</time></trkpt><trkpt lat="14.670213083691356" lon="121.0371977140607"><ele>33.0</ele><time>2026-05-05T06:09:09Z</time></trkpt><trkpt lat="14.67025242756622" lon="121.03727888377931"><ele>33.0</ele><time>2026-05-05T06:09:10Z</time></trkpt><trkpt lat="14.67029530534337" lon="121.03736645676342"><ele>33.0</ele><time>2026-05-05T06:09:11Z</time></trkpt><trkpt lat="14.670337811428015" lon="121.03745670183186"><ele>33.0</ele><time>2026-05-05T06:09:12Z</time></trkpt><trkpt lat="14.670376397519586" lon="121.03755204518664"><ele>33.0</ele><time>2026-05-05T06:09:13Z</time></trkpt><trkpt lat="14.670412272120826" lon="121.03764248162378"><ele>33.0</ele><time>2026-05-05T06:09:14Z</time></trkpt><trkpt lat="14.670439445197209" lon="121.03773042693092"><ele>33.0</ele><time>2026-05-05T06:09:15Z</time></trkpt><trkpt lat="14.670484944837844" lon="121.03782882737819"><ele>33.0</ele><time>2026-05-05T06:09:16Z</time></trkpt><trkpt lat="14.67052239785297" lon="121.0379403587256"><ele>33.0</ele><time>2026-05-05T06:09:17Z</time></trkpt><trkpt lat="14.670552419720526" lon="121.03805714071854"><ele>33.0</ele><time>2026-05-05T06:09:18Z</time></trkpt><trkpt lat="14.670603198194124" lon="121.03818221761435"><ele>33.0</ele><time>2026-05-05T06:09:19Z</time></trkpt><trkpt lat="14.670638761003953" lon="121.03829219616871"><ele>33.0</ele><time>2026-05-05T06:09:20Z</time></trkpt><trkpt lat="14.670671709072932" lon="121.03840100281037"><ele>33.0</ele><time>2026-05-05T06:09:21Z</time></trkpt><trkpt lat="14.67071265221477" lon="121.03849842736487"><ele>33.333333333333336</ele><time>2026-05-05T06:09:22Z</time></trkpt><trkpt lat="14.670739078337853" lon="121.03858512232735"><ele>33.666666666666664</ele><time>2026-05-05T06:09:23Z</time></trkpt><trkpt lat="14.670760215581998" lon="121.03866096811385"><ele>34.0</ele><time>2026-05-05T06:09:24Z</time></trkpt><trkpt lat="14.670782621204607" lon="121.03876895874893"><ele>34.33333333333333</ele><time>2026-05-05T06:09:26Z</time></trkpt><trkpt lat="14.670789820884808" lon="121.03885421341235"><ele>34.666666666666664</ele><time>2026-05-05T06:09:28Z</time></trkpt><trkpt lat="14.670803165708751" lon="121.0389204160496"><ele>35.0</ele><time>2026-05-05T06:09:30Z</time></trkpt><trkpt lat="14.67084714526029" lon="121.03900452670452"><ele>35.0</ele><time>2026-05-05T06:09:32Z</time></trkpt><trkpt lat="14.670885682905697" lon="121.03911527252409"><ele>35.0</ele><time>2026-05-05T06:09:34Z</time></trkpt><trkpt lat="14.67090881549693" lon="121.03922105319543"><ele>35.0</ele><time>2026-05-05T06:09:36Z</time></trkpt><trkpt lat="14.670925826471638" lon="121.03928923505526"><ele>35.0</ele><time>2026-05-05T06:09:37Z</time></trkpt><trkpt lat="14.67094274301416" lon="121.03936532478782"><ele>35.0</ele><time>2026-05-05T06:09:38Z</time></trkpt><trkpt lat="14.670960094190239" lon="121.03944074134027"><ele>35.0</ele><time>2026-05-05T06:09:39Z</time></trkpt><trkpt lat="14.670974797085755" lon="121.03952267979257"><ele>35.33333333333333</ele><time>2026-05-05T06:09:40Z</time></trkpt><trkpt lat="14.670994105111848" lon="121.03960115819893"><ele>35.666666666666664</ele><time>2026-05-05T06:09:41Z</time></trkpt><trkpt lat="14.671016985748444" lon="121.03969160285847"><ele>36.0</ele><time>2026-05-05T06:09:42Z</time></trkpt><trkpt lat="14.671033639279559" lon="121.03976712201269"><ele>36.333333333333336</ele><time>2026-05-05T06:09:43Z</time></trkpt><trkpt lat="14.671050562430334" lon="121.03983403524298"><ele>36.66666666666667</ele><time>2026-05-05T06:09:44Z</time></trkpt><trkpt lat="14.671060147240182" lon="121.03993692158458"><ele>37.0</ele><time>2026-05-05T06:09:46Z</time></trkpt><trkpt lat="14.671088370136067" lon="121.04001552596353"><ele>37.6</ele><time>2026-05-05T06:09:48Z</time></trkpt><trkpt lat="14.671113507161177" lon="121.04012473348591"><ele>38.2</ele><time>2026-05-05T06:09:50Z</time></trkpt><trkpt lat="14.671136875319226" lon="121.040226256184"><ele>38.8</ele><time>2026-05-05T06:09:52Z</time></trkpt><trkpt lat="14.671159488700702" lon="121.04032449976762"><ele>39.4</ele><time>2026-05-05T06:09:54Z</time></trkpt><trkpt lat="14.671186215052304" lon="121.04044061209196"><ele>40.0</ele><time>2026-05-05T06:09:56Z</time></trkpt><trkpt lat="14.671209624850283" lon="121.04054231566602"><ele>40.0</ele><time>2026-05-05T06:09:58Z</time></trkpt><trkpt lat="14.671234243419406" lon="121.04064927076776"><ele>40.0</ele><time>2026-05-05T06:10:00Z</time></trkpt><trkpt lat="14.671256458601015" lon="121.0407457843587"><ele>40.0</ele><time>2026-05-05T06:10:02Z</time></trkpt><trkpt lat="14.671278866468327" lon="121.0408431351081"><ele>40.0</ele><time>2026-05-05T06:10:04Z</time></trkpt><trkpt lat="14.671305967674996" lon="121.0409608759792"><ele>40.0</ele><time>2026-05-05T06:10:06Z</time></trkpt><trkpt lat="14.671320601485428" lon="121.04102445241881"><ele>40.6</ele><time>2026-05-05T06:10:07Z</time></trkpt><trkpt lat="14.671330493699022" lon="121.04113949113528"><ele>41.2</ele><time>2026-05-05T06:10:09Z</time></trkpt><trkpt lat="14.671350663268202" lon="121.04121417929483"><ele>41.8</ele><time>2026-05-05T06:10:11Z</time></trkpt><trkpt lat="14.671373021268252" lon="121.04131175061505"><ele>42.4</ele><time>2026-05-05T06:10:13Z</time></trkpt><trkpt lat="14.671393896112834" lon="121.04140665097562"><ele>43.0</ele><time>2026-05-05T06:10:15Z</time></trkpt><trkpt lat="14.671413868860709" lon="121.0414891520763"><ele>43.0</ele><time>2026-05-05T06:10:17Z</time></trkpt><trkpt lat="14.671438588241301" lon="121.04160536228756"><ele>43.0</ele><time>2026-05-05T06:10:19Z</time></trkpt><trkpt lat="14.671460320644096" lon="121.04167690724904"><ele>43.0</ele><time>2026-05-05T06:10:20Z</time></trkpt><trkpt lat="14.671483333064934" lon="121.04175426158255"><ele>43.0</ele><time>2026-05-05T06:10:21Z</time></trkpt><trkpt lat="14.671507134574028" lon="121.04184086290424"><ele>43.0</ele><time>2026-05-05T06:10:22Z</time></trkpt><trkpt lat="14.671526914353532" lon="121.04193200924"><ele>43.0</ele><time>2026-05-05T06:10:23Z</time></trkpt><trkpt lat="14.671546343268103" lon="121.04200867292509"><ele>43.0</ele><time>2026-05-05T06:10:24Z</time></trkpt><trkpt lat="14.671564029072428" lon="121.0420788467619"><ele>43.0</ele><time>2026-05-05T06:10:25Z</time></trkpt><trkpt lat="14.671582693929174" lon="121.04214871775636"><ele>43.0</ele><time>2026-05-05T06:10:26Z</time></trkpt><trkpt lat="14.671600928544356" lon="121.0422251316587"><ele>43.0</ele><time>2026-05-05T06:10:27Z</time></trkpt><trkpt lat="14.671625046045655" lon="121.04234479715142"><ele>43.0</ele><time>2026-05-05T06:10:29Z</time></trkpt><trkpt lat="14.67165142521183" lon="121.04244523858893"><ele>43.0</ele><time>2026-05-05T06:10:31Z</time></trkpt><trkpt lat="14.671701834197776" lon="121.04257696870282"><ele>42.833333333333336</ele><time>2026-05-05T06:10:33Z</time></trkpt><trkpt lat="14.671726828516537" lon="121.04265540708239"><ele>42.66666666666667</ele><time>2026-05-05T06:10:34Z</time></trkpt><trkpt lat="14.67173708899854" lon="121.04274018405012"><ele>42.5</ele><time>2026-05-05T06:10:35Z</time></trkpt><trkpt lat="14.671746502569329" lon="121.04283022411272"><ele>42.333333333333336</ele><time>2026-05-05T06:10:36Z</time></trkpt><trkpt lat="14.67175791187811" lon="121.04290255527917"><ele>42.166666666666664</ele><time>2026-05-05T06:10:37Z</time></trkpt><trkpt lat="14.671783309032131" lon="121.04301370466645"><ele>42.0</ele><time>2026-05-05T06:10:39Z</time></trkpt><trkpt lat="14.6717922320375" lon="121.04308984959081"><ele>42.0</ele><time>2026-05-05T06:10:41Z</time></trkpt><trkpt lat="14.671803168546365" lon="121.04316767172647"><ele>42.0</ele><time>2026-05-05T06:10:44Z</time></trkpt><trkpt lat="14.671715253549447" lon="121.0432255364966"><ele>42.0</ele><time>2026-05-05T06:10:45Z</time></trkpt><trkpt lat="14.671618284304744" lon="121.04330167112961"><ele>42.0</ele><time>2026-05-05T06:10:47Z</time></trkpt><trkpt lat="14.671496964865726" lon="121.04330640558304"><ele>42.0</ele><time>2026-05-05T06:10:49Z</time></trkpt><trkpt lat="14.671403850277935" lon="121.04331751080333"><ele>42.5</ele><time>2026-05-05T06:10:50Z</time></trkpt><trkpt lat="14.671294394723486" lon="121.04332204412512"><ele>43.0</ele><time>2026-05-05T06:10:51Z</time></trkpt><trkpt lat="14.671173233770997" lon="121.043315898742"><ele>43.5</ele><time>2026-05-05T06:10:52Z</time></trkpt><trkpt lat="14.671030800748328" lon="121.0433026746015"><ele>44.0</ele><time>2026-05-05T06:10:53Z</time></trkpt><trkpt lat="14.670880137241802" lon="121.04329580866703"><ele>42.33333333333333</ele><time>2026-05-05T06:10:54Z</time></trkpt><trkpt lat="14.67071990614263" lon="121.0432919725337"><ele>40.666666666666664</ele><time>2026-05-05T06:10:55Z</time></trkpt><trkpt lat="14.670549773766878" lon="121.04328926109046"><ele>39.0</ele><time>2026-05-05T06:10:56Z</time></trkpt><trkpt lat="14.670372306168652" lon="121.04328295660802"><ele>39.0</ele><time>2026-05-05T06:10:57Z</time></trkpt><trkpt lat="14.670190879044926" lon="121.04327525674645"><ele>39.0</ele><time>2026-05-05T06:10:58Z</time></trkpt><trkpt lat="14.670001400394845" lon="121.04327237828868"><ele>39.0</ele><time>2026-05-05T06:10:59Z</time></trkpt><trkpt lat="14.669804864893347" lon="121.04326777344059"><ele>39.0</ele><time>2026-05-05T06:11:00Z</time></trkpt><trkpt lat="14.669607817187941" lon="121.04326457284117"><ele>39.0</ele><time>2026-05-05T06:11:01Z</time></trkpt><trkpt lat="14.669429329390212" lon="121.04325610123713"><ele>39.0</ele><time>2026-05-05T06:11:02Z</time></trkpt><trkpt lat="14.669239286904395" lon="121.04325256886206"><ele>39.0</ele><time>2026-05-05T06:11:03Z</time></trkpt><trkpt lat="14.669054626248004" lon="121.0432453366989"><ele>39.0</ele><time>2026-05-05T06:11:04Z</time></trkpt><trkpt lat="14.66887436299636" lon="121.04323252118496"><ele>39.0</ele><time>2026-05-05T06:11:05Z</time></trkpt><trkpt lat="14.66869522765044" lon="121.04322211964202"><ele>39.333333333333336</ele><time>2026-05-05T06:11:06Z</time></trkpt><trkpt lat="14.668519333431059" lon="121.04320557380896"><ele>39.66666666666667</ele><time>2026-05-05T06:11:07Z</time></trkpt><trkpt lat="14.668346412857405" lon="121.04319572194242"><ele>40.0</ele><time>2026-05-05T06:11:08Z</time></trkpt><trkpt lat="14.668177000304592" lon="121.04318921392505"><ele>40.0</ele><time>2026-05-05T06:11:09Z</time></trkpt><trkpt lat="14.668011596666405" lon="121.04318305513333"><ele>40.0</ele><time>2026-05-05T06:11:10Z</time></trkpt><trkpt lat="14.667857800050573" lon="121.04317098232902"><ele>40.0</ele><time>2026-05-05T06:11:11Z</time></trkpt><trkpt lat="14.66771266116318" lon="121.04316235453919"><ele>39.75</ele><time>2026-05-05T06:11:12Z</time></trkpt><trkpt lat="14.667575105029318" lon="121.04315009352112"><ele>39.5</ele><time>2026-05-05T06:11:13Z</time></trkpt><trkpt lat="14.667445241909371" lon="121.04314190022535"><ele>39.25</ele><time>2026-05-05T06:11:14Z</time></trkpt><trkpt lat="14.66731386558322" lon="121.04313563722305"><ele>39.0</ele><time>2026-05-05T06:11:15Z</time></trkpt><trkpt lat="14.667184574351808" lon="121.04313097303675"><ele>39.0</ele><time>2026-05-05T06:11:16Z</time></trkpt><trkpt lat="14.667053485712115" lon="121.04312518224415"><ele>39.0</ele><time>2026-05-05T06:11:17Z</time></trkpt><trkpt lat="14.666922349023109" lon="121.04311470589592"><ele>39.0</ele><time>2026-05-05T06:11:18Z</time></trkpt><trkpt lat="14.666785092382474" lon="121.04310350198836"><ele>39.0</ele><time>2026-05-05T06:11:19Z</time></trkpt><trkpt lat="14.66664213904663" lon="121.04310004490388"><ele>39.666666666666664</ele><time>2026-05-05T06:11:20Z</time></trkpt><trkpt lat="14.666491142185285" lon="121.04310640569878"><ele>40.33333333333333</ele><time>2026-05-05T06:11:21Z</time></trkpt><trkpt lat="14.666333682436607" lon="121.04311733376997"><ele>41.0</ele><time>2026-05-05T06:11:22Z</time></trkpt><trkpt lat="14.666180262684628" lon="121.0431441881943"><ele>40.33333333333333</ele><time>2026-05-05T06:11:23Z</time></trkpt><trkpt lat="14.666028412179235" lon="121.0431942151147"><ele>39.666666666666664</ele><time>2026-05-05T06:11:24Z</time></trkpt><trkpt lat="14.66585856643066" lon="121.04321868488871"><ele>39.0</ele><time>2026-05-05T06:11:25Z</time></trkpt><trkpt lat="14.665696676331494" lon="121.04326141698596"><ele>39.333333333333336</ele><time>2026-05-05T06:11:26Z</time></trkpt><trkpt lat="14.66553288733294" lon="121.04330351683028"><ele>39.66666666666667</ele><time>2026-05-05T06:11:27Z</time></trkpt><trkpt lat="14.665374295300476" lon="121.04334683928418"><ele>40.0</ele><time>2026-05-05T06:11:28Z</time></trkpt><trkpt lat="14.665217583507271" lon="121.0433835776888"><ele>40.0</ele><time>2026-05-05T06:11:29Z</time></trkpt><trkpt lat="14.665060528345153" lon="121.04342218507186"><ele>40.0</ele><time>2026-05-05T06:11:30Z</time></trkpt><trkpt lat="14.664900439858222" lon="121.04346290567582"><ele>40.0</ele><time>2026-05-05T06:11:31Z</time></trkpt><trkpt lat="14.664749801133492" lon="121.04349538187667"><ele>40.0</ele><time>2026-05-05T06:11:32Z</time></trkpt><trkpt lat="14.664606601759624" lon="121.04352877442928"><ele>40.0</ele><time>2026-05-05T06:11:33Z</time></trkpt><trkpt lat="14.664473229579128" lon="121.04355837957007"><ele>40.0</ele><time>2026-05-05T06:11:34Z</time></trkpt><trkpt lat="14.66434285929191" lon="121.0435819073265"><ele>40.0</ele><time>2026-05-05T06:11:35Z</time></trkpt><trkpt lat="14.66422026706053" lon="121.0436015810581"><ele>40.2</ele><time>2026-05-05T06:11:36Z</time></trkpt><trkpt lat="14.664101286995972" lon="121.04363036137559"><ele>40.4</ele><time>2026-05-05T06:11:37Z</time></trkpt><trkpt lat="14.664004874560838" lon="121.04365442024967"><ele>40.599999999999994</ele><time>2026-05-05T06:11:38Z</time></trkpt><trkpt lat="14.66390573444003" lon="121.04367398365281"><ele>40.8</ele><time>2026-05-05T06:11:39Z</time></trkpt><trkpt lat="14.663789805462441" lon="121.04369425133024"><ele>41.0</ele><time>2026-05-05T06:11:40Z</time></trkpt><trkpt lat="14.66366439201784" lon="121.04372719530906"><ele>41.75</ele><time>2026-05-05T06:11:41Z</time></trkpt><trkpt lat="14.663530656756961" lon="121.04376605707068"><ele>42.5</ele><time>2026-05-05T06:11:42Z</time></trkpt><trkpt lat="14.66339977645982" lon="121.04379956718192"><ele>43.25</ele><time>2026-05-05T06:11:43Z</time></trkpt><trkpt lat="14.663262756247132" lon="121.04383079380331"><ele>44.0</ele><time>2026-05-05T06:11:44Z</time></trkpt><trkpt lat="14.663133404117426" lon="121.04386329253171"><ele>44.0</ele><time>2026-05-05T06:11:45Z</time></trkpt><trkpt lat="14.663007767558591" lon="121.04389722985904"><ele>44.0</ele><time>2026-05-05T06:11:46Z</time></trkpt><trkpt lat="14.662890413583053" lon="121.04393070226433"><ele>44.0</ele><time>2026-05-05T06:11:47Z</time></trkpt><trkpt lat="14.66276284753983" lon="121.04396804336065"><ele>44.0</ele><time>2026-05-05T06:11:48Z</time></trkpt><trkpt lat="14.662641698135564" lon="121.0440046088354"><ele>44.75</ele><time>2026-05-05T06:11:49Z</time></trkpt><trkpt lat="14.662533834554432" lon="121.04402825227157"><ele>45.5</ele><time>2026-05-05T06:11:50Z</time></trkpt><trkpt lat="14.662416090192375" lon="121.04405238445372"><ele>46.25</ele><time>2026-05-05T06:11:51Z</time></trkpt><trkpt lat="14.662300527640818" lon="121.04407909201447"><ele>47.0</ele><time>2026-05-05T06:11:52Z</time></trkpt><trkpt lat="14.66218754649505" lon="121.04410712085931"><ele>46.400000000000006</ele><time>2026-05-05T06:11:53Z</time></trkpt><trkpt lat="14.662079597490544" lon="121.04414008512364"><ele>45.800000000000004</ele><time>2026-05-05T06:11:54Z</time></trkpt><trkpt lat="14.661978508414304" lon="121.04416620019097"><ele>45.2</ele><time>2026-05-05T06:11:55Z</time></trkpt><trkpt lat="14.661889443915634" lon="121.04418177571225"><ele>44.6</ele><time>2026-05-05T06:11:56.001Z</time></trkpt><trkpt lat="14.661798023564797" lon="121.04419752285129"><ele>44.0</ele><time>2026-05-05T06:11:57.001Z</time></trkpt><trkpt lat="14.661711183187524" lon="121.04421357123924"><ele>44.0</ele><time>2026-05-05T06:11:58.001Z</time></trkpt><trkpt lat="14.661621802332114" lon="121.04423729620504"><ele>44.0</ele><time>2026-05-05T06:11:59.001Z</time></trkpt><trkpt lat="14.661523478152125" lon="121.04426244489048"><ele>44.0</ele><time>2026-05-05T06:12:00.001Z</time></trkpt><trkpt lat="14.661432036637096" lon="121.0442839958464"><ele>44.0</ele><time>2026-05-05T06:12:01.001Z</time></trkpt><trkpt lat="14.66133237219118" lon="121.0443102968043"><ele>44.0</ele><time>2026-05-05T06:12:02.001Z</time></trkpt><trkpt lat="14.661251299172065" lon="121.04433269634625"><ele>44.0</ele><time>2026-05-05T06:12:03.001Z</time></trkpt><trkpt lat="14.661171308359435" lon="121.04435225150769"><ele>44.0</ele><time>2026-05-05T06:12:04Z</time></trkpt><trkpt lat="14.661093619043559" lon="121.0443727604097"><ele>44.0</ele><time>2026-05-05T06:12:05Z</time></trkpt><trkpt lat="14.661013063244988" lon="121.04439170506741"><ele>44.0</ele><time>2026-05-05T06:12:06Z</time></trkpt><trkpt lat="14.660934689034178" lon="121.04440825304506"><ele>44.0</ele><time>2026-05-05T06:12:07Z</time></trkpt><trkpt lat="14.660852142415877" lon="121.0444220802208"><ele>44.0</ele><time>2026-05-05T06:12:08Z</time></trkpt><trkpt lat="14.660757248325774" lon="121.04444266779734"><ele>44.2</ele><time>2026-05-05T06:12:09Z</time></trkpt><trkpt lat="14.660668385069789" lon="121.04445820030405"><ele>44.400000000000006</ele><time>2026-05-05T06:12:10Z</time></trkpt><trkpt lat="14.660575048592252" lon="121.04447666968954"><ele>44.6</ele><time>2026-05-05T06:12:11Z</time></trkpt><trkpt lat="14.660478117736904" lon="121.04449505729183"><ele>44.8</ele><time>2026-05-05T06:12:12Z</time></trkpt><trkpt lat="14.660378649520585" lon="121.04451565079486"><ele>45.0</ele><time>2026-05-05T06:12:13Z</time></trkpt><trkpt lat="14.660289834450401" lon="121.0445349372046"><ele>45.333333333333336</ele><time>2026-05-05T06:12:14Z</time></trkpt><trkpt lat="14.66021120582199" lon="121.04455303463152"><ele>45.666666666666664</ele><time>2026-05-05T06:12:15Z</time></trkpt><trkpt lat="14.660140987111086" lon="121.04457203678415"><ele>46.0</ele><time>2026-05-05T06:12:16Z</time></trkpt><trkpt lat="14.66007655144976" lon="121.04458772897686"><ele>46.33333333333333</ele><time>2026-05-05T06:12:17Z</time></trkpt><trkpt lat="14.659978669995484" lon="121.04460866648547"><ele>46.666666666666664</ele><time>2026-05-05T06:12:19Z</time></trkpt><trkpt lat="14.6598799716637" lon="121.04462056370554"><ele>47.0</ele><time>2026-05-05T06:12:25Z</time></trkpt><trkpt lat="14.659764814944147" lon="121.0446455292874"><ele>47.0</ele><time>2026-05-05T06:12:27Z</time></trkpt><trkpt lat="14.65970070875595" lon="121.04465625850894"><ele>47.0</ele><time>2026-05-05T06:12:28Z</time></trkpt><trkpt lat="14.659627352956717" lon="121.04467157197095"><ele>47.0</ele><time>2026-05-05T06:12:29Z</time></trkpt><trkpt lat="14.659543388534974" lon="121.04467958210884"><ele>47.0</ele><time>2026-05-05T06:12:30Z</time></trkpt><trkpt lat="14.659457224815982" lon="121.04470552394494"><ele>47.0</ele><time>2026-05-05T06:12:31Z</time></trkpt><trkpt lat="14.659363779551285" lon="121.0447249846633"><ele>47.0</ele><time>2026-05-05T06:12:32Z</time></trkpt><trkpt lat="14.659260712895188" lon="121.04475141982924"><ele>47.0</ele><time>2026-05-05T06:12:33Z</time></trkpt><trkpt lat="14.659155037425682" lon="121.04478678506621"><ele>47.0</ele><time>2026-05-05T06:12:34Z</time></trkpt><trkpt lat="14.659047328533143" lon="121.04482086391889"><ele>47.0</ele><time>2026-05-05T06:12:35Z</time></trkpt><trkpt lat="14.658946149047866" lon="121.04485287261775"><ele>47.0</ele><time>2026-05-05T06:12:36Z</time></trkpt><trkpt lat="14.658853608533432" lon="121.04488353532743"><ele>47.0</ele><time>2026-05-05T06:12:37Z</time></trkpt><trkpt lat="14.658769056708199" lon="121.04491333680544"><ele>47.0</ele><time>2026-05-05T06:12:38Z</time></trkpt><trkpt lat="14.658691420741706" lon="121.04493991874618"><ele>47.0</ele><time>2026-05-05T06:12:39Z</time></trkpt><trkpt lat="14.658604905154421" lon="121.04496551853323"><ele>47.0</ele><time>2026-05-05T06:12:40Z</time></trkpt><trkpt lat="14.658517106337046" lon="121.04498951630266"><ele>47.0</ele><time>2026-05-05T06:12:41Z</time></trkpt><trkpt lat="14.658422230482335" lon="121.04502706017468"><ele>47.0</ele><time>2026-05-05T06:12:42Z</time></trkpt><trkpt lat="14.658329191690507" lon="121.04505865948536"><ele>47.166666666666664</ele><time>2026-05-05T06:12:43Z</time></trkpt><trkpt lat="14.658236988877" lon="121.0450919578454"><ele>47.33333333333333</ele><time>2026-05-05T06:12:44Z</time></trkpt><trkpt lat="14.65815380334938" lon="121.04512309579916"><ele>47.5</ele><time>2026-05-05T06:12:45Z</time></trkpt><trkpt lat="14.658064947651004" lon="121.04515220838746"><ele>47.666666666666664</ele><time>2026-05-05T06:12:46Z</time></trkpt><trkpt lat="14.657988255722481" lon="121.04518882740027"><ele>47.833333333333336</ele><time>2026-05-05T06:12:47Z</time></trkpt><trkpt lat="14.65792014219712" lon="121.04521886335668"><ele>48.0</ele><time>2026-05-05T06:12:48Z</time></trkpt><trkpt lat="14.657860420595847" lon="121.0452412793874"><ele>48.4</ele><time>2026-05-05T06:12:49Z</time></trkpt><trkpt lat="14.657738445496829" lon="121.04528909996257"><ele>48.8</ele><time>2026-05-05T06:12:51Z</time></trkpt><trkpt lat="14.657660447355191" lon="121.04532827950943"><ele>49.2</ele><time>2026-05-05T06:12:53Z</time></trkpt><trkpt lat="14.657588917637778" lon="121.04538801325913"><ele>49.6</ele><time>2026-05-05T06:12:56Z</time></trkpt><trkpt lat="14.65749859350545" lon="121.04543509104724"><ele>50.0</ele><time>2026-05-05T06:12:59Z</time></trkpt><trkpt lat="14.657435795100064" lon="121.04546994105827"><ele>50.00000000000001</ele><time>2026-05-05T06:13:00Z</time></trkpt><trkpt lat="14.657357487972602" lon="121.04550864155713"><ele>50.0</ele><time>2026-05-05T06:13:01Z</time></trkpt><trkpt lat="14.657276281497339" lon="121.04554703357842"><ele>50.0</ele><time>2026-05-05T06:13:02Z</time></trkpt><trkpt lat="14.657193375703491" lon="121.04557685294687"><ele>50.0</ele><time>2026-05-05T06:13:03Z</time></trkpt><trkpt lat="14.65711624105843" lon="121.0455990005055"><ele>50.00000000000001</ele><time>2026-05-05T06:13:04Z</time></trkpt><trkpt lat="14.657053584646563" lon="121.04561637304143"><ele>50.0</ele><time>2026-05-05T06:13:05Z</time></trkpt><trkpt lat="14.656946823464676" lon="121.04566005126026"><ele>50.2</ele><time>2026-05-05T06:13:07Z</time></trkpt><trkpt lat="14.65688074233604" lon="121.0456955868786"><ele>50.4</ele><time>2026-05-05T06:13:09Z</time></trkpt><trkpt lat="14.656796824024644" lon="121.04574058018325"><ele>50.599999999999994</ele><time>2026-05-05T06:13:49Z</time></trkpt><trkpt lat="14.656683066757093" lon="121.04580801906269"><ele>50.8</ele><time>2026-05-05T06:13:51.001Z</time></trkpt><trkpt lat="14.656616445386065" lon="121.04584352049154"><ele>51.0</ele><time>2026-05-05T06:13:52.001Z</time></trkpt><trkpt lat="14.656551361543665" lon="121.04588153027902"><ele>50.599999999999994</ele><time>2026-05-05T06:13:53.001Z</time></trkpt><trkpt lat="14.65647790707749" lon="121.04592309854726"><ele>50.2</ele><time>2026-05-05T06:13:54.001Z</time></trkpt><trkpt lat="14.656384026003451" lon="121.04598206205374"><ele>49.8</ele><time>2026-05-05T06:13:55.001Z</time></trkpt><trkpt lat="14.656300653919859" lon="121.04603554227198"><ele>49.400000000000006</ele><time>2026-05-05T06:13:56.001Z</time></trkpt><trkpt lat="14.656214452035812" lon="121.04609177151187"><ele>49.0</ele><time>2026-05-05T06:13:57.001Z</time></trkpt><trkpt lat="14.656128659911058" lon="121.04614985297214"><ele>50.2</ele><time>2026-05-05T06:13:58.001Z</time></trkpt><trkpt lat="14.656037785178352" lon="121.04620575936528"><ele>51.400000000000006</ele><time>2026-05-05T06:13:59.001Z</time></trkpt><trkpt lat="14.655945406106008" lon="121.04627071894627"><ele>52.6</ele><time>2026-05-05T06:14:00.001Z</time></trkpt><trkpt lat="14.655866211364236" lon="121.0463156361038"><ele>53.8</ele><time>2026-05-05T06:14:01.001Z</time></trkpt><trkpt lat="14.655789142247583" lon="121.04636093897624"><ele>55.0</ele><time>2026-05-05T06:14:02.001Z</time></trkpt><trkpt lat="14.655718678891791" lon="121.04640540730846"><ele>54.99999999999999</ele><time>2026-05-05T06:14:03.001Z</time></trkpt><trkpt lat="14.655646085423053" lon="121.04644857712185"><ele>55.0</ele><time>2026-05-05T06:14:04.001Z</time></trkpt><trkpt lat="14.655575424529" lon="121.04648659060513"><ele>55.0</ele><time>2026-05-05T06:14:05.001Z</time></trkpt><trkpt lat="14.655503648687757" lon="121.04653220607581"><ele>55.0</ele><time>2026-05-05T06:14:06.001Z</time></trkpt><trkpt lat="14.655428283240562" lon="121.04658069197696"><ele>54.99999999999999</ele><time>2026-05-05T06:14:07.001Z</time></trkpt><trkpt lat="14.65535123529864" lon="121.04663276483937"><ele>55.0</ele><time>2026-05-05T06:14:08.001Z</time></trkpt><trkpt lat="14.655276466504912" lon="121.0466976168862"><ele>54.4</ele><time>2026-05-05T06:14:09.001Z</time></trkpt><trkpt lat="14.655186535031476" lon="121.04674476244395"><ele>53.8</ele><time>2026-05-05T06:14:10Z</time></trkpt><trkpt lat="14.65510042479877" lon="121.04680033842259"><ele>53.2</ele><time>2026-05-05T06:14:11Z</time></trkpt><trkpt lat="14.655013993910261" lon="121.04685493183194"><ele>52.6</ele><time>2026-05-05T06:14:12Z</time></trkpt><trkpt lat="14.654938973421821" lon="121.04689799977642"><ele>52.0</ele><time>2026-05-05T06:14:13Z</time></trkpt><trkpt lat="14.654881020315807" lon="121.04692867441402"><ele>51.99999999999999</ele><time>2026-05-05T06:14:14Z</time></trkpt><trkpt lat="14.654831439174252" lon="121.04697732178535"><ele>52.0</ele><time>2026-05-05T06:14:32Z</time></trkpt><trkpt lat="14.654746613151039" lon="121.04702623565345"><ele>52.0</ele><time>2026-05-05T06:14:34Z</time></trkpt><trkpt lat="14.654687848530312" lon="121.04705786031693"><ele>52.0</ele><time>2026-05-05T06:14:35Z</time></trkpt><trkpt lat="14.65462102174849" lon="121.0470980534092"><ele>51.99999999999999</ele><time>2026-05-05T06:14:36Z</time></trkpt><trkpt lat="14.65454411412681" lon="121.04714302197213"><ele>52.0</ele><time>2026-05-05T06:14:37Z</time></trkpt><trkpt lat="14.65446449998797" lon="121.04719027302396"><ele>52.666666666666664</ele><time>2026-05-05T06:14:38Z</time></trkpt><trkpt lat="14.654384959024023" lon="121.04724093732418"><ele>53.33333333333333</ele><time>2026-05-05T06:14:39Z</time></trkpt><trkpt lat="14.654307192613395" lon="121.04728661719581"><ele>54.0</ele><time>2026-05-05T06:14:40Z</time></trkpt><trkpt lat="14.654247282100824" lon="121.04732242772646"><ele>54.66666666666667</ele><time>2026-05-05T06:14:41Z</time></trkpt><trkpt lat="14.654182937327134" lon="121.04735514124411"><ele>55.333333333333336</ele><time>2026-05-05T06:14:42Z</time></trkpt><trkpt lat="14.65413080915057" lon="121.04731490172706"><ele>56.0</ele><time>2026-05-05T06:14:43Z</time></trkpt><trkpt lat="14.654065756921511" lon="121.0472703282753"><ele>56.0</ele><time>2026-05-05T06:14:45Z</time></trkpt><trkpt lat="14.653982206489244" lon="121.04719666952431"><ele>55.99999999999999</ele><time>2026-05-05T06:14:47Z</time></trkpt><trkpt lat="14.653920902830277" lon="121.04712555622744"><ele>55.99999999999999</ele><time>2026-05-05T06:14:48Z</time></trkpt><trkpt lat="14.653860652517189" lon="121.04706706325477"><ele>56.0</ele><time>2026-05-05T06:14:49Z</time></trkpt><trkpt lat="14.653782095838931" lon="121.04700265071848"><ele>56.0</ele><time>2026-05-05T06:14:50Z</time></trkpt><trkpt lat="14.65365977906305" lon="121.04702024410095"><ele>55.4</ele><time>2026-05-05T06:14:51Z</time></trkpt><trkpt lat="14.653569714714784" lon="121.04694879122836"><ele>54.8</ele><time>2026-05-05T06:14:52Z</time></trkpt><trkpt lat="14.653489805163991" lon="121.04689443744394"><ele>54.199999999999996</ele><time>2026-05-05T06:14:53Z</time></trkpt><trkpt lat="14.65340500280264" lon="121.04684097269651"><ele>53.599999999999994</ele><time>2026-05-05T06:14:54Z</time></trkpt><trkpt lat="14.653320103113773" lon="121.04679943640458"><ele>53.0</ele><time>2026-05-05T06:14:55Z</time></trkpt><trkpt lat="14.653220531268024" lon="121.04675653251333"><ele>53.00000000000001</ele><time>2026-05-05T06:14:56Z</time></trkpt><trkpt lat="14.653139045449025" lon="121.04671991591388"><ele>53.0</ele><time>2026-05-05T06:14:57Z</time></trkpt><trkpt lat="14.653064008089158" lon="121.0466918887962"><ele>53.0</ele><time>2026-05-05T06:14:58Z</time></trkpt><trkpt lat="14.65298117423279" lon="121.04667062392376"><ele>53.0</ele><time>2026-05-05T06:14:59Z</time></trkpt><trkpt lat="14.652886472895533" lon="121.04664702699077"><ele>53.00000000000001</ele><time>2026-05-05T06:15:00Z</time></trkpt><trkpt lat="14.652801528815168" lon="121.04662798726308"><ele>53.0</ele><time>2026-05-05T06:15:01Z</time></trkpt><trkpt lat="14.65269985990684" lon="121.04660477384618"><ele>52.8</ele><time>2026-05-05T06:15:02Z</time></trkpt><trkpt lat="14.652600266153755" lon="121.04659093795675"><ele>52.599999999999994</ele><time>2026-05-05T06:15:03Z</time></trkpt><trkpt lat="14.652503000580984" lon="121.04656218839288"><ele>52.400000000000006</ele><time>2026-05-05T06:15:04Z</time></trkpt><trkpt lat="14.652394234264172" lon="121.0465504444164"><ele>52.2</ele><time>2026-05-05T06:15:05Z</time></trkpt><trkpt lat="14.65230315507659" lon="121.04654466514891"><ele>52.0</ele><time>2026-05-05T06:15:06Z</time></trkpt><trkpt lat="14.652205018140803" lon="121.04654173940675"><ele>52.0</ele><time>2026-05-05T06:15:07Z</time></trkpt><trkpt lat="14.652111923675175" lon="121.04654120285356"><ele>52.0</ele><time>2026-05-05T06:15:08Z</time></trkpt><trkpt lat="14.652021877322824" lon="121.04654337673807"><ele>52.0</ele><time>2026-05-05T06:15:09Z</time></trkpt><trkpt lat="14.651926852723047" lon="121.04654621965788"><ele>52.0</ele><time>2026-05-05T06:15:10Z</time></trkpt><trkpt lat="14.651816706965132" lon="121.04655262586168"><ele>52.0</ele><time>2026-05-05T06:15:11Z</time></trkpt><trkpt lat="14.651708144049715" lon="121.04656179618124"><ele>52.0</ele><time>2026-05-05T06:15:12Z</time></trkpt><trkpt lat="14.651579184842634" lon="121.04657813601817"><ele>52.0</ele><time>2026-05-05T06:15:13Z</time></trkpt><trkpt lat="14.651446395902717" lon="121.04659935634244"><ele>52.0</ele><time>2026-05-05T06:15:14Z</time></trkpt><trkpt lat="14.651336451198263" lon="121.04662053154377"><ele>52.0</ele><time>2026-05-05T06:15:15Z</time></trkpt><trkpt lat="14.65121805823482" lon="121.04665309119319"><ele>50.75</ele><time>2026-05-05T06:15:16Z</time></trkpt><trkpt lat="14.65110575187421" lon="121.0466865734976"><ele>49.5</ele><time>2026-05-05T06:15:17Z</time></trkpt><trkpt lat="14.650988315193908" lon="121.04672463799173"><ele>48.25</ele><time>2026-05-05T06:15:18Z</time></trkpt><trkpt lat="14.65086115355687" lon="121.04677101192566"><ele>47.0</ele><time>2026-05-05T06:15:19Z</time></trkpt><trkpt lat="14.650745775170282" lon="121.04681964600162"><ele>47.0</ele><time>2026-05-05T06:15:20Z</time></trkpt><trkpt lat="14.650644118913384" lon="121.04686357990694"><ele>47.0</ele><time>2026-05-05T06:15:21Z</time></trkpt><trkpt lat="14.650520180133034" lon="121.04692026349062"><ele>47.0</ele><time>2026-05-05T06:15:22Z</time></trkpt><trkpt lat="14.650425499073865" lon="121.04697026093545"><ele>47.0</ele><time>2026-05-05T06:15:23Z</time></trkpt><trkpt lat="14.650336624837037" lon="121.04702025249522"><ele>46.75</ele><time>2026-05-05T06:15:24Z</time></trkpt><trkpt lat="14.650247216510193" lon="121.0470739490822"><ele>46.5</ele><time>2026-05-05T06:15:25Z</time></trkpt><trkpt lat="14.650162256914927" lon="121.04713775310749"><ele>46.25</ele><time>2026-05-05T06:15:26Z</time></trkpt><trkpt lat="14.650051772585437" lon="121.04720717499646"><ele>46.0</ele><time>2026-05-05T06:15:27Z</time></trkpt><trkpt lat="14.649945975691859" lon="121.04727956166866"><ele>46.0</ele><time>2026-05-05T06:15:28Z</time></trkpt><trkpt lat="14.649855861860901" lon="121.04733244487758"><ele>46.0</ele><time>2026-05-05T06:15:29Z</time></trkpt><trkpt lat="14.649772543665915" lon="121.0473891630314"><ele>46.0</ele><time>2026-05-05T06:15:30Z</time></trkpt><trkpt lat="14.649692817874788" lon="121.04744980334256"><ele>46.0</ele><time>2026-05-05T06:15:31Z</time></trkpt><trkpt lat="14.649623268340541" lon="121.04750332066538"><ele>46.0</ele><time>2026-05-05T06:15:32Z</time></trkpt><trkpt lat="14.649559561317544" lon="121.04756084017072"><ele>46.16666666666667</ele><time>2026-05-05T06:15:33Z</time></trkpt><trkpt lat="14.64950517417434" lon="121.04760688099823"><ele>46.333333333333336</ele><time>2026-05-05T06:15:34Z</time></trkpt><trkpt lat="14.649452908580459" lon="121.04764773324432"><ele>46.5</ele><time>2026-05-05T06:15:35Z</time></trkpt><trkpt lat="14.649364712149827" lon="121.04771607867599"><ele>46.666666666666664</ele><time>2026-05-05T06:15:37Z</time></trkpt><trkpt lat="14.64931278187304" lon="121.04776045850757"><ele>46.83333333333333</ele><time>2026-05-05T06:15:38Z</time></trkpt><trkpt lat="14.649275451266158" lon="121.04783021173043"><ele>47.0</ele><time>2026-05-05T06:15:39Z</time></trkpt><trkpt lat="14.649230010798975" lon="121.04788370377918"><ele>47.0</ele><time>2026-05-05T06:15:40Z</time></trkpt><trkpt lat="14.649178934411443" lon="121.04795281853774"><ele>47.0</ele><time>2026-05-05T06:15:41Z</time></trkpt><trkpt lat="14.649119630987657" lon="121.0480305394502"><ele>47.0</ele><time>2026-05-05T06:15:42Z</time></trkpt><trkpt lat="14.649055733940692" lon="121.04811054443844"><ele>47.0</ele><time>2026-05-05T06:15:43Z</time></trkpt><trkpt lat="14.648994621230635" lon="121.0481870889004"><ele>47.0</ele><time>2026-05-05T06:15:44.001Z</time></trkpt><trkpt lat="14.648959972123917" lon="121.04826378467045"><ele>47.0</ele><time>2026-05-05T06:15:45.001Z</time></trkpt><trkpt lat="14.64892415531382" lon="121.04832360324603"><ele>47.0</ele><time>2026-05-05T06:15:46.001Z</time></trkpt><trkpt lat="14.648786824122547" lon="121.04834240789089"><ele>47.0</ele><time>2026-05-05T06:15:47.001Z</time></trkpt><trkpt lat="14.648712518526755" lon="121.0483801764289"><ele>47.0</ele><time>2026-05-05T06:15:48.001Z</time></trkpt><trkpt lat="14.64863528617833" lon="121.04841369153107"><ele>47.0</ele><time>2026-05-05T06:15:49.001Z</time></trkpt><trkpt lat="14.648556593680476" lon="121.04843552705503"><ele>47.0</ele><time>2026-05-05T06:15:50.001Z</time></trkpt><trkpt lat="14.648474445908926" lon="121.04845638369464"><ele>47.0</ele><time>2026-05-05T06:15:51.001Z</time></trkpt><trkpt lat="14.648372395012785" lon="121.04847193074659"><ele>47.0</ele><time>2026-05-05T06:15:52.001Z</time></trkpt><trkpt lat="14.648261600547572" lon="121.048482576001"><ele>47.0</ele><time>2026-05-05T06:15:53.001Z</time></trkpt><trkpt lat="14.648167034992465" lon="121.04848683532714"><ele>47.0</ele><time>2026-05-05T06:15:54.001Z</time></trkpt><trkpt lat="14.64805971863525" lon="121.0484779052376"><ele>47.0</ele><time>2026-05-05T06:15:55.001Z</time></trkpt><trkpt lat="14.64795176244678" lon="121.04844920918605"><ele>47.0</ele><time>2026-05-05T06:15:56.001Z</time></trkpt><trkpt lat="14.647844873055837" lon="121.04840789441721"><ele>47.0</ele><time>2026-05-05T06:15:57.001Z</time></trkpt><trkpt lat="14.647725393044727" lon="121.04837767589034"><ele>47.0</ele><time>2026-05-05T06:15:58.001Z</time></trkpt><trkpt lat="14.64760842024621" lon="121.04835208335079"><ele>47.6</ele><time>2026-05-05T06:15:59.001Z</time></trkpt><trkpt lat="14.647500684180363" lon="121.0483264020311"><ele>48.2</ele><time>2026-05-05T06:16:00.001Z</time></trkpt><trkpt lat="14.647406589991455" lon="121.04830043435221"><ele>48.8</ele><time>2026-05-05T06:16:01.001Z</time></trkpt><trkpt lat="14.647324845023968" lon="121.0482711777663"><ele>49.4</ele><time>2026-05-05T06:16:02.001Z</time></trkpt><trkpt lat="14.647249294219286" lon="121.04825097846829"><ele>50.0</ele><time>2026-05-05T06:16:03.001Z</time></trkpt><trkpt lat="14.64713086488425" lon="121.0482223780805"><ele>50.2</ele><time>2026-05-05T06:16:05.001Z</time></trkpt><trkpt lat="14.647042609147553" lon="121.04819638006903"><ele>50.4</ele><time>2026-05-05T06:16:07.001Z</time></trkpt><trkpt lat="14.646944103200111" lon="121.04818184619104"><ele>50.599999999999994</ele><time>2026-05-05T06:16:09.001Z</time></trkpt><trkpt lat="14.646817430227165" lon="121.04815487496234"><ele>50.8</ele><time>2026-05-05T06:16:11.001Z</time></trkpt><trkpt lat="14.64674562298085" lon="121.0481326081373"><ele>51.0</ele><time>2026-05-05T06:16:12.001Z</time></trkpt><trkpt lat="14.646662811356865" lon="121.04811269888302"><ele>51.0</ele><time>2026-05-05T06:16:13.001Z</time></trkpt><trkpt lat="14.646564608064295" lon="121.0480902565765"><ele>51.0</ele><time>2026-05-05T06:16:14.001Z</time></trkpt><trkpt lat="14.646463949077654" lon="121.0480715154623"><ele>51.0</ele><time>2026-05-05T06:16:15.001Z</time></trkpt><trkpt lat="14.646354438514619" lon="121.04804939279832"><ele>51.0</ele><time>2026-05-05T06:16:16Z</time></trkpt><trkpt lat="14.646256466850248" lon="121.04802544451483"><ele>51.0</ele><time>2026-05-05T06:16:17Z</time></trkpt><trkpt lat="14.646160100937754" lon="121.04800310278374"><ele>50.833333333333336</ele><time>2026-05-05T06:16:18Z</time></trkpt><trkpt lat="14.646067644927882" lon="121.0479793769253"><ele>50.66666666666667</ele><time>2026-05-05T06:16:19Z</time></trkpt><trkpt lat="14.64598880791389" lon="121.04795629810121"><ele>50.5</ele><time>2026-05-05T06:16:20Z</time></trkpt><trkpt lat="14.64592818436285" lon="121.04793574641621"><ele>50.333333333333336</ele><time>2026-05-05T06:16:21Z</time></trkpt><trkpt lat="14.645821269838606" lon="121.0479052726348"><ele>50.16666666666667</ele><time>2026-05-05T06:16:23Z</time></trkpt><trkpt lat="14.645745142631217" lon="121.04788226542063"><ele>50.0</ele><time>2026-05-05T06:16:25Z</time></trkpt><trkpt lat="14.645658955627791" lon="121.04786271812098"><ele>50.00000000000001</ele><time>2026-05-05T06:16:28Z</time></trkpt><trkpt lat="14.645596645086359" lon="121.04788084176037"><ele>50.0</ele><time>2026-05-05T06:16:34Z</time></trkpt><trkpt lat="14.645527528599514" lon="121.0478646598536"><ele>50.0</ele><time>2026-05-05T06:16:48Z</time></trkpt><trkpt lat="14.645452827077328" lon="121.04784677421492"><ele>50.0</ele><time>2026-05-05T06:16:50Z</time></trkpt><trkpt lat="14.645365061957389" lon="121.04782568337505"><ele>50.0</ele><time>2026-05-05T06:16:53Z</time></trkpt><trkpt lat="14.64529187258733" lon="121.04780820530425"><ele>50.00000000000001</ele><time>2026-05-05T06:16:57Z</time></trkpt><trkpt lat="14.645224452501393" lon="121.047792402602"><ele>50.0</ele><time>2026-05-05T06:17:00Z</time></trkpt><trkpt lat="14.645142462112187" lon="121.04777318472674"><ele>50.4</ele><time>2026-05-05T06:17:03Z</time></trkpt><trkpt lat="14.645053187112666" lon="121.0477522594078"><ele>50.8</ele><time>2026-05-05T06:17:06Z</time></trkpt><trkpt lat="14.644975883906119" lon="121.04773441681589"><ele>51.2</ele><time>2026-05-05T06:17:08Z</time></trkpt><trkpt lat="14.644841743347254" lon="121.0477037420096"><ele>51.6</ele><time>2026-05-05T06:17:10Z</time></trkpt><trkpt lat="14.644754480293615" lon="121.04768397594825"><ele>52.0</ele><time>2026-05-05T06:17:11Z</time></trkpt><trkpt lat="14.644660371343049" lon="121.04766265920694"><ele>52.0</ele><time>2026-05-05T06:17:12Z</time></trkpt><trkpt lat="14.644558205874786" lon="121.04763951757596"><ele>52.0</ele><time>2026-05-05T06:17:13Z</time></trkpt><trkpt lat="14.644449730887214" lon="121.04761494676715"><ele>52.0</ele><time>2026-05-05T06:17:14Z</time></trkpt><trkpt lat="14.644338650665588" lon="121.04758978584147"><ele>52.0</ele><time>2026-05-05T06:17:15Z</time></trkpt><trkpt lat="14.644225221538932" lon="121.04756409286519"><ele>52.0</ele><time>2026-05-05T06:17:16Z</time></trkpt><trkpt lat="14.644110134562478" lon="121.04753896099423"><ele>52.5</ele><time>2026-05-05T06:17:17Z</time></trkpt><trkpt lat="14.64396787506802" lon="121.04750607883845"><ele>53.0</ele><time>2026-05-05T06:17:18Z</time></trkpt><trkpt lat="14.643840651157937" lon="121.0474771496548"><ele>53.5</ele><time>2026-05-05T06:17:19Z</time></trkpt><trkpt lat="14.643713174198394" lon="121.04744852407526"><ele>54.0</ele><time>2026-05-05T06:17:20Z</time></trkpt><trkpt lat="14.6435863645852" lon="121.04742004835377"><ele>54.0</ele><time>2026-05-05T06:17:21Z</time></trkpt><trkpt lat="14.643457731959698" lon="121.0473904731744"><ele>54.0</ele><time>2026-05-05T06:17:22Z</time></trkpt><trkpt lat="14.643328716552475" lon="121.04736090408417"><ele>54.0</ele><time>2026-05-05T06:17:23Z</time></trkpt><trkpt lat="14.643199152177063" lon="121.0473448509169"><ele>54.0</ele><time>2026-05-05T06:17:24Z</time></trkpt><trkpt lat="14.643071203045986" lon="121.0473098096011"><ele>54.0</ele><time>2026-05-05T06:17:25Z</time></trkpt><trkpt lat="14.64293685689053" lon="121.04727964326763"><ele>54.0</ele><time>2026-05-05T06:17:26Z</time></trkpt><trkpt lat="14.64280654940266" lon="121.04724853627033"><ele>54.0</ele><time>2026-05-05T06:17:27Z</time></trkpt><trkpt lat="14.642679197502803" lon="121.04721780497653"><ele>54.0</ele><time>2026-05-05T06:17:28Z</time></trkpt><trkpt lat="14.642565006335358" lon="121.04718599739383"><ele>53.0</ele><time>2026-05-05T06:17:29Z</time></trkpt><trkpt lat="14.642451960396185" lon="121.04715560403677"><ele>52.0</ele><time>2026-05-05T06:17:30Z</time></trkpt><trkpt lat="14.642336263529101" lon="121.047125789642"><ele>51.0</ele><time>2026-05-05T06:17:31Z</time></trkpt><trkpt lat="14.642224432917935" lon="121.0470936896297"><ele>50.0</ele><time>2026-05-05T06:17:32Z</time></trkpt><trkpt lat="14.642107272261072" lon="121.04706609884823"><ele>50.0</ele><time>2026-05-05T06:17:33Z</time></trkpt><trkpt lat="14.641984122714028" lon="121.04704606443339"><ele>50.0</ele><time>2026-05-05T06:17:34Z</time></trkpt><trkpt lat="14.641862273515471" lon="121.04702797626251"><ele>50.0</ele><time>2026-05-05T06:17:35Z</time></trkpt><trkpt lat="14.641748994719789" lon="121.04700346440445"><ele>50.0</ele><time>2026-05-05T06:17:36Z</time></trkpt><trkpt lat="14.641637921521948" lon="121.04697612872467"><ele>49.833333333333336</ele><time>2026-05-05T06:17:37Z</time></trkpt><trkpt lat="14.641551049389886" lon="121.04695295245864"><ele>49.66666666666667</ele><time>2026-05-05T06:17:38Z</time></trkpt><trkpt lat="14.641485505175531" lon="121.04693679195778"><ele>49.5</ele><time>2026-05-05T06:17:39Z</time></trkpt><trkpt lat="14.641404290813233" lon="121.0469138830903"><ele>49.33333333333333</ele><time>2026-05-05T06:17:41Z</time></trkpt><trkpt lat="14.641340845893177" lon="121.0468956137152"><ele>49.166666666666664</ele><time>2026-05-05T06:19:03Z</time></trkpt><trkpt lat="14.641247080725721" lon="121.04685665879293"><ele>49.0</ele><time>2026-05-05T06:19:05Z</time></trkpt><trkpt lat="14.641126151726287" lon="121.04686674893661"><ele>49.0</ele><time>2026-05-05T06:19:07Z</time></trkpt><trkpt lat="14.641042892675838" lon="121.0468502442068"><ele>49.0</ele><time>2026-05-05T06:19:08Z</time></trkpt><trkpt lat="14.640951868638805" lon="121.04682994820206"><ele>49.0</ele><time>2026-05-05T06:19:09Z</time></trkpt><trkpt lat="14.640855187665549" lon="121.04680733522973"><ele>49.0</ele><time>2026-05-05T06:19:10Z</time></trkpt><trkpt lat="14.640756774045933" lon="121.04678431218366"><ele>49.0</ele><time>2026-05-05T06:19:11Z</time></trkpt><trkpt lat="14.640668924657712" lon="121.0467668262792"><ele>48.99999999999999</ele><time>2026-05-05T06:19:12Z</time></trkpt><trkpt lat="14.640599524944736" lon="121.0467426869866"><ele>49.0</ele><time>2026-05-05T06:19:13Z</time></trkpt><trkpt lat="14.640516510190885" lon="121.04671062061227"><ele>49.0</ele><time>2026-05-05T06:19:15Z</time></trkpt><trkpt lat="14.640445487367819" lon="121.04668673959144"><ele>49.0</ele><time>2026-05-05T06:19:17Z</time></trkpt><trkpt lat="14.640369960277273" lon="121.04668589676261"><ele>48.99999999999999</ele><time>2026-05-05T06:19:33Z</time></trkpt><trkpt lat="14.640267625843338" lon="121.04666705711097"><ele>49.0</ele><time>2026-05-05T06:19:35Z</time></trkpt><trkpt lat="14.640171937865963" lon="121.04663575334193"><ele>48.25</ele><time>2026-05-05T06:19:37Z</time></trkpt><trkpt lat="14.640061177085425" lon="121.04660795057306"><ele>47.5</ele><time>2026-05-05T06:19:39Z</time></trkpt><trkpt lat="14.639961023969619" lon="121.0465745511615"><ele>46.75</ele><time>2026-05-05T06:19:41Z</time></trkpt><trkpt lat="14.639854422522362" lon="121.04655169976947"><ele>46.0</ele><time>2026-05-05T06:19:43Z</time></trkpt><trkpt lat="14.639735439696222" lon="121.04652379296772"><ele>46.0</ele><time>2026-05-05T06:19:45Z</time></trkpt><trkpt lat="14.639632780982813" lon="121.04650497301104"><ele>46.0</ele><time>2026-05-05T06:19:47Z</time></trkpt><trkpt lat="14.639535365566466" lon="121.04648534601513"><ele>46.0</ele><time>2026-05-05T06:19:49Z</time></trkpt><trkpt lat="14.639448188574436" lon="121.04647165224972"><ele>46.0</ele><time>2026-05-05T06:19:51Z</time></trkpt><trkpt lat="14.63937955353214" lon="121.04645603933179"><ele>46.0</ele><time>2026-05-05T06:19:53Z</time></trkpt><trkpt lat="14.639295005715171" lon="121.04643384778323"><ele>46.0</ele><time>2026-05-05T06:19:56Z</time></trkpt><trkpt lat="14.639221028249098" lon="121.04641656600688"><ele>46.142857142857146</ele><time>2026-05-05T06:20:01Z</time></trkpt><trkpt lat="14.63915568410523" lon="121.04639858223672"><ele>46.285714285714285</ele><time>2026-05-05T06:20:04Z</time></trkpt><trkpt lat="14.639083952092374" lon="121.04638253861933"><ele>46.42857142857143</ele><time>2026-05-05T06:20:07Z</time></trkpt><trkpt lat="14.639020154405024" lon="121.04636923103226"><ele>46.57142857142857</ele><time>2026-05-05T06:20:09Z</time></trkpt><trkpt lat="14.63895065968626" lon="121.04635816942988"><ele>46.71428571428571</ele><time>2026-05-05T06:20:11Z</time></trkpt><trkpt lat="14.638882041939567" lon="121.04633484705161"><ele>46.857142857142854</ele><time>2026-05-05T06:20:16Z</time></trkpt><trkpt lat="14.638811590530755" lon="121.04631669773072"><ele>47.0</ele><time>2026-05-05T06:20:22.001Z</time></trkpt><trkpt lat="14.638739999552863" lon="121.0463027207631"><ele>47.0</ele><time>2026-05-05T06:20:25.001Z</time></trkpt><trkpt lat="14.638669282787562" lon="121.04628436615295"><ele>47.0</ele><time>2026-05-05T06:20:28Z</time></trkpt><trkpt lat="14.638600477895224" lon="121.04626377708888"><ele>47.0</ele><time>2026-05-05T06:20:31Z</time></trkpt><trkpt lat="14.638538400462878" lon="121.0462490042316"><ele>47.0</ele><time>2026-05-05T06:20:41Z</time></trkpt><trkpt lat="14.638464815321708" lon="121.04623346289029"><ele>47.0</ele><time>2026-05-05T06:21:08Z</time></trkpt><trkpt lat="14.63839513346312" lon="121.04622736885793"><ele>47.0</ele><time>2026-05-05T06:21:27Z</time></trkpt><trkpt lat="14.638320820207328" lon="121.04620739325505"><ele>47.0</ele><time>2026-05-05T06:21:29Z</time></trkpt><trkpt lat="14.638240807818743" lon="121.04617613752721"><ele>47.400000000000006</ele><time>2026-05-05T06:21:31Z</time></trkpt><trkpt lat="14.638165220328238" lon="121.04614531105678"><ele>47.800000000000004</ele><time>2026-05-05T06:21:33Z</time></trkpt><trkpt lat="14.638013686332275" lon="121.04611360735636"><ele>48.2</ele><time>2026-05-05T06:21:35Z</time></trkpt><trkpt lat="14.637929330287344" lon="121.04610153987095"><ele>48.6</ele><time>2026-05-05T06:21:36Z</time></trkpt><trkpt lat="14.637821730493664" lon="121.04608595416293"><ele>49.0</ele><time>2026-05-05T06:21:37Z</time></trkpt><trkpt lat="14.63769508720154" lon="121.04606826945634"><ele>49.0</ele><time>2026-05-05T06:21:38Z</time></trkpt><trkpt lat="14.637581403824614" lon="121.04604755501312"><ele>49.0</ele><time>2026-05-05T06:21:39Z</time></trkpt><trkpt lat="14.63747743243579" lon="121.04602293866967"><ele>49.0</ele><time>2026-05-05T06:21:40Z</time></trkpt><trkpt lat="14.637377447543113" lon="121.04600210552134"><ele>49.0</ele><time>2026-05-05T06:21:41Z</time></trkpt><trkpt lat="14.637282011505507" lon="121.04598445993419"><ele>49.0</ele><time>2026-05-05T06:21:42Z</time></trkpt><trkpt lat="14.637194993190692" lon="121.04596368182327"><ele>48.99999999999999</ele><time>2026-05-05T06:21:43Z</time></trkpt><trkpt lat="14.63709939165607" lon="121.045941401249"><ele>49.0</ele><time>2026-05-05T06:21:44Z</time></trkpt><trkpt lat="14.637029913828789" lon="121.04592882992995"><ele>49.0</ele><time>2026-05-05T06:21:45Z</time></trkpt><trkpt lat="14.636955992259992" lon="121.04591142214568"><ele>49.0</ele><time>2026-05-05T06:21:46Z</time></trkpt><trkpt lat="14.636891571157511" lon="121.04589449279997"><ele>48.99999999999999</ele><time>2026-05-05T06:21:47Z</time></trkpt><trkpt lat="14.636819773848528" lon="121.04587162331143"><ele>49.0</ele><time>2026-05-05T06:21:48Z</time></trkpt><trkpt lat="14.63674268376617" lon="121.04584534380713"><ele>49.2</ele><time>2026-05-05T06:21:49Z</time></trkpt><trkpt lat="14.636619611515206" lon="121.04582010758465"><ele>49.400000000000006</ele><time>2026-05-05T06:21:51Z</time></trkpt><trkpt lat="14.636544927494459" lon="121.04580261326329"><ele>49.6</ele><time>2026-05-05T06:21:52Z</time></trkpt><trkpt lat="14.636467054710085" lon="121.04578437046702"><ele>49.8</ele><time>2026-05-05T06:21:53Z</time></trkpt><trkpt lat="14.636384751020355" lon="121.04576494924645"><ele>50.0</ele><time>2026-05-05T06:21:54Z</time></trkpt><trkpt lat="14.636296411978075" lon="121.04574410390387"><ele>49.6</ele><time>2026-05-05T06:21:55Z</time></trkpt><trkpt lat="14.636203760291773" lon="121.04572266947129"><ele>49.2</ele><time>2026-05-05T06:21:56Z</time></trkpt><trkpt lat="14.636107230965472" lon="121.04570024718525"><ele>48.8</ele><time>2026-05-05T06:21:57Z</time></trkpt><trkpt lat="14.636010609223117" lon="121.04567780343355"><ele>48.4</ele><time>2026-05-05T06:21:58Z</time></trkpt><trkpt lat="14.635927710680134" lon="121.04565854737127"><ele>48.0</ele><time>2026-05-05T06:21:59Z</time></trkpt><trkpt lat="14.635842923730829" lon="121.04563885265797"><ele>47.599999999999994</ele><time>2026-05-05T06:22:00Z</time></trkpt><trkpt lat="14.63575482014022" lon="121.04561838753985"><ele>47.199999999999996</ele><time>2026-05-05T06:22:01Z</time></trkpt><trkpt lat="14.635660938324179" lon="121.04559688652436"><ele>46.8</ele><time>2026-05-05T06:22:02Z</time></trkpt><trkpt lat="14.635561609631129" lon="121.0455748302628"><ele>46.4</ele><time>2026-05-05T06:22:03Z</time></trkpt><trkpt lat="14.635459606256942" lon="121.04555099758792"><ele>46.0</ele><time>2026-05-05T06:22:04Z</time></trkpt><trkpt lat="14.635353336221161" lon="121.04552706124578"><ele>46.16666666666667</ele><time>2026-05-05T06:22:05Z</time></trkpt><trkpt lat="14.635255617345686" lon="121.04550505097099"><ele>46.333333333333336</ele><time>2026-05-05T06:22:06Z</time></trkpt><trkpt lat="14.635167592446995" lon="121.04548522416705"><ele>46.5</ele><time>2026-05-05T06:22:07Z</time></trkpt><trkpt lat="14.635075013209102" lon="121.04547298887263"><ele>46.666666666666664</ele><time>2026-05-05T06:22:08Z</time></trkpt><trkpt lat="14.634994686940345" lon="121.0454470732549"><ele>46.83333333333333</ele><time>2026-05-05T06:22:09Z</time></trkpt><trkpt lat="14.63492724351416" lon="121.04542563132546"><ele>47.0</ele><time>2026-05-05T06:22:10Z</time></trkpt><trkpt lat="14.634859190491738" lon="121.04540700392774"><ele>47.0</ele><time>2026-05-05T06:22:11Z</time></trkpt><trkpt lat="14.634753196307397" lon="121.0453814666537"><ele>47.0</ele><time>2026-05-05T06:22:13Z</time></trkpt><trkpt lat="14.634667517713462" lon="121.04535225147704"><ele>47.0</ele><time>2026-05-05T06:22:15Z</time></trkpt><trkpt lat="14.634577592611329" lon="121.04532488290342"><ele>47.0</ele><time>2026-05-05T06:22:17Z</time></trkpt><trkpt lat="14.634484129707715" lon="121.04531215698422"><ele>47.0</ele><time>2026-05-05T06:22:19Z</time></trkpt><trkpt lat="14.634394347385307" lon="121.04529360264172"><ele>46.6</ele><time>2026-05-05T06:22:21Z</time></trkpt><trkpt lat="14.634327220455912" lon="121.04527958679449"><ele>46.2</ele><time>2026-05-05T06:22:22Z</time></trkpt><trkpt lat="14.634209185432312" lon="121.04525519701856"><ele>45.8</ele><time>2026-05-05T06:22:24Z</time></trkpt><trkpt lat="14.634143423109974" lon="121.04524078056082"><ele>45.4</ele><time>2026-05-05T06:22:25Z</time></trkpt><trkpt lat="14.634026978827938" lon="121.04521951193634"><ele>45.0</ele><time>2026-05-05T06:22:27Z</time></trkpt><trkpt lat="14.633943229439005" lon="121.04520039234234"><ele>45.0</ele><time>2026-05-05T06:22:29Z</time></trkpt><trkpt lat="14.6338743346661" lon="121.04517824839282"><ele>45.0</ele><time>2026-05-05T06:22:31Z</time></trkpt><trkpt lat="14.633776283466156" lon="121.04514939264217"><ele>45.0</ele><time>2026-05-05T06:22:32.999Z</time></trkpt><trkpt lat="14.633652007747344" lon="121.04511871833846"><ele>45.0</ele><time>2026-05-05T06:22:34.999Z</time></trkpt><trkpt lat="14.633582231449736" lon="121.04509820998872"><ele>45.0</ele><time>2026-05-05T06:22:35.999Z</time></trkpt><trkpt lat="14.633522297825815" lon="121.04507766143006"><ele>45.0</ele><time>2026-05-05T06:22:36.999Z</time></trkpt><trkpt lat="14.633439831178858" lon="121.04502911614108"><ele>45.0</ele><time>2026-05-05T06:22:38.999Z</time></trkpt><trkpt lat="14.633360457662427" lon="121.04500372121048"><ele>45.0</ele><time>2026-05-05T06:23:58Z</time></trkpt><trkpt lat="14.633292527123961" lon="121.04496262736383"><ele>45.0</ele><time>2026-05-05T06:24:00Z</time></trkpt><trkpt lat="14.633236016429676" lon="121.04492212524266"><ele>45.0</ele><time>2026-05-05T06:24:02Z</time></trkpt><trkpt lat="14.633166025989963" lon="121.0448811543492"><ele>45.0</ele><time>2026-05-05T06:24:04Z</time></trkpt><trkpt lat="14.633077638072738" lon="121.04485155363696"><ele>45.0</ele><time>2026-05-05T06:24:06Z</time></trkpt><trkpt lat="14.632962826406482" lon="121.0446212449332"><ele>45.5</ele><time>2026-05-05T06:24:08Z</time></trkpt><trkpt lat="14.632863324366735" lon="121.04465611149499"><ele>46.0</ele><time>2026-05-05T06:24:09Z</time></trkpt><trkpt lat="14.632796574448985" lon="121.04466885312827"><ele>46.5</ele><time>2026-05-05T06:24:10Z</time></trkpt><trkpt lat="14.632749728449262" lon="121.04486352064929"><ele>47.0</ele><time>2026-05-05T06:24:11Z</time></trkpt><trkpt lat="14.63266637297634" lon="121.04491095119455"><ele>47.0</ele><time>2026-05-05T06:24:12Z</time></trkpt><trkpt lat="14.632571756319011" lon="121.04496257743996"><ele>47.0</ele><time>2026-05-05T06:24:13Z</time></trkpt><trkpt lat="14.632475208020308" lon="121.04500984118688"><ele>47.0</ele><time>2026-05-05T06:24:14Z</time></trkpt><trkpt lat="14.632362667394931" lon="121.04506883024035"><ele>47.0</ele><time>2026-05-05T06:24:15Z</time></trkpt><trkpt lat="14.632247679219265" lon="121.04512974490744"><ele>46.5</ele><time>2026-05-05T06:24:16Z</time></trkpt><trkpt lat="14.63213307773955" lon="121.04519364475675"><ele>46.0</ele><time>2026-05-05T06:24:17Z</time></trkpt><trkpt lat="14.632019304533467" lon="121.0452447014262"><ele>45.5</ele><time>2026-05-05T06:24:18Z</time></trkpt><trkpt lat="14.631909384310475" lon="121.04528578968052"><ele>45.0</ele><time>2026-05-05T06:24:19Z</time></trkpt><trkpt lat="14.631791659975297" lon="121.04534149704922"><ele>44.0</ele><time>2026-05-05T06:24:20Z</time></trkpt><trkpt lat="14.631672415192453" lon="121.04539831504829"><ele>43.0</ele><time>2026-05-05T06:24:21Z</time></trkpt><trkpt lat="14.631565143441795" lon="121.04544399388334"><ele>42.0</ele><time>2026-05-05T06:24:22Z</time></trkpt><trkpt lat="14.631444687871051" lon="121.04549293744657"><ele>41.0</ele><time>2026-05-05T06:24:23Z</time></trkpt><trkpt lat="14.631323312660426" lon="121.04553878488764"><ele>41.0</ele><time>2026-05-05T06:24:24Z</time></trkpt><trkpt lat="14.631185747574333" lon="121.04561189720822"><ele>41.0</ele><time>2026-05-05T06:24:25Z</time></trkpt><trkpt lat="14.63105578253969" lon="121.04567778425378"><ele>41.0</ele><time>2026-05-05T06:24:26Z</time></trkpt><trkpt lat="14.63094204603178" lon="121.04574022122631"><ele>41.0</ele><time>2026-05-05T06:24:27Z</time></trkpt><trkpt lat="14.630840265120934" lon="121.0457795287278"><ele>41.0</ele><time>2026-05-05T06:24:28Z</time></trkpt><trkpt lat="14.630752301539506" lon="121.04581122408764"><ele>41.0</ele><time>2026-05-05T06:24:29Z</time></trkpt><trkpt lat="14.630670607972666" lon="121.04583530706022"><ele>41.0</ele><time>2026-05-05T06:24:30Z</time></trkpt><trkpt lat="14.63059133316896" lon="121.04584488444516"><ele>41.0</ele><time>2026-05-05T06:24:31Z</time></trkpt><trkpt lat="14.630517361562234" lon="121.04585888298524"><ele>41.0</ele><time>2026-05-05T06:24:32Z</time></trkpt><trkpt lat="14.6304539882832" lon="121.04587836777218"><ele>41.0</ele><time>2026-05-05T06:24:33Z</time></trkpt><trkpt lat="14.630373238371899" lon="121.04591511345836"><ele>41.285714285714285</ele><time>2026-05-05T06:24:34Z</time></trkpt><trkpt lat="14.63030284444648" lon="121.04594007591383"><ele>41.57142857142857</ele><time>2026-05-05T06:24:35Z</time></trkpt><trkpt lat="14.630223191785122" lon="121.04596690204067"><ele>41.85714285714286</ele><time>2026-05-05T06:24:36Z</time></trkpt><trkpt lat="14.63015081593457" lon="121.04598869350656"><ele>42.14285714285714</ele><time>2026-05-05T06:24:37Z</time></trkpt><trkpt lat="14.630082948909376" lon="121.0460101019275"><ele>42.42857142857143</ele><time>2026-05-05T06:24:38Z</time></trkpt><trkpt lat="14.630018440419967" lon="121.04603384733772"><ele>42.714285714285715</ele><time>2026-05-05T06:24:38.999Z</time></trkpt><trkpt lat="14.629957995022508" lon="121.04605786648041"><ele>43.0</ele><time>2026-05-05T06:24:39.999Z</time></trkpt><trkpt lat="14.629893605062392" lon="121.04608308298491"><ele>43.0</ele><time>2026-05-05T06:24:40.999Z</time></trkpt><trkpt lat="14.629828262146368" lon="121.04611037360952"><ele>43.0</ele><time>2026-05-05T06:24:41.999Z</time></trkpt><trkpt lat="14.629765318537238" lon="121.0461362326555"><ele>43.0</ele><time>2026-05-05T06:24:42.999Z</time></trkpt><trkpt lat="14.629706979944963" lon="121.04616515079384"><ele>43.0</ele><time>2026-05-05T06:24:43.999Z</time></trkpt><trkpt lat="14.629642828228548" lon="121.0461918942378"><ele>43.0</ele><time>2026-05-05T06:24:44.999Z</time></trkpt><trkpt lat="14.62957834361627" lon="121.04621754087557"><ele>43.0</ele><time>2026-05-05T06:24:45.999Z</time></trkpt><trkpt lat="14.629471560430135" lon="121.04626251977689"><ele>42.199999999999996</ele><time>2026-05-05T06:24:47.999Z</time></trkpt><trkpt lat="14.629366003283458" lon="121.04631254595483"><ele>41.4</ele><time>2026-05-05T06:24:49.999Z</time></trkpt><trkpt lat="14.62924913433962" lon="121.04636977049931"><ele>40.599999999999994</ele><time>2026-05-05T06:24:51.999Z</time></trkpt><trkpt lat="14.629189288364344" lon="121.04639719967857"><ele>39.8</ele><time>2026-05-05T06:24:52.999Z</time></trkpt><trkpt lat="14.629127629256109" lon="121.04642549013232"><ele>39.0</ele><time>2026-05-05T06:24:53.999Z</time></trkpt><trkpt lat="14.629024482294161" lon="121.04647672987828"><ele>39.0</ele><time>2026-05-05T06:24:55.999Z</time></trkpt><trkpt lat="14.628920768365525" lon="121.04653066621111"><ele>39.0</ele><time>2026-05-05T06:24:57.999Z</time></trkpt><trkpt lat="14.628831631405202" lon="121.0465801243448"><ele>39.0</ele><time>2026-05-05T06:24:59.999Z</time></trkpt><trkpt lat="14.628776474929095" lon="121.04661386661869"><ele>39.0</ele><time>2026-05-05T06:25:00.999Z</time></trkpt><trkpt lat="14.62872016716392" lon="121.04664867045483"><ele>39.0</ele><time>2026-05-05T06:25:01.999Z</time></trkpt><trkpt lat="14.628660536533921" lon="121.04667919006597"><ele>39.0</ele><time>2026-05-05T06:25:02.999Z</time></trkpt><trkpt lat="14.628557567518191" lon="121.04673065020661"><ele>39.333333333333336</ele><time>2026-05-05T06:25:04.999Z</time></trkpt><trkpt lat="14.628472293405535" lon="121.04677557479981"><ele>39.666666666666664</ele><time>2026-05-05T06:25:06.999Z</time></trkpt><trkpt lat="14.628407076123178" lon="121.04680911437927"><ele>40.0</ele><time>2026-05-05T06:25:07.999Z</time></trkpt><trkpt lat="14.628345139860794" lon="121.04683362988087"><ele>40.33333333333333</ele><time>2026-05-05T06:25:09Z</time></trkpt><trkpt lat="14.628275052426" lon="121.04686722230042"><ele>40.666666666666664</ele><time>2026-05-05T06:25:10Z</time></trkpt><trkpt lat="14.628200244410806" lon="121.04690661336018"><ele>41.0</ele><time>2026-05-05T06:25:11Z</time></trkpt><trkpt lat="14.628137277603917" lon="121.04692715386622"><ele>41.0</ele><time>2026-05-05T06:25:12Z</time></trkpt><trkpt lat="14.628047067706344" lon="121.04696855782173"><ele>41.0</ele><time>2026-05-05T06:25:13Z</time></trkpt><trkpt lat="14.627967514900089" lon="121.04700218000197"><ele>41.0</ele><time>2026-05-05T06:25:14Z</time></trkpt><trkpt lat="14.627884839526848" lon="121.04704303092048"><ele>41.0</ele><time>2026-05-05T06:25:15Z</time></trkpt><trkpt lat="14.627808100979424" lon="121.04706717283105"><ele>41.0</ele><time>2026-05-05T06:25:16Z</time></trkpt><trkpt lat="14.627721355928427" lon="121.04709798754493"><ele>41.0</ele><time>2026-05-05T06:25:17Z</time></trkpt><trkpt lat="14.627636133234036" lon="121.04713459300461"><ele>42.25</ele><time>2026-05-05T06:25:18Z</time></trkpt><trkpt lat="14.62754343499848" lon="121.04718919518166"><ele>43.5</ele><time>2026-05-05T06:25:19Z</time></trkpt><trkpt lat="14.62744969633893" lon="121.04724912738476"><ele>44.75</ele><time>2026-05-05T06:25:20Z</time></trkpt><trkpt lat="14.627338401094956" lon="121.04729341474679"><ele>46.0</ele><time>2026-05-05T06:25:21Z</time></trkpt><trkpt lat="14.627219146824663" lon="121.04735940700171"><ele>46.0</ele><time>2026-05-05T06:25:23Z</time></trkpt><trkpt lat="14.62712379447964" lon="121.04740764058549"><ele>46.0</ele><time>2026-05-05T06:25:24Z</time></trkpt><trkpt lat="14.627039819589282" lon="121.04745030454328"><ele>46.0</ele><time>2026-05-05T06:25:25Z</time></trkpt><trkpt lat="14.626956395182473" lon="121.04749200043776"><ele>46.0</ele><time>2026-05-05T06:25:26Z</time></trkpt><trkpt lat="14.626871560031514" lon="121.04752693928646"><ele>46.0</ele><time>2026-05-05T06:25:27Z</time></trkpt><trkpt lat="14.626776281677769" lon="121.04757371449733"><ele>45.8</ele><time>2026-05-05T06:25:28Z</time></trkpt><trkpt lat="14.626679758673886" lon="121.04762370743695"><ele>45.599999999999994</ele><time>2026-05-05T06:25:29Z</time></trkpt><trkpt lat="14.62658271261411" lon="121.04766866105152"><ele>45.4</ele><time>2026-05-05T06:25:30Z</time></trkpt><trkpt lat="14.626486840466152" lon="121.04771219436323"><ele>45.2</ele><time>2026-05-05T06:25:31Z</time></trkpt><trkpt lat="14.626391611938296" lon="121.04775507616263"><ele>45.0</ele><time>2026-05-05T06:25:32Z</time></trkpt><trkpt lat="14.62630381606448" lon="121.04778829750309"><ele>45.0</ele><time>2026-05-05T06:25:33Z</time></trkpt><trkpt lat="14.626212378474127" lon="121.04783185583314"><ele>45.0</ele><time>2026-05-05T06:25:34Z</time></trkpt><trkpt lat="14.626128959742786" lon="121.0478722460998"><ele>45.0</ele><time>2026-05-05T06:25:35Z</time></trkpt><trkpt lat="14.626027039035732" lon="121.04792545458925"><ele>45.0</ele><time>2026-05-05T06:25:36Z</time></trkpt><trkpt lat="14.625936012258531" lon="121.04796479662426"><ele>45.0</ele><time>2026-05-05T06:25:37Z</time></trkpt><trkpt lat="14.625846103184324" lon="121.04799648639883"><ele>45.333333333333336</ele><time>2026-05-05T06:25:38Z</time></trkpt><trkpt lat="14.625756883860115" lon="121.04804523274717"><ele>45.666666666666664</ele><time>2026-05-05T06:25:39Z</time></trkpt><trkpt lat="14.62568757350672" lon="121.04807093689014"><ele>46.0</ele><time>2026-05-05T06:25:40Z</time></trkpt><trkpt lat="14.625606884351512" lon="121.0481129178966"><ele>46.33333333333333</ele><time>2026-05-05T06:25:41Z</time></trkpt><trkpt lat="14.625525249745788" lon="121.0481524045969"><ele>46.666666666666664</ele><time>2026-05-05T06:25:42Z</time></trkpt><trkpt lat="14.625444138366905" lon="121.0481900105579"><ele>47.0</ele><time>2026-05-05T06:25:43Z</time></trkpt><trkpt lat="14.625372254884113" lon="121.04822142846281"><ele>46.83333333333333</ele><time>2026-05-05T06:25:44Z</time></trkpt><trkpt lat="14.625294331539072" lon="121.04826017510604"><ele>46.666666666666664</ele><time>2026-05-05T06:25:45Z</time></trkpt><trkpt lat="14.625216503982294" lon="121.04829557767377"><ele>46.5</ele><time>2026-05-05T06:25:46Z</time></trkpt><trkpt lat="14.625147991340917" lon="121.04832554169981"><ele>46.333333333333336</ele><time>2026-05-05T06:25:47Z</time></trkpt><trkpt lat="14.625062511870405" lon="121.04836250283675"><ele>46.16666666666667</ele><time>2026-05-05T06:25:48Z</time></trkpt><trkpt lat="14.624991935602887" lon="121.04839408077842"><ele>46.0</ele><time>2026-05-05T06:25:49Z</time></trkpt><trkpt lat="14.624910899393878" lon="121.04842983854444"><ele>46.0</ele><time>2026-05-05T06:25:50Z</time></trkpt><trkpt lat="14.624837889263972" lon="121.04845965475907"><ele>46.0</ele><time>2026-05-05T06:25:51Z</time></trkpt><trkpt lat="14.62474758736022" lon="121.04850093495601"><ele>46.0</ele><time>2026-05-05T06:25:52Z</time></trkpt><trkpt lat="14.624660825979124" lon="121.04854405019223"><ele>46.0</ele><time>2026-05-05T06:25:53Z</time></trkpt><trkpt lat="14.624572285588426" lon="121.04858545788925"><ele>46.0</ele><time>2026-05-05T06:25:54Z</time></trkpt><trkpt lat="14.6244738225278" lon="121.04863705682901"><ele>45.833333333333336</ele><time>2026-05-05T06:25:55Z</time></trkpt><trkpt lat="14.624380370649703" lon="121.04868428102901"><ele>45.66666666666667</ele><time>2026-05-05T06:25:56Z</time></trkpt><trkpt lat="14.624301827608607" lon="121.04872545010741"><ele>45.5</ele><time>2026-05-05T06:25:57Z</time></trkpt><trkpt lat="14.624232756532749" lon="121.04875102563267"><ele>45.333333333333336</ele><time>2026-05-05T06:25:58Z</time></trkpt><trkpt lat="14.62416005640235" lon="121.04879230569796"><ele>45.166666666666664</ele><time>2026-05-05T06:25:59Z</time></trkpt><trkpt lat="14.624097721559188" lon="121.04882032558633"><ele>45.0</ele><time>2026-05-05T06:26:00Z</time></trkpt><trkpt lat="14.624035638653014" lon="121.04883996159597"><ele>45.0</ele><time>2026-05-05T06:26:01Z</time></trkpt><trkpt lat="14.623971568986834" lon="121.04887158736524"><ele>45.0</ele><time>2026-05-05T06:26:02Z</time></trkpt><trkpt lat="14.623883787632407" lon="121.04892978013372"><ele>45.0</ele><time>2026-05-05T06:26:04Z</time></trkpt><trkpt lat="14.623829795654144" lon="121.04896401725098"><ele>45.0</ele><time>2026-05-05T06:26:05Z</time></trkpt><trkpt lat="14.623735686941023" lon="121.0490191096732"><ele>45.0</ele><time>2026-05-05T06:26:07Z</time></trkpt><trkpt lat="14.623611300429264" lon="121.04908259738889"><ele>45.166666666666664</ele><time>2026-05-05T06:26:09Z</time></trkpt><trkpt lat="14.623530219410872" lon="121.04911849529287"><ele>45.333333333333336</ele><time>2026-05-05T06:26:10Z</time></trkpt><trkpt lat="14.62345327400085" lon="121.04915712881949"><ele>45.5</ele><time>2026-05-05T06:26:11Z</time></trkpt><trkpt lat="14.62338414034862" lon="121.04918617817029"><ele>45.66666666666667</ele><time>2026-05-05T06:26:12Z</time></trkpt><trkpt lat="14.62330335303312" lon="121.04922099696847"><ele>45.833333333333336</ele><time>2026-05-05T06:26:13Z</time></trkpt><trkpt lat="14.623227341646128" lon="121.049254097"><ele>46.0</ele><time>2026-05-05T06:26:14Z</time></trkpt><trkpt lat="14.62315824225879" lon="121.04928655137999"><ele>46.16666666666667</ele><time>2026-05-05T06:26:15Z</time></trkpt><trkpt lat="14.623089057527855" lon="121.04931897823742"><ele>46.333333333333336</ele><time>2026-05-05T06:26:16Z</time></trkpt><trkpt lat="14.623026624545826" lon="121.04934655024284"><ele>46.5</ele><time>2026-05-05T06:26:17Z</time></trkpt><trkpt lat="14.622961904799622" lon="121.04937719655557"><ele>46.666666666666664</ele><time>2026-05-05T06:26:18Z</time></trkpt><trkpt lat="14.622845181817766" lon="121.04943241159425"><ele>46.83333333333333</ele><time>2026-05-05T06:26:20Z</time></trkpt><trkpt lat="14.6227792430592" lon="121.04946141320782"><ele>47.0</ele><time>2026-05-05T06:26:21Z</time></trkpt><trkpt lat="14.622708689918799" lon="121.04949405828457"><ele>47.0</ele><time>2026-05-05T06:26:22Z</time></trkpt><trkpt lat="14.622641311279297" lon="121.04952208548643"><ele>47.0</ele><time>2026-05-05T06:26:23Z</time></trkpt><trkpt lat="14.622561678989632" lon="121.0495630095493"><ele>47.0</ele><time>2026-05-05T06:26:24Z</time></trkpt><trkpt lat="14.622486324283921" lon="121.0495941275492"><ele>47.0</ele><time>2026-05-05T06:26:25Z</time></trkpt><trkpt lat="14.62241526171284" lon="121.04962735981783"><ele>47.0</ele><time>2026-05-05T06:26:26Z</time></trkpt><trkpt lat="14.622329622766587" lon="121.04967956284231"><ele>47.0</ele><time>2026-05-05T06:26:27Z</time></trkpt><trkpt lat="14.622249172674582" lon="121.04970818269831"><ele>47.0</ele><time>2026-05-05T06:26:28Z</time></trkpt><trkpt lat="14.622152258509958" lon="121.04974881436263"><ele>47.0</ele><time>2026-05-05T06:26:29Z</time></trkpt><trkpt lat="14.62206563634655" lon="121.04979362042477"><ele>47.0</ele><time>2026-05-05T06:26:30Z</time></trkpt><trkpt lat="14.62196841713415" lon="121.04983994501166"><ele>47.0</ele><time>2026-05-05T06:26:31Z</time></trkpt><trkpt lat="14.621881263791654" lon="121.04988410417994"><ele>47.0</ele><time>2026-05-05T06:26:32Z</time></trkpt><trkpt lat="14.621798027639171" lon="121.04992334230575"><ele>47.2</ele><time>2026-05-05T06:26:33Z</time></trkpt><trkpt lat="14.621716142113895" lon="121.04996601166184"><ele>47.400000000000006</ele><time>2026-05-05T06:26:34Z</time></trkpt><trkpt lat="14.621627376249027" lon="121.05000492438546"><ele>47.599999999999994</ele><time>2026-05-05T06:26:35Z</time></trkpt><trkpt lat="14.621529337056185" lon="121.05005545138756"><ele>47.8</ele><time>2026-05-05T06:26:36Z</time></trkpt><trkpt lat="14.6214306793029" lon="121.05010222925186"><ele>48.0</ele><time>2026-05-05T06:26:37Z</time></trkpt><trkpt lat="14.621323806975953" lon="121.05014762169776"><ele>48.0</ele><time>2026-05-05T06:26:38Z</time></trkpt><trkpt lat="14.621261890546725" lon="121.05018546866089"><ele>48.0</ele><time>2026-05-05T06:26:39Z</time></trkpt><trkpt lat="14.621120433224844" lon="121.05022905869527"><ele>48.0</ele><time>2026-05-05T06:26:40Z</time></trkpt><trkpt lat="14.62100883498459" lon="121.05027352776297"><ele>48.0</ele><time>2026-05-05T06:26:41Z</time></trkpt><trkpt lat="14.620904454652438" lon="121.05031690264667"><ele>47.599999999999994</ele><time>2026-05-05T06:26:42Z</time></trkpt><trkpt lat="14.620811803751293" lon="121.050371227617"><ele>47.199999999999996</ele><time>2026-05-05T06:26:43Z</time></trkpt><trkpt lat="14.6207147937454" lon="121.05041789609477"><ele>46.8</ele><time>2026-05-05T06:26:44Z</time></trkpt><trkpt lat="14.620609579713523" lon="121.05046627712981"><ele>46.4</ele><time>2026-05-05T06:26:44.999Z</time></trkpt><trkpt lat="14.620503259357866" lon="121.05051241721809"><ele>46.0</ele><time>2026-05-05T06:26:45.999Z</time></trkpt><trkpt lat="14.620411821713382" lon="121.05055982728273"><ele>46.0</ele><time>2026-05-05T06:26:46.999Z</time></trkpt><trkpt lat="14.62032710952024" lon="121.05059480739514"><ele>46.0</ele><time>2026-05-05T06:26:47.999Z</time></trkpt><trkpt lat="14.620249318609268" lon="121.0506298687372"><ele>46.0</ele><time>2026-05-05T06:26:48.999Z</time></trkpt><trkpt lat="14.620181115298317" lon="121.05065941556185"><ele>46.0</ele><time>2026-05-05T06:26:49.999Z</time></trkpt><trkpt lat="14.62011400016994" lon="121.0506920504129"><ele>46.0</ele><time>2026-05-05T06:26:50.999Z</time></trkpt><trkpt lat="14.62005007434345" lon="121.0507157864695"><ele>46.0</ele><time>2026-05-05T06:26:51.999Z</time></trkpt><trkpt lat="14.61998071830751" lon="121.05075001530278"><ele>46.0</ele><time>2026-05-05T06:26:52.999Z</time></trkpt><trkpt lat="14.619907681614276" lon="121.0507810754147"><ele>46.0</ele><time>2026-05-05T06:26:53.999Z</time></trkpt><trkpt lat="14.61983831620399" lon="121.05080714945301"><ele>46.0</ele><time>2026-05-05T06:26:54.999Z</time></trkpt><trkpt lat="14.619768720519769" lon="121.05082457984952"><ele>46.0</ele><time>2026-05-05T06:26:55.999Z</time></trkpt><trkpt lat="14.61970889110585" lon="121.0508552080916"><ele>46.0</ele><time>2026-05-05T06:26:56.999Z</time></trkpt><trkpt lat="14.619630282909318" lon="121.05089037347132"><ele>46.0</ele><time>2026-05-05T06:26:57.999Z</time></trkpt><trkpt lat="14.619533404369614" lon="121.05092938301262"><ele>46.0</ele><time>2026-05-05T06:26:58.999Z</time></trkpt><trkpt lat="14.619439397264367" lon="121.05097813723877"><ele>46.0</ele><time>2026-05-05T06:26:59.999Z</time></trkpt><trkpt lat="14.619356918074375" lon="121.05102378667979"><ele>46.0</ele><time>2026-05-05T06:27:00.999Z</time></trkpt><trkpt lat="14.61927173534622" lon="121.05107224184914"><ele>46.0</ele><time>2026-05-05T06:27:01.999Z</time></trkpt><trkpt lat="14.619194869140168" lon="121.05111586410949"><ele>46.0</ele><time>2026-05-05T06:27:02.999Z</time></trkpt><trkpt lat="14.619104747764391" lon="121.0511577567845"><ele>46.0</ele><time>2026-05-05T06:27:03.999Z</time></trkpt><trkpt lat="14.619027798763003" lon="121.05118665042541"><ele>46.0</ele><time>2026-05-05T06:27:04.999Z</time></trkpt><trkpt lat="14.618959347780999" lon="121.05123442297158"><ele>46.0</ele><time>2026-05-05T06:27:05.999Z</time></trkpt><trkpt lat="14.618901129840763" lon="121.05126429145734"><ele>46.0</ele><time>2026-05-05T06:27:06.999Z</time></trkpt><trkpt lat="14.618822699148346" lon="121.05128735995078"><ele>46.0</ele><time>2026-05-05T06:27:07.999Z</time></trkpt><trkpt lat="14.618751864393392" lon="121.05133371763563"><ele>46.0</ele><time>2026-05-05T06:27:08.999Z</time></trkpt><trkpt lat="14.618675166307407" lon="121.05135440841372"><ele>45.199999999999996</ele><time>2026-05-05T06:27:09.999Z</time></trkpt><trkpt lat="14.618593633180332" lon="121.05138998703792"><ele>44.4</ele><time>2026-05-05T06:27:10.999Z</time></trkpt><trkpt lat="14.6185188503988" lon="121.0514258083898"><ele>43.6</ele><time>2026-05-05T06:27:11.999Z</time></trkpt><trkpt lat="14.618434022779834" lon="121.05146116610902"><ele>42.8</ele><time>2026-05-05T06:27:12.999Z</time></trkpt><trkpt lat="14.618348763710358" lon="121.05150762228062"><ele>42.0</ele><time>2026-05-05T06:27:13.999Z</time></trkpt><trkpt lat="14.618250682750869" lon="121.05156104659227"><ele>42.0</ele><time>2026-05-05T06:27:14.999Z</time></trkpt><trkpt lat="14.618144598204674" lon="121.05161096127954"><ele>42.0</ele><time>2026-05-05T06:27:16Z</time></trkpt><trkpt lat="14.61804788358322" lon="121.05165318883436"><ele>42.0</ele><time>2026-05-05T06:27:17Z</time></trkpt><trkpt lat="14.617943863202273" lon="121.05170092311961"><ele>42.0</ele><time>2026-05-05T06:27:18Z</time></trkpt><trkpt lat="14.617820131717913" lon="121.05171160025274"><ele>43.0</ele><time>2026-05-05T06:27:19Z</time></trkpt><trkpt lat="14.617754717439077" lon="121.05170633169904"><ele>44.0</ele><time>2026-05-05T06:27:20Z</time></trkpt><trkpt lat="14.617639932143607" lon="121.05172983395838"><ele>45.0</ele><time>2026-05-05T06:27:22Z</time></trkpt><trkpt lat="14.617579587413381" lon="121.05182714959744"><ele>46.0</ele><time>2026-05-05T06:27:23Z</time></trkpt><trkpt lat="14.61751223764925" lon="121.05186827823964"><ele>47.0</ele><time>2026-05-05T06:27:24Z</time></trkpt><trkpt lat="14.617449695255111" lon="121.05190047623253"><ele>48.0</ele><time>2026-05-05T06:27:25Z</time></trkpt><trkpt lat="14.617338498260574" lon="121.05193655343923"><ele>48.0</ele><time>2026-05-05T06:27:27Z</time></trkpt><trkpt lat="14.617286377527735" lon="121.05197332388514"><ele>48.0</ele><time>2026-05-05T06:27:28Z</time></trkpt><trkpt lat="14.617220697152483" lon="121.05201362552482"><ele>48.0</ele><time>2026-05-05T06:27:29Z</time></trkpt><trkpt lat="14.617148330541319" lon="121.05205046776305"><ele>48.0</ele><time>2026-05-05T06:27:30Z</time></trkpt><trkpt lat="14.61705364571518" lon="121.05209313449862"><ele>48.0</ele><time>2026-05-05T06:27:31Z</time></trkpt><trkpt lat="14.616953270670951" lon="121.05213097580359"><ele>48.0</ele><time>2026-05-05T06:27:32Z</time></trkpt><trkpt lat="14.616879132168542" lon="121.05217655544114"><ele>48.4</ele><time>2026-05-05T06:27:33Z</time></trkpt><trkpt lat="14.616790516861533" lon="121.05221853421395"><ele>48.8</ele><time>2026-05-05T06:27:34Z</time></trkpt><trkpt lat="14.616708631827214" lon="121.05226475647399"><ele>49.2</ele><time>2026-05-05T06:27:35Z</time></trkpt><trkpt lat="14.616610604696374" lon="121.05231129839534"><ele>49.6</ele><time>2026-05-05T06:27:36Z</time></trkpt><trkpt lat="14.616524601876536" lon="121.0523510576851"><ele>50.0</ele><time>2026-05-05T06:27:37Z</time></trkpt><trkpt lat="14.616447969133603" lon="121.0523880979651"><ele>50.0</ele><time>2026-05-05T06:27:38Z</time></trkpt><trkpt lat="14.616355327319685" lon="121.05240152293494"><ele>50.0</ele><time>2026-05-05T06:27:39Z</time></trkpt><trkpt lat="14.616249488465364" lon="121.05241393638622"><ele>50.0</ele><time>2026-05-05T06:27:40Z</time></trkpt><trkpt lat="14.616180943936058" lon="121.05246476445164"><ele>50.0</ele><time>2026-05-05T06:27:41Z</time></trkpt><trkpt lat="14.616110997685452" lon="121.05250395688931"><ele>50.0</ele><time>2026-05-05T06:27:42Z</time></trkpt><trkpt lat="14.616001960848116" lon="121.05255733964742"><ele>50.4</ele><time>2026-05-05T06:27:43Z</time></trkpt><trkpt lat="14.615919878808382" lon="121.05261025495537"><ele>50.8</ele><time>2026-05-05T06:27:44Z</time></trkpt><trkpt lat="14.615837906038562" lon="121.05265107490148"><ele>51.2</ele><time>2026-05-05T06:27:45Z</time></trkpt><trkpt lat="14.615754207120567" lon="121.05269587244574"><ele>51.6</ele><time>2026-05-05T06:27:46Z</time></trkpt><trkpt lat="14.615660702844135" lon="121.05272342365625"><ele>52.0</ele><time>2026-05-05T06:27:47Z</time></trkpt><trkpt lat="14.615597377694938" lon="121.05278247795007"><ele>51.99999999999999</ele><time>2026-05-05T06:27:48Z</time></trkpt><trkpt lat="14.615539808513232" lon="121.05284833079162"><ele>52.0</ele><time>2026-05-05T06:27:49Z</time></trkpt><trkpt lat="14.615469293720494" lon="121.05286299124678"><ele>52.0</ele><time>2026-05-05T06:27:50Z</time></trkpt><trkpt lat="14.615402317109707" lon="121.05286883835358"><ele>52.0</ele><time>2026-05-05T06:27:51Z</time></trkpt><trkpt lat="14.615315261105021" lon="121.05290492848705"><ele>51.99999999999999</ele><time>2026-05-05T06:27:53Z</time></trkpt><trkpt lat="14.615223281352959" lon="121.05295088228782"><ele>52.0</ele><time>2026-05-05T06:27:55Z</time></trkpt><trkpt lat="14.615134778982604" lon="121.052988179793"><ele>50.2</ele><time>2026-05-05T06:27:57Z</time></trkpt><trkpt lat="14.6150334272202" lon="121.05302757623396"><ele>48.400000000000006</ele><time>2026-05-05T06:27:59Z</time></trkpt><trkpt lat="14.61496635568044" lon="121.0530497928522"><ele>46.599999999999994</ele><time>2026-05-05T06:28:00Z</time></trkpt><trkpt lat="14.6148801760522" lon="121.05311766114352"><ele>44.8</ele><time>2026-05-05T06:28:02Z</time></trkpt><trkpt lat="14.614763849779173" lon="121.05314359069993"><ele>43.0</ele><time>2026-05-05T06:28:04Z</time></trkpt><trkpt lat="14.614662278353173" lon="121.05318209079907"><ele>43.0</ele><time>2026-05-05T06:28:06Z</time></trkpt><trkpt lat="14.614585843845399" lon="121.05321868392691"><ele>43.0</ele><time>2026-05-05T06:28:08Z</time></trkpt><trkpt lat="14.614482861329192" lon="121.05326227436233"><ele>43.0</ele><time>2026-05-05T06:28:10Z</time></trkpt><trkpt lat="14.614402175041537" lon="121.05329553276975"><ele>43.0</ele><time>2026-05-05T06:28:12Z</time></trkpt><trkpt lat="14.61432857120417" lon="121.05332463090622"><ele>43.0</ele><time>2026-05-05T06:28:14Z</time></trkpt><trkpt lat="14.614245406737579" lon="121.05335514894979"><ele>43.0</ele><time>2026-05-05T06:28:16Z</time></trkpt><trkpt lat="14.614151324137064" lon="121.05339562894972"><ele>43.2</ele><time>2026-05-05T06:28:18Z</time></trkpt><trkpt lat="14.614032996919" lon="121.05345033717913"><ele>43.4</ele><time>2026-05-05T06:28:20Z</time></trkpt><trkpt lat="14.613951120490938" lon="121.05348765362844"><ele>43.6</ele><time>2026-05-05T06:28:21Z</time></trkpt><trkpt lat="14.613835340996049" lon="121.05353903351099"><ele>43.800000000000004</ele><time>2026-05-05T06:28:23Z</time></trkpt><trkpt lat="14.613772289637561" lon="121.0535671008385"><ele>44.0</ele><time>2026-05-05T06:28:24Z</time></trkpt><trkpt lat="14.613703301745625" lon="121.05359740055657"><ele>43.33333333333333</ele><time>2026-05-05T06:28:25Z</time></trkpt><trkpt lat="14.61362306315525" lon="121.05363602985645"><ele>42.666666666666664</ele><time>2026-05-05T06:28:26Z</time></trkpt><trkpt lat="14.61354678528399" lon="121.05367396454277"><ele>42.0</ele><time>2026-05-05T06:28:27Z</time></trkpt><trkpt lat="14.613479154110811" lon="121.05370738144416"><ele>41.333333333333336</ele><time>2026-05-05T06:28:28Z</time></trkpt><trkpt lat="14.613419138323676" lon="121.05373230447793"><ele>40.66666666666667</ele><time>2026-05-05T06:28:29Z</time></trkpt><trkpt lat="14.613321766182311" lon="121.05377989980099"><ele>40.0</ele><time>2026-05-05T06:28:31Z</time></trkpt><trkpt lat="14.613247952648717" lon="121.05382278163295"><ele>40.0</ele><time>2026-05-05T06:28:34Z</time></trkpt><trkpt lat="14.613182041269921" lon="121.05385192503935"><ele>40.0</ele><time>2026-05-05T06:28:36Z</time></trkpt><trkpt lat="14.613114823647559" lon="121.05387550107217"><ele>40.0</ele><time>2026-05-05T06:28:39Z</time></trkpt><trkpt lat="14.61303907380536" lon="121.05390686543659"><ele>40.0</ele><time>2026-05-05T06:28:42Z</time></trkpt><trkpt lat="14.612961689305635" lon="121.05394672341724"><ele>40.0</ele><time>2026-05-05T06:28:45Z</time></trkpt><trkpt lat="14.61289760152129" lon="121.05397305684922"><ele>40.0</ele><time>2026-05-05T06:28:47Z</time></trkpt><trkpt lat="14.612827908323892" lon="121.05400479932226"><ele>39.8</ele><time>2026-05-05T06:28:49Z</time></trkpt><trkpt lat="14.61276203629597" lon="121.05403547266788"><ele>39.6</ele><time>2026-05-05T06:28:50.999Z</time></trkpt><trkpt lat="14.612669162722707" lon="121.05407422869504"><ele>39.4</ele><time>2026-05-05T06:28:53.999Z</time></trkpt><trkpt lat="14.612567187222389" lon="121.05411953135288"><ele>39.2</ele><time>2026-05-05T06:28:55.999Z</time></trkpt><trkpt lat="14.612449639023959" lon="121.05416864494926"><ele>39.0</ele><time>2026-05-05T06:28:57.999Z</time></trkpt><trkpt lat="14.612376985093107" lon="121.05420232661432"><ele>39.5</ele><time>2026-05-05T06:28:58.999Z</time></trkpt><trkpt lat="14.61230898367584" lon="121.05423709125442"><ele>40.0</ele><time>2026-05-05T06:28:59.999Z</time></trkpt><trkpt lat="14.612248990403415" lon="121.05426148321898"><ele>40.5</ele><time>2026-05-05T06:29:00.999Z</time></trkpt><trkpt lat="14.612163009306597" lon="121.05429555195563"><ele>41.0</ele><time>2026-05-05T06:29:02.999Z</time></trkpt><trkpt lat="14.612097996579156" lon="121.0543241649978"><ele>41.5</ele><time>2026-05-05T06:29:03.999Z</time></trkpt><trkpt lat="14.61201478489979" lon="121.05435986834897"><ele>42.0</ele><time>2026-05-05T06:29:04.999Z</time></trkpt><trkpt lat="14.611920433091802" lon="121.05440474133171"><ele>42.400000000000006</ele><time>2026-05-05T06:29:05.999Z</time></trkpt><trkpt lat="14.611821926460513" lon="121.05445309773262"><ele>42.800000000000004</ele><time>2026-05-05T06:29:06.999Z</time></trkpt><trkpt lat="14.611729400120009" lon="121.05449286554358"><ele>43.2</ele><time>2026-05-05T06:29:07.999Z</time></trkpt><trkpt lat="14.611631735815756" lon="121.05453870616775"><ele>43.6</ele><time>2026-05-05T06:29:08.999Z</time></trkpt><trkpt lat="14.611544338118817" lon="121.05457846310387"><ele>44.0</ele><time>2026-05-05T06:29:09.999Z</time></trkpt><trkpt lat="14.611448372742725" lon="121.05462475529417"><ele>44.0</ele><time>2026-05-05T06:29:10.999Z</time></trkpt><trkpt lat="14.61135716417788" lon="121.05466567555683"><ele>44.0</ele><time>2026-05-05T06:29:11.999Z</time></trkpt><trkpt lat="14.611257726214154" lon="121.0547129572963"><ele>44.0</ele><time>2026-05-05T06:29:12.999Z</time></trkpt><trkpt lat="14.611161402056183" lon="121.05475785143257"><ele>44.0</ele><time>2026-05-05T06:29:13.999Z</time></trkpt><trkpt lat="14.611064763605894" lon="121.05480210083914"><ele>44.0</ele><time>2026-05-05T06:29:14.999Z</time></trkpt><trkpt lat="14.610968068835763" lon="121.05484897492849"><ele>43.6</ele><time>2026-05-05T06:29:15.999Z</time></trkpt><trkpt lat="14.610869047397573" lon="121.05489608880963"><ele>43.2</ele><time>2026-05-05T06:29:16.999Z</time></trkpt><trkpt lat="14.610774303577696" lon="121.05494131552273"><ele>42.800000000000004</ele><time>2026-05-05T06:29:17.999Z</time></trkpt><trkpt lat="14.610679298252693" lon="121.0549851854405"><ele>42.400000000000006</ele><time>2026-05-05T06:29:18.999Z</time></trkpt><trkpt lat="14.610592390568723" lon="121.05502291149455"><ele>42.0</ele><time>2026-05-05T06:29:20Z</time></trkpt><trkpt lat="14.610515820384249" lon="121.05506163448497"><ele>41.8</ele><time>2026-05-05T06:29:21Z</time></trkpt><trkpt lat="14.610432026654852" lon="121.05510226373273"><ele>41.6</ele><time>2026-05-05T06:29:22Z</time></trkpt><trkpt lat="14.610350034108878" lon="121.05514205936656"><ele>41.4</ele><time>2026-05-05T06:29:23Z</time></trkpt><trkpt lat="14.610266005357307" lon="121.05518518002593"><ele>41.199999999999996</ele><time>2026-05-05T06:29:24Z</time></trkpt><trkpt lat="14.61018383059999" lon="121.05522254056802"><ele>41.0</ele><time>2026-05-05T06:29:25Z</time></trkpt><trkpt lat="14.610095072615268" lon="121.05526409332704"><ele>41.0</ele><time>2026-05-05T06:29:26Z</time></trkpt><trkpt lat="14.610007000254068" lon="121.05530946292666"><ele>41.0</ele><time>2026-05-05T06:29:27Z</time></trkpt><trkpt lat="14.6099361259255" lon="121.05534172290693"><ele>41.0</ele><time>2026-05-05T06:29:28Z</time></trkpt><trkpt lat="14.60987160935374" lon="121.05537424041495"><ele>41.0</ele><time>2026-05-05T06:29:29Z</time></trkpt><trkpt lat="14.609811052012505" lon="121.05539793712626"><ele>41.0</ele><time>2026-05-05T06:29:30Z</time></trkpt><trkpt lat="14.609746235577665" lon="121.05542936678364"><ele>41.0</ele><time>2026-05-05T06:29:31Z</time></trkpt><trkpt lat="14.609679720792636" lon="121.05546333964716"><ele>41.0</ele><time>2026-05-05T06:29:32Z</time></trkpt><trkpt lat="14.609617242073423" lon="121.0554927602042"><ele>41.0</ele><time>2026-05-05T06:29:33Z</time></trkpt><trkpt lat="14.60955675918398" lon="121.05552022641035"><ele>41.0</ele><time>2026-05-05T06:29:34Z</time></trkpt><trkpt lat="14.609446378595042" lon="121.05556652044547"><ele>41.0</ele><time>2026-05-05T06:29:36Z</time></trkpt><trkpt lat="14.609356726388741" lon="121.05560999658393"><ele>41.0</ele><time>2026-05-05T06:29:38Z</time></trkpt><trkpt lat="14.609276737756474" lon="121.05564583390532"><ele>41.0</ele><time>2026-05-05T06:29:40Z</time></trkpt><trkpt lat="14.609182003818843" lon="121.05569128192148"><ele>41.0</ele><time>2026-05-05T06:29:42Z</time></trkpt><trkpt lat="14.609079003686945" lon="121.0557402058753"><ele>41.0</ele><time>2026-05-05T06:29:44Z</time></trkpt><trkpt lat="14.60897827856835" lon="121.05577981998896"><ele>41.0</ele><time>2026-05-05T06:29:46Z</time></trkpt><trkpt lat="14.60891939811921" lon="121.0558088184521"><ele>41.0</ele><time>2026-05-05T06:29:47Z</time></trkpt><trkpt lat="14.608845840922514" lon="121.05583922137069"><ele>41.0</ele><time>2026-05-05T06:29:48Z</time></trkpt><trkpt lat="14.608769592001511" lon="121.05586594699001"><ele>41.0</ele><time>2026-05-05T06:29:49Z</time></trkpt><trkpt lat="14.608707101020485" lon="121.05590031277713"><ele>41.8</ele><time>2026-05-05T06:29:50Z</time></trkpt><trkpt lat="14.608621472848986" lon="121.05593743814387"><ele>42.599999999999994</ele><time>2026-05-05T06:29:51Z</time></trkpt><trkpt lat="14.608521531980452" lon="121.05598172116338"><ele>43.4</ele><time>2026-05-05T06:29:52Z</time></trkpt><trkpt lat="14.608434340874958" lon="121.05602795975074"><ele>44.2</ele><time>2026-05-05T06:29:53Z</time></trkpt><trkpt lat="14.608312772475637" lon="121.0560748776094"><ele>45.0</ele><time>2026-05-05T06:29:55Z</time></trkpt><trkpt lat="14.608233148689107" lon="121.05611373860953"><ele>45.0</ele><time>2026-05-05T06:29:56Z</time></trkpt><trkpt lat="14.608138924845324" lon="121.05614980033334"><ele>45.0</ele><time>2026-05-05T06:29:57Z</time></trkpt><trkpt lat="14.608034205367389" lon="121.05620538718458"><ele>45.0</ele><time>2026-05-05T06:29:58Z</time></trkpt><trkpt lat="14.607932026628143" lon="121.05625535324437"><ele>45.0</ele><time>2026-05-05T06:29:59Z</time></trkpt><trkpt lat="14.607814604709937" lon="121.05631068037829"><ele>44.75</ele><time>2026-05-05T06:30:00Z</time></trkpt><trkpt lat="14.607690804463871" lon="121.05636455179466"><ele>44.5</ele><time>2026-05-05T06:30:01Z</time></trkpt><trkpt lat="14.607595582064475" lon="121.05640557461413"><ele>44.25</ele><time>2026-05-05T06:30:02Z</time></trkpt><trkpt lat="14.607483753491397" lon="121.05646459655793"><ele>44.0</ele><time>2026-05-05T06:30:03Z</time></trkpt><trkpt lat="14.607370421808097" lon="121.0565200999841"><ele>44.0</ele><time>2026-05-05T06:30:04Z</time></trkpt><trkpt lat="14.607270577206817" lon="121.05656662867446"><ele>44.0</ele><time>2026-05-05T06:30:05Z</time></trkpt><trkpt lat="14.607149879643362" lon="121.05662707978337"><ele>44.0</ele><time>2026-05-05T06:30:06Z</time></trkpt><trkpt lat="14.607059729762948" lon="121.05668080753748"><ele>44.0</ele><time>2026-05-05T06:30:07Z</time></trkpt><trkpt lat="14.606978258360996" lon="121.05671022185531"><ele>44.0</ele><time>2026-05-05T06:30:08Z</time></trkpt><trkpt lat="14.606917723729516" lon="121.05673805454468"><ele>45.6</ele><time>2026-05-05T06:30:09Z</time></trkpt><trkpt lat="14.606769728761236" lon="121.05680775034725"><ele>47.2</ele><time>2026-05-05T06:30:11Z</time></trkpt><trkpt lat="14.606707793133983" lon="121.05684156168337"><ele>48.800000000000004</ele><time>2026-05-05T06:30:12Z</time></trkpt><trkpt lat="14.606631641863173" lon="121.05687713974781"><ele>50.400000000000006</ele><time>2026-05-05T06:30:13Z</time></trkpt><trkpt lat="14.606564427616476" lon="121.05690609960908"><ele>52.0</ele><time>2026-05-05T06:30:14Z</time></trkpt><trkpt lat="14.606499717767619" lon="121.05693341857673"><ele>51.99999999999999</ele><time>2026-05-05T06:30:15Z</time></trkpt><trkpt lat="14.606431241249798" lon="121.05696495131865"><ele>52.0</ele><time>2026-05-05T06:30:16Z</time></trkpt><trkpt lat="14.606359103646405" lon="121.05699556762362"><ele>52.0</ele><time>2026-05-05T06:30:17Z</time></trkpt><trkpt lat="14.606296343256053" lon="121.05702416072673"><ele>52.0</ele><time>2026-05-05T06:30:18Z</time></trkpt><trkpt lat="14.606219418468674" lon="121.05705170057321"><ele>51.99999999999999</ele><time>2026-05-05T06:30:19Z</time></trkpt><trkpt lat="14.606148622925216" lon="121.05708166967943"><ele>52.0</ele><time>2026-05-05T06:30:20Z</time></trkpt><trkpt lat="14.606062825109142" lon="121.05711060676657"><ele>53.5</ele><time>2026-05-05T06:30:21Z</time></trkpt><trkpt lat="14.605957542557366" lon="121.05715504877548"><ele>55.0</ele><time>2026-05-05T06:30:22Z</time></trkpt><trkpt lat="14.605853964374155" lon="121.05720661003745"><ele>56.5</ele><time>2026-05-05T06:30:23Z</time></trkpt><trkpt lat="14.60574028529788" lon="121.05726943913184"><ele>58.0</ele><time>2026-05-05T06:30:24Z</time></trkpt><trkpt lat="14.605628504604836" lon="121.057322974498"><ele>58.0</ele><time>2026-05-05T06:30:25Z</time></trkpt><trkpt lat="14.605509678079542" lon="121.05738223177117"><ele>58.0</ele><time>2026-05-05T06:30:26Z</time></trkpt><trkpt lat="14.605381681917857" lon="121.05744158152187"><ele>58.0</ele><time>2026-05-05T06:30:27Z</time></trkpt><trkpt lat="14.605254354496044" lon="121.05749596443844"><ele>58.0</ele><time>2026-05-05T06:30:28Z</time></trkpt><trkpt lat="14.605124336418285" lon="121.05755134871674"><ele>56.0</ele><time>2026-05-05T06:30:29Z</time></trkpt><trkpt lat="14.60498288775293" lon="121.05761882893873"><ele>54.0</ele><time>2026-05-05T06:30:30Z</time></trkpt><trkpt lat="14.604841789492559" lon="121.05768080928149"><ele>52.0</ele><time>2026-05-05T06:30:31Z</time></trkpt><trkpt lat="14.604727961324105" lon="121.05773045582715"><ele>50.0</ele><time>2026-05-05T06:30:32Z</time></trkpt><trkpt lat="14.604606624848383" lon="121.05779078418415"><ele>50.0</ele><time>2026-05-05T06:30:33Z</time></trkpt><trkpt lat="14.604496531230895" lon="121.05783440339661"><ele>50.0</ele><time>2026-05-05T06:30:34Z</time></trkpt><trkpt lat="14.604385174524614" lon="121.05788468415834"><ele>50.0</ele><time>2026-05-05T06:30:35Z</time></trkpt><trkpt lat="14.604270544524685" lon="121.0579513303668"><ele>50.0</ele><time>2026-05-05T06:30:36Z</time></trkpt><trkpt lat="14.60414985130345" lon="121.05802918578756"><ele>48.75</ele><time>2026-05-05T06:30:37Z</time></trkpt><trkpt lat="14.604020544253231" lon="121.0580680452983"><ele>47.5</ele><time>2026-05-05T06:30:38Z</time></trkpt><trkpt lat="14.603889859829767" lon="121.05811895671008"><ele>46.25</ele><time>2026-05-05T06:30:39Z</time></trkpt><trkpt lat="14.603763935533216" lon="121.0581828025632"><ele>45.0</ele><time>2026-05-05T06:30:40Z</time></trkpt><trkpt lat="14.6036378027832" lon="121.05824216068171"><ele>45.0</ele><time>2026-05-05T06:30:41Z</time></trkpt><trkpt lat="14.603519577250673" lon="121.05829341119353"><ele>45.0</ele><time>2026-05-05T06:30:42Z</time></trkpt><trkpt lat="14.603409274172613" lon="121.05834188477579"><ele>45.0</ele><time>2026-05-05T06:30:43.001Z</time></trkpt><trkpt lat="14.603304273542053" lon="121.05839775016425"><ele>45.0</ele><time>2026-05-05T06:30:44.001Z</time></trkpt><trkpt lat="14.603193856068248" lon="121.05844164304887"><ele>45.0</ele><time>2026-05-05T06:30:45.001Z</time></trkpt><trkpt lat="14.603085412385758" lon="121.05849823280445"><ele>45.0</ele><time>2026-05-05T06:30:46.001Z</time></trkpt><trkpt lat="14.602978742585222" lon="121.05854405772597"><ele>45.0</ele><time>2026-05-05T06:30:47.001Z</time></trkpt><trkpt lat="14.60288169568141" lon="121.05859008116694"><ele>45.0</ele><time>2026-05-05T06:30:48.001Z</time></trkpt><trkpt lat="14.602779012923886" lon="121.05864098910746"><ele>45.5</ele><time>2026-05-05T06:30:49.001Z</time></trkpt><trkpt lat="14.602671319317697" lon="121.0586888674411"><ele>46.0</ele><time>2026-05-05T06:30:50.001Z</time></trkpt><trkpt lat="14.602553746939805" lon="121.05874269753532"><ele>46.5</ele><time>2026-05-05T06:30:51.001Z</time></trkpt><trkpt lat="14.602424264139666" lon="121.0588075715618"><ele>47.0</ele><time>2026-05-05T06:30:52.001Z</time></trkpt><trkpt lat="14.602286279272658" lon="121.05887606968182"><ele>47.0</ele><time>2026-05-05T06:30:53.001Z</time></trkpt><trkpt lat="14.602150646632857" lon="121.05893563640595"><ele>47.0</ele><time>2026-05-05T06:30:54.001Z</time></trkpt><trkpt lat="14.602019406108687" lon="121.05899815395087"><ele>47.0</ele><time>2026-05-05T06:30:55.001Z</time></trkpt><trkpt lat="14.601907829445775" lon="121.059046889601"><ele>47.0</ele><time>2026-05-05T06:30:56.001Z</time></trkpt><trkpt lat="14.60180578312945" lon="121.05908017907139"><ele>46.8</ele><time>2026-05-05T06:30:56.999Z</time></trkpt><trkpt lat="14.601711460718604" lon="121.05911167402108"><ele>46.6</ele><time>2026-05-05T06:30:57.999Z</time></trkpt><trkpt lat="14.601615791355334" lon="121.05914069130054"><ele>46.4</ele><time>2026-05-05T06:30:58.999Z</time></trkpt><trkpt lat="14.601528980497061" lon="121.05916376822897"><ele>46.199999999999996</ele><time>2026-05-05T06:30:59.999Z</time></trkpt><trkpt lat="14.601429676128058" lon="121.05919260553941"><ele>46.0</ele><time>2026-05-05T06:31:00.999Z</time></trkpt><trkpt lat="14.601330219054905" lon="121.05922252591375"><ele>46.0</ele><time>2026-05-05T06:31:01.999Z</time></trkpt><trkpt lat="14.601237570655151" lon="121.05925112495505"><ele>46.0</ele><time>2026-05-05T06:31:02.999Z</time></trkpt><trkpt lat="14.601148039824226" lon="121.05927867234529"><ele>46.0</ele><time>2026-05-05T06:31:03.999Z</time></trkpt><trkpt lat="14.601061234556168" lon="121.0593047047168"><ele>46.0</ele><time>2026-05-05T06:31:04.999Z</time></trkpt><trkpt lat="14.600977737318578" lon="121.05933152017043"><ele>46.0</ele><time>2026-05-05T06:31:05.999Z</time></trkpt><trkpt lat="14.600887912629023" lon="121.05935386698054"><ele>46.0</ele><time>2026-05-05T06:31:06.999Z</time></trkpt><trkpt lat="14.60079681183665" lon="121.0593779614392"><ele>46.0</ele><time>2026-05-05T06:31:07.999Z</time></trkpt><trkpt lat="14.600701883521303" lon="121.05939611540488"><ele>46.0</ele><time>2026-05-05T06:31:08.999Z</time></trkpt><trkpt lat="14.600608594149332" lon="121.05941374599031"><ele>46.0</ele><time>2026-05-05T06:31:09.999Z</time></trkpt><trkpt lat="14.600505722108906" lon="121.0594370150892"><ele>46.0</ele><time>2026-05-05T06:31:10.999Z</time></trkpt><trkpt lat="14.60040503681262" lon="121.05945609202125"><ele>46.4</ele><time>2026-05-05T06:31:11.999Z</time></trkpt><trkpt lat="14.60030621735833" lon="121.05947516188165"><ele>46.8</ele><time>2026-05-05T06:31:12.999Z</time></trkpt><trkpt lat="14.600201907407856" lon="121.05949401121968"><ele>47.199999999999996</ele><time>2026-05-05T06:31:13.999Z</time></trkpt><trkpt lat="14.600095760357378" lon="121.05951134278298"><ele>47.599999999999994</ele><time>2026-05-05T06:31:14.999Z</time></trkpt><trkpt lat="14.59999451065611" lon="121.05952690607053"><ele>48.0</ele><time>2026-05-05T06:31:15.999Z</time></trkpt><trkpt lat="14.599903368308276" lon="121.05953687026724"><ele>48.0</ele><time>2026-05-05T06:31:16.999Z</time></trkpt><trkpt lat="14.599808676867346" lon="121.05954573082562"><ele>48.0</ele><time>2026-05-05T06:31:17.999Z</time></trkpt><trkpt lat="14.599706724921985" lon="121.05956044839138"><ele>48.0</ele><time>2026-05-05T06:31:18.999Z</time></trkpt><trkpt lat="14.599607204188475" lon="121.05957294745455"><ele>48.0</ele><time>2026-05-05T06:31:19.999Z</time></trkpt><trkpt lat="14.599498942620443" lon="121.05958006773584"><ele>48.0</ele><time>2026-05-05T06:31:20.999Z</time></trkpt><trkpt lat="14.599387604823885" lon="121.05959458254533"><ele>47.8</ele><time>2026-05-05T06:31:21.999Z</time></trkpt><trkpt lat="14.599289934460142" lon="121.05960117246403"><ele>47.599999999999994</ele><time>2026-05-05T06:31:22.999Z</time></trkpt><trkpt lat="14.59919271576871" lon="121.0596058792827"><ele>47.400000000000006</ele><time>2026-05-05T06:31:24Z</time></trkpt><trkpt lat="14.599093632342326" lon="121.05961199017023"><ele>47.2</ele><time>2026-05-05T06:31:25Z</time></trkpt><trkpt lat="14.5989881313306" lon="121.05961582578301"><ele>47.0</ele><time>2026-05-05T06:31:26Z</time></trkpt><trkpt lat="14.598882944380103" lon="121.05961903262636"><ele>47.0</ele><time>2026-05-05T06:31:27Z</time></trkpt><trkpt lat="14.598773792668874" lon="121.05962469399499"><ele>47.0</ele><time>2026-05-05T06:31:28Z</time></trkpt><trkpt lat="14.598658971224422" lon="121.05962584037327"><ele>47.0</ele><time>2026-05-05T06:31:29Z</time></trkpt><trkpt lat="14.598553635303755" lon="121.05962555830507"><ele>47.0</ele><time>2026-05-05T06:31:30Z</time></trkpt><trkpt lat="14.59844417577961" lon="121.05962572725161"><ele>47.0</ele><time>2026-05-05T06:31:31Z</time></trkpt><trkpt lat="14.598333678407194" lon="121.0596225570851"><ele>46.75</ele><time>2026-05-05T06:31:32Z</time></trkpt><trkpt lat="14.598216960946745" lon="121.05961909412088"><ele>46.5</ele><time>2026-05-05T06:31:33Z</time></trkpt><trkpt lat="14.598101939424376" lon="121.05961453663927"><ele>46.25</ele><time>2026-05-05T06:31:34Z</time></trkpt><trkpt lat="14.597981932151342" lon="121.05961084516817"><ele>46.0</ele><time>2026-05-05T06:31:35Z</time></trkpt><trkpt lat="14.597880387009115" lon="121.05960299218542"><ele>45.66666666666667</ele><time>2026-05-05T06:31:36Z</time></trkpt><trkpt lat="14.597795218979552" lon="121.05959447797788"><ele>45.333333333333336</ele><time>2026-05-05T06:31:37Z</time></trkpt><trkpt lat="14.597711690394346" lon="121.05958428691947"><ele>45.0</ele><time>2026-05-05T06:31:38Z</time></trkpt><trkpt lat="14.597639050431079" lon="121.05957845606179"><ele>44.666666666666664</ele><time>2026-05-05T06:31:39Z</time></trkpt><trkpt lat="14.597552509394454" lon="121.0595659918405"><ele>44.33333333333333</ele><time>2026-05-05T06:31:40Z</time></trkpt><trkpt lat="14.597463440856181" lon="121.05955618953867"><ele>44.0</ele><time>2026-05-05T06:31:41Z</time></trkpt><trkpt lat="14.597368124582971" lon="121.05954633236091"><ele>44.0</ele><time>2026-05-05T06:31:42Z</time></trkpt><trkpt lat="14.597266898449844" lon="121.05953571309773"><ele>44.0</ele><time>2026-05-05T06:31:43Z</time></trkpt><trkpt lat="14.597161188843204" lon="121.05952613740853"><ele>44.0</ele><time>2026-05-05T06:31:44Z</time></trkpt><trkpt lat="14.59704451438212" lon="121.05951852516716"><ele>44.0</ele><time>2026-05-05T06:31:45Z</time></trkpt><trkpt lat="14.596938464581418" lon="121.05950210312075"><ele>44.0</ele><time>2026-05-05T06:31:46Z</time></trkpt><trkpt lat="14.59682653014655" lon="121.05948790602947"><ele>44.2</ele><time>2026-05-05T06:31:47Z</time></trkpt><trkpt lat="14.596721254990966" lon="121.05947755543185"><ele>44.400000000000006</ele><time>2026-05-05T06:31:48Z</time></trkpt><trkpt lat="14.596608668557446" lon="121.05946385405679"><ele>44.6</ele><time>2026-05-05T06:31:49Z</time></trkpt><trkpt lat="14.596511301281785" lon="121.05944347329093"><ele>44.8</ele><time>2026-05-05T06:31:50Z</time></trkpt><trkpt lat="14.596427620147661" lon="121.05942377033827"><ele>45.0</ele><time>2026-05-05T06:31:51Z</time></trkpt><trkpt lat="14.5963623739439" lon="121.05940926343128"><ele>45.0</ele><time>2026-05-05T06:31:52Z</time></trkpt><trkpt lat="14.596236849502219" lon="121.05938537879665"><ele>45.0</ele><time>2026-05-05T06:31:54Z</time></trkpt><trkpt lat="14.596171979149535" lon="121.05936974248232"><ele>45.0</ele><time>2026-05-05T06:31:55Z</time></trkpt><trkpt lat="14.596107119332306" lon="121.0593526990373"><ele>45.0</ele><time>2026-05-05T06:31:56Z</time></trkpt><trkpt lat="14.596043974802846" lon="121.05933215344989"><ele>45.0</ele><time>2026-05-05T06:31:57Z</time></trkpt><trkpt lat="14.59598256216065" lon="121.05931082988401"><ele>45.0</ele><time>2026-05-05T06:31:58Z</time></trkpt><trkpt lat="14.595874440246371" lon="121.0592750266397"><ele>45.0</ele><time>2026-05-05T06:32:00Z</time></trkpt><trkpt lat="14.595769879391378" lon="121.0592375314221"><ele>45.0</ele><time>2026-05-05T06:32:02Z</time></trkpt><trkpt lat="14.595661701462307" lon="121.05919818823898"><ele>45.0</ele><time>2026-05-05T06:32:04Z</time></trkpt><trkpt lat="14.595593735609846" lon="121.05917825947093"><ele>45.0</ele><time>2026-05-05T06:32:05Z</time></trkpt><trkpt lat="14.595495045332013" lon="121.05914625088232"><ele>45.0</ele><time>2026-05-05T06:32:07Z</time></trkpt><trkpt lat="14.595429420642862" lon="121.05911965426145"><ele>44.4</ele><time>2026-05-05T06:32:09Z</time></trkpt><trkpt lat="14.595352308982832" lon="121.05909562477731"><ele>43.8</ele><time>2026-05-05T06:32:11Z</time></trkpt><trkpt lat="14.595263183594055" lon="121.05906558797105"><ele>43.2</ele><time>2026-05-05T06:32:13Z</time></trkpt><trkpt lat="14.595172425341934" lon="121.05903437264185"><ele>42.6</ele><time>2026-05-05T06:32:15Z</time></trkpt><trkpt lat="14.595109445174641" lon="121.05901315353329"><ele>42.0</ele><time>2026-05-05T06:32:16Z</time></trkpt><trkpt lat="14.595001795218861" lon="121.05897529874005"><ele>42.0</ele><time>2026-05-05T06:32:18Z</time></trkpt><trkpt lat="14.59489647948949" lon="121.05893634182337"><ele>42.0</ele><time>2026-05-05T06:32:20Z</time></trkpt><trkpt lat="14.5948086395162" lon="121.05890699760604"><ele>42.0</ele><time>2026-05-05T06:32:22Z</time></trkpt><trkpt lat="14.594739668139278" lon="121.05887767466797"><ele>42.0</ele><time>2026-05-05T06:32:24Z</time></trkpt><trkpt lat="14.594638944912738" lon="121.05884520159753"><ele>42.0</ele><time>2026-05-05T06:32:26Z</time></trkpt><trkpt lat="14.594523549987109" lon="121.05880836491015"><ele>41.833333333333336</ele><time>2026-05-05T06:32:28Z</time></trkpt><trkpt lat="14.59446105406591" lon="121.05878700448058"><ele>41.666666666666664</ele><time>2026-05-05T06:32:29Z</time></trkpt><trkpt lat="14.59439723614939" lon="121.05876428810708"><ele>41.5</ele><time>2026-05-05T06:32:30Z</time></trkpt><trkpt lat="14.594301290096801" lon="121.05872386295864"><ele>41.33333333333333</ele><time>2026-05-05T06:32:32Z</time></trkpt><trkpt lat="14.594213985143783" lon="121.05868937994228"><ele>41.166666666666664</ele><time>2026-05-05T06:32:34Z</time></trkpt><trkpt lat="14.594142230973624" lon="121.05866865646158"><ele>41.0</ele><time>2026-05-05T06:32:36Z</time></trkpt><trkpt lat="14.594059777295517" lon="121.05864480420988"><ele>41.0</ele><time>2026-05-05T06:32:38Z</time></trkpt><trkpt lat="14.593987497538638" lon="121.05861752997822"><ele>41.0</ele><time>2026-05-05T06:32:40.001Z</time></trkpt><trkpt lat="14.593903171583666" lon="121.0585900828679"><ele>41.0</ele><time>2026-05-05T06:32:42.001Z</time></trkpt><trkpt lat="14.593805600704838" lon="121.05856137432588"><ele>41.0</ele><time>2026-05-05T06:32:44.001Z</time></trkpt><trkpt lat="14.593728366584473" lon="121.05853916077493"><ele>41.0</ele><time>2026-05-05T06:32:45.001Z</time></trkpt><trkpt lat="14.593640394049832" lon="121.05850596396881"><ele>41.0</ele><time>2026-05-05T06:32:46.001Z</time></trkpt><trkpt lat="14.59357479792223" lon="121.05848516778937"><ele>41.199999999999996</ele><time>2026-05-05T06:32:47.001Z</time></trkpt><trkpt lat="14.593500268444158" lon="121.05846606689263"><ele>41.4</ele><time>2026-05-05T06:32:48.001Z</time></trkpt><trkpt lat="14.593367615057794" lon="121.05841955696653"><ele>41.6</ele><time>2026-05-05T06:32:50.001Z</time></trkpt><trkpt lat="14.593292724083486" lon="121.0583976501497"><ele>41.8</ele><time>2026-05-05T06:32:51.001Z</time></trkpt><trkpt lat="14.593220747174986" lon="121.05837261793168"><ele>42.0</ele><time>2026-05-05T06:32:52.001Z</time></trkpt><trkpt lat="14.593143208559269" lon="121.05834754606266"><ele>42.0</ele><time>2026-05-05T06:32:53.001Z</time></trkpt><trkpt lat="14.593080237609014" lon="121.05832270361101"><ele>42.0</ele><time>2026-05-05T06:32:54.001Z</time></trkpt><trkpt lat="14.593001927308867" lon="121.05830660065205"><ele>42.0</ele><time>2026-05-05T06:32:55.001Z</time></trkpt><trkpt lat="14.59292885976736" lon="121.05828823556222"><ele>42.0</ele><time>2026-05-05T06:32:56.001Z</time></trkpt><trkpt lat="14.592868406080585" lon="121.05826632485329"><ele>42.0</ele><time>2026-05-05T06:32:57.001Z</time></trkpt><trkpt lat="14.592792711823705" lon="121.05824475328758"><ele>42.0</ele><time>2026-05-05T06:32:58.001Z</time></trkpt><trkpt lat="14.59272233337833" lon="121.05821853885637"><ele>42.0</ele><time>2026-05-05T06:32:59.001Z</time></trkpt><trkpt lat="14.592659638589534" lon="121.0582008845603"><ele>41.666666666666664</ele><time>2026-05-05T06:33:00.001Z</time></trkpt><trkpt lat="14.59259847471675" lon="121.05818322989008"><ele>41.333333333333336</ele><time>2026-05-05T06:33:01.001Z</time></trkpt><trkpt lat="14.592498149892908" lon="121.05814667023633"><ele>41.0</ele><time>2026-05-05T06:33:02.999Z</time></trkpt><trkpt lat="14.592425645986758" lon="121.0581192500379"><ele>40.66666666666667</ele><time>2026-05-05T06:33:04.999Z</time></trkpt><trkpt lat="14.592353049741781" lon="121.05809406080131"><ele>40.333333333333336</ele><time>2026-05-05T06:33:06.999Z</time></trkpt><trkpt lat="14.592278215052042" lon="121.05807233317515"><ele>40.0</ele><time>2026-05-05T06:33:08.999Z</time></trkpt><trkpt lat="14.592205253490128" lon="121.0580502888831"><ele>40.0</ele><time>2026-05-05T06:33:10.999Z</time></trkpt><trkpt lat="14.592145219739269" lon="121.05803047189141"><ele>40.0</ele><time>2026-05-05T06:33:12.999Z</time></trkpt><trkpt lat="14.592070984633539" lon="121.05800392384457"><ele>40.0</ele><time>2026-05-05T06:33:14.999Z</time></trkpt><trkpt lat="14.591987147896962" lon="121.05797636793103"><ele>40.0</ele><time>2026-05-05T06:33:16.999Z</time></trkpt><trkpt lat="14.591911091643903" lon="121.05795116429327"><ele>40.0</ele><time>2026-05-05T06:33:18.999Z</time></trkpt><trkpt lat="14.591801790533903" lon="121.05792088974665"><ele>40.0</ele><time>2026-05-05T06:33:20.999Z</time></trkpt><trkpt lat="14.59169076155918" lon="121.05788838799087"><ele>40.4</ele><time>2026-05-05T06:33:23Z</time></trkpt><trkpt lat="14.591581908483004" lon="121.05784660500294"><ele>40.8</ele><time>2026-05-05T06:33:25Z</time></trkpt><trkpt lat="14.591456042064692" lon="121.05780048041312"><ele>41.2</ele><time>2026-05-05T06:33:27Z</time></trkpt><trkpt lat="14.591378841086794" lon="121.05778081705618"><ele>41.6</ele><time>2026-05-05T06:33:28Z</time></trkpt><trkpt lat="14.591268498779554" lon="121.05774054340203"><ele>42.0</ele><time>2026-05-05T06:33:30Z</time></trkpt><trkpt lat="14.591147962596015" lon="121.05770135541965"><ele>42.714285714285715</ele><time>2026-05-05T06:33:32Z</time></trkpt><trkpt lat="14.591075871375454" lon="121.05768231244245"><ele>43.42857142857143</ele><time>2026-05-05T06:33:33Z</time></trkpt><trkpt lat="14.591003156696745" lon="121.05765836015698"><ele>44.14285714285714</ele><time>2026-05-05T06:33:34Z</time></trkpt><trkpt lat="14.590932946247301" lon="121.05763745407381"><ele>44.85714285714286</ele><time>2026-05-05T06:33:35Z</time></trkpt><trkpt lat="14.59087078489287" lon="121.05761669620456"><ele>45.57142857142857</ele><time>2026-05-05T06:33:36Z</time></trkpt><trkpt lat="14.590808916862644" lon="121.05759640915318"><ele>46.285714285714285</ele><time>2026-05-05T06:33:37Z</time></trkpt><trkpt lat="14.590723512105841" lon="121.05757137903362"><ele>47.0</ele><time>2026-05-05T06:33:39Z</time></trkpt><trkpt lat="14.590630913764222" lon="121.05754292404424"><ele>47.0</ele><time>2026-05-05T06:33:41Z</time></trkpt><trkpt lat="14.590531829510965" lon="121.0575119117696"><ele>47.0</ele><time>2026-05-05T06:33:43Z</time></trkpt><trkpt lat="14.590438419449484" lon="121.0574833483399"><ele>47.0</ele><time>2026-05-05T06:33:45Z</time></trkpt><trkpt lat="14.590358397788055" lon="121.05745912088256"><ele>47.0</ele><time>2026-05-05T06:33:47Z</time></trkpt><trkpt lat="14.590291901994899" lon="121.0574409050692"><ele>47.0</ele><time>2026-05-05T06:33:49Z</time></trkpt><trkpt lat="14.590207329502196" lon="121.05741560490128"><ele>47.0</ele><time>2026-05-05T06:33:51Z</time></trkpt><trkpt lat="14.590147088412465" lon="121.05739168628634"><ele>46.57142857142857</ele><time>2026-05-05T06:33:52Z</time></trkpt><trkpt lat="14.590085638209395" lon="121.05736912548606"><ele>46.14285714285714</ele><time>2026-05-05T06:33:53Z</time></trkpt><trkpt lat="14.590018534872131" lon="121.05734764593042"><ele>45.714285714285715</ele><time>2026-05-05T06:33:54Z</time></trkpt><trkpt lat="14.589957542612893" lon="121.0573305221506"><ele>45.285714285714285</ele><time>2026-05-05T06:33:55Z</time></trkpt><trkpt lat="14.589891918344994" lon="121.05731288814975"><ele>44.857142857142854</ele><time>2026-05-05T06:33:56Z</time></trkpt><trkpt lat="14.589831039769043" lon="121.05729054719673"><ele>44.42857142857143</ele><time>2026-05-05T06:33:57Z</time></trkpt><trkpt lat="14.589766841072173" lon="121.05727131606368"><ele>44.0</ele><time>2026-05-05T06:33:58Z</time></trkpt><trkpt lat="14.589685657794412" lon="121.05724407125638"><ele>44.0</ele><time>2026-05-05T06:33:59Z</time></trkpt><trkpt lat="14.589612438413813" lon="121.05721787729985"><ele>44.0</ele><time>2026-05-05T06:34:00Z</time></trkpt><trkpt lat="14.589542227708206" lon="121.05718865066595"><ele>44.0</ele><time>2026-05-05T06:34:01Z</time></trkpt><trkpt lat="14.589469970643593" lon="121.05716129357052"><ele>44.0</ele><time>2026-05-05T06:34:02Z</time></trkpt><trkpt lat="14.5894088013109" lon="121.05713509264525"><ele>44.0</ele><time>2026-05-05T06:34:03Z</time></trkpt><trkpt lat="14.589311532187953" lon="121.05708818649639"><ele>44.0</ele><time>2026-05-05T06:34:05Z</time></trkpt><trkpt lat="14.58923706134756" lon="121.0570509761369"><ele>44.2</ele><time>2026-05-05T06:34:07Z</time></trkpt><trkpt lat="14.58913165351532" lon="121.0569996484858"><ele>44.400000000000006</ele><time>2026-05-05T06:34:09Z</time></trkpt><trkpt lat="14.58903741184468" lon="121.05695654551582"><ele>44.6</ele><time>2026-05-05T06:34:11Z</time></trkpt><trkpt lat="14.588960728520536" lon="121.05692427250388"><ele>44.8</ele><time>2026-05-05T06:34:13Z</time></trkpt><trkpt lat="14.588862662137135" lon="121.05689804741418"><ele>45.0</ele><time>2026-05-05T06:34:15Z</time></trkpt><trkpt lat="14.588775911700589" lon="121.05686774534352"><ele>45.0</ele><time>2026-05-05T06:34:17Z</time></trkpt><trkpt lat="14.588697374711463" lon="121.0568403390469"><ele>45.0</ele><time>2026-05-05T06:34:19Z</time></trkpt><trkpt lat="14.588621618749263" lon="121.05681181195799"><ele>45.0</ele><time>2026-05-05T06:34:21Z</time></trkpt><trkpt lat="14.588540061601304" lon="121.05678609613972"><ele>45.0</ele><time>2026-05-05T06:34:24Z</time></trkpt><trkpt lat="14.588449896165468" lon="121.05675826737563"><ele>45.0</ele><time>2026-05-05T06:34:27Z</time></trkpt><trkpt lat="14.588356547062691" lon="121.05673553849019"><ele>45.0</ele><time>2026-05-05T06:34:29Z</time></trkpt><trkpt lat="14.58826675454591" lon="121.05670329178298"><ele>44.857142857142854</ele><time>2026-05-05T06:34:31.001Z</time></trkpt><trkpt lat="14.588191803062204" lon="121.05667282880104"><ele>44.714285714285715</ele><time>2026-05-05T06:34:33.001Z</time></trkpt><trkpt lat="14.588122072071156" lon="121.0566577123788"><ele>44.57142857142857</ele><time>2026-05-05T06:34:35.001Z</time></trkpt><trkpt lat="14.58805615898442" lon="121.05663725525841"><ele>44.42857142857143</ele><time>2026-05-05T06:34:37.001Z</time></trkpt><trkpt lat="14.587992514453923" lon="121.05661595303947"><ele>44.285714285714285</ele><time>2026-05-05T06:34:39.001Z</time></trkpt><trkpt lat="14.587921652329577" lon="121.05659162373301"><ele>44.142857142857146</ele><time>2026-05-05T06:34:41.001Z</time></trkpt><trkpt lat="14.587857235164805" lon="121.05657060901719"><ele>44.0</ele><time>2026-05-05T06:34:43.001Z</time></trkpt><trkpt lat="14.587773711994522" lon="121.05656355395614"><ele>43.400000000000006</ele><time>2026-05-05T06:34:45.001Z</time></trkpt><trkpt lat="14.587675677015328" lon="121.05652790931725"><ele>42.8</ele><time>2026-05-05T06:34:47.001Z</time></trkpt><trkpt lat="14.587563831987909" lon="121.05648421143678"><ele>42.2</ele><time>2026-05-05T06:34:49.001Z</time></trkpt><trkpt lat="14.587460273077435" lon="121.05645379579083"><ele>41.599999999999994</ele><time>2026-05-05T06:34:51.001Z</time></trkpt><trkpt lat="14.587383267345768" lon="121.05643235239008"><ele>41.0</ele><time>2026-05-05T06:34:53.001Z</time></trkpt><trkpt lat="14.587316116253058" lon="121.05640488571663"><ele>41.0</ele><time>2026-05-05T06:34:55.001Z</time></trkpt><trkpt lat="14.587239596546471" lon="121.05637921361189"><ele>41.0</ele><time>2026-05-05T06:34:57.001Z</time></trkpt><trkpt lat="14.587162431876072" lon="121.05635425491643"><ele>41.0</ele><time>2026-05-05T06:34:59.001Z</time></trkpt><trkpt lat="14.587073511886144" lon="121.05632020779714"><ele>41.0</ele><time>2026-05-05T06:35:01.001Z</time></trkpt><trkpt lat="14.586977360084083" lon="121.05628944050548"><ele>41.0</ele><time>2026-05-05T06:35:03.001Z</time></trkpt><trkpt lat="14.586916624646966" lon="121.05626821479301"><ele>41.0</ele><time>2026-05-05T06:35:04.001Z</time></trkpt><trkpt lat="14.58685153964323" lon="121.05624901020394"><ele>40.666666666666664</ele><time>2026-05-05T06:35:05.001Z</time></trkpt><trkpt lat="14.58677886282067" lon="121.05622355690242"><ele>40.33333333333333</ele><time>2026-05-05T06:35:06.001Z</time></trkpt><trkpt lat="14.586706089369626" lon="121.0561956671834"><ele>40.0</ele><time>2026-05-05T06:35:07.001Z</time></trkpt><trkpt lat="14.586637726254054" lon="121.05616113884665"><ele>39.666666666666664</ele><time>2026-05-05T06:35:08Z</time></trkpt><trkpt lat="14.586568419630213" lon="121.05613169425142"><ele>39.333333333333336</ele><time>2026-05-05T06:35:09Z</time></trkpt><trkpt lat="14.58650035870587" lon="121.05610702959994"><ele>39.0</ele><time>2026-05-05T06:35:10Z</time></trkpt><trkpt lat="14.586407547988246" lon="121.05607409788442"><ele>39.0</ele><time>2026-05-05T06:35:11Z</time></trkpt><trkpt lat="14.586334189267195" lon="121.05604941406868"><ele>39.0</ele><time>2026-05-05T06:35:12Z</time></trkpt><trkpt lat="14.586238649449289" lon="121.05601801372043"><ele>39.0</ele><time>2026-05-05T06:35:13Z</time></trkpt><trkpt lat="14.58615331100549" lon="121.05598549597298"><ele>39.0</ele><time>2026-05-05T06:35:14Z</time></trkpt><trkpt lat="14.586069205180403" lon="121.05595766518225"><ele>39.0</ele><time>2026-05-05T06:35:15Z</time></trkpt><trkpt lat="14.585973026531928" lon="121.05592357510984"><ele>38.6</ele><time>2026-05-05T06:35:16Z</time></trkpt><trkpt lat="14.585894600693035" lon="121.05589742042204"><ele>38.2</ele><time>2026-05-05T06:35:17Z</time></trkpt><trkpt lat="14.585799735377444" lon="121.05586761106638"><ele>37.800000000000004</ele><time>2026-05-05T06:35:18Z</time></trkpt><trkpt lat="14.585691806369965" lon="121.0558339406531"><ele>37.4</ele><time>2026-05-05T06:35:19Z</time></trkpt><trkpt lat="14.585602298355523" lon="121.05580212584218"><ele>37.0</ele><time>2026-05-05T06:35:20Z</time></trkpt><trkpt lat="14.585516134019349" lon="121.05577418655746"><ele>37.0</ele><time>2026-05-05T06:35:21Z</time></trkpt><trkpt lat="14.58543016083277" lon="121.05574423966372"><ele>37.0</ele><time>2026-05-05T06:35:22Z</time></trkpt><trkpt lat="14.585353485858201" lon="121.055707583982"><ele>37.0</ele><time>2026-05-05T06:35:23Z</time></trkpt><trkpt lat="14.585269944324175" lon="121.0556917956647"><ele>37.0</ele><time>2026-05-05T06:35:24Z</time></trkpt><trkpt lat="14.585199322788958" lon="121.05566570293203"><ele>37.0</ele><time>2026-05-05T06:35:25Z</time></trkpt><trkpt lat="14.585115749322515" lon="121.05564141612984"><ele>37.0</ele><time>2026-05-05T06:35:26Z</time></trkpt><trkpt lat="14.585042385402442" lon="121.05561390982434"><ele>37.2</ele><time>2026-05-05T06:35:27Z</time></trkpt><trkpt lat="14.5849437755257" lon="121.05558470731154"><ele>37.400000000000006</ele><time>2026-05-05T06:35:28Z</time></trkpt><trkpt lat="14.584857451220715" lon="121.05555454419962"><ele>37.599999999999994</ele><time>2026-05-05T06:35:29Z</time></trkpt><trkpt lat="14.584755991514523" lon="121.05551582526486"><ele>37.8</ele><time>2026-05-05T06:35:30Z</time></trkpt><trkpt lat="14.584656968937088" lon="121.05547374285054"><ele>38.0</ele><time>2026-05-05T06:35:31Z</time></trkpt><trkpt lat="14.584562147535179" lon="121.05544143828554"><ele>37.75</ele><time>2026-05-05T06:35:32Z</time></trkpt><trkpt lat="14.58445565054046" lon="121.05540171370968"><ele>37.5</ele><time>2026-05-05T06:35:33Z</time></trkpt><trkpt lat="14.584345933839707" lon="121.05535023434417"><ele>37.25</ele><time>2026-05-05T06:35:34Z</time></trkpt><trkpt lat="14.58421421811586" lon="121.05530062919902"><ele>37.0</ele><time>2026-05-05T06:35:35Z</time></trkpt><trkpt lat="14.584076294845026" lon="121.05525560818405"><ele>37.0</ele><time>2026-05-05T06:35:36Z</time></trkpt><trkpt lat="14.583944049878237" lon="121.05520417197019"><ele>37.0</ele><time>2026-05-05T06:35:37Z</time></trkpt><trkpt lat="14.583811090268432" lon="121.05513496285432"><ele>37.0</ele><time>2026-05-05T06:35:38Z</time></trkpt><trkpt lat="14.583654285009906" lon="121.05507576045339"><ele>38.66666666666667</ele><time>2026-05-05T06:35:39Z</time></trkpt><trkpt lat="14.583506344578462" lon="121.05500660764065"><ele>40.333333333333336</ele><time>2026-05-05T06:35:40Z</time></trkpt><trkpt lat="14.583365125419958" lon="121.05493231778571"><ele>42.0</ele><time>2026-05-05T06:35:41Z</time></trkpt><trkpt lat="14.583225796417581" lon="121.05484449399138"><ele>43.0</ele><time>2026-05-05T06:35:42Z</time></trkpt><trkpt lat="14.583080520870286" lon="121.05475753798646"><ele>44.0</ele><time>2026-05-05T06:35:43Z</time></trkpt><trkpt lat="14.582949139057169" lon="121.05466589954905"><ele>45.0</ele><time>2026-05-05T06:35:44Z</time></trkpt><trkpt lat="14.58282180692647" lon="121.05458520558531"><ele>45.5</ele><time>2026-05-05T06:35:45Z</time></trkpt><trkpt lat="14.582722864595333" lon="121.0545184801387"><ele>46.0</ele><time>2026-05-05T06:35:46Z</time></trkpt><trkpt lat="14.582638926494107" lon="121.05446592823888"><ele>46.5</ele><time>2026-05-05T06:35:47Z</time></trkpt><trkpt lat="14.582513141901748" lon="121.05439034309059"><ele>47.0</ele><time>2026-05-05T06:35:48Z</time></trkpt><trkpt lat="14.582419240887683" lon="121.05431793396986"><ele>47.0</ele><time>2026-05-05T06:35:49Z</time></trkpt><trkpt lat="14.582356401275645" lon="121.05425373973918"><ele>47.0</ele><time>2026-05-05T06:35:50Z</time></trkpt><trkpt lat="14.582293600091761" lon="121.05419611737398"><ele>47.0</ele><time>2026-05-05T06:35:51Z</time></trkpt><trkpt lat="14.582236632460896" lon="121.05414781254053"><ele>47.0</ele><time>2026-05-05T06:35:52Z</time></trkpt><trkpt lat="14.58217585931042" lon="121.05410535870028"><ele>47.0</ele><time>2026-05-05T06:35:53Z</time></trkpt><trkpt lat="14.582081725049445" lon="121.0540424177778"><ele>47.0</ele><time>2026-05-05T06:35:55Z</time></trkpt><trkpt lat="14.582027174220274" lon="121.05399510156045"><ele>47.166666666666664</ele><time>2026-05-05T06:35:57Z</time></trkpt><trkpt lat="14.581974242519838" lon="121.05394441531902"><ele>47.33333333333333</ele><time>2026-05-05T06:35:59Z</time></trkpt><trkpt lat="14.58191796705671" lon="121.05390158617972"><ele>47.5</ele><time>2026-05-05T06:36:02Z</time></trkpt><trkpt lat="14.581860077361835" lon="121.05387131504271"><ele>47.666666666666664</ele><time>2026-05-05T06:36:06Z</time></trkpt><trkpt lat="14.58179886260881" lon="121.0538341964909"><ele>47.833333333333336</ele><time>2026-05-05T06:36:10Z</time></trkpt><trkpt lat="14.581702337663103" lon="121.05378835182819"><ele>48.0</ele><time>2026-05-05T06:36:20Z</time></trkpt><trkpt lat="14.581629975342496" lon="121.05373214530242"><ele>48.0</ele><time>2026-05-05T06:36:22Z</time></trkpt><trkpt lat="14.58156836671156" lon="121.05369083446192"><ele>48.0</ele><time>2026-05-05T06:36:25.001Z</time></trkpt><trkpt lat="14.581486678445948" lon="121.05362396905652"><ele>48.0</ele><time>2026-05-05T06:36:28.001Z</time></trkpt><trkpt lat="14.581432320008583" lon="121.05358190220556"><ele>48.0</ele><time>2026-05-05T06:36:30.001Z</time></trkpt><trkpt lat="14.58138094108833" lon="121.05352815288522"><ele>48.0</ele><time>2026-05-05T06:36:32.001Z</time></trkpt><trkpt lat="14.581320515932052" lon="121.05349845822502"><ele>48.0</ele><time>2026-05-05T06:36:34.001Z</time></trkpt><trkpt lat="14.5812458364069" lon="121.05347195450734"><ele>48.2</ele><time>2026-05-05T06:36:36.001Z</time></trkpt><trkpt lat="14.581172483896898" lon="121.05348308529567"><ele>48.4</ele><time>2026-05-05T06:36:38.001Z</time></trkpt><trkpt lat="14.58106226541016" lon="121.05347924592631"><ele>48.6</ele><time>2026-05-05T06:36:40.001Z</time></trkpt><trkpt lat="14.580973460980005" lon="121.05342644335101"><ele>48.800000000000004</ele><time>2026-05-05T06:36:41.001Z</time></trkpt><trkpt lat="14.58091962072501" lon="121.05338478550823"><ele>49.0</ele><time>2026-05-05T06:36:42.001Z</time></trkpt><trkpt lat="14.580833576727672" lon="121.05321519490573"><ele>47.0</ele><time>2026-05-05T06:36:43.001Z</time></trkpt><trkpt lat="14.580662949868508" lon="121.05299671973374"><ele>45.0</ele><time>2026-05-05T06:36:44.001Z</time></trkpt><trkpt lat="14.580546114208339" lon="121.05291415448427"><ele>43.0</ele><time>2026-05-05T06:36:45.001Z</time></trkpt><trkpt lat="14.580456820194996" lon="121.05286596139976"><ele>43.0</ele><time>2026-05-05T06:36:46.001Z</time></trkpt><trkpt lat="14.580394879952882" lon="121.05283684423874"><ele>43.0</ele><time>2026-05-05T06:36:47.001Z</time></trkpt><trkpt lat="14.580322785508736" lon="121.05276517712933"><ele>43.0</ele><time>2026-05-05T06:36:50.001Z</time></trkpt><trkpt lat="14.580251797194663" lon="121.05271428519352"><ele>43.0</ele><time>2026-05-05T06:37:13.001Z</time></trkpt><trkpt lat="14.580149829966409" lon="121.05266281391182"><ele>43.0</ele><time>2026-05-05T06:37:14.999Z</time></trkpt><trkpt lat="14.580081696499017" lon="121.05261357585353"><ele>42.8</ele><time>2026-05-05T06:37:15.999Z</time></trkpt><trkpt lat="14.580014175948813" lon="121.05255385131713"><ele>42.599999999999994</ele><time>2026-05-05T06:37:16.999Z</time></trkpt><trkpt lat="14.579939521838323" lon="121.0525046315927"><ele>42.400000000000006</ele><time>2026-05-05T06:37:17.999Z</time></trkpt><trkpt lat="14.579853185506568" lon="121.05244712641525"><ele>42.2</ele><time>2026-05-05T06:37:18.999Z</time></trkpt><trkpt lat="14.579747762832369" lon="121.05238379374389"><ele>42.0</ele><time>2026-05-05T06:37:19.999Z</time></trkpt><trkpt lat="14.57965510167872" lon="121.05231991574003"><ele>42.0</ele><time>2026-05-05T06:37:20.999Z</time></trkpt><trkpt lat="14.579556884140485" lon="121.05226191494745"><ele>42.0</ele><time>2026-05-05T06:37:21.999Z</time></trkpt><trkpt lat="14.579455219062947" lon="121.05219078916458"><ele>42.0</ele><time>2026-05-05T06:37:22.999Z</time></trkpt><trkpt lat="14.579355870194167" lon="121.0521092035571"><ele>42.0</ele><time>2026-05-05T06:37:23.999Z</time></trkpt><trkpt lat="14.579272363376708" lon="121.05206009010611"><ele>42.5</ele><time>2026-05-05T06:37:24.999Z</time></trkpt><trkpt lat="14.579170464190375" lon="121.05199608394462"><ele>43.0</ele><time>2026-05-05T06:37:25.999Z</time></trkpt><trkpt lat="14.57905991428631" lon="121.0519194256898"><ele>43.5</ele><time>2026-05-05T06:37:26.999Z</time></trkpt><trkpt lat="14.578971532835643" lon="121.05185724483144"><ele>44.0</ele><time>2026-05-05T06:37:27.999Z</time></trkpt><trkpt lat="14.57887829539352" lon="121.0517874907549"><ele>44.0</ele><time>2026-05-05T06:37:28.999Z</time></trkpt><trkpt lat="14.578807195577005" lon="121.05173807319235"><ele>44.0</ele><time>2026-05-05T06:37:30Z</time></trkpt><trkpt lat="14.578728830802598" lon="121.05168552519964"><ele>44.0</ele><time>2026-05-05T06:37:31Z</time></trkpt><trkpt lat="14.578656519498768" lon="121.05163004478693"><ele>44.0</ele><time>2026-05-05T06:37:32Z</time></trkpt><trkpt lat="14.57858376448448" lon="121.05156852119215"><ele>44.0</ele><time>2026-05-05T06:37:33Z</time></trkpt><trkpt lat="14.578514754944921" lon="121.05151282092757"><ele>43.5</ele><time>2026-05-05T06:37:34Z</time></trkpt><trkpt lat="14.578444916813183" lon="121.05147445743208"><ele>43.0</ele><time>2026-05-05T06:37:35Z</time></trkpt><trkpt lat="14.578361246084777" lon="121.05141178893008"><ele>42.5</ele><time>2026-05-05T06:37:36Z</time></trkpt><trkpt lat="14.5782873787212" lon="121.05135827584292"><ele>42.0</ele><time>2026-05-05T06:37:37Z</time></trkpt><trkpt lat="14.578221775859287" lon="121.05130368420826"><ele>41.5</ele><time>2026-05-05T06:37:38Z</time></trkpt><trkpt lat="14.578157334632296" lon="121.05124451985152"><ele>41.0</ele><time>2026-05-05T06:37:39Z</time></trkpt><trkpt lat="14.578103991834071" lon="121.05120587525924"><ele>41.0</ele><time>2026-05-05T06:37:40Z</time></trkpt><trkpt lat="14.57804976096744" lon="121.05116169336488"><ele>41.0</ele><time>2026-05-05T06:37:41Z</time></trkpt><trkpt lat="14.577990477363167" lon="121.0511213851491"><ele>41.0</ele><time>2026-05-05T06:37:42Z</time></trkpt><trkpt lat="14.577927138271733" lon="121.05107297548835"><ele>41.0</ele><time>2026-05-05T06:37:43Z</time></trkpt><trkpt lat="14.57787101028282" lon="121.0510325541622"><ele>41.0</ele><time>2026-05-05T06:37:44Z</time></trkpt><trkpt lat="14.577766265253127" lon="121.05096213340477"><ele>41.0</ele><time>2026-05-05T06:37:46Z</time></trkpt><trkpt lat="14.577711472033913" lon="121.05091437554191"><ele>41.4</ele><time>2026-05-05T06:37:47Z</time></trkpt><trkpt lat="14.57765017025274" lon="121.05085999898824"><ele>41.8</ele><time>2026-05-05T06:37:48Z</time></trkpt><trkpt lat="14.577577047881196" lon="121.05080742639294"><ele>42.199999999999996</ele><time>2026-05-05T06:37:49Z</time></trkpt><trkpt lat="14.57749913402983" lon="121.0507531661479"><ele>42.599999999999994</ele><time>2026-05-05T06:37:50Z</time></trkpt><trkpt lat="14.577422448660318" lon="121.05069097243562"><ele>43.0</ele><time>2026-05-05T06:37:51Z</time></trkpt><trkpt lat="14.577330786028057" lon="121.05062474050527"><ele>43.4</ele><time>2026-05-05T06:37:52Z</time></trkpt><trkpt lat="14.577259062439909" lon="121.05056950960184"><ele>43.8</ele><time>2026-05-05T06:37:53Z</time></trkpt><trkpt lat="14.577169899289514" lon="121.05050352236749"><ele>44.2</ele><time>2026-05-05T06:37:54Z</time></trkpt><trkpt lat="14.57709793861257" lon="121.05044660581237"><ele>44.6</ele><time>2026-05-05T06:37:55Z</time></trkpt><trkpt lat="14.577005968349507" lon="121.05038414339596"><ele>45.0</ele><time>2026-05-05T06:37:56Z</time></trkpt><trkpt lat="14.576914058771493" lon="121.0503178271593"><ele>45.2</ele><time>2026-05-05T06:37:57Z</time></trkpt><trkpt lat="14.576836998355565" lon="121.05025735367722"><ele>45.4</ele><time>2026-05-05T06:37:58Z</time></trkpt><trkpt lat="14.57676669008677" lon="121.05020110270587"><ele>45.599999999999994</ele><time>2026-05-05T06:37:59Z</time></trkpt><trkpt lat="14.576675079678022" lon="121.05013086014328"><ele>45.8</ele><time>2026-05-05T06:38:00Z</time></trkpt><trkpt lat="14.5766021602121" lon="121.0500586631699"><ele>46.0</ele><time>2026-05-05T06:38:01Z</time></trkpt><trkpt lat="14.576499184121568" lon="121.04999736471045"><ele>44.75</ele><time>2026-05-05T06:38:02Z</time></trkpt><trkpt lat="14.576399461298335" lon="121.04993682011897"><ele>43.5</ele><time>2026-05-05T06:38:03Z</time></trkpt><trkpt lat="14.576282953152898" lon="121.04985837495697"><ele>42.25</ele><time>2026-05-05T06:38:04Z</time></trkpt><trkpt lat="14.57617786745471" lon="121.04978177464216"><ele>41.0</ele><time>2026-05-05T06:38:05Z</time></trkpt><trkpt lat="14.576081705913351" lon="121.0497064156236"><ele>40.75</ele><time>2026-05-05T06:38:06Z</time></trkpt><trkpt lat="14.575975200236906" lon="121.04963362038849"><ele>40.5</ele><time>2026-05-05T06:38:07Z</time></trkpt><trkpt lat="14.575868315349622" lon="121.04954210133575"><ele>40.25</ele><time>2026-05-05T06:38:08Z</time></trkpt><trkpt lat="14.575755191633124" lon="121.04946619784559"><ele>40.0</ele><time>2026-05-05T06:38:09Z</time></trkpt><trkpt lat="14.575630209569734" lon="121.04937450436907"><ele>40.0</ele><time>2026-05-05T06:38:10Z</time></trkpt><trkpt lat="14.575532664578114" lon="121.04928739324849"><ele>40.0</ele><time>2026-05-05T06:38:11Z</time></trkpt><trkpt lat="14.575422022888386" lon="121.04920325732547"><ele>40.0</ele><time>2026-05-05T06:38:12Z</time></trkpt><trkpt lat="14.575315324245418" lon="121.04913540088822"><ele>40.0</ele><time>2026-05-05T06:38:13Z</time></trkpt><trkpt lat="14.575210022802125" lon="121.04907300975275"><ele>39.5</ele><time>2026-05-05T06:38:14Z</time></trkpt><trkpt lat="14.575109506260713" lon="121.04899439752784"><ele>39.0</ele><time>2026-05-05T06:38:15Z</time></trkpt><trkpt lat="14.575011510963337" lon="121.04891424907375"><ele>38.5</ele><time>2026-05-05T06:38:16Z</time></trkpt><trkpt lat="14.57491531025862" lon="121.04884984014342"><ele>38.0</ele><time>2026-05-05T06:38:17Z</time></trkpt><trkpt lat="14.574813101947415" lon="121.04876925873455"><ele>38.0</ele><time>2026-05-05T06:38:18Z</time></trkpt><trkpt lat="14.574711033619963" lon="121.04868857326397"><ele>38.0</ele><time>2026-05-05T06:38:19Z</time></trkpt><trkpt lat="14.574622433723162" lon="121.04863617309665"><ele>38.0</ele><time>2026-05-05T06:38:20Z</time></trkpt><trkpt lat="14.574547631331201" lon="121.04858281682887"><ele>38.0</ele><time>2026-05-05T06:38:21Z</time></trkpt><trkpt lat="14.574461058801718" lon="121.04850691466261"><ele>38.0</ele><time>2026-05-05T06:38:22Z</time></trkpt><trkpt lat="14.574365225664202" lon="121.04843608870829"><ele>38.199999999999996</ele><time>2026-05-05T06:38:23Z</time></trkpt><trkpt lat="14.57427920812473" lon="121.04837884247785"><ele>38.4</ele><time>2026-05-05T06:38:24Z</time></trkpt><trkpt lat="14.574201233484276" lon="121.04831548016917"><ele>38.599999999999994</ele><time>2026-05-05T06:38:25Z</time></trkpt><trkpt lat="14.574118172759714" lon="121.04824070946096"><ele>38.8</ele><time>2026-05-05T06:38:26Z</time></trkpt><trkpt lat="14.574044976882245" lon="121.04817717698816"><ele>39.0</ele><time>2026-05-05T06:38:27Z</time></trkpt><trkpt lat="14.573966047160448" lon="121.04813930308154"><ele>39.0</ele><time>2026-05-05T06:38:28Z</time></trkpt><trkpt lat="14.573895332988368" lon="121.0480824898351"><ele>39.0</ele><time>2026-05-05T06:38:29Z</time></trkpt><trkpt lat="14.573835677708551" lon="121.04804052688874"><ele>39.0</ele><time>2026-05-05T06:38:30Z</time></trkpt><trkpt lat="14.573767141494411" lon="121.04799188611493"><ele>39.0</ele><time>2026-05-05T06:38:31Z</time></trkpt><trkpt lat="14.57369999445301" lon="121.04794924874429"><ele>39.0</ele><time>2026-05-05T06:38:32Z</time></trkpt><trkpt lat="14.573619801630981" lon="121.04791362472203"><ele>39.0</ele><time>2026-05-05T06:38:33.001Z</time></trkpt><trkpt lat="14.573554882713369" lon="121.04786235467769"><ele>38.6</ele><time>2026-05-05T06:38:34.001Z</time></trkpt><trkpt lat="14.573489219900361" lon="121.04781163512885"><ele>38.2</ele><time>2026-05-05T06:38:35.001Z</time></trkpt><trkpt lat="14.573416141560124" lon="121.04775996330436"><ele>37.800000000000004</ele><time>2026-05-05T06:38:36.001Z</time></trkpt><trkpt lat="14.573339943161367" lon="121.04771644644306"><ele>37.4</ele><time>2026-05-05T06:38:37.001Z</time></trkpt><trkpt lat="14.573255468513947" lon="121.04767581668227"><ele>37.0</ele><time>2026-05-05T06:38:38.001Z</time></trkpt><trkpt lat="14.573161796356304" lon="121.04764038661799"><ele>37.0</ele><time>2026-05-05T06:38:39.001Z</time></trkpt><trkpt lat="14.573068967439438" lon="121.04757974181089"><ele>37.0</ele><time>2026-05-05T06:38:40.001Z</time></trkpt><trkpt lat="14.572961461461453" lon="121.04751018789527"><ele>37.0</ele><time>2026-05-05T06:38:41.001Z</time></trkpt><trkpt lat="14.572852611428841" lon="121.04744592027505"><ele>37.0</ele><time>2026-05-05T06:38:42.001Z</time></trkpt><trkpt lat="14.572755383556787" lon="121.04739004414054"><ele>36.0</ele><time>2026-05-05T06:38:43.001Z</time></trkpt><trkpt lat="14.572665312025302" lon="121.04735248070045"><ele>35.0</ele><time>2026-05-05T06:38:44.001Z</time></trkpt><trkpt lat="14.572564823391962" lon="121.04729426031125"><ele>34.0</ele><time>2026-05-05T06:38:45.001Z</time></trkpt><trkpt lat="14.572459229298028" lon="121.0472279956889"><ele>33.0</ele><time>2026-05-05T06:38:46.001Z</time></trkpt><trkpt lat="14.572370999400444" lon="121.04718615438817"><ele>32.0</ele><time>2026-05-05T06:38:47.001Z</time></trkpt><trkpt lat="14.572275812147527" lon="121.04714799480172"><ele>32.0</ele><time>2026-05-05T06:38:48.001Z</time></trkpt><trkpt lat="14.57218636770431" lon="121.04710180508746"><ele>32.0</ele><time>2026-05-05T06:38:49.001Z</time></trkpt><trkpt lat="14.572085356423333" lon="121.04704975214237"><ele>32.0</ele><time>2026-05-05T06:38:50.001Z</time></trkpt><trkpt lat="14.571986724882324" lon="121.04699162870372"><ele>32.0</ele><time>2026-05-05T06:38:51.001Z</time></trkpt><trkpt lat="14.571911723502522" lon="121.0469634240241"><ele>32.0</ele><time>2026-05-05T06:38:52.001Z</time></trkpt><trkpt lat="14.571819518728283" lon="121.04692442380352"><ele>32.2</ele><time>2026-05-05T06:38:53.001Z</time></trkpt><trkpt lat="14.571721557919034" lon="121.0468864110411"><ele>32.400000000000006</ele><time>2026-05-05T06:38:54.001Z</time></trkpt><trkpt lat="14.571626132947445" lon="121.04684591097187"><ele>32.599999999999994</ele><time>2026-05-05T06:38:55.001Z</time></trkpt><trkpt lat="14.571534474293731" lon="121.04680879140228"><ele>32.8</ele><time>2026-05-05T06:38:56.001Z</time></trkpt><trkpt lat="14.571444853510727" lon="121.04677720250173"><ele>33.0</ele><time>2026-05-05T06:38:57.001Z</time></trkpt><trkpt lat="14.571351365206802" lon="121.0467328224032"><ele>33.0</ele><time>2026-05-05T06:38:58.001Z</time></trkpt><trkpt lat="14.57128364327852" lon="121.04672079487403"><ele>33.0</ele><time>2026-05-05T06:38:59.001Z</time></trkpt><trkpt lat="14.57118383645017" lon="121.04666952035052"><ele>33.0</ele><time>2026-05-05T06:39:01.001Z</time></trkpt><trkpt lat="14.571090843829293" lon="121.04663514429345"><ele>33.0</ele><time>2026-05-05T06:39:03.001Z</time></trkpt><trkpt lat="14.571009591888544" lon="121.04659732497964"><ele>33.0</ele><time>2026-05-05T06:39:04.001Z</time></trkpt><trkpt lat="14.570932346394613" lon="121.04656667256393"><ele>31.5</ele><time>2026-05-05T06:39:05.001Z</time></trkpt><trkpt lat="14.570863218991539" lon="121.04653901264915"><ele>30.0</ele><time>2026-05-05T06:39:06.001Z</time></trkpt><trkpt lat="14.570773492572647" lon="121.04651126046613"><ele>28.5</ele><time>2026-05-05T06:39:07.001Z</time></trkpt><trkpt lat="14.570677670093934" lon="121.04648471121331"><ele>27.0</ele><time>2026-05-05T06:39:08.001Z</time></trkpt><trkpt lat="14.570588717061435" lon="121.04645650960882"><ele>25.5</ele><time>2026-05-05T06:39:09.001Z</time></trkpt><trkpt lat="14.570512664953592" lon="121.04643186499486"><ele>24.0</ele><time>2026-05-05T06:39:10.001Z</time></trkpt><trkpt lat="14.570431431147092" lon="121.04640707754673"><ele>22.8</ele><time>2026-05-05T06:39:11.001Z</time></trkpt><trkpt lat="14.57031044562475" lon="121.04637536762402"><ele>21.599999999999998</ele><time>2026-05-05T06:39:13.001Z</time></trkpt><trkpt lat="14.570188545632783" lon="121.04633384893793"><ele>20.4</ele><time>2026-05-05T06:39:15.001Z</time></trkpt><trkpt lat="14.570113241706427" lon="121.04631543284117"><ele>19.2</ele><time>2026-05-05T06:39:16.001Z</time></trkpt><trkpt lat="14.570029849716862" lon="121.04629507393004"><ele>18.0</ele><time>2026-05-05T06:39:17.001Z</time></trkpt><trkpt lat="14.569949060628302" lon="121.04627067253557"><ele>18.0</ele><time>2026-05-05T06:39:18.001Z</time></trkpt><trkpt lat="14.569845322923252" lon="121.04625775272729"><ele>18.0</ele><time>2026-05-05T06:39:19Z</time></trkpt><trkpt lat="14.569739486502527" lon="121.04625591300075"><ele>18.0</ele><time>2026-05-05T06:39:20Z</time></trkpt><trkpt lat="14.569667840234352" lon="121.04621918546324"><ele>18.0</ele><time>2026-05-05T06:39:21Z</time></trkpt><trkpt lat="14.569592734556183" lon="121.0461957882766"><ele>18.0</ele><time>2026-05-05T06:39:22Z</time></trkpt><trkpt lat="14.569493661863177" lon="121.04618823959603"><ele>16.5</ele><time>2026-05-05T06:39:23Z</time></trkpt><trkpt lat="14.569385190203406" lon="121.04617165513035"><ele>15.0</ele><time>2026-05-05T06:39:24Z</time></trkpt><trkpt lat="14.569288752774675" lon="121.04611599753649"><ele>13.5</ele><time>2026-05-05T06:39:25Z</time></trkpt><trkpt lat="14.569170295909569" lon="121.04608016215295"><ele>12.0</ele><time>2026-05-05T06:39:26Z</time></trkpt><trkpt lat="14.569062374494722" lon="121.04604243737653"><ele>12.0</ele><time>2026-05-05T06:39:27Z</time></trkpt><trkpt lat="14.568976925460586" lon="121.04601395173663"><ele>12.0</ele><time>2026-05-05T06:39:28Z</time></trkpt><trkpt lat="14.568893390666164" lon="121.04600150133426"><ele>12.0</ele><time>2026-05-05T06:39:29Z</time></trkpt><trkpt lat="14.568819993684205" lon="121.0459842686867"><ele>12.0</ele><time>2026-05-05T06:39:30Z</time></trkpt><trkpt lat="14.568741153580744" lon="121.04596805863537"><ele>12.0</ele><time>2026-05-05T06:39:31Z</time></trkpt><trkpt lat="14.568674229049222" lon="121.04594442380765"><ele>12.0</ele><time>2026-05-05T06:39:32Z</time></trkpt><trkpt lat="14.56859881857913" lon="121.04592385501937"><ele>11.333333333333334</ele><time>2026-05-05T06:39:33Z</time></trkpt><trkpt lat="14.568524073891346" lon="121.04590169019312"><ele>10.666666666666666</ele><time>2026-05-05T06:39:34Z</time></trkpt><trkpt lat="14.568446826592487" lon="121.04588092981"><ele>10.0</ele><time>2026-05-05T06:39:35Z</time></trkpt><trkpt lat="14.568360323344155" lon="121.04585688482784"><ele>9.333333333333332</ele><time>2026-05-05T06:39:36Z</time></trkpt><trkpt lat="14.56828496568059" lon="121.04583440026185"><ele>8.666666666666666</ele><time>2026-05-05T06:39:37Z</time></trkpt><trkpt lat="14.568207990070375" lon="121.04581415100614"><ele>8.0</ele><time>2026-05-05T06:39:38Z</time></trkpt><trkpt lat="14.568147307352467" lon="121.04579477666658"><ele>7.999999999999999</ele><time>2026-05-05T06:39:39Z</time></trkpt><trkpt lat="14.568078955392625" lon="121.04577592205474"><ele>8.0</ele><time>2026-05-05T06:39:40Z</time></trkpt><trkpt lat="14.567965989972953" lon="121.04574572892354"><ele>8.0</ele><time>2026-05-05T06:39:42Z</time></trkpt><trkpt lat="14.567875708974446" lon="121.04571816382553"><ele>8.0</ele><time>2026-05-05T06:39:44Z</time></trkpt><trkpt lat="14.567807351549783" lon="121.04570189666897"><ele>7.999999999999999</ele><time>2026-05-05T06:39:46Z</time></trkpt><trkpt lat="14.567726267707476" lon="121.0456712184912"><ele>8.0</ele><time>2026-05-05T06:39:48Z</time></trkpt><trkpt lat="14.567606162773645" lon="121.04563426836937"><ele>11.0</ele><time>2026-05-05T06:39:50Z</time></trkpt><trkpt lat="14.56753663474103" lon="121.04561289319342"><ele>14.0</ele><time>2026-05-05T06:39:51Z</time></trkpt><trkpt lat="14.567444540339824" lon="121.04559174823355"><ele>17.0</ele><time>2026-05-05T06:39:52Z</time></trkpt><trkpt lat="14.567351547169201" lon="121.04556741371462"><ele>20.0</ele><time>2026-05-05T06:39:53Z</time></trkpt><trkpt lat="14.567256398393557" lon="121.04554720618191"><ele>23.0</ele><time>2026-05-05T06:39:54Z</time></trkpt><trkpt lat="14.567161193928083" lon="121.04552488771972"><ele>23.0</ele><time>2026-05-05T06:39:55Z</time></trkpt><trkpt lat="14.56708542341042" lon="121.04550117633372"><ele>23.0</ele><time>2026-05-05T06:39:56Z</time></trkpt><trkpt lat="14.566997000759283" lon="121.04546549711355"><ele>23.0</ele><time>2026-05-05T06:39:58Z</time></trkpt><trkpt lat="14.566896775049747" lon="121.04541177836218"><ele>23.0</ele><time>2026-05-05T06:40:00Z</time></trkpt><trkpt lat="14.566760645413588" lon="121.04538343206494"><ele>23.0</ele><time>2026-05-05T06:40:02Z</time></trkpt><trkpt lat="14.566700119816579" lon="121.04536093979159"><ele>23.333333333333336</ele><time>2026-05-05T06:40:03Z</time></trkpt><trkpt lat="14.566633175953763" lon="121.04533485623061"><ele>23.666666666666668</ele><time>2026-05-05T06:40:04Z</time></trkpt><trkpt lat="14.566561763551508" lon="121.04530542644034"><ele>24.0</ele><time>2026-05-05T06:40:05Z</time></trkpt><trkpt lat="14.566449754901786" lon="121.0452438909173"><ele>24.333333333333336</ele><time>2026-05-05T06:40:06Z</time></trkpt><trkpt lat="14.56638446404136" lon="121.04525156564341"><ele>24.666666666666668</ele><time>2026-05-05T06:40:07Z</time></trkpt><trkpt lat="14.566314267872096" lon="121.04524568176078"><ele>25.0</ele><time>2026-05-05T06:40:08Z</time></trkpt><trkpt lat="14.56624240737345" lon="121.04522952971685"><ele>24.500000000000004</ele><time>2026-05-05T06:40:09Z</time></trkpt><trkpt lat="14.566166436671653" lon="121.04520857371892"><ele>24.0</ele><time>2026-05-05T06:40:10Z</time></trkpt><trkpt lat="14.566050143279748" lon="121.04516589374448"><ele>23.5</ele><time>2026-05-05T06:40:12Z</time></trkpt><trkpt lat="14.565962339205534" lon="121.04513644161106"><ele>23.0</ele><time>2026-05-05T06:40:13Z</time></trkpt><trkpt lat="14.565878583604313" lon="121.04512171930621"><ele>22.5</ele><time>2026-05-05T06:40:14Z</time></trkpt><trkpt lat="14.565827109795281" lon="121.04508424470168"><ele>22.0</ele><time>2026-05-05T06:40:15Z</time></trkpt><trkpt lat="14.565748561931468" lon="121.04505348730218"><ele>22.0</ele><time>2026-05-05T06:40:16Z</time></trkpt><trkpt lat="14.565650480634979" lon="121.04503365789782"><ele>22.0</ele><time>2026-05-05T06:40:17Z</time></trkpt><trkpt lat="14.565555439331822" lon="121.04501382967207"><ele>22.0</ele><time>2026-05-05T06:40:18Z</time></trkpt><trkpt lat="14.565452413001745" lon="121.04499879934887"><ele>22.0</ele><time>2026-05-05T06:40:19Z</time></trkpt><trkpt lat="14.565353163355983" lon="121.04495664165002"><ele>22.0</ele><time>2026-05-05T06:40:20Z</time></trkpt><trkpt lat="14.565241058886475" lon="121.04491879919686"><ele>22.0</ele><time>2026-05-05T06:40:21Z</time></trkpt><trkpt lat="14.565131504756502" lon="121.04487265610484"><ele>22.0</ele><time>2026-05-05T06:40:22Z</time></trkpt><trkpt lat="14.565027311443536" lon="121.04482486308457"><ele>22.0</ele><time>2026-05-05T06:40:23Z</time></trkpt><trkpt lat="14.564922908732685" lon="121.04480565290535"><ele>22.0</ele><time>2026-05-05T06:40:24Z</time></trkpt><trkpt lat="14.564828450741917" lon="121.04477667016963"><ele>22.0</ele><time>2026-05-05T06:40:25Z</time></trkpt><trkpt lat="14.564736533806673" lon="121.04474156613196"><ele>22.0</ele><time>2026-05-05T06:40:26Z</time></trkpt><trkpt lat="14.564640437513786" lon="121.04470328176396"><ele>22.0</ele><time>2026-05-05T06:40:27Z</time></trkpt><trkpt lat="14.564536283015126" lon="121.04465933474232"><ele>22.0</ele><time>2026-05-05T06:40:28Z</time></trkpt><trkpt lat="14.564431678189468" lon="121.04460949766053"><ele>22.0</ele><time>2026-05-05T06:40:29Z</time></trkpt><trkpt lat="14.564318469393363" lon="121.0445618056572"><ele>22.75</ele><time>2026-05-05T06:40:30Z</time></trkpt><trkpt lat="14.564216362878598" lon="121.04450822244287"><ele>23.5</ele><time>2026-05-05T06:40:31Z</time></trkpt><trkpt lat="14.564112700361488" lon="121.04445694323452"><ele>24.25</ele><time>2026-05-05T06:40:32Z</time></trkpt><trkpt lat="14.564017629738085" lon="121.04440700363504"><ele>25.0</ele><time>2026-05-05T06:40:33.001Z</time></trkpt><trkpt lat="14.56390144934778" lon="121.04435630901696"><ele>25.0</ele><time>2026-05-05T06:40:34.001Z</time></trkpt><trkpt lat="14.563791249452008" lon="121.04430667070748"><ele>25.0</ele><time>2026-05-05T06:40:35.001Z</time></trkpt><trkpt lat="14.563704724528181" lon="121.04423571650722"><ele>25.0</ele><time>2026-05-05T06:40:36.001Z</time></trkpt><trkpt lat="14.563619337974135" lon="121.04416921136816"><ele>25.0</ele><time>2026-05-05T06:40:37.001Z</time></trkpt><trkpt lat="14.56350513591719" lon="121.0441224701234"><ele>24.666666666666668</ele><time>2026-05-05T06:40:38.001Z</time></trkpt><trkpt lat="14.563412049409555" lon="121.04407774003975"><ele>24.333333333333336</ele><time>2026-05-05T06:40:39.001Z</time></trkpt><trkpt lat="14.56333683419298" lon="121.04402065518983"><ele>24.0</ele><time>2026-05-05T06:40:40.001Z</time></trkpt><trkpt lat="14.56326322449581" lon="121.04398422622533"><ele>23.666666666666668</ele><time>2026-05-05T06:40:41.001Z</time></trkpt><trkpt lat="14.563204769271993" lon="121.04394794743882"><ele>23.333333333333336</ele><time>2026-05-05T06:40:42.001Z</time></trkpt><trkpt lat="14.563145508760163" lon="121.04390710356742"><ele>23.0</ele><time>2026-05-05T06:40:43.001Z</time></trkpt><trkpt lat="14.563085365260521" lon="121.04386435311623"><ele>23.0</ele><time>2026-05-05T06:40:44.001Z</time></trkpt><trkpt lat="14.563036185977014" lon="121.04381900171751"><ele>23.0</ele><time>2026-05-05T06:40:45.001Z</time></trkpt><trkpt lat="14.56297538272655" lon="121.04377784925904"><ele>23.0</ele><time>2026-05-05T06:40:46.001Z</time></trkpt><trkpt lat="14.562917360209639" lon="121.0437380690174"><ele>23.0</ele><time>2026-05-05T06:40:47.001Z</time></trkpt><trkpt lat="14.562863737390725" lon="121.04370183776098"><ele>23.0</ele><time>2026-05-05T06:40:48.001Z</time></trkpt><trkpt lat="14.562768938931503" lon="121.04362107724099"><ele>23.0</ele><time>2026-05-05T06:40:50.001Z</time></trkpt><trkpt lat="14.562716030877919" lon="121.04358350023138"><ele>22.799999999999997</ele><time>2026-05-05T06:40:51.001Z</time></trkpt><trkpt lat="14.562652473806512" lon="121.04353205829791"><ele>22.6</ele><time>2026-05-05T06:40:53.001Z</time></trkpt><trkpt lat="14.562599258990605" lon="121.04346887706434"><ele>22.4</ele><time>2026-05-05T06:40:55.001Z</time></trkpt><trkpt lat="14.562514370807424" lon="121.04339823715975"><ele>22.200000000000003</ele><time>2026-05-05T06:40:57.001Z</time></trkpt><trkpt lat="14.562455252411578" lon="121.04335529528666"><ele>22.0</ele><time>2026-05-05T06:40:58.001Z</time></trkpt><trkpt lat="14.562354574410755" lon="121.04327503740708"><ele>22.166666666666664</ele><time>2026-05-05T06:41:00.001Z</time></trkpt><trkpt lat="14.562300896790145" lon="121.04323337996551"><ele>22.333333333333332</ele><time>2026-05-05T06:41:01.001Z</time></trkpt><trkpt lat="14.562219184704052" lon="121.04317124841106"><ele>22.5</ele><time>2026-05-05T06:41:03.001Z</time></trkpt><trkpt lat="14.56216102417502" lon="121.04314066906139"><ele>22.666666666666668</ele><time>2026-05-05T06:41:06.001Z</time></trkpt><trkpt lat="14.562106719414652" lon="121.04309362929126"><ele>22.833333333333336</ele><time>2026-05-05T06:41:09.001Z</time></trkpt><trkpt lat="14.562039911868997" lon="121.04304044992446"><ele>23.0</ele><time>2026-05-05T06:41:14.001Z</time></trkpt><trkpt lat="14.561972232110062" lon="121.04295994400174"><ele>23.0</ele><time>2026-05-05T06:41:17.001Z</time></trkpt><trkpt lat="14.56190649612958" lon="121.04290125628228"><ele>23.0</ele><time>2026-05-05T06:41:20.001Z</time></trkpt><trkpt lat="14.561840692737858" lon="121.04284696849061"><ele>23.0</ele><time>2026-05-05T06:41:22.001Z</time></trkpt><trkpt lat="14.56175560149184" lon="121.04278278761433"><ele>23.0</ele><time>2026-05-05T06:41:24.001Z</time></trkpt><trkpt lat="14.561698178138698" lon="121.04273156030784"><ele>23.0</ele><time>2026-05-05T06:41:25Z</time></trkpt><trkpt lat="14.56163394486266" lon="121.04265741618103"><ele>23.0</ele><time>2026-05-05T06:41:26Z</time></trkpt><trkpt lat="14.561563526552119" lon="121.04256822956104"><ele>23.0</ele><time>2026-05-05T06:41:27Z</time></trkpt><trkpt lat="14.56147074349463" lon="121.0424702495248"><ele>23.0</ele><time>2026-05-05T06:41:28Z</time></trkpt><trkpt lat="14.561379169564379" lon="121.04236744870782"><ele>23.0</ele><time>2026-05-05T06:41:29Z</time></trkpt><trkpt lat="14.561279802327112" lon="121.04225467935558"><ele>23.0</ele><time>2026-05-05T06:41:30Z</time></trkpt><trkpt lat="14.561174343358314" lon="121.04213568911226"><ele>19.75</ele><time>2026-05-05T06:41:31Z</time></trkpt><trkpt lat="14.56108629390283" lon="121.0420297227945"><ele>16.5</ele><time>2026-05-05T06:41:32Z</time></trkpt><trkpt lat="14.560986948223999" lon="121.04191303743254"><ele>13.25</ele><time>2026-05-05T06:41:33Z</time></trkpt><trkpt lat="14.560887399863157" lon="121.04179396307066"><ele>10.0</ele><time>2026-05-05T06:41:34Z</time></trkpt><trkpt lat="14.560784219632433" lon="121.04167149797735"><ele>10.75</ele><time>2026-05-05T06:41:35Z</time></trkpt><trkpt lat="14.560686911189777" lon="121.04155681522293"><ele>11.5</ele><time>2026-05-05T06:41:36Z</time></trkpt><trkpt lat="14.560588342179276" lon="121.04144893567548"><ele>12.25</ele><time>2026-05-05T06:41:37Z</time></trkpt><trkpt lat="14.560488262511052" lon="121.04134262970746"><ele>13.0</ele><time>2026-05-05T06:41:38Z</time></trkpt><trkpt lat="14.56038467873816" lon="121.0412285227338"><ele>14.666666666666666</ele><time>2026-05-05T06:41:39Z</time></trkpt><trkpt lat="14.560285778115627" lon="121.04111654058268"><ele>16.333333333333332</ele><time>2026-05-05T06:41:40Z</time></trkpt><trkpt lat="14.560183579789825" lon="121.04099605466654"><ele>18.0</ele><time>2026-05-05T06:41:41Z</time></trkpt><trkpt lat="14.56008543808526" lon="121.04087698730102"><ele>17.5</ele><time>2026-05-05T06:41:42Z</time></trkpt><trkpt lat="14.559989187399276" lon="121.04076120593835"><ele>17.0</ele><time>2026-05-05T06:41:43Z</time></trkpt><trkpt lat="14.559901517719178" lon="121.0406601577849"><ele>16.5</ele><time>2026-05-05T06:41:44Z</time></trkpt><trkpt lat="14.559815161485359" lon="121.0405639351218"><ele>16.0</ele><time>2026-05-05T06:41:45Z</time></trkpt><trkpt lat="14.559734084899928" lon="121.04047379908647"><ele>16.0</ele><time>2026-05-05T06:41:46Z</time></trkpt><trkpt lat="14.559648393927898" lon="121.04039240405635"><ele>16.0</ele><time>2026-05-05T06:41:47Z</time></trkpt><trkpt lat="14.559585303908515" lon="121.04030849871879"><ele>16.0</ele><time>2026-05-05T06:41:48Z</time></trkpt><trkpt lat="14.559509661746715" lon="121.04019756191464"><ele>16.0</ele><time>2026-05-05T06:41:49Z</time></trkpt><trkpt lat="14.559420795474468" lon="121.0400964727933"><ele>16.0</ele><time>2026-05-05T06:41:50Z</time></trkpt><trkpt lat="14.55934401994481" lon="121.04000085882396"><ele>16.0</ele><time>2026-05-05T06:41:51Z</time></trkpt><trkpt lat="14.559260070132037" lon="121.03990081658766"><ele>16.0</ele><time>2026-05-05T06:41:52Z</time></trkpt><trkpt lat="14.559180719166669" lon="121.03980796894793"><ele>16.0</ele><time>2026-05-05T06:41:53Z</time></trkpt><trkpt lat="14.559111987108173" lon="121.03971788632084"><ele>17.0</ele><time>2026-05-05T06:41:54Z</time></trkpt><trkpt lat="14.559044850483499" lon="121.03963175185113"><ele>18.0</ele><time>2026-05-05T06:41:55Z</time></trkpt><trkpt lat="14.558970848270498" lon="121.03955407184989"><ele>19.0</ele><time>2026-05-05T06:41:56Z</time></trkpt><trkpt lat="14.55889365525916" lon="121.03946820324278"><ele>20.0</ele><time>2026-05-05T06:41:57Z</time></trkpt><trkpt lat="14.558820725802223" lon="121.03938296089167"><ele>21.0</ele><time>2026-05-05T06:41:58Z</time></trkpt><trkpt lat="14.558742448407388" lon="121.03929005017885"><ele>21.0</ele><time>2026-05-05T06:41:59Z</time></trkpt><trkpt lat="14.558658258335218" lon="121.03918688632147"><ele>21.0</ele><time>2026-05-05T06:42:00Z</time></trkpt><trkpt lat="14.558581138242046" lon="121.03908547580818"><ele>21.0</ele><time>2026-05-05T06:42:01Z</time></trkpt><trkpt lat="14.558511687055939" lon="121.03899734725127"><ele>21.0</ele><time>2026-05-05T06:42:02Z</time></trkpt><trkpt lat="14.558446355138987" lon="121.03891363877014"><ele>21.0</ele><time>2026-05-05T06:42:03Z</time></trkpt><trkpt lat="14.558381850362329" lon="121.038830343904"><ele>21.0</ele><time>2026-05-05T06:42:04Z</time></trkpt><trkpt lat="14.558311148905997" lon="121.03874594260277"><ele>21.0</ele><time>2026-05-05T06:42:05Z</time></trkpt><trkpt lat="14.558243334228392" lon="121.03866684041083"><ele>21.0</ele><time>2026-05-05T06:42:06Z</time></trkpt><trkpt lat="14.558176956218514" lon="121.03858759689993"><ele>21.0</ele><time>2026-05-05T06:42:07Z</time></trkpt><trkpt lat="14.558111949460162" lon="121.03851340348214"><ele>21.0</ele><time>2026-05-05T06:42:08Z</time></trkpt><trkpt lat="14.558050201714885" lon="121.03843892151359"><ele>21.0</ele><time>2026-05-05T06:42:09Z</time></trkpt><trkpt lat="14.557991478270868" lon="121.03836840480672"><ele>21.0</ele><time>2026-05-05T06:42:10Z</time></trkpt><trkpt lat="14.557936843081169" lon="121.03830093677055"><ele>21.0</ele><time>2026-05-05T06:42:11Z</time></trkpt><trkpt lat="14.557886466515164" lon="121.03823121226142"><ele>21.0</ele><time>2026-05-05T06:42:12Z</time></trkpt><trkpt lat="14.55783504724404" lon="121.03816866825534"><ele>21.0</ele><time>2026-05-05T06:42:13Z</time></trkpt><trkpt lat="14.557789676525083" lon="121.03811320641614"><ele>22.4</ele><time>2026-05-05T06:42:14Z</time></trkpt><trkpt lat="14.557746654990881" lon="121.03806049479822"><ele>23.8</ele><time>2026-05-05T06:42:15Z</time></trkpt><trkpt lat="14.557675021729692" lon="121.03796981511717"><ele>25.199999999999996</ele><time>2026-05-05T06:42:17Z</time></trkpt><trkpt lat="14.557614519998824" lon="121.03789485586279"><ele>26.599999999999998</ele><time>2026-05-05T06:42:19Z</time></trkpt><trkpt lat="14.557558965495875" lon="121.03782176098059"><ele>28.0</ele><time>2026-05-05T06:42:21Z</time></trkpt><trkpt lat="14.557506907271723" lon="121.03772658924822"><ele>28.0</ele><time>2026-05-05T06:42:23Z</time></trkpt><trkpt lat="14.557456022481565" lon="121.03766615123821"><ele>27.999999999999996</ele><time>2026-05-05T06:42:24.001Z</time></trkpt><trkpt lat="14.55739916493429" lon="121.03759943423016"><ele>27.999999999999996</ele><time>2026-05-05T06:42:25.001Z</time></trkpt><trkpt lat="14.557325174122417" lon="121.03751598572536"><ele>28.0</ele><time>2026-05-05T06:42:26.001Z</time></trkpt><trkpt lat="14.557248164017933" lon="121.03743514557644"><ele>28.0</ele><time>2026-05-05T06:42:27.001Z</time></trkpt><trkpt lat="14.557182135057719" lon="121.0373544725797"><ele>27.799999999999997</ele><time>2026-05-05T06:42:28.001Z</time></trkpt><trkpt lat="14.557123169798906" lon="121.03728133546032"><ele>27.599999999999998</ele><time>2026-05-05T06:42:29.001Z</time></trkpt><trkpt lat="14.557064894888276" lon="121.03720777080811"><ele>27.400000000000002</ele><time>2026-05-05T06:42:30.001Z</time></trkpt><trkpt lat="14.557013385876557" lon="121.03713945980438"><ele>27.200000000000003</ele><time>2026-05-05T06:42:31.001Z</time></trkpt><trkpt lat="14.556938350202717" lon="121.03706067566789"><ele>27.0</ele><time>2026-05-05T06:42:32.001Z</time></trkpt><trkpt lat="14.556876975828267" lon="121.0369878336008"><ele>26.8</ele><time>2026-05-05T06:42:33.001Z</time></trkpt><trkpt lat="14.556813006193927" lon="121.03691142060113"><ele>26.6</ele><time>2026-05-05T06:42:34.001Z</time></trkpt><trkpt lat="14.556745031562977" lon="121.03683348811677"><ele>26.400000000000002</ele><time>2026-05-05T06:42:35.001Z</time></trkpt><trkpt lat="14.556687155257144" lon="121.03676398556057"><ele>26.200000000000003</ele><time>2026-05-05T06:42:36.001Z</time></trkpt><trkpt lat="14.556634760643705" lon="121.03670222098842"><ele>26.0</ele><time>2026-05-05T06:42:37.001Z</time></trkpt><trkpt lat="14.556575756776498" lon="121.03663272629197"><ele>26.0</ele><time>2026-05-05T06:42:38.001Z</time></trkpt><trkpt lat="14.556514226585977" lon="121.03655974188052"><ele>26.0</ele><time>2026-05-05T06:42:39.001Z</time></trkpt><trkpt lat="14.556455506633565" lon="121.03648813831865"><ele>26.0</ele><time>2026-05-05T06:42:40.001Z</time></trkpt><trkpt lat="14.556386778210262" lon="121.03640831612135"><ele>26.0</ele><time>2026-05-05T06:42:41.001Z</time></trkpt><trkpt lat="14.556322475838947" lon="121.03633728495434"><ele>26.0</ele><time>2026-05-05T06:42:42.001Z</time></trkpt><trkpt lat="14.556262299033834" lon="121.03626915596536"><ele>26.0</ele><time>2026-05-05T06:42:43.001Z</time></trkpt><trkpt lat="14.556207893551274" lon="121.03620582240623"><ele>26.0</ele><time>2026-05-05T06:42:44.001Z</time></trkpt><trkpt lat="14.556153934537674" lon="121.03613884577393"><ele>26.0</ele><time>2026-05-05T06:42:45.001Z</time></trkpt><trkpt lat="14.556089386586502" lon="121.03606159948075"><ele>26.0</ele><time>2026-05-05T06:42:46.001Z</time></trkpt><trkpt lat="14.556024170108717" lon="121.03597909274131"><ele>26.0</ele><time>2026-05-05T06:42:47.001Z</time></trkpt><trkpt lat="14.555958486501863" lon="121.03590206240656"><ele>25.5</ele><time>2026-05-05T06:42:48.001Z</time></trkpt><trkpt lat="14.555890117776878" lon="121.03581720483047"><ele>25.0</ele><time>2026-05-05T06:42:49.001Z</time></trkpt><trkpt lat="14.555809032813631" lon="121.03572072061688"><ele>24.5</ele><time>2026-05-05T06:42:50.001Z</time></trkpt><trkpt lat="14.555730972747678" lon="121.03563078784194"><ele>24.0</ele><time>2026-05-05T06:42:51.001Z</time></trkpt><trkpt lat="14.555662544686822" lon="121.03554803704637"><ele>24.2</ele><time>2026-05-05T06:42:52.001Z</time></trkpt><trkpt lat="14.555596787696157" lon="121.03546802288898"><ele>24.4</ele><time>2026-05-05T06:42:53.001Z</time></trkpt><trkpt lat="14.555538061446635" lon="121.03539872944388"><ele>24.6</ele><time>2026-05-05T06:42:54.001Z</time></trkpt><trkpt lat="14.55548792869484" lon="121.03534216482302"><ele>24.8</ele><time>2026-05-05T06:42:55.001Z</time></trkpt><trkpt lat="14.55541421997053" lon="121.03526623466419"><ele>25.0</ele><time>2026-05-05T06:42:57.001Z</time></trkpt><trkpt lat="14.555358115232012" lon="121.03518995689888"><ele>25.0</ele><time>2026-05-05T06:42:59.001Z</time></trkpt><trkpt lat="14.555288664634562" lon="121.03510033388335"><ele>25.0</ele><time>2026-05-05T06:43:01.001Z</time></trkpt><trkpt lat="14.555246610634677" lon="121.03504720716043"><ele>25.0</ele><time>2026-05-05T06:43:02.001Z</time></trkpt><trkpt lat="14.555167465574613" lon="121.03495170850562"><ele>25.0</ele><time>2026-05-05T06:43:04.001Z</time></trkpt><trkpt lat="14.555118402217747" lon="121.03489068266123"><ele>25.0</ele><time>2026-05-05T06:43:05.001Z</time></trkpt><trkpt lat="14.555072698927493" lon="121.0348276050208"><ele>24.333333333333336</ele><time>2026-05-05T06:43:07.001Z</time></trkpt><trkpt lat="14.555013629754958" lon="121.03478316650123"><ele>23.666666666666668</ele><time>2026-05-05T06:43:08.001Z</time></trkpt><trkpt lat="14.55495294083057" lon="121.03472789832476"><ele>23.0</ele><time>2026-05-05T06:43:11.001Z</time></trkpt><trkpt lat="14.554901272697874" lon="121.03467219604492"><ele>22.333333333333336</ele><time>2026-05-05T06:43:14.001Z</time></trkpt><trkpt lat="14.554844216954862" lon="121.03460931724935"><ele>21.666666666666668</ele><time>2026-05-05T06:43:17.001Z</time></trkpt><trkpt lat="14.554760039176479" lon="121.03451363665849"><ele>21.0</ele><time>2026-05-05T06:43:19.001Z</time></trkpt><trkpt lat="14.554707609787894" lon="121.0344601775131"><ele>21.0</ele><time>2026-05-05T06:43:20.001Z</time></trkpt><trkpt lat="14.554655845679699" lon="121.03440561868523"><ele>21.0</ele><time>2026-05-05T06:43:21.001Z</time></trkpt><trkpt lat="14.554601945267331" lon="121.03435373280684"><ele>21.0</ele><time>2026-05-05T06:43:22.001Z</time></trkpt><trkpt lat="14.55455540825895" lon="121.03430804975054"><ele>21.0</ele><time>2026-05-05T06:43:23.001Z</time></trkpt><trkpt lat="14.554461183141578" lon="121.03422518107774"><ele>21.0</ele><time>2026-05-05T06:43:25.001Z</time></trkpt><trkpt lat="14.554407230709089" lon="121.03417290214725"><ele>21.0</ele><time>2026-05-05T06:43:26.001Z</time></trkpt><trkpt lat="14.554338522758224" lon="121.03410216912998"><ele>21.75</ele><time>2026-05-05T06:43:27.001Z</time></trkpt><trkpt lat="14.554263097335314" lon="121.03401656784993"><ele>22.5</ele><time>2026-05-05T06:43:28.001Z</time></trkpt><trkpt lat="14.554179093075328" lon="121.0339198113131"><ele>23.25</ele><time>2026-05-05T06:43:29.001Z</time></trkpt><trkpt lat="14.554083969140981" lon="121.03381753312186"><ele>24.0</ele><time>2026-05-05T06:43:30.001Z</time></trkpt><trkpt lat="14.553989377670696" lon="121.03367419982443"><ele>24.0</ele><time>2026-05-05T06:43:31Z</time></trkpt><trkpt lat="14.553887940334391" lon="121.03357250986865"><ele>24.0</ele><time>2026-05-05T06:43:32Z</time></trkpt><trkpt lat="14.553779202142668" lon="121.0334601466451"><ele>24.0</ele><time>2026-05-05T06:43:33Z</time></trkpt><trkpt lat="14.553685724779974" lon="121.03333741003397"><ele>24.0</ele><time>2026-05-05T06:43:34Z</time></trkpt><trkpt lat="14.553590367169742" lon="121.03321941397253"><ele>22.0</ele><time>2026-05-05T06:43:35Z</time></trkpt><trkpt lat="14.553481971473193" lon="121.03309428471542"><ele>20.0</ele><time>2026-05-05T06:43:36Z</time></trkpt><trkpt lat="14.553380946159002" lon="121.0329673554127"><ele>18.0</ele><time>2026-05-05T06:43:37Z</time></trkpt><trkpt lat="14.553269762596871" lon="121.03283972974123"><ele>18.0</ele><time>2026-05-05T06:43:38Z</time></trkpt><trkpt lat="14.553158662835717" lon="121.03270651114335"><ele>18.0</ele><time>2026-05-05T06:43:39Z</time></trkpt><trkpt lat="14.55304341286531" lon="121.03257666289556"><ele>18.0</ele><time>2026-05-05T06:43:40Z</time></trkpt><trkpt lat="14.552937373953645" lon="121.0324484121412"><ele>17.333333333333332</ele><time>2026-05-05T06:43:41Z</time></trkpt><trkpt lat="14.552834611629894" lon="121.03231807084063"><ele>16.666666666666664</ele><time>2026-05-05T06:43:42Z</time></trkpt><trkpt lat="14.552726874323549" lon="121.03218697909371"><ele>16.0</ele><time>2026-05-05T06:43:43Z</time></trkpt><trkpt lat="14.552617079126586" lon="121.0320676987656"><ele>16.0</ele><time>2026-05-05T06:43:44Z</time></trkpt><trkpt lat="14.552515659803149" lon="121.03195279748692"><ele>16.0</ele><time>2026-05-05T06:43:45Z</time></trkpt><trkpt lat="14.552437830215446" lon="121.03183586982324"><ele>16.0</ele><time>2026-05-05T06:43:46Z</time></trkpt><trkpt lat="14.552344739290978" lon="121.03172872100212"><ele>16.0</ele><time>2026-05-05T06:43:47Z</time></trkpt><trkpt lat="14.552254625635852" lon="121.0316266768368"><ele>15.75</ele><time>2026-05-05T06:43:48Z</time></trkpt><trkpt lat="14.552160930249716" lon="121.03152050239028"><ele>15.5</ele><time>2026-05-05T06:43:49Z</time></trkpt><trkpt lat="14.5520684436879" lon="121.03141439487864"><ele>15.25</ele><time>2026-05-05T06:43:50Z</time></trkpt><trkpt lat="14.551971903794398" lon="121.03130385854516"><ele>15.0</ele><time>2026-05-05T06:43:51Z</time></trkpt><trkpt lat="14.551888068075007" lon="121.03119112121412"><ele>16.0</ele><time>2026-05-05T06:43:52Z</time></trkpt><trkpt lat="14.551791293585005" lon="121.03108014945622"><ele>17.0</ele><time>2026-05-05T06:43:53Z</time></trkpt><trkpt lat="14.551694876110517" lon="121.03096995393341"><ele>18.0</ele><time>2026-05-05T06:43:54Z</time></trkpt><trkpt lat="14.551602283638823" lon="121.03085140707658"><ele>19.0</ele><time>2026-05-05T06:43:55Z</time></trkpt><trkpt lat="14.551498719313075" lon="121.03074239100117"><ele>19.25</ele><time>2026-05-05T06:43:56Z</time></trkpt><trkpt lat="14.551409429596548" lon="121.03062040207405"><ele>19.5</ele><time>2026-05-05T06:43:57Z</time></trkpt><trkpt lat="14.551327853267038" lon="121.03051635741471"><ele>19.75</ele><time>2026-05-05T06:43:58Z</time></trkpt><trkpt lat="14.551238109435593" lon="121.03042908930038"><ele>20.0</ele><time>2026-05-05T06:43:59Z</time></trkpt><trkpt lat="14.551161090486984" lon="121.03033648259348"><ele>20.0</ele><time>2026-05-05T06:44:00Z</time></trkpt><trkpt lat="14.551097963022244" lon="121.03025843612211"><ele>20.0</ele><time>2026-05-05T06:44:01Z</time></trkpt><trkpt lat="14.551039863592392" lon="121.03018824226861"><ele>20.0</ele><time>2026-05-05T06:44:02Z</time></trkpt><trkpt lat="14.550982088709832" lon="121.03011880984565"><ele>20.0</ele><time>2026-05-05T06:44:03Z</time></trkpt><trkpt lat="14.550921905020873" lon="121.03005302846059"><ele>20.0</ele><time>2026-05-05T06:44:04Z</time></trkpt><trkpt lat="14.55085934733835" lon="121.02997608773495"><ele>21.75</ele><time>2026-05-05T06:44:05Z</time></trkpt><trkpt lat="14.55079057836248" lon="121.02989722855415"><ele>23.5</ele><time>2026-05-05T06:44:06Z</time></trkpt><trkpt lat="14.550716284338371" lon="121.0298133160208"><ele>25.25</ele><time>2026-05-05T06:44:07Z</time></trkpt><trkpt lat="14.550644496857949" lon="121.02971868157323"><ele>27.0</ele><time>2026-05-05T06:44:08Z</time></trkpt><trkpt lat="14.550560544576735" lon="121.02962157686362"><ele>27.0</ele><time>2026-05-05T06:44:09Z</time></trkpt><trkpt lat="14.550477403531913" lon="121.02951816571579"><ele>27.0</ele><time>2026-05-05T06:44:10Z</time></trkpt><trkpt lat="14.550377029110479" lon="121.02940770410453"><ele>27.0</ele><time>2026-05-05T06:44:11Z</time></trkpt><trkpt lat="14.550269074457148" lon="121.02929474849893"><ele>27.0</ele><time>2026-05-05T06:44:12Z</time></trkpt><trkpt lat="14.550159234497558" lon="121.02917964831146"><ele>25.5</ele><time>2026-05-05T06:44:13Z</time></trkpt><trkpt lat="14.550055873594625" lon="121.0290660433992"><ele>24.0</ele><time>2026-05-05T06:44:14.001Z</time></trkpt><trkpt lat="14.54999658972013" lon="121.02898070490205"><ele>22.5</ele><time>2026-05-05T06:44:15.001Z</time></trkpt><trkpt lat="14.549911550358383" lon="121.0288751659313"><ele>21.0</ele><time>2026-05-05T06:44:16.001Z</time></trkpt><trkpt lat="14.549824486586985" lon="121.02874966658018"><ele>21.0</ele><time>2026-05-05T06:44:17.001Z</time></trkpt><trkpt lat="14.54973879772246" lon="121.02863346765089"><ele>21.0</ele><time>2026-05-05T06:44:18.001Z</time></trkpt><trkpt lat="14.549642896337732" lon="121.02851433695527"><ele>21.0</ele><time>2026-05-05T06:44:19.001Z</time></trkpt><trkpt lat="14.549556985362793" lon="121.02840865023339"><ele>21.0</ele><time>2026-05-05T06:44:20.001Z</time></trkpt><trkpt lat="14.549467572044275" lon="121.02829414996748"><ele>21.0</ele><time>2026-05-05T06:44:21.001Z</time></trkpt><trkpt lat="14.549373399436874" lon="121.02818290808797"><ele>21.0</ele><time>2026-05-05T06:44:22.001Z</time></trkpt><trkpt lat="14.54929074749257" lon="121.02806909181717"><ele>21.0</ele><time>2026-05-05T06:44:23.001Z</time></trkpt><trkpt lat="14.549205558899203" lon="121.02795219352103"><ele>21.0</ele><time>2026-05-05T06:44:24.001Z</time></trkpt><trkpt lat="14.549113462329359" lon="121.02784030942796"><ele>21.0</ele><time>2026-05-05T06:44:25.001Z</time></trkpt><trkpt lat="14.549025572224362" lon="121.02772630891336"><ele>21.0</ele><time>2026-05-05T06:44:26.001Z</time></trkpt><trkpt lat="14.548937645545129" lon="121.0275982347449"><ele>21.0</ele><time>2026-05-05T06:44:27.078Z</time></trkpt><trkpt lat="14.548865234931553" lon="121.0274854210866"><ele>21.0</ele><time>2026-05-05T06:44:28.046Z</time></trkpt><trkpt lat="14.548787671366824" lon="121.02737241976436"><ele>14.0</ele><time>2026-05-05T06:44:29.043Z</time></trkpt><trkpt lat="14.54697105475349" lon="121.02527354040468"><ele>14.0</ele><time>2026-05-05T06:44:54.001Z</time></trkpt><trkpt lat="14.546886797628495" lon="121.02519297474055"><ele>14.0</ele><time>2026-05-05T06:44:55.001Z</time></trkpt><trkpt lat="14.546806553599303" lon="121.02512421228565"><ele>14.0</ele><time>2026-05-05T06:44:56.001Z</time></trkpt><trkpt lat="14.546715309358014" lon="121.02503921430662"><ele>14.0</ele><time>2026-05-05T06:44:57.001Z</time></trkpt><trkpt lat="14.546637044651984" lon="121.02495936393777"><ele>14.0</ele><time>2026-05-05T06:44:58.001Z</time></trkpt><trkpt lat="14.54656860033238" lon="121.02487072557193"><ele>13.999999999999998</ele><time>2026-05-05T06:44:59.001Z</time></trkpt><trkpt lat="14.546495694892952" lon="121.02479516730611"><ele>13.999999999999998</ele><time>2026-05-05T06:45:00.001Z</time></trkpt><trkpt lat="14.54642345992394" lon="121.02471982695509"><ele>14.0</ele><time>2026-05-05T06:45:01.001Z</time></trkpt><trkpt lat="14.546355198841342" lon="121.02464562901804"><ele>14.0</ele><time>2026-05-05T06:45:02.001Z</time></trkpt><trkpt lat="14.546293733373163" lon="121.02456484856418"><ele>14.0</ele><time>2026-05-05T06:45:03.001Z</time></trkpt><trkpt lat="14.546232467783117" lon="121.02448392004078"><ele>13.999999999999998</ele><time>2026-05-05T06:45:04.001Z</time></trkpt><trkpt lat="14.546168435102897" lon="121.02440269579871"><ele>13.999999999999998</ele><time>2026-05-05T06:45:05.001Z</time></trkpt><trkpt lat="14.546092626478242" lon="121.02431503902572"><ele>14.0</ele><time>2026-05-05T06:45:06.001Z</time></trkpt><trkpt lat="14.546025210967521" lon="121.02423013598776"><ele>14.0</ele><time>2026-05-05T06:45:07.001Z</time></trkpt><trkpt lat="14.545945496515245" lon="121.02414206863484"><ele>14.2</ele><time>2026-05-05T06:45:08.001Z</time></trkpt><trkpt lat="14.545879923903053" lon="121.02405716102234"><ele>14.399999999999999</ele><time>2026-05-05T06:45:09.001Z</time></trkpt><trkpt lat="14.545803908814674" lon="121.02396371129016"><ele>14.6</ele><time>2026-05-05T06:45:10.001Z</time></trkpt><trkpt lat="14.54573238213402" lon="121.02387666434053"><ele>14.8</ele><time>2026-05-05T06:45:11.001Z</time></trkpt><trkpt lat="14.54566759940824" lon="121.02379546765384"><ele>15.0</ele><time>2026-05-05T06:45:12.001Z</time></trkpt><trkpt lat="14.545602701680828" lon="121.02371212265771"><ele>15.0</ele><time>2026-05-05T06:45:13.001Z</time></trkpt><trkpt lat="14.545553120752908" lon="121.02364306046283"><ele>15.0</ele><time>2026-05-05T06:45:14.001Z</time></trkpt><trkpt lat="14.54550798116896" lon="121.02358082833739"><ele>15.0</ele><time>2026-05-05T06:45:15.001Z</time></trkpt><trkpt lat="14.545468188036521" lon="121.02352359970143"><ele>15.0</ele><time>2026-05-05T06:45:16.001Z</time></trkpt><trkpt lat="14.545420008578388" lon="121.02346105337928"><ele>15.0</ele><time>2026-05-05T06:45:17.001Z</time></trkpt><trkpt lat="14.545367430588193" lon="121.02338882870285"><ele>15.0</ele><time>2026-05-05T06:45:18.001Z</time></trkpt><trkpt lat="14.545299305351746" lon="121.0233091740194"><ele>15.0</ele><time>2026-05-05T06:45:19.001Z</time></trkpt><trkpt lat="14.545223951040256" lon="121.02322423372128"><ele>15.0</ele><time>2026-05-05T06:45:20.001Z</time></trkpt><trkpt lat="14.545140453821759" lon="121.02312367828551"><ele>15.0</ele><time>2026-05-05T06:45:21.001Z</time></trkpt><trkpt lat="14.545058510826982" lon="121.02302530321086"><ele>15.0</ele><time>2026-05-05T06:45:22.001Z</time></trkpt><trkpt lat="14.54497021790758" lon="121.02292365650128"><ele>15.0</ele><time>2026-05-05T06:45:23.001Z</time></trkpt><trkpt lat="14.544886790154884" lon="121.02282628125216"><ele>15.0</ele><time>2026-05-05T06:45:24.001Z</time></trkpt><trkpt lat="14.544806294364646" lon="121.02273568095411"><ele>15.0</ele><time>2026-05-05T06:45:25.001Z</time></trkpt><trkpt lat="14.54472809216504" lon="121.0226534944673"><ele>15.0</ele><time>2026-05-05T06:45:26.001Z</time></trkpt><trkpt lat="14.54465230613979" lon="121.02256946901008"><ele>15.25</ele><time>2026-05-05T06:45:27.001Z</time></trkpt><trkpt lat="14.544581257962864" lon="121.02247935461926"><ele>15.5</ele><time>2026-05-05T06:45:28.001Z</time></trkpt><trkpt lat="14.544507015408946" lon="121.0223833554415"><ele>15.75</ele><time>2026-05-05T06:45:29.001Z</time></trkpt><trkpt lat="14.544426253122436" lon="121.02228467602545"><ele>16.0</ele><time>2026-05-05T06:45:30.001Z</time></trkpt><trkpt lat="14.544343477877291" lon="121.02218922337924"><ele>16.0</ele><time>2026-05-05T06:45:31.001Z</time></trkpt><trkpt lat="14.544257036995123" lon="121.02209199517903"><ele>16.0</ele><time>2026-05-05T06:45:32.001Z</time></trkpt><trkpt lat="14.544167074952538" lon="121.02198864300284"><ele>16.0</ele><time>2026-05-05T06:45:33.001Z</time></trkpt><trkpt lat="14.544081219659317" lon="121.02188429261136"><ele>16.0</ele><time>2026-05-05T06:45:34.001Z</time></trkpt><trkpt lat="14.543998238732062" lon="121.02178265192127"><ele>16.0</ele><time>2026-05-05T06:45:35.002Z</time></trkpt><trkpt lat="14.543924371495688" lon="121.02169477495636"><ele>16.0</ele><time>2026-05-05T06:45:36.002Z</time></trkpt><trkpt lat="14.543863509458285" lon="121.02162875525707"><ele>16.0</ele><time>2026-05-05T06:45:37.001Z</time></trkpt><trkpt lat="14.54378488374059" lon="121.02153413207046"><ele>16.0</ele><time>2026-05-05T06:45:39.001Z</time></trkpt><trkpt lat="14.543727710595055" lon="121.02145288877524"><ele>16.0</ele><time>2026-05-05T06:45:41.001Z</time></trkpt><trkpt lat="14.5436718657301" lon="121.0213654510176"><ele>15.999999999999998</ele><time>2026-05-05T06:45:43.001Z</time></trkpt><trkpt lat="14.543629070936484" lon="121.021303976079"><ele>16.0</ele><time>2026-05-05T06:45:44.001Z</time></trkpt><trkpt lat="14.54357967880876" lon="121.02123921936636"><ele>16.0</ele><time>2026-05-05T06:45:45.001Z</time></trkpt><trkpt lat="14.543520918800589" lon="121.02116959448446"><ele>16.0</ele><time>2026-05-05T06:45:46.001Z</time></trkpt><trkpt lat="14.543459543537635" lon="121.02109480467853"><ele>15.999999999999998</ele><time>2026-05-05T06:45:47.001Z</time></trkpt><trkpt lat="14.543395415461823" lon="121.02102041005931"><ele>16.0</ele><time>2026-05-05T06:45:48.001Z</time></trkpt><trkpt lat="14.543334807919432" lon="121.02094733399588"><ele>16.0</ele><time>2026-05-05T06:45:49.001Z</time></trkpt><trkpt lat="14.543269982284116" lon="121.0208702291752"><ele>16.0</ele><time>2026-05-05T06:45:50Z</time></trkpt><trkpt lat="14.543218721598734" lon="121.02080649886304"><ele>16.0</ele><time>2026-05-05T06:45:51Z</time></trkpt><trkpt lat="14.543161111076506" lon="121.02073303870738"><ele>16.0</ele><time>2026-05-05T06:45:52Z</time></trkpt><trkpt lat="14.543101076615644" lon="121.02066205403425"><ele>16.0</ele><time>2026-05-05T06:45:53Z</time></trkpt><trkpt lat="14.543043115735447" lon="121.02059282789979"><ele>15.666666666666666</ele><time>2026-05-05T06:45:54Z</time></trkpt><trkpt lat="14.542985359322683" lon="121.02052313178253"><ele>15.333333333333332</ele><time>2026-05-05T06:45:55Z</time></trkpt><trkpt lat="14.542933539841036" lon="121.0204557399275"><ele>15.0</ele><time>2026-05-05T06:45:56Z</time></trkpt><trkpt lat="14.54288756699377" lon="121.02039372402048"><ele>14.666666666666668</ele><time>2026-05-05T06:45:57Z</time></trkpt><trkpt lat="14.54284232103849" lon="121.02033236287593"><ele>14.333333333333334</ele><time>2026-05-05T06:45:58Z</time></trkpt><trkpt lat="14.542797975962955" lon="121.0202711474781"><ele>14.0</ele><time>2026-05-05T06:45:59Z</time></trkpt><trkpt lat="14.542755953815032" lon="121.0202141349599"><ele>13.857142857142858</ele><time>2026-05-05T06:46:00Z</time></trkpt><trkpt lat="14.54271117315854" lon="121.0201518946846"><ele>13.714285714285715</ele><time>2026-05-05T06:46:01Z</time></trkpt><trkpt lat="14.54266460940557" lon="121.02008766895369"><ele>13.571428571428571</ele><time>2026-05-05T06:46:02Z</time></trkpt><trkpt lat="14.542616941195154" lon="121.02002361991089"><ele>13.428571428571429</ele><time>2026-05-05T06:46:03Z</time></trkpt><trkpt lat="14.54256883903719" lon="121.01996356316083"><ele>13.285714285714286</ele><time>2026-05-05T06:46:04Z</time></trkpt><trkpt lat="14.542523865181014" lon="121.01990694281687"><ele>13.142857142857142</ele><time>2026-05-05T06:46:05Z</time></trkpt><trkpt lat="14.542482203124901" lon="121.01985521557735"><ele>13.0</ele><time>2026-05-05T06:46:06Z</time></trkpt><trkpt lat="14.542412592002732" lon="121.0197689208578"><ele>13.0</ele><time>2026-05-05T06:46:08Z</time></trkpt><trkpt lat="14.54235408878416" lon="121.01968661416512"><ele>13.0</ele><time>2026-05-05T06:46:10Z</time></trkpt><trkpt lat="14.542304285104883" lon="121.01961517614238"><ele>13.0</ele><time>2026-05-05T06:46:12Z</time></trkpt><trkpt lat="14.54225238877357" lon="121.01954131474787"><ele>13.0</ele><time>2026-05-05T06:46:14Z</time></trkpt><trkpt lat="14.542197236432314" lon="121.0194578019288"><ele>13.0</ele><time>2026-05-05T06:46:16Z</time></trkpt><trkpt lat="14.542149438167646" lon="121.01938402197675"><ele>13.0</ele><time>2026-05-05T06:46:18.001Z</time></trkpt><trkpt lat="14.542088831646856" lon="121.01928894132881"><ele>13.0</ele><time>2026-05-05T06:46:20.001Z</time></trkpt><trkpt lat="14.542021759761898" lon="121.01919206945387"><ele>13.0</ele><time>2026-05-05T06:46:22.001Z</time></trkpt><trkpt lat="14.541968273027667" lon="121.01910713075037"><ele>13.0</ele><time>2026-05-05T06:46:24.001Z</time></trkpt><trkpt lat="14.541912801764767" lon="121.01903653841558"><ele>13.0</ele><time>2026-05-05T06:46:26.001Z</time></trkpt><trkpt lat="14.54185828489499" lon="121.01894215877563"><ele>13.600000000000001</ele><time>2026-05-05T06:46:28.001Z</time></trkpt><trkpt lat="14.541808370024864" lon="121.01884812032785"><ele>14.200000000000001</ele><time>2026-05-05T06:46:30.001Z</time></trkpt><trkpt lat="14.541730958888374" lon="121.01876237994715"><ele>14.8</ele><time>2026-05-05T06:46:32.001Z</time></trkpt><trkpt lat="14.541669807537998" lon="121.01867477336215"><ele>15.4</ele><time>2026-05-05T06:46:34.001Z</time></trkpt><trkpt lat="14.541609721868223" lon="121.01858796602882"><ele>16.0</ele><time>2026-05-05T06:46:36.001Z</time></trkpt><trkpt lat="14.541563883378446" lon="121.01851883969925"><ele>15.999999999999998</ele><time>2026-05-05T06:46:38.001Z</time></trkpt><trkpt lat="14.541524055156811" lon="121.01846127460604"><ele>16.0</ele><time>2026-05-05T06:46:40.001Z</time></trkpt><trkpt lat="14.541470494472996" lon="121.0183910456393"><ele>16.0</ele><time>2026-05-05T06:46:42.001Z</time></trkpt><trkpt lat="14.541409325613758" lon="121.01831429176144"><ele>16.0</ele><time>2026-05-05T06:46:44.001Z</time></trkpt><trkpt lat="14.541360445356519" lon="121.01824557290055"><ele>15.999999999999998</ele><time>2026-05-05T06:46:46.001Z</time></trkpt><trkpt lat="14.541321986256177" lon="121.0181932283951"><ele>16.0</ele><time>2026-05-05T06:46:47.001Z</time></trkpt><trkpt lat="14.541273045774737" lon="121.01813205928306"><ele>15.200000000000001</ele><time>2026-05-05T06:46:48.001Z</time></trkpt><trkpt lat="14.541222654720578" lon="121.01805050608014"><ele>14.400000000000002</ele><time>2026-05-05T06:46:49.001Z</time></trkpt><trkpt lat="14.541195762726144" lon="121.01799030074785"><ele>13.6</ele><time>2026-05-05T06:46:50.001Z</time></trkpt><trkpt lat="14.541102098893965" lon="121.01783919771286"><ele>12.8</ele><time>2026-05-05T06:46:52.001Z</time></trkpt><trkpt lat="14.541066684894108" lon="121.01776624788424"><ele>12.0</ele><time>2026-05-05T06:46:53.001Z</time></trkpt><trkpt lat="14.541037672621767" lon="121.01767958061467"><ele>11.833333333333334</ele><time>2026-05-05T06:46:54.001Z</time></trkpt><trkpt lat="14.541016412775882" lon="121.01760385328208"><ele>11.666666666666666</ele><time>2026-05-05T06:46:55.001Z</time></trkpt><trkpt lat="14.541004323614645" lon="121.0175337880952"><ele>11.5</ele><time>2026-05-05T06:46:56.001Z</time></trkpt><trkpt lat="14.54099401139875" lon="121.01746521240304"><ele>11.333333333333332</ele><time>2026-05-05T06:46:57.001Z</time></trkpt><trkpt lat="14.540993493621444" lon="121.01731906537145"><ele>11.166666666666666</ele><time>2026-05-05T06:46:59.001Z</time></trkpt><trkpt lat="14.541002809276879" lon="121.01724276308543"><ele>11.0</ele><time>2026-05-05T06:47:00.001Z</time></trkpt><trkpt lat="14.541018147326437" lon="121.01711169514017"><ele>11.200000000000001</ele><time>2026-05-05T06:47:02.001Z</time></trkpt><trkpt lat="14.541043236460798" lon="121.01704321902668"><ele>11.4</ele><time>2026-05-05T06:47:03.001Z</time></trkpt><trkpt lat="14.541061730055599" lon="121.01693357378348"><ele>11.6</ele><time>2026-05-05T06:47:05.001Z</time></trkpt><trkpt lat="14.541071449482223" lon="121.01681607303806"><ele>11.8</ele><time>2026-05-05T06:47:07.001Z</time></trkpt><trkpt lat="14.541042975030384" lon="121.0167060785277"><ele>12.0</ele><time>2026-05-05T06:47:09.001Z</time></trkpt><trkpt lat="14.54098119475369" lon="121.01659633508882"><ele>12.0</ele><time>2026-05-05T06:47:11.001Z</time></trkpt><trkpt lat="14.540882209509002" lon="121.01653566914186"><ele>12.0</ele><time>2026-05-05T06:47:13.001Z</time></trkpt><trkpt lat="14.540800047154057" lon="121.0164735847462"><ele>12.0</ele><time>2026-05-05T06:47:15.001Z</time></trkpt><trkpt lat="14.540706987047416" lon="121.01645619777968"><ele>12.0</ele><time>2026-05-05T06:47:17.001Z</time></trkpt><trkpt lat="14.540602510027435" lon="121.01645518454441"><ele>12.0</ele><time>2026-05-05T06:47:19.001Z</time></trkpt><trkpt lat="14.54050350473656" lon="121.01648363257402"><ele>12.0</ele><time>2026-05-05T06:47:21.001Z</time></trkpt><trkpt lat="14.540443211454523" lon="121.01650337427122"><ele>12.0</ele><time>2026-05-05T06:47:22.001Z</time></trkpt><trkpt lat="14.54037608870643" lon="121.0165301248861"><ele>12.0</ele><time>2026-05-05T06:47:23.001Z</time></trkpt><trkpt lat="14.540272189458078" lon="121.0165833978343"><ele>12.0</ele><time>2026-05-05T06:47:25.001Z</time></trkpt><trkpt lat="14.540174987872708" lon="121.01664512397272"><ele>12.0</ele><time>2026-05-05T06:47:27.001Z</time></trkpt><trkpt lat="14.540091770706253" lon="121.01669537594499"><ele>11.8</ele><time>2026-05-05T06:47:29.001Z</time></trkpt><trkpt lat="14.540007393545928" lon="121.0167260514886"><ele>11.6</ele><time>2026-05-05T06:47:31.001Z</time></trkpt><trkpt lat="14.539917141366182" lon="121.01677279537404"><ele>11.4</ele><time>2026-05-05T06:47:33.001Z</time></trkpt><trkpt lat="14.53981535777599" lon="121.01684670557529"><ele>11.200000000000001</ele><time>2026-05-05T06:47:35.001Z</time></trkpt><trkpt lat="14.539741851402997" lon="121.01690279681122"><ele>11.0</ele><time>2026-05-05T06:47:36.001Z</time></trkpt><trkpt lat="14.539659913825915" lon="121.01695320491875"><ele>11.0</ele><time>2026-05-05T06:47:37.001Z</time></trkpt><trkpt lat="14.539579088367674" lon="121.01700924482358"><ele>11.0</ele><time>2026-05-05T06:47:38.001Z</time></trkpt><trkpt lat="14.539500576262261" lon="121.01706205141093"><ele>11.0</ele><time>2026-05-05T06:47:39.001Z</time></trkpt><trkpt lat="14.539430668937197" lon="121.0171147465104"><ele>11.0</ele><time>2026-05-05T06:47:40.001Z</time></trkpt><trkpt lat="14.539365390049522" lon="121.01716267969668"><ele>11.0</ele><time>2026-05-05T06:47:41.001Z</time></trkpt><trkpt lat="14.539311312456158" lon="121.0171993010297"><ele>11.0</ele><time>2026-05-05T06:47:42.001Z</time></trkpt><trkpt lat="14.539254187999274" lon="121.01724349422753"><ele>10.8</ele><time>2026-05-05T06:47:43.001Z</time></trkpt><trkpt lat="14.53919693344476" lon="121.0172895563243"><ele>10.600000000000001</ele><time>2026-05-05T06:47:44.001Z</time></trkpt><trkpt lat="14.539098796769583" lon="121.01736781088303"><ele>10.4</ele><time>2026-05-05T06:47:46.001Z</time></trkpt><trkpt lat="14.539043961750755" lon="121.01740826684221"><ele>10.2</ele><time>2026-05-05T06:47:47.001Z</time></trkpt><trkpt lat="14.538951515268742" lon="121.01747600166239"><ele>10.0</ele><time>2026-05-05T06:47:49.001Z</time></trkpt><trkpt lat="14.53888452269213" lon="121.0175190450738"><ele>10.0</ele><time>2026-05-05T06:47:50Z</time></trkpt><trkpt lat="14.538810949870678" lon="121.01754892283779"><ele>10.0</ele><time>2026-05-05T06:47:51Z</time></trkpt><trkpt lat="14.538757791140702" lon="121.01758495644518"><ele>10.0</ele><time>2026-05-05T06:47:52Z</time></trkpt><trkpt lat="14.53868812378303" lon="121.01764018290467"><ele>10.0</ele><time>2026-05-05T06:47:53Z</time></trkpt><trkpt lat="14.538615333073434" lon="121.01767868409692"><ele>10.0</ele><time>2026-05-05T06:47:54Z</time></trkpt><trkpt lat="14.538548800551009" lon="121.0177181263721"><ele>10.0</ele><time>2026-05-05T06:47:55Z</time></trkpt><trkpt lat="14.538473256541954" lon="121.01776054123354"><ele>10.166666666666668</ele><time>2026-05-05T06:47:56Z</time></trkpt><trkpt lat="14.538390529437763" lon="121.01780161263599"><ele>10.333333333333334</ele><time>2026-05-05T06:47:57Z</time></trkpt><trkpt lat="14.538314519212786" lon="121.0178455249589"><ele>10.5</ele><time>2026-05-05T06:47:58Z</time></trkpt><trkpt lat="14.5382474651419" lon="121.01788737048092"><ele>10.666666666666666</ele><time>2026-05-05T06:47:59Z</time></trkpt><trkpt lat="14.538171191601592" lon="121.01791813381341"><ele>10.833333333333332</ele><time>2026-05-05T06:48:01Z</time></trkpt><trkpt lat="14.538112011823316" lon="121.01794630821747"><ele>11.0</ele><time>2026-05-05T06:48:02Z</time></trkpt><trkpt lat="14.538049108358187" lon="121.01797908139274"><ele>11.0</ele><time>2026-05-05T06:48:03Z</time></trkpt><trkpt lat="14.537979196526685" lon="121.01802173598091"><ele>11.0</ele><time>2026-05-05T06:48:04Z</time></trkpt><trkpt lat="14.537900989415403" lon="121.01806609432094"><ele>11.0</ele><time>2026-05-05T06:48:05Z</time></trkpt><trkpt lat="14.537811608147644" lon="121.01811433184238"><ele>11.0</ele><time>2026-05-05T06:48:06Z</time></trkpt><trkpt lat="14.53772297188483" lon="121.01815704560032"><ele>11.0</ele><time>2026-05-05T06:48:07Z</time></trkpt><trkpt lat="14.5376234896195" lon="121.01820431344095"><ele>11.0</ele><time>2026-05-05T06:48:08Z</time></trkpt><trkpt lat="14.53751286923392" lon="121.01826438277232"><ele>11.0</ele><time>2026-05-05T06:48:09Z</time></trkpt><trkpt lat="14.53738986954022" lon="121.01833012904163"><ele>11.0</ele><time>2026-05-05T06:48:10Z</time></trkpt><trkpt lat="14.537267434922565" lon="121.01840266514795"><ele>11.0</ele><time>2026-05-05T06:48:11Z</time></trkpt><trkpt lat="14.537138679475925" lon="121.01847007211967"><ele>11.0</ele><time>2026-05-05T06:48:12Z</time></trkpt><trkpt lat="14.537001407938742" lon="121.01854530254901"><ele>11.0</ele><time>2026-05-05T06:48:13Z</time></trkpt><trkpt lat="14.536859981083667" lon="121.01862618064186"><ele>11.0</ele><time>2026-05-05T06:48:14Z</time></trkpt><trkpt lat="14.536713548913546" lon="121.01870706289242"><ele>11.0</ele><time>2026-05-05T06:48:15Z</time></trkpt><trkpt lat="14.536559373808903" lon="121.0187850843444"><ele>11.0</ele><time>2026-05-05T06:48:16Z</time></trkpt><trkpt lat="14.53640779221006" lon="121.01886580916377"><ele>11.0</ele><time>2026-05-05T06:48:17Z</time></trkpt><trkpt lat="14.536263479450065" lon="121.01893776037502"><ele>10.666666666666666</ele><time>2026-05-05T06:48:18Z</time></trkpt><trkpt lat="14.536122285824153" lon="121.01901276203772"><ele>10.333333333333334</ele><time>2026-05-05T06:48:19Z</time></trkpt><trkpt lat="14.535981403937166" lon="121.01907606672161"><ele>10.0</ele><time>2026-05-05T06:48:20Z</time></trkpt><trkpt lat="14.535838293104705" lon="121.0191432861646"><ele>11.666666666666668</ele><time>2026-05-05T06:48:21Z</time></trkpt><trkpt lat="14.5356928044869" lon="121.01921262404502"><ele>13.333333333333334</ele><time>2026-05-05T06:48:22Z</time></trkpt><trkpt lat="14.53554633180803" lon="121.01928477755567"><ele>15.0</ele><time>2026-05-05T06:48:23Z</time></trkpt><trkpt lat="14.535396889535683" lon="121.0193590004129"><ele>14.333333333333332</ele><time>2026-05-05T06:48:24Z</time></trkpt><trkpt lat="14.535246439477671" lon="121.01943579770641"><ele>13.666666666666666</ele><time>2026-05-05T06:48:25Z</time></trkpt><trkpt lat="14.535093440219706" lon="121.01950607294995"><ele>13.0</ele><time>2026-05-05T06:48:26Z</time></trkpt><trkpt lat="14.534937859255594" lon="121.01957628805323"><ele>13.0</ele><time>2026-05-05T06:48:27Z</time></trkpt><trkpt lat="14.534758831229302" lon="121.01966688032248"><ele>13.0</ele><time>2026-05-05T06:48:28Z</time></trkpt><trkpt lat="14.534582610411094" lon="121.01975672934776"><ele>13.0</ele><time>2026-05-05T06:48:29Z</time></trkpt><trkpt lat="14.534434553932265" lon="121.0198557141965"><ele>12.666666666666666</ele><time>2026-05-05T06:48:30Z</time></trkpt><trkpt lat="14.534275246425896" lon="121.01995950756553"><ele>12.333333333333332</ele><time>2026-05-05T06:48:31Z</time></trkpt><trkpt lat="14.534097516278733" lon="121.02004050265263"><ele>12.0</ele><time>2026-05-05T06:48:32Z</time></trkpt><trkpt lat="14.533938303228124" lon="121.02012375860966"><ele>13.333333333333332</ele><time>2026-05-05T06:48:33Z</time></trkpt><trkpt lat="14.533786678659387" lon="121.0202044049166"><ele>14.666666666666666</ele><time>2026-05-05T06:48:34.001Z</time></trkpt><trkpt lat="14.533638324845658" lon="121.02028473150511"><ele>16.0</ele><time>2026-05-05T06:48:35.001Z</time></trkpt><trkpt lat="14.53349267747109" lon="121.02036317261505"><ele>16.333333333333332</ele><time>2026-05-05T06:48:36.001Z</time></trkpt><trkpt lat="14.533353621801586" lon="121.02043817859395"><ele>16.666666666666668</ele><time>2026-05-05T06:48:37.001Z</time></trkpt><trkpt lat="14.53321632896394" lon="121.0205127057404"><ele>17.0</ele><time>2026-05-05T06:48:38.001Z</time></trkpt><trkpt lat="14.533079813895567" lon="121.02058701365405"><ele>17.0</ele><time>2026-05-05T06:48:39.001Z</time></trkpt><trkpt lat="14.532944321196943" lon="121.02065954440073"><ele>17.0</ele><time>2026-05-05T06:48:40.001Z</time></trkpt><trkpt lat="14.53280712841538" lon="121.02073027530801"><ele>17.0</ele><time>2026-05-05T06:48:41.001Z</time></trkpt><trkpt lat="14.532665166610268" lon="121.02080132731275"><ele>15.75</ele><time>2026-05-05T06:48:42.001Z</time></trkpt><trkpt lat="14.532541855263583" lon="121.02087587216069"><ele>14.5</ele><time>2026-05-05T06:48:43.001Z</time></trkpt><trkpt lat="14.532460115607671" lon="121.02098951598566"><ele>13.25</ele><time>2026-05-05T06:48:44.001Z</time></trkpt><trkpt lat="14.532363933456583" lon="121.02104161727897"><ele>12.0</ele><time>2026-05-05T06:48:45.001Z</time></trkpt><trkpt lat="14.532290421254784" lon="121.0210814669755"><ele>12.0</ele><time>2026-05-05T06:48:46.001Z</time></trkpt><trkpt lat="14.532229794762467" lon="121.02111433154388"><ele>12.0</ele><time>2026-05-05T06:48:48.001Z</time></trkpt><trkpt lat="14.532165681810728" lon="121.02094485461632"><ele>12.0</ele><time>2026-05-05T06:48:52.001Z</time></trkpt><trkpt lat="14.532130305006557" lon="121.02087751021867"><ele>12.0</ele><time>2026-05-05T06:48:54.001Z</time></trkpt><trkpt lat="14.532082989593732" lon="121.02078743920852"><ele>12.0</ele><time>2026-05-05T06:48:56.001Z</time></trkpt><trkpt lat="14.532033100312988" lon="121.02069246853522"><ele>11.6</ele><time>2026-05-05T06:48:58.001Z</time></trkpt><trkpt lat="14.531991468257816" lon="121.0206132165425"><ele>11.2</ele><time>2026-05-05T06:49:00.001Z</time></trkpt><trkpt lat="14.531951345677797" lon="121.02053683807218"><ele>10.8</ele><time>2026-05-05T06:49:02.001Z</time></trkpt><trkpt lat="14.531905452438913" lon="121.02044431124435"><ele>10.4</ele><time>2026-05-05T06:49:04.001Z</time></trkpt><trkpt lat="14.531867948711394" lon="121.02036915437456"><ele>10.0</ele><time>2026-05-05T06:49:06.001Z</time></trkpt><trkpt lat="14.531822926774035" lon="121.0202789311271"><ele>10.0</ele><time>2026-05-05T06:49:08.001Z</time></trkpt><trkpt lat="14.531766690325918" lon="121.02016654771646"><ele>10.0</ele><time>2026-05-05T06:49:10.001Z</time></trkpt><trkpt lat="14.531708258761507" lon="121.02005881209517"><ele>10.0</ele><time>2026-05-05T06:49:12.001Z</time></trkpt><trkpt lat="14.531699496420615" lon="121.01996182997847"><ele>10.0</ele><time>2026-05-05T06:49:14.001Z</time></trkpt><trkpt lat="14.53183088695274" lon="121.0198653594562"><ele>9.833333333333334</ele><time>2026-05-05T06:49:18.001Z</time></trkpt><trkpt lat="14.531941283857714" lon="121.01980703624368"><ele>9.666666666666668</ele><time>2026-05-05T06:49:20.001Z</time></trkpt><trkpt lat="14.532002217675295" lon="121.01977484460646"><ele>9.5</ele><time>2026-05-05T06:49:21.001Z</time></trkpt><trkpt lat="14.532063357540505" lon="121.01973448371707"><ele>9.333333333333334</ele><time>2026-05-05T06:49:22.001Z</time></trkpt><trkpt lat="14.532136379731796" lon="121.01969045913411"><ele>9.166666666666666</ele><time>2026-05-05T06:49:23.001Z</time></trkpt><trkpt lat="14.532203564369441" lon="121.01965642082895"><ele>9.0</ele><time>2026-05-05T06:49:24.001Z</time></trkpt><trkpt lat="14.53227619575209" lon="121.01962331551748"><ele>9.5</ele><time>2026-05-05T06:49:25.001Z</time></trkpt><trkpt lat="14.532343404983154" lon="121.01958504666823"><ele>10.0</ele><time>2026-05-05T06:49:26.001Z</time></trkpt><trkpt lat="14.53242209919434" lon="121.01954213512971"><ele>10.5</ele><time>2026-05-05T06:49:28.001Z</time></trkpt><trkpt lat="14.53251356043108" lon="121.0194868462442"><ele>11.0</ele><time>2026-05-05T06:49:31.001Z</time></trkpt><trkpt lat="14.532574899130333" lon="121.01945663853878"><ele>11.5</ele><time>2026-05-05T06:49:32.001Z</time></trkpt><trkpt lat="14.532637589411141" lon="121.01942336717258"><ele>12.0</ele><time>2026-05-05T06:49:33.001Z</time></trkpt><trkpt lat="14.532698296062852" lon="121.01938793172545"><ele>12.0</ele><time>2026-05-05T06:49:34.001Z</time></trkpt><trkpt lat="14.532761111254018" lon="121.01937332812443"><ele>12.0</ele><time>2026-05-05T06:49:35.001Z</time></trkpt><trkpt lat="14.532817775437037" lon="121.01934336228335"><ele>12.0</ele><time>2026-05-05T06:49:37.001Z</time></trkpt><trkpt lat="14.532920780242641" lon="121.01928889006204"><ele>12.0</ele><time>2026-05-05T06:49:39.001Z</time></trkpt><trkpt lat="14.532985511437516" lon="121.01925400517624"><ele>12.0</ele><time>2026-05-05T06:49:40.001Z</time></trkpt><trkpt lat="14.533052423017848" lon="121.0192180658063"><ele>12.0</ele><time>2026-05-05T06:49:41.001Z</time></trkpt><trkpt lat="14.533127445533205" lon="121.0191777699237"><ele>12.0</ele><time>2026-05-05T06:49:42.001Z</time></trkpt><trkpt lat="14.533200403690275" lon="121.019138582838"><ele>12.0</ele><time>2026-05-05T06:49:43.001Z</time></trkpt><trkpt lat="14.533271733763847" lon="121.01908312306222"><ele>12.0</ele><time>2026-05-05T06:49:44.001Z</time></trkpt><trkpt lat="14.53335166462595" lon="121.01905004206"><ele>12.0</ele><time>2026-05-05T06:49:45.001Z</time></trkpt><trkpt lat="14.533446160345962" lon="121.01901258001507"><ele>12.0</ele><time>2026-05-05T06:49:47.001Z</time></trkpt><trkpt lat="14.533521602462821" lon="121.01897006556909"><ele>12.0</ele><time>2026-05-05T06:49:49Z</time></trkpt><trkpt lat="14.53360155863149" lon="121.01892641946952"><ele>12.0</ele><time>2026-05-05T06:49:51Z</time></trkpt><trkpt lat="14.533672274403381" lon="121.01889090734845"><ele>12.0</ele><time>2026-05-05T06:49:53Z</time></trkpt><trkpt lat="14.533765966457892" lon="121.01883208590817"><ele>12.0</ele><time>2026-05-05T06:49:55Z</time></trkpt><trkpt lat="14.533824302788137" lon="121.01879630020579"><ele>12.0</ele><time>2026-05-05T06:49:56Z</time></trkpt><trkpt lat="14.533886610775284" lon="121.01876633807524"><ele>12.0</ele><time>2026-05-05T06:49:57Z</time></trkpt><trkpt lat="14.533951272590881" lon="121.01873811396258"><ele>12.0</ele><time>2026-05-05T06:49:58Z</time></trkpt><trkpt lat="14.534017720232415" lon="121.01870203099513"><ele>11.999999999999998</ele><time>2026-05-05T06:49:59Z</time></trkpt><trkpt lat="14.534076356968995" lon="121.01867201123446"><ele>12.0</ele><time>2026-05-05T06:50:00Z</time></trkpt><trkpt lat="14.534141994643246" lon="121.01864049537322"><ele>12.0</ele><time>2026-05-05T06:50:01Z</time></trkpt><trkpt lat="14.534210537581362" lon="121.01860495508704"><ele>12.0</ele><time>2026-05-05T06:50:02Z</time></trkpt><trkpt lat="14.534283602851374" lon="121.01856392397981"><ele>12.0</ele><time>2026-05-05T06:50:03Z</time></trkpt><trkpt lat="14.534349713209822" lon="121.01852644150952"><ele>11.999999999999998</ele><time>2026-05-05T06:50:04Z</time></trkpt><trkpt lat="14.534405545269172" lon="121.01849513755563"><ele>12.0</ele><time>2026-05-05T06:50:05Z</time></trkpt><trkpt lat="14.534479519118829" lon="121.01845466765114"><ele>11.6</ele><time>2026-05-05T06:50:07Z</time></trkpt><trkpt lat="14.534576309532232" lon="121.01840681582506"><ele>11.2</ele><time>2026-05-05T06:50:09Z</time></trkpt><trkpt lat="14.534696392827941" lon="121.01834163639458"><ele>10.8</ele><time>2026-05-05T06:50:11Z</time></trkpt><trkpt lat="14.534760942560814" lon="121.01830708495257"><ele>10.4</ele><time>2026-05-05T06:50:12Z</time></trkpt><trkpt lat="14.534825089370807" lon="121.0182724836808"><ele>10.0</ele><time>2026-05-05T06:50:13Z</time></trkpt><trkpt lat="14.534884216622995" lon="121.01823772365054"><ele>10.0</ele><time>2026-05-05T06:50:14Z</time></trkpt><trkpt lat="14.534941501549575" lon="121.01820840845735"><ele>10.0</ele><time>2026-05-05T06:50:15Z</time></trkpt><trkpt lat="14.535008472176726" lon="121.01818299832361"><ele>10.0</ele><time>2026-05-05T06:50:16Z</time></trkpt><trkpt lat="14.535071324630094" lon="121.0181515819804"><ele>10.0</ele><time>2026-05-05T06:50:17Z</time></trkpt><trkpt lat="14.535143773476397" lon="121.01810258525731"><ele>10.0</ele><time>2026-05-05T06:50:18Z</time></trkpt><trkpt lat="14.535238817585176" lon="121.01806175550361"><ele>10.0</ele><time>2026-05-05T06:50:20Z</time></trkpt><trkpt lat="14.535306385080354" lon="121.01803753280095"><ele>10.0</ele><time>2026-05-05T06:50:22Z</time></trkpt><trkpt lat="14.535377768854014" lon="121.0180207741779"><ele>10.0</ele><time>2026-05-05T06:50:25Z</time></trkpt><trkpt lat="14.535498104937012" lon="121.01808040582401"><ele>10.0</ele><time>2026-05-05T06:50:26Z</time></trkpt><trkpt lat="14.535539541733192" lon="121.01816419644146"><ele>10.0</ele><time>2026-05-05T06:50:28Z</time></trkpt><trkpt lat="14.535569773613924" lon="121.01822532917403"><ele>10.0</ele><time>2026-05-05T06:50:29Z</time></trkpt><trkpt lat="14.53561874369472" lon="121.0183243531769"><ele>10.0</ele><time>2026-05-05T06:50:31Z</time></trkpt><trkpt lat="14.535655385761093" lon="121.01839891048576"><ele>10.0</ele><time>2026-05-05T06:50:33Z</time></trkpt><trkpt lat="14.535677397489065" lon="121.01846272701134"><ele>10.0</ele><time>2026-05-05T06:50:35Z</time></trkpt><trkpt lat="14.53580765054269" lon="121.01847420623461"><ele>10.0</ele><time>2026-05-05T06:50:38Z</time></trkpt><trkpt lat="14.535891976228775" lon="121.01842889972708"><ele>10.0</ele><time>2026-05-05T06:50:40Z</time></trkpt><trkpt lat="14.53596844491627" lon="121.01838815951808"><ele>10.0</ele><time>2026-05-05T06:50:41Z</time></trkpt><trkpt lat="14.536038170477598" lon="121.01835101187248"><ele>10.0</ele><time>2026-05-05T06:50:42Z</time></trkpt><trkpt lat="14.536127069853098" lon="121.01830364903842"><ele>10.0</ele><time>2026-05-05T06:50:44Z</time></trkpt><trkpt lat="14.53618858140786" lon="121.01827087758709"><ele>10.0</ele><time>2026-05-05T06:50:45Z</time></trkpt><trkpt lat="14.536251453858684" lon="121.01823738106741"><ele>10.0</ele><time>2026-05-05T06:50:46Z</time></trkpt><trkpt lat="14.53636177536785" lon="121.01817860516084"><ele>10.0</ele><time>2026-05-05T06:50:48Z</time></trkpt><trkpt lat="14.53641823650885" lon="121.01814852441132"><ele>9.6</ele><time>2026-05-05T06:50:49Z</time></trkpt><trkpt lat="14.536518230712398" lon="121.0180952505808"><ele>9.2</ele><time>2026-05-05T06:50:51Z</time></trkpt><trkpt lat="14.536615652380025" lon="121.01804334731814"><ele>8.8</ele><time>2026-05-05T06:50:53Z</time></trkpt><trkpt lat="14.536733995909543" lon="121.01798029755196"><ele>8.4</ele><time>2026-05-05T06:50:55Z</time></trkpt><trkpt lat="14.536800396431808" lon="121.01794492141164"><ele>8.0</ele><time>2026-05-05T06:50:56Z</time></trkpt><trkpt lat="14.536869442262335" lon="121.01790813589255"><ele>7.999999999999999</ele><time>2026-05-05T06:50:57Z</time></trkpt><trkpt lat="14.536942041792019" lon="121.017869457093"><ele>8.0</ele><time>2026-05-05T06:50:58Z</time></trkpt><trkpt lat="14.537020552955264" lon="121.0178276287549"><ele>8.0</ele><time>2026-05-05T06:50:59.001Z</time></trkpt><trkpt lat="14.537092186049158" lon="121.0177894648691"><ele>8.0</ele><time>2026-05-05T06:51:00.001Z</time></trkpt><trkpt lat="14.5371624508419" lon="121.01775202994047"><ele>7.999999999999999</ele><time>2026-05-05T06:51:01.001Z</time></trkpt><trkpt lat="14.537222486164776" lon="121.01772004530505"><ele>8.0</ele><time>2026-05-05T06:51:02.001Z</time></trkpt><trkpt lat="14.537320648217571" lon="121.0176677475882"><ele>7.999999999999999</ele><time>2026-05-05T06:51:04.001Z</time></trkpt><trkpt lat="14.537393685123897" lon="121.01762883577531"><ele>8.0</ele><time>2026-05-05T06:51:06.001Z</time></trkpt><trkpt lat="14.537458144212565" lon="121.01759449395853"><ele>8.0</ele><time>2026-05-05T06:51:08.001Z</time></trkpt><trkpt lat="14.537528260124683" lon="121.01755713835993"><ele>8.0</ele><time>2026-05-05T06:51:10.001Z</time></trkpt><trkpt lat="14.53762345136144" lon="121.01750642340127"><ele>7.999999999999999</ele><time>2026-05-05T06:51:12.001Z</time></trkpt><trkpt lat="14.537713298662313" lon="121.0174585555289"><ele>8.0</ele><time>2026-05-05T06:51:14.001Z</time></trkpt><trkpt lat="14.53779791093347" lon="121.01741347671829"><ele>8.200000000000001</ele><time>2026-05-05T06:51:16.001Z</time></trkpt><trkpt lat="14.537883710150544" lon="121.0173677655378"><ele>8.4</ele><time>2026-05-05T06:51:18.001Z</time></trkpt><trkpt lat="14.537977793707661" lon="121.01731764071852"><ele>8.600000000000001</ele><time>2026-05-05T06:51:20.001Z</time></trkpt><trkpt lat="14.538081959556024" lon="121.01726214436212"><ele>8.8</ele><time>2026-05-05T06:51:22.001Z</time></trkpt><trkpt lat="14.538178966206214" lon="121.01721046220719"><ele>9.0</ele><time>2026-05-05T06:51:24.001Z</time></trkpt><trkpt lat="14.538265815540836" lon="121.01716419155792"><ele>8.714285714285715</ele><time>2026-05-05T06:51:26.001Z</time></trkpt><trkpt lat="14.538335706786844" lon="121.01712695565473"><ele>8.428571428571429</ele><time>2026-05-05T06:51:28.001Z</time></trkpt><trkpt lat="14.538399099271759" lon="121.01709318209244"><ele>8.142857142857142</ele><time>2026-05-05T06:51:30.001Z</time></trkpt><trkpt lat="14.538455860573533" lon="121.01706294142002"><ele>7.857142857142858</ele><time>2026-05-05T06:51:32.001Z</time></trkpt><trkpt lat="14.538534583793803" lon="121.0170210001125"><ele>7.571428571428571</ele><time>2026-05-05T06:51:35.001Z</time></trkpt><trkpt lat="14.538598943931417" lon="121.01698671101217"><ele>7.285714285714286</ele><time>2026-05-05T06:51:39.001Z</time></trkpt><trkpt lat="14.538662935204753" lon="121.01695261843392"><ele>7.0</ele><time>2026-05-05T06:51:44.001Z</time></trkpt><trkpt lat="14.53872071230746" lon="121.0169218365729"><ele>8.0</ele><time>2026-05-05T06:51:55Z</time></trkpt><trkpt lat="14.538787085701289" lon="121.01688647487612"><ele>9.0</ele><time>2026-05-05T06:52:04Z</time></trkpt><trkpt lat="14.538872188159496" lon="121.01684113490852"><ele>10.0</ele><time>2026-05-05T06:52:10Z</time></trkpt><trkpt lat="14.538944427675693" lon="121.01680264792016"><ele>11.0</ele><time>2026-05-05T06:52:12Z</time></trkpt><trkpt lat="14.539021697893622" lon="121.01676148072993"><ele>11.999999999999998</ele><time>2026-05-05T06:52:14Z</time></trkpt><trkpt lat="14.53908924759728" lon="121.01672549232832"><ele>13.0</ele><time>2026-05-05T06:52:16Z</time></trkpt><trkpt lat="14.539148768243688" lon="121.01669378156089"><ele>12.999999999999998</ele><time>2026-05-05T06:52:18Z</time></trkpt><trkpt lat="14.539217054835824" lon="121.01665740056781"><ele>13.0</ele><time>2026-05-05T06:52:22Z</time></trkpt><trkpt lat="14.539289266963486" lon="121.01661892817046"><ele>13.0</ele><time>2026-05-05T06:52:25Z</time></trkpt><trkpt lat="14.539371042644754" lon="121.01653797341623"><ele>13.0</ele><time>2026-05-05T06:52:27Z</time></trkpt><trkpt lat="14.539415326136021" lon="121.01648522205643"><ele>12.999999999999998</ele><time>2026-05-05T06:52:29Z</time></trkpt><trkpt lat="14.539470738050973" lon="121.01641080304171"><ele>13.0</ele><time>2026-05-05T06:52:31Z</time></trkpt><trkpt lat="14.539516338741517" lon="121.01634903915459"><ele>12.8</ele><time>2026-05-05T06:52:33Z</time></trkpt><trkpt lat="14.539554275105948" lon="121.01627029330166"><ele>12.600000000000001</ele><time>2026-05-05T06:52:35Z</time></trkpt><trkpt lat="14.539533827692797" lon="121.01618986746058"><ele>12.399999999999999</ele><time>2026-05-05T06:52:36Z</time></trkpt><trkpt lat="14.539411263917048" lon="121.01615061696414"><ele>12.2</ele><time>2026-05-05T06:52:39Z</time></trkpt><trkpt lat="14.53932352113472" lon="121.01618530396132"><ele>12.0</ele><time>2026-05-05T06:52:43Z</time></trkpt><trkpt lat="14.539258479259969" lon="121.01622489673478"><ele>12.0</ele><time>2026-05-05T06:52:45Z</time></trkpt><trkpt lat="14.539218602581544" lon="121.01627534490842"><ele>12.0</ele><time>2026-05-05T06:52:50Z</time></trkpt><trkpt lat="14.539121400458633" lon="121.01623198924499"><ele>12.0</ele><time>2026-05-05T07:11:26Z</time></trkpt><trkpt lat="14.539084112608734" lon="121.01617908230088"><ele>12.0</ele><time>2026-05-05T07:11:28Z</time></trkpt><trkpt lat="14.539036297719534" lon="121.01612426842247"><ele>12.0</ele><time>2026-05-05T07:11:35Z</time></trkpt><trkpt lat="14.538961869474099" lon="121.0160866983077"><ele>12.0</ele><time>2026-05-05T07:11:39Z</time></trkpt><trkpt lat="14.53887433750788" lon="121.01610274578508"><ele>12.0</ele><time>2026-05-05T07:11:41Z</time></trkpt><trkpt lat="14.538788068094012" lon="121.016147946021"><ele>12.0</ele><time>2026-05-05T07:11:43.001Z</time></trkpt><trkpt lat="14.538701232000857" lon="121.01618044286505"><ele>12.0</ele><time>2026-05-05T07:11:45.001Z</time></trkpt><trkpt lat="14.538619426193607" lon="121.01620680792159"><ele>12.0</ele><time>2026-05-05T07:11:46.001Z</time></trkpt><trkpt lat="14.538555805694719" lon="121.01623697042834"><ele>12.0</ele><time>2026-05-05T07:11:47.001Z</time></trkpt><trkpt lat="14.538457485136089" lon="121.01624805759886"><ele>12.0</ele><time>2026-05-05T07:11:48.001Z</time></trkpt><trkpt lat="14.538397155253206" lon="121.01627960766555"><ele>11.666666666666666</ele><time>2026-05-05T07:11:49.001Z</time></trkpt><trkpt lat="14.53829827630151" lon="121.01631526224637"><ele>11.333333333333334</ele><time>2026-05-05T07:11:51.001Z</time></trkpt><trkpt lat="14.538180185448239" lon="121.01636701957376"><ele>11.0</ele><time>2026-05-05T07:11:53.001Z</time></trkpt><trkpt lat="14.538121524266161" lon="121.01639958611273"><ele>10.666666666666668</ele><time>2026-05-05T07:11:54.001Z</time></trkpt><trkpt lat="14.538062720888044" lon="121.01643432431592"><ele>10.333333333333334</ele><time>2026-05-05T07:11:55.001Z</time></trkpt><trkpt lat="14.538003072589081" lon="121.01647423684285"><ele>10.0</ele><time>2026-05-05T07:11:56.001Z</time></trkpt><trkpt lat="14.537947012002967" lon="121.0165143657486"><ele>10.0</ele><time>2026-05-05T07:11:57.001Z</time></trkpt><trkpt lat="14.537888392859388" lon="121.01654596952258"><ele>10.0</ele><time>2026-05-05T07:11:58.001Z</time></trkpt><trkpt lat="14.537817657125817" lon="121.01659141701106"><ele>10.0</ele><time>2026-05-05T07:11:59.001Z</time></trkpt><trkpt lat="14.537747828443587" lon="121.0166280536643"><ele>10.0</ele><time>2026-05-05T07:12:00.001Z</time></trkpt><trkpt lat="14.537677903823232" lon="121.01666181662526"><ele>10.0</ele><time>2026-05-05T07:12:01.001Z</time></trkpt><trkpt lat="14.53756013170426" lon="121.01671857523543"><ele>10.0</ele><time>2026-05-05T07:12:03.001Z</time></trkpt><trkpt lat="14.537495072823232" lon="121.01675340351741"><ele>9.833333333333334</ele><time>2026-05-05T07:12:04.001Z</time></trkpt><trkpt lat="14.537434811539361" lon="121.01678410002695"><ele>9.666666666666668</ele><time>2026-05-05T07:12:05.001Z</time></trkpt><trkpt lat="14.537370620721397" lon="121.01681375106448"><ele>9.5</ele><time>2026-05-05T07:12:06.001Z</time></trkpt><trkpt lat="14.537301570147466" lon="121.01684706073074"><ele>9.333333333333334</ele><time>2026-05-05T07:12:07.001Z</time></trkpt><trkpt lat="14.53723858501107" lon="121.01687930048428"><ele>9.166666666666666</ele><time>2026-05-05T07:12:08.001Z</time></trkpt><trkpt lat="14.53714868610183" lon="121.0169312431815"><ele>9.0</ele><time>2026-05-05T07:12:10.001Z</time></trkpt><trkpt lat="14.537087524360672" lon="121.01696048668883"><ele>9.166666666666666</ele><time>2026-05-05T07:12:11.001Z</time></trkpt><trkpt lat="14.537017139149253" lon="121.01699407754673"><ele>9.333333333333334</ele><time>2026-05-05T07:12:12.001Z</time></trkpt><trkpt lat="14.536942382644483" lon="121.01702862757465"><ele>9.5</ele><time>2026-05-05T07:12:13.001Z</time></trkpt><trkpt lat="14.53687410848279" lon="121.01706848839515"><ele>9.666666666666668</ele><time>2026-05-05T07:12:14.001Z</time></trkpt><trkpt lat="14.53680632148934" lon="121.01711388956923"><ele>9.833333333333334</ele><time>2026-05-05T07:12:15.001Z</time></trkpt><trkpt lat="14.536737648857894" lon="121.01715802481625"><ele>10.0</ele><time>2026-05-05T07:12:16.001Z</time></trkpt><trkpt lat="14.536670333078389" lon="121.01719315192403"><ele>10.0</ele><time>2026-05-05T07:12:17.001Z</time></trkpt><trkpt lat="14.536588827068195" lon="121.01723845343386"><ele>10.0</ele><time>2026-05-05T07:12:18.001Z</time></trkpt><trkpt lat="14.536505348108685" lon="121.01728584326433"><ele>10.0</ele><time>2026-05-05T07:12:19.001Z</time></trkpt><trkpt lat="14.536419361861505" lon="121.01733255714495"><ele>10.0</ele><time>2026-05-05T07:12:20.001Z</time></trkpt><trkpt lat="14.536358064227517" lon="121.01736667648747"><ele>10.0</ele><time>2026-05-05T07:12:21.001Z</time></trkpt><trkpt lat="14.536299677460306" lon="121.0173981062954"><ele>10.0</ele><time>2026-05-05T07:12:22.001Z</time></trkpt><trkpt lat="14.536240739885496" lon="121.0174336550404"><ele>9.666666666666668</ele><time>2026-05-05T07:12:23.002Z</time></trkpt><trkpt lat="14.53617779906665" lon="121.0174713055809"><ele>9.333333333333334</ele><time>2026-05-05T07:12:25.002Z</time></trkpt><trkpt lat="14.536085693052641" lon="121.01752650317631"><ele>9.0</ele><time>2026-05-05T07:12:28.002Z</time></trkpt><trkpt lat="14.535991619713652" lon="121.01756757548445"><ele>8.666666666666666</ele><time>2026-05-05T07:12:30.002Z</time></trkpt><trkpt lat="14.535930172697856" lon="121.01759922554082"><ele>8.333333333333332</ele><time>2026-05-05T07:12:31.002Z</time></trkpt><trkpt lat="14.535862888217066" lon="121.01763331092602"><ele>8.0</ele><time>2026-05-05T07:12:32.002Z</time></trkpt><trkpt lat="14.535796968862982" lon="121.01766750115813"><ele>7.999999999999999</ele><time>2026-05-05T07:12:33.002Z</time></trkpt><trkpt lat="14.535737588232923" lon="121.01769937481492"><ele>8.0</ele><time>2026-05-05T07:12:34.002Z</time></trkpt><trkpt lat="14.535637803007674" lon="121.01775240936901"><ele>8.0</ele><time>2026-05-05T07:12:36.002Z</time></trkpt><trkpt lat="14.53557130715221" lon="121.01779533921652"><ele>8.0</ele><time>2026-05-05T07:12:38.002Z</time></trkpt><trkpt lat="14.535510276458417" lon="121.01782767147014"><ele>7.999999999999999</ele><time>2026-05-05T07:12:40.002Z</time></trkpt><trkpt lat="14.535432861454762" lon="121.01787275067366"><ele>8.0</ele><time>2026-05-05T07:12:42.002Z</time></trkpt><trkpt lat="14.53534488379567" lon="121.01790842203492"><ele>8.4</ele><time>2026-05-05T07:12:44.002Z</time></trkpt><trkpt lat="14.535277192072378" lon="121.01795292325592"><ele>8.8</ele><time>2026-05-05T07:12:46.002Z</time></trkpt><trkpt lat="14.535211342004308" lon="121.0179968996652"><ele>9.2</ele><time>2026-05-05T07:12:48.002Z</time></trkpt><trkpt lat="14.535120964292384" lon="121.01805447996793"><ele>9.6</ele><time>2026-05-05T07:12:50.002Z</time></trkpt><trkpt lat="14.535025233322978" lon="121.01809520662586"><ele>10.0</ele><time>2026-05-05T07:12:52.002Z</time></trkpt><trkpt lat="14.534919456302953" lon="121.01815105075633"><ele>10.0</ele><time>2026-05-05T07:12:54.002Z</time></trkpt><trkpt lat="14.534820286798539" lon="121.01819780898923"><ele>10.0</ele><time>2026-05-05T07:12:56Z</time></trkpt><trkpt lat="14.534712247901005" lon="121.01825174727881"><ele>10.0</ele><time>2026-05-05T07:12:58Z</time></trkpt><trkpt lat="14.534655361503606" lon="121.01828052822663"><ele>10.0</ele><time>2026-05-05T07:12:59Z</time></trkpt><trkpt lat="14.534550114229937" lon="121.0183317061825"><ele>10.0</ele><time>2026-05-05T07:13:01Z</time></trkpt><trkpt lat="14.53445821910544" lon="121.01838709012623"><ele>10.4</ele><time>2026-05-05T07:13:03Z</time></trkpt><trkpt lat="14.534360084081626" lon="121.01844630598573"><ele>10.8</ele><time>2026-05-05T07:13:05Z</time></trkpt><trkpt lat="14.53430328355569" lon="121.01847543542483"><ele>11.2</ele><time>2026-05-05T07:13:06Z</time></trkpt><trkpt lat="14.534196129346617" lon="121.01853548706731"><ele>11.6</ele><time>2026-05-05T07:13:08Z</time></trkpt><trkpt lat="14.534081978123202" lon="121.0185855348961"><ele>12.0</ele><time>2026-05-05T07:13:10Z</time></trkpt><trkpt lat="14.53397914785621" lon="121.01863266559602"><ele>12.0</ele><time>2026-05-05T07:13:12Z</time></trkpt><trkpt lat="14.533874117286402" lon="121.01868728641895"><ele>12.0</ele><time>2026-05-05T07:13:14Z</time></trkpt><trkpt lat="14.533821031830549" lon="121.0187281508282"><ele>12.0</ele><time>2026-05-05T07:13:15Z</time></trkpt><trkpt lat="14.53371436007189" lon="121.01879729372774"><ele>12.0</ele><time>2026-05-05T07:13:17Z</time></trkpt><trkpt lat="14.533615420345564" lon="121.01885634388287"><ele>12.0</ele><time>2026-05-05T07:13:19Z</time></trkpt><trkpt lat="14.533551984189582" lon="121.01889161484326"><ele>11.999999999999998</ele><time>2026-05-05T07:13:20Z</time></trkpt><trkpt lat="14.533475659192943" lon="121.01892619634255"><ele>12.0</ele><time>2026-05-05T07:13:22Z</time></trkpt><trkpt lat="14.533416164442786" lon="121.01895697233932"><ele>12.0</ele><time>2026-05-05T07:13:23Z</time></trkpt><trkpt lat="14.533357104764631" lon="121.01898608076101"><ele>12.0</ele><time>2026-05-05T07:13:24Z</time></trkpt><trkpt lat="14.533293554877403" lon="121.01901654167953"><ele>12.0</ele><time>2026-05-05T07:13:25Z</time></trkpt><trkpt lat="14.5332326460359" lon="121.01904706395989"><ele>11.999999999999998</ele><time>2026-05-05T07:13:26Z</time></trkpt><trkpt lat="14.533166354159356" lon="121.01908257237653"><ele>12.0</ele><time>2026-05-05T07:13:27Z</time></trkpt><trkpt lat="14.53309996668138" lon="121.01911948295538"><ele>12.0</ele><time>2026-05-05T07:13:28Z</time></trkpt><trkpt lat="14.53303504853228" lon="121.0191572400783"><ele>12.0</ele><time>2026-05-05T07:13:29Z</time></trkpt><trkpt lat="14.53296601065747" lon="121.01919629370367"><ele>12.0</ele><time>2026-05-05T07:13:30Z</time></trkpt><trkpt lat="14.532899971793503" lon="121.01923363793891"><ele>12.0</ele><time>2026-05-05T07:13:31Z</time></trkpt><trkpt lat="14.532839680873252" lon="121.01926951112016"><ele>12.0</ele><time>2026-05-05T07:13:32Z</time></trkpt><trkpt lat="14.532755836636865" lon="121.01932121957671"><ele>12.0</ele><time>2026-05-05T07:13:34Z</time></trkpt><trkpt lat="14.532656125337192" lon="121.01937806203078"><ele>12.0</ele><time>2026-05-05T07:13:36Z</time></trkpt><trkpt lat="14.532559357669035" lon="121.01942251651847"><ele>12.0</ele><time>2026-05-05T07:13:38Z</time></trkpt><trkpt lat="14.532462487599984" lon="121.01946581421572"><ele>12.0</ele><time>2026-05-05T07:13:40Z</time></trkpt><trkpt lat="14.532395846878522" lon="121.01950152716586"><ele>12.0</ele><time>2026-05-05T07:13:42Z</time></trkpt><trkpt lat="14.532317541909626" lon="121.01954049563125"><ele>12.0</ele><time>2026-05-05T07:13:44Z</time></trkpt><trkpt lat="14.532230332832517" lon="121.01957530335169"><ele>12.0</ele><time>2026-05-05T07:13:46.001Z</time></trkpt><trkpt lat="14.53213512974832" lon="121.0196255658696"><ele>12.0</ele><time>2026-05-05T07:13:48.001Z</time></trkpt><trkpt lat="14.532080911675271" lon="121.01965941843297"><ele>12.0</ele><time>2026-05-05T07:13:49.001Z</time></trkpt><trkpt lat="14.532023938003311" lon="121.01969044426303"><ele>12.0</ele><time>2026-05-05T07:13:50.001Z</time></trkpt><trkpt lat="14.53196867771922" lon="121.01972378567586"><ele>12.0</ele><time>2026-05-05T07:13:51.001Z</time></trkpt><trkpt lat="14.531868961507802" lon="121.01978724707666"><ele>12.0</ele><time>2026-05-05T07:13:53.001Z</time></trkpt><trkpt lat="14.531767188910543" lon="121.01984670114723"><ele>11.6</ele><time>2026-05-05T07:13:55.001Z</time></trkpt><trkpt lat="14.531663978014656" lon="121.01991156924586"><ele>11.2</ele><time>2026-05-05T07:13:57.001Z</time></trkpt><trkpt lat="14.531601810764794" lon="121.01995502466926"><ele>10.8</ele><time>2026-05-05T07:13:59.001Z</time></trkpt><trkpt lat="14.531643895237185" lon="121.02007117069223"><ele>10.4</ele><time>2026-05-05T07:14:01.001Z</time></trkpt><trkpt lat="14.53168960850267" lon="121.02018806101157"><ele>10.0</ele><time>2026-05-05T07:14:03.001Z</time></trkpt><trkpt lat="14.531724765486468" lon="121.02024651961086"><ele>10.0</ele><time>2026-05-05T07:14:04.001Z</time></trkpt><trkpt lat="14.531749397891675" lon="121.02030738784701"><ele>10.0</ele><time>2026-05-05T07:14:05.001Z</time></trkpt><trkpt lat="14.53180204849716" lon="121.0203770114445"><ele>10.0</ele><time>2026-05-05T07:14:07.001Z</time></trkpt><trkpt lat="14.531838566529807" lon="121.02043799217607"><ele>10.0</ele><time>2026-05-05T07:14:09.001Z</time></trkpt><trkpt lat="14.531861687712762" lon="121.02049898140349"><ele>10.0</ele><time>2026-05-05T07:14:11.001Z</time></trkpt><trkpt lat="14.531899630360801" lon="121.02057766316081"><ele>10.0</ele><time>2026-05-05T07:14:13.001Z</time></trkpt><trkpt lat="14.531936068008527" lon="121.02066022677072"><ele>10.0</ele><time>2026-05-05T07:14:15.001Z</time></trkpt><trkpt lat="14.531957416271476" lon="121.02073880601753"><ele>10.0</ele><time>2026-05-05T07:14:17.001Z</time></trkpt><trkpt lat="14.531880231434416" lon="121.0208208596038"><ele>10.0</ele><time>2026-05-05T07:14:24.001Z</time></trkpt><trkpt lat="14.531930156008027" lon="121.02088524857889"><ele>10.0</ele><time>2026-05-05T08:00:59.001Z</time></trkpt><trkpt lat="14.53199137937517" lon="121.02091389316558"><ele>10.0</ele><time>2026-05-05T08:01:03.002Z</time></trkpt><trkpt lat="14.53203562638685" lon="121.02098183412852"><ele>10.0</ele><time>2026-05-05T08:02:12.001Z</time></trkpt><trkpt lat="14.531986164745753" lon="121.0210579969255"><ele>9.6</ele><time>2026-05-05T08:02:14.001Z</time></trkpt><trkpt lat="14.531919690484434" lon="121.02111503292616"><ele>9.2</ele><time>2026-05-05T08:02:16.001Z</time></trkpt><trkpt lat="14.531831025655173" lon="121.02116305396093"><ele>8.8</ele><time>2026-05-05T08:02:18.001Z</time></trkpt><trkpt lat="14.531748975870709" lon="121.02120105607119"><ele>8.4</ele><time>2026-05-05T08:02:20.001Z</time></trkpt><trkpt lat="14.531683582294562" lon="121.02125977404607"><ele>8.0</ele><time>2026-05-05T08:02:22.001Z</time></trkpt><trkpt lat="14.531629124564963" lon="121.02133036387467"><ele>7.999999999999999</ele><time>2026-05-05T08:02:25.001Z</time></trkpt><trkpt lat="14.531558781378436" lon="121.02140479608859"><ele>8.0</ele><time>2026-05-05T08:02:28.001Z</time></trkpt><trkpt lat="14.531499857095922" lon="121.02144182712345"><ele>8.0</ele><time>2026-05-05T08:02:29.001Z</time></trkpt><trkpt lat="14.531446002552983" lon="121.02147725082503"><ele>8.0</ele><time>2026-05-05T08:02:30.001Z</time></trkpt><trkpt lat="14.531381383322252" lon="121.02151790622878"><ele>7.999999999999999</ele><time>2026-05-05T08:02:31.001Z</time></trkpt><trkpt lat="14.531310139070023" lon="121.02156602549124"><ele>8.0</ele><time>2026-05-05T08:02:32.001Z</time></trkpt><trkpt lat="14.531228526867023" lon="121.02160650424258"><ele>8.0</ele><time>2026-05-05T08:02:33.001Z</time></trkpt><trkpt lat="14.531148085039442" lon="121.02164225702742"><ele>8.0</ele><time>2026-05-05T08:02:34.001Z</time></trkpt><trkpt lat="14.53105718031945" lon="121.02169093326977"><ele>8.0</ele><time>2026-05-05T08:02:35.001Z</time></trkpt><trkpt lat="14.530992119863429" lon="121.02178849726883"><ele>8.0</ele><time>2026-05-05T08:02:36.001Z</time></trkpt><trkpt lat="14.530896920027319" lon="121.0218402763653"><ele>8.0</ele><time>2026-05-05T08:02:37.001Z</time></trkpt><trkpt lat="14.530800126490197" lon="121.02188949778721"><ele>8.25</ele><time>2026-05-05T08:02:38.001Z</time></trkpt><trkpt lat="14.530705844205707" lon="121.02194071285336"><ele>8.5</ele><time>2026-05-05T08:02:39.002Z</time></trkpt><trkpt lat="14.53060314403052" lon="121.0219968605013"><ele>8.75</ele><time>2026-05-05T08:02:40.002Z</time></trkpt><trkpt lat="14.5304960271594" lon="121.02205563960061"><ele>9.0</ele><time>2026-05-05T08:02:41.002Z</time></trkpt><trkpt lat="14.530392183768278" lon="121.02211262243134"><ele>8.8</ele><time>2026-05-05T08:02:42.002Z</time></trkpt><trkpt lat="14.53028832960839" lon="121.02216528074055"><ele>8.600000000000001</ele><time>2026-05-05T08:02:43.002Z</time></trkpt><trkpt lat="14.530191866109979" lon="121.02221565566921"><ele>8.4</ele><time>2026-05-05T08:02:44.002Z</time></trkpt><trkpt lat="14.530068988120805" lon="121.02217928341648"><ele>8.200000000000001</ele><time>2026-05-05T08:02:45.002Z</time></trkpt><trkpt lat="14.530003548046748" lon="121.02219945831294"><ele>8.0</ele><time>2026-05-05T08:02:46.002Z</time></trkpt><trkpt lat="14.529926302311214" lon="121.0222363678706"><ele>7.999999999999999</ele><time>2026-05-05T08:02:47.002Z</time></trkpt><trkpt lat="14.529862712483212" lon="121.02227178687737"><ele>8.0</ele><time>2026-05-05T08:02:48.002Z</time></trkpt><trkpt lat="14.529780399878552" lon="121.02232107030173"><ele>8.0</ele><time>2026-05-05T08:02:49.002Z</time></trkpt><trkpt lat="14.52969975629763" lon="121.02235850139144"><ele>8.0</ele><time>2026-05-05T08:02:50.002Z</time></trkpt><trkpt lat="14.529626297233719" lon="121.02239270083629"><ele>7.999999999999999</ele><time>2026-05-05T08:02:51.002Z</time></trkpt><trkpt lat="14.529539753078161" lon="121.02243502694454"><ele>8.0</ele><time>2026-05-05T08:02:52.002Z</time></trkpt><trkpt lat="14.529451362756143" lon="121.02247808109811"><ele>8.4</ele><time>2026-05-05T08:02:53.002Z</time></trkpt><trkpt lat="14.529360520855752" lon="121.02252583646147"><ele>8.8</ele><time>2026-05-05T08:02:54.002Z</time></trkpt><trkpt lat="14.529264576327433" lon="121.02256006198084"><ele>9.2</ele><time>2026-05-05T08:02:55.002Z</time></trkpt><trkpt lat="14.529172450214784" lon="121.02260055318007"><ele>9.6</ele><time>2026-05-05T08:02:56.002Z</time></trkpt><trkpt lat="14.529089245288185" lon="121.02264308809836"><ele>10.0</ele><time>2026-05-05T08:02:57.002Z</time></trkpt><trkpt lat="14.529008723641205" lon="121.02269309175472"><ele>10.0</ele><time>2026-05-05T08:02:58.002Z</time></trkpt><trkpt lat="14.528925821474546" lon="121.02273707543783"><ele>10.0</ele><time>2026-05-05T08:02:59.002Z</time></trkpt><trkpt lat="14.528840313755198" lon="121.02278136518206"><ele>10.0</ele><time>2026-05-05T08:03:00.002Z</time></trkpt><trkpt lat="14.528760434608104" lon="121.02282762401548"><ele>10.0</ele><time>2026-05-05T08:03:01.002Z</time></trkpt><trkpt lat="14.528673674912616" lon="121.02287462080427"><ele>10.0</ele><time>2026-05-05T08:03:02.002Z</time></trkpt><trkpt lat="14.528597563440394" lon="121.0229156507162"><ele>9.666666666666668</ele><time>2026-05-05T08:03:03.002Z</time></trkpt><trkpt lat="14.528511678178605" lon="121.02296311560109"><ele>9.333333333333334</ele><time>2026-05-05T08:03:04.002Z</time></trkpt><trkpt lat="14.528437881085491" lon="121.02300408448706"><ele>9.0</ele><time>2026-05-05T08:03:05.002Z</time></trkpt><trkpt lat="14.528364068440617" lon="121.023038231753"><ele>8.666666666666666</ele><time>2026-05-05T08:03:06.002Z</time></trkpt><trkpt lat="14.528284337656345" lon="121.0230799790768"><ele>8.333333333333332</ele><time>2026-05-05T08:03:07.002Z</time></trkpt><trkpt lat="14.5282072017624" lon="121.02312350849732"><ele>8.0</ele><time>2026-05-05T08:03:08.002Z</time></trkpt><trkpt lat="14.528126612877271" lon="121.02316830232952"><ele>7.999999999999999</ele><time>2026-05-05T08:03:09.002Z</time></trkpt><trkpt lat="14.528048234677062" lon="121.02321150936136"><ele>8.0</ele><time>2026-05-05T08:03:10.002Z</time></trkpt><trkpt lat="14.527969899641395" lon="121.02326250665745"><ele>8.0</ele><time>2026-05-05T08:03:11.002Z</time></trkpt><trkpt lat="14.527899196551326" lon="121.02329962464977"><ele>8.0</ele><time>2026-05-05T08:03:12.002Z</time></trkpt><trkpt lat="14.527832212948189" lon="121.02333658661738"><ele>7.999999999999999</ele><time>2026-05-05T08:03:13.002Z</time></trkpt><trkpt lat="14.527760919388756" lon="121.02338860672312"><ele>8.0</ele><time>2026-05-05T08:03:14.002Z</time></trkpt><trkpt lat="14.527680321482107" lon="121.02343454411532"><ele>8.600000000000001</ele><time>2026-05-05T08:03:15.002Z</time></trkpt><trkpt lat="14.5276070503344" lon="121.02348974215245"><ele>9.200000000000001</ele><time>2026-05-05T08:03:16.002Z</time></trkpt><trkpt lat="14.527513736911565" lon="121.02353060413913"><ele>9.8</ele><time>2026-05-05T08:03:17.002Z</time></trkpt><trkpt lat="14.527424724112809" lon="121.02358741401379"><ele>10.4</ele><time>2026-05-05T08:03:18.001Z</time></trkpt><trkpt lat="14.5273424553175" lon="121.02364703272042"><ele>11.0</ele><time>2026-05-05T08:03:19.001Z</time></trkpt><trkpt lat="14.5272548479069" lon="121.02370509558132"><ele>11.0</ele><time>2026-05-05T08:03:20.001Z</time></trkpt><trkpt lat="14.527165092889131" lon="121.02375984141025"><ele>11.0</ele><time>2026-05-05T08:03:21.001Z</time></trkpt><trkpt lat="14.527069877610138" lon="121.0238153272376"><ele>11.0</ele><time>2026-05-05T08:03:22.001Z</time></trkpt><trkpt lat="14.526966393168086" lon="121.02387427956997"><ele>11.0</ele><time>2026-05-05T08:03:23.001Z</time></trkpt><trkpt lat="14.526862432939513" lon="121.02393199416221"><ele>11.25</ele><time>2026-05-05T08:03:24.001Z</time></trkpt><trkpt lat="14.52675660692591" lon="121.02398250026023"><ele>11.5</ele><time>2026-05-05T08:03:25.001Z</time></trkpt><trkpt lat="14.526655204760779" lon="121.02404155764874"><ele>11.75</ele><time>2026-05-05T08:03:26.001Z</time></trkpt><trkpt lat="14.526555408402645" lon="121.02410152224954"><ele>12.0</ele><time>2026-05-05T08:03:27.001Z</time></trkpt><trkpt lat="14.526450118952264" lon="121.0241545022954"><ele>12.0</ele><time>2026-05-05T08:03:28.001Z</time></trkpt><trkpt lat="14.526367275021167" lon="121.02427356385148"><ele>12.0</ele><time>2026-05-05T08:03:29.001Z</time></trkpt><trkpt lat="14.526264791673231" lon="121.02433309075828"><ele>12.0</ele><time>2026-05-05T08:03:30.001Z</time></trkpt><trkpt lat="14.526155118241078" lon="121.02439679399204"><ele>12.0</ele><time>2026-05-05T08:03:31.001Z</time></trkpt><trkpt lat="14.526052008383994" lon="121.02445656647033"><ele>10.75</ele><time>2026-05-05T08:03:32.001Z</time></trkpt><trkpt lat="14.525946317419365" lon="121.02451793667403"><ele>9.5</ele><time>2026-05-05T08:03:33.001Z</time></trkpt><trkpt lat="14.525842639608536" lon="121.02457511424109"><ele>8.25</ele><time>2026-05-05T08:03:34.001Z</time></trkpt><trkpt lat="14.525739354563505" lon="121.02463207520664"><ele>7.0</ele><time>2026-05-05T08:03:35.001Z</time></trkpt><trkpt lat="14.525634942779348" lon="121.02468965756302"><ele>7.0</ele><time>2026-05-05T08:03:36.001Z</time></trkpt><trkpt lat="14.52552969241506" lon="121.0247477023885"><ele>6.999999999999999</ele><time>2026-05-05T08:03:37.001Z</time></trkpt><trkpt lat="14.525427529218844" lon="121.02480404463282"><ele>6.999999999999999</ele><time>2026-05-05T08:03:38.001Z</time></trkpt><trkpt lat="14.525336151140774" lon="121.02485384286562"><ele>7.0</ele><time>2026-05-05T08:03:39.001Z</time></trkpt><trkpt lat="14.525253569077634" lon="121.02489904363502"><ele>7.0</ele><time>2026-05-05T08:03:40.001Z</time></trkpt><trkpt lat="14.525169797507745" lon="121.02494489546429"><ele>7.8</ele><time>2026-05-05T08:03:41.001Z</time></trkpt><trkpt lat="14.525089193849688" lon="121.02498901336341"><ele>8.6</ele><time>2026-05-05T08:03:42.001Z</time></trkpt><trkpt lat="14.524956399946975" lon="121.02489984749415"><ele>9.4</ele><time>2026-05-05T08:03:43.001Z</time></trkpt><trkpt lat="14.524882541440945" lon="121.02487325126391"><ele>10.200000000000001</ele><time>2026-05-05T08:03:44.001Z</time></trkpt><trkpt lat="14.524793282698866" lon="121.02483388289774"><ele>11.0</ele><time>2026-05-05T08:03:45.001Z</time></trkpt><trkpt lat="14.524723825433599" lon="121.02478605057084"><ele>11.200000000000001</ele><time>2026-05-05T08:03:46.001Z</time></trkpt><trkpt lat="14.524664114119982" lon="121.02472185778404"><ele>11.4</ele><time>2026-05-05T08:03:47.001Z</time></trkpt><trkpt lat="14.524616767533674" lon="121.0246485130751"><ele>11.6</ele><time>2026-05-05T08:03:48.001Z</time></trkpt><trkpt lat="14.524548860287561" lon="121.02454275566376"><ele>11.8</ele><time>2026-05-05T08:03:50.001Z</time></trkpt><trkpt lat="14.52447382522636" lon="121.02445984061956"><ele>12.0</ele><time>2026-05-05T08:03:52.001Z</time></trkpt><trkpt lat="14.524411868252951" lon="121.0244229734393"><ele>12.833333333333334</ele><time>2026-05-05T08:03:53.001Z</time></trkpt><trkpt lat="14.524329240472493" lon="121.02439141390738"><ele>13.666666666666668</ele><time>2026-05-05T08:03:54.001Z</time></trkpt><trkpt lat="14.524241551710555" lon="121.02437114929336"><ele>14.5</ele><time>2026-05-05T08:03:55.001Z</time></trkpt><trkpt lat="14.524160225606293" lon="121.02436140678923"><ele>15.333333333333334</ele><time>2026-05-05T08:03:56.001Z</time></trkpt><trkpt lat="14.52406698043456" lon="121.02436733392332"><ele>16.166666666666668</ele><time>2026-05-05T08:03:57.001Z</time></trkpt><trkpt lat="14.523977616080643" lon="121.02438661882744"><ele>17.0</ele><time>2026-05-05T08:03:58.001Z</time></trkpt><trkpt lat="14.523905094047057" lon="121.02442379664934"><ele>17.0</ele><time>2026-05-05T08:03:59.001Z</time></trkpt><trkpt lat="14.523841612101627" lon="121.02447965117543"><ele>17.0</ele><time>2026-05-05T08:04:00.001Z</time></trkpt><trkpt lat="14.523771059268137" lon="121.02452823172655"><ele>17.0</ele><time>2026-05-05T08:04:01.001Z</time></trkpt><trkpt lat="14.523701846154399" lon="121.0245560266884"><ele>17.0</ele><time>2026-05-05T08:04:02.001Z</time></trkpt><trkpt lat="14.523619085539895" lon="121.02461709043553"><ele>17.0</ele><time>2026-05-05T08:04:04.001Z</time></trkpt><trkpt lat="14.523548707805432" lon="121.02465348050643"><ele>17.0</ele><time>2026-05-05T08:04:06.001Z</time></trkpt><trkpt lat="14.523495441681826" lon="121.02469317354921"><ele>17.2</ele><time>2026-05-05T08:04:08.001Z</time></trkpt><trkpt lat="14.523444902933258" lon="121.02477624791855"><ele>17.4</ele><time>2026-05-05T08:04:21.001Z</time></trkpt><trkpt lat="14.523400919962757" lon="121.02484437929239"><ele>17.6</ele><time>2026-05-05T08:04:23.001Z</time></trkpt><trkpt lat="14.523369625656263" lon="121.0249215299216"><ele>17.8</ele><time>2026-05-05T08:04:25.001Z</time></trkpt><trkpt lat="14.523340509361365" lon="121.02498098069269"><ele>18.0</ele><time>2026-05-05T08:04:26.001Z</time></trkpt><trkpt lat="14.523306662131391" lon="121.0251155933467"><ele>18.0</ele><time>2026-05-05T08:04:28.002Z</time></trkpt><trkpt lat="14.523288623487597" lon="121.02519928149785"><ele>18.0</ele><time>2026-05-05T08:04:29.002Z</time></trkpt><trkpt lat="14.523260214269271" lon="121.02526858101687"><ele>18.0</ele><time>2026-05-05T08:04:30.002Z</time></trkpt><trkpt lat="14.52323753260145" lon="121.02533701347625"><ele>18.0</ele><time>2026-05-05T08:04:31.002Z</time></trkpt><trkpt lat="14.523201896396735" lon="121.02540460984281"><ele>18.0</ele><time>2026-05-05T08:04:32.002Z</time></trkpt><trkpt lat="14.523162423126587" lon="121.02547145015717"><ele>18.0</ele><time>2026-05-05T08:04:33.002Z</time></trkpt><trkpt lat="14.523119046195246" lon="121.02554255740846"><ele>18.0</ele><time>2026-05-05T08:04:34.002Z</time></trkpt><trkpt lat="14.523071309081832" lon="121.02561248419569"><ele>18.0</ele><time>2026-05-05T08:04:35.002Z</time></trkpt><trkpt lat="14.523021281494387" lon="121.0256722382628"><ele>18.0</ele><time>2026-05-05T08:04:36.002Z</time></trkpt><trkpt lat="14.522984695357561" lon="121.02573338982992"><ele>18.0</ele><time>2026-05-05T08:04:37.002Z</time></trkpt><trkpt lat="14.522954424133825" lon="121.02579184266708"><ele>18.0</ele><time>2026-05-05T08:04:38.002Z</time></trkpt><trkpt lat="14.52288965201512" lon="121.02589328472222"><ele>18.0</ele><time>2026-05-05T08:04:40.002Z</time></trkpt><trkpt lat="14.5228190909697" lon="121.02597936602483"><ele>17.333333333333332</ele><time>2026-05-05T08:04:42.002Z</time></trkpt><trkpt lat="14.522748373811506" lon="121.02601265624922"><ele>16.666666666666668</ele><time>2026-05-05T08:04:44.002Z</time></trkpt><trkpt lat="14.522664749187017" lon="121.02606300051386"><ele>16.0</ele><time>2026-05-05T08:04:46.002Z</time></trkpt><trkpt lat="14.522583702397052" lon="121.0260957707049"><ele>15.333333333333334</ele><time>2026-05-05T08:04:48.002Z</time></trkpt><trkpt lat="14.522507188422884" lon="121.02613349341246"><ele>14.666666666666668</ele><time>2026-05-05T08:04:50.002Z</time></trkpt><trkpt lat="14.522432981457735" lon="121.02615972931568"><ele>14.0</ele><time>2026-05-05T08:04:52.002Z</time></trkpt><trkpt lat="14.522343366161472" lon="121.02620659466932"><ele>14.0</ele><time>2026-05-05T08:04:54.002Z</time></trkpt><trkpt lat="14.522263224141511" lon="121.0262299005402"><ele>13.999999999999998</ele><time>2026-05-05T08:04:56.002Z</time></trkpt><trkpt lat="14.522205654573115" lon="121.02626843021476"><ele>13.999999999999998</ele><time>2026-05-05T08:04:57.002Z</time></trkpt><trkpt lat="14.522095307603426" lon="121.0263100859667"><ele>14.0</ele><time>2026-05-05T08:04:59.002Z</time></trkpt><trkpt lat="14.521970260635426" lon="121.02636279899329"><ele>14.0</ele><time>2026-05-05T08:05:01.002Z</time></trkpt><trkpt lat="14.521899863295209" lon="121.02639040847696"><ele>14.000000000000002</ele><time>2026-05-05T08:05:02.002Z</time></trkpt><trkpt lat="14.521829608198251" lon="121.02643216871387"><ele>14.0</ele><time>2026-05-05T08:05:03.002Z</time></trkpt><trkpt lat="14.521713392958041" lon="121.02646657724942"><ele>14.0</ele><time>2026-05-05T08:05:05.002Z</time></trkpt><trkpt lat="14.521648663308616" lon="121.02650107680432"><ele>14.0</ele><time>2026-05-05T08:05:06.002Z</time></trkpt><trkpt lat="14.521573929594325" lon="121.02653376655242"><ele>14.000000000000002</ele><time>2026-05-05T08:05:07.002Z</time></trkpt><trkpt lat="14.521495000781643" lon="121.02655971983211"><ele>14.0</ele><time>2026-05-05T08:05:08.002Z</time></trkpt><trkpt lat="14.521419547835317" lon="121.02659704954864"><ele>14.000000000000002</ele><time>2026-05-05T08:05:09.002Z</time></trkpt><trkpt lat="14.521327895045735" lon="121.02663106737037"><ele>14.0</ele><time>2026-05-05T08:05:10.002Z</time></trkpt><trkpt lat="14.521255484985495" lon="121.02666319610093"><ele>14.0</ele><time>2026-05-05T08:05:11.002Z</time></trkpt><trkpt lat="14.521174004582818" lon="121.02669512802782"><ele>14.0</ele><time>2026-05-05T08:05:12.002Z</time></trkpt><trkpt lat="14.521093001226134" lon="121.02673079078917"><ele>14.000000000000002</ele><time>2026-05-05T08:05:13.002Z</time></trkpt><trkpt lat="14.521011343028967" lon="121.02676061132739"><ele>14.0</ele><time>2026-05-05T08:05:14.002Z</time></trkpt><trkpt lat="14.520934687061594" lon="121.02679778015278"><ele>14.333333333333334</ele><time>2026-05-05T08:05:15.002Z</time></trkpt><trkpt lat="14.52086623738618" lon="121.02682652491882"><ele>14.666666666666668</ele><time>2026-05-05T08:05:16.002Z</time></trkpt><trkpt lat="14.520807535548684" lon="121.02685259997884"><ele>15.0</ele><time>2026-05-05T08:05:17.002Z</time></trkpt><trkpt lat="14.520697198246227" lon="121.02690647570888"><ele>15.333333333333332</ele><time>2026-05-05T08:05:19.002Z</time></trkpt><trkpt lat="14.520634069860515" lon="121.02693592623993"><ele>15.666666666666666</ele><time>2026-05-05T08:05:20.002Z</time></trkpt><trkpt lat="14.520570166281725" lon="121.02696362937506"><ele>16.0</ele><time>2026-05-05T08:05:21.002Z</time></trkpt><trkpt lat="14.520498056810395" lon="121.0270023047446"><ele>16.0</ele><time>2026-05-05T08:05:22.002Z</time></trkpt><trkpt lat="14.5204213591846" lon="121.02704066909487"><ele>16.0</ele><time>2026-05-05T08:05:23.002Z</time></trkpt><trkpt lat="14.52033638950981" lon="121.02709192808813"><ele>16.0</ele><time>2026-05-05T08:05:24.001Z</time></trkpt><trkpt lat="14.520247490348476" lon="121.02713284022322"><ele>16.0</ele><time>2026-05-05T08:05:25.001Z</time></trkpt><trkpt lat="14.520162218308506" lon="121.02718062736562"><ele>16.0</ele><time>2026-05-05T08:05:26.001Z</time></trkpt><trkpt lat="14.520058631752075" lon="121.027236108561"><ele>16.0</ele><time>2026-05-05T08:05:27.001Z</time></trkpt><trkpt lat="14.519973444203927" lon="121.02728261777621"><ele>16.0</ele><time>2026-05-05T08:05:28.001Z</time></trkpt><trkpt lat="14.519877419103523" lon="121.02733375543582"><ele>16.0</ele><time>2026-05-05T08:05:29.001Z</time></trkpt><trkpt lat="14.519776837066624" lon="121.02738318422978"><ele>16.0</ele><time>2026-05-05T08:05:30.001Z</time></trkpt><trkpt lat="14.519676552966207" lon="121.02743754575606"><ele>16.0</ele><time>2026-05-05T08:05:31.001Z</time></trkpt><trkpt lat="14.519576259638713" lon="121.02749387683103"><ele>16.2</ele><time>2026-05-05T08:05:32.001Z</time></trkpt><trkpt lat="14.519484102330845" lon="121.02754117664001"><ele>16.400000000000002</ele><time>2026-05-05T08:05:33.001Z</time></trkpt><trkpt lat="14.519401784914855" lon="121.02758790449258"><ele>16.6</ele><time>2026-05-05T08:05:34.001Z</time></trkpt><trkpt lat="14.519318110849936" lon="121.02763206932241"><ele>16.8</ele><time>2026-05-05T08:05:35.001Z</time></trkpt><trkpt lat="14.51923324681705" lon="121.02767647181953"><ele>17.0</ele><time>2026-05-05T08:05:36.001Z</time></trkpt><trkpt lat="14.519142992692245" lon="121.02773116966124"><ele>17.0</ele><time>2026-05-05T08:05:37.001Z</time></trkpt><trkpt lat="14.519052735682694" lon="121.02777978064564"><ele>17.0</ele><time>2026-05-05T08:05:38.001Z</time></trkpt><trkpt lat="14.518955447542586" lon="121.02782919737545"><ele>17.0</ele><time>2026-05-05T08:05:39.001Z</time></trkpt><trkpt lat="14.518860632347144" lon="121.027873714684"><ele>17.0</ele><time>2026-05-05T08:05:40.001Z</time></trkpt><trkpt lat="14.51877198042917" lon="121.0279209939457"><ele>17.0</ele><time>2026-05-05T08:05:41.001Z</time></trkpt><trkpt lat="14.518695320838319" lon="121.02796469330954"><ele>17.833333333333336</ele><time>2026-05-05T08:05:42.001Z</time></trkpt><trkpt lat="14.51863115060319" lon="121.02799262188394"><ele>18.666666666666668</ele><time>2026-05-05T08:05:43.001Z</time></trkpt><trkpt lat="14.51855957013185" lon="121.0280333326541"><ele>19.5</ele><time>2026-05-05T08:05:44.001Z</time></trkpt><trkpt lat="14.51848467457771" lon="121.02807608050058"><ele>20.333333333333332</ele><time>2026-05-05T08:05:45.001Z</time></trkpt><trkpt lat="14.518411376575536" lon="121.02811441099993"><ele>21.166666666666664</ele><time>2026-05-05T08:05:46.001Z</time></trkpt><trkpt lat="14.51833481084578" lon="121.02816233316223"><ele>22.0</ele><time>2026-05-05T08:05:47.001Z</time></trkpt><trkpt lat="14.518268078519053" lon="121.02819400550491"><ele>22.0</ele><time>2026-05-05T08:05:48.001Z</time></trkpt><trkpt lat="14.518197365255334" lon="121.02824081920134"><ele>22.0</ele><time>2026-05-05T08:05:49.001Z</time></trkpt><trkpt lat="14.518131529950747" lon="121.02829042738226"><ele>22.0</ele><time>2026-05-05T08:05:50.001Z</time></trkpt><trkpt lat="14.5180663596557" lon="121.02833202145264"><ele>22.0</ele><time>2026-05-05T08:05:51.001Z</time></trkpt><trkpt lat="14.518007407590542" lon="121.02837438533236"><ele>22.0</ele><time>2026-05-05T08:05:52.001Z</time></trkpt><trkpt lat="14.517952052420009" lon="121.02841964367255"><ele>22.0</ele><time>2026-05-05T08:05:53.001Z</time></trkpt><trkpt lat="14.517894661015678" lon="121.02846211983453"><ele>22.142857142857142</ele><time>2026-05-05T08:05:54.001Z</time></trkpt><trkpt lat="14.51783117486088" lon="121.02851347467343"><ele>22.285714285714285</ele><time>2026-05-05T08:05:55.001Z</time></trkpt><trkpt lat="14.517768261673044" lon="121.02856156901662"><ele>22.42857142857143</ele><time>2026-05-05T08:05:56.001Z</time></trkpt><trkpt lat="14.517711183304886" lon="121.02860651852566"><ele>22.57142857142857</ele><time>2026-05-05T08:05:57.001Z</time></trkpt><trkpt lat="14.517653655207383" lon="121.02864772053094"><ele>22.71428571428571</ele><time>2026-05-05T08:05:58.001Z</time></trkpt><trkpt lat="14.517588666786965" lon="121.02869424687795"><ele>22.857142857142858</ele><time>2026-05-05T08:05:59.001Z</time></trkpt><trkpt lat="14.517535645870423" lon="121.02873753174309"><ele>23.0</ele><time>2026-05-05T08:06:00.001Z</time></trkpt><trkpt lat="14.517477418036846" lon="121.02878140938529"><ele>23.0</ele><time>2026-05-05T08:06:01.001Z</time></trkpt><trkpt lat="14.517418853314785" lon="121.02882431459763"><ele>23.0</ele><time>2026-05-05T08:06:02.001Z</time></trkpt><trkpt lat="14.517360856127912" lon="121.02886887599792"><ele>23.0</ele><time>2026-05-05T08:06:03.001Z</time></trkpt><trkpt lat="14.517299014374807" lon="121.02891457454442"><ele>23.0</ele><time>2026-05-05T08:06:04.001Z</time></trkpt><trkpt lat="14.517235451538735" lon="121.02896469888007"><ele>23.0</ele><time>2026-05-05T08:06:05.001Z</time></trkpt><trkpt lat="14.51716946257435" lon="121.02901448129673"><ele>23.0</ele><time>2026-05-05T08:06:06.001Z</time></trkpt><trkpt lat="14.517100645808883" lon="121.02906828043602"><ele>23.4</ele><time>2026-05-05T08:06:07.001Z</time></trkpt><trkpt lat="14.51702783373335" lon="121.02912180002849"><ele>23.799999999999997</ele><time>2026-05-05T08:06:08.001Z</time></trkpt><trkpt lat="14.516954153465916" lon="121.02917759221384"><ele>24.2</ele><time>2026-05-05T08:06:09.001Z</time></trkpt><trkpt lat="14.516876617653692" lon="121.0292360022997"><ele>24.6</ele><time>2026-05-05T08:06:10.001Z</time></trkpt><trkpt lat="14.516802728901846" lon="121.02929347216174"><ele>25.0</ele><time>2026-05-05T08:06:11.001Z</time></trkpt><trkpt lat="14.516722987856385" lon="121.02935601566347"><ele>25.0</ele><time>2026-05-05T08:06:12.001Z</time></trkpt><trkpt lat="14.51664742572634" lon="121.0294112291729"><ele>25.0</ele><time>2026-05-05T08:06:13.001Z</time></trkpt><trkpt lat="14.516558976505113" lon="121.02947445890598"><ele>25.0</ele><time>2026-05-05T08:06:14.001Z</time></trkpt><trkpt lat="14.516474955034946" lon="121.02952926117759"><ele>25.0</ele><time>2026-05-05T08:06:15.001Z</time></trkpt><trkpt lat="14.51638338626199" lon="121.0295816592551"><ele>25.0</ele><time>2026-05-05T08:06:16.001Z</time></trkpt><trkpt lat="14.516288184825157" lon="121.02963201359277"><ele>24.6</ele><time>2026-05-05T08:06:17.001Z</time></trkpt><trkpt lat="14.516193155428098" lon="121.02967739093228"><ele>24.2</ele><time>2026-05-05T08:06:18.001Z</time></trkpt><trkpt lat="14.516091249763376" lon="121.0297263755291"><ele>23.799999999999997</ele><time>2026-05-05T08:06:19.001Z</time></trkpt><trkpt lat="14.516001007928224" lon="121.02977713492008"><ele>23.4</ele><time>2026-05-05T08:06:20.001Z</time></trkpt><trkpt lat="14.515901999551025" lon="121.02982721604269"><ele>23.0</ele><time>2026-05-05T08:06:21.001Z</time></trkpt><trkpt lat="14.515804707989009" lon="121.02987811036449"><ele>23.0</ele><time>2026-05-05T08:06:22.001Z</time></trkpt><trkpt lat="14.51571300183382" lon="121.02992403892267"><ele>23.0</ele><time>2026-05-05T08:06:23.001Z</time></trkpt><trkpt lat="14.515615796050042" lon="121.02997198151107"><ele>23.0</ele><time>2026-05-05T08:06:24.001Z</time></trkpt><trkpt lat="14.515520670925646" lon="121.03002079385854"><ele>23.0</ele><time>2026-05-05T08:06:25.001Z</time></trkpt><trkpt lat="14.515430885097608" lon="121.03006648994266"><ele>23.0</ele><time>2026-05-05T08:06:26.001Z</time></trkpt><trkpt lat="14.515333089102267" lon="121.03011517216979"><ele>23.2</ele><time>2026-05-05T08:06:27.001Z</time></trkpt><trkpt lat="14.515237619082185" lon="121.03016347122023"><ele>23.4</ele><time>2026-05-05T08:06:28.001Z</time></trkpt><trkpt lat="14.51514328932589" lon="121.0302124935992"><ele>23.599999999999998</ele><time>2026-05-05T08:06:29.001Z</time></trkpt><trkpt lat="14.515043231442897" lon="121.03026468392534"><ele>23.799999999999997</ele><time>2026-05-05T08:06:30.001Z</time></trkpt><trkpt lat="14.514956428594932" lon="121.03031146582606"><ele>24.0</ele><time>2026-05-05T08:06:31.001Z</time></trkpt><trkpt lat="14.514847443545573" lon="121.03036233888898"><ele>24.0</ele><time>2026-05-05T08:06:32.001Z</time></trkpt><trkpt lat="14.514757168553674" lon="121.0304109069773"><ele>24.0</ele><time>2026-05-05T08:06:33.001Z</time></trkpt><trkpt lat="14.514655384014105" lon="121.03045936471602"><ele>24.0</ele><time>2026-05-05T08:06:34.001Z</time></trkpt><trkpt lat="14.514561501455884" lon="121.03050740597185"><ele>24.0</ele><time>2026-05-05T08:06:35.001Z</time></trkpt><trkpt lat="14.514456922262244" lon="121.03055353792129"><ele>24.0</ele><time>2026-05-05T08:06:36.001Z</time></trkpt><trkpt lat="14.514363701600928" lon="121.03059772828898"><ele>23.75</ele><time>2026-05-05T08:06:37.001Z</time></trkpt><trkpt lat="14.514246712744916" lon="121.03064293155319"><ele>23.5</ele><time>2026-05-05T08:06:38.001Z</time></trkpt><trkpt lat="14.514140909699382" lon="121.03068349158868"><ele>23.25</ele><time>2026-05-05T08:06:39.001Z</time></trkpt><trkpt lat="14.514032705144261" lon="121.03072717211208"><ele>23.0</ele><time>2026-05-05T08:06:40.002Z</time></trkpt><trkpt lat="14.513915376036001" lon="121.03077348445011"><ele>23.25</ele><time>2026-05-05T08:06:41.002Z</time></trkpt><trkpt lat="14.51378603969504" lon="121.0308241606423"><ele>23.5</ele><time>2026-05-05T08:06:42.002Z</time></trkpt><trkpt lat="14.513651266386422" lon="121.03087569988497"><ele>23.75</ele><time>2026-05-05T08:06:43.002Z</time></trkpt><trkpt lat="14.513517850115402" lon="121.0309258072775"><ele>24.0</ele><time>2026-05-05T08:06:44.002Z</time></trkpt><trkpt lat="14.513373311037109" lon="121.0309775879574"><ele>23.333333333333332</ele><time>2026-05-05T08:06:45.002Z</time></trkpt><trkpt lat="14.513232042142986" lon="121.03102793059495"><ele>22.666666666666664</ele><time>2026-05-05T08:06:46.002Z</time></trkpt><trkpt lat="14.513087895101474" lon="121.03108040121361"><ele>22.0</ele><time>2026-05-05T08:06:47.002Z</time></trkpt><trkpt lat="14.51294416940003" lon="121.03113385021501"><ele>22.25</ele><time>2026-05-05T08:06:48.002Z</time></trkpt><trkpt lat="14.512808064071445" lon="121.03118606444322"><ele>22.5</ele><time>2026-05-05T08:06:49.002Z</time></trkpt><trkpt lat="14.51267486111905" lon="121.03124214177045"><ele>22.75</ele><time>2026-05-05T08:06:50.002Z</time></trkpt><trkpt lat="14.512548567342316" lon="121.03129939960708"><ele>23.0</ele><time>2026-05-05T08:06:51.002Z</time></trkpt><trkpt lat="14.512423835807098" lon="121.03136180062248"><ele>23.0</ele><time>2026-05-05T08:06:52.002Z</time></trkpt><trkpt lat="14.512306788279576" lon="121.03142148447807"><ele>23.0</ele><time>2026-05-05T08:06:53.002Z</time></trkpt><trkpt lat="14.512198745489576" lon="121.03148220293924"><ele>23.0</ele><time>2026-05-05T08:06:54.002Z</time></trkpt><trkpt lat="14.512097324214208" lon="121.03153690977707"><ele>23.0</ele><time>2026-05-05T08:06:55.002Z</time></trkpt><trkpt lat="14.512006330298174" lon="121.03158563161904"><ele>23.166666666666668</ele><time>2026-05-05T08:06:56.002Z</time></trkpt><trkpt lat="14.5119290023653" lon="121.03162820972955"><ele>23.333333333333336</ele><time>2026-05-05T08:06:57.002Z</time></trkpt><trkpt lat="14.511839703836905" lon="121.03167401386321"><ele>23.5</ele><time>2026-05-05T08:06:58.002Z</time></trkpt><trkpt lat="14.511775669285429" lon="121.03171202071677"><ele>23.666666666666668</ele><time>2026-05-05T08:06:59.002Z</time></trkpt><trkpt lat="14.51171556775419" lon="121.03174918169735"><ele>23.833333333333332</ele><time>2026-05-05T08:07:00.002Z</time></trkpt><trkpt lat="14.511613224239392" lon="121.03180657369501"><ele>24.0</ele><time>2026-05-05T08:07:02.002Z</time></trkpt><trkpt lat="14.511522543242615" lon="121.03186613839742"><ele>24.0</ele><time>2026-05-05T08:07:04.002Z</time></trkpt><trkpt lat="14.51144259570653" lon="121.03191730623263"><ele>24.0</ele><time>2026-05-05T08:07:06.002Z</time></trkpt><trkpt lat="14.5113591928704" lon="121.03196914962172"><ele>24.0</ele><time>2026-05-05T08:07:08.002Z</time></trkpt><trkpt lat="14.511271732635102" lon="121.03201903978413"><ele>24.0</ele><time>2026-05-05T08:07:10.002Z</time></trkpt><trkpt lat="14.51119676021437" lon="121.03205676846727"><ele>24.0</ele><time>2026-05-05T08:07:12.002Z</time></trkpt><trkpt lat="14.511131770108696" lon="121.03209921405318"><ele>24.2</ele><time>2026-05-05T08:07:14.002Z</time></trkpt><trkpt lat="14.511016402313537" lon="121.03216156082807"><ele>24.4</ele><time>2026-05-05T08:07:25.002Z</time></trkpt><trkpt lat="14.51091800185904" lon="121.03222506240414"><ele>24.6</ele><time>2026-05-05T08:07:27.002Z</time></trkpt><trkpt lat="14.510846708982749" lon="121.03226373954901"><ele>24.8</ele><time>2026-05-05T08:07:28.002Z</time></trkpt><trkpt lat="14.510761732065466" lon="121.03231114901487"><ele>25.0</ele><time>2026-05-05T08:07:29.002Z</time></trkpt><trkpt lat="14.510669670672488" lon="121.03236956437264"><ele>25.0</ele><time>2026-05-05T08:07:30.001Z</time></trkpt><trkpt lat="14.510578707210101" lon="121.03243161635328"><ele>25.0</ele><time>2026-05-05T08:07:31.001Z</time></trkpt><trkpt lat="14.510484671544592" lon="121.03249300792923"><ele>25.0</ele><time>2026-05-05T08:07:32.001Z</time></trkpt><trkpt lat="14.510404753604673" lon="121.03254371167837"><ele>25.0</ele><time>2026-05-05T08:07:33.001Z</time></trkpt><trkpt lat="14.510344442410828" lon="121.0325955314798"><ele>25.0</ele><time>2026-05-05T08:07:34.001Z</time></trkpt><trkpt lat="14.510274414954274" lon="121.03264473919778"><ele>25.000000000000004</ele><time>2026-05-05T08:07:35.001Z</time></trkpt><trkpt lat="14.51020477258232" lon="121.03269260036544"><ele>25.0</ele><time>2026-05-05T08:07:36.001Z</time></trkpt><trkpt lat="14.510137585396805" lon="121.03274392940213"><ele>25.0</ele><time>2026-05-05T08:07:37.001Z</time></trkpt><trkpt lat="14.510071601741666" lon="121.03279048985124"><ele>25.0</ele><time>2026-05-05T08:07:38.001Z</time></trkpt><trkpt lat="14.509997670972282" lon="121.03284005588691"><ele>25.000000000000004</ele><time>2026-05-05T08:07:39.001Z</time></trkpt><trkpt lat="14.509924751699394" lon="121.03288810276607"><ele>25.0</ele><time>2026-05-05T08:07:40.001Z</time></trkpt><trkpt lat="14.509853813658081" lon="121.03293227799765"><ele>25.000000000000004</ele><time>2026-05-05T08:07:41.001Z</time></trkpt><trkpt lat="14.509789854868275" lon="121.03297035458634"><ele>25.0</ele><time>2026-05-05T08:07:42.001Z</time></trkpt><trkpt lat="14.50972376864594" lon="121.03300920923726"><ele>25.0</ele><time>2026-05-05T08:07:43.001Z</time></trkpt><trkpt lat="14.509655411197164" lon="121.03305132415159"><ele>25.0</ele><time>2026-05-05T08:07:44.001Z</time></trkpt><trkpt lat="14.509585298048895" lon="121.03308893487115"><ele>25.000000000000004</ele><time>2026-05-05T08:07:45.001Z</time></trkpt><trkpt lat="14.509515372952444" lon="121.03313188038251"><ele>25.0</ele><time>2026-05-05T08:07:46.001Z</time></trkpt><trkpt lat="14.509445929877288" lon="121.03317509856136"><ele>24.6</ele><time>2026-05-05T08:07:47.001Z</time></trkpt><trkpt lat="14.509340750505293" lon="121.03323395827742"><ele>24.2</ele><time>2026-05-05T08:07:49.001Z</time></trkpt><trkpt lat="14.509256988419354" lon="121.0332876283045"><ele>23.799999999999997</ele><time>2026-05-05T08:07:51.001Z</time></trkpt><trkpt lat="14.509173816534148" lon="121.03333054729724"><ele>23.4</ele><time>2026-05-05T08:07:58.001Z</time></trkpt><trkpt lat="14.509096005899723" lon="121.03335718928074"><ele>23.0</ele><time>2026-05-05T08:08:00.001Z</time></trkpt><trkpt lat="14.509010522736457" lon="121.03340042667519"><ele>22.799999999999997</ele><time>2026-05-05T08:08:02.001Z</time></trkpt><trkpt lat="14.508936389825463" lon="121.03343827129262"><ele>22.6</ele><time>2026-05-05T08:08:04.001Z</time></trkpt><trkpt lat="14.508847901551915" lon="121.03348606531597"><ele>22.4</ele><time>2026-05-05T08:08:06.001Z</time></trkpt><trkpt lat="14.508756399676702" lon="121.03353878143332"><ele>22.200000000000003</ele><time>2026-05-05T08:08:08.001Z</time></trkpt><trkpt lat="14.508661978509913" lon="121.03359418253406"><ele>22.0</ele><time>2026-05-05T08:08:10.001Z</time></trkpt><trkpt lat="14.508567296096244" lon="121.03365074456504"><ele>21.8</ele><time>2026-05-05T08:08:12.001Z</time></trkpt><trkpt lat="14.508472997199878" lon="121.03370729284192"><ele>21.6</ele><time>2026-05-05T08:08:14.001Z</time></trkpt><trkpt lat="14.508368641671963" lon="121.03376435331592"><ele>21.400000000000002</ele><time>2026-05-05T08:08:16.001Z</time></trkpt><trkpt lat="14.508288926010582" lon="121.03380753699042"><ele>21.200000000000003</ele><time>2026-05-05T08:08:18.001Z</time></trkpt><trkpt lat="14.50819499481973" lon="121.03386256310617"><ele>21.0</ele><time>2026-05-05T08:08:20.001Z</time></trkpt><trkpt lat="14.508089451857176" lon="121.03392575054808"><ele>21.0</ele><time>2026-05-05T08:08:22.001Z</time></trkpt><trkpt lat="14.508002950493886" lon="121.0339821743092"><ele>21.0</ele><time>2026-05-05T08:08:24.001Z</time></trkpt><trkpt lat="14.50791860391911" lon="121.03403757491431"><ele>21.0</ele><time>2026-05-05T08:08:26.001Z</time></trkpt><trkpt lat="14.50786579441269" lon="121.03407455096082"><ele>21.0</ele><time>2026-05-05T08:08:28.001Z</time></trkpt><trkpt lat="14.507805310795924" lon="121.03411164572822"><ele>21.0</ele><time>2026-05-05T08:08:31.001Z</time></trkpt><trkpt lat="14.507720796058964" lon="121.0341642319943"><ele>21.0</ele><time>2026-05-05T08:08:33.001Z</time></trkpt><trkpt lat="14.507642658506436" lon="121.03421623561123"><ele>20.5</ele><time>2026-05-05T08:08:35.001Z</time></trkpt><trkpt lat="14.507572138050074" lon="121.03425908721327"><ele>20.0</ele><time>2026-05-05T08:08:37.001Z</time></trkpt><trkpt lat="14.507508568271728" lon="121.03429799983496"><ele>19.5</ele><time>2026-05-05T08:08:39.001Z</time></trkpt><trkpt lat="14.507442765601759" lon="121.03434402767574"><ele>19.0</ele><time>2026-05-05T08:08:42.001Z</time></trkpt><trkpt lat="14.507363525031607" lon="121.0343948720106"><ele>18.5</ele><time>2026-05-05T08:08:44.001Z</time></trkpt><trkpt lat="14.507297682783678" lon="121.03442778537284"><ele>18.0</ele><time>2026-05-05T08:08:47.002Z</time></trkpt><trkpt lat="14.50724246797415" lon="121.03446365751395"><ele>18.0</ele><time>2026-05-05T08:08:53.002Z</time></trkpt><trkpt lat="14.507182202120955" lon="121.03449906806385"><ele>18.0</ele><time>2026-05-05T08:09:02.002Z</time></trkpt><trkpt lat="14.50711692973311" lon="121.03453810275225"><ele>18.0</ele><time>2026-05-05T08:09:06.002Z</time></trkpt><trkpt lat="14.507039735292851" lon="121.03458865827231"><ele>18.0</ele><time>2026-05-05T08:09:10.002Z</time></trkpt><trkpt lat="14.506972098646095" lon="121.03462103986836"><ele>18.0</ele><time>2026-05-05T08:09:12.002Z</time></trkpt><trkpt lat="14.506914830444087" lon="121.03465876546015"><ele>18.0</ele><time>2026-05-05T08:09:13.002Z</time></trkpt><trkpt lat="14.506779645344652" lon="121.03474948283439"><ele>17.833333333333332</ele><time>2026-05-05T08:09:15.002Z</time></trkpt><trkpt lat="14.506694193413376" lon="121.03480201888851"><ele>17.666666666666668</ele><time>2026-05-05T08:09:16.002Z</time></trkpt><trkpt lat="14.506617386332918" lon="121.03485162950976"><ele>17.5</ele><time>2026-05-05T08:09:17.002Z</time></trkpt><trkpt lat="14.506536640958291" lon="121.03489701397503"><ele>17.333333333333336</ele><time>2026-05-05T08:09:18.002Z</time></trkpt><trkpt lat="14.506473266039722" lon="121.0349267454629"><ele>17.166666666666668</ele><time>2026-05-05T08:09:19.002Z</time></trkpt><trkpt lat="14.506398364973828" lon="121.0349625369409"><ele>17.0</ele><time>2026-05-05T08:09:20.002Z</time></trkpt><trkpt lat="14.506330702481605" lon="121.03499300073824"><ele>17.333333333333336</ele><time>2026-05-05T08:09:21.002Z</time></trkpt><trkpt lat="14.506261354151729" lon="121.03503042257185"><ele>17.666666666666668</ele><time>2026-05-05T08:09:22.002Z</time></trkpt><trkpt lat="14.5061452173292" lon="121.03509281641588"><ele>18.0</ele><time>2026-05-05T08:09:24.002Z</time></trkpt><trkpt lat="14.506082491290812" lon="121.03513085191173"><ele>18.333333333333332</ele><time>2026-05-05T08:09:25.002Z</time></trkpt><trkpt lat="14.5060231077072" lon="121.03516435496253"><ele>18.666666666666664</ele><time>2026-05-05T08:09:26.002Z</time></trkpt><trkpt lat="14.505955710223008" lon="121.03519813885399"><ele>19.0</ele><time>2026-05-05T08:09:27.002Z</time></trkpt><trkpt lat="14.505888365214718" lon="121.03523275225464"><ele>18.333333333333332</ele><time>2026-05-05T08:09:28.002Z</time></trkpt><trkpt lat="14.505826340493783" lon="121.03527035915928"><ele>17.666666666666664</ele><time>2026-05-05T08:09:29.002Z</time></trkpt><trkpt lat="14.505760367137684" lon="121.03530462452287"><ele>17.0</ele><time>2026-05-05T08:09:30.002Z</time></trkpt><trkpt lat="14.505704487837159" lon="121.0353376864131"><ele>16.333333333333332</ele><time>2026-05-05T08:09:31.002Z</time></trkpt><trkpt lat="14.505601600048648" lon="121.0353936516943"><ele>15.666666666666666</ele><time>2026-05-05T08:09:33.002Z</time></trkpt><trkpt lat="14.505515535375265" lon="121.03544017738186"><ele>15.0</ele><time>2026-05-05T08:09:35.002Z</time></trkpt><trkpt lat="14.50543277466259" lon="121.03548530724821"><ele>15.0</ele><time>2026-05-05T08:09:37.001Z</time></trkpt><trkpt lat="14.505342070734189" lon="121.03553162850355"><ele>15.0</ele><time>2026-05-05T08:09:39.001Z</time></trkpt><trkpt lat="14.50524323691224" lon="121.03558867045923"><ele>15.0</ele><time>2026-05-05T08:09:41.001Z</time></trkpt><trkpt lat="14.50513127942976" lon="121.03564902384133"><ele>15.0</ele><time>2026-05-05T08:09:43.001Z</time></trkpt><trkpt lat="14.50506857800629" lon="121.03568377149894"><ele>15.0</ele><time>2026-05-05T08:09:44.001Z</time></trkpt><trkpt lat="14.505004795853113" lon="121.03571921911131"><ele>15.0</ele><time>2026-05-05T08:09:45.001Z</time></trkpt><trkpt lat="14.504935967216877" lon="121.03575736680321"><ele>15.0</ele><time>2026-05-05T08:09:46.001Z</time></trkpt><trkpt lat="14.504873689672175" lon="121.03579304439333"><ele>15.0</ele><time>2026-05-05T08:09:47.001Z</time></trkpt><trkpt lat="14.504783764355556" lon="121.03583487440768"><ele>15.0</ele><time>2026-05-05T08:09:49.001Z</time></trkpt><trkpt lat="14.504709626611522" lon="121.0358763779221"><ele>15.0</ele><time>2026-05-05T08:09:51.001Z</time></trkpt><trkpt lat="14.504648497213479" lon="121.03590116201438"><ele>15.0</ele><time>2026-05-05T08:09:53.001Z</time></trkpt><trkpt lat="14.504565017248455" lon="121.03595674438887"><ele>16.2</ele><time>2026-05-05T08:09:55.001Z</time></trkpt><trkpt lat="14.504457207388903" lon="121.03601527995407"><ele>17.4</ele><time>2026-05-05T08:09:57.001Z</time></trkpt><trkpt lat="14.504395785091388" lon="121.0360493231719"><ele>18.6</ele><time>2026-05-05T08:09:58.001Z</time></trkpt><trkpt lat="14.504298171340459" lon="121.0360997660286"><ele>19.8</ele><time>2026-05-05T08:10:00.001Z</time></trkpt><trkpt lat="14.504192570579388" lon="121.03615694333097"><ele>21.0</ele><time>2026-05-05T08:10:02.001Z</time></trkpt><trkpt lat="14.504133882782918" lon="121.0361897045152"><ele>21.0</ele><time>2026-05-05T08:10:03.001Z</time></trkpt><trkpt lat="14.504077703248297" lon="121.03622162816603"><ele>21.0</ele><time>2026-05-05T08:10:04.001Z</time></trkpt><trkpt lat="14.504018215244896" lon="121.03625217558437"><ele>21.0</ele><time>2026-05-05T08:10:05.001Z</time></trkpt><trkpt lat="14.503960761149742" lon="121.03628083225207"><ele>21.0</ele><time>2026-05-05T08:10:06.001Z</time></trkpt><trkpt lat="14.503894358602153" lon="121.03631720748638"><ele>21.0</ele><time>2026-05-05T08:10:07.001Z</time></trkpt><trkpt lat="14.503828171512042" lon="121.03635384844533"><ele>21.0</ele><time>2026-05-05T08:10:08.001Z</time></trkpt><trkpt lat="14.503756701180139" lon="121.03639770619999"><ele>21.0</ele><time>2026-05-05T08:10:09.001Z</time></trkpt><trkpt lat="14.503660613624998" lon="121.0364557834962"><ele>21.5</ele><time>2026-05-05T08:10:10.001Z</time></trkpt><trkpt lat="14.50355629794845" lon="121.0365139257164"><ele>22.0</ele><time>2026-05-05T08:10:11.001Z</time></trkpt><trkpt lat="14.503441512417625" lon="121.03656968909677"><ele>22.5</ele><time>2026-05-05T08:10:12.001Z</time></trkpt><trkpt lat="14.50333811992143" lon="121.03661943996173"><ele>23.0</ele><time>2026-05-05T08:10:13.001Z</time></trkpt><trkpt lat="14.503245794883181" lon="121.03667060494259"><ele>23.0</ele><time>2026-05-05T08:10:14.001Z</time></trkpt><trkpt lat="14.503177714991406" lon="121.03670266720624"><ele>23.0</ele><time>2026-05-05T08:10:15.001Z</time></trkpt><trkpt lat="14.503106021784244" lon="121.03674176741562"><ele>23.0</ele><time>2026-05-05T08:10:16.001Z</time></trkpt><trkpt lat="14.503044907343766" lon="121.0367726605871"><ele>23.0</ele><time>2026-05-05T08:10:17.001Z</time></trkpt><trkpt lat="14.502988848129526" lon="121.03680681190471"><ele>23.0</ele><time>2026-05-05T08:10:18.001Z</time></trkpt><trkpt lat="14.502901479826738" lon="121.036851229748"><ele>23.0</ele><time>2026-05-05T08:10:20.001Z</time></trkpt><trkpt lat="14.502828377664922" lon="121.03689348758634"><ele>22.833333333333336</ele><time>2026-05-05T08:10:22.001Z</time></trkpt><trkpt lat="14.502729800133766" lon="121.0369470510548"><ele>22.666666666666668</ele><time>2026-05-05T08:10:24.001Z</time></trkpt><trkpt lat="14.502629132196558" lon="121.03700096488988"><ele>22.5</ele><time>2026-05-05T08:10:26.001Z</time></trkpt><trkpt lat="14.50257146608523" lon="121.03703135045089"><ele>22.333333333333332</ele><time>2026-05-05T08:10:27.001Z</time></trkpt><trkpt lat="14.50250049804443" lon="121.03706744833951"><ele>22.166666666666664</ele><time>2026-05-05T08:10:28.001Z</time></trkpt><trkpt lat="14.502431123925884" lon="121.03710552328751"><ele>22.0</ele><time>2026-05-05T08:10:29.001Z</time></trkpt><trkpt lat="14.502366257074467" lon="121.03713822869881"><ele>22.0</ele><time>2026-05-05T08:10:30.001Z</time></trkpt><trkpt lat="14.502300928377583" lon="121.03717571526181"><ele>22.0</ele><time>2026-05-05T08:10:31.001Z</time></trkpt><trkpt lat="14.502174882607687" lon="121.03723933113109"><ele>22.0</ele><time>2026-05-05T08:10:33.001Z</time></trkpt><trkpt lat="14.502107208784436" lon="121.03727612185847"><ele>22.0</ele><time>2026-05-05T08:10:34.001Z</time></trkpt><trkpt lat="14.502033251770829" lon="121.03731536909262"><ele>22.0</ele><time>2026-05-05T08:10:35.001Z</time></trkpt><trkpt lat="14.501964541992487" lon="121.03735156406067"><ele>22.5</ele><time>2026-05-05T08:10:36.001Z</time></trkpt><trkpt lat="14.501891489367656" lon="121.0373922931964"><ele>23.0</ele><time>2026-05-05T08:10:37.001Z</time></trkpt><trkpt lat="14.50180757086935" lon="121.03744017368432"><ele>23.5</ele><time>2026-05-05T08:10:38.001Z</time></trkpt><trkpt lat="14.501735913099102" lon="121.0374783088657"><ele>24.0</ele><time>2026-05-05T08:10:39.001Z</time></trkpt><trkpt lat="14.501671267380498" lon="121.03751261085044"><ele>24.500000000000004</ele><time>2026-05-05T08:10:40.001Z</time></trkpt><trkpt lat="14.50160852820388" lon="121.03754635865712"><ele>25.0</ele><time>2026-05-05T08:10:41.001Z</time></trkpt><trkpt lat="14.501547910706297" lon="121.0375807865138"><ele>25.000000000000004</ele><time>2026-05-05T08:10:42.001Z</time></trkpt><trkpt lat="14.501476856927598" lon="121.0376193051473"><ele>25.0</ele><time>2026-05-05T08:10:43.001Z</time></trkpt><trkpt lat="14.501412951324944" lon="121.03765082911814"><ele>25.0</ele><time>2026-05-05T08:10:44.001Z</time></trkpt><trkpt lat="14.501332759687614" lon="121.03769659259947"><ele>25.0</ele><time>2026-05-05T08:10:45.001Z</time></trkpt><trkpt lat="14.501268519071012" lon="121.03773148726825"><ele>25.000000000000004</ele><time>2026-05-05T08:10:46.001Z</time></trkpt><trkpt lat="14.501202866013857" lon="121.03776970201977"><ele>25.0</ele><time>2026-05-05T08:10:47.001Z</time></trkpt><trkpt lat="14.501133968755033" lon="121.0378075503693"><ele>24.8</ele><time>2026-05-05T08:10:48.001Z</time></trkpt><trkpt lat="14.501070542075754" lon="121.03783908925813"><ele>24.6</ele><time>2026-05-05T08:10:49.001Z</time></trkpt><trkpt lat="14.501010516613492" lon="121.03787466793742"><ele>24.4</ele><time>2026-05-05T08:10:50.001Z</time></trkpt><trkpt lat="14.500911483302923" lon="121.03792809868371"><ele>24.2</ele><time>2026-05-05T08:10:52.001Z</time></trkpt><trkpt lat="14.500839150918441" lon="121.03796524018449"><ele>24.0</ele><time>2026-05-05T08:10:54.001Z</time></trkpt><trkpt lat="14.500733402871283" lon="121.03802221844471"><ele>24.0</ele><time>2026-05-05T08:10:56.001Z</time></trkpt><trkpt lat="14.500638082371418" lon="121.0380743971535"><ele>24.0</ele><time>2026-05-05T08:10:58.001Z</time></trkpt><trkpt lat="14.500571484268347" lon="121.03811540088955"><ele>24.0</ele><time>2026-05-05T08:11:00.001Z</time></trkpt><trkpt lat="14.500467823630665" lon="121.03817522450476"><ele>24.0</ele><time>2026-05-05T08:11:02.002Z</time></trkpt><trkpt lat="14.500381793430233" lon="121.0382143787524"><ele>24.0</ele><time>2026-05-05T08:11:04.002Z</time></trkpt><trkpt lat="14.500310905671125" lon="121.03825136394968"><ele>24.333333333333332</ele><time>2026-05-05T08:11:08.002Z</time></trkpt><trkpt lat="14.500238815782023" lon="121.03829019502004"><ele>24.666666666666664</ele><time>2026-05-05T08:11:12.002Z</time></trkpt><trkpt lat="14.500143812200124" lon="121.03834911592456"><ele>25.0</ele><time>2026-05-05T08:11:14.002Z</time></trkpt><trkpt lat="14.50007934161687" lon="121.03837916313564"><ele>25.333333333333332</ele><time>2026-05-05T08:11:15.002Z</time></trkpt><trkpt lat="14.500000850865082" lon="121.03842641020378"><ele>25.666666666666664</ele><time>2026-05-05T08:11:16.002Z</time></trkpt><trkpt lat="14.4999195478128" lon="121.03847082235471"><ele>26.0</ele><time>2026-05-05T08:11:17.002Z</time></trkpt><trkpt lat="14.49985696206008" lon="121.0385045549105"><ele>25.999999999999996</ele><time>2026-05-05T08:11:18.002Z</time></trkpt><trkpt lat="14.4997991183242" lon="121.0385350226229"><ele>26.0</ele><time>2026-05-05T08:11:19.002Z</time></trkpt><trkpt lat="14.499690793192665" lon="121.0385977219064"><ele>26.0</ele><time>2026-05-05T08:11:21.002Z</time></trkpt><trkpt lat="14.499620262310566" lon="121.03862992558619"><ele>26.0</ele><time>2026-05-05T08:11:22.002Z</time></trkpt><trkpt lat="14.499558548675612" lon="121.03865945348129"><ele>25.999999999999996</ele><time>2026-05-05T08:11:23.002Z</time></trkpt><trkpt lat="14.499493679998155" lon="121.03870177591446"><ele>26.0</ele><time>2026-05-05T08:11:24.002Z</time></trkpt><trkpt lat="14.49942297103903" lon="121.03873219603034"><ele>26.0</ele><time>2026-05-05T08:11:25.002Z</time></trkpt><trkpt lat="14.499359088394664" lon="121.0387740447366"><ele>26.0</ele><time>2026-05-05T08:11:26.002Z</time></trkpt><trkpt lat="14.499286254154871" lon="121.03880993845169"><ele>26.0</ele><time>2026-05-05T08:11:27.002Z</time></trkpt><trkpt lat="14.499225539467396" lon="121.03884945834562"><ele>26.0</ele><time>2026-05-05T08:11:28.002Z</time></trkpt><trkpt lat="14.49916172740994" lon="121.03888013694909"><ele>26.0</ele><time>2026-05-05T08:11:29.002Z</time></trkpt><trkpt lat="14.499092478828826" lon="121.03891306661336"><ele>26.0</ele><time>2026-05-05T08:11:30.002Z</time></trkpt><trkpt lat="14.499030123616352" lon="121.0389449716831"><ele>26.0</ele><time>2026-05-05T08:11:31.002Z</time></trkpt><trkpt lat="14.498969837527783" lon="121.03897924522109"><ele>25.999999999999996</ele><time>2026-05-05T08:11:32.002Z</time></trkpt><trkpt lat="14.498910834939783" lon="121.03901503275648"><ele>26.0</ele><time>2026-05-05T08:11:33.002Z</time></trkpt><trkpt lat="14.498844607991401" lon="121.03905338174582"><ele>26.0</ele><time>2026-05-05T08:11:34.002Z</time></trkpt><trkpt lat="14.49877739162642" lon="121.03908962840583"><ele>26.0</ele><time>2026-05-05T08:11:35.002Z</time></trkpt><trkpt lat="14.498708697179412" lon="121.03913292483404"><ele>25.999999999999996</ele><time>2026-05-05T08:11:36.002Z</time></trkpt><trkpt lat="14.498639003694699" lon="121.03917345314179"><ele>26.0</ele><time>2026-05-05T08:11:37.002Z</time></trkpt><trkpt lat="14.498570393900561" lon="121.03921168054936"><ele>26.833333333333332</ele><time>2026-05-05T08:11:38.002Z</time></trkpt><trkpt lat="14.498495418477082" lon="121.03924861554843"><ele>27.666666666666664</ele><time>2026-05-05T08:11:39.002Z</time></trkpt><trkpt lat="14.49842538216993" lon="121.03928607542286"><ele>28.5</ele><time>2026-05-05T08:11:40.002Z</time></trkpt><trkpt lat="14.498347987896999" lon="121.03932529959044"><ele>29.333333333333336</ele><time>2026-05-05T08:11:41.002Z</time></trkpt><trkpt lat="14.498279382759383" lon="121.03936153781255"><ele>30.166666666666668</ele><time>2026-05-05T08:11:42.001Z</time></trkpt><trkpt lat="14.498203685629637" lon="121.03940061047948"><ele>31.0</ele><time>2026-05-05T08:11:43.001Z</time></trkpt><trkpt lat="14.498127811859902" lon="121.03944266176957"><ele>31.000000000000004</ele><time>2026-05-05T08:11:44.001Z</time></trkpt><trkpt lat="14.498058858970925" lon="121.03948600628135"><ele>31.0</ele><time>2026-05-05T08:11:45.001Z</time></trkpt><trkpt lat="14.49798004079945" lon="121.03952357929172"><ele>31.0</ele><time>2026-05-05T08:11:46.001Z</time></trkpt><trkpt lat="14.497909119505675" lon="121.03956033854877"><ele>31.0</ele><time>2026-05-05T08:11:47.001Z</time></trkpt><trkpt lat="14.497845271831448" lon="121.03960438450821"><ele>31.000000000000004</ele><time>2026-05-05T08:11:48.001Z</time></trkpt><trkpt lat="14.497759612171832" lon="121.03964228795331"><ele>31.0</ele><time>2026-05-05T08:11:49.001Z</time></trkpt><trkpt lat="14.49767758402668" lon="121.03968607599658"><ele>31.200000000000003</ele><time>2026-05-05T08:11:50.001Z</time></trkpt><trkpt lat="14.4975912925898" lon="121.03972985771483"><ele>31.400000000000002</ele><time>2026-05-05T08:11:51.001Z</time></trkpt><trkpt lat="14.497499419373524" lon="121.03978660501733"><ele>31.6</ele><time>2026-05-05T08:11:52Z</time></trkpt><trkpt lat="14.497406720953256" lon="121.03983292717479"><ele>31.8</ele><time>2026-05-05T08:11:53Z</time></trkpt><trkpt lat="14.497330930407394" lon="121.03987561428863"><ele>32.0</ele><time>2026-05-05T08:11:54Z</time></trkpt><trkpt lat="14.497257091212107" lon="121.03991732162795"><ele>31.999999999999996</ele><time>2026-05-05T08:11:55Z</time></trkpt><trkpt lat="14.497175053740575" lon="121.0399623875744"><ele>32.0</ele><time>2026-05-05T08:11:56Z</time></trkpt><trkpt lat="14.497094454837184" lon="121.04000494911917"><ele>32.0</ele><time>2026-05-05T08:11:57Z</time></trkpt><trkpt lat="14.497019631089389" lon="121.04004363582303"><ele>32.0</ele><time>2026-05-05T08:11:58Z</time></trkpt><trkpt lat="14.496949952430901" lon="121.04007232951545"><ele>31.999999999999996</ele><time>2026-05-05T08:11:59Z</time></trkpt><trkpt lat="14.496882095305113" lon="121.04010546399623"><ele>32.0</ele><time>2026-05-05T08:12:00Z</time></trkpt><trkpt lat="14.496810056872537" lon="121.04015103618666"><ele>31.166666666666664</ele><time>2026-05-05T08:12:01Z</time></trkpt><trkpt lat="14.496740961209026" lon="121.04018173264411"><ele>30.333333333333332</ele><time>2026-05-05T08:12:02Z</time></trkpt><trkpt lat="14.496667039565605" lon="121.04022317958706"><ele>29.5</ele><time>2026-05-05T08:12:03.001Z</time></trkpt><trkpt lat="14.49659233593124" lon="121.04026323010677"><ele>28.666666666666664</ele><time>2026-05-05T08:12:04.001Z</time></trkpt><trkpt lat="14.496523422006259" lon="121.04030144367712"><ele>27.833333333333332</ele><time>2026-05-05T08:12:05.001Z</time></trkpt><trkpt lat="14.496463378682433" lon="121.04033613891981"><ele>27.0</ele><time>2026-05-05T08:12:06.001Z</time></trkpt><trkpt lat="14.49640620584737" lon="121.04037094892024"><ele>27.0</ele><time>2026-05-05T08:12:08.001Z</time></trkpt><trkpt lat="14.49631506570916" lon="121.04041399372534"><ele>27.0</ele><time>2026-05-05T08:12:10.001Z</time></trkpt><trkpt lat="14.496256845003339" lon="121.04045538413546"><ele>27.0</ele><time>2026-05-05T08:12:11.001Z</time></trkpt><trkpt lat="14.49618151030024" lon="121.04049404114396"><ele>27.0</ele><time>2026-05-05T08:12:12.001Z</time></trkpt><trkpt lat="14.496103339239829" lon="121.0405313587532"><ele>27.0</ele><time>2026-05-05T08:12:13.001Z</time></trkpt><trkpt lat="14.496024800645678" lon="121.04057662613685"><ele>27.0</ele><time>2026-05-05T08:12:14.001Z</time></trkpt><trkpt lat="14.495941021036407" lon="121.0406178919871"><ele>26.8</ele><time>2026-05-05T08:12:15.001Z</time></trkpt><trkpt lat="14.495858393425843" lon="121.04066042861538"><ele>26.6</ele><time>2026-05-05T08:12:16.001Z</time></trkpt><trkpt lat="14.495767183865922" lon="121.04071256626338"><ele>26.400000000000002</ele><time>2026-05-05T08:12:17.001Z</time></trkpt><trkpt lat="14.49567129368258" lon="121.04076163298019"><ele>26.200000000000003</ele><time>2026-05-05T08:12:18.001Z</time></trkpt><trkpt lat="14.495572635089875" lon="121.04081474030518"><ele>26.0</ele><time>2026-05-05T08:12:19.001Z</time></trkpt><trkpt lat="14.495481340358563" lon="121.04086587432373"><ele>25.999999999999996</ele><time>2026-05-05T08:12:20.001Z</time></trkpt><trkpt lat="14.495393541799704" lon="121.04091519581034"><ele>26.0</ele><time>2026-05-05T08:12:21.001Z</time></trkpt><trkpt lat="14.495313490787527" lon="121.04095697089151"><ele>26.0</ele><time>2026-05-05T08:12:22.001Z</time></trkpt><trkpt lat="14.495239002110402" lon="121.04099750166502"><ele>26.0</ele><time>2026-05-05T08:12:23.001Z</time></trkpt><trkpt lat="14.495161307752808" lon="121.04103610938294"><ele>25.999999999999996</ele><time>2026-05-05T08:12:24.001Z</time></trkpt><trkpt lat="14.495094239614817" lon="121.04107285997281"><ele>26.0</ele><time>2026-05-05T08:12:25.001Z</time></trkpt><trkpt lat="14.494970419900657" lon="121.04114068909695"><ele>26.0</ele><time>2026-05-05T08:12:27.001Z</time></trkpt><trkpt lat="14.494914298334095" lon="121.04117105574136"><ele>26.0</ele><time>2026-05-05T08:12:28.001Z</time></trkpt><trkpt lat="14.494855674121053" lon="121.04120389758717"><ele>26.0</ele><time>2026-05-05T08:12:29.001Z</time></trkpt><trkpt lat="14.494791421958114" lon="121.04123799538783"><ele>26.0</ele><time>2026-05-05T08:12:30.001Z</time></trkpt><trkpt lat="14.494727620828693" lon="121.0412721232186"><ele>26.0</ele><time>2026-05-05T08:12:31.001Z</time></trkpt><trkpt lat="14.494655577282314" lon="121.04131268428804"><ele>26.0</ele><time>2026-05-05T08:12:32.001Z</time></trkpt><trkpt lat="14.494588575952822" lon="121.04134923597046"><ele>26.0</ele><time>2026-05-05T08:12:33.001Z</time></trkpt><trkpt lat="14.494475696928243" lon="121.04140619598633"><ele>25.8</ele><time>2026-05-05T08:12:35.001Z</time></trkpt><trkpt lat="14.494375873582804" lon="121.04145868014362"><ele>25.6</ele><time>2026-05-05T08:12:37.001Z</time></trkpt><trkpt lat="14.494286607819202" lon="121.04150425644573"><ele>25.4</ele><time>2026-05-05T08:12:39.001Z</time></trkpt><trkpt lat="14.494198946186309" lon="121.04155145029269"><ele>25.2</ele><time>2026-05-05T08:12:41.001Z</time></trkpt><trkpt lat="14.49412472336479" lon="121.0415891679401"><ele>25.0</ele><time>2026-05-05T08:12:43.001Z</time></trkpt><trkpt lat="14.494049433443458" lon="121.04163340320761"><ele>25.333333333333336</ele><time>2026-05-05T08:12:45.001Z</time></trkpt><trkpt lat="14.493986178889047" lon="121.04165948273693"><ele>25.666666666666668</ele><time>2026-05-05T08:12:50.001Z</time></trkpt><trkpt lat="14.49391695443704" lon="121.04168269410954"><ele>26.0</ele><time>2026-05-05T08:13:14.001Z</time></trkpt><trkpt lat="14.493845619610227" lon="121.04171587069999"><ele>26.333333333333336</ele><time>2026-05-05T08:13:18.001Z</time></trkpt><trkpt lat="14.49377213475335" lon="121.0417542942394"><ele>26.666666666666668</ele><time>2026-05-05T08:13:21.001Z</time></trkpt><trkpt lat="14.493691447576085" lon="121.04179908614623"><ele>27.0</ele><time>2026-05-05T08:13:24.001Z</time></trkpt><trkpt lat="14.493633964459269" lon="121.0418298499016"><ele>27.166666666666668</ele><time>2026-05-05T08:13:26.001Z</time></trkpt><trkpt lat="14.493560834738174" lon="121.0418698060979"><ele>27.333333333333336</ele><time>2026-05-05T08:13:29.002Z</time></trkpt><trkpt lat="14.493482744508793" lon="121.04191552538984"><ele>27.5</ele><time>2026-05-05T08:13:31.002Z</time></trkpt><trkpt lat="14.493382309031269" lon="121.04196941490486"><ele>27.666666666666668</ele><time>2026-05-05T08:13:33.002Z</time></trkpt><trkpt lat="14.493313940043569" lon="121.04200625899448"><ele>27.833333333333336</ele><time>2026-05-05T08:13:34.002Z</time></trkpt><trkpt lat="14.493240938672939" lon="121.04204809976538"><ele>28.0</ele><time>2026-05-05T08:13:35.002Z</time></trkpt><trkpt lat="14.493169646342762" lon="121.0420853053061"><ele>28.0</ele><time>2026-05-05T08:13:36.002Z</time></trkpt><trkpt lat="14.493081528800268" lon="121.04213340906314"><ele>27.999999999999996</ele><time>2026-05-05T08:13:37.002Z</time></trkpt><trkpt lat="14.493000398403682" lon="121.0421811646992"><ele>27.999999999999996</ele><time>2026-05-05T08:13:38.002Z</time></trkpt><trkpt lat="14.492905921524066" lon="121.04222922594313"><ele>28.0</ele><time>2026-05-05T08:13:39.002Z</time></trkpt><trkpt lat="14.492813702527078" lon="121.04228201798944"><ele>28.0</ele><time>2026-05-05T08:13:40.002Z</time></trkpt><trkpt lat="14.492717740163808" lon="121.04233207407981"><ele>29.75</ele><time>2026-05-05T08:13:41.002Z</time></trkpt><trkpt lat="14.492608351724412" lon="121.04238013937618"><ele>31.5</ele><time>2026-05-05T08:13:42.002Z</time></trkpt><trkpt lat="14.492498414797096" lon="121.0424404178264"><ele>33.25</ele><time>2026-05-05T08:13:43.002Z</time></trkpt><trkpt lat="14.492399746541372" lon="121.04248969436854"><ele>35.0</ele><time>2026-05-05T08:13:44.002Z</time></trkpt><trkpt lat="14.49230159882272" lon="121.04254258278253"><ele>35.4</ele><time>2026-05-05T08:13:45.002Z</time></trkpt><trkpt lat="14.492202013427454" lon="121.04260558718128"><ele>35.8</ele><time>2026-05-05T08:13:46.002Z</time></trkpt><trkpt lat="14.492100405476723" lon="121.04265696551859"><ele>36.2</ele><time>2026-05-05T08:13:47.002Z</time></trkpt><trkpt lat="14.492016178872728" lon="121.04269444410316"><ele>36.6</ele><time>2026-05-05T08:13:48Z</time></trkpt><trkpt lat="14.49194121939149" lon="121.0427383343871"><ele>37.0</ele><time>2026-05-05T08:13:49Z</time></trkpt><trkpt lat="14.491869131284433" lon="121.04277444480775"><ele>37.16666666666667</ele><time>2026-05-05T08:13:50Z</time></trkpt><trkpt lat="14.49178817017589" lon="121.0428206311962"><ele>37.333333333333336</ele><time>2026-05-05T08:13:51Z</time></trkpt><trkpt lat="14.491715204317531" lon="121.04285810237519"><ele>37.5</ele><time>2026-05-05T08:13:52Z</time></trkpt><trkpt lat="14.491649009002327" lon="121.04289366077595"><ele>37.666666666666664</ele><time>2026-05-05T08:13:53Z</time></trkpt><trkpt lat="14.491589598433562" lon="121.04292618071453"><ele>37.83333333333333</ele><time>2026-05-05T08:13:54Z</time></trkpt><trkpt lat="14.491519006877803" lon="121.04297682260749"><ele>38.0</ele><time>2026-05-05T08:13:56Z</time></trkpt><trkpt lat="14.491431948170113" lon="121.04302354894402"><ele>38.0</ele><time>2026-05-05T08:13:59Z</time></trkpt><trkpt lat="14.491350189630703" lon="121.04308739025787"><ele>38.0</ele><time>2026-05-05T08:14:01Z</time></trkpt><trkpt lat="14.491284090036052" lon="121.04312220957716"><ele>38.0</ele><time>2026-05-05T08:14:02Z</time></trkpt><trkpt lat="14.491169204970216" lon="121.0431617315041"><ele>38.0</ele><time>2026-05-05T08:14:04Z</time></trkpt><trkpt lat="14.49109280471602" lon="121.04320775107391"><ele>38.0</ele><time>2026-05-05T08:14:06Z</time></trkpt><trkpt lat="14.49101145348696" lon="121.04324889449093"><ele>37.8</ele><time>2026-05-05T08:14:08Z</time></trkpt><trkpt lat="14.490917043197097" lon="121.04329302205623"><ele>37.599999999999994</ele><time>2026-05-05T08:14:10Z</time></trkpt><trkpt lat="14.49082728458967" lon="121.04334269345263"><ele>37.400000000000006</ele><time>2026-05-05T08:14:12Z</time></trkpt><trkpt lat="14.490722716966216" lon="121.04340263621215"><ele>37.2</ele><time>2026-05-05T08:14:14Z</time></trkpt><trkpt lat="14.490626143908312" lon="121.04344766195642"><ele>37.0</ele><time>2026-05-05T08:14:16Z</time></trkpt><trkpt lat="14.490549587852925" lon="121.04348696993165"><ele>36.800000000000004</ele><time>2026-05-05T08:14:18Z</time></trkpt><trkpt lat="14.49048160948813" lon="121.04352373636345"><ele>36.6</ele><time>2026-05-05T08:14:20Z</time></trkpt><trkpt lat="14.490387002919213" lon="121.04355970464536"><ele>36.400000000000006</ele><time>2026-05-05T08:14:23Z</time></trkpt><trkpt lat="14.490308825872747" lon="121.04358056302935"><ele>36.2</ele><time>2026-05-05T08:14:25Z</time></trkpt><trkpt lat="14.490196917170737" lon="121.0436296397458"><ele>36.0</ele><time>2026-05-05T08:14:27Z</time></trkpt><trkpt lat="14.490131295205344" lon="121.04365604336158"><ele>35.714285714285715</ele><time>2026-05-05T08:14:28Z</time></trkpt><trkpt lat="14.490066854413458" lon="121.04368464616654"><ele>35.42857142857143</ele><time>2026-05-05T08:14:29Z</time></trkpt><trkpt lat="14.490007769627248" lon="121.04371314973709"><ele>35.14285714285714</ele><time>2026-05-05T08:14:30Z</time></trkpt><trkpt lat="14.48994288872094" lon="121.04374203669293"><ele>34.85714285714286</ele><time>2026-05-05T08:14:31Z</time></trkpt><trkpt lat="14.489880774540529" lon="121.04377043699027"><ele>34.57142857142857</ele><time>2026-05-05T08:14:32Z</time></trkpt><trkpt lat="14.48980864612697" lon="121.04380593031436"><ele>34.285714285714285</ele><time>2026-05-05T08:14:33Z</time></trkpt><trkpt lat="14.489739907255228" lon="121.04383969129098"><ele>34.0</ele><time>2026-05-05T08:14:34Z</time></trkpt><trkpt lat="14.489679405705486" lon="121.04386721168493"><ele>33.99999999999999</ele><time>2026-05-05T08:14:35Z</time></trkpt><trkpt lat="14.48960986192076" lon="121.04389776218012"><ele>34.0</ele><time>2026-05-05T08:14:36Z</time></trkpt><trkpt lat="14.48954670352598" lon="121.04392161237554"><ele>34.0</ele><time>2026-05-05T08:14:37.001Z</time></trkpt><trkpt lat="14.489485258502672" lon="121.04394183326002"><ele>34.0</ele><time>2026-05-05T08:14:38.001Z</time></trkpt><trkpt lat="14.489428685351385" lon="121.04397058117253"><ele>34.0</ele><time>2026-05-05T08:14:39.001Z</time></trkpt><trkpt lat="14.489356098305246" lon="121.0439976593844"><ele>33.99999999999999</ele><time>2026-05-05T08:14:40.001Z</time></trkpt><trkpt lat="14.48928260593745" lon="121.04402494241131"><ele>34.0</ele><time>2026-05-05T08:14:41.001Z</time></trkpt><trkpt lat="14.48921185378758" lon="121.04405810454121"><ele>34.16666666666667</ele><time>2026-05-05T08:14:42.001Z</time></trkpt><trkpt lat="14.48913758626433" lon="121.04408690188936"><ele>34.333333333333336</ele><time>2026-05-05T08:14:43.001Z</time></trkpt><trkpt lat="14.489067810240048" lon="121.04411581470097"><ele>34.5</ele><time>2026-05-05T08:14:44.001Z</time></trkpt><trkpt lat="14.489004555631773" lon="121.04413995932674"><ele>34.666666666666664</ele><time>2026-05-05T08:14:45.001Z</time></trkpt><trkpt lat="14.488890151572862" lon="121.04416570841668"><ele>34.83333333333333</ele><time>2026-05-05T08:14:47.001Z</time></trkpt><trkpt lat="14.48879754515649" lon="121.04417760224554"><ele>35.0</ele><time>2026-05-05T08:14:49.001Z</time></trkpt><trkpt lat="14.488716633357758" lon="121.04417654236707"><ele>35.0</ele><time>2026-05-05T08:14:51.001Z</time></trkpt><trkpt lat="14.488651696562478" lon="121.04417070776569"><ele>35.0</ele><time>2026-05-05T08:14:52.001Z</time></trkpt><trkpt lat="14.488562081429746" lon="121.04417035959453"><ele>35.0</ele><time>2026-05-05T08:14:54.001Z</time></trkpt><trkpt lat="14.488467911023335" lon="121.04417479119252"><ele>35.0</ele><time>2026-05-05T08:14:57.001Z</time></trkpt><trkpt lat="14.488354929385864" lon="121.04417573872486"><ele>35.0</ele><time>2026-05-05T08:14:59.001Z</time></trkpt><trkpt lat="14.488252466516746" lon="121.04418656705002"><ele>35.0</ele><time>2026-05-05T08:15:01.001Z</time></trkpt><trkpt lat="14.488132736748607" lon="121.04421129118391"><ele>35.0</ele><time>2026-05-05T08:15:02.001Z</time></trkpt><trkpt lat="14.4879900768527" lon="121.04424702841162"><ele>35.0</ele><time>2026-05-05T08:15:03.001Z</time></trkpt><trkpt lat="14.487870459622382" lon="121.04426887738121"><ele>35.0</ele><time>2026-05-05T08:15:04.001Z</time></trkpt><trkpt lat="14.48776609897255" lon="121.04428695602365"><ele>34.4</ele><time>2026-05-05T08:15:05.001Z</time></trkpt><trkpt lat="14.48766188399454" lon="121.04430945295805"><ele>33.8</ele><time>2026-05-05T08:15:06.001Z</time></trkpt><trkpt lat="14.487554967179936" lon="121.04433384513145"><ele>33.2</ele><time>2026-05-05T08:15:07.001Z</time></trkpt><trkpt lat="14.487461885936774" lon="121.04435323296913"><ele>32.6</ele><time>2026-05-05T08:15:08.001Z</time></trkpt><trkpt lat="14.487372316870166" lon="121.04436482620753"><ele>32.0</ele><time>2026-05-05T08:15:09.001Z</time></trkpt><trkpt lat="14.487303829089688" lon="121.04437799440842"><ele>31.999999999999996</ele><time>2026-05-05T08:15:10.001Z</time></trkpt><trkpt lat="14.487217705518832" lon="121.04440192970117"><ele>32.0</ele><time>2026-05-05T08:15:12.001Z</time></trkpt><trkpt lat="14.487157975853176" lon="121.04442335238768"><ele>32.0</ele><time>2026-05-05T08:15:18.001Z</time></trkpt><trkpt lat="14.487057142523367" lon="121.04442877039078"><ele>32.0</ele><time>2026-05-05T08:15:20.001Z</time></trkpt><trkpt lat="14.486978908428247" lon="121.04443770285896"><ele>31.999999999999996</ele><time>2026-05-05T08:15:34.001Z</time></trkpt><trkpt lat="14.486907667787552" lon="121.04445249156463"><ele>32.0</ele><time>2026-05-05T08:15:37.001Z</time></trkpt><trkpt lat="14.486840729432831" lon="121.04446680971266"><ele>31.999999999999996</ele><time>2026-05-05T08:15:42.001Z</time></trkpt><trkpt lat="14.48679663829908" lon="121.04451341016076"><ele>32.0</ele><time>2026-05-05T08:15:46.001Z</time></trkpt><trkpt lat="14.48676595464974" lon="121.04457194307612"><ele>32.0</ele><time>2026-05-05T08:15:50.001Z</time></trkpt><trkpt lat="14.486757044019065" lon="121.04464005628992"><ele>32.0</ele><time>2026-05-05T08:15:55Z</time></trkpt><trkpt lat="14.486777021840648" lon="121.04474023682661"><ele>31.999999999999996</ele><time>2026-05-05T08:15:57Z</time></trkpt><trkpt lat="14.486800912842323" lon="121.04481050973752"><ele>32.0</ele><time>2026-05-05T08:15:58Z</time></trkpt><trkpt lat="14.486819432587255" lon="121.04493601118128"><ele>32.33333333333333</ele><time>2026-05-05T08:16:00Z</time></trkpt><trkpt lat="14.486844581401503" lon="121.04503617271459"><ele>32.666666666666664</ele><time>2026-05-05T08:16:02Z</time></trkpt><trkpt lat="14.486852681040457" lon="121.04510562721893"><ele>33.0</ele><time>2026-05-05T08:16:04Z</time></trkpt><trkpt lat="14.48687540086551" lon="121.0451801510534"><ele>33.333333333333336</ele><time>2026-05-05T08:16:07Z</time></trkpt><trkpt lat="14.486914383502926" lon="121.04528388009561"><ele>33.66666666666667</ele><time>2026-05-05T08:16:09Z</time></trkpt><trkpt lat="14.486931134149627" lon="121.04534878658662"><ele>34.0</ele><time>2026-05-05T08:16:10Z</time></trkpt><trkpt lat="14.486939981094924" lon="121.04544699958049"><ele>34.0</ele><time>2026-05-05T08:16:12Z</time></trkpt><trkpt lat="14.486889947106903" lon="121.04549427282113"><ele>34.0</ele><time>2026-05-05T08:16:14Z</time></trkpt><trkpt lat="14.486762401520943" lon="121.04548611953658"><ele>34.0</ele><time>2026-05-05T08:16:16Z</time></trkpt><trkpt lat="14.486677845291096" lon="121.04549042981607"><ele>34.0</ele><time>2026-05-05T08:16:18Z</time></trkpt><trkpt lat="14.486595646692695" lon="121.045495737393"><ele>34.0</ele><time>2026-05-05T08:16:20Z</time></trkpt><trkpt lat="14.486495762546618" lon="121.04549261617292"><ele>34.0</ele><time>2026-05-05T08:16:22Z</time></trkpt><trkpt lat="14.486418643138046" lon="121.0454883756403"><ele>34.0</ele><time>2026-05-05T08:16:23Z</time></trkpt><trkpt lat="14.486330417318506" lon="121.04548471658445"><ele>34.0</ele><time>2026-05-05T08:16:24Z</time></trkpt><trkpt lat="14.486236498297563" lon="121.04547945132634"><ele>34.0</ele><time>2026-05-05T08:16:25Z</time></trkpt><trkpt lat="14.486146102341516" lon="121.04546698485358"><ele>34.0</ele><time>2026-05-05T08:16:26Z</time></trkpt><trkpt lat="14.486037322657777" lon="121.04545189174111"><ele>34.2</ele><time>2026-05-05T08:16:27Z</time></trkpt><trkpt lat="14.485908199987056" lon="121.04544281024108"><ele>34.4</ele><time>2026-05-05T08:16:28Z</time></trkpt><trkpt lat="14.48580054467852" lon="121.04543763403316"><ele>34.6</ele><time>2026-05-05T08:16:29Z</time></trkpt><trkpt lat="14.485709716693302" lon="121.04542294988252"><ele>34.8</ele><time>2026-05-05T08:16:30Z</time></trkpt><trkpt lat="14.485635928976643" lon="121.04540975314822"><ele>35.0</ele><time>2026-05-05T08:16:31Z</time></trkpt><trkpt lat="14.48554980036786" lon="121.04540656744027"><ele>35.0</ele><time>2026-05-05T08:16:32Z</time></trkpt><trkpt lat="14.485453327113099" lon="121.04539890621433"><ele>35.0</ele><time>2026-05-05T08:16:33Z</time></trkpt><trkpt lat="14.485370201965246" lon="121.04539111854217"><ele>35.0</ele><time>2026-05-05T08:16:34Z</time></trkpt><trkpt lat="14.48527283136523" lon="121.04538738327736"><ele>35.0</ele><time>2026-05-05T08:16:35.001Z</time></trkpt><trkpt lat="14.485177559405571" lon="121.04537797100397"><ele>35.0</ele><time>2026-05-05T08:16:36.001Z</time></trkpt><trkpt lat="14.485076203596549" lon="121.0453706577329"><ele>33.75</ele><time>2026-05-05T08:16:37.001Z</time></trkpt><trkpt lat="14.484979144507282" lon="121.04536191397058"><ele>32.5</ele><time>2026-05-05T08:16:38.001Z</time></trkpt><trkpt lat="14.48486654463232" lon="121.04535243324594"><ele>31.25</ele><time>2026-05-05T08:16:39.001Z</time></trkpt><trkpt lat="14.484756855010644" lon="121.04534216210644"><ele>30.0</ele><time>2026-05-05T08:16:40.001Z</time></trkpt><trkpt lat="14.48462419639182" lon="121.04533329532894"><ele>30.2</ele><time>2026-05-05T08:16:41.001Z</time></trkpt><trkpt lat="14.48450674667287" lon="121.04532730244755"><ele>30.4</ele><time>2026-05-05T08:16:42.001Z</time></trkpt><trkpt lat="14.484408397849137" lon="121.04532440618448"><ele>30.6</ele><time>2026-05-05T08:16:43.001Z</time></trkpt><trkpt lat="14.484305082225253" lon="121.04532788004933"><ele>30.8</ele><time>2026-05-05T08:16:44.001Z</time></trkpt><trkpt lat="14.484216013290014" lon="121.04532693421991"><ele>31.0</ele><time>2026-05-05T08:16:45.001Z</time></trkpt><trkpt lat="14.484129273316068" lon="121.04532404223411"><ele>31.0</ele><time>2026-05-05T08:16:46.001Z</time></trkpt><trkpt lat="14.484040857676614" lon="121.04532767076294"><ele>31.0</ele><time>2026-05-05T08:16:47.001Z</time></trkpt><trkpt lat="14.483944856607119" lon="121.04532638225695"><ele>31.0</ele><time>2026-05-05T08:16:48.001Z</time></trkpt><trkpt lat="14.483837168450629" lon="121.04532570268569"><ele>31.0</ele><time>2026-05-05T08:16:49.001Z</time></trkpt><trkpt lat="14.48373458035425" lon="121.04532640486526"><ele>31.0</ele><time>2026-05-05T08:16:50.001Z</time></trkpt><trkpt lat="14.483629585419266" lon="121.04532502455123"><ele>31.166666666666668</ele><time>2026-05-05T08:16:51.001Z</time></trkpt><trkpt lat="14.48352965339007" lon="121.04532358336722"><ele>31.333333333333336</ele><time>2026-05-05T08:16:52.001Z</time></trkpt><trkpt lat="14.483436401715005" lon="121.04532612180796"><ele>31.5</ele><time>2026-05-05T08:16:53.001Z</time></trkpt><trkpt lat="14.48336526141258" lon="121.04532478817907"><ele>31.666666666666664</ele><time>2026-05-05T08:16:54.001Z</time></trkpt><trkpt lat="14.483262728144899" lon="121.04533052390833"><ele>31.833333333333332</ele><time>2026-05-05T08:16:56.001Z</time></trkpt><trkpt lat="14.483182615787277" lon="121.04533566186784"><ele>32.0</ele><time>2026-05-05T08:16:58.001Z</time></trkpt><trkpt lat="14.483084205223983" lon="121.0453414910164"><ele>32.0</ele><time>2026-05-05T08:17:01.001Z</time></trkpt><trkpt lat="14.48298042136184" lon="121.04534114236583"><ele>32.0</ele><time>2026-05-05T08:17:03.001Z</time></trkpt><trkpt lat="14.482847024185915" lon="121.04534410758899"><ele>32.0</ele><time>2026-05-05T08:17:05.001Z</time></trkpt><trkpt lat="14.48273885504515" lon="121.04534306716991"><ele>32.0</ele><time>2026-05-05T08:17:07.001Z</time></trkpt><trkpt lat="14.482647845526905" lon="121.04533728535917"><ele>32.0</ele><time>2026-05-05T08:17:09.001Z</time></trkpt><trkpt lat="14.482556805580614" lon="121.04533694330787"><ele>32.2</ele><time>2026-05-05T08:17:11.001Z</time></trkpt><trkpt lat="14.482469696154931" lon="121.04534187431379"><ele>32.400000000000006</ele><time>2026-05-05T08:17:13.001Z</time></trkpt><trkpt lat="14.482381376742156" lon="121.04534147040017"><ele>32.599999999999994</ele><time>2026-05-05T08:17:15.001Z</time></trkpt><trkpt lat="14.48228941884854" lon="121.0453374655764"><ele>32.8</ele><time>2026-05-05T08:17:17.001Z</time></trkpt><trkpt lat="14.482195640856542" lon="121.04534115417563"><ele>33.0</ele><time>2026-05-05T08:17:19.001Z</time></trkpt><trkpt lat="14.48209932992215" lon="121.04533904167363"><ele>33.0</ele><time>2026-05-05T08:17:21.001Z</time></trkpt><trkpt lat="14.481996560963463" lon="121.04533271490794"><ele>33.0</ele><time>2026-05-05T08:17:23.001Z</time></trkpt><trkpt lat="14.481923799917475" lon="121.04533117200268"><ele>33.0</ele><time>2026-05-05T08:17:25.001Z</time></trkpt><trkpt lat="14.481858770655997" lon="121.04532928012193"><ele>33.0</ele><time>2026-05-05T08:17:27.001Z</time></trkpt><trkpt lat="14.481780468027571" lon="121.04532498855875"><ele>33.0</ele><time>2026-05-05T08:17:29.001Z</time></trkpt><trkpt lat="14.48169624077495" lon="121.04532291911805"><ele>33.0</ele><time>2026-05-05T08:17:32.001Z</time></trkpt><trkpt lat="14.481597443897902" lon="121.04532646731961"><ele>33.0</ele><time>2026-05-05T08:17:35.001Z</time></trkpt><trkpt lat="14.48151539780928" lon="121.04531749511408"><ele>33.0</ele><time>2026-05-05T08:17:38.001Z</time></trkpt><trkpt lat="14.48141922079713" lon="121.04529688921347"><ele>33.0</ele><time>2026-05-05T08:17:40.001Z</time></trkpt><trkpt lat="14.481342008252719" lon="121.04532490894384"><ele>33.0</ele><time>2026-05-05T08:17:46.001Z</time></trkpt><trkpt lat="14.48123565389858" lon="121.04531680293452"><ele>33.0</ele><time>2026-05-05T08:17:49.001Z</time></trkpt><trkpt lat="14.481112208014743" lon="121.04530754085302"><ele>32.833333333333336</ele><time>2026-05-05T08:17:51.002Z</time></trkpt><trkpt lat="14.481039266381284" lon="121.0453083473575"><ele>32.666666666666664</ele><time>2026-05-05T08:17:52.002Z</time></trkpt><trkpt lat="14.480952511227015" lon="121.04530885050367"><ele>32.5</ele><time>2026-05-05T08:17:53.002Z</time></trkpt><trkpt lat="14.480864756338313" lon="121.04531415792398"><ele>32.33333333333333</ele><time>2026-05-05T08:17:54.002Z</time></trkpt><trkpt lat="14.480771774830632" lon="121.04531726475508"><ele>32.166666666666664</ele><time>2026-05-05T08:17:55.002Z</time></trkpt><trkpt lat="14.480688818642324" lon="121.04531934096345"><ele>32.0</ele><time>2026-05-05T08:17:56.002Z</time></trkpt><trkpt lat="14.480610803555125" lon="121.04531773417744"><ele>31.999999999999996</ele><time>2026-05-05T08:17:57.002Z</time></trkpt><trkpt lat="14.480544959462502" lon="121.04531929853451"><ele>32.0</ele><time>2026-05-05T08:17:58.002Z</time></trkpt><trkpt lat="14.480414094845802" lon="121.04532546524453"><ele>32.0</ele><time>2026-05-05T08:18:00Z</time></trkpt><trkpt lat="14.480336318436999" lon="121.04533163228454"><ele>32.0</ele><time>2026-05-05T08:18:01Z</time></trkpt><trkpt lat="14.480259266729266" lon="121.04533384233909"><ele>31.999999999999996</ele><time>2026-05-05T08:18:02Z</time></trkpt><trkpt lat="14.480186471392637" lon="121.0453296265467"><ele>32.0</ele><time>2026-05-05T08:18:03Z</time></trkpt><trkpt lat="14.480060689840881" lon="121.04533155664629"><ele>32.166666666666664</ele><time>2026-05-05T08:18:05Z</time></trkpt><trkpt lat="14.479962738926442" lon="121.04533128239986"><ele>32.33333333333333</ele><time>2026-05-05T08:18:07Z</time></trkpt><trkpt lat="14.479867536265184" lon="121.04533521354573"><ele>32.5</ele><time>2026-05-05T08:18:09Z</time></trkpt><trkpt lat="14.47976577609711" lon="121.04533516746659"><ele>32.666666666666664</ele><time>2026-05-05T08:18:11Z</time></trkpt><trkpt lat="14.47969794991183" lon="121.04533185848284"><ele>32.833333333333336</ele><time>2026-05-05T08:18:13Z</time></trkpt><trkpt lat="14.479618699225682" lon="121.0453349542436"><ele>33.0</ele><time>2026-05-05T08:18:15Z</time></trkpt><trkpt lat="14.479551353185215" lon="121.04533818030534"><ele>33.4</ele><time>2026-05-05T08:18:17Z</time></trkpt><trkpt lat="14.479473599992168" lon="121.0453405817071"><ele>33.8</ele><time>2026-05-05T08:18:19Z</time></trkpt><trkpt lat="14.479393895313997" lon="121.04534074548386"><ele>34.2</ele><time>2026-05-05T08:18:21Z</time></trkpt><trkpt lat="14.479297959350033" lon="121.04533597995422"><ele>34.6</ele><time>2026-05-05T08:18:23Z</time></trkpt><trkpt lat="14.47919396670813" lon="121.04534171093361"><ele>35.0</ele><time>2026-05-05T08:18:25Z</time></trkpt><trkpt lat="14.479086908611919" lon="121.04533827843498"><ele>35.0</ele><time>2026-05-05T08:18:27Z</time></trkpt><trkpt lat="14.47895254916052" lon="121.04533693408239"><ele>35.0</ele><time>2026-05-05T08:18:29Z</time></trkpt><trkpt lat="14.478886029520194" lon="121.04533420448043"><ele>35.0</ele><time>2026-05-05T08:18:30Z</time></trkpt><trkpt lat="14.478795742211602" lon="121.0453507917446"><ele>35.0</ele><time>2026-05-05T08:18:31Z</time></trkpt><trkpt lat="14.47873160628003" lon="121.04534923287663"><ele>35.0</ele><time>2026-05-05T08:18:32Z</time></trkpt><trkpt lat="14.478662688475753" lon="121.0453584530952"><ele>35.0</ele><time>2026-05-05T08:18:33Z</time></trkpt><trkpt lat="14.478590157559681" lon="121.04536021184008"><ele>35.0</ele><time>2026-05-05T08:18:34.001Z</time></trkpt><trkpt lat="14.478514374756465" lon="121.04535906368261"><ele>35.0</ele><time>2026-05-05T08:18:35.001Z</time></trkpt><trkpt lat="14.47845059967532" lon="121.04535735356228"><ele>35.0</ele><time>2026-05-05T08:18:36.001Z</time></trkpt><trkpt lat="14.47833466184317" lon="121.04535359237856"><ele>35.0</ele><time>2026-05-05T08:18:38.001Z</time></trkpt><trkpt lat="14.478214590204265" lon="121.04536103744913"><ele>35.0</ele><time>2026-05-05T08:18:40.001Z</time></trkpt><trkpt lat="14.478086118737009" lon="121.0453637183823"><ele>35.0</ele><time>2026-05-05T08:18:42.001Z</time></trkpt><trkpt lat="14.478022569732314" lon="121.04536399189601"><ele>35.0</ele><time>2026-05-05T08:18:43.001Z</time></trkpt><trkpt lat="14.477920484320164" lon="121.04536766892744"><ele>35.0</ele><time>2026-05-05T08:18:45.001Z</time></trkpt><trkpt lat="14.477845100954049" lon="121.04537252225848"><ele>35.0</ele><time>2026-05-05T08:18:47.001Z</time></trkpt><trkpt lat="14.477752497024495" lon="121.04537251189991"><ele>35.0</ele><time>2026-05-05T08:18:49.001Z</time></trkpt><trkpt lat="14.477617019660615" lon="121.04536077394192"><ele>34.5</ele><time>2026-05-05T08:18:51.001Z</time></trkpt><trkpt lat="14.477532870825938" lon="121.04535998860119"><ele>34.0</ele><time>2026-05-05T08:18:52.001Z</time></trkpt><trkpt lat="14.477411359459781" lon="121.04536397592166"><ele>33.5</ele><time>2026-05-05T08:18:53.001Z</time></trkpt><trkpt lat="14.477278856229937" lon="121.0453637286344"><ele>33.0</ele><time>2026-05-05T08:18:54.001Z</time></trkpt><trkpt lat="14.477147300712334" lon="121.04536388231605"><ele>34.0</ele><time>2026-05-05T08:18:55.001Z</time></trkpt><trkpt lat="14.477001980780372" lon="121.04536885376378"><ele>35.0</ele><time>2026-05-05T08:18:56.001Z</time></trkpt><trkpt lat="14.47684798470337" lon="121.04537111552727"><ele>36.0</ele><time>2026-05-05T08:18:57.001Z</time></trkpt><trkpt lat="14.476682100237888" lon="121.04537210699304"><ele>36.0</ele><time>2026-05-05T08:18:58.001Z</time></trkpt><trkpt lat="14.476521212706194" lon="121.04536708990393"><ele>36.0</ele><time>2026-05-05T08:18:59.001Z</time></trkpt><trkpt lat="14.476361830091243" lon="121.0453663395141"><ele>36.0</ele><time>2026-05-05T08:19:00.001Z</time></trkpt><trkpt lat="14.47623520783934" lon="121.04536772052518"><ele>36.0</ele><time>2026-05-05T08:19:01.001Z</time></trkpt><trkpt lat="14.476119944435228" lon="121.0453688076666"><ele>36.25</ele><time>2026-05-05T08:19:02.001Z</time></trkpt><trkpt lat="14.475994082647578" lon="121.04537373604131"><ele>36.5</ele><time>2026-05-05T08:19:03.001Z</time></trkpt><trkpt lat="14.475854497343137" lon="121.04537679498439"><ele>36.75</ele><time>2026-05-05T08:19:04.001Z</time></trkpt><trkpt lat="14.475702134061864" lon="121.04537373572512"><ele>37.0</ele><time>2026-05-05T08:19:05.001Z</time></trkpt><trkpt lat="14.475545247809478" lon="121.04536737387777"><ele>36.66666666666667</ele><time>2026-05-05T08:19:06.001Z</time></trkpt><trkpt lat="14.47538019712009" lon="121.04536049423115"><ele>36.333333333333336</ele><time>2026-05-05T08:19:07.001Z</time></trkpt><trkpt lat="14.475217836589783" lon="121.04535936001332"><ele>36.0</ele><time>2026-05-05T08:19:08.001Z</time></trkpt><trkpt lat="14.475045746032938" lon="121.04536178026294"><ele>36.0</ele><time>2026-05-05T08:19:09.001Z</time></trkpt><trkpt lat="14.474882961895378" lon="121.04536203592285"><ele>36.0</ele><time>2026-05-05T08:19:10.001Z</time></trkpt><trkpt lat="14.474718873819864" lon="121.04536094007891"><ele>36.0</ele><time>2026-05-05T08:19:11.001Z</time></trkpt><trkpt lat="14.47456714673778" lon="121.04535730958123"><ele>35.8</ele><time>2026-05-05T08:19:12.001Z</time></trkpt><trkpt lat="14.47444129641156" lon="121.04535786065547"><ele>35.6</ele><time>2026-05-05T08:19:13.001Z</time></trkpt><trkpt lat="14.47434487617882" lon="121.04535955759695"><ele>35.4</ele><time>2026-05-05T08:19:14.001Z</time></trkpt><trkpt lat="14.474271603881357" lon="121.04535849777974"><ele>35.2</ele><time>2026-05-05T08:19:15.001Z</time></trkpt><trkpt lat="14.474181559823032" lon="121.04535822351319"><ele>35.0</ele><time>2026-05-05T08:19:17.001Z</time></trkpt><trkpt lat="14.474105135311566" lon="121.04534731707639"><ele>35.0</ele><time>2026-05-05T08:19:20.001Z</time></trkpt><trkpt lat="14.474023547210887" lon="121.04534295777268"><ele>35.0</ele><time>2026-05-05T08:19:22.001Z</time></trkpt><trkpt lat="14.473956080857779" lon="121.04534639669022"><ele>35.0</ele><time>2026-05-05T08:19:23.001Z</time></trkpt><trkpt lat="14.473866447755002" lon="121.04535225779276"><ele>35.0</ele><time>2026-05-05T08:19:24.001Z</time></trkpt><trkpt lat="14.473763733541386" lon="121.04534771667107"><ele>35.0</ele><time>2026-05-05T08:19:25.001Z</time></trkpt><trkpt lat="14.473669150572167" lon="121.04534615324002"><ele>35.0</ele><time>2026-05-05T08:19:26.001Z</time></trkpt><trkpt lat="14.47354440314618" lon="121.04535280158588"><ele>34.25</ele><time>2026-05-05T08:19:27.001Z</time></trkpt><trkpt lat="14.473425171056387" lon="121.04535379706056"><ele>33.5</ele><time>2026-05-05T08:19:28.001Z</time></trkpt><trkpt lat="14.473296791898898" lon="121.04535750311"><ele>32.75</ele><time>2026-05-05T08:19:29.001Z</time></trkpt><trkpt lat="14.473151461012172" lon="121.04536592594366"><ele>32.0</ele><time>2026-05-05T08:19:30.001Z</time></trkpt><trkpt lat="14.472997861256317" lon="121.04537244128667"><ele>31.0</ele><time>2026-05-05T08:19:31.001Z</time></trkpt><trkpt lat="14.472832270852397" lon="121.04536952816672"><ele>30.0</ele><time>2026-05-05T08:19:32.001Z</time></trkpt><trkpt lat="14.472679323145737" lon="121.0453674765059"><ele>29.0</ele><time>2026-05-05T08:19:33.001Z</time></trkpt><trkpt lat="14.472536284832502" lon="121.0453626298517"><ele>29.0</ele><time>2026-05-05T08:19:34.001Z</time></trkpt><trkpt lat="14.472390840043673" lon="121.04536868885263"><ele>29.0</ele><time>2026-05-05T08:19:35.001Z</time></trkpt><trkpt lat="14.472245729844795" lon="121.04536917188406"><ele>29.0</ele><time>2026-05-05T08:19:36.001Z</time></trkpt><trkpt lat="14.472107145427751" lon="121.04536815644418"><ele>29.0</ele><time>2026-05-05T08:19:37.001Z</time></trkpt><trkpt lat="14.471971123304439" lon="121.0453681340008"><ele>29.2</ele><time>2026-05-05T08:19:38.001Z</time></trkpt><trkpt lat="14.471841806249946" lon="121.04537013040792"><ele>29.4</ele><time>2026-05-05T08:19:39.001Z</time></trkpt><trkpt lat="14.471742507399775" lon="121.04537047740563"><ele>29.6</ele><time>2026-05-05T08:19:40.001Z</time></trkpt><trkpt lat="14.471662788087729" lon="121.04537132154387"><ele>29.8</ele><time>2026-05-05T08:19:41.001Z</time></trkpt><trkpt lat="14.471551813348961" lon="121.04536880896526"><ele>30.0</ele><time>2026-05-05T08:19:43.001Z</time></trkpt><trkpt lat="14.47148481425243" lon="121.045365234438"><ele>30.0</ele><time>2026-05-05T08:19:46.001Z</time></trkpt><trkpt lat="14.471413167033806" lon="121.0453700980893"><ele>30.0</ele><time>2026-05-05T08:19:49.001Z</time></trkpt><trkpt lat="14.471318783920353" lon="121.04536538447735"><ele>30.0</ele><time>2026-05-05T08:19:52.001Z</time></trkpt><trkpt lat="14.471231000945103" lon="121.04536689922817"><ele>30.0</ele><time>2026-05-05T08:19:54.002Z</time></trkpt><trkpt lat="14.471111605139402" lon="121.04536799112344"><ele>30.0</ele><time>2026-05-05T08:19:56.002Z</time></trkpt><trkpt lat="14.470989414518638" lon="121.04537060518395"><ele>30.166666666666668</ele><time>2026-05-05T08:19:58.002Z</time></trkpt><trkpt lat="14.470915604243535" lon="121.04537360418962"><ele>30.333333333333336</ele><time>2026-05-05T08:19:59.002Z</time></trkpt><trkpt lat="14.470835696514657" lon="121.04537830500254"><ele>30.5</ele><time>2026-05-05T08:20:00.002Z</time></trkpt><trkpt lat="14.47075692050153" lon="121.0453788093159"><ele>30.666666666666668</ele><time>2026-05-05T08:20:01.002Z</time></trkpt><trkpt lat="14.470657293087283" lon="121.0453814079366"><ele>30.833333333333336</ele><time>2026-05-05T08:20:02.002Z</time></trkpt><trkpt lat="14.470558438969071" lon="121.04537886429095"><ele>31.0</ele><time>2026-05-05T08:20:03.002Z</time></trkpt><trkpt lat="14.470443715376652" lon="121.04537671552464"><ele>31.0</ele><time>2026-05-05T08:20:04.002Z</time></trkpt><trkpt lat="14.470326129787777" lon="121.04537794087226"><ele>31.0</ele><time>2026-05-05T08:20:05.001Z</time></trkpt><trkpt lat="14.470206089710818" lon="121.04537945803405"><ele>31.0</ele><time>2026-05-05T08:20:06.001Z</time></trkpt><trkpt lat="14.47008752767926" lon="121.04538469372882"><ele>31.0</ele><time>2026-05-05T08:20:07.001Z</time></trkpt><trkpt lat="14.46997063680887" lon="121.04538419979987"><ele>31.0</ele><time>2026-05-05T08:20:08.001Z</time></trkpt><trkpt lat="14.469865902821956" lon="121.04538496208816"><ele>31.0</ele><time>2026-05-05T08:20:09.001Z</time></trkpt><trkpt lat="14.469765248071955" lon="121.04538512350139"><ele>31.0</ele><time>2026-05-05T08:20:10.001Z</time></trkpt><trkpt lat="14.469652713628303" lon="121.04538625243765"><ele>31.0</ele><time>2026-05-05T08:20:11.001Z</time></trkpt><trkpt lat="14.46954003991586" lon="121.04538957962188"><ele>31.0</ele><time>2026-05-05T08:20:12.001Z</time></trkpt><trkpt lat="14.46940347021171" lon="121.04539488800683"><ele>31.200000000000003</ele><time>2026-05-05T08:20:13.001Z</time></trkpt><trkpt lat="14.469270098197688" lon="121.04538876294356"><ele>31.400000000000002</ele><time>2026-05-05T08:20:14.001Z</time></trkpt><trkpt lat="14.46914931949112" lon="121.04538224163532"><ele>31.6</ele><time>2026-05-05T08:20:15.001Z</time></trkpt><trkpt lat="14.469065913176292" lon="121.04537779707101"><ele>31.8</ele><time>2026-05-05T08:20:16.001Z</time></trkpt><trkpt lat="14.468966862568582" lon="121.04538036681411"><ele>32.0</ele><time>2026-05-05T08:20:18Z</time></trkpt><trkpt lat="14.468893288556863" lon="121.0453933972821"><ele>32.2</ele><time>2026-05-05T08:20:23.001Z</time></trkpt><trkpt lat="14.468773827733605" lon="121.04539135744399"><ele>32.400000000000006</ele><time>2026-05-05T08:20:25.001Z</time></trkpt><trkpt lat="14.46868042795612" lon="121.04539034736891"><ele>32.599999999999994</ele><time>2026-05-05T08:20:26.001Z</time></trkpt><trkpt lat="14.46856906898708" lon="121.04539308711682"><ele>32.8</ele><time>2026-05-05T08:20:27.001Z</time></trkpt><trkpt lat="14.468446553800446" lon="121.04539010945074"><ele>33.0</ele><time>2026-05-05T08:20:28.001Z</time></trkpt><trkpt lat="14.46832372951552" lon="121.0453863676267"><ele>33.0</ele><time>2026-05-05T08:20:29.001Z</time></trkpt><trkpt lat="14.46817856639768" lon="121.04538614470455"><ele>33.0</ele><time>2026-05-05T08:20:30.001Z</time></trkpt><trkpt lat="14.468024891300756" lon="121.04538436875124"><ele>33.0</ele><time>2026-05-05T08:20:31.001Z</time></trkpt><trkpt lat="14.467863910283759" lon="121.0453817922285"><ele>34.0</ele><time>2026-05-05T08:20:32.001Z</time></trkpt><trkpt lat="14.467706307252792" lon="121.04537806616844"><ele>35.0</ele><time>2026-05-05T08:20:33.001Z</time></trkpt><trkpt lat="14.467533820566162" lon="121.04538255809143"><ele>36.0</ele><time>2026-05-05T08:20:34.001Z</time></trkpt><trkpt lat="14.467360521362286" lon="121.0453847964735"><ele>36.0</ele><time>2026-05-05T08:20:35.001Z</time></trkpt><trkpt lat="14.467182877969705" lon="121.04538654031907"><ele>36.0</ele><time>2026-05-05T08:20:36.001Z</time></trkpt><trkpt lat="14.467003923085725" lon="121.04538802126687"><ele>36.0</ele><time>2026-05-05T08:20:37.001Z</time></trkpt><trkpt lat="14.46681737648943" lon="121.04538715202578"><ele>36.666666666666664</ele><time>2026-05-05T08:20:38.001Z</time></trkpt><trkpt lat="14.466632670216976" lon="121.04538910326117"><ele>37.33333333333333</ele><time>2026-05-05T08:20:39.001Z</time></trkpt><trkpt lat="14.466443161176489" lon="121.04539213393684"><ele>38.0</ele><time>2026-05-05T08:20:40.001Z</time></trkpt><trkpt lat="14.466258052233458" lon="121.04539611688212"><ele>38.0</ele><time>2026-05-05T08:20:41.001Z</time></trkpt><trkpt lat="14.466068115138702" lon="121.04539707115009"><ele>38.0</ele><time>2026-05-05T08:20:42.001Z</time></trkpt><trkpt lat="14.465874345131414" lon="121.04539898945552"><ele>38.0</ele><time>2026-05-05T08:20:43.001Z</time></trkpt><trkpt lat="14.465683564321527" lon="121.04540224259753"><ele>38.0</ele><time>2026-05-05T08:20:44.001Z</time></trkpt><trkpt lat="14.465486269946433" lon="121.04540574013812"><ele>38.0</ele><time>2026-05-05T08:20:45.001Z</time></trkpt><trkpt lat="14.465291402152294" lon="121.04540598875394"><ele>38.0</ele><time>2026-05-05T08:20:46.001Z</time></trkpt><trkpt lat="14.465096978290605" lon="121.04540419386409"><ele>38.0</ele><time>2026-05-05T08:20:47.001Z</time></trkpt><trkpt lat="14.464910451330175" lon="121.0454049823381"><ele>38.0</ele><time>2026-05-05T08:20:48.001Z</time></trkpt><trkpt lat="14.464755020808411" lon="121.04540297179463"><ele>38.0</ele><time>2026-05-05T08:20:49.001Z</time></trkpt><trkpt lat="14.464618121184401" lon="121.04540112585272"><ele>38.0</ele><time>2026-05-05T08:20:50.001Z</time></trkpt><trkpt lat="14.464484946296537" lon="121.04540313491376"><ele>38.0</ele><time>2026-05-05T08:20:51.001Z</time></trkpt><trkpt lat="14.464363970307645" lon="121.0454046783113"><ele>38.0</ele><time>2026-05-05T08:20:52.001Z</time></trkpt><trkpt lat="14.464240133638633" lon="121.04540367479777"><ele>38.0</ele><time>2026-05-05T08:20:53.001Z</time></trkpt><trkpt lat="14.464120387839657" lon="121.0454043219702"><ele>38.0</ele><time>2026-05-05T08:20:54.001Z</time></trkpt><trkpt lat="14.464008515456053" lon="121.04540739334355"><ele>38.0</ele><time>2026-05-05T08:20:55.001Z</time></trkpt><trkpt lat="14.463924291866656" lon="121.04540796884976"><ele>38.0</ele><time>2026-05-05T08:20:56.001Z</time></trkpt><trkpt lat="14.463850387155615" lon="121.04541001475422"><ele>38.0</ele><time>2026-05-05T08:20:57.001Z</time></trkpt><trkpt lat="14.4637835630438" lon="121.04541252382919"><ele>38.0</ele><time>2026-05-05T08:20:58.001Z</time></trkpt><trkpt lat="14.463673059817921" lon="121.04541061557659"><ele>38.0</ele><time>2026-05-05T08:21:00.001Z</time></trkpt><trkpt lat="14.46358085812765" lon="121.04541183216986"><ele>37.6</ele><time>2026-05-05T08:21:02.001Z</time></trkpt><trkpt lat="14.463493284306656" lon="121.04541019536687"><ele>37.199999999999996</ele><time>2026-05-05T08:21:04.001Z</time></trkpt><trkpt lat="14.463427216353274" lon="121.04541379173841"><ele>36.8</ele><time>2026-05-05T08:21:05.001Z</time></trkpt><trkpt lat="14.463332293355618" lon="121.04541281657177"><ele>36.4</ele><time>2026-05-05T08:21:06.001Z</time></trkpt><trkpt lat="14.4632126486623" lon="121.04541035906459"><ele>36.0</ele><time>2026-05-05T08:21:07.001Z</time></trkpt><trkpt lat="14.463101951072801" lon="121.04541876702457"><ele>36.0</ele><time>2026-05-05T08:21:08.001Z</time></trkpt><trkpt lat="14.463022248347688" lon="121.04541655997555"><ele>36.0</ele><time>2026-05-05T08:21:09.001Z</time></trkpt><trkpt lat="14.46295044909599" lon="121.04541322305394"><ele>36.0</ele><time>2026-05-05T08:21:10.001Z</time></trkpt><trkpt lat="14.462823670304404" lon="121.04541444515237"><ele>36.0</ele><time>2026-05-05T08:21:12.001Z</time></trkpt><trkpt lat="14.46276031046041" lon="121.04540525628006"><ele>36.0</ele><time>2026-05-05T08:21:13.001Z</time></trkpt><trkpt lat="14.462676827735654" lon="121.04540734920538"><ele>36.0</ele><time>2026-05-05T08:21:14.001Z</time></trkpt><trkpt lat="14.462592223911656" lon="121.04540931801543"><ele>36.142857142857146</ele><time>2026-05-05T08:21:15.001Z</time></trkpt><trkpt lat="14.462519469562379" lon="121.04540886369497"><ele>36.285714285714285</ele><time>2026-05-05T08:21:16.001Z</time></trkpt><trkpt lat="14.462444194412424" lon="121.04541241216967"><ele>36.42857142857143</ele><time>2026-05-05T08:21:17.001Z</time></trkpt><trkpt lat="14.462372811032653" lon="121.0454090499537"><ele>36.57142857142857</ele><time>2026-05-05T08:21:18.001Z</time></trkpt><trkpt lat="14.462300136688013" lon="121.04540831652548"><ele>36.714285714285715</ele><time>2026-05-05T08:21:19.001Z</time></trkpt><trkpt lat="14.462215744888628" lon="121.04541110862327"><ele>36.85714285714286</ele><time>2026-05-05T08:21:20.001Z</time></trkpt><trkpt lat="14.462147091067179" lon="121.04540337964838"><ele>37.0</ele><time>2026-05-05T08:21:21.001Z</time></trkpt><trkpt lat="14.46205684913484" lon="121.0454051959598"><ele>37.2</ele><time>2026-05-05T08:21:22.001Z</time></trkpt><trkpt lat="14.461971498883115" lon="121.04541322684544"><ele>37.400000000000006</ele><time>2026-05-05T08:21:23.001Z</time></trkpt><trkpt lat="14.461894124762361" lon="121.04541055636395"><ele>37.599999999999994</ele><time>2026-05-05T08:21:24.001Z</time></trkpt><trkpt lat="14.461798005119073" lon="121.04541485732616"><ele>37.8</ele><time>2026-05-05T08:21:25.001Z</time></trkpt><trkpt lat="14.46170134337442" lon="121.04541373575408"><ele>38.0</ele><time>2026-05-05T08:21:26.001Z</time></trkpt><trkpt lat="14.46160314633004" lon="121.04541808632183"><ele>38.0</ele><time>2026-05-05T08:21:27.001Z</time></trkpt><trkpt lat="14.461494292560891" lon="121.04541954725367"><ele>38.0</ele><time>2026-05-05T08:21:28.001Z</time></trkpt><trkpt lat="14.461383466979138" lon="121.04541855134592"><ele>38.0</ele><time>2026-05-05T08:21:29.001Z</time></trkpt><trkpt lat="14.461278047239574" lon="121.04541861315377"><ele>38.0</ele><time>2026-05-05T08:21:30.001Z</time></trkpt><trkpt lat="14.46117059233367" lon="121.04542022463345"><ele>38.0</ele><time>2026-05-05T08:21:31.001Z</time></trkpt><trkpt lat="14.46104777824995" lon="121.0454219741975"><ele>38.5</ele><time>2026-05-05T08:21:32.001Z</time></trkpt><trkpt lat="14.46092041120775" lon="121.04542367381835"><ele>39.0</ele><time>2026-05-05T08:21:33.001Z</time></trkpt><trkpt lat="14.460781263041738" lon="121.04542318128169"><ele>39.5</ele><time>2026-05-05T08:21:34.001Z</time></trkpt><trkpt lat="14.460630545172263" lon="121.0454230105816"><ele>40.0</ele><time>2026-05-05T08:21:35.001Z</time></trkpt><trkpt lat="14.460478690251396" lon="121.04541482767581"><ele>40.5</ele><time>2026-05-05T08:21:36.001Z</time></trkpt><trkpt lat="14.460322895372634" lon="121.04541589732288"><ele>41.0</ele><time>2026-05-05T08:21:37.001Z</time></trkpt><trkpt lat="14.46016935643924" lon="121.04541910988252"><ele>41.5</ele><time>2026-05-05T08:21:38.001Z</time></trkpt><trkpt lat="14.460031139081387" lon="121.04541894281691"><ele>42.0</ele><time>2026-05-05T08:21:39.001Z</time></trkpt><trkpt lat="14.459901127458723" lon="121.04541869635008"><ele>42.0</ele><time>2026-05-05T08:21:40.001Z</time></trkpt><trkpt lat="14.459770018085958" lon="121.04541747744469"><ele>42.0</ele><time>2026-05-05T08:21:41.001Z</time></trkpt><trkpt lat="14.459646210612734" lon="121.04541806077603"><ele>42.0</ele><time>2026-05-05T08:21:42.001Z</time></trkpt><trkpt lat="14.459529832092427" lon="121.04541944801922"><ele>42.0</ele><time>2026-05-05T08:21:43.001Z</time></trkpt><trkpt lat="14.459429646779277" lon="121.04541754843815"><ele>42.0</ele><time>2026-05-05T08:21:44.001Z</time></trkpt><trkpt lat="14.45933479243061" lon="121.04541743670104"><ele>42.0</ele><time>2026-05-05T08:21:45.001Z</time></trkpt><trkpt lat="14.459233519900845" lon="121.04541859198054"><ele>42.0</ele><time>2026-05-05T08:21:46.001Z</time></trkpt><trkpt lat="14.45912756303356" lon="121.04541564410165"><ele>42.0</ele><time>2026-05-05T08:21:47.001Z</time></trkpt><trkpt lat="14.459013277428676" lon="121.0454199732881"><ele>42.0</ele><time>2026-05-05T08:21:48.001Z</time></trkpt><trkpt lat="14.458896096169935" lon="121.04542310137587"><ele>41.8</ele><time>2026-05-05T08:21:49.001Z</time></trkpt><trkpt lat="14.458780239301403" lon="121.04541795519805"><ele>41.6</ele><time>2026-05-05T08:21:50.002Z</time></trkpt><trkpt lat="14.458666972462824" lon="121.04542040551091"><ele>41.4</ele><time>2026-05-05T08:21:51.002Z</time></trkpt><trkpt lat="14.45856626175233" lon="121.04541848386712"><ele>41.199999999999996</ele><time>2026-05-05T08:21:52.002Z</time></trkpt><trkpt lat="14.458458003810108" lon="121.04542021242928"><ele>41.0</ele><time>2026-05-05T08:21:53.002Z</time></trkpt><trkpt lat="14.458347237494767" lon="121.04542354817302"><ele>41.0</ele><time>2026-05-05T08:21:54.002Z</time></trkpt><trkpt lat="14.458244392365277" lon="121.04542008806206"><ele>41.0</ele><time>2026-05-05T08:21:55.002Z</time></trkpt><trkpt lat="14.458127582793287" lon="121.04542566047297"><ele>41.0</ele><time>2026-05-05T08:21:56.002Z</time></trkpt><trkpt lat="14.458007598715309" lon="121.04542404499144"><ele>41.0</ele><time>2026-05-05T08:21:57.002Z</time></trkpt><trkpt lat="14.457891902136927" lon="121.04541902170764"><ele>40.0</ele><time>2026-05-05T08:21:58.002Z</time></trkpt><trkpt lat="14.457769048229224" lon="121.04541870652608"><ele>39.0</ele><time>2026-05-05T08:21:59.002Z</time></trkpt><trkpt lat="14.457639354685623" lon="121.0454157127994"><ele>38.0</ele><time>2026-05-05T08:22:00.002Z</time></trkpt><trkpt lat="14.457506519206804" lon="121.04541761753433"><ele>37.0</ele><time>2026-05-05T08:22:01.002Z</time></trkpt><trkpt lat="14.457383281934757" lon="121.04541819374603"><ele>37.0</ele><time>2026-05-05T08:22:02.002Z</time></trkpt><trkpt lat="14.457266001491812" lon="121.04541538014288"><ele>37.0</ele><time>2026-05-05T08:22:03.002Z</time></trkpt><trkpt lat="14.457166697436636" lon="121.0454158073397"><ele>37.0</ele><time>2026-05-05T08:22:04.002Z</time></trkpt><trkpt lat="14.457084134802951" lon="121.04541763932548"><ele>37.0</ele><time>2026-05-05T08:22:05.002Z</time></trkpt><trkpt lat="14.457017965043347" lon="121.04541875186794"><ele>37.0</ele><time>2026-05-05T08:22:06.002Z</time></trkpt><trkpt lat="14.456917922059864" lon="121.04542119904852"><ele>36.800000000000004</ele><time>2026-05-05T08:22:08.002Z</time></trkpt><trkpt lat="14.456833480532383" lon="121.04542508194653"><ele>36.6</ele><time>2026-05-05T08:22:10.002Z</time></trkpt><trkpt lat="14.456748529695863" lon="121.04542456194193"><ele>36.400000000000006</ele><time>2026-05-05T08:22:12.001Z</time></trkpt><trkpt lat="14.456654276638647" lon="121.04542611110075"><ele>36.2</ele><time>2026-05-05T08:22:14.001Z</time></trkpt><trkpt lat="14.456556578347177" lon="121.04543143135065"><ele>36.0</ele><time>2026-05-05T08:22:16.001Z</time></trkpt><trkpt lat="14.456447238547499" lon="121.04543487701542"><ele>36.0</ele><time>2026-05-05T08:22:18.001Z</time></trkpt><trkpt lat="14.456350588861861" lon="121.04545007457546"><ele>36.0</ele><time>2026-05-05T08:22:20.001Z</time></trkpt><trkpt lat="14.456215289806547" lon="121.04544550022767"><ele>36.0</ele><time>2026-05-05T08:22:22.001Z</time></trkpt><trkpt lat="14.456117565041724" lon="121.0454480092866"><ele>36.0</ele><time>2026-05-05T08:22:23.001Z</time></trkpt><trkpt lat="14.45603811814972" lon="121.04543957368693"><ele>36.0</ele><time>2026-05-05T08:22:24.001Z</time></trkpt><trkpt lat="14.455962196686494" lon="121.04544084564208"><ele>36.333333333333336</ele><time>2026-05-05T08:22:25.001Z</time></trkpt><trkpt lat="14.455890139289936" lon="121.04543864890196"><ele>36.666666666666664</ele><time>2026-05-05T08:22:26.001Z</time></trkpt><trkpt lat="14.45582216852305" lon="121.04543426817385"><ele>37.0</ele><time>2026-05-05T08:22:27.001Z</time></trkpt><trkpt lat="14.455752207336905" lon="121.04543341644609"><ele>37.33333333333333</ele><time>2026-05-05T08:22:28.001Z</time></trkpt><trkpt lat="14.455658505776567" lon="121.0454315671932"><ele>37.666666666666664</ele><time>2026-05-05T08:22:30.001Z</time></trkpt><trkpt lat="14.45557671886295" lon="121.04543351709802"><ele>38.0</ele><time>2026-05-05T08:22:32.001Z</time></trkpt><trkpt lat="14.45551229296665" lon="121.04543952956355"><ele>36.8</ele><time>2026-05-05T08:22:33.001Z</time></trkpt><trkpt lat="14.455404454798021" lon="121.0454560951939"><ele>35.599999999999994</ele><time>2026-05-05T08:22:35.001Z</time></trkpt><trkpt lat="14.45528676680719" lon="121.04546915382127"><ele>34.400000000000006</ele><time>2026-05-05T08:22:37.001Z</time></trkpt><trkpt lat="14.45520640783984" lon="121.04548156152345"><ele>33.2</ele><time>2026-05-05T08:22:38.001Z</time></trkpt><trkpt lat="14.455116430307006" lon="121.04550112443526"><ele>32.0</ele><time>2026-05-05T08:22:39.001Z</time></trkpt><trkpt lat="14.45504272797825" lon="121.04551475747645"><ele>31.999999999999996</ele><time>2026-05-05T08:22:40.001Z</time></trkpt><trkpt lat="14.454977963470824" lon="121.04553232513125"><ele>32.0</ele><time>2026-05-05T08:22:41.001Z</time></trkpt><trkpt lat="14.454914072384938" lon="121.04554987432294"><ele>32.0</ele><time>2026-05-05T08:22:42.001Z</time></trkpt><trkpt lat="14.454850158562978" lon="121.04556789667849"><ele>32.0</ele><time>2026-05-05T08:22:43.001Z</time></trkpt><trkpt lat="14.45473749216033" lon="121.0456037314692"><ele>31.999999999999996</ele><time>2026-05-05T08:22:45.001Z</time></trkpt><trkpt lat="14.454654812715864" lon="121.04562610252063"><ele>32.0</ele><time>2026-05-05T08:22:47.001Z</time></trkpt><trkpt lat="14.454565669717677" lon="121.04565563968038"><ele>31.166666666666664</ele><time>2026-05-05T08:22:49.001Z</time></trkpt><trkpt lat="14.45448063674254" lon="121.0456821524239"><ele>30.333333333333332</ele><time>2026-05-05T08:22:51.001Z</time></trkpt><trkpt lat="14.45441689237615" lon="121.04570421829202"><ele>29.5</ele><time>2026-05-05T08:22:55.001Z</time></trkpt><trkpt lat="14.454348069888034" lon="121.0457307295306"><ele>28.666666666666664</ele><time>2026-05-05T08:22:58.001Z</time></trkpt><trkpt lat="14.45426394273782" lon="121.04575793435512"><ele>27.833333333333332</ele><time>2026-05-05T08:23:01.001Z</time></trkpt><trkpt lat="14.454157709162295" lon="121.04579567676576"><ele>27.0</ele><time>2026-05-05T08:23:04.001Z</time></trkpt><trkpt lat="14.454050648682538" lon="121.04583251425207"><ele>26.833333333333332</ele><time>2026-05-05T08:23:06.001Z</time></trkpt><trkpt lat="14.453964670228157" lon="121.04586070332849"><ele>26.666666666666664</ele><time>2026-05-05T08:23:08.001Z</time></trkpt><trkpt lat="14.453889372030458" lon="121.04587725325969"><ele>26.5</ele><time>2026-05-05T08:23:11.001Z</time></trkpt><trkpt lat="14.453826035394288" lon="121.04589247192504"><ele>26.333333333333332</ele><time>2026-05-05T08:23:15.001Z</time></trkpt><trkpt lat="14.45376294985237" lon="121.04590735375949"><ele>26.166666666666664</ele><time>2026-05-05T08:23:20.001Z</time></trkpt><trkpt lat="14.453689786055113" lon="121.04592817918171"><ele>26.0</ele><time>2026-05-05T08:23:27.001Z</time></trkpt><trkpt lat="14.453608006040252" lon="121.04592971269878"><ele>25.666666666666664</ele><time>2026-05-05T08:23:33.001Z</time></trkpt><trkpt lat="14.45353056770659" lon="121.04594438647031"><ele>25.333333333333332</ele><time>2026-05-05T08:23:35.001Z</time></trkpt><trkpt lat="14.453446094649015" lon="121.04594545239006"><ele>25.0</ele><time>2026-05-05T08:23:37.001Z</time></trkpt><trkpt lat="14.453373193307911" lon="121.04595357614636"><ele>24.666666666666664</ele><time>2026-05-05T08:23:40.001Z</time></trkpt><trkpt lat="14.45330633669464" lon="121.04590429619388"><ele>24.333333333333332</ele><time>2026-05-05T08:23:42.001Z</time></trkpt><trkpt lat="14.453196215561047" lon="121.04585516608523"><ele>24.0</ele><time>2026-05-05T08:23:44.001Z</time></trkpt><trkpt lat="14.453131636337856" lon="121.04582478387462"><ele>23.833333333333332</ele><time>2026-05-05T08:23:45.001Z</time></trkpt><trkpt lat="14.453068182153476" lon="121.04578340146973"><ele>23.666666666666668</ele><time>2026-05-05T08:23:46.001Z</time></trkpt><trkpt lat="14.453007998813494" lon="121.04575005012586"><ele>23.5</ele><time>2026-05-05T08:23:47.001Z</time></trkpt><trkpt lat="14.452947498371158" lon="121.04571434022971"><ele>23.333333333333336</ele><time>2026-05-05T08:23:48.001Z</time></trkpt><trkpt lat="14.452875038746527" lon="121.04567672408976"><ele>23.166666666666668</ele><time>2026-05-05T08:23:49.001Z</time></trkpt><trkpt lat="14.452785351429403" lon="121.04564547233093"><ele>23.0</ele><time>2026-05-05T08:23:50.001Z</time></trkpt><trkpt lat="14.452688674836162" lon="121.04561597427714"><ele>22.0</ele><time>2026-05-05T08:23:51.001Z</time></trkpt><trkpt lat="14.452589063095102" lon="121.04558104493731"><ele>21.0</ele><time>2026-05-05T08:23:52.001Z</time></trkpt><trkpt lat="14.452478598134057" lon="121.04554986912811"><ele>20.0</ele><time>2026-05-05T08:23:53.001Z</time></trkpt><trkpt lat="14.452363185489975" lon="121.04552069107639"><ele>19.0</ele><time>2026-05-05T08:23:54.001Z</time></trkpt><trkpt lat="14.452238119499485" lon="121.04549105296981"><ele>17.5</ele><time>2026-05-05T08:23:55.001Z</time></trkpt><trkpt lat="14.452102414109332" lon="121.04546851312878"><ele>16.0</ele><time>2026-05-05T08:23:56.001Z</time></trkpt><trkpt lat="14.451959389872977" lon="121.04544626985597"><ele>14.5</ele><time>2026-05-05T08:23:57.001Z</time></trkpt><trkpt lat="14.451821743914254" lon="121.0454361532774"><ele>13.0</ele><time>2026-05-05T08:23:58.001Z</time></trkpt><trkpt lat="14.451694010885081" lon="121.04543402915448"><ele>13.0</ele><time>2026-05-05T08:23:59.001Z</time></trkpt><trkpt lat="14.451564745169136" lon="121.0454378017825"><ele>13.0</ele><time>2026-05-05T08:24:00.002Z</time></trkpt><trkpt lat="14.451446350661493" lon="121.04543866503833"><ele>13.0</ele><time>2026-05-05T08:24:01.002Z</time></trkpt><trkpt lat="14.451335851102362" lon="121.04543789573931"><ele>13.0</ele><time>2026-05-05T08:24:02.002Z</time></trkpt><trkpt lat="14.451228429673762" lon="121.04544596079532"><ele>14.4</ele><time>2026-05-05T08:24:03.002Z</time></trkpt><trkpt lat="14.45113118041282" lon="121.04544486323475"><ele>15.8</ele><time>2026-05-05T08:24:04.002Z</time></trkpt><trkpt lat="14.451034456009081" lon="121.04544399922739"><ele>17.2</ele><time>2026-05-05T08:24:05.002Z</time></trkpt><trkpt lat="14.450938626746876" lon="121.04545013216365"><ele>18.6</ele><time>2026-05-05T08:24:06.002Z</time></trkpt><trkpt lat="14.450834681550864" lon="121.04545900498496"><ele>20.0</ele><time>2026-05-05T08:24:07.002Z</time></trkpt><trkpt lat="14.450730345162198" lon="121.04546316429163"><ele>20.0</ele><time>2026-05-05T08:24:08.002Z</time></trkpt><trkpt lat="14.450620696214362" lon="121.04546139247665"><ele>20.0</ele><time>2026-05-05T08:24:09.002Z</time></trkpt><trkpt lat="14.450514723209686" lon="121.0454632374922"><ele>20.0</ele><time>2026-05-05T08:24:10.002Z</time></trkpt><trkpt lat="14.450414420686377" lon="121.04546802003682"><ele>20.0</ele><time>2026-05-05T08:24:11.002Z</time></trkpt><trkpt lat="14.450331082102613" lon="121.04546495801635"><ele>20.0</ele><time>2026-05-05T08:24:12.002Z</time></trkpt><trkpt lat="14.450257656377255" lon="121.04547043392029"><ele>19.833333333333336</ele><time>2026-05-05T08:24:13.002Z</time></trkpt><trkpt lat="14.450189671542933" lon="121.04547732004693"><ele>19.666666666666668</ele><time>2026-05-05T08:24:14.002Z</time></trkpt><trkpt lat="14.450111981591018" lon="121.04547627416483"><ele>19.5</ele><time>2026-05-05T08:24:15.002Z</time></trkpt><trkpt lat="14.450026407705339" lon="121.04547913568952"><ele>19.333333333333332</ele><time>2026-05-05T08:24:16.002Z</time></trkpt><trkpt lat="14.449929202857048" lon="121.04548144710958"><ele>19.166666666666664</ele><time>2026-05-05T08:24:17.001Z</time></trkpt><trkpt lat="14.44982652701893" lon="121.04547620775887"><ele>19.0</ele><time>2026-05-05T08:24:18.001Z</time></trkpt><trkpt lat="14.449739090435676" lon="121.0454717507462"><ele>19.0</ele><time>2026-05-05T08:24:19.001Z</time></trkpt><trkpt lat="14.449656385177517" lon="121.045470592074"><ele>19.0</ele><time>2026-05-05T08:24:20.001Z</time></trkpt><trkpt lat="14.449591716009708" lon="121.04546366614998"><ele>19.0</ele><time>2026-05-05T08:24:21.001Z</time></trkpt><trkpt lat="14.449519739576445" lon="121.04546471568962"><ele>19.0</ele><time>2026-05-05T08:24:22.001Z</time></trkpt><trkpt lat="14.44944545039987" lon="121.0454672814889"><ele>19.0</ele><time>2026-05-05T08:24:23.001Z</time></trkpt><trkpt lat="14.449371655821077" lon="121.04546598091717"><ele>19.0</ele><time>2026-05-05T08:24:24.001Z</time></trkpt><trkpt lat="14.449298282902237" lon="121.04546912955381"><ele>19.0</ele><time>2026-05-05T08:24:25.001Z</time></trkpt><trkpt lat="14.449222087341964" lon="121.04547094602368"><ele>18.599999999999998</ele><time>2026-05-05T08:24:26.001Z</time></trkpt><trkpt lat="14.44912759539245" lon="121.0454782758989"><ele>18.2</ele><time>2026-05-05T08:24:27.001Z</time></trkpt><trkpt lat="14.449016263151693" lon="121.04548153247912"><ele>17.799999999999997</ele><time>2026-05-05T08:24:28.001Z</time></trkpt><trkpt lat="14.4488988154865" lon="121.04548177238493"><ele>17.4</ele><time>2026-05-05T08:24:29.001Z</time></trkpt><trkpt lat="14.448783677060574" lon="121.04548615297085"><ele>17.0</ele><time>2026-05-05T08:24:30.001Z</time></trkpt><trkpt lat="14.448683432663655" lon="121.04548574429467"><ele>16.5</ele><time>2026-05-05T08:24:31.001Z</time></trkpt><trkpt lat="14.44857831852444" lon="121.04548323743592"><ele>16.0</ele><time>2026-05-05T08:24:32.001Z</time></trkpt><trkpt lat="14.448491584031409" lon="121.04547907736647"><ele>15.5</ele><time>2026-05-05T08:24:33.001Z</time></trkpt><trkpt lat="14.448424554308286" lon="121.0454787485517"><ele>15.0</ele><time>2026-05-05T08:24:34.001Z</time></trkpt><trkpt lat="14.448358580630549" lon="121.04547810020112"><ele>14.500000000000002</ele><time>2026-05-05T08:24:35.001Z</time></trkpt><trkpt lat="14.44824423374735" lon="121.04547523263149"><ele>14.0</ele><time>2026-05-05T08:24:37.001Z</time></trkpt><trkpt lat="14.448130180070308" lon="121.04547626282667"><ele>14.000000000000002</ele><time>2026-05-05T08:24:39.001Z</time></trkpt><trkpt lat="14.448054104628694" lon="121.04547779905262"><ele>14.0</ele><time>2026-05-05T08:24:40.001Z</time></trkpt><trkpt lat="14.447977288225639" lon="121.04547908630569"><ele>14.0</ele><time>2026-05-05T08:24:41.001Z</time></trkpt><trkpt lat="14.447904782587122" lon="121.04547913764259"><ele>14.0</ele><time>2026-05-05T08:24:42.001Z</time></trkpt><trkpt lat="14.447816859251173" lon="121.04547869800393"><ele>14.000000000000002</ele><time>2026-05-05T08:24:43.001Z</time></trkpt><trkpt lat="14.447728723842097" lon="121.04547933701457"><ele>14.0</ele><time>2026-05-05T08:24:44.001Z</time></trkpt><trkpt lat="14.447647555448832" lon="121.04548149339897"><ele>14.166666666666668</ele><time>2026-05-05T08:24:45.001Z</time></trkpt><trkpt lat="14.447573815005354" lon="121.0454817127266"><ele>14.333333333333334</ele><time>2026-05-05T08:24:46.001Z</time></trkpt><trkpt lat="14.447487273800254" lon="121.04548082512618"><ele>14.5</ele><time>2026-05-05T08:24:47.001Z</time></trkpt><trkpt lat="14.44740827632792" lon="121.04548054618408"><ele>14.666666666666668</ele><time>2026-05-05T08:24:48.001Z</time></trkpt><trkpt lat="14.447329196238197" lon="121.04548202253372"><ele>14.833333333333334</ele><time>2026-05-05T08:24:49.001Z</time></trkpt><trkpt lat="14.447252589572196" lon="121.0454815917211"><ele>15.0</ele><time>2026-05-05T08:24:50.001Z</time></trkpt><trkpt lat="14.447177914347339" lon="121.0454802129108"><ele>15.333333333333334</ele><time>2026-05-05T08:24:51.001Z</time></trkpt><trkpt lat="14.447094138013332" lon="121.04548223969363"><ele>15.666666666666668</ele><time>2026-05-05T08:24:52.001Z</time></trkpt><trkpt lat="14.447009000509157" lon="121.04548126240641"><ele>16.0</ele><time>2026-05-05T08:24:53.001Z</time></trkpt><trkpt lat="14.446921878333399" lon="121.04547966292796"><ele>16.333333333333336</ele><time>2026-05-05T08:24:54.001Z</time></trkpt><trkpt lat="14.446833803210861" lon="121.04547947859456"><ele>16.666666666666668</ele><time>2026-05-05T08:24:55.001Z</time></trkpt><trkpt lat="14.446757713471834" lon="121.04548298694507"><ele>17.0</ele><time>2026-05-05T08:24:56.001Z</time></trkpt><trkpt lat="14.446686758965406" lon="121.04548362070028"><ele>17.0</ele><time>2026-05-05T08:24:57.001Z</time></trkpt><trkpt lat="14.446583919127622" lon="121.04548291991865"><ele>17.0</ele><time>2026-05-05T08:24:59.001Z</time></trkpt><trkpt lat="14.446486151315865" lon="121.04549457197892"><ele>17.0</ele><time>2026-05-05T08:25:04.001Z</time></trkpt><trkpt lat="14.446400428295455" lon="121.04548233646632"><ele>17.0</ele><time>2026-05-05T08:25:06.001Z</time></trkpt><trkpt lat="14.446291431781049" lon="121.04548677299971"><ele>17.0</ele><time>2026-05-05T08:25:08.001Z</time></trkpt><trkpt lat="14.44617987531603" lon="121.04548452032834"><ele>17.2</ele><time>2026-05-05T08:25:10.001Z</time></trkpt><trkpt lat="14.4460714310328" lon="121.04548684887202"><ele>17.4</ele><time>2026-05-05T08:25:12.001Z</time></trkpt><trkpt lat="14.44600261292439" lon="121.0454882223105"><ele>17.6</ele><time>2026-05-05T08:25:13.001Z</time></trkpt><trkpt lat="14.445894793335444" lon="121.04548566058386"><ele>17.8</ele><time>2026-05-05T08:25:15.001Z</time></trkpt><trkpt lat="14.445797251570754" lon="121.04548675580148"><ele>18.0</ele><time>2026-05-05T08:25:17.001Z</time></trkpt><trkpt lat="14.445703385697055" lon="121.04548709467576"><ele>18.0</ele><time>2026-05-05T08:25:19.001Z</time></trkpt><trkpt lat="14.445601314113285" lon="121.04549074785213"><ele>18.0</ele><time>2026-05-05T08:25:21.001Z</time></trkpt><trkpt lat="14.445498416004119" lon="121.04549391351702"><ele>18.0</ele><time>2026-05-05T08:25:23.001Z</time></trkpt><trkpt lat="14.445369921767796" lon="121.04549482018581"><ele>18.0</ele><time>2026-05-05T08:25:25.001Z</time></trkpt><trkpt lat="14.4452999297688" lon="121.04549124061077"><ele>18.0</ele><time>2026-05-05T08:25:26.001Z</time></trkpt><trkpt lat="14.445172145494306" lon="121.04551058141301"><ele>17.666666666666668</ele><time>2026-05-05T08:25:28.001Z</time></trkpt><trkpt lat="14.44510250109655" lon="121.04549889112128"><ele>17.333333333333332</ele><time>2026-05-05T08:25:29.001Z</time></trkpt><trkpt lat="14.445006416230031" lon="121.04549528776433"><ele>17.0</ele><time>2026-05-05T08:25:31.001Z</time></trkpt><trkpt lat="14.444906823364107" lon="121.04550506132871"><ele>16.666666666666664</ele><time>2026-05-05T08:25:33.001Z</time></trkpt><trkpt lat="14.444842347867853" lon="121.0455034993118"><ele>16.333333333333332</ele><time>2026-05-05T08:25:35.001Z</time></trkpt><trkpt lat="14.444765027679862" lon="121.04552162176292"><ele>16.0</ele><time>2026-05-05T08:25:49.001Z</time></trkpt><trkpt lat="14.444700090129714" lon="121.04554393374647"><ele>16.400000000000002</ele><time>2026-05-05T08:25:51.001Z</time></trkpt><trkpt lat="14.444604884421414" lon="121.04554501409878"><ele>16.8</ele><time>2026-05-05T08:25:53.001Z</time></trkpt><trkpt lat="14.444480865286886" lon="121.04552352818352"><ele>17.200000000000003</ele><time>2026-05-05T08:25:55.001Z</time></trkpt><trkpt lat="14.444401313948386" lon="121.04553619744037"><ele>17.6</ele><time>2026-05-05T08:25:56.001Z</time></trkpt><trkpt lat="14.444282929666954" lon="121.04554954244814"><ele>18.0</ele><time>2026-05-05T08:25:57.001Z</time></trkpt><trkpt lat="14.444182256591349" lon="121.04554390324111"><ele>18.0</ele><time>2026-05-05T08:25:58.001Z</time></trkpt><trkpt lat="14.444064078038643" lon="121.04555231144617"><ele>18.0</ele><time>2026-05-05T08:25:59.001Z</time></trkpt><trkpt lat="14.443944019103158" lon="121.04553436523132"><ele>18.0</ele><time>2026-05-05T08:26:00.001Z</time></trkpt><trkpt lat="14.443836338111746" lon="121.04552236401835"><ele>18.0</ele><time>2026-05-05T08:26:01.001Z</time></trkpt><trkpt lat="14.443741029984942" lon="121.04551218579087"><ele>18.0</ele><time>2026-05-05T08:26:02.001Z</time></trkpt><trkpt lat="14.443665330906763" lon="121.04550202922368"><ele>17.833333333333332</ele><time>2026-05-05T08:26:03.001Z</time></trkpt><trkpt lat="14.443600791869319" lon="121.04549926215596"><ele>17.666666666666668</ele><time>2026-05-05T08:26:04.001Z</time></trkpt><trkpt lat="14.443532553557711" lon="121.04550752413762"><ele>17.5</ele><time>2026-05-05T08:26:05.001Z</time></trkpt><trkpt lat="14.443449299561259" lon="121.04550398750467"><ele>17.333333333333336</ele><time>2026-05-05T08:26:06.001Z</time></trkpt><trkpt lat="14.443355054207553" lon="121.04550781485567"><ele>17.166666666666668</ele><time>2026-05-05T08:26:07.001Z</time></trkpt><trkpt lat="14.443248438241488" lon="121.04550926996002"><ele>17.0</ele><time>2026-05-05T08:26:08.001Z</time></trkpt><trkpt lat="14.443142018567215" lon="121.04551081487023"><ele>17.0</ele><time>2026-05-05T08:26:09.001Z</time></trkpt><trkpt lat="14.443031703775544" lon="121.04551237154367"><ele>17.0</ele><time>2026-05-05T08:26:10.001Z</time></trkpt><trkpt lat="14.442933868427902" lon="121.04550012853753"><ele>17.0</ele><time>2026-05-05T08:26:11.002Z</time></trkpt><trkpt lat="14.442836294429094" lon="121.0455014066317"><ele>17.0</ele><time>2026-05-05T08:26:12.002Z</time></trkpt><trkpt lat="14.442720341480937" lon="121.04550568749006"><ele>17.0</ele><time>2026-05-05T08:26:13.002Z</time></trkpt><trkpt lat="14.442599144579306" lon="121.04551073735436"><ele>16.75</ele><time>2026-05-05T08:26:14.002Z</time></trkpt><trkpt lat="14.442467698190063" lon="121.0454992060581"><ele>16.5</ele><time>2026-05-05T08:26:15.002Z</time></trkpt><trkpt lat="14.442332689538363" lon="121.04548969616057"><ele>16.25</ele><time>2026-05-05T08:26:16.002Z</time></trkpt><trkpt lat="14.442203017115695" lon="121.04549642510445"><ele>16.0</ele><time>2026-05-05T08:26:17.002Z</time></trkpt><trkpt lat="14.442084154163773" lon="121.0455012539994"><ele>15.999999999999998</ele><time>2026-05-05T08:26:18.002Z</time></trkpt><trkpt lat="14.44198624281074" lon="121.04549942361652"><ele>16.0</ele><time>2026-05-05T08:26:19.002Z</time></trkpt><trkpt lat="14.441897911198838" lon="121.04551225720033"><ele>16.0</ele><time>2026-05-05T08:26:20.002Z</time></trkpt><trkpt lat="14.441811358885587" lon="121.04552532136883"><ele>16.0</ele><time>2026-05-05T08:26:21.002Z</time></trkpt><trkpt lat="14.441747310023484" lon="121.04553251784947"><ele>15.999999999999998</ele><time>2026-05-05T08:26:22.002Z</time></trkpt><trkpt lat="14.441665108886657" lon="121.04554725158147"><ele>16.0</ele><time>2026-05-05T08:26:23.001Z</time></trkpt><trkpt lat="14.441579309496483" lon="121.04555784350498"><ele>15.999999999999998</ele><time>2026-05-05T08:26:24.001Z</time></trkpt><trkpt lat="14.441505743788191" lon="121.04556468454307"><ele>16.0</ele><time>2026-05-05T08:26:25.001Z</time></trkpt><trkpt lat="14.441421724828654" lon="121.04556871460042"><ele>16.0</ele><time>2026-05-05T08:26:26.001Z</time></trkpt><trkpt lat="14.441352212953" lon="121.04557289978831"><ele>16.0</ele><time>2026-05-05T08:26:27.001Z</time></trkpt><trkpt lat="14.44122143626116" lon="121.04557504664567"><ele>15.999999999999998</ele><time>2026-05-05T08:26:29.001Z</time></trkpt><trkpt lat="14.441154072753129" lon="121.04557901423415"><ele>16.0</ele><time>2026-05-05T08:26:30.001Z</time></trkpt><trkpt lat="14.441033388668343" lon="121.04558197129887"><ele>16.75</ele><time>2026-05-05T08:26:32.001Z</time></trkpt><trkpt lat="14.44089193682459" lon="121.04558540886751"><ele>17.5</ele><time>2026-05-05T08:26:34.001Z</time></trkpt><trkpt lat="14.440788044921092" lon="121.04559011055065"><ele>18.25</ele><time>2026-05-05T08:26:35.001Z</time></trkpt><trkpt lat="14.440673335779938" lon="121.0455938751886"><ele>19.0</ele><time>2026-05-05T08:26:36.001Z</time></trkpt><trkpt lat="14.440534369456639" lon="121.04559298036756"><ele>18.75</ele><time>2026-05-05T08:26:37.001Z</time></trkpt><trkpt lat="14.440392384125694" lon="121.04558487415758"><ele>18.5</ele><time>2026-05-05T08:26:38.001Z</time></trkpt><trkpt lat="14.440244175452618" lon="121.04558200569369"><ele>18.25</ele><time>2026-05-05T08:26:39.001Z</time></trkpt><trkpt lat="14.44009310024229" lon="121.0455771858082"><ele>18.0</ele><time>2026-05-05T08:26:40.001Z</time></trkpt><trkpt lat="14.439946483711" lon="121.0455790197674"><ele>18.0</ele><time>2026-05-05T08:26:41.001Z</time></trkpt><trkpt lat="14.43980731356365" lon="121.04558183273602"><ele>18.0</ele><time>2026-05-05T08:26:42.001Z</time></trkpt><trkpt lat="14.439665886479988" lon="121.04558519422045"><ele>18.0</ele><time>2026-05-05T08:26:43.001Z</time></trkpt><trkpt lat="14.439512482055026" lon="121.04558156089942"><ele>18.0</ele><time>2026-05-05T08:26:44.001Z</time></trkpt><trkpt lat="14.439360252066066" lon="121.04557116356557"><ele>17.5</ele><time>2026-05-05T08:26:45.001Z</time></trkpt><trkpt lat="14.439218219145724" lon="121.04556042383294"><ele>17.0</ele><time>2026-05-05T08:26:46.001Z</time></trkpt><trkpt lat="14.439087825770393" lon="121.04554786163234"><ele>16.5</ele><time>2026-05-05T08:26:47.001Z</time></trkpt><trkpt lat="14.438967983642954" lon="121.04553341514541"><ele>16.0</ele><time>2026-05-05T08:26:48.001Z</time></trkpt><trkpt lat="14.438848821642761" lon="121.04551991559268"><ele>15.499999999999998</ele><time>2026-05-05T08:26:49.001Z</time></trkpt><trkpt lat="14.438738912639911" lon="121.0455127988092"><ele>15.0</ele><time>2026-05-05T08:26:50.001Z</time></trkpt><trkpt lat="14.438643077195128" lon="121.04551830355508"><ele>14.5</ele><time>2026-05-05T08:26:51.001Z</time></trkpt><trkpt lat="14.438569239074381" lon="121.04552624706719"><ele>14.0</ele><time>2026-05-05T08:26:52.001Z</time></trkpt><trkpt lat="14.438496808044242" lon="121.04552309810951"><ele>13.499999999999998</ele><time>2026-05-05T08:26:53.001Z</time></trkpt><trkpt lat="14.438430074578472" lon="121.0455249543888"><ele>13.0</ele><time>2026-05-05T08:26:54.001Z</time></trkpt><trkpt lat="14.438366120905549" lon="121.0455328230764"><ele>12.999999999999998</ele><time>2026-05-05T08:26:55.001Z</time></trkpt><trkpt lat="14.438274216231873" lon="121.04552759983908"><ele>13.0</ele><time>2026-05-05T08:26:57.001Z</time></trkpt><trkpt lat="14.438179854754173" lon="121.04552761975695"><ele>13.0</ele><time>2026-05-05T08:26:59.001Z</time></trkpt><trkpt lat="14.438090725138775" lon="121.04553515646508"><ele>13.0</ele><time>2026-05-05T08:27:01.001Z</time></trkpt><trkpt lat="14.437981271044505" lon="121.04552334702649"><ele>12.999999999999998</ele><time>2026-05-05T08:27:03.001Z</time></trkpt><trkpt lat="14.437918513333111" lon="121.0455171645984"><ele>13.0</ele><time>2026-05-05T08:27:04.001Z</time></trkpt><trkpt lat="14.437838425019097" lon="121.04551769999328"><ele>12.4</ele><time>2026-05-05T08:27:05.001Z</time></trkpt><trkpt lat="14.437730523478432" lon="121.04552198652188"><ele>11.8</ele><time>2026-05-05T08:27:06.001Z</time></trkpt><trkpt lat="14.437634927904721" lon="121.04552077731354"><ele>11.2</ele><time>2026-05-05T08:27:07.001Z</time></trkpt><trkpt lat="14.437564288083486" lon="121.04551197571287"><ele>10.6</ele><time>2026-05-05T08:27:08.001Z</time></trkpt><trkpt lat="14.437455116780782" lon="121.04550435898685"><ele>10.0</ele><time>2026-05-05T08:27:10.001Z</time></trkpt><trkpt lat="14.437369846770796" lon="121.04551445304108"><ele>10.0</ele><time>2026-05-05T08:27:12.001Z</time></trkpt><trkpt lat="14.437276081723212" lon="121.04551474913978"><ele>10.0</ele><time>2026-05-05T08:27:14.001Z</time></trkpt><trkpt lat="14.437151044309436" lon="121.04551628618377"><ele>10.0</ele><time>2026-05-05T08:27:16.001Z</time></trkpt><trkpt lat="14.437076793739193" lon="121.0455157472391"><ele>10.0</ele><time>2026-05-05T08:27:17.001Z</time></trkpt><trkpt lat="14.436997451436246" lon="121.04551903755855"><ele>10.0</ele><time>2026-05-05T08:27:18.001Z</time></trkpt><trkpt lat="14.436916151602063" lon="121.04551511424113"><ele>10.166666666666668</ele><time>2026-05-05T08:27:19.001Z</time></trkpt><trkpt lat="14.436829985383602" lon="121.04551895397755"><ele>10.333333333333334</ele><time>2026-05-05T08:27:20.001Z</time></trkpt><trkpt lat="14.43673339359383" lon="121.04551604800781"><ele>10.5</ele><time>2026-05-05T08:27:21.001Z</time></trkpt><trkpt lat="14.436650571450947" lon="121.04551503380958"><ele>10.666666666666666</ele><time>2026-05-05T08:27:22.001Z</time></trkpt><trkpt lat="14.436568417485413" lon="121.04551375669739"><ele>10.833333333333332</ele><time>2026-05-05T08:27:23.001Z</time></trkpt><trkpt lat="14.436498077457" lon="121.04551689301809"><ele>11.0</ele><time>2026-05-05T08:27:24.001Z</time></trkpt><trkpt lat="14.436405883012021" lon="121.04551903504756"><ele>11.0</ele><time>2026-05-05T08:27:26.001Z</time></trkpt><trkpt lat="14.43631504380213" lon="121.04551119497776"><ele>11.0</ele><time>2026-05-05T08:27:28.001Z</time></trkpt><trkpt lat="14.436199150470637" lon="121.0455040265335"><ele>11.0</ele><time>2026-05-05T08:27:30.001Z</time></trkpt><trkpt lat="14.436124634624345" lon="121.04549531574155"><ele>11.0</ele><time>2026-05-05T08:27:31.001Z</time></trkpt><trkpt lat="14.436040410083983" lon="121.04550550818118"><ele>11.0</ele><time>2026-05-05T08:27:32.001Z</time></trkpt><trkpt lat="14.435943184981832" lon="121.04551404500089"><ele>11.166666666666666</ele><time>2026-05-05T08:27:33.001Z</time></trkpt><trkpt lat="14.435873989988218" lon="121.04551830573207"><ele>11.333333333333332</ele><time>2026-05-05T08:27:34.001Z</time></trkpt><trkpt lat="14.435771794674896" lon="121.04552022910993"><ele>11.5</ele><time>2026-05-05T08:27:36.001Z</time></trkpt><trkpt lat="14.435683958955275" lon="121.0455311136077"><ele>11.666666666666666</ele><time>2026-05-05T08:27:38.001Z</time></trkpt><trkpt lat="14.435613813792585" lon="121.04553181925517"><ele>11.833333333333334</ele><time>2026-05-05T08:27:42.001Z</time></trkpt><trkpt lat="14.4355359470068" lon="121.04554227625874"><ele>12.0</ele><time>2026-05-05T08:27:49.001Z</time></trkpt><trkpt lat="14.435460566762893" lon="121.04554824323381"><ele>11.6</ele><time>2026-05-05T08:27:57.001Z</time></trkpt><trkpt lat="14.435382740472933" lon="121.04554603721824"><ele>11.2</ele><time>2026-05-05T08:28:00.001Z</time></trkpt><trkpt lat="14.435285457714379" lon="121.0455548374881"><ele>10.8</ele><time>2026-05-05T08:28:03.001Z</time></trkpt><trkpt lat="14.435185140461588" lon="121.04554908177157"><ele>10.4</ele><time>2026-05-05T08:28:05.001Z</time></trkpt><trkpt lat="14.435069217846003" lon="121.04555281816809"><ele>10.0</ele><time>2026-05-05T08:28:07.001Z</time></trkpt><trkpt lat="14.434941155283617" lon="121.04554184226953"><ele>10.0</ele><time>2026-05-05T08:28:09.001Z</time></trkpt><trkpt lat="14.434876674655476" lon="121.04553413344931"><ele>10.0</ele><time>2026-05-05T08:28:10.001Z</time></trkpt><trkpt lat="14.434796839340343" lon="121.04552455642065"><ele>10.0</ele><time>2026-05-05T08:28:11.001Z</time></trkpt><trkpt lat="14.434710227333813" lon="121.04552632158646"><ele>10.0</ele><time>2026-05-05T08:28:12.001Z</time></trkpt><trkpt lat="14.434638144298212" lon="121.04553092915943"><ele>10.0</ele><time>2026-05-05T08:28:13.001Z</time></trkpt><trkpt lat="14.434508547531912" lon="121.04552990130091"><ele>10.0</ele><time>2026-05-05T08:28:15.001Z</time></trkpt><trkpt lat="14.434442224974795" lon="121.0455319925248"><ele>9.8</ele><time>2026-05-05T08:28:16.001Z</time></trkpt><trkpt lat="14.434331488050136" lon="121.04552734492134"><ele>9.6</ele><time>2026-05-05T08:28:18.001Z</time></trkpt><trkpt lat="14.43419997752552" lon="121.04553760730077"><ele>9.4</ele><time>2026-05-05T08:28:20.001Z</time></trkpt><trkpt lat="14.434125634767062" lon="121.04553647716092"><ele>9.2</ele><time>2026-05-05T08:28:21.001Z</time></trkpt><trkpt lat="14.434054495303847" lon="121.04553339670748"><ele>9.0</ele><time>2026-05-05T08:28:22.001Z</time></trkpt><trkpt lat="14.433987300557336" lon="121.045535263182"><ele>9.0</ele><time>2026-05-05T08:28:23.001Z</time></trkpt><trkpt lat="14.433880349472817" lon="121.04553683402979"><ele>9.0</ele><time>2026-05-05T08:28:25.001Z</time></trkpt><trkpt lat="14.433784298569766" lon="121.04554130925635"><ele>9.0</ele><time>2026-05-05T08:28:27.001Z</time></trkpt><trkpt lat="14.433669630612666" lon="121.04554141628016"><ele>9.0</ele><time>2026-05-05T08:28:29.001Z</time></trkpt><trkpt lat="14.433550387953336" lon="121.0455399093732"><ele>9.0</ele><time>2026-05-05T08:28:31.001Z</time></trkpt><trkpt lat="14.43345051376812" lon="121.04552208629049"><ele>9.333333333333334</ele><time>2026-05-05T08:28:33.001Z</time></trkpt><trkpt lat="14.433386366873275" lon="121.04552031748474"><ele>9.666666666666666</ele><time>2026-05-05T08:28:34.001Z</time></trkpt><trkpt lat="14.43327813739096" lon="121.04553645768682"><ele>10.0</ele><time>2026-05-05T08:28:36.001Z</time></trkpt><trkpt lat="14.433199984653655" lon="121.0455203454448"><ele>10.333333333333332</ele><time>2026-05-05T08:28:38.001Z</time></trkpt><trkpt lat="14.433128827039884" lon="121.04552140584349"><ele>10.666666666666666</ele><time>2026-05-05T08:28:39.001Z</time></trkpt><trkpt lat="14.433016932806241" lon="121.04552782354148"><ele>11.0</ele><time>2026-05-05T08:28:41.001Z</time></trkpt><trkpt lat="14.432905838568239" lon="121.04553265309201"><ele>11.200000000000001</ele><time>2026-05-05T08:28:43.001Z</time></trkpt><trkpt lat="14.43281942617154" lon="121.04552985487067"><ele>11.4</ele><time>2026-05-05T08:28:45.001Z</time></trkpt><trkpt lat="14.43271304573295" lon="121.0455395914418"><ele>11.6</ele><time>2026-05-05T08:28:47.001Z</time></trkpt><trkpt lat="14.432570479710717" lon="121.04554997953973"><ele>11.8</ele><time>2026-05-05T08:28:49.001Z</time></trkpt><trkpt lat="14.432489276410866" lon="121.0455608940327"><ele>12.0</ele><time>2026-05-05T08:28:50.001Z</time></trkpt><trkpt lat="14.432416419124817" lon="121.04555785015793"><ele>12.0</ele><time>2026-05-05T08:28:51.001Z</time></trkpt><trkpt lat="14.432347621110894" lon="121.04554756386291"><ele>12.0</ele><time>2026-05-05T08:28:52.001Z</time></trkpt><trkpt lat="14.432246519860467" lon="121.04554614141105"><ele>12.0</ele><time>2026-05-05T08:28:54.001Z</time></trkpt><trkpt lat="14.432148090654394" lon="121.04554035474783"><ele>12.0</ele><time>2026-05-05T08:28:56.001Z</time></trkpt><trkpt lat="14.432039545566122" lon="121.04554468119588"><ele>12.0</ele><time>2026-05-05T08:28:58.001Z</time></trkpt><trkpt lat="14.43193732351335" lon="121.04554879633493"><ele>11.8</ele><time>2026-05-05T08:29:00.001Z</time></trkpt><trkpt lat="14.431842285282755" lon="121.04554638649536"><ele>11.6</ele><time>2026-05-05T08:29:02.001Z</time></trkpt><trkpt lat="14.431745421343345" lon="121.04554558520027"><ele>11.4</ele><time>2026-05-05T08:29:04.001Z</time></trkpt><trkpt lat="14.431611174462358" lon="121.04554735911671"><ele>11.200000000000001</ele><time>2026-05-05T08:29:06.001Z</time></trkpt><trkpt lat="14.431542615965643" lon="121.0455459319059"><ele>11.0</ele><time>2026-05-05T08:29:07.001Z</time></trkpt><trkpt lat="14.431466261789863" lon="121.04554446222745"><ele>11.0</ele><time>2026-05-05T08:29:08.001Z</time></trkpt><trkpt lat="14.431344553863557" lon="121.04554710840583"><ele>11.0</ele><time>2026-05-05T08:29:10.001Z</time></trkpt><trkpt lat="14.43121510524564" lon="121.04554771084466"><ele>11.0</ele><time>2026-05-05T08:29:12.001Z</time></trkpt><trkpt lat="14.43114563372264" lon="121.04555078672952"><ele>11.0</ele><time>2026-05-05T08:29:13.001Z</time></trkpt><trkpt lat="14.43107834110054" lon="121.04555431361888"><ele>11.0</ele><time>2026-05-05T08:29:14.001Z</time></trkpt><trkpt lat="14.431014071946102" lon="121.04555291517072"><ele>10.8</ele><time>2026-05-05T08:29:15.001Z</time></trkpt><trkpt lat="14.430941870668326" lon="121.04555424385313"><ele>10.600000000000001</ele><time>2026-05-05T08:29:16.001Z</time></trkpt><trkpt lat="14.43086774741068" lon="121.04556080388988"><ele>10.4</ele><time>2026-05-05T08:29:17.001Z</time></trkpt><trkpt lat="14.430740882116758" lon="121.04555860517456"><ele>10.2</ele><time>2026-05-05T08:29:19.001Z</time></trkpt><trkpt lat="14.430663244626295" lon="121.04556246245818"><ele>10.0</ele><time>2026-05-05T08:29:20.001Z</time></trkpt><trkpt lat="14.430554012835461" lon="121.045568527077"><ele>10.0</ele><time>2026-05-05T08:29:21.001Z</time></trkpt><trkpt lat="14.430452153686947" lon="121.0455710951279"><ele>10.0</ele><time>2026-05-05T08:29:22.001Z</time></trkpt><trkpt lat="14.430358186665199" lon="121.0455679938854"><ele>10.0</ele><time>2026-05-05T08:29:23.001Z</time></trkpt><trkpt lat="14.430247293388593" lon="121.04556640139243"><ele>10.0</ele><time>2026-05-05T08:29:24.001Z</time></trkpt><trkpt lat="14.43013197881027" lon="121.04556103263639"><ele>10.0</ele><time>2026-05-05T08:29:25.001Z</time></trkpt><trkpt lat="14.429991471023513" lon="121.04555473455649"><ele>10.0</ele><time>2026-05-05T08:29:26.001Z</time></trkpt><trkpt lat="14.429854633793955" lon="121.0455531102242"><ele>10.0</ele><time>2026-05-05T08:29:27.001Z</time></trkpt><trkpt lat="14.42971446121212" lon="121.04555728654408"><ele>10.0</ele><time>2026-05-05T08:29:28.001Z</time></trkpt><trkpt lat="14.429573197472028" lon="121.04555729394151"><ele>10.0</ele><time>2026-05-05T08:29:29.001Z</time></trkpt><trkpt lat="14.429441089558313" lon="121.04555645824466"><ele>10.4</ele><time>2026-05-05T08:29:30.001Z</time></trkpt><trkpt lat="14.429326617246396" lon="121.04555992560418"><ele>10.8</ele><time>2026-05-05T08:29:31.001Z</time></trkpt><trkpt lat="14.429208994379357" lon="121.04556564847444"><ele>11.2</ele><time>2026-05-05T08:29:32.001Z</time></trkpt><trkpt lat="14.429106233387955" lon="121.04556615768625"><ele>11.6</ele><time>2026-05-05T08:29:33.001Z</time></trkpt><trkpt lat="14.429003474160725" lon="121.04555919784869"><ele>12.0</ele><time>2026-05-05T08:29:34.001Z</time></trkpt><trkpt lat="14.428885618927765" lon="121.0455634731463"><ele>12.0</ele><time>2026-05-05T08:29:35.001Z</time></trkpt><trkpt lat="14.428762281989886" lon="121.04557053748226"><ele>12.0</ele><time>2026-05-05T08:29:36.001Z</time></trkpt><trkpt lat="14.428648622406177" lon="121.0455659886358"><ele>12.0</ele><time>2026-05-05T08:29:37.001Z</time></trkpt><trkpt lat="14.428528695442377" lon="121.04556603828166"><ele>12.0</ele><time>2026-05-05T08:29:38.001Z</time></trkpt><trkpt lat="14.428410587004063" lon="121.04557199654987"><ele>12.0</ele><time>2026-05-05T08:29:39.001Z</time></trkpt><trkpt lat="14.428309088282957" lon="121.0455704707224"><ele>12.0</ele><time>2026-05-05T08:29:40.001Z</time></trkpt><trkpt lat="14.42820689588273" lon="121.04557486144073"><ele>12.0</ele><time>2026-05-05T08:29:41.001Z</time></trkpt><trkpt lat="14.42811686639588" lon="121.04557281663804"><ele>12.0</ele><time>2026-05-05T08:29:42.001Z</time></trkpt><trkpt lat="14.428021041333613" lon="121.04557234337172"><ele>12.0</ele><time>2026-05-05T08:29:43.001Z</time></trkpt><trkpt lat="14.427924192540427" lon="121.04557446998378"><ele>11.833333333333334</ele><time>2026-05-05T08:29:44.001Z</time></trkpt><trkpt lat="14.42782271458163" lon="121.04557628400087"><ele>11.666666666666666</ele><time>2026-05-05T08:29:45.001Z</time></trkpt><trkpt lat="14.427722603964453" lon="121.0455736700955"><ele>11.5</ele><time>2026-05-05T08:29:46.001Z</time></trkpt><trkpt lat="14.427631007693668" lon="121.0455757817233"><ele>11.333333333333332</ele><time>2026-05-05T08:29:47.001Z</time></trkpt><trkpt lat="14.427558721848518" lon="121.04557446729018"><ele>11.166666666666666</ele><time>2026-05-05T08:29:48.001Z</time></trkpt><trkpt lat="14.427485923316144" lon="121.04557598226491"><ele>11.0</ele><time>2026-05-05T08:29:49.001Z</time></trkpt><trkpt lat="14.427358703377589" lon="121.04557194722811"><ele>11.0</ele><time>2026-05-05T08:29:51.001Z</time></trkpt><trkpt lat="14.427288365332345" lon="121.04557187487912"><ele>11.0</ele><time>2026-05-05T08:29:52.001Z</time></trkpt><trkpt lat="14.427214490618537" lon="121.04557363140069"><ele>11.0</ele><time>2026-05-05T08:29:53.001Z</time></trkpt><trkpt lat="14.427143216104088" lon="121.04557323394245"><ele>11.0</ele><time>2026-05-05T08:29:54.001Z</time></trkpt><trkpt lat="14.427066494923771" lon="121.04557762259971"><ele>11.0</ele><time>2026-05-05T08:29:55.001Z</time></trkpt><trkpt lat="14.426992005943179" lon="121.04557623527397"><ele>11.0</ele><time>2026-05-05T08:29:56.001Z</time></trkpt><trkpt lat="14.42691527825184" lon="121.04557678312469"><ele>11.0</ele><time>2026-05-05T08:29:57.001Z</time></trkpt><trkpt lat="14.42684442783326" lon="121.0455803050859"><ele>11.333333333333332</ele><time>2026-05-05T08:29:58.001Z</time></trkpt><trkpt lat="14.42672251914292" lon="121.04557993954558"><ele>11.666666666666666</ele><time>2026-05-05T08:30:00.001Z</time></trkpt><trkpt lat="14.426639221198677" lon="121.04557755453835"><ele>12.0</ele><time>2026-05-05T08:30:01.001Z</time></trkpt><trkpt lat="14.42655596521527" lon="121.04558314016401"><ele>12.333333333333332</ele><time>2026-05-05T08:30:02.001Z</time></trkpt><trkpt lat="14.42648387581342" lon="121.04558251688387"><ele>12.666666666666666</ele><time>2026-05-05T08:30:03.001Z</time></trkpt><trkpt lat="14.426404925628262" lon="121.045587412887"><ele>13.0</ele><time>2026-05-05T08:30:04.001Z</time></trkpt><trkpt lat="14.4263290419129" lon="121.04558586729092"><ele>13.166666666666666</ele><time>2026-05-05T08:30:05.001Z</time></trkpt><trkpt lat="14.42624729614151" lon="121.04558866628616"><ele>13.333333333333332</ele><time>2026-05-05T08:30:06.001Z</time></trkpt><trkpt lat="14.426161315578568" lon="121.04558649697992"><ele>13.5</ele><time>2026-05-05T08:30:07.001Z</time></trkpt><trkpt lat="14.426086066330955" lon="121.04558800870254"><ele>13.666666666666668</ele><time>2026-05-05T08:30:08.001Z</time></trkpt><trkpt lat="14.426001856828977" lon="121.04559369014915"><ele>13.833333333333334</ele><time>2026-05-05T08:30:09.001Z</time></trkpt><trkpt lat="14.425887314651186" lon="121.04560255317409"><ele>14.0</ele><time>2026-05-05T08:30:10.001Z</time></trkpt><trkpt lat="14.425766402735192" lon="121.04560238036446"><ele>14.0</ele><time>2026-05-05T08:30:11.001Z</time></trkpt><trkpt lat="14.425655453963381" lon="121.04560776138852"><ele>13.999999999999998</ele><time>2026-05-05T08:30:12.001Z</time></trkpt><trkpt lat="14.425570145705878" lon="121.04560365018524"><ele>13.999999999999998</ele><time>2026-05-05T08:30:13.001Z</time></trkpt><trkpt lat="14.425447915487423" lon="121.0455967152734"><ele>14.0</ele><time>2026-05-05T08:30:15.001Z</time></trkpt><trkpt lat="14.425342806604402" lon="121.0455982531358"><ele>14.0</ele><time>2026-05-05T08:30:17.001Z</time></trkpt><trkpt lat="14.425211378491705" lon="121.04560073103124"><ele>13.833333333333334</ele><time>2026-05-05T08:30:19.001Z</time></trkpt><trkpt lat="14.425136831544755" lon="121.04560126069515"><ele>13.666666666666668</ele><time>2026-05-05T08:30:20.001Z</time></trkpt><trkpt lat="14.425073428709636" lon="121.04560615973148"><ele>13.5</ele><time>2026-05-05T08:30:21.001Z</time></trkpt><trkpt lat="14.424957175168316" lon="121.04560746765704"><ele>13.333333333333332</ele><time>2026-05-05T08:30:23.001Z</time></trkpt><trkpt lat="14.424847388918264" lon="121.04560419362166"><ele>13.166666666666666</ele><time>2026-05-05T08:30:25.001Z</time></trkpt><trkpt lat="14.42478359308192" lon="121.04560358794194"><ele>13.0</ele><time>2026-05-05T08:30:26.001Z</time></trkpt><trkpt lat="14.424720519645732" lon="121.04560495236957"><ele>13.571428571428571</ele><time>2026-05-05T08:30:27.001Z</time></trkpt><trkpt lat="14.42464548396166" lon="121.04560674145114"><ele>14.142857142857142</ele><time>2026-05-05T08:30:29.001Z</time></trkpt><trkpt lat="14.424573279056295" lon="121.04560585329324"><ele>14.714285714285714</ele><time>2026-05-05T08:30:34.001Z</time></trkpt><trkpt lat="14.424501658899628" lon="121.04561233037313"><ele>15.285714285714285</ele><time>2026-05-05T08:30:36.001Z</time></trkpt><trkpt lat="14.424429547649742" lon="121.04560963484238"><ele>15.857142857142858</ele><time>2026-05-05T08:30:41.001Z</time></trkpt><trkpt lat="14.424354464650932" lon="121.04560926494817"><ele>16.428571428571427</ele><time>2026-05-05T08:30:49.001Z</time></trkpt><trkpt lat="14.424276653388981" lon="121.04560953823116"><ele>17.0</ele><time>2026-05-05T08:30:54.001Z</time></trkpt><trkpt lat="14.42418215670986" lon="121.04559904282485"><ele>17.0</ele><time>2026-05-05T08:30:57.001Z</time></trkpt><trkpt lat="14.424110287886812" lon="121.04560842443598"><ele>17.0</ele><time>2026-05-05T08:30:59.001Z</time></trkpt><trkpt lat="14.424035232217157" lon="121.04561206138224"><ele>17.0</ele><time>2026-05-05T08:31:01.001Z</time></trkpt><trkpt lat="14.423932730436386" lon="121.04563895555435"><ele>17.0</ele><time>2026-05-05T08:31:03.001Z</time></trkpt><trkpt lat="14.423839978107367" lon="121.04566648998187"><ele>17.0</ele><time>2026-05-05T08:31:05.001Z</time></trkpt><trkpt lat="14.423725281042175" lon="121.04567625566482"><ele>16.2</ele><time>2026-05-05T08:31:07.001Z</time></trkpt><trkpt lat="14.42366320039188" lon="121.0456577381609"><ele>15.399999999999999</ele><time>2026-05-05T08:31:08.001Z</time></trkpt><trkpt lat="14.423558452476769" lon="121.04562957791406"><ele>14.600000000000001</ele><time>2026-05-05T08:31:10.001Z</time></trkpt><trkpt lat="14.423445599872393" lon="121.0456272927314"><ele>13.8</ele><time>2026-05-05T08:31:12.001Z</time></trkpt><trkpt lat="14.42334459804981" lon="121.0456335592985"><ele>13.0</ele><time>2026-05-05T08:31:14.001Z</time></trkpt><trkpt lat="14.423223147279286" lon="121.04564414510989"><ele>12.999999999999998</ele><time>2026-05-05T08:31:16.001Z</time></trkpt><trkpt lat="14.423155665445508" lon="121.04565489023857"><ele>13.0</ele><time>2026-05-05T08:31:17.001Z</time></trkpt><trkpt lat="14.423091705737072" lon="121.04566969898323"><ele>13.0</ele><time>2026-05-05T08:31:18.001Z</time></trkpt><trkpt lat="14.423026586455366" lon="121.04568676651904"><ele>13.0</ele><time>2026-05-05T08:31:19.001Z</time></trkpt><trkpt lat="14.422960726685796" lon="121.0456996828916"><ele>12.999999999999998</ele><time>2026-05-05T08:31:20.001Z</time></trkpt><trkpt lat="14.422835366782007" lon="121.04572636248552"><ele>13.0</ele><time>2026-05-05T08:31:22.001Z</time></trkpt><trkpt lat="14.42277188320147" lon="121.04573796561667"><ele>12.499999999999998</ele><time>2026-05-05T08:31:23.001Z</time></trkpt><trkpt lat="14.422707154783073" lon="121.04574883389284"><ele>12.0</ele><time>2026-05-05T08:31:24.001Z</time></trkpt><trkpt lat="14.422632512685931" lon="121.04576080739155"><ele>11.5</ele><time>2026-05-05T08:31:25.001Z</time></trkpt><trkpt lat="14.422561094082466" lon="121.04576498341056"><ele>11.0</ele><time>2026-05-05T08:31:26.001Z</time></trkpt><trkpt lat="14.42248437212444" lon="121.04576965977319"><ele>10.5</ele><time>2026-05-05T08:31:27.001Z</time></trkpt><trkpt lat="14.422408797510796" lon="121.04577074673867"><ele>10.0</ele><time>2026-05-05T08:31:28.001Z</time></trkpt><trkpt lat="14.422287603724437" lon="121.04577263395068"><ele>10.0</ele><time>2026-05-05T08:31:30.001Z</time></trkpt><trkpt lat="14.42216662967791" lon="121.04577144748959"><ele>10.0</ele><time>2026-05-05T08:31:32.001Z</time></trkpt><trkpt lat="14.422046217250509" lon="121.0457735254864"><ele>10.0</ele><time>2026-05-05T08:31:34.001Z</time></trkpt><trkpt lat="14.421917750276878" lon="121.04577174086802"><ele>10.0</ele><time>2026-05-05T08:31:36.001Z</time></trkpt><trkpt lat="14.421842197622034" lon="121.04576736570553"><ele>10.0</ele><time>2026-05-05T08:31:37.001Z</time></trkpt><trkpt lat="14.421749942823887" lon="121.04575490557323"><ele>10.0</ele><time>2026-05-05T08:31:38.001Z</time></trkpt><trkpt lat="14.421649287088853" lon="121.04574467941542"><ele>10.0</ele><time>2026-05-05T08:31:39.001Z</time></trkpt><trkpt lat="14.42154703977076" lon="121.04573330984307"><ele>10.0</ele><time>2026-05-05T08:31:40.001Z</time></trkpt><trkpt lat="14.42146076438325" lon="121.0457285847686"><ele>10.0</ele><time>2026-05-05T08:31:41.001Z</time></trkpt><trkpt lat="14.421374122466283" lon="121.04572307466259"><ele>10.0</ele><time>2026-05-05T08:31:42.001Z</time></trkpt><trkpt lat="14.421287944764977" lon="121.04571631939281"><ele>10.833333333333334</ele><time>2026-05-05T08:31:43.001Z</time></trkpt><trkpt lat="14.421186606497788" lon="121.0457111684432"><ele>11.666666666666668</ele><time>2026-05-05T08:31:44.001Z</time></trkpt><trkpt lat="14.421089727285123" lon="121.04571023370895"><ele>12.5</ele><time>2026-05-05T08:31:45.001Z</time></trkpt><trkpt lat="14.421012489628453" lon="121.04570927793947"><ele>13.333333333333334</ele><time>2026-05-05T08:31:46.001Z</time></trkpt><trkpt lat="14.420942813399284" lon="121.04570118186508"><ele>14.166666666666666</ele><time>2026-05-05T08:31:48.001Z</time></trkpt><trkpt lat="14.420846222849242" lon="121.04569140919018"><ele>15.0</ele><time>2026-05-05T08:31:50.001Z</time></trkpt><trkpt lat="14.42074874107152" lon="121.0456888199136"><ele>15.0</ele><time>2026-05-05T08:31:52.001Z</time></trkpt><trkpt lat="14.420678397461979" lon="121.04567795181539"><ele>15.0</ele><time>2026-05-05T08:31:53.001Z</time></trkpt><trkpt lat="14.42056255747319" lon="121.04565957889605"><ele>15.0</ele><time>2026-05-05T08:31:55.001Z</time></trkpt><trkpt lat="14.42046348869052" lon="121.04563302146873"><ele>15.0</ele><time>2026-05-05T08:31:57.001Z</time></trkpt><trkpt lat="14.420361458908761" lon="121.04557333163054"><ele>15.0</ele><time>2026-05-05T08:31:59.001Z</time></trkpt><trkpt lat="14.420292928591316" lon="121.04551185433428"><ele>15.333333333333334</ele><time>2026-05-05T08:32:01.001Z</time></trkpt><trkpt lat="14.420189594802764" lon="121.04547142586058"><ele>15.666666666666668</ele><time>2026-05-05T08:32:03.001Z</time></trkpt><trkpt lat="14.420125774616162" lon="121.04542540422948"><ele>16.0</ele><time>2026-05-05T08:32:05.001Z</time></trkpt><trkpt lat="14.420055188583794" lon="121.04537618165133"><ele>16.333333333333336</ele><time>2026-05-05T08:32:07.001Z</time></trkpt><trkpt lat="14.419975311938774" lon="121.04535598232233"><ele>16.666666666666668</ele><time>2026-05-05T08:32:09.001Z</time></trkpt><trkpt lat="14.41988407430901" lon="121.04534585692292"><ele>17.0</ele><time>2026-05-05T08:32:11.001Z</time></trkpt><trkpt lat="14.419767497818457" lon="121.04531291997841"><ele>17.0</ele><time>2026-05-05T08:32:13.001Z</time></trkpt><trkpt lat="14.419659005067441" lon="121.04531754136644"><ele>17.0</ele><time>2026-05-05T08:32:15.001Z</time></trkpt><trkpt lat="14.419539470513474" lon="121.04533930821128"><ele>17.0</ele><time>2026-05-05T08:32:17.001Z</time></trkpt><trkpt lat="14.41947460890818" lon="121.0453621319451"><ele>17.0</ele><time>2026-05-05T08:32:18.001Z</time></trkpt><trkpt lat="14.419382717658927" lon="121.0453837302583"><ele>17.0</ele><time>2026-05-05T08:32:20.001Z</time></trkpt><trkpt lat="14.419283798375155" lon="121.0454173001311"><ele>17.2</ele><time>2026-05-05T08:32:22.001Z</time></trkpt><trkpt lat="14.419224717824957" lon="121.04544907541676"><ele>17.4</ele><time>2026-05-05T08:32:24.001Z</time></trkpt><trkpt lat="14.419155358086332" lon="121.04545123148235"><ele>17.6</ele><time>2026-05-05T08:32:27.001Z</time></trkpt><trkpt lat="14.418948338316817" lon="121.04551935575124"><ele>17.8</ele><time>2026-05-05T08:34:28.001Z</time></trkpt><trkpt lat="14.418897812468597" lon="121.04548002748018"><ele>18.0</ele><time>2026-05-05T08:35:14Z</time></trkpt><trkpt lat="14.418839517247662" lon="121.04551109683116"><ele>18.0</ele><time>2026-05-05T08:36:12.001Z</time></trkpt><trkpt lat="14.419012701268937" lon="121.04544723067885"><ele>18.0</ele><time>2026-05-05T08:37:21Z</time></trkpt><trkpt lat="14.41908452138542" lon="121.04542238788082"><ele>18.0</ele><time>2026-05-05T08:37:28Z</time></trkpt><trkpt lat="14.419051108830669" lon="121.04547962560939"><ele>18.0</ele><time>2026-05-05T08:37:34Z</time></trkpt><trkpt lat="14.419065399875993" lon="121.04554825689249"><ele>18.0</ele><time>2026-05-05T08:37:40Z</time></trkpt><trkpt lat="14.419074041494731" lon="121.04562034664582"><ele>18.0</ele><time>2026-05-05T08:37:43Z</time></trkpt><trkpt lat="14.419102093593189" lon="121.04552377761695"><ele>18.0</ele><time>2026-05-05T08:37:57Z</time></trkpt><trkpt lat="14.4190966095968" lon="121.04543813993331"><ele>18.0</ele><time>2026-05-05T08:38:00Z</time></trkpt><trkpt lat="14.419096677783378" lon="121.04537132970647"><ele>18.0</ele><time>2026-05-05T08:38:05Z</time></trkpt><trkpt lat="14.41918776646841" lon="121.04541287608745"><ele>18.0</ele><time>2026-05-05T08:38:13Z</time></trkpt><trkpt lat="14.419128844983684" lon="121.04544674593728"><ele>18.0</ele><time>2026-05-05T08:38:21Z</time></trkpt><trkpt lat="14.41908825778812" lon="121.04554195897647"><ele>18.0</ele><time>2026-05-05T08:38:26Z</time></trkpt><trkpt lat="14.419151667519758" lon="121.04582000988562"><ele>18.0</ele><time>2026-05-05T08:38:38.001Z</time></trkpt><trkpt lat="14.419105460869048" lon="121.04586830374849"><ele>18.0</ele><time>2026-05-05T08:39:11Z</time></trkpt><trkpt lat="14.419031653830876" lon="121.04580806912062"><ele>18.0</ele><time>2026-05-05T08:39:34Z</time></trkpt><trkpt lat="14.418958283756186" lon="121.04577912525676"><ele>18.0</ele><time>2026-05-05T08:39:40Z</time></trkpt><trkpt lat="14.418859214405382" lon="121.0457604768247"><ele>18.0</ele><time>2026-05-05T08:39:44Z</time></trkpt><trkpt lat="14.418751997501467" lon="121.04573440194336"><ele>18.0</ele><time>2026-05-05T08:39:46Z</time></trkpt><trkpt lat="14.418605120165404" lon="121.04571235211114"><ele>18.0</ele><time>2026-05-05T08:39:48Z</time></trkpt><trkpt lat="14.418518955059923" lon="121.04570315019257"><ele>18.0</ele><time>2026-05-05T08:39:49Z</time></trkpt><trkpt lat="14.418450607895565" lon="121.04568021753187"><ele>17.6</ele><time>2026-05-05T08:39:50Z</time></trkpt><trkpt lat="14.418364426056861" lon="121.0456638560294"><ele>17.200000000000003</ele><time>2026-05-05T08:39:51Z</time></trkpt><trkpt lat="14.418272249160438" lon="121.04563825300147"><ele>16.8</ele><time>2026-05-05T08:39:52Z</time></trkpt><trkpt lat="14.418148312065293" lon="121.0456279296447"><ele>16.400000000000002</ele><time>2026-05-05T08:39:53Z</time></trkpt><trkpt lat="14.418059214177687" lon="121.0456111046317"><ele>16.0</ele><time>2026-05-05T08:39:54Z</time></trkpt><trkpt lat="14.417944703645512" lon="121.04559082031517"><ele>15.5</ele><time>2026-05-05T08:39:55Z</time></trkpt><trkpt lat="14.417830835044246" lon="121.0455824301069"><ele>15.0</ele><time>2026-05-05T08:39:56Z</time></trkpt><trkpt lat="14.417697067836025" lon="121.04557856565577"><ele>14.5</ele><time>2026-05-05T08:39:57Z</time></trkpt><trkpt lat="14.417566588155204" lon="121.04557380324222"><ele>14.0</ele><time>2026-05-05T08:39:58Z</time></trkpt><trkpt lat="14.417472127935296" lon="121.04556607699436"><ele>14.0</ele><time>2026-05-05T08:39:59Z</time></trkpt><trkpt lat="14.417359323596063" lon="121.04554325787343"><ele>14.0</ele><time>2026-05-05T08:40:00Z</time></trkpt><trkpt lat="14.417155630696262" lon="121.04552465168587"><ele>14.0</ele><time>2026-05-05T08:40:01Z</time></trkpt><trkpt lat="14.416992663791104" lon="121.04552034798573"><ele>13.333333333333334</ele><time>2026-05-05T08:40:02Z</time></trkpt><trkpt lat="14.416869662800725" lon="121.0455236775677"><ele>12.666666666666668</ele><time>2026-05-05T08:40:03Z</time></trkpt><trkpt lat="14.416668186987112" lon="121.04553119782456"><ele>12.0</ele><time>2026-05-05T08:40:04Z</time></trkpt><trkpt lat="14.416482901559759" lon="121.04552756843115"><ele>12.0</ele><time>2026-05-05T08:40:05Z</time></trkpt><trkpt lat="14.416388290708262" lon="121.04549568119519"><ele>12.0</ele><time>2026-05-05T08:40:07Z</time></trkpt><trkpt lat="14.41625016170154" lon="121.04549429300806"><ele>12.0</ele><time>2026-05-05T08:40:08Z</time></trkpt><trkpt lat="14.416163311826558" lon="121.04549643462487"><ele>12.0</ele><time>2026-05-05T08:40:09Z</time></trkpt><trkpt lat="14.416057200325787" lon="121.04548845829139"><ele>12.0</ele><time>2026-05-05T08:40:11Z</time></trkpt><trkpt lat="14.41592708057381" lon="121.04553426844663"><ele>12.166666666666666</ele><time>2026-05-05T08:40:13Z</time></trkpt><trkpt lat="14.415847753000058" lon="121.04554837340234"><ele>12.333333333333332</ele><time>2026-05-05T08:40:14Z</time></trkpt><trkpt lat="14.415720947543265" lon="121.04556982859091"><ele>12.5</ele><time>2026-05-05T08:40:16Z</time></trkpt><trkpt lat="14.415661898941066" lon="121.04554442104296"><ele>12.666666666666666</ele><time>2026-05-05T08:40:20Z</time></trkpt><trkpt lat="14.415613296236327" lon="121.04550235043756"><ele>12.833333333333332</ele><time>2026-05-05T08:40:23Z</time></trkpt><trkpt lat="14.415510933651667" lon="121.04551604710932"><ele>13.0</ele><time>2026-05-05T08:40:27Z</time></trkpt><trkpt lat="14.415422674473746" lon="121.04553417104245"><ele>12.999999999999998</ele><time>2026-05-05T08:40:30Z</time></trkpt><trkpt lat="14.415335858514586" lon="121.04554281441459"><ele>13.0</ele><time>2026-05-05T08:40:33Z</time></trkpt><trkpt lat="14.415280204355334" lon="121.0455790302041"><ele>13.0</ele><time>2026-05-05T08:40:36Z</time></trkpt><trkpt lat="14.41531387679778" lon="121.04564790005335"><ele>13.0</ele><time>2026-05-05T08:40:38.001Z</time></trkpt><trkpt lat="14.415390430789424" lon="121.04565706231661"><ele>12.999999999999998</ele><time>2026-05-05T08:40:40.001Z</time></trkpt><trkpt lat="14.41545896972422" lon="121.04563279706146"><ele>13.0</ele><time>2026-05-05T08:40:41.001Z</time></trkpt><trkpt lat="14.415555170227634" lon="121.04560972587616"><ele>13.0</ele><time>2026-05-05T08:40:43.001Z</time></trkpt><trkpt lat="14.415672670583676" lon="121.04554578845466"><ele>13.0</ele><time>2026-05-05T08:40:45.001Z</time></trkpt><trkpt lat="14.41573754458123" lon="121.04553001638808"><ele>13.0</ele><time>2026-05-05T08:40:46.001Z</time></trkpt><trkpt lat="14.415797634032472" lon="121.0455090513007"><ele>13.0</ele><time>2026-05-05T08:40:47.001Z</time></trkpt><trkpt lat="14.415907110435661" lon="121.04549476011181"><ele>13.0</ele><time>2026-05-05T08:40:49.001Z</time></trkpt><trkpt lat="14.416014252561164" lon="121.04548569321103"><ele>12.999999999999998</ele><time>2026-05-05T08:40:51.001Z</time></trkpt><trkpt lat="14.416082174339163" lon="121.04550102520281"><ele>13.0</ele><time>2026-05-05T08:40:52.001Z</time></trkpt><trkpt lat="14.416190499912691" lon="121.04550112022619"><ele>13.0</ele><time>2026-05-05T08:40:54.001Z</time></trkpt><trkpt lat="14.416302014852215" lon="121.04550735604589"><ele>13.0</ele><time>2026-05-05T08:40:56.001Z</time></trkpt><trkpt lat="14.416374304373003" lon="121.04550416027024"><ele>12.999999999999998</ele><time>2026-05-05T08:40:57.001Z</time></trkpt><trkpt lat="14.416453973801577" lon="121.04549852364804"><ele>13.0</ele><time>2026-05-05T08:40:58.001Z</time></trkpt><trkpt lat="14.416532318372107" lon="121.04550144945057"><ele>12.833333333333332</ele><time>2026-05-05T08:40:59.001Z</time></trkpt><trkpt lat="14.416599298331926" lon="121.04549982376261"><ele>12.666666666666666</ele><time>2026-05-05T08:41:00.001Z</time></trkpt><trkpt lat="14.416730808528277" lon="121.04549335897678"><ele>12.5</ele><time>2026-05-05T08:41:02.001Z</time></trkpt><trkpt lat="14.416800837884317" lon="121.04549072949264"><ele>12.333333333333332</ele><time>2026-05-05T08:41:03.001Z</time></trkpt><trkpt lat="14.416874001297096" lon="121.04549181899587"><ele>12.166666666666666</ele><time>2026-05-05T08:41:04Z</time></trkpt><trkpt lat="14.41694901952302" lon="121.04549198462055"><ele>12.0</ele><time>2026-05-05T08:41:05Z</time></trkpt><trkpt lat="14.417016060265333" lon="121.04549283364638"><ele>12.0</ele><time>2026-05-05T08:41:06Z</time></trkpt><trkpt lat="14.417085874329832" lon="121.04550116308042"><ele>12.0</ele><time>2026-05-05T08:41:07Z</time></trkpt><trkpt lat="14.417154004942509" lon="121.0455007699453"><ele>12.0</ele><time>2026-05-05T08:41:08Z</time></trkpt><trkpt lat="14.417256311055075" lon="121.04550593887554"><ele>12.0</ele><time>2026-05-05T08:41:10Z</time></trkpt><trkpt lat="14.417370313768231" lon="121.04549703309272"><ele>12.0</ele><time>2026-05-05T08:41:12Z</time></trkpt><trkpt lat="14.417542093200357" lon="121.04552283728995"><ele>12.333333333333334</ele><time>2026-05-05T08:41:18Z</time></trkpt><trkpt lat="14.417618033422066" lon="121.04553449252118"><ele>12.666666666666668</ele><time>2026-05-05T08:41:19Z</time></trkpt><trkpt lat="14.417682619063836" lon="121.04556819791682"><ele>13.0</ele><time>2026-05-05T08:41:20Z</time></trkpt><trkpt lat="14.417756615268997" lon="121.04557842431892"><ele>13.333333333333334</ele><time>2026-05-05T08:41:21Z</time></trkpt><trkpt lat="14.41782678317826" lon="121.04558676364645"><ele>13.666666666666668</ele><time>2026-05-05T08:41:22Z</time></trkpt><trkpt lat="14.417949519535659" lon="121.04559112147233"><ele>14.0</ele><time>2026-05-05T08:41:24Z</time></trkpt><trkpt lat="14.4180126954653" lon="121.04557808237237"><ele>14.333333333333334</ele><time>2026-05-05T08:41:25Z</time></trkpt><trkpt lat="14.418064164092295" lon="121.04553026223914"><ele>14.666666666666668</ele><time>2026-05-05T08:41:26Z</time></trkpt><trkpt lat="14.418155366621779" lon="121.04552857415123"><ele>15.0</ele><time>2026-05-05T08:41:28Z</time></trkpt><trkpt lat="14.418240764813786" lon="121.04552916684567"><ele>15.333333333333332</ele><time>2026-05-05T08:41:30Z</time></trkpt><trkpt lat="14.418336655639667" lon="121.04552192369404"><ele>15.666666666666666</ele><time>2026-05-05T08:41:32Z</time></trkpt><trkpt lat="14.418429250494752" lon="121.04551322576411"><ele>16.0</ele><time>2026-05-05T08:41:34Z</time></trkpt><trkpt lat="14.418545936414425" lon="121.04551648237867"><ele>16.0</ele><time>2026-05-05T08:41:36Z</time></trkpt><trkpt lat="14.418613952201161" lon="121.0455046700824"><ele>16.0</ele><time>2026-05-05T08:41:37Z</time></trkpt><trkpt lat="14.418677244064632" lon="121.0455096740075"><ele>16.0</ele><time>2026-05-05T08:41:38Z</time></trkpt><trkpt lat="14.41879231126843" lon="121.04552777829323"><ele>16.0</ele><time>2026-05-05T08:41:40Z</time></trkpt><trkpt lat="14.41890058116162" lon="121.04556542767395"><ele>16.0</ele><time>2026-05-05T08:41:42Z</time></trkpt><trkpt lat="14.418987690823512" lon="121.04563445040391"><ele>16.400000000000002</ele><time>2026-05-05T08:41:44Z</time></trkpt><trkpt lat="14.419052312418474" lon="121.04569971699416"><ele>16.8</ele><time>2026-05-05T08:41:46Z</time></trkpt><trkpt lat="14.419083920949118" lon="121.04581285861647"><ele>17.200000000000003</ele><time>2026-05-05T08:41:48Z</time></trkpt><trkpt lat="14.419104876665125" lon="121.04587708305208"><ele>17.6</ele><time>2026-05-05T08:41:49Z</time></trkpt><trkpt lat="14.41911086824243" lon="121.04602087494261"><ele>18.0</ele><time>2026-05-05T08:41:51Z</time></trkpt><trkpt lat="14.419107139083804" lon="121.04608990631878"><ele>17.2</ele><time>2026-05-05T08:41:52Z</time></trkpt><trkpt lat="14.419107755474421" lon="121.0462180270564"><ele>16.4</ele><time>2026-05-05T08:41:54Z</time></trkpt><trkpt lat="14.419105921711301" lon="121.04632756198934"><ele>15.599999999999998</ele><time>2026-05-05T08:41:56Z</time></trkpt><trkpt lat="14.419092413179495" lon="121.04640821699049"><ele>14.799999999999999</ele><time>2026-05-05T08:41:58Z</time></trkpt><trkpt lat="14.419094748612412" lon="121.04650113142358"><ele>14.0</ele><time>2026-05-05T08:42:00Z</time></trkpt><trkpt lat="14.419090898931561" lon="121.04660769793615"><ele>13.799999999999999</ele><time>2026-05-05T08:42:02Z</time></trkpt><trkpt lat="14.419095481310157" lon="121.04671477672994"><ele>13.599999999999998</ele><time>2026-05-05T08:42:04Z</time></trkpt><trkpt lat="14.41910008462365" lon="121.04680764509061"><ele>13.4</ele><time>2026-05-05T08:42:06Z</time></trkpt><trkpt lat="14.419086262011394" lon="121.04692222729568"><ele>13.2</ele><time>2026-05-05T08:42:08Z</time></trkpt><trkpt lat="14.41908281711162" lon="121.04701938349632"><ele>13.0</ele><time>2026-05-05T08:42:09Z</time></trkpt><trkpt lat="14.419085583280143" lon="121.04712110518244"><ele>12.999999999999998</ele><time>2026-05-05T08:42:10Z</time></trkpt><trkpt lat="14.419085841446213" lon="121.04721415652176"><ele>13.0</ele><time>2026-05-05T08:42:11Z</time></trkpt><trkpt lat="14.419086079408348" lon="121.04729459195666"><ele>13.0</ele><time>2026-05-05T08:42:12Z</time></trkpt><trkpt lat="14.41908742895412" lon="121.0473667691607"><ele>13.0</ele><time>2026-05-05T08:42:13Z</time></trkpt><trkpt lat="14.419087100336743" lon="121.04743415546363"><ele>12.999999999999998</ele><time>2026-05-05T08:42:14Z</time></trkpt><trkpt lat="14.419082835311139" lon="121.04753870705734"><ele>13.0</ele><time>2026-05-05T08:42:16Z</time></trkpt><trkpt lat="14.419077929550038" lon="121.04762313776888"><ele>12.666666666666666</ele><time>2026-05-05T08:42:18Z</time></trkpt><trkpt lat="14.419081912190167" lon="121.04770877499965"><ele>12.333333333333332</ele><time>2026-05-05T08:42:20Z</time></trkpt><trkpt lat="14.419086145414093" lon="121.04779907447704"><ele>12.0</ele><time>2026-05-05T08:42:22Z</time></trkpt><trkpt lat="14.419077033300626" lon="121.04791547087491"><ele>11.666666666666666</ele><time>2026-05-05T08:42:24Z</time></trkpt><trkpt lat="14.419069124066539" lon="121.04799409186748"><ele>11.333333333333332</ele><time>2026-05-05T08:42:25Z</time></trkpt><trkpt lat="14.419062366078657" lon="121.04807968567462"><ele>11.0</ele><time>2026-05-05T08:42:26Z</time></trkpt><trkpt lat="14.419064247081172" lon="121.04817156339254"><ele>11.0</ele><time>2026-05-05T08:42:27Z</time></trkpt><trkpt lat="14.419063473483813" lon="121.04825068402778"><ele>11.0</ele><time>2026-05-05T08:42:28Z</time></trkpt><trkpt lat="14.419062327895706" lon="121.04832004828154"><ele>11.0</ele><time>2026-05-05T08:42:29Z</time></trkpt><trkpt lat="14.419065585061427" lon="121.0484287729382"><ele>11.0</ele><time>2026-05-05T08:42:31Z</time></trkpt><trkpt lat="14.419065511099939" lon="121.04851749421503"><ele>11.0</ele><time>2026-05-05T08:42:33Z</time></trkpt><trkpt lat="14.419066537079427" lon="121.04862756629338"><ele>11.0</ele><time>2026-05-05T08:42:35Z</time></trkpt><trkpt lat="14.419065623898849" lon="121.04869436902281"><ele>11.0</ele><time>2026-05-05T08:42:36Z</time></trkpt><trkpt lat="14.419051874207627" lon="121.04882007206739"><ele>11.0</ele><time>2026-05-05T08:42:38Z</time></trkpt><trkpt lat="14.419064953976077" lon="121.04892740883321"><ele>11.0</ele><time>2026-05-05T08:42:40Z</time></trkpt><trkpt lat="14.419069181649762" lon="121.04900464403192"><ele>11.0</ele><time>2026-05-05T08:42:42Z</time></trkpt><trkpt lat="14.419068430098193" lon="121.04908234880146"><ele>11.0</ele><time>2026-05-05T08:42:44Z</time></trkpt><trkpt lat="14.419058175336406" lon="121.04917168073578"><ele>10.714285714285715</ele><time>2026-05-05T08:42:46Z</time></trkpt><trkpt lat="14.41905289300669" lon="121.04925645206023"><ele>10.428571428571429</ele><time>2026-05-05T08:42:48Z</time></trkpt><trkpt lat="14.419053334428625" lon="121.04934270136222"><ele>10.142857142857142</ele><time>2026-05-05T08:42:50Z</time></trkpt><trkpt lat="14.41905512864132" lon="121.04941729679197"><ele>9.857142857142858</ele><time>2026-05-05T08:42:52Z</time></trkpt><trkpt lat="14.419054796517244" lon="121.04949301019506"><ele>9.571428571428571</ele><time>2026-05-05T08:42:54Z</time></trkpt><trkpt lat="14.419054877114728" lon="121.04956350933121"><ele>9.285714285714286</ele><time>2026-05-05T08:42:56Z</time></trkpt><trkpt lat="14.419054303192752" lon="121.04962883915137"><ele>9.0</ele><time>2026-05-05T08:42:58Z</time></trkpt><trkpt lat="14.419058220192666" lon="121.04971474179611"><ele>9.000000000000002</ele><time>2026-05-05T08:43:00Z</time></trkpt><trkpt lat="14.419034679949485" lon="121.04977832241772"><ele>9.0</ele><time>2026-05-05T08:43:01Z</time></trkpt><trkpt lat="14.419034128323126" lon="121.04986452936824"><ele>9.0</ele><time>2026-05-05T08:43:02.001Z</time></trkpt><trkpt lat="14.419050168520968" lon="121.04992944098113"><ele>9.0</ele><time>2026-05-05T08:43:03.001Z</time></trkpt><trkpt lat="14.419043671960345" lon="121.04999642216295"><ele>9.0</ele><time>2026-05-05T08:43:04.001Z</time></trkpt><trkpt lat="14.419041921936673" lon="121.05008495316545"><ele>9.000000000000002</ele><time>2026-05-05T08:43:06.001Z</time></trkpt><trkpt lat="14.419035176680392" lon="121.0501584129356"><ele>9.0</ele><time>2026-05-05T08:43:09.001Z</time></trkpt><trkpt lat="14.418967669163933" lon="121.05017377992534"><ele>9.142857142857144</ele><time>2026-05-05T08:43:12Z</time></trkpt><trkpt lat="14.418901260949221" lon="121.05017241280294"><ele>9.285714285714286</ele><time>2026-05-05T08:43:15Z</time></trkpt><trkpt lat="14.418832850607629" lon="121.05016804980377"><ele>9.428571428571429</ele><time>2026-05-05T08:43:20Z</time></trkpt><trkpt lat="14.418753414134958" lon="121.05017487131687"><ele>9.571428571428573</ele><time>2026-05-05T08:43:25Z</time></trkpt><trkpt lat="14.41867805488589" lon="121.05017864036719"><ele>9.714285714285715</ele><time>2026-05-05T08:43:29Z</time></trkpt><trkpt lat="14.418610299134663" lon="121.0501793703441"><ele>9.857142857142858</ele><time>2026-05-05T08:43:31Z</time></trkpt><trkpt lat="14.41852530861433" lon="121.05017866018679"><ele>10.0</ele><time>2026-05-05T08:43:34Z</time></trkpt><trkpt lat="14.418440588673961" lon="121.05017855685858"><ele>10.0</ele><time>2026-05-05T08:43:38Z</time></trkpt><trkpt lat="14.418357383049544" lon="121.05018037177382"><ele>10.0</ele><time>2026-05-05T08:43:43Z</time></trkpt><trkpt lat="14.418274304666829" lon="121.05018729776374"><ele>10.0</ele><time>2026-05-05T08:43:46Z</time></trkpt><trkpt lat="14.418188822290688" lon="121.05018882508638"><ele>10.0</ele><time>2026-05-05T08:43:48Z</time></trkpt><trkpt lat="14.418125614296189" lon="121.05019046444453"><ele>10.0</ele><time>2026-05-05T08:43:50Z</time></trkpt><trkpt lat="14.418044371713897" lon="121.05018158779832"><ele>10.0</ele><time>2026-05-05T08:43:52Z</time></trkpt><trkpt lat="14.417977930744103" lon="121.0501699763387"><ele>10.0</ele><time>2026-05-05T08:43:55Z</time></trkpt><trkpt lat="14.417910917130394" lon="121.05016920504752"><ele>10.0</ele><time>2026-05-05T08:43:58Z</time></trkpt><trkpt lat="14.417820481718222" lon="121.05016965452249"><ele>10.0</ele><time>2026-05-05T08:44:01Z</time></trkpt><trkpt lat="14.417734699998293" lon="121.05016668520099"><ele>10.0</ele><time>2026-05-05T08:44:03Z</time></trkpt><trkpt lat="14.417662968145986" lon="121.05016257188748"><ele>10.0</ele><time>2026-05-05T08:44:05Z</time></trkpt><trkpt lat="14.41757498633933" lon="121.0501583666553"><ele>10.0</ele><time>2026-05-05T08:44:07Z</time></trkpt><trkpt lat="14.417505841580478" lon="121.0501554967343"><ele>10.0</ele><time>2026-05-05T08:44:09Z</time></trkpt><trkpt lat="14.417431929857417" lon="121.05015573167594"><ele>10.0</ele><time>2026-05-05T08:44:12Z</time></trkpt><trkpt lat="14.417366540506746" lon="121.05015801962584"><ele>10.0</ele><time>2026-05-05T08:44:14Z</time></trkpt><trkpt lat="14.417302686681596" lon="121.0501545082289"><ele>10.0</ele><time>2026-05-05T08:44:16Z</time></trkpt><trkpt lat="14.417233825363285" lon="121.0501561949391"><ele>10.0</ele><time>2026-05-05T08:44:18Z</time></trkpt><trkpt lat="14.417170058719533" lon="121.05015794420774"><ele>10.0</ele><time>2026-05-05T08:44:20Z</time></trkpt><trkpt lat="14.417078420127332" lon="121.0501632576768"><ele>10.0</ele><time>2026-05-05T08:44:24Z</time></trkpt><trkpt lat="14.4170155322638" lon="121.05015531425104"><ele>10.0</ele><time>2026-05-05T08:44:25Z</time></trkpt><trkpt lat="14.41694745278647" lon="121.05015695693523"><ele>10.0</ele><time>2026-05-05T08:44:26Z</time></trkpt><trkpt lat="14.416801351580496" lon="121.05015432510487"><ele>10.0</ele><time>2026-05-05T08:44:28Z</time></trkpt><trkpt lat="14.41667534304996" lon="121.05014911822343"><ele>10.0</ele><time>2026-05-05T08:44:30Z</time></trkpt><trkpt lat="14.416599729718728" lon="121.05015113204666"><ele>10.0</ele><time>2026-05-05T08:44:31Z</time></trkpt><trkpt lat="14.41650554941408" lon="121.05014678868697"><ele>10.0</ele><time>2026-05-05T08:44:33Z</time></trkpt><trkpt lat="14.416411713737284" lon="121.05014809185819"><ele>10.0</ele><time>2026-05-05T08:44:36Z</time></trkpt><trkpt lat="14.416337612137035" lon="121.05014613831054"><ele>10.0</ele><time>2026-05-05T08:44:38Z</time></trkpt><trkpt lat="14.41627175901464" lon="121.0501449425011"><ele>10.0</ele><time>2026-05-05T08:44:40Z</time></trkpt><trkpt lat="14.416199457917141" lon="121.05014360373565"><ele>10.0</ele><time>2026-05-05T08:44:42Z</time></trkpt><trkpt lat="14.416115787643013" lon="121.05014342570863"><ele>10.0</ele><time>2026-05-05T08:44:44Z</time></trkpt><trkpt lat="14.416051706655615" lon="121.05013329973974"><ele>10.0</ele><time>2026-05-05T08:44:47Z</time></trkpt><trkpt lat="14.41605028832617" lon="121.0500556068713"><ele>10.0</ele><time>2026-05-05T08:44:55Z</time></trkpt><trkpt lat="14.41605988667772" lon="121.04996955292852"><ele>10.0</ele><time>2026-05-05T08:44:58Z</time></trkpt><trkpt lat="14.416039949376657" lon="121.04990269775807"><ele>10.0</ele><time>2026-05-05T08:45:01Z</time></trkpt><trkpt lat="14.415986122563453" lon="121.04985365034884"><ele>10.0</ele><time>2026-05-05T08:45:04Z</time></trkpt><trkpt lat="14.416071062057101" lon="121.04988579149793"><ele>10.0</ele><time>2026-05-05T08:46:41Z</time></trkpt><trkpt lat="14.41605011187856" lon="121.04999004799039"><ele>10.0</ele><time>2026-05-05T08:46:43Z</time></trkpt><trkpt lat="14.416047891867786" lon="121.05005580073"><ele>10.0</ele><time>2026-05-05T08:46:45Z</time></trkpt><trkpt lat="14.4160386707463" lon="121.05012836355613"><ele>10.0</ele><time>2026-05-05T08:46:49Z</time></trkpt><trkpt lat="14.415941981740948" lon="121.05013523552938"><ele>10.0</ele><time>2026-05-05T08:46:51Z</time></trkpt><trkpt lat="14.41583454642756" lon="121.05012295033318"><ele>10.0</ele><time>2026-05-05T08:46:53Z</time></trkpt><trkpt lat="14.415763424487135" lon="121.05012944434853"><ele>10.0</ele><time>2026-05-05T08:46:55Z</time></trkpt><trkpt lat="14.415670873082963" lon="121.05012758750857"><ele>10.0</ele><time>2026-05-05T08:46:57Z</time></trkpt><trkpt lat="14.415593238029325" lon="121.05012535548674"><ele>10.0</ele><time>2026-05-05T08:46:59Z</time></trkpt><trkpt lat="14.41550084366328" lon="121.05012268852913"><ele>10.0</ele><time>2026-05-05T08:47:01Z</time></trkpt><trkpt lat="14.415384629496959" lon="121.05013158424492"><ele>10.0</ele><time>2026-05-05T08:47:03Z</time></trkpt><trkpt lat="14.415317539856948" lon="121.05013596755313"><ele>10.0</ele><time>2026-05-05T08:47:04Z</time></trkpt><trkpt lat="14.415216551972959" lon="121.05013563931625"><ele>10.0</ele><time>2026-05-05T08:47:06Z</time></trkpt><trkpt lat="14.415131668982005" lon="121.05013306452352"><ele>10.0</ele><time>2026-05-05T08:47:08Z</time></trkpt><trkpt lat="14.415065545960477" lon="121.0501414265915"><ele>10.0</ele><time>2026-05-05T08:47:10Z</time></trkpt><trkpt lat="14.414962702771065" lon="121.05014404310971"><ele>10.0</ele><time>2026-05-05T08:47:13Z</time></trkpt><trkpt lat="14.414852779359604" lon="121.0501406240146"><ele>10.0</ele><time>2026-05-05T08:47:15Z</time></trkpt><trkpt lat="14.414785465731322" lon="121.05014118832379"><ele>10.0</ele><time>2026-05-05T08:47:16Z</time></trkpt><trkpt lat="14.414669002546162" lon="121.05013777246928"><ele>10.0</ele><time>2026-05-05T08:47:18Z</time></trkpt><trkpt lat="14.414581444665203" lon="121.05013077919034"><ele>10.0</ele><time>2026-05-05T08:47:20Z</time></trkpt><trkpt lat="14.41450066681726" lon="121.05012418940815"><ele>10.0</ele><time>2026-05-05T08:47:22Z</time></trkpt><trkpt lat="14.414436105437861" lon="121.05009929893195"><ele>10.0</ele><time>2026-05-05T08:47:25Z</time></trkpt><trkpt lat="14.414434248625255" lon="121.05002349497865"><ele>10.0</ele><time>2026-05-05T08:47:28Z</time></trkpt><trkpt lat="14.41445306775423" lon="121.0499363687133"><ele>10.0</ele><time>2026-05-05T08:47:30Z</time></trkpt><trkpt lat="14.41445224839556" lon="121.04984913125601"><ele>10.0</ele><time>2026-05-05T08:47:32Z</time></trkpt><trkpt lat="14.414452650937868" lon="121.04975033217312"><ele>10.0</ele><time>2026-05-05T08:47:34Z</time></trkpt><trkpt lat="14.414452228586637" lon="121.04967856434806"><ele>10.0</ele><time>2026-05-05T08:47:36Z</time></trkpt><trkpt lat="14.414452094014964" lon="121.04959920427132"><ele>10.0</ele><time>2026-05-05T08:47:40Z</time></trkpt><trkpt lat="14.41451490278961" lon="121.04958276694542"><ele>10.0</ele><time>2026-05-05T08:47:45Z</time></trkpt><trkpt lat="14.414601260311226" lon="121.04958767884874"><ele>10.0</ele><time>2026-05-05T08:47:47Z</time></trkpt><trkpt lat="14.414689427556205" lon="121.04958800004489"><ele>10.0</ele><time>2026-05-05T08:47:50Z</time></trkpt><trkpt lat="14.414753465111614" lon="121.04959270169802"><ele>10.0</ele><time>2026-05-05T08:47:52Z</time></trkpt><trkpt lat="14.414826611373945" lon="121.0495924090126"><ele>10.0</ele><time>2026-05-05T08:47:55Z</time></trkpt><trkpt lat="14.414905871556808" lon="121.0495842940398"><ele>10.0</ele><time>2026-05-05T08:47:59Z</time></trkpt><trkpt lat="14.41498262954616" lon="121.04957720231333"><ele>10.0</ele><time>2026-05-05T08:48:04Z</time></trkpt><trkpt lat="14.41498851079006" lon="121.04951026377859"><ele>10.0</ele><time>2026-05-05T08:48:07Z</time></trkpt><trkpt lat="14.414969219265336" lon="121.04943968730426"><ele>10.0</ele><time>2026-05-05T08:48:12Z</time></trkpt><trkpt lat="14.414983531700447" lon="121.04937595090666"><ele>10.0</ele><time>2026-05-05T08:48:19Z</time></trkpt><trkpt lat="14.415022964456918" lon="121.04932103233415"><ele>10.0</ele><time>2026-05-05T08:51:53Z</time></trkpt><trkpt lat="14.415064432096004" lon="121.04926850846981"><ele>10.0</ele><time>2026-05-05T09:10:50Z</time></trkpt><trkpt lat="14.415180752232317" lon="121.04924312809942"><ele>10.0</ele><time>2026-05-05T09:10:52Z</time></trkpt><trkpt lat="14.415264919040082" lon="121.04921447596652"><ele>10.0</ele><time>2026-05-05T09:10:56Z</time></trkpt><trkpt lat="14.415320440006026" lon="121.04918097875755"><ele>10.0</ele><time>2026-05-05T09:11:00.039Z</time></trkpt><trkpt lat="14.415197441584056" lon="121.04909798307888"><ele>10.0</ele><time>2026-05-05T09:11:57.011Z</time></trkpt><trkpt lat="14.415130798764864" lon="121.04913710373201"><ele>10.0</ele><time>2026-05-05T09:12:00.015Z</time></trkpt><trkpt lat="14.414850299920086" lon="121.04941426439173"><ele>10.0</ele><time>2026-05-05T09:12:02.001Z</time></trkpt><trkpt lat="14.414935905165171" lon="121.04938740489807"><ele>10.0</ele><time>2026-05-05T09:12:04.001Z</time></trkpt><trkpt lat="14.414975757483278" lon="121.0493170375889"><ele>10.0</ele><time>2026-05-05T09:12:11.001Z</time></trkpt><trkpt lat="14.415010475626907" lon="121.04937676541056"><ele>10.0</ele><time>2026-05-05T09:15:06.999Z</time></trkpt><trkpt lat="14.415013188529297" lon="121.04930827145657"><ele>10.0</ele><time>2026-05-05T09:16:02Z</time></trkpt><trkpt lat="14.414970871481708" lon="121.04938932549378"><ele>10.0</ele><time>2026-05-05T11:47:38Z</time></trkpt><trkpt lat="14.414990090186192" lon="121.04945224959397"><ele>10.0</ele><time>2026-05-05T11:49:11Z</time></trkpt><trkpt lat="14.414987818112541" lon="121.04951814954376"><ele>10.0</ele><time>2026-05-05T11:49:17Z</time></trkpt><trkpt lat="14.41495042965171" lon="121.04958437006508"><ele>10.0</ele><time>2026-05-05T11:49:23Z</time></trkpt><trkpt lat="14.414874369148167" lon="121.04958473452955"><ele>10.0</ele><time>2026-05-05T11:49:27Z</time></trkpt><trkpt lat="14.414809555438831" lon="121.04958934746739"><ele>10.0</ele><time>2026-05-05T11:49:31Z</time></trkpt><trkpt lat="14.414743653945427" lon="121.04959530262396"><ele>10.0</ele><time>2026-05-05T11:49:35Z</time></trkpt><trkpt lat="14.414673305977912" lon="121.0495933814841"><ele>10.0</ele><time>2026-05-05T11:49:39Z</time></trkpt><trkpt lat="14.414603240747935" lon="121.0496010654164"><ele>10.0</ele><time>2026-05-05T11:49:43Z</time></trkpt><trkpt lat="14.414539564513458" lon="121.04960667768819"><ele>10.0</ele><time>2026-05-05T11:49:51Z</time></trkpt><trkpt lat="14.414474148623583" lon="121.04960762786908"><ele>10.0</ele><time>2026-05-05T11:49:56Z</time></trkpt><trkpt lat="14.41445363548065" lon="121.04968447930104"><ele>10.0</ele><time>2026-05-05T11:50:02Z</time></trkpt><trkpt lat="14.414453566021956" lon="121.04975794774414"><ele>10.0</ele><time>2026-05-05T11:50:05Z</time></trkpt><trkpt lat="14.41444723272892" lon="121.04983359713833"><ele>10.0</ele><time>2026-05-05T11:50:08Z</time></trkpt><trkpt lat="14.414433806326977" lon="121.04990452342503"><ele>10.0</ele><time>2026-05-05T11:50:11Z</time></trkpt><trkpt lat="14.414424933910372" lon="121.0499770048295"><ele>10.0</ele><time>2026-05-05T11:50:15Z</time></trkpt><trkpt lat="14.41442866370115" lon="121.05004841404376"><ele>10.0</ele><time>2026-05-05T11:50:20Z</time></trkpt><trkpt lat="14.41441580575283" lon="121.05012255333115"><ele>10.0</ele><time>2026-05-05T11:50:25Z</time></trkpt><trkpt lat="14.414501330699633" lon="121.05013900438344"><ele>10.0</ele><time>2026-05-05T11:50:45Z</time></trkpt><trkpt lat="14.41459048711231" lon="121.05013519032842"><ele>10.0</ele><time>2026-05-05T11:50:48Z</time></trkpt><trkpt lat="14.414689291294632" lon="121.05014494872052"><ele>10.0</ele><time>2026-05-05T11:50:51Z</time></trkpt><trkpt lat="14.41476667319413" lon="121.05014903260016"><ele>10.0</ele><time>2026-05-05T11:50:53Z</time></trkpt><trkpt lat="14.414836454007935" lon="121.0501540153535"><ele>10.0</ele><time>2026-05-05T11:50:57Z</time></trkpt><trkpt lat="14.414942779001592" lon="121.050134327438"><ele>10.0</ele><time>2026-05-05T11:51:03Z</time></trkpt><trkpt lat="14.415011621669843" lon="121.05014862294219"><ele>10.0</ele><time>2026-05-05T11:51:05Z</time></trkpt><trkpt lat="14.415078839936106" lon="121.05015453792146"><ele>10.0</ele><time>2026-05-05T11:51:08Z</time></trkpt><trkpt lat="14.415176513010795" lon="121.0501523157494"><ele>10.0</ele><time>2026-05-05T11:51:10Z</time></trkpt><trkpt lat="14.415274035683083" lon="121.05015035784086"><ele>10.0</ele><time>2026-05-05T11:51:12Z</time></trkpt><trkpt lat="14.415355703050189" lon="121.05014691244568"><ele>10.0</ele><time>2026-05-05T11:51:15Z</time></trkpt><trkpt lat="14.41542701278173" lon="121.05014402892057"><ele>10.0</ele><time>2026-05-05T11:51:17Z</time></trkpt><trkpt lat="14.415495214917806" lon="121.05014367647152"><ele>10.0</ele><time>2026-05-05T11:51:19Z</time></trkpt><trkpt lat="14.415558623893741" lon="121.05013993178228"><ele>10.0</ele><time>2026-05-05T11:51:21Z</time></trkpt><trkpt lat="14.415627172344925" lon="121.05014064178441"><ele>10.0</ele><time>2026-05-05T11:51:23Z</time></trkpt><trkpt lat="14.415707796210276" lon="121.05014177354263"><ele>10.0</ele><time>2026-05-05T11:51:25Z</time></trkpt><trkpt lat="14.415807584104854" lon="121.05014314919181"><ele>10.0</ele><time>2026-05-05T11:51:27Z</time></trkpt><trkpt lat="14.415903502881326" lon="121.05014799358716"><ele>10.0</ele><time>2026-05-05T11:51:29Z</time></trkpt><trkpt lat="14.41599405805096" lon="121.05014603883691"><ele>10.0</ele><time>2026-05-05T11:51:31Z</time></trkpt><trkpt lat="14.416087755202195" lon="121.05014789175583"><ele>10.0</ele><time>2026-05-05T11:51:33Z</time></trkpt><trkpt lat="14.416153966369063" lon="121.05015057279275"><ele>10.0</ele><time>2026-05-05T11:51:35Z</time></trkpt><trkpt lat="14.416230874360338" lon="121.05015257263439"><ele>10.0</ele><time>2026-05-05T11:51:38Z</time></trkpt><trkpt lat="14.416304574428452" lon="121.05015194410068"><ele>10.0</ele><time>2026-05-05T11:51:40Z</time></trkpt><trkpt lat="14.416374462930438" lon="121.05015042159582"><ele>10.0</ele><time>2026-05-05T11:51:42Z</time></trkpt><trkpt lat="14.4164557878323" lon="121.05014886897482"><ele>10.0</ele><time>2026-05-05T11:51:44Z</time></trkpt><trkpt lat="14.416544566249359" lon="121.05014932633324"><ele>10.0</ele><time>2026-05-05T11:51:46Z</time></trkpt><trkpt lat="14.41663974196095" lon="121.05015480060487"><ele>10.0</ele><time>2026-05-05T11:51:48Z</time></trkpt><trkpt lat="14.4168061385387" lon="121.05014772837875"><ele>10.0</ele><time>2026-05-05T11:51:50Z</time></trkpt><trkpt lat="14.41687058628919" lon="121.0501474339765"><ele>10.0</ele><time>2026-05-05T11:51:51Z</time></trkpt><trkpt lat="14.416979510705174" lon="121.05017575481932"><ele>10.0</ele><time>2026-05-05T11:51:53Z</time></trkpt><trkpt lat="14.417082183437778" lon="121.05017722400093"><ele>10.0</ele><time>2026-05-05T11:51:55Z</time></trkpt><trkpt lat="14.4171927871563" lon="121.0501793257337"><ele>10.0</ele><time>2026-05-05T11:51:57Z</time></trkpt><trkpt lat="14.417296385513177" lon="121.05018153819711"><ele>10.0</ele><time>2026-05-05T11:51:59Z</time></trkpt><trkpt lat="14.417374137196605" lon="121.05018323505672"><ele>10.0</ele><time>2026-05-05T11:52:01Z</time></trkpt><trkpt lat="14.417444193851946" lon="121.05018476398052"><ele>10.0</ele><time>2026-05-05T11:52:03Z</time></trkpt><trkpt lat="14.417519864061775" lon="121.05018641541484"><ele>10.0</ele><time>2026-05-05T11:52:06Z</time></trkpt><trkpt lat="14.417608216103249" lon="121.05018834361876"><ele>10.0</ele><time>2026-05-05T11:52:08Z</time></trkpt><trkpt lat="14.417689770097926" lon="121.0501901234618"><ele>10.0</ele><time>2026-05-05T11:52:10Z</time></trkpt><trkpt lat="14.417756759271215" lon="121.05019158543959"><ele>10.0</ele><time>2026-05-05T11:52:12Z</time></trkpt><trkpt lat="14.4178307023438" lon="121.05019319918073"><ele>10.0</ele><time>2026-05-05T11:52:14Z</time></trkpt><trkpt lat="14.417905959480455" lon="121.05019484160093"><ele>10.0</ele><time>2026-05-05T11:52:16Z</time></trkpt><trkpt lat="14.41799276920237" lon="121.05018560324038"><ele>10.0</ele><time>2026-05-05T11:52:19Z</time></trkpt><trkpt lat="14.418062619703608" lon="121.05019630835548"><ele>10.0</ele><time>2026-05-05T11:52:21Z</time></trkpt><trkpt lat="14.41813832746634" lon="121.05020125281794"><ele>10.0</ele><time>2026-05-05T11:52:23Z</time></trkpt><trkpt lat="14.41821663892387" lon="121.05019680552375"><ele>10.0</ele><time>2026-05-05T11:52:26Z</time></trkpt><trkpt lat="14.418304346985353" lon="121.05019588292191"><ele>10.0</ele><time>2026-05-05T11:52:29Z</time></trkpt><trkpt lat="14.418386350947493" lon="121.0501970244193"><ele>10.0</ele><time>2026-05-05T11:52:31Z</time></trkpt><trkpt lat="14.41845780818207" lon="121.0502003294581"><ele>10.0</ele><time>2026-05-05T11:52:33Z</time></trkpt><trkpt lat="14.41853429485136" lon="121.05020430764684"><ele>10.0</ele><time>2026-05-05T11:52:36Z</time></trkpt><trkpt lat="14.41860414825903" lon="121.05021362330496"><ele>10.0</ele><time>2026-05-05T11:52:44Z</time></trkpt><trkpt lat="14.41866908153567" lon="121.0502098528846"><ele>10.0</ele><time>2026-05-05T11:52:59Z</time></trkpt><trkpt lat="14.41873425144855" lon="121.05021120414288"><ele>10.0</ele><time>2026-05-05T11:53:07Z</time></trkpt><trkpt lat="14.418811564787143" lon="121.05021151966436"><ele>10.0</ele><time>2026-05-05T11:53:11Z</time></trkpt><trkpt lat="14.418878328788804" lon="121.05021093209557"><ele>10.0</ele><time>2026-05-05T11:53:14Z</time></trkpt><trkpt lat="14.41895549592143" lon="121.05020632602411"><ele>10.0</ele><time>2026-05-05T11:53:17Z</time></trkpt><trkpt lat="14.419018872581338" lon="121.05021802296031"><ele>10.0</ele><time>2026-05-05T11:53:23Z</time></trkpt><trkpt lat="14.419101430652749" lon="121.0500978128749"><ele>10.0</ele><time>2026-05-05T11:53:28Z</time></trkpt><trkpt lat="14.419116154974507" lon="121.05001580964905"><ele>10.0</ele><time>2026-05-05T11:53:30Z</time></trkpt><trkpt lat="14.419117589784907" lon="121.0499502713922"><ele>10.0</ele><time>2026-05-05T11:53:31Z</time></trkpt><trkpt lat="14.419120557968219" lon="121.04982110349596"><ele>10.0</ele><time>2026-05-05T11:53:33Z</time></trkpt><trkpt lat="14.419122063019465" lon="121.04975560754787"><ele>10.0</ele><time>2026-05-05T11:53:34Z</time></trkpt><trkpt lat="14.419124178385182" lon="121.04966355213159"><ele>10.0</ele><time>2026-05-05T11:53:35Z</time></trkpt><trkpt lat="14.419125975641856" lon="121.04958534007854"><ele>9.833333333333334</ele><time>2026-05-05T11:53:36Z</time></trkpt><trkpt lat="14.419128184488226" lon="121.04948921660628"><ele>9.666666666666668</ele><time>2026-05-05T11:53:37Z</time></trkpt><trkpt lat="14.419130338216549" lon="121.04939549186129"><ele>9.5</ele><time>2026-05-05T11:53:38Z</time></trkpt><trkpt lat="14.419132095491117" lon="121.04930279013664"><ele>9.333333333333334</ele><time>2026-05-05T11:53:39Z</time></trkpt><trkpt lat="14.419133554796964" lon="121.04921489508256"><ele>9.166666666666666</ele><time>2026-05-05T11:53:40Z</time></trkpt><trkpt lat="14.419134866702985" lon="121.04913587796727"><ele>9.0</ele><time>2026-05-05T11:53:41Z</time></trkpt><trkpt lat="14.419137047439667" lon="121.04900453060237"><ele>9.4</ele><time>2026-05-05T11:53:43Z</time></trkpt><trkpt lat="14.41913875400968" lon="121.04890174262921"><ele>9.8</ele><time>2026-05-05T11:53:45Z</time></trkpt><trkpt lat="14.419140717090515" lon="121.04878350482365"><ele>10.200000000000001</ele><time>2026-05-05T11:53:47Z</time></trkpt><trkpt lat="14.419142706580024" lon="121.04866777242596"><ele>10.600000000000001</ele><time>2026-05-05T11:53:49Z</time></trkpt><trkpt lat="14.419145222991245" lon="121.04854420760809"><ele>11.0</ele><time>2026-05-05T11:53:51Z</time></trkpt><trkpt lat="14.419146597339502" lon="121.0484772386109"><ele>11.0</ele><time>2026-05-05T11:53:52Z</time></trkpt><trkpt lat="14.419148119426982" lon="121.04840307064404"><ele>11.0</ele><time>2026-05-05T11:53:53Z</time></trkpt><trkpt lat="14.419149649095587" lon="121.04832853327609"><ele>11.0</ele><time>2026-05-05T11:53:54Z</time></trkpt><trkpt lat="14.419151115579457" lon="121.04825707471674"><ele>11.0</ele><time>2026-05-05T11:53:55Z</time></trkpt><trkpt lat="14.41915327843622" lon="121.04815168344022"><ele>11.0</ele><time>2026-05-05T11:53:57Z</time></trkpt><trkpt lat="14.419154880964813" lon="121.0480735957295"><ele>11.0</ele><time>2026-05-05T11:53:59Z</time></trkpt><trkpt lat="14.419156339479837" lon="121.04800252558753"><ele>11.0</ele><time>2026-05-05T11:54:02Z</time></trkpt><trkpt lat="14.41915772062161" lon="121.04793522551302"><ele>11.0</ele><time>2026-05-05T11:54:05Z</time></trkpt><trkpt lat="14.41915924298849" lon="121.04786104399052"><ele>11.0</ele><time>2026-05-05T11:54:10Z</time></trkpt><trkpt lat="14.41915971940806" lon="121.04779165297721"><ele>11.0</ele><time>2026-05-05T11:54:13Z</time></trkpt><trkpt lat="14.419161019405413" lon="121.0477086906472"><ele>11.0</ele><time>2026-05-05T11:54:17Z</time></trkpt><trkpt lat="14.419163359793108" lon="121.04763022453436"><ele>11.0</ele><time>2026-05-05T11:54:20Z</time></trkpt><trkpt lat="14.419162319402952" lon="121.04752188965928"><ele>11.333333333333332</ele><time>2026-05-05T11:54:23Z</time></trkpt><trkpt lat="14.419162319400334" lon="121.04745102504793"><ele>11.666666666666666</ele><time>2026-05-05T11:54:24Z</time></trkpt><trkpt lat="14.419162319404155" lon="121.04736411272332"><ele>12.0</ele><time>2026-05-05T11:54:27Z</time></trkpt><trkpt lat="14.419162319401508" lon="121.04727562410233"><ele>12.333333333333332</ele><time>2026-05-05T11:54:29Z</time></trkpt><trkpt lat="14.419162319403103" lon="121.0471773979706"><ele>12.666666666666666</ele><time>2026-05-05T11:54:31Z</time></trkpt><trkpt lat="14.419162319404471" lon="121.04709873560034"><ele>13.0</ele><time>2026-05-05T11:54:33Z</time></trkpt><trkpt lat="14.419163843810269" lon="121.04702468993844"><ele>12.999999999999998</ele><time>2026-05-05T11:54:35Z</time></trkpt><trkpt lat="14.419166124746386" lon="121.0469299872877"><ele>13.0</ele><time>2026-05-05T11:54:37Z</time></trkpt><trkpt lat="14.419167763868145" lon="121.04686193260696"><ele>13.0</ele><time>2026-05-05T11:54:39Z</time></trkpt><trkpt lat="14.419170510097329" lon="121.04677735436171"><ele>13.0</ele><time>2026-05-05T11:54:42Z</time></trkpt><trkpt lat="14.419173020323802" lon="121.0466979282702"><ele>12.999999999999998</ele><time>2026-05-05T11:54:44Z</time></trkpt><trkpt lat="14.419175544360376" lon="121.04661787168318"><ele>13.0</ele><time>2026-05-05T11:54:46Z</time></trkpt><trkpt lat="14.41917934373306" lon="121.04649418924521"><ele>13.166666666666666</ele><time>2026-05-05T11:54:48Z</time></trkpt><trkpt lat="14.419183063654911" lon="121.04637309321305"><ele>13.333333333333332</ele><time>2026-05-05T11:54:50Z</time></trkpt><trkpt lat="14.419185488728937" lon="121.0462941488571"><ele>13.5</ele><time>2026-05-05T11:54:52Z</time></trkpt><trkpt lat="14.419188404689388" lon="121.04619922702008"><ele>13.666666666666668</ele><time>2026-05-05T11:54:54Z</time></trkpt><trkpt lat="14.419190820894473" lon="121.04612057368836"><ele>13.833333333333334</ele><time>2026-05-05T11:54:57Z</time></trkpt><trkpt lat="14.419193254542762" lon="121.04604135251596"><ele>14.0</ele><time>2026-05-05T11:55:01Z</time></trkpt><trkpt lat="14.419195402358513" lon="121.0459714358395"><ele>14.000000000000002</ele><time>2026-05-05T11:55:03Z</time></trkpt><trkpt lat="14.419198020126624" lon="121.04588622113813"><ele>14.0</ele><time>2026-05-05T11:55:06Z</time></trkpt><trkpt lat="14.41921048743357" lon="121.0458194974148"><ele>14.0</ele><time>2026-05-05T11:55:08Z</time></trkpt><trkpt lat="14.419276551896655" lon="121.04573416669614"><ele>14.0</ele><time>2026-05-05T11:55:11Z</time></trkpt><trkpt lat="14.419339305281836" lon="121.04571775366627"><ele>14.000000000000002</ele><time>2026-05-05T11:55:14Z</time></trkpt><trkpt lat="14.419423672202273" lon="121.04569556012744"><ele>14.0</ele><time>2026-05-05T11:55:16Z</time></trkpt><trkpt lat="14.419512096951141" lon="121.04568614129364"><ele>14.500000000000002</ele><time>2026-05-05T11:55:18Z</time></trkpt><trkpt lat="14.419593929925625" lon="121.0456776774638"><ele>15.0</ele><time>2026-05-05T11:55:20Z</time></trkpt><trkpt lat="14.419666135634795" lon="121.04566765988247"><ele>15.5</ele><time>2026-05-05T11:55:22Z</time></trkpt><trkpt lat="14.419770397028918" lon="121.04566572325143"><ele>16.0</ele><time>2026-05-05T11:55:24Z</time></trkpt><trkpt lat="14.419861916873412" lon="121.04566311093393"><ele>16.5</ele><time>2026-05-05T11:55:26Z</time></trkpt><trkpt lat="14.419927674999418" lon="121.04565922310755"><ele>17.0</ele><time>2026-05-05T11:55:28Z</time></trkpt><trkpt lat="14.420011920835911" lon="121.045648991086"><ele>17.0</ele><time>2026-05-05T11:55:31Z</time></trkpt><trkpt lat="14.420076996511561" lon="121.04562869741908"><ele>17.0</ele><time>2026-05-05T11:55:34Z</time></trkpt><trkpt lat="14.42001668601131" lon="121.04560971144572"><ele>17.0</ele><time>2026-05-05T11:55:46Z</time></trkpt><trkpt lat="14.419950501982525" lon="121.04562164046081"><ele>17.0</ele><time>2026-05-05T11:55:48Z</time></trkpt><trkpt lat="14.419886788180634" lon="121.0456228321913"><ele>17.0</ele><time>2026-05-05T11:55:51Z</time></trkpt><trkpt lat="14.419758092889365" lon="121.04566418595626"><ele>17.0</ele><time>2026-05-05T11:55:54Z</time></trkpt><trkpt lat="14.41967760402583" lon="121.04566983676976"><ele>17.166666666666668</ele><time>2026-05-05T11:55:56Z</time></trkpt><trkpt lat="14.41960517066212" lon="121.0456700045453"><ele>17.333333333333336</ele><time>2026-05-05T11:55:59Z</time></trkpt><trkpt lat="14.41953931658468" lon="121.0456678994048"><ele>17.5</ele><time>2026-05-05T11:56:02Z</time></trkpt><trkpt lat="14.419479705620592" lon="121.04564399497994"><ele>17.666666666666668</ele><time>2026-05-05T11:56:05Z</time></trkpt><trkpt lat="14.419411599295344" lon="121.04563172032913"><ele>17.833333333333332</ele><time>2026-05-05T11:56:07Z</time></trkpt><trkpt lat="14.419346614677897" lon="121.04561122131611"><ele>18.0</ele><time>2026-05-05T11:56:09Z</time></trkpt><trkpt lat="14.419311877657009" lon="121.04538295346097"><ele>18.0</ele><time>2026-05-05T11:56:10Z</time></trkpt><trkpt lat="14.41929230218804" lon="121.04530771717157"><ele>18.0</ele><time>2026-05-05T11:56:11Z</time></trkpt><trkpt lat="14.419273230780709" lon="121.04523425571948"><ele>18.0</ele><time>2026-05-05T11:56:12Z</time></trkpt><trkpt lat="14.419249556633384" lon="121.04515461746587"><ele>18.0</ele><time>2026-05-05T11:56:13Z</time></trkpt><trkpt lat="14.419244708181262" lon="121.04508509133257"><ele>18.0</ele><time>2026-05-05T11:56:14Z</time></trkpt><trkpt lat="14.419236874326133" lon="121.04500953393331"><ele>18.0</ele><time>2026-05-05T11:56:15Z</time></trkpt><trkpt lat="14.419257928424885" lon="121.04491687692303"><ele>17.5</ele><time>2026-05-05T11:56:18Z</time></trkpt><trkpt lat="14.419241593191156" lon="121.0448419254209"><ele>17.0</ele><time>2026-05-05T11:56:20Z</time></trkpt><trkpt lat="14.419228005723587" lon="121.0447483551966"><ele>16.5</ele><time>2026-05-05T11:56:22Z</time></trkpt><trkpt lat="14.41922633650135" lon="121.0446407810753"><ele>16.0</ele><time>2026-05-05T11:56:24Z</time></trkpt><trkpt lat="14.419233198656995" lon="121.04454906098182"><ele>15.5</ele><time>2026-05-05T11:56:26Z</time></trkpt><trkpt lat="14.419227786216185" lon="121.04446120625313"><ele>15.0</ele><time>2026-05-05T11:56:28Z</time></trkpt><trkpt lat="14.419224078455096" lon="121.04439508907899"><ele>15.0</ele><time>2026-05-05T11:56:30Z</time></trkpt><trkpt lat="14.41921597059977" lon="121.0443073630189"><ele>15.0</ele><time>2026-05-05T11:56:32Z</time></trkpt><trkpt lat="14.419208821886958" lon="121.04419878147688"><ele>15.0</ele><time>2026-05-05T11:56:34Z</time></trkpt><trkpt lat="14.419211286655186" lon="121.04413350425772"><ele>15.0</ele><time>2026-05-05T11:56:35Z</time></trkpt><trkpt lat="14.419230262772277" lon="121.0440307952488"><ele>15.0</ele><time>2026-05-05T11:56:37Z</time></trkpt><trkpt lat="14.41928490840472" lon="121.04394407426776"><ele>15.0</ele><time>2026-05-05T11:56:39Z</time></trkpt><trkpt lat="14.419342008700015" lon="121.04388650401677"><ele>15.0</ele><time>2026-05-05T11:56:41Z</time></trkpt><trkpt lat="14.419386534602543" lon="121.0438385442697"><ele>15.0</ele><time>2026-05-05T11:56:43Z</time></trkpt><trkpt lat="14.419434385611396" lon="121.04378942888424"><ele>15.0</ele><time>2026-05-05T11:56:45Z</time></trkpt><trkpt lat="14.419489954166444" lon="121.04372058717765"><ele>15.0</ele><time>2026-05-05T11:56:47Z</time></trkpt><trkpt lat="14.419534945478613" lon="121.04366819146044"><ele>15.0</ele><time>2026-05-05T11:56:58Z</time></trkpt><trkpt lat="14.419581376060824" lon="121.04362044272682"><ele>15.0</ele><time>2026-05-05T11:57:00Z</time></trkpt><trkpt lat="14.419641350735871" lon="121.04354861769338"><ele>14.857142857142858</ele><time>2026-05-05T11:57:03Z</time></trkpt><trkpt lat="14.419696967785663" lon="121.04348317671557"><ele>14.714285714285714</ele><time>2026-05-05T11:57:06Z</time></trkpt><trkpt lat="14.419735208226104" lon="121.0434301143424"><ele>14.571428571428571</ele><time>2026-05-05T11:57:07Z</time></trkpt><trkpt lat="14.419786241872519" lon="121.04335782413085"><ele>14.428571428571429</ele><time>2026-05-05T11:57:08Z</time></trkpt><trkpt lat="14.419835374030566" lon="121.0433035036036"><ele>14.285714285714285</ele><time>2026-05-05T11:57:09Z</time></trkpt><trkpt lat="14.419883776134967" lon="121.04324633392419"><ele>14.142857142857142</ele><time>2026-05-05T11:57:10Z</time></trkpt><trkpt lat="14.419929971201006" lon="121.04319454206315"><ele>14.0</ele><time>2026-05-05T11:57:11Z</time></trkpt><trkpt lat="14.419986060086472" lon="121.04308869436119"><ele>14.500000000000002</ele><time>2026-05-05T11:57:12Z</time></trkpt><trkpt lat="14.420042459754885" lon="121.04301801160513"><ele>15.0</ele><time>2026-05-05T11:57:13Z</time></trkpt><trkpt lat="14.420098632226438" lon="121.04295549045744"><ele>15.5</ele><time>2026-05-05T11:57:14Z</time></trkpt><trkpt lat="14.420154105777515" lon="121.0428832731168"><ele>16.0</ele><time>2026-05-05T11:57:15Z</time></trkpt><trkpt lat="14.420210487818153" lon="121.04281246207313"><ele>16.5</ele><time>2026-05-05T11:57:16Z</time></trkpt><trkpt lat="14.420266776532822" lon="121.04274216073657"><ele>17.0</ele><time>2026-05-05T11:57:17Z</time></trkpt><trkpt lat="14.4203246861517" lon="121.04266577786005"><ele>17.0</ele><time>2026-05-05T11:57:18Z</time></trkpt><trkpt lat="14.420381204311363" lon="121.0425902911589"><ele>17.0</ele><time>2026-05-05T11:57:19Z</time></trkpt><trkpt lat="14.420433789261093" lon="121.04252152757296"><ele>17.0</ele><time>2026-05-05T11:57:20Z</time></trkpt><trkpt lat="14.42047686590985" lon="121.0424634925966"><ele>17.0</ele><time>2026-05-05T11:57:21Z</time></trkpt><trkpt lat="14.420521615047505" lon="121.04240175979123"><ele>17.0</ele><time>2026-05-05T11:57:22Z</time></trkpt><trkpt lat="14.420570626537183" lon="121.04233576775353"><ele>17.0</ele><time>2026-05-05T11:57:23Z</time></trkpt><trkpt lat="14.420620254599779" lon="121.04227118445871"><ele>17.4</ele><time>2026-05-05T11:57:24Z</time></trkpt><trkpt lat="14.420668007872164" lon="121.04219833404329"><ele>17.799999999999997</ele><time>2026-05-05T11:57:25Z</time></trkpt><trkpt lat="14.420714528387323" lon="121.04212102112717"><ele>18.2</ele><time>2026-05-05T11:57:26Z</time></trkpt><trkpt lat="14.420760490167874" lon="121.04204411570414"><ele>18.599999999999998</ele><time>2026-05-05T11:57:27Z</time></trkpt><trkpt lat="14.420803734631189" lon="121.04196148857767"><ele>19.0</ele><time>2026-05-05T11:57:28Z</time></trkpt><trkpt lat="14.420855558190059" lon="121.04187560505314"><ele>19.0</ele><time>2026-05-05T11:57:29Z</time></trkpt><trkpt lat="14.420905715508193" lon="121.04179066526497"><ele>19.0</ele><time>2026-05-05T11:57:30Z</time></trkpt><trkpt lat="14.42095955836882" lon="121.04171215202675"><ele>19.0</ele><time>2026-05-05T11:57:31Z</time></trkpt><trkpt lat="14.42101503341212" lon="121.04163378320378"><ele>19.0</ele><time>2026-05-05T11:57:32Z</time></trkpt><trkpt lat="14.421067511698624" lon="121.04155503516772"><ele>19.0</ele><time>2026-05-05T11:57:33Z</time></trkpt><trkpt lat="14.421108394163618" lon="121.04147607564393"><ele>19.2</ele><time>2026-05-05T11:57:34Z</time></trkpt><trkpt lat="14.421155544366195" lon="121.04139052114684"><ele>19.4</ele><time>2026-05-05T11:57:35Z</time></trkpt><trkpt lat="14.421206924640334" lon="121.04130017061844"><ele>19.6</ele><time>2026-05-05T11:57:36Z</time></trkpt><trkpt lat="14.421245981788404" lon="121.04122488768931"><ele>19.8</ele><time>2026-05-05T11:57:37Z</time></trkpt><trkpt lat="14.421291991406218" lon="121.04112288648217"><ele>20.0</ele><time>2026-05-05T11:57:38Z</time></trkpt><trkpt lat="14.421324803697615" lon="121.0410448931739"><ele>20.0</ele><time>2026-05-05T11:57:39Z</time></trkpt><trkpt lat="14.421366166205146" lon="121.04097433444"><ele>20.0</ele><time>2026-05-05T11:57:40Z</time></trkpt><trkpt lat="14.421401644406846" lon="121.04089021053535"><ele>20.0</ele><time>2026-05-05T11:57:41Z</time></trkpt><trkpt lat="14.421429916311695" lon="121.04080139795445"><ele>20.0</ele><time>2026-05-05T11:57:42Z</time></trkpt><trkpt lat="14.421453149681609" lon="121.04072851834576"><ele>20.0</ele><time>2026-05-05T11:57:43Z</time></trkpt><trkpt lat="14.42147574287914" lon="121.04065884600236"><ele>20.0</ele><time>2026-05-05T11:57:44Z</time></trkpt><trkpt lat="14.42150567205038" lon="121.04054692686434"><ele>20.0</ele><time>2026-05-05T11:57:46Z</time></trkpt><trkpt lat="14.421527466229184" lon="121.04044894757305"><ele>20.0</ele><time>2026-05-05T11:57:48Z</time></trkpt><trkpt lat="14.421558086876274" lon="121.04034676698674"><ele>20.0</ele><time>2026-05-05T11:57:50Z</time></trkpt><trkpt lat="14.42158682823626" lon="121.0402340267067"><ele>20.0</ele><time>2026-05-05T11:57:52Z</time></trkpt><trkpt lat="14.421604156325758" lon="121.04013652627226"><ele>20.0</ele><time>2026-05-05T11:57:54Z</time></trkpt><trkpt lat="14.421614155695545" lon="121.040063767401"><ele>20.0</ele><time>2026-05-05T11:57:57Z</time></trkpt><trkpt lat="14.42162283582642" lon="121.03999154422483"><ele>20.0</ele><time>2026-05-05T11:57:59Z</time></trkpt><trkpt lat="14.421629440760308" lon="121.03992589111319"><ele>20.0</ele><time>2026-05-05T11:58:01Z</time></trkpt><trkpt lat="14.421640324895012" lon="121.03982349593564"><ele>20.0</ele><time>2026-05-05T11:58:04Z</time></trkpt><trkpt lat="14.421643181587385" lon="121.03974699318607"><ele>20.0</ele><time>2026-05-05T11:58:06Z</time></trkpt><trkpt lat="14.42165014651936" lon="121.03968180485789"><ele>20.0</ele><time>2026-05-05T11:58:08Z</time></trkpt><trkpt lat="14.421680916847084" lon="121.03960109877782"><ele>20.166666666666668</ele><time>2026-05-05T11:58:11Z</time></trkpt><trkpt lat="14.421741971925806" lon="121.03956209214145"><ele>20.333333333333336</ele><time>2026-05-05T11:58:13Z</time></trkpt><trkpt lat="14.421819783181318" lon="121.03953460474779"><ele>20.5</ele><time>2026-05-05T11:58:15Z</time></trkpt><trkpt lat="14.421889296290647" lon="121.03952090528972"><ele>20.666666666666668</ele><time>2026-05-05T11:58:17Z</time></trkpt><trkpt lat="14.421951635226865" lon="121.03950690780756"><ele>20.833333333333332</ele><time>2026-05-05T11:58:19Z</time></trkpt><trkpt lat="14.422040530633998" lon="121.03948270868075"><ele>21.0</ele><time>2026-05-05T11:58:21Z</time></trkpt><trkpt lat="14.422133341243413" lon="121.03945941741281"><ele>20.0</ele><time>2026-05-05T11:58:23Z</time></trkpt><trkpt lat="14.422261344214249" lon="121.03944781371406"><ele>19.0</ele><time>2026-05-05T11:58:25Z</time></trkpt><trkpt lat="14.422325813020354" lon="121.03944562127515"><ele>18.0</ele><time>2026-05-05T11:58:26Z</time></trkpt><trkpt lat="14.422439651257678" lon="121.03942994403998"><ele>17.0</ele><time>2026-05-05T11:58:28Z</time></trkpt><trkpt lat="14.422514545603049" lon="121.0394270719408"><ele>16.0</ele><time>2026-05-05T11:58:30Z</time></trkpt><trkpt lat="14.422617188593176" lon="121.03927253087528"><ele>15.999999999999998</ele><time>2026-05-05T11:58:33Z</time></trkpt><trkpt lat="14.422625154753892" lon="121.03917306351568"><ele>16.0</ele><time>2026-05-05T11:58:35Z</time></trkpt><trkpt lat="14.422632852360634" lon="121.03904924394325"><ele>16.0</ele><time>2026-05-05T11:58:37Z</time></trkpt><trkpt lat="14.42264141760818" lon="121.03895414776032"><ele>16.0</ele><time>2026-05-05T11:58:39Z</time></trkpt><trkpt lat="14.422647966970915" lon="121.03888143303728"><ele>15.999999999999998</ele><time>2026-05-05T11:58:40Z</time></trkpt><trkpt lat="14.4226542745484" lon="121.0388114027597"><ele>16.0</ele><time>2026-05-05T11:58:41Z</time></trkpt><trkpt lat="14.422668202297219" lon="121.03866267327022"><ele>16.166666666666664</ele><time>2026-05-05T11:58:43Z</time></trkpt><trkpt lat="14.422675904732605" lon="121.0385821334433"><ele>16.333333333333332</ele><time>2026-05-05T11:58:44Z</time></trkpt><trkpt lat="14.422683202819059" lon="121.03850874816362"><ele>16.5</ele><time>2026-05-05T11:58:45Z</time></trkpt><trkpt lat="14.42269197261351" lon="121.03842261625988"><ele>16.666666666666668</ele><time>2026-05-05T11:58:46Z</time></trkpt><trkpt lat="14.42270090169558" lon="121.03833869848268"><ele>16.833333333333336</ele><time>2026-05-05T11:58:47Z</time></trkpt><trkpt lat="14.422710722318005" lon="121.03824902864869"><ele>17.0</ele><time>2026-05-05T11:58:48Z</time></trkpt><trkpt lat="14.42272157891906" lon="121.03814989951314"><ele>17.0</ele><time>2026-05-05T11:58:49Z</time></trkpt><trkpt lat="14.422736781342769" lon="121.03804910350082"><ele>17.0</ele><time>2026-05-05T11:58:50Z</time></trkpt><trkpt lat="14.42275105886753" lon="121.03794397411102"><ele>17.0</ele><time>2026-05-05T11:58:51Z</time></trkpt><trkpt lat="14.422765189475907" lon="121.03785064782096"><ele>17.0</ele><time>2026-05-05T11:58:52Z</time></trkpt><trkpt lat="14.422780538973173" lon="121.03775601224218"><ele>17.0</ele><time>2026-05-05T11:58:53Z</time></trkpt><trkpt lat="14.422795024330272" lon="121.03766670446016"><ele>17.0</ele><time>2026-05-05T11:58:54Z</time></trkpt><trkpt lat="14.422807618319439" lon="121.03758905765777"><ele>17.0</ele><time>2026-05-05T11:58:55Z</time></trkpt><trkpt lat="14.422819399227008" lon="121.03751426041475"><ele>17.0</ele><time>2026-05-05T11:58:56Z</time></trkpt><trkpt lat="14.422838946236343" lon="121.03739016153571"><ele>17.0</ele><time>2026-05-05T11:58:58Z</time></trkpt><trkpt lat="14.422857608005174" lon="121.03727168281216"><ele>17.0</ele><time>2026-05-05T11:59:00Z</time></trkpt><trkpt lat="14.422860204593547" lon="121.03716275709576"><ele>17.4</ele><time>2026-05-05T11:59:02Z</time></trkpt><trkpt lat="14.422879120472663" lon="121.03707759038171"><ele>17.799999999999997</ele><time>2026-05-05T11:59:04Z</time></trkpt><trkpt lat="14.42290169639154" lon="121.03700586899501"><ele>18.2</ele><time>2026-05-05T11:59:08Z</time></trkpt><trkpt lat="14.422924697232778" lon="121.03692392248223"><ele>18.599999999999998</ele><time>2026-05-05T11:59:48Z</time></trkpt><trkpt lat="14.422938647496881" lon="121.03677001136326"><ele>19.0</ele><time>2026-05-05T11:59:50Z</time></trkpt><trkpt lat="14.422946667464215" lon="121.03669463296207"><ele>19.666666666666664</ele><time>2026-05-05T11:59:51Z</time></trkpt><trkpt lat="14.42296674976378" lon="121.03662622435357"><ele>20.333333333333332</ele><time>2026-05-05T11:59:52Z</time></trkpt><trkpt lat="14.422990078754685" lon="121.03652695898366"><ele>21.0</ele><time>2026-05-05T11:59:53Z</time></trkpt><trkpt lat="14.423010520023556" lon="121.03644392661292"><ele>21.666666666666668</ele><time>2026-05-05T11:59:54Z</time></trkpt><trkpt lat="14.423043421527188" lon="121.03635718664879"><ele>22.333333333333336</ele><time>2026-05-05T11:59:55Z</time></trkpt><trkpt lat="14.42307318264586" lon="121.03627575305012"><ele>23.0</ele><time>2026-05-05T11:59:56Z</time></trkpt><trkpt lat="14.423087411658917" lon="121.03617160981113"><ele>23.4</ele><time>2026-05-05T11:59:57Z</time></trkpt><trkpt lat="14.423110063027202" lon="121.0360682167005"><ele>23.799999999999997</ele><time>2026-05-05T11:59:58Z</time></trkpt><trkpt lat="14.423137402836673" lon="121.03596186324339"><ele>24.2</ele><time>2026-05-05T11:59:59Z</time></trkpt><trkpt lat="14.42316793805511" lon="121.03585915714041"><ele>24.6</ele><time>2026-05-05T12:00:00Z</time></trkpt><trkpt lat="14.423207482455789" lon="121.03576221694038"><ele>25.0</ele><time>2026-05-05T12:00:01Z</time></trkpt><trkpt lat="14.423243998233252" lon="121.0356613091907"><ele>25.25</ele><time>2026-05-05T12:00:02Z</time></trkpt><trkpt lat="14.423279489666855" lon="121.03555404137039"><ele>25.5</ele><time>2026-05-05T12:00:03Z</time></trkpt><trkpt lat="14.42331795899626" lon="121.03544083989969"><ele>25.75</ele><time>2026-05-05T12:00:04Z</time></trkpt><trkpt lat="14.423354495621926" lon="121.03532734504458"><ele>26.0</ele><time>2026-05-05T12:00:05Z</time></trkpt><trkpt lat="14.42338827802291" lon="121.0352204496479"><ele>26.0</ele><time>2026-05-05T12:00:06Z</time></trkpt><trkpt lat="14.423418003361004" lon="121.0351149051872"><ele>26.0</ele><time>2026-05-05T12:00:07Z</time></trkpt><trkpt lat="14.423440040232997" lon="121.03501658449557"><ele>26.0</ele><time>2026-05-05T12:00:08Z</time></trkpt><trkpt lat="14.423457905526563" lon="121.03492705420463"><ele>26.0</ele><time>2026-05-05T12:00:09Z</time></trkpt><trkpt lat="14.423470033964751" lon="121.03484967257904"><ele>26.0</ele><time>2026-05-05T12:00:10Z</time></trkpt><trkpt lat="14.423475211090839" lon="121.03473505910667"><ele>25.4</ele><time>2026-05-05T12:00:12Z</time></trkpt><trkpt lat="14.423469040125092" lon="121.03466112168249"><ele>24.8</ele><time>2026-05-05T12:00:14Z</time></trkpt><trkpt lat="14.423532618006844" lon="121.03464709125132"><ele>24.2</ele><time>2026-05-05T12:00:28Z</time></trkpt><trkpt lat="14.423376321287462" lon="121.03459648001126"><ele>23.599999999999998</ele><time>2026-05-05T12:00:29Z</time></trkpt><trkpt lat="14.42327272054649" lon="121.03456527535809"><ele>23.0</ele><time>2026-05-05T12:00:31Z</time></trkpt><trkpt lat="14.423151982257156" lon="121.03452538042157"><ele>23.0</ele><time>2026-05-05T12:00:33Z</time></trkpt><trkpt lat="14.423043165514148" lon="121.0344956388663"><ele>23.0</ele><time>2026-05-05T12:00:35Z</time></trkpt><trkpt lat="14.42292719696337" lon="121.03446447994801"><ele>23.0</ele><time>2026-05-05T12:00:37Z</time></trkpt><trkpt lat="14.422843163090535" lon="121.03444849725874"><ele>23.0</ele><time>2026-05-05T12:00:39Z</time></trkpt><trkpt lat="14.422776104345727" lon="121.03443408000793"><ele>23.0</ele><time>2026-05-05T12:00:41Z</time></trkpt><trkpt lat="14.42267898829593" lon="121.03440448184807"><ele>23.2</ele><time>2026-05-05T12:01:17Z</time></trkpt><trkpt lat="14.422622926494958" lon="121.03434526901107"><ele>23.4</ele><time>2026-05-05T12:01:20Z</time></trkpt><trkpt lat="14.422557485018517" lon="121.03432132623199"><ele>23.599999999999998</ele><time>2026-05-05T12:01:24Z</time></trkpt><trkpt lat="14.42266243903153" lon="121.0342021190881"><ele>23.799999999999997</ele><time>2026-05-05T12:01:25Z</time></trkpt><trkpt lat="14.422686982969392" lon="121.03410758932415"><ele>24.0</ele><time>2026-05-05T12:01:27Z</time></trkpt><trkpt lat="14.422706511486357" lon="121.03403237622923"><ele>24.166666666666668</ele><time>2026-05-05T12:01:29Z</time></trkpt><trkpt lat="14.42273250730926" lon="121.03393225463566"><ele>24.333333333333336</ele><time>2026-05-05T12:01:32Z</time></trkpt><trkpt lat="14.422689046724559" lon="121.03386707827264"><ele>24.5</ele><time>2026-05-05T12:01:33Z</time></trkpt><trkpt lat="14.422670151682556" lon="121.03378754890663"><ele>24.666666666666668</ele><time>2026-05-05T12:01:35Z</time></trkpt><trkpt lat="14.422632831062444" lon="121.03369078918638"><ele>24.833333333333336</ele><time>2026-05-05T12:01:37Z</time></trkpt><trkpt lat="14.422573636220758" lon="121.03366703755779"><ele>25.0</ele><time>2026-05-05T12:01:38Z</time></trkpt><trkpt lat="14.422505631459888" lon="121.03368473955766"><ele>25.000000000000004</ele><time>2026-05-05T12:01:39Z</time></trkpt><trkpt lat="14.422444279344742" lon="121.03366981592022"><ele>25.0</ele><time>2026-05-05T12:01:40Z</time></trkpt><trkpt lat="14.422369614765305" lon="121.03365288001191"><ele>25.0</ele><time>2026-05-05T12:01:42Z</time></trkpt><trkpt lat="14.422306024237514" lon="121.03363666417741"><ele>25.0</ele><time>2026-05-05T12:01:44Z</time></trkpt><trkpt lat="14.422247816267125" lon="121.03359355194767"><ele>25.000000000000004</ele><time>2026-05-05T12:01:47Z</time></trkpt><trkpt lat="14.422309723198257" lon="121.03343803745311"><ele>25.0</ele><time>2026-05-05T12:01:52Z</time></trkpt><trkpt lat="14.422329347521071" lon="121.0333732470153"><ele>25.0</ele><time>2026-05-05T12:01:54Z</time></trkpt><trkpt lat="14.42235096769986" lon="121.03330186712226"><ele>25.0</ele><time>2026-05-05T12:01:57Z</time></trkpt><trkpt lat="14.422372198332933" lon="121.03323139469772"><ele>25.0</ele><time>2026-05-05T12:02:00Z</time></trkpt><trkpt lat="14.422479387255073" lon="121.03319984737199"><ele>25.0</ele><time>2026-05-05T13:55:24.035Z</time></trkpt><trkpt lat="14.42229866309002" lon="121.03335419963429"><ele>25.0</ele><time>2026-05-05T13:55:25.033Z</time></trkpt><trkpt lat="14.4224971943645" lon="121.03330468736874"><ele>25.0</ele><time>2026-05-05T13:57:47.018Z</time></trkpt><trkpt lat="14.422486667426103" lon="121.03321572185186"><ele>25.0</ele><time>2026-05-05T13:57:50Z</time></trkpt><trkpt lat="14.422447381873877" lon="121.0332786963174"><ele>25.0</ele><time>2026-05-05T13:57:59Z</time></trkpt><trkpt lat="14.422381718439118" lon="121.03325939850194"><ele>25.0</ele><time>2026-05-05T13:58:09Z</time></trkpt><trkpt lat="14.42233391851213" lon="121.03321396557247"><ele>25.000000000000004</ele><time>2026-05-05T13:59:14Z</time></trkpt><trkpt lat="14.42231499693879" lon="121.03330966604737"><ele>25.0</ele><time>2026-05-05T14:12:15Z</time></trkpt><trkpt lat="14.422299081472339" lon="121.03339582981607"><ele>25.0</ele><time>2026-05-05T14:12:17Z</time></trkpt><trkpt lat="14.422269934994434" lon="121.03346361194392"><ele>25.0</ele><time>2026-05-05T14:12:19Z</time></trkpt><trkpt lat="14.422246457889932" lon="121.03352659105434"><ele>25.000000000000004</ele><time>2026-05-05T14:12:21Z</time></trkpt><trkpt lat="14.422205450155113" lon="121.03357912337643"><ele>25.0</ele><time>2026-05-05T14:12:23Z</time></trkpt><trkpt lat="14.422136172828804" lon="121.03359674407102"><ele>25.500000000000004</ele><time>2026-05-05T14:12:25Z</time></trkpt><trkpt lat="14.422041715776437" lon="121.03355844924495"><ele>26.0</ele><time>2026-05-05T14:12:27Z</time></trkpt><trkpt lat="14.421979912122758" lon="121.03353939257505"><ele>26.5</ele><time>2026-05-05T14:12:29Z</time></trkpt><trkpt lat="14.42190177631814" lon="121.03352635159045"><ele>27.0</ele><time>2026-05-05T14:12:32Z</time></trkpt><trkpt lat="14.421838013466507" lon="121.03350730943377"><ele>27.500000000000004</ele><time>2026-05-05T14:12:34Z</time></trkpt><trkpt lat="14.421763181009027" lon="121.03349113521165"><ele>28.0</ele><time>2026-05-05T14:12:35Z</time></trkpt><trkpt lat="14.421673738800424" lon="121.03347073284218"><ele>28.0</ele><time>2026-05-05T14:12:37Z</time></trkpt><trkpt lat="14.42157864030074" lon="121.03351088796836"><ele>27.999999999999996</ele><time>2026-05-05T14:12:40Z</time></trkpt><trkpt lat="14.421523439309908" lon="121.0335863262038"><ele>27.999999999999996</ele><time>2026-05-05T14:12:42Z</time></trkpt><trkpt lat="14.421506181175461" lon="121.03370283516645"><ele>28.0</ele><time>2026-05-05T14:12:44Z</time></trkpt><trkpt lat="14.421482999608278" lon="121.03378576166263"><ele>28.0</ele><time>2026-05-05T14:12:46Z</time></trkpt><trkpt lat="14.421464133673402" lon="121.0338544305156"><ele>28.0</ele><time>2026-05-05T14:12:48Z</time></trkpt><trkpt lat="14.421429888483118" lon="121.03393146681515"><ele>28.0</ele><time>2026-05-05T14:12:52Z</time></trkpt><trkpt lat="14.421388724607576" lon="121.03398675762814"><ele>28.0</ele><time>2026-05-05T14:12:56Z</time></trkpt><trkpt lat="14.421334551486861" lon="121.03402577138829"><ele>28.0</ele><time>2026-05-05T14:14:40Z</time></trkpt><trkpt lat="14.421268094225285" lon="121.03402313970042"><ele>28.0</ele><time>2026-05-05T14:17:30Z</time></trkpt><trkpt lat="14.421216316103239" lon="121.03398562900793"><ele>28.0</ele><time>2026-05-05T14:17:34Z</time></trkpt><trkpt lat="14.42114419640915" lon="121.03395343558631"><ele>28.0</ele><time>2026-05-05T14:19:27Z</time></trkpt><trkpt lat="14.421072522645986" lon="121.03392169399918"><ele>28.333333333333336</ele><time>2026-05-05T14:19:29Z</time></trkpt><trkpt lat="14.420997619973866" lon="121.03389459267657"><ele>28.666666666666668</ele><time>2026-05-05T14:19:32Z</time></trkpt><trkpt lat="14.42092834040289" lon="121.0338598259851"><ele>29.0</ele><time>2026-05-05T14:19:35Z</time></trkpt><trkpt lat="14.420905593861454" lon="121.03376971805667"><ele>29.333333333333336</ele><time>2026-05-05T14:19:37Z</time></trkpt><trkpt lat="14.420912697312733" lon="121.0337022147395"><ele>29.666666666666668</ele><time>2026-05-05T14:19:38Z</time></trkpt><trkpt lat="14.42094909146124" lon="121.03357749183795"><ele>30.0</ele><time>2026-05-05T14:19:40Z</time></trkpt><trkpt lat="14.420964353707229" lon="121.03349699251014"><ele>30.0</ele><time>2026-05-05T14:19:41Z</time></trkpt><trkpt lat="14.421001646459345" lon="121.03341288060253"><ele>30.0</ele><time>2026-05-05T14:19:42Z</time></trkpt><trkpt lat="14.42102118526372" lon="121.03333623100143"><ele>30.0</ele><time>2026-05-05T14:19:43Z</time></trkpt><trkpt lat="14.421039114953357" lon="121.03326627476565"><ele>30.0</ele><time>2026-05-05T14:19:44Z</time></trkpt><trkpt lat="14.421065903635094" lon="121.0331617569285"><ele>30.0</ele><time>2026-05-05T14:19:45Z</time></trkpt><trkpt lat="14.42108187187982" lon="121.03304360098828"><ele>30.5</ele><time>2026-05-05T14:19:46Z</time></trkpt><trkpt lat="14.421121623911947" lon="121.03294649154506"><ele>31.0</ele><time>2026-05-05T14:19:47Z</time></trkpt><trkpt lat="14.421145348416346" lon="121.03285314168721"><ele>31.5</ele><time>2026-05-05T14:19:48Z</time></trkpt><trkpt lat="14.421165963897208" lon="121.03277100698216"><ele>32.0</ele><time>2026-05-05T14:19:49Z</time></trkpt><trkpt lat="14.421187773383139" lon="121.03268411499083"><ele>32.5</ele><time>2026-05-05T14:19:50Z</time></trkpt><trkpt lat="14.4212094865743" lon="121.032610699391"><ele>33.0</ele><time>2026-05-05T14:19:51Z</time></trkpt><trkpt lat="14.421238711991236" lon="121.03250177313686"><ele>31.833333333333332</ele><time>2026-05-05T14:19:53Z</time></trkpt><trkpt lat="14.421258709217557" lon="121.0324191401849"><ele>30.666666666666664</ele><time>2026-05-05T14:19:55Z</time></trkpt><trkpt lat="14.42126647228445" lon="121.03232522260724"><ele>29.5</ele><time>2026-05-05T14:19:57Z</time></trkpt><trkpt lat="14.421295324172641" lon="121.03223955569923"><ele>28.333333333333332</ele><time>2026-05-05T14:19:59Z</time></trkpt><trkpt lat="14.421315791549398" lon="121.03215771093181"><ele>27.166666666666664</ele><time>2026-05-05T14:20:02Z</time></trkpt><trkpt lat="14.421343681089887" lon="121.03208074300521"><ele>26.0</ele><time>2026-05-05T14:20:07Z</time></trkpt><trkpt lat="14.421360445847915" lon="121.03199985992255"><ele>26.0</ele><time>2026-05-05T14:20:14Z</time></trkpt><trkpt lat="14.421377490848805" lon="121.031915082861"><ele>26.0</ele><time>2026-05-05T14:20:16Z</time></trkpt><trkpt lat="14.421410380507872" lon="121.03180126741361"><ele>26.0</ele><time>2026-05-05T14:20:18Z</time></trkpt><trkpt lat="14.421427113485572" lon="121.03173630433099"><ele>26.0</ele><time>2026-05-05T14:20:19Z</time></trkpt><trkpt lat="14.421459016940078" lon="121.03162260195911"><ele>26.0</ele><time>2026-05-05T14:20:21Z</time></trkpt><trkpt lat="14.421478123290793" lon="121.03151853455184"><ele>26.0</ele><time>2026-05-05T14:20:22Z</time></trkpt><trkpt lat="14.421492748263512" lon="121.031443629149"><ele>26.0</ele><time>2026-05-05T14:20:23Z</time></trkpt><trkpt lat="14.421513185069498" lon="121.0313536180889"><ele>26.0</ele><time>2026-05-05T14:20:24Z</time></trkpt><trkpt lat="14.421540339463837" lon="121.03125503324212"><ele>26.0</ele><time>2026-05-05T14:20:25Z</time></trkpt><trkpt lat="14.421563300822273" lon="121.03113377785145"><ele>26.0</ele><time>2026-05-05T14:20:26Z</time></trkpt><trkpt lat="14.421590207298932" lon="121.03102222111043"><ele>26.0</ele><time>2026-05-05T14:20:27Z</time></trkpt><trkpt lat="14.421619395676803" lon="121.03092688322731"><ele>26.0</ele><time>2026-05-05T14:20:28Z</time></trkpt><trkpt lat="14.42164537537447" lon="121.03081008889917"><ele>26.0</ele><time>2026-05-05T14:20:29Z</time></trkpt><trkpt lat="14.421670893990209" lon="121.03070318021403"><ele>26.0</ele><time>2026-05-05T14:20:30Z</time></trkpt><trkpt lat="14.421697285106832" lon="121.03059832736889"><ele>26.0</ele><time>2026-05-05T14:20:31Z</time></trkpt><trkpt lat="14.421724757769212" lon="121.03049119852169"><ele>26.200000000000003</ele><time>2026-05-05T14:20:32Z</time></trkpt><trkpt lat="14.421748594711138" lon="121.03038808826048"><ele>26.400000000000002</ele><time>2026-05-05T14:20:33Z</time></trkpt><trkpt lat="14.42177579492382" lon="121.03027433154244"><ele>26.6</ele><time>2026-05-05T14:20:34Z</time></trkpt><trkpt lat="14.421806551861733" lon="121.03017311475828"><ele>26.8</ele><time>2026-05-05T14:20:35Z</time></trkpt><trkpt lat="14.421832112494377" lon="121.03005557008554"><ele>27.0</ele><time>2026-05-05T14:20:36Z</time></trkpt><trkpt lat="14.421858028481154" lon="121.0299329703251"><ele>27.0</ele><time>2026-05-05T14:20:37Z</time></trkpt><trkpt lat="14.421888215058997" lon="121.0298288894406"><ele>27.000000000000004</ele><time>2026-05-05T14:20:38Z</time></trkpt><trkpt lat="14.421919421600911" lon="121.02972495326377"><ele>27.000000000000004</ele><time>2026-05-05T14:20:39Z</time></trkpt><trkpt lat="14.421945919951167" lon="121.02962930641958"><ele>27.0</ele><time>2026-05-05T14:20:40Z</time></trkpt><trkpt lat="14.42197392657367" lon="121.0295228307564"><ele>27.0</ele><time>2026-05-05T14:20:41Z</time></trkpt><trkpt lat="14.422002706133204" lon="121.02941211733167"><ele>27.0</ele><time>2026-05-05T14:20:42Z</time></trkpt><trkpt lat="14.422028812939272" lon="121.02932056758803"><ele>27.000000000000004</ele><time>2026-05-05T14:20:43Z</time></trkpt><trkpt lat="14.42206231137808" lon="121.02924069341474"><ele>27.000000000000004</ele><time>2026-05-05T14:20:44Z</time></trkpt><trkpt lat="14.422080364934581" lon="121.02911206349059"><ele>27.0</ele><time>2026-05-05T14:20:45Z</time></trkpt><trkpt lat="14.422106786648346" lon="121.02899748087367"><ele>27.0</ele><time>2026-05-05T14:20:46Z</time></trkpt><trkpt lat="14.422131087704683" lon="121.02888812581652"><ele>28.25</ele><time>2026-05-05T14:20:47Z</time></trkpt><trkpt lat="14.422159605781665" lon="121.0287798894174"><ele>29.5</ele><time>2026-05-05T14:20:48Z</time></trkpt><trkpt lat="14.42218817034598" lon="121.02866837832843"><ele>30.75</ele><time>2026-05-05T14:20:49Z</time></trkpt><trkpt lat="14.422213362910265" lon="121.0285602573688"><ele>32.0</ele><time>2026-05-05T14:20:50Z</time></trkpt><trkpt lat="14.422252663718773" lon="121.02843546313102"><ele>32.0</ele><time>2026-05-05T14:20:51Z</time></trkpt><trkpt lat="14.422284439242665" lon="121.02832283070448"><ele>32.0</ele><time>2026-05-05T14:20:52Z</time></trkpt><trkpt lat="14.422306689098505" lon="121.02822052264723"><ele>32.0</ele><time>2026-05-05T14:20:53Z</time></trkpt><trkpt lat="14.42232694642319" lon="121.02811937116202"><ele>32.0</ele><time>2026-05-05T14:20:54Z</time></trkpt><trkpt lat="14.422341824601578" lon="121.02802941090481"><ele>32.0</ele><time>2026-05-05T14:20:55Z</time></trkpt><trkpt lat="14.422362731000728" lon="121.02794215209485"><ele>32.166666666666664</ele><time>2026-05-05T14:20:56Z</time></trkpt><trkpt lat="14.422393541978865" lon="121.02783934293548"><ele>32.33333333333333</ele><time>2026-05-05T14:20:57Z</time></trkpt><trkpt lat="14.422417034371062" lon="121.02775364661646"><ele>32.5</ele><time>2026-05-05T14:20:58Z</time></trkpt><trkpt lat="14.422439054131482" lon="121.02767731196295"><ele>32.666666666666664</ele><time>2026-05-05T14:20:59Z</time></trkpt><trkpt lat="14.422456249432063" lon="121.02761155608607"><ele>32.833333333333336</ele><time>2026-05-05T14:21:00Z</time></trkpt><trkpt lat="14.422480299432701" lon="121.02751718247023"><ele>33.0</ele><time>2026-05-05T14:21:02Z</time></trkpt><trkpt lat="14.422504205956596" lon="121.02743826237915"><ele>33.0</ele><time>2026-05-05T14:21:04Z</time></trkpt><trkpt lat="14.42251746647731" lon="121.02737390345442"><ele>33.0</ele><time>2026-05-05T14:21:06Z</time></trkpt><trkpt lat="14.422529863832494" lon="121.02730922811635"><ele>33.0</ele><time>2026-05-05T14:21:10Z</time></trkpt><trkpt lat="14.422530883812485" lon="121.02722940782274"><ele>33.0</ele><time>2026-05-05T14:21:26Z</time></trkpt><trkpt lat="14.422568133042914" lon="121.02715200909319"><ele>33.0</ele><time>2026-05-05T14:21:28Z</time></trkpt><trkpt lat="14.42259533300901" lon="121.02704586080137"><ele>33.0</ele><time>2026-05-05T14:21:30Z</time></trkpt><trkpt lat="14.422624963455515" lon="121.02693022718348"><ele>33.0</ele><time>2026-05-05T14:21:32Z</time></trkpt><trkpt lat="14.422644541086843" lon="121.02686820068513"><ele>33.0</ele><time>2026-05-05T14:21:33Z</time></trkpt><trkpt lat="14.422667230409248" lon="121.02679795657174"><ele>33.0</ele><time>2026-05-05T14:21:34Z</time></trkpt><trkpt lat="14.422690780631394" lon="121.02672203346435"><ele>33.0</ele><time>2026-05-05T14:21:35Z</time></trkpt><trkpt lat="14.422715473450786" lon="121.02664242676819"><ele>33.0</ele><time>2026-05-05T14:21:36Z</time></trkpt><trkpt lat="14.422740648520852" lon="121.02656126534816"><ele>33.0</ele><time>2026-05-05T14:21:37Z</time></trkpt><trkpt lat="14.422766783643805" lon="121.02647700884002"><ele>33.8</ele><time>2026-05-05T14:21:38Z</time></trkpt><trkpt lat="14.422793002198917" lon="121.0263924833421"><ele>34.599999999999994</ele><time>2026-05-05T14:21:39Z</time></trkpt><trkpt lat="14.4228215909354" lon="121.02630031666183"><ele>35.400000000000006</ele><time>2026-05-05T14:21:40Z</time></trkpt><trkpt lat="14.422849307564142" lon="121.02621096157615"><ele>36.2</ele><time>2026-05-05T14:21:41Z</time></trkpt><trkpt lat="14.422879015692704" lon="121.02611518611411"><ele>37.0</ele><time>2026-05-05T14:21:42Z</time></trkpt><trkpt lat="14.422906522349916" lon="121.02602039058179"><ele>37.0</ele><time>2026-05-05T14:21:43Z</time></trkpt><trkpt lat="14.422933132776894" lon="121.02592536797972"><ele>37.0</ele><time>2026-05-05T14:21:44Z</time></trkpt><trkpt lat="14.422959039709372" lon="121.02583285746883"><ele>37.0</ele><time>2026-05-05T14:21:45Z</time></trkpt><trkpt lat="14.422985702268788" lon="121.02573764870621"><ele>37.0</ele><time>2026-05-05T14:21:46Z</time></trkpt><trkpt lat="14.423013463485697" lon="121.02563851676186"><ele>37.0</ele><time>2026-05-05T14:21:47Z</time></trkpt><trkpt lat="14.423042564449984" lon="121.02553460075845"><ele>37.6</ele><time>2026-05-05T14:21:48Z</time></trkpt><trkpt lat="14.42307287589228" lon="121.02542635867506"><ele>38.2</ele><time>2026-05-05T14:21:49Z</time></trkpt><trkpt lat="14.423102132331483" lon="121.02532145790448"><ele>38.8</ele><time>2026-05-05T14:21:50Z</time></trkpt><trkpt lat="14.423132458403863" lon="121.02521241655047"><ele>39.4</ele><time>2026-05-05T14:21:51Z</time></trkpt><trkpt lat="14.423159640731239" lon="121.02511580699301"><ele>40.0</ele><time>2026-05-05T14:21:52Z</time></trkpt><trkpt lat="14.42318925991469" lon="121.02501053654566"><ele>42.4</ele><time>2026-05-05T14:21:53Z</time></trkpt><trkpt lat="14.423215808593278" lon="121.02490107514225"><ele>44.8</ele><time>2026-05-05T14:21:54Z</time></trkpt><trkpt lat="14.423238790953231" lon="121.02480519195112"><ele>47.2</ele><time>2026-05-05T14:21:55Z</time></trkpt><trkpt lat="14.423261709250841" lon="121.02470957602112"><ele>49.6</ele><time>2026-05-05T14:21:56Z</time></trkpt><trkpt lat="14.423284990069883" lon="121.02461244763477"><ele>52.0</ele><time>2026-05-05T14:21:57Z</time></trkpt><trkpt lat="14.42330680152742" lon="121.02452144946768"><ele>51.99999999999999</ele><time>2026-05-05T14:21:58Z</time></trkpt><trkpt lat="14.423324551353293" lon="121.02444792260583"><ele>52.0</ele><time>2026-05-05T14:21:59Z</time></trkpt><trkpt lat="14.423342532823716" lon="121.02437448205399"><ele>52.0</ele><time>2026-05-05T14:22:00Z</time></trkpt><trkpt lat="14.423368925080055" lon="121.02426668984884"><ele>52.0</ele><time>2026-05-05T14:22:02Z</time></trkpt><trkpt lat="14.423385676218896" lon="121.02419827426544"><ele>51.99999999999999</ele><time>2026-05-05T14:22:04Z</time></trkpt><trkpt lat="14.423403781637075" lon="121.02412555906018"><ele>52.0</ele><time>2026-05-05T14:22:13Z</time></trkpt><trkpt lat="14.423435192679216" lon="121.02401682854418"><ele>51.166666666666664</ele><time>2026-05-05T14:23:55Z</time></trkpt><trkpt lat="14.423454406398895" lon="121.02395031952908"><ele>50.33333333333333</ele><time>2026-05-05T14:23:56Z</time></trkpt><trkpt lat="14.423473139293725" lon="121.02388547466134"><ele>49.5</ele><time>2026-05-05T14:23:57Z</time></trkpt><trkpt lat="14.42348239772145" lon="121.0238196466811"><ele>48.666666666666664</ele><time>2026-05-05T14:23:58Z</time></trkpt><trkpt lat="14.423501579714323" lon="121.02372412128956"><ele>47.83333333333333</ele><time>2026-05-05T14:23:59Z</time></trkpt><trkpt lat="14.423504827519643" lon="121.0236028430901"><ele>47.0</ele><time>2026-05-05T14:24:00Z</time></trkpt><trkpt lat="14.42350159840823" lon="121.02352880262828"><ele>47.0</ele><time>2026-05-05T14:24:01Z</time></trkpt><trkpt lat="14.423421244139158" lon="121.02342043029338"><ele>47.0</ele><time>2026-05-05T14:24:02Z</time></trkpt><trkpt lat="14.423420170775" lon="121.02332367806842"><ele>47.0</ele><time>2026-05-05T14:24:03Z</time></trkpt><trkpt lat="14.42341693027776" lon="121.02322613036878"><ele>47.0</ele><time>2026-05-05T14:24:04Z</time></trkpt><trkpt lat="14.423409417621388" lon="121.02310888206203"><ele>47.0</ele><time>2026-05-05T14:24:05Z</time></trkpt><trkpt lat="14.423404364240238" lon="121.02298744005637"><ele>46.83333333333333</ele><time>2026-05-05T14:24:06Z</time></trkpt><trkpt lat="14.423462009764211" lon="121.0228726629864"><ele>46.666666666666664</ele><time>2026-05-05T14:24:07Z</time></trkpt><trkpt lat="14.423454892647593" lon="121.02277073685464"><ele>46.5</ele><time>2026-05-05T14:24:08Z</time></trkpt><trkpt lat="14.423448840609334" lon="121.02268406400455"><ele>46.333333333333336</ele><time>2026-05-05T14:24:09Z</time></trkpt><trkpt lat="14.42344423828833" lon="121.0226181529085"><ele>46.16666666666667</ele><time>2026-05-05T14:24:10Z</time></trkpt><trkpt lat="14.423439421163788" lon="121.02254916538446"><ele>46.0</ele><time>2026-05-05T14:24:12Z</time></trkpt><trkpt lat="14.423441219543067" lon="121.02247239294095"><ele>46.0</ele><time>2026-05-05T14:24:18Z</time></trkpt><trkpt lat="14.423241209935789" lon="121.02240525220094"><ele>46.0</ele><time>2026-05-05T14:24:20Z</time></trkpt><trkpt lat="14.423154821161004" lon="121.02239473395804"><ele>46.0</ele><time>2026-05-05T14:24:21Z</time></trkpt><trkpt lat="14.423053553263054" lon="121.02240320731671"><ele>46.0</ele><time>2026-05-05T14:24:22Z</time></trkpt><trkpt lat="14.42294205567087" lon="121.02242513628948"><ele>46.0</ele><time>2026-05-05T14:24:23Z</time></trkpt><trkpt lat="14.422820250202115" lon="121.02244476106448"><ele>46.0</ele><time>2026-05-05T14:24:24Z</time></trkpt><trkpt lat="14.422699847636252" lon="121.02245375922735"><ele>46.0</ele><time>2026-05-05T14:24:25Z</time></trkpt><trkpt lat="14.422591866291372" lon="121.02246180006142"><ele>46.0</ele><time>2026-05-05T14:24:26Z</time></trkpt><trkpt lat="14.422487913815432" lon="121.02244150149829"><ele>46.0</ele><time>2026-05-05T14:24:27Z</time></trkpt><trkpt lat="14.422393793948338" lon="121.02236945522384"><ele>46.0</ele><time>2026-05-05T14:24:28Z</time></trkpt><trkpt lat="14.42228741227609" lon="121.02229595626409"><ele>46.0</ele><time>2026-05-05T14:24:29Z</time></trkpt><trkpt lat="14.422174100436349" lon="121.02222271761111"><ele>46.0</ele><time>2026-05-05T14:24:30Z</time></trkpt><trkpt lat="14.422059767239034" lon="121.02213948121911"><ele>45.75</ele><time>2026-05-05T14:24:31Z</time></trkpt><trkpt lat="14.42194418156715" lon="121.02205905107462"><ele>45.5</ele><time>2026-05-05T14:24:32Z</time></trkpt><trkpt lat="14.421824515755995" lon="121.02197975185322"><ele>45.25</ele><time>2026-05-05T14:24:33Z</time></trkpt><trkpt lat="14.421701113209858" lon="121.02189737084188"><ele>45.0</ele><time>2026-05-05T14:24:34Z</time></trkpt><trkpt lat="14.421574530098173" lon="121.0218154899123"><ele>45.0</ele><time>2026-05-05T14:24:35Z</time></trkpt><trkpt lat="14.421446756224315" lon="121.02173230851406"><ele>45.0</ele><time>2026-05-05T14:24:36Z</time></trkpt><trkpt lat="14.421311293150968" lon="121.02165003122563"><ele>45.0</ele><time>2026-05-05T14:24:37Z</time></trkpt><trkpt lat="14.421168910036062" lon="121.02156680421736"><ele>44.666666666666664</ele><time>2026-05-05T14:24:38Z</time></trkpt><trkpt lat="14.421024495952562" lon="121.02148068251408"><ele>44.33333333333333</ele><time>2026-05-05T14:24:39Z</time></trkpt><trkpt lat="14.420873985106526" lon="121.02139119627326"><ele>44.0</ele><time>2026-05-05T14:24:40Z</time></trkpt><trkpt lat="14.420720805762786" lon="121.02129563567468"><ele>44.0</ele><time>2026-05-05T14:24:41Z</time></trkpt><trkpt lat="14.420562207414408" lon="121.02119926595515"><ele>44.0</ele><time>2026-05-05T14:24:42Z</time></trkpt><trkpt lat="14.420400131281161" lon="121.02109988756541"><ele>44.0</ele><time>2026-05-05T14:24:43Z</time></trkpt><trkpt lat="14.420239106547708" lon="121.02099634187917"><ele>44.0</ele><time>2026-05-05T14:24:44Z</time></trkpt><trkpt lat="14.420072172465805" lon="121.02088985759197"><ele>44.0</ele><time>2026-05-05T14:24:45Z</time></trkpt><trkpt lat="14.419902447877387" lon="121.02078776258772"><ele>44.0</ele><time>2026-05-05T14:24:46Z</time></trkpt><trkpt lat="14.419738094904012" lon="121.02067559529725"><ele>44.0</ele><time>2026-05-05T14:24:47Z</time></trkpt><trkpt lat="14.419562147890867" lon="121.02055953073122"><ele>44.0</ele><time>2026-05-05T14:24:48Z</time></trkpt><trkpt lat="14.419392832240284" lon="121.02044585050923"><ele>44.0</ele><time>2026-05-05T14:24:49Z</time></trkpt><trkpt lat="14.419220906487492" lon="121.02033695361503"><ele>44.0</ele><time>2026-05-05T14:24:50Z</time></trkpt><trkpt lat="14.419047854740578" lon="121.02022438333745"><ele>44.0</ele><time>2026-05-05T14:24:51Z</time></trkpt><trkpt lat="14.418873658808732" lon="121.02011483178148"><ele>44.0</ele><time>2026-05-05T14:24:52Z</time></trkpt><trkpt lat="14.418700086046334" lon="121.02000172672274"><ele>44.33333333333333</ele><time>2026-05-05T14:24:53Z</time></trkpt><trkpt lat="14.418524535467313" lon="121.01989515510753"><ele>44.666666666666664</ele><time>2026-05-05T14:24:54Z</time></trkpt><trkpt lat="14.41835249145691" lon="121.01978061932535"><ele>45.0</ele><time>2026-05-05T14:24:55Z</time></trkpt><trkpt lat="14.418182206083115" lon="121.01967210751677"><ele>45.0</ele><time>2026-05-05T14:24:56Z</time></trkpt><trkpt lat="14.418006342355069" lon="121.0195633837692"><ele>45.0</ele><time>2026-05-05T14:24:57Z</time></trkpt><trkpt lat="14.41783323342477" lon="121.01945120423862"><ele>45.0</ele><time>2026-05-05T14:24:58Z</time></trkpt><trkpt lat="14.417662766609089" lon="121.01933865802809"><ele>45.333333333333336</ele><time>2026-05-05T14:24:59Z</time></trkpt><trkpt lat="14.417484397695928" lon="121.0192275039564"><ele>45.66666666666667</ele><time>2026-05-05T14:25:00Z</time></trkpt><trkpt lat="14.417306354266687" lon="121.01911647876217"><ele>46.0</ele><time>2026-05-05T14:25:01Z</time></trkpt><trkpt lat="14.417132461340412" lon="121.01900253786553"><ele>46.0</ele><time>2026-05-05T14:25:02Z</time></trkpt><trkpt lat="14.416949742476168" lon="121.0188924115964"><ele>46.0</ele><time>2026-05-05T14:25:03Z</time></trkpt><trkpt lat="14.416775152743412" lon="121.01878529736142"><ele>46.0</ele><time>2026-05-05T14:25:04Z</time></trkpt><trkpt lat="14.416601821394831" lon="121.01867822054805"><ele>46.0</ele><time>2026-05-05T14:25:05Z</time></trkpt><trkpt lat="14.416430979426845" lon="121.01856872707054"><ele>46.0</ele><time>2026-05-05T14:25:06Z</time></trkpt><trkpt lat="14.416259113889742" lon="121.01845786600734"><ele>46.0</ele><time>2026-05-05T14:25:07Z</time></trkpt><trkpt lat="14.416091204054831" lon="121.0183473031072"><ele>45.333333333333336</ele><time>2026-05-05T14:25:08Z</time></trkpt><trkpt lat="14.415931815786706" lon="121.0182453560686"><ele>44.666666666666664</ele><time>2026-05-05T14:25:09Z</time></trkpt><trkpt lat="14.415780976639962" lon="121.01815386887162"><ele>44.0</ele><time>2026-05-05T14:25:10Z</time></trkpt><trkpt lat="14.41563516580594" lon="121.0180682831755"><ele>44.33333333333333</ele><time>2026-05-05T14:25:11Z</time></trkpt><trkpt lat="14.415480833104931" lon="121.01797796522926"><ele>44.666666666666664</ele><time>2026-05-05T14:25:12Z</time></trkpt><trkpt lat="14.415328333342037" lon="121.01788511537802"><ele>45.0</ele><time>2026-05-05T14:25:13Z</time></trkpt><trkpt lat="14.415171560745618" lon="121.01778432397236"><ele>45.0</ele><time>2026-05-05T14:25:14Z</time></trkpt><trkpt lat="14.415012923127748" lon="121.01768274766283"><ele>45.0</ele><time>2026-05-05T14:25:15Z</time></trkpt><trkpt lat="14.414851648015285" lon="121.01758283854079"><ele>45.0</ele><time>2026-05-05T14:25:16Z</time></trkpt><trkpt lat="14.414691454018469" lon="121.01748587090474"><ele>45.0</ele><time>2026-05-05T14:25:17Z</time></trkpt><trkpt lat="14.414530774143525" lon="121.01738690459932"><ele>45.0</ele><time>2026-05-05T14:25:18Z</time></trkpt><trkpt lat="14.414390417594886" lon="121.01729186880765"><ele>45.0</ele><time>2026-05-05T14:25:19Z</time></trkpt><trkpt lat="14.41427210597419" lon="121.01717272952229"><ele>45.0</ele><time>2026-05-05T14:25:20Z</time></trkpt><trkpt lat="14.414209250081349" lon="121.01701935503061"><ele>45.0</ele><time>2026-05-05T14:25:21Z</time></trkpt><trkpt lat="14.414146384679032" lon="121.01687021484297"><ele>45.0</ele><time>2026-05-05T14:25:22Z</time></trkpt><trkpt lat="14.414081620558802" lon="121.01671456712869"><ele>45.0</ele><time>2026-05-05T14:25:23Z</time></trkpt><trkpt lat="14.414003926395058" lon="121.0165684644866"><ele>45.0</ele><time>2026-05-05T14:25:24Z</time></trkpt><trkpt lat="14.413905127767382" lon="121.01644798394942"><ele>45.0</ele><time>2026-05-05T14:25:25Z</time></trkpt><trkpt lat="14.413794407679253" lon="121.01633788685216"><ele>45.0</ele><time>2026-05-05T14:25:26Z</time></trkpt><trkpt lat="14.413668960472075" lon="121.01623447270057"><ele>45.0</ele><time>2026-05-05T14:25:27Z</time></trkpt><trkpt lat="14.413524097718971" lon="121.01613576601768"><ele>45.0</ele><time>2026-05-05T14:25:28Z</time></trkpt><trkpt lat="14.41337581078545" lon="121.0160454720029"><ele>45.0</ele><time>2026-05-05T14:25:29Z</time></trkpt><trkpt lat="14.413222501444933" lon="121.01595219502872"><ele>45.0</ele><time>2026-05-05T14:25:30Z</time></trkpt><trkpt lat="14.413062904314026" lon="121.01584863656761"><ele>45.0</ele><time>2026-05-05T14:25:31Z</time></trkpt><trkpt lat="14.412917280742283" lon="121.0157564544036"><ele>45.666666666666664</ele><time>2026-05-05T14:25:32Z</time></trkpt><trkpt lat="14.412777503108869" lon="121.01566865772118"><ele>46.33333333333333</ele><time>2026-05-05T14:25:33Z</time></trkpt><trkpt lat="14.4126383233212" lon="121.01558120373059"><ele>47.0</ele><time>2026-05-05T14:25:34Z</time></trkpt><trkpt lat="14.412493612340384" lon="121.01548908904073"><ele>47.0</ele><time>2026-05-05T14:25:35Z</time></trkpt><trkpt lat="14.412346519536829" lon="121.0153950971051"><ele>47.0</ele><time>2026-05-05T14:25:36Z</time></trkpt><trkpt lat="14.412196717941212" lon="121.01529955486515"><ele>47.0</ele><time>2026-05-05T14:25:37Z</time></trkpt><trkpt lat="14.412041583399684" lon="121.01520259485531"><ele>48.0</ele><time>2026-05-05T14:25:38Z</time></trkpt><trkpt lat="14.41188615160388" lon="121.01510429118659"><ele>49.0</ele><time>2026-05-05T14:25:39Z</time></trkpt><trkpt lat="14.411727390979456" lon="121.01500670145363"><ele>50.0</ele><time>2026-05-05T14:25:40Z</time></trkpt><trkpt lat="14.411558616458649" lon="121.01489817212048"><ele>50.0</ele><time>2026-05-05T14:25:41Z</time></trkpt><trkpt lat="14.411402060834448" lon="121.01479915952005"><ele>50.0</ele><time>2026-05-05T14:25:42Z</time></trkpt><trkpt lat="14.411225671281606" lon="121.01469051282332"><ele>50.0</ele><time>2026-05-05T14:25:43Z</time></trkpt><trkpt lat="14.411061605550822" lon="121.01458434606177"><ele>49.333333333333336</ele><time>2026-05-05T14:25:44Z</time></trkpt><trkpt lat="14.41089290444752" lon="121.01447867490376"><ele>48.66666666666667</ele><time>2026-05-05T14:25:45Z</time></trkpt><trkpt lat="14.410728298334538" lon="121.01437018483308"><ele>48.0</ele><time>2026-05-05T14:25:46Z</time></trkpt><trkpt lat="14.410556030388335" lon="121.01426037788681"><ele>49.0</ele><time>2026-05-05T14:25:47Z</time></trkpt><trkpt lat="14.410386347106394" lon="121.01415128521765"><ele>50.0</ele><time>2026-05-05T14:25:48Z</time></trkpt><trkpt lat="14.410217675231635" lon="121.01404212972534"><ele>51.0</ele><time>2026-05-05T14:25:49Z</time></trkpt><trkpt lat="14.41004238728151" lon="121.01393417769536"><ele>51.0</ele><time>2026-05-05T14:25:50Z</time></trkpt><trkpt lat="14.409881039082354" lon="121.0138282868472"><ele>51.0</ele><time>2026-05-05T14:25:51Z</time></trkpt><trkpt lat="14.409710451701391" lon="121.01372319822399"><ele>51.0</ele><time>2026-05-05T14:25:52Z</time></trkpt><trkpt lat="14.409546469040482" lon="121.01361973101534"><ele>50.66666666666667</ele><time>2026-05-05T14:25:53Z</time></trkpt><trkpt lat="14.409374874452697" lon="121.01351119037523"><ele>50.333333333333336</ele><time>2026-05-05T14:25:54Z</time></trkpt><trkpt lat="14.409202155717123" lon="121.0134020817492"><ele>50.0</ele><time>2026-05-05T14:25:55Z</time></trkpt><trkpt lat="14.409025431433252" lon="121.01329218698775"><ele>50.0</ele><time>2026-05-05T14:25:56Z</time></trkpt><trkpt lat="14.408848847502101" lon="121.01317616259931"><ele>50.0</ele><time>2026-05-05T14:25:57Z</time></trkpt><trkpt lat="14.408669713854165" lon="121.01305921222807"><ele>50.0</ele><time>2026-05-05T14:25:58Z</time></trkpt><trkpt lat="14.408488629929879" lon="121.01294474097055"><ele>50.0</ele><time>2026-05-05T14:25:59Z</time></trkpt><trkpt lat="14.408314979777904" lon="121.01283850950604"><ele>50.0</ele><time>2026-05-05T14:26:00Z</time></trkpt><trkpt lat="14.408152586072898" lon="121.01273861628806"><ele>50.0</ele><time>2026-05-05T14:26:01Z</time></trkpt><trkpt lat="14.408004400940843" lon="121.01264306578292"><ele>49.66666666666667</ele><time>2026-05-05T14:26:02Z</time></trkpt><trkpt lat="14.407860707750261" lon="121.01255215342856"><ele>49.33333333333333</ele><time>2026-05-05T14:26:03Z</time></trkpt><trkpt lat="14.40771604480223" lon="121.01246133680252"><ele>49.0</ele><time>2026-05-05T14:26:04Z</time></trkpt><trkpt lat="14.407569164691997" lon="121.0123706912954"><ele>49.0</ele><time>2026-05-05T14:26:05Z</time></trkpt><trkpt lat="14.407421383405092" lon="121.0122780309514"><ele>49.0</ele><time>2026-05-05T14:26:06Z</time></trkpt><trkpt lat="14.407282930513688" lon="121.01218910026178"><ele>49.0</ele><time>2026-05-05T14:26:07Z</time></trkpt><trkpt lat="14.407133490966498" lon="121.01209015812252"><ele>49.666666666666664</ele><time>2026-05-05T14:26:08Z</time></trkpt><trkpt lat="14.406993040999499" lon="121.0119992423362"><ele>50.33333333333333</ele><time>2026-05-05T14:26:09Z</time></trkpt><trkpt lat="14.406860121042705" lon="121.0119190523485"><ele>51.0</ele><time>2026-05-05T14:26:10Z</time></trkpt><trkpt lat="14.406736834354822" lon="121.01185967379833"><ele>51.0</ele><time>2026-05-05T14:26:11Z</time></trkpt><trkpt lat="14.406613349613615" lon="121.01181884803503"><ele>51.0</ele><time>2026-05-05T14:26:12Z</time></trkpt><trkpt lat="14.406485594156626" lon="121.0117888434047"><ele>51.0</ele><time>2026-05-05T14:26:13Z</time></trkpt><trkpt lat="14.406347510670813" lon="121.01176201556586"><ele>51.0</ele><time>2026-05-05T14:26:14Z</time></trkpt><trkpt lat="14.406205455788353" lon="121.01174193952659"><ele>51.33333333333333</ele><time>2026-05-05T14:26:15Z</time></trkpt><trkpt lat="14.406053762962536" lon="121.01173513699419"><ele>51.666666666666664</ele><time>2026-05-05T14:26:16Z</time></trkpt><trkpt lat="14.405904078388234" lon="121.01174247467407"><ele>52.0</ele><time>2026-05-05T14:26:17Z</time></trkpt><trkpt lat="14.4057541319868" lon="121.01176537918897"><ele>52.0</ele><time>2026-05-05T14:26:18Z</time></trkpt><trkpt lat="14.405624629624029" lon="121.01180428221795"><ele>52.0</ele><time>2026-05-05T14:26:19Z</time></trkpt><trkpt lat="14.405510190452475" lon="121.01185702201893"><ele>52.0</ele><time>2026-05-05T14:26:20Z</time></trkpt><trkpt lat="14.405410716193543" lon="121.01193316725987"><ele>52.0</ele><time>2026-05-05T14:26:21Z</time></trkpt><trkpt lat="14.40532333800625" lon="121.0120236875373"><ele>52.25</ele><time>2026-05-05T14:26:22Z</time></trkpt><trkpt lat="14.405231606207382" lon="121.01211148789486"><ele>52.5</ele><time>2026-05-05T14:26:23Z</time></trkpt><trkpt lat="14.405129429689028" lon="121.01218252860873"><ele>52.75</ele><time>2026-05-05T14:26:24Z</time></trkpt><trkpt lat="14.405021928544894" lon="121.0122303331131"><ele>53.0</ele><time>2026-05-05T14:26:25Z</time></trkpt><trkpt lat="14.404904717059946" lon="121.01225504663886"><ele>53.0</ele><time>2026-05-05T14:26:26Z</time></trkpt><trkpt lat="14.404779173529588" lon="121.0122577655093"><ele>53.0</ele><time>2026-05-05T14:26:27Z</time></trkpt><trkpt lat="14.404645668337741" lon="121.01224552761603"><ele>53.0</ele><time>2026-05-05T14:26:28Z</time></trkpt><trkpt lat="14.404506350661924" lon="121.01222713840019"><ele>53.0</ele><time>2026-05-05T14:26:29Z</time></trkpt><trkpt lat="14.40436238786817" lon="121.01221138914472"><ele>52.75</ele><time>2026-05-05T14:26:30Z</time></trkpt><trkpt lat="14.404211793893383" lon="121.01219060564382"><ele>52.5</ele><time>2026-05-05T14:26:31Z</time></trkpt><trkpt lat="14.404068955405423" lon="121.01216501961473"><ele>52.25</ele><time>2026-05-05T14:26:32Z</time></trkpt><trkpt lat="14.403927596362893" lon="121.0121455901481"><ele>52.0</ele><time>2026-05-05T14:26:33Z</time></trkpt><trkpt lat="14.403801894198867" lon="121.0121279923644"><ele>51.83333333333333</ele><time>2026-05-05T14:26:34Z</time></trkpt><trkpt lat="14.403693766556755" lon="121.0121143007549"><ele>51.666666666666664</ele><time>2026-05-05T14:26:35Z</time></trkpt><trkpt lat="14.403602298433505" lon="121.01210487693727"><ele>51.5</ele><time>2026-05-05T14:26:36Z</time></trkpt><trkpt lat="14.403538230831828" lon="121.01210074449845"><ele>51.33333333333333</ele><time>2026-05-05T14:26:37Z</time></trkpt><trkpt lat="14.40344744204966" lon="121.01208663803737"><ele>51.166666666666664</ele><time>2026-05-05T14:26:39Z</time></trkpt><trkpt lat="14.403370341766863" lon="121.01207935207701"><ele>51.0</ele><time>2026-05-05T14:26:41Z</time></trkpt><trkpt lat="14.40329414438357" lon="121.01207360847386"><ele>51.0</ele><time>2026-05-05T14:26:44Z</time></trkpt><trkpt lat="14.403196379928929" lon="121.0120727800176"><ele>51.0</ele><time>2026-05-05T14:27:01Z</time></trkpt><trkpt lat="14.403114094790821" lon="121.01206345216305"><ele>51.0</ele><time>2026-05-05T14:27:02Z</time></trkpt><trkpt lat="14.403021278139672" lon="121.01204831400862"><ele>51.0</ele><time>2026-05-05T14:27:03Z</time></trkpt><trkpt lat="14.402840584733827" lon="121.01203194229123"><ele>51.25</ele><time>2026-05-05T14:27:05Z</time></trkpt><trkpt lat="14.402718620351715" lon="121.01200856199367"><ele>51.5</ele><time>2026-05-05T14:27:06Z</time></trkpt><trkpt lat="14.402587140550834" lon="121.01199099679664"><ele>51.75</ele><time>2026-05-05T14:27:07Z</time></trkpt><trkpt lat="14.40244761486156" lon="121.01197243318398"><ele>52.0</ele><time>2026-05-05T14:27:08Z</time></trkpt><trkpt lat="14.402304503686503" lon="121.01194857851159"><ele>52.33333333333333</ele><time>2026-05-05T14:27:09Z</time></trkpt><trkpt lat="14.402157529806644" lon="121.01193027842571"><ele>52.66666666666667</ele><time>2026-05-05T14:27:10Z</time></trkpt><trkpt lat="14.402006777774663" lon="121.01191449432099"><ele>53.0</ele><time>2026-05-05T14:27:11Z</time></trkpt><trkpt lat="14.401856976252846" lon="121.01189696518547"><ele>53.0</ele><time>2026-05-05T14:27:12Z</time></trkpt><trkpt lat="14.401698139613218" lon="121.0118812105338"><ele>53.0</ele><time>2026-05-05T14:27:13Z</time></trkpt><trkpt lat="14.40152914294067" lon="121.011864834018"><ele>53.0</ele><time>2026-05-05T14:27:14Z</time></trkpt><trkpt lat="14.401355232697808" lon="121.01185119716732"><ele>54.333333333333336</ele><time>2026-05-05T14:27:15Z</time></trkpt><trkpt lat="14.401175150517286" lon="121.01183582942897"><ele>55.66666666666667</ele><time>2026-05-05T14:27:16Z</time></trkpt><trkpt lat="14.400993112216153" lon="121.01182117566216"><ele>57.0</ele><time>2026-05-05T14:27:17Z</time></trkpt><trkpt lat="14.400803702490647" lon="121.01180506535421"><ele>57.0</ele><time>2026-05-05T14:27:18Z</time></trkpt><trkpt lat="14.400617999549388" lon="121.01178164664279"><ele>57.0</ele><time>2026-05-05T14:27:19Z</time></trkpt><trkpt lat="14.400433333866609" lon="121.01176121425259"><ele>57.0</ele><time>2026-05-05T14:27:20Z</time></trkpt><trkpt lat="14.40025148555615" lon="121.01174020919522"><ele>55.33333333333333</ele><time>2026-05-05T14:27:21Z</time></trkpt><trkpt lat="14.400067126935479" lon="121.01172766918971"><ele>53.666666666666664</ele><time>2026-05-05T14:27:22Z</time></trkpt><trkpt lat="14.399879618245945" lon="121.0117107136743"><ele>52.0</ele><time>2026-05-05T14:27:23Z</time></trkpt><trkpt lat="14.39968819527995" lon="121.01169415444642"><ele>52.33333333333333</ele><time>2026-05-05T14:27:24Z</time></trkpt><trkpt lat="14.39949213577387" lon="121.01167113877106"><ele>52.66666666666667</ele><time>2026-05-05T14:27:25Z</time></trkpt><trkpt lat="14.399292694205018" lon="121.0116454190178"><ele>53.0</ele><time>2026-05-05T14:27:26Z</time></trkpt><trkpt lat="14.399086146245775" lon="121.01162471029716"><ele>53.0</ele><time>2026-05-05T14:27:27Z</time></trkpt><trkpt lat="14.398901979519783" lon="121.01158109327045"><ele>53.0</ele><time>2026-05-05T14:27:28Z</time></trkpt><trkpt lat="14.398708804614376" lon="121.01154729389779"><ele>53.0</ele><time>2026-05-05T14:27:29Z</time></trkpt><trkpt lat="14.398520056431396" lon="121.01149324835532"><ele>53.66666666666667</ele><time>2026-05-05T14:27:30Z</time></trkpt><trkpt lat="14.398333530992264" lon="121.01143070805253"><ele>54.33333333333333</ele><time>2026-05-05T14:27:31Z</time></trkpt><trkpt lat="14.398148631615385" lon="121.01136502537167"><ele>55.0</ele><time>2026-05-05T14:27:32Z</time></trkpt><trkpt lat="14.397963078802068" lon="121.01130749454165"><ele>55.0</ele><time>2026-05-05T14:27:33Z</time></trkpt><trkpt lat="14.397776966981148" lon="121.01124607920795"><ele>55.0</ele><time>2026-05-05T14:27:34Z</time></trkpt><trkpt lat="14.397592985318557" lon="121.01118926750556"><ele>55.0</ele><time>2026-05-05T14:27:35Z</time></trkpt><trkpt lat="14.397413474016117" lon="121.01113005082838"><ele>55.0</ele><time>2026-05-05T14:27:36Z</time></trkpt><trkpt lat="14.39723839059651" lon="121.01107420607723"><ele>55.0</ele><time>2026-05-05T14:27:37Z</time></trkpt><trkpt lat="14.397068468019045" lon="121.011015542754"><ele>55.0</ele><time>2026-05-05T14:27:38Z</time></trkpt><trkpt lat="14.396898055354571" lon="121.0109656156111"><ele>55.0</ele><time>2026-05-05T14:27:39Z</time></trkpt><trkpt lat="14.39672756477594" lon="121.01091339498996"><ele>55.0</ele><time>2026-05-05T14:27:40Z</time></trkpt><trkpt lat="14.396550265974538" lon="121.0108671431917"><ele>55.0</ele><time>2026-05-05T14:27:41Z</time></trkpt><trkpt lat="14.396366710821532" lon="121.01081735605563"><ele>56.0</ele><time>2026-05-05T14:27:42Z</time></trkpt><trkpt lat="14.396182455646082" lon="121.01075883227594"><ele>57.0</ele><time>2026-05-05T14:27:43Z</time></trkpt><trkpt lat="14.395994473806471" lon="121.01070804009146"><ele>58.0</ele><time>2026-05-05T14:27:44Z</time></trkpt><trkpt lat="14.395803483366107" lon="121.01064336176556"><ele>58.0</ele><time>2026-05-05T14:27:45Z</time></trkpt><trkpt lat="14.395609729677629" lon="121.0105793881319"><ele>58.0</ele><time>2026-05-05T14:27:46Z</time></trkpt><trkpt lat="14.395415192320135" lon="121.0105194068483"><ele>58.0</ele><time>2026-05-05T14:27:47Z</time></trkpt><trkpt lat="14.395228863787867" lon="121.01044761595925"><ele>58.33333333333333</ele><time>2026-05-05T14:27:48Z</time></trkpt><trkpt lat="14.395045336488248" lon="121.0103880878919"><ele>58.66666666666667</ele><time>2026-05-05T14:27:49Z</time></trkpt><trkpt lat="14.394859500993864" lon="121.01032882237148"><ele>59.0</ele><time>2026-05-05T14:27:50Z</time></trkpt><trkpt lat="14.394688398623673" lon="121.01027425545624"><ele>59.0</ele><time>2026-05-05T14:27:51Z</time></trkpt><trkpt lat="14.394518340517749" lon="121.01023615000754"><ele>59.0</ele><time>2026-05-05T14:27:52Z</time></trkpt><trkpt lat="14.394354921728873" lon="121.01018465279353"><ele>59.0</ele><time>2026-05-05T14:27:53Z</time></trkpt><trkpt lat="14.394193944031095" lon="121.0101328898223"><ele>59.0</ele><time>2026-05-05T14:27:54Z</time></trkpt><trkpt lat="14.394035662497247" lon="121.01008016437193"><ele>59.0</ele><time>2026-05-05T14:27:55Z</time></trkpt><trkpt lat="14.393883913936639" lon="121.01002971007254"><ele>59.0</ele><time>2026-05-05T14:27:56Z</time></trkpt><trkpt lat="14.393729684014572" lon="121.00997935675971"><ele>58.25</ele><time>2026-05-05T14:27:57Z</time></trkpt><trkpt lat="14.393598935565473" lon="121.00993920667717"><ele>57.5</ele><time>2026-05-05T14:27:58Z</time></trkpt><trkpt lat="14.393459430657948" lon="121.0098933861777"><ele>56.75</ele><time>2026-05-05T14:27:59Z</time></trkpt><trkpt lat="14.393319617102758" lon="121.009847982482"><ele>56.0</ele><time>2026-05-05T14:28:00Z</time></trkpt><trkpt lat="14.393181829242213" lon="121.00980529213346"><ele>56.0</ele><time>2026-05-05T14:28:01Z</time></trkpt><trkpt lat="14.393051438550506" lon="121.00974541367046"><ele>56.0</ele><time>2026-05-05T14:28:02Z</time></trkpt><trkpt lat="14.39291647362089" lon="121.00970037848543"><ele>56.0</ele><time>2026-05-05T14:28:03Z</time></trkpt><trkpt lat="14.392779382773739" lon="121.00965463392247"><ele>56.0</ele><time>2026-05-05T14:28:04Z</time></trkpt><trkpt lat="14.39265263579195" lon="121.00961234019152"><ele>56.5</ele><time>2026-05-05T14:28:05Z</time></trkpt><trkpt lat="14.392526957311176" lon="121.00956967190255"><ele>57.0</ele><time>2026-05-05T14:28:06Z</time></trkpt><trkpt lat="14.392401796771127" lon="121.00952641485367"><ele>57.5</ele><time>2026-05-05T14:28:07Z</time></trkpt><trkpt lat="14.392280016066744" lon="121.00948432592344"><ele>58.0</ele><time>2026-05-05T14:28:08Z</time></trkpt><trkpt lat="14.392165169883388" lon="121.00944453413494"><ele>58.0</ele><time>2026-05-05T14:28:09Z</time></trkpt><trkpt lat="14.392060661207356" lon="121.00940841324251"><ele>58.0</ele><time>2026-05-05T14:28:10Z</time></trkpt><trkpt lat="14.391963137084945" lon="121.00937475116177"><ele>58.0</ele><time>2026-05-05T14:28:11Z</time></trkpt><trkpt lat="14.391868861426907" lon="121.00933837208233"><ele>58.0</ele><time>2026-05-05T14:28:12Z</time></trkpt><trkpt lat="14.391784911656522" lon="121.00930416376521"><ele>58.0</ele><time>2026-05-05T14:28:13Z</time></trkpt><trkpt lat="14.391693618706544" lon="121.0093006087242"><ele>58.0</ele><time>2026-05-05T14:28:14Z</time></trkpt><trkpt lat="14.3916097140751" lon="121.00928109183191"><ele>58.0</ele><time>2026-05-05T14:28:15Z</time></trkpt><trkpt lat="14.391513772564915" lon="121.00927346013904"><ele>58.0</ele><time>2026-05-05T14:28:16Z</time></trkpt><trkpt lat="14.3914157036863" lon="121.00927943119821"><ele>58.0</ele><time>2026-05-05T14:28:17Z</time></trkpt><trkpt lat="14.391309896752905" lon="121.00930125887571"><ele>58.0</ele><time>2026-05-05T14:28:18Z</time></trkpt><trkpt lat="14.391200995623858" lon="121.0093218042763"><ele>57.25</ele><time>2026-05-05T14:28:19Z</time></trkpt><trkpt lat="14.391090208723677" lon="121.00934155471876"><ele>56.5</ele><time>2026-05-05T14:28:20Z</time></trkpt><trkpt lat="14.39097701188892" lon="121.00935737762627"><ele>55.75</ele><time>2026-05-05T14:28:21Z</time></trkpt><trkpt lat="14.390857060361416" lon="121.00937580212742"><ele>55.0</ele><time>2026-05-05T14:28:22Z</time></trkpt><trkpt lat="14.39073336136589" lon="121.00939609696644"><ele>55.0</ele><time>2026-05-05T14:28:23Z</time></trkpt><trkpt lat="14.390609245733486" lon="121.0094149269231"><ele>55.0</ele><time>2026-05-05T14:28:24Z</time></trkpt><trkpt lat="14.390493551630078" lon="121.00943660789487"><ele>55.0</ele><time>2026-05-05T14:28:25Z</time></trkpt><trkpt lat="14.390376188736672" lon="121.00945667782459"><ele>55.0</ele><time>2026-05-05T14:28:26Z</time></trkpt><trkpt lat="14.390245950368957" lon="121.00947824796866"><ele>54.5</ele><time>2026-05-05T14:28:27Z</time></trkpt><trkpt lat="14.39010405401466" lon="121.00949864882736"><ele>54.0</ele><time>2026-05-05T14:28:28Z</time></trkpt><trkpt lat="14.389971441787274" lon="121.0095111063774"><ele>53.5</ele><time>2026-05-05T14:28:29Z</time></trkpt><trkpt lat="14.389823838165817" lon="121.00953193035187"><ele>53.0</ele><time>2026-05-05T14:28:30Z</time></trkpt><trkpt lat="14.389679781647283" lon="121.00955554025644"><ele>51.75</ele><time>2026-05-05T14:28:31Z</time></trkpt><trkpt lat="14.389545935462252" lon="121.00957758771354"><ele>50.5</ele><time>2026-05-05T14:28:32Z</time></trkpt><trkpt lat="14.389417645266171" lon="121.00960085070619"><ele>49.25</ele><time>2026-05-05T14:28:33Z</time></trkpt><trkpt lat="14.389294666487078" lon="121.00961563757484"><ele>48.0</ele><time>2026-05-05T14:28:34Z</time></trkpt><trkpt lat="14.389167669749762" lon="121.00963594487258"><ele>48.0</ele><time>2026-05-05T14:28:35Z</time></trkpt><trkpt lat="14.38904032764915" lon="121.00965783410632"><ele>48.0</ele><time>2026-05-05T14:28:36Z</time></trkpt><trkpt lat="14.38892391665906" lon="121.00967660386657"><ele>48.0</ele><time>2026-05-05T14:28:37Z</time></trkpt><trkpt lat="14.38879843020848" lon="121.00969627186588"><ele>48.0</ele><time>2026-05-05T14:28:38Z</time></trkpt><trkpt lat="14.388674765238228" lon="121.0097152742567"><ele>49.25</ele><time>2026-05-05T14:28:39Z</time></trkpt><trkpt lat="14.388560838160364" lon="121.00972741744495"><ele>50.5</ele><time>2026-05-05T14:28:40Z</time></trkpt><trkpt lat="14.388441646320002" lon="121.0097453941288"><ele>51.75</ele><time>2026-05-05T14:28:41Z</time></trkpt><trkpt lat="14.388324927905728" lon="121.00975284784788"><ele>53.0</ele><time>2026-05-05T14:28:42Z</time></trkpt><trkpt lat="14.388191954256477" lon="121.00976716991353"><ele>53.0</ele><time>2026-05-05T14:28:43Z</time></trkpt><trkpt lat="14.388054029163248" lon="121.00978566197088"><ele>53.0</ele><time>2026-05-05T14:28:44Z</time></trkpt><trkpt lat="14.38791338899184" lon="121.0098083668574"><ele>53.0</ele><time>2026-05-05T14:28:45Z</time></trkpt><trkpt lat="14.387766581321054" lon="121.00983180495241"><ele>53.0</ele><time>2026-05-05T14:28:46Z</time></trkpt><trkpt lat="14.387613028535489" lon="121.00985923341837"><ele>53.333333333333336</ele><time>2026-05-05T14:28:47Z</time></trkpt><trkpt lat="14.38745947058854" lon="121.0098847671107"><ele>53.66666666666667</ele><time>2026-05-05T14:28:48Z</time></trkpt><trkpt lat="14.38730535859416" lon="121.00990941573193"><ele>54.0</ele><time>2026-05-05T14:28:49Z</time></trkpt><trkpt lat="14.387148085250933" lon="121.00993688407831"><ele>55.33333333333333</ele><time>2026-05-05T14:28:50Z</time></trkpt><trkpt lat="14.386993276032378" lon="121.00996561756511"><ele>56.666666666666664</ele><time>2026-05-05T14:28:51Z</time></trkpt><trkpt lat="14.386839559913382" lon="121.0099861258701"><ele>58.0</ele><time>2026-05-05T14:28:52Z</time></trkpt><trkpt lat="14.386692752478307" lon="121.01001032697239"><ele>58.25</ele><time>2026-05-05T14:28:53Z</time></trkpt><trkpt lat="14.386542183721817" lon="121.01003418408904"><ele>58.5</ele><time>2026-05-05T14:28:54Z</time></trkpt><trkpt lat="14.386393761248332" lon="121.01005246920757"><ele>58.75</ele><time>2026-05-05T14:28:55Z</time></trkpt><trkpt lat="14.386255082984093" lon="121.01007357679892"><ele>59.0</ele><time>2026-05-05T14:28:56Z</time></trkpt><trkpt lat="14.386128506679897" lon="121.01009341269108"><ele>59.0</ele><time>2026-05-05T14:28:57Z</time></trkpt><trkpt lat="14.386006700026817" lon="121.01011284507848"><ele>59.00000000000001</ele><time>2026-05-05T14:28:58Z</time></trkpt><trkpt lat="14.38589411532386" lon="121.01013243590211"><ele>59.00000000000001</ele><time>2026-05-05T14:28:59Z</time></trkpt><trkpt lat="14.385788231523456" lon="121.01014944684715"><ele>59.0</ele><time>2026-05-05T14:29:00Z</time></trkpt><trkpt lat="14.385688468799668" lon="121.01016410549052"><ele>59.0</ele><time>2026-05-05T14:29:01Z</time></trkpt><trkpt lat="14.385598601312898" lon="121.010177508612"><ele>59.00000000000001</ele><time>2026-05-05T14:29:02Z</time></trkpt><trkpt lat="14.385515773503297" lon="121.01019412561297"><ele>59.0</ele><time>2026-05-05T14:29:03Z</time></trkpt><trkpt lat="14.385440485183228" lon="121.01020979103134"><ele>59.0</ele><time>2026-05-05T14:29:04Z</time></trkpt><trkpt lat="14.385371795156408" lon="121.01021998180872"><ele>59.0</ele><time>2026-05-05T14:29:05Z</time></trkpt><trkpt lat="14.385273481600764" lon="121.01023573797099"><ele>59.00000000000001</ele><time>2026-05-05T14:29:07Z</time></trkpt><trkpt lat="14.385205234181425" lon="121.0102394189986"><ele>59.0</ele><time>2026-05-05T14:29:11Z</time></trkpt><trkpt lat="14.385092466005645" lon="121.01025394704953"><ele>58.6</ele><time>2026-05-05T14:29:32Z</time></trkpt><trkpt lat="14.385003413611313" lon="121.01027163769466"><ele>58.2</ele><time>2026-05-05T14:29:33Z</time></trkpt><trkpt lat="14.384910374266596" lon="121.01029500605625"><ele>57.800000000000004</ele><time>2026-05-05T14:29:34Z</time></trkpt><trkpt lat="14.384813051273401" lon="121.01032884751757"><ele>57.400000000000006</ele><time>2026-05-05T14:29:35Z</time></trkpt><trkpt lat="14.384704228008932" lon="121.01038083789436"><ele>57.0</ele><time>2026-05-05T14:29:36Z</time></trkpt><trkpt lat="14.384595632650749" lon="121.01045065979154"><ele>58.25</ele><time>2026-05-05T14:29:37Z</time></trkpt><trkpt lat="14.384482932420115" lon="121.01052737822054"><ele>59.5</ele><time>2026-05-05T14:29:38Z</time></trkpt><trkpt lat="14.384356810739645" lon="121.01061538928917"><ele>60.75</ele><time>2026-05-05T14:29:39Z</time></trkpt><trkpt lat="14.384231383992395" lon="121.01069745732983"><ele>62.0</ele><time>2026-05-05T14:29:40Z</time></trkpt><trkpt lat="14.384097190439588" lon="121.0107886824457"><ele>61.66666666666667</ele><time>2026-05-05T14:29:41Z</time></trkpt><trkpt lat="14.383955255982045" lon="121.01088480777284"><ele>61.33333333333333</ele><time>2026-05-05T14:29:42Z</time></trkpt><trkpt lat="14.383809476327729" lon="121.01098051140913"><ele>61.0</ele><time>2026-05-05T14:29:43Z</time></trkpt><trkpt lat="14.383664076154034" lon="121.01108042756431"><ele>61.0</ele><time>2026-05-05T14:29:44Z</time></trkpt><trkpt lat="14.383508168035378" lon="121.01118966693623"><ele>61.0</ele><time>2026-05-05T14:29:45Z</time></trkpt><trkpt lat="14.38335130498768" lon="121.01130097344009"><ele>61.0</ele><time>2026-05-05T14:29:46Z</time></trkpt><trkpt lat="14.383189424824415" lon="121.0114166261466"><ele>61.0</ele><time>2026-05-05T14:29:47Z</time></trkpt><trkpt lat="14.383027076011938" lon="121.01152769603733"><ele>61.0</ele><time>2026-05-05T14:29:48Z</time></trkpt><trkpt lat="14.382861783600182" lon="121.01163901186904"><ele>61.0</ele><time>2026-05-05T14:29:49Z</time></trkpt><trkpt lat="14.382698609935419" lon="121.01175240181078"><ele>61.666666666666664</ele><time>2026-05-05T14:29:50Z</time></trkpt><trkpt lat="14.38252534068483" lon="121.01187607078629"><ele>62.33333333333333</ele><time>2026-05-05T14:29:51Z</time></trkpt><trkpt lat="14.382355072371244" lon="121.01198948006738"><ele>63.0</ele><time>2026-05-05T14:29:52Z</time></trkpt><trkpt lat="14.382184645651538" lon="121.01209883673842"><ele>63.0</ele><time>2026-05-05T14:29:53Z</time></trkpt><trkpt lat="14.382012356205115" lon="121.01222517157461"><ele>63.0</ele><time>2026-05-05T14:29:54Z</time></trkpt><trkpt lat="14.381843407968026" lon="121.01233939100224"><ele>63.0</ele><time>2026-05-05T14:29:55Z</time></trkpt><trkpt lat="14.381678408905012" lon="121.01244889999849"><ele>63.0</ele><time>2026-05-05T14:29:56Z</time></trkpt><trkpt lat="14.381520434305694" lon="121.0125545267894"><ele>63.0</ele><time>2026-05-05T14:29:57Z</time></trkpt><trkpt lat="14.381369250560283" lon="121.01266653030494"><ele>63.0</ele><time>2026-05-05T14:29:58Z</time></trkpt><trkpt lat="14.381222828420968" lon="121.01277095794703"><ele>63.0</ele><time>2026-05-05T14:29:59Z</time></trkpt><trkpt lat="14.381076098721556" lon="121.01287296639924"><ele>63.0</ele><time>2026-05-05T14:30:00Z</time></trkpt><trkpt lat="14.380927561484446" lon="121.01297591285392"><ele>63.0</ele><time>2026-05-05T14:30:01Z</time></trkpt><trkpt lat="14.380779487072543" lon="121.01307594661623"><ele>63.0</ele><time>2026-05-05T14:30:02Z</time></trkpt><trkpt lat="14.380630651394776" lon="121.01317178746399"><ele>63.0</ele><time>2026-05-05T14:30:03Z</time></trkpt><trkpt lat="14.380489058345159" lon="121.01325663150496"><ele>63.0</ele><time>2026-05-05T14:30:04Z</time></trkpt><trkpt lat="14.380344341900784" lon="121.01333132314957"><ele>63.66666666666667</ele><time>2026-05-05T14:30:05Z</time></trkpt><trkpt lat="14.380186570414033" lon="121.01339123568336"><ele>64.33333333333334</ele><time>2026-05-05T14:30:06Z</time></trkpt><trkpt lat="14.380019371955296" lon="121.01342380793969"><ele>65.0</ele><time>2026-05-05T14:30:07Z</time></trkpt><trkpt lat="14.379849165619536" lon="121.0134369086514"><ele>63.66666666666667</ele><time>2026-05-05T14:30:08Z</time></trkpt><trkpt lat="14.379679319957534" lon="121.01343130016768"><ele>62.33333333333333</ele><time>2026-05-05T14:30:09Z</time></trkpt><trkpt lat="14.379505774652735" lon="121.01341226199878"><ele>61.0</ele><time>2026-05-05T14:30:10Z</time></trkpt><trkpt lat="14.379335005254582" lon="121.01337944179765"><ele>61.0</ele><time>2026-05-05T14:30:11Z</time></trkpt><trkpt lat="14.3791557143546" lon="121.0133490906401"><ele>61.0</ele><time>2026-05-05T14:30:12Z</time></trkpt><trkpt lat="14.378978192329225" lon="121.01331828618972"><ele>61.0</ele><time>2026-05-05T14:30:13Z</time></trkpt><trkpt lat="14.378799079406601" lon="121.01328913652603"><ele>60.0</ele><time>2026-05-05T14:30:14Z</time></trkpt><trkpt lat="14.37862161168875" lon="121.01325909513221"><ele>59.0</ele><time>2026-05-05T14:30:15Z</time></trkpt><trkpt lat="14.378441743315443" lon="121.01322967155781"><ele>58.0</ele><time>2026-05-05T14:30:16Z</time></trkpt><trkpt lat="14.378266797949708" lon="121.01319758096012"><ele>58.0</ele><time>2026-05-05T14:30:17Z</time></trkpt><trkpt lat="14.378085763021236" lon="121.013167886672"><ele>58.0</ele><time>2026-05-05T14:30:18Z</time></trkpt><trkpt lat="14.377905164824133" lon="121.01313620855166"><ele>58.0</ele><time>2026-05-05T14:30:19Z</time></trkpt><trkpt lat="14.377729512264388" lon="121.01310358804206"><ele>59.666666666666664</ele><time>2026-05-05T14:30:20Z</time></trkpt><trkpt lat="14.377550626013798" lon="121.01306981848649"><ele>61.33333333333333</ele><time>2026-05-05T14:30:21Z</time></trkpt><trkpt lat="14.377381409929626" lon="121.01303961587257"><ele>63.0</ele><time>2026-05-05T14:30:22Z</time></trkpt><trkpt lat="14.377216176632276" lon="121.01301018063863"><ele>63.0</ele><time>2026-05-05T14:30:23Z</time></trkpt><trkpt lat="14.377066307723762" lon="121.01298293449497"><ele>63.0</ele><time>2026-05-05T14:30:24Z</time></trkpt><trkpt lat="14.37693229340672" lon="121.01295653468914"><ele>63.0</ele><time>2026-05-05T14:30:25Z</time></trkpt><trkpt lat="14.376821615685735" lon="121.01293444937937"><ele>63.0</ele><time>2026-05-05T14:30:26Z</time></trkpt><trkpt lat="14.376731721306584" lon="121.0129124650932"><ele>63.0</ele><time>2026-05-05T14:30:27Z</time></trkpt><trkpt lat="14.376664297680458" lon="121.01289650297053"><ele>63.0</ele><time>2026-05-05T14:30:28Z</time></trkpt><trkpt lat="14.37657398146007" lon="121.01287341472066"><ele>63.0</ele><time>2026-05-05T14:30:30Z</time></trkpt><trkpt lat="14.376454633651727" lon="121.01284811722753"><ele>63.0</ele><time>2026-05-05T14:30:32Z</time></trkpt><trkpt lat="14.376375901514708" lon="121.01283981720111"><ele>63.0</ele><time>2026-05-05T14:30:33Z</time></trkpt><trkpt lat="14.37626924356539" lon="121.01283041600652"><ele>63.75</ele><time>2026-05-05T14:30:34Z</time></trkpt><trkpt lat="14.3761649387031" lon="121.01281384364239"><ele>64.5</ele><time>2026-05-05T14:30:35Z</time></trkpt><trkpt lat="14.376048845877326" lon="121.01279519654881"><ele>65.25</ele><time>2026-05-05T14:30:36Z</time></trkpt><trkpt lat="14.375934895564416" lon="121.01277228627096"><ele>66.0</ele><time>2026-05-05T14:30:37Z</time></trkpt><trkpt lat="14.37580840915041" lon="121.01275347205096"><ele>66.0</ele><time>2026-05-05T14:30:38Z</time></trkpt><trkpt lat="14.375693452220789" lon="121.01272577843834"><ele>66.0</ele><time>2026-05-05T14:30:39Z</time></trkpt><trkpt lat="14.375572524818407" lon="121.01268735541915"><ele>66.0</ele><time>2026-05-05T14:30:40Z</time></trkpt><trkpt lat="14.375468407410935" lon="121.01262991796929"><ele>66.0</ele><time>2026-05-05T14:30:41Z</time></trkpt><trkpt lat="14.375361076115837" lon="121.01256624342423"><ele>65.5</ele><time>2026-05-05T14:30:42Z</time></trkpt><trkpt lat="14.375269348912383" lon="121.0124886977552"><ele>65.0</ele><time>2026-05-05T14:30:43Z</time></trkpt><trkpt lat="14.375173991289572" lon="121.01240764822514"><ele>64.5</ele><time>2026-05-05T14:30:44Z</time></trkpt><trkpt lat="14.37508478402003" lon="121.01232261838975"><ele>64.0</ele><time>2026-05-05T14:30:45Z</time></trkpt><trkpt lat="14.375001248629898" lon="121.01223321947123"><ele>64.0</ele><time>2026-05-05T14:30:46Z</time></trkpt><trkpt lat="14.374938296994483" lon="121.01213934925835"><ele>64.0</ele><time>2026-05-05T14:30:47Z</time></trkpt><trkpt lat="14.374877580738707" lon="121.0120382171813"><ele>64.0</ele><time>2026-05-05T14:30:48Z</time></trkpt><trkpt lat="14.374829553856147" lon="121.01193849681934"><ele>64.0</ele><time>2026-05-05T14:30:49Z</time></trkpt><trkpt lat="14.374796701592194" lon="121.01184436684049"><ele>64.0</ele><time>2026-05-05T14:30:50Z</time></trkpt><trkpt lat="14.37478027615232" lon="121.01176168213547"><ele>64.0</ele><time>2026-05-05T14:30:51Z</time></trkpt><trkpt lat="14.374764933143089" lon="121.01167541368761"><ele>64.0</ele><time>2026-05-05T14:30:52Z</time></trkpt><trkpt lat="14.374746722553127" lon="121.01157744008403"><ele>64.0</ele><time>2026-05-05T14:30:53Z</time></trkpt><trkpt lat="14.374732174421917" lon="121.01148057574206"><ele>64.0</ele><time>2026-05-05T14:30:54Z</time></trkpt><trkpt lat="14.374729455591387" lon="121.01139709239645"><ele>64.0</ele><time>2026-05-05T14:30:55Z</time></trkpt><trkpt lat="14.374729043925473" lon="121.01129435065857"><ele>63.0</ele><time>2026-05-05T14:30:56Z</time></trkpt><trkpt lat="14.3747286279" lon="121.0111905855586"><ele>62.0</ele><time>2026-05-05T14:30:57Z</time></trkpt><trkpt lat="14.37472420125787" lon="121.01106551946839"><ele>61.0</ele><time>2026-05-05T14:30:58Z</time></trkpt><trkpt lat="14.37471863807612" lon="121.01091749614227"><ele>60.0</ele><time>2026-05-05T14:30:59Z</time></trkpt><trkpt lat="14.374711521938124" lon="121.01075940760462"><ele>60.0</ele><time>2026-05-05T14:31:00Z</time></trkpt><trkpt lat="14.374706519513698" lon="121.01060944864474"><ele>60.0</ele><time>2026-05-05T14:31:01Z</time></trkpt><trkpt lat="14.374702878490798" lon="121.01046292792421"><ele>60.0</ele><time>2026-05-05T14:31:02Z</time></trkpt><trkpt lat="14.37470074346884" lon="121.01031185687872"><ele>60.0</ele><time>2026-05-05T14:31:03Z</time></trkpt><trkpt lat="14.374696404607699" lon="121.01015632960089"><ele>60.0</ele><time>2026-05-05T14:31:04Z</time></trkpt><trkpt lat="14.374712659355106" lon="121.00999873678131"><ele>60.0</ele><time>2026-05-05T14:31:05Z</time></trkpt><trkpt lat="14.37471265935522" lon="121.00983995743208"><ele>60.0</ele><time>2026-05-05T14:31:06Z</time></trkpt><trkpt lat="14.3747126593539" lon="121.00968217439632"><ele>61.33333333333333</ele><time>2026-05-05T14:31:07Z</time></trkpt><trkpt lat="14.374680637410078" lon="121.00952114912803"><ele>62.666666666666664</ele><time>2026-05-05T14:31:08Z</time></trkpt><trkpt lat="14.374679787797291" lon="121.00936380841917"><ele>64.0</ele><time>2026-05-05T14:31:09Z</time></trkpt><trkpt lat="14.374681263068638" lon="121.00921360893373"><ele>64.66666666666666</ele><time>2026-05-05T14:31:10Z</time></trkpt><trkpt lat="14.374682223398546" lon="121.00904174753408"><ele>65.33333333333333</ele><time>2026-05-05T14:31:11Z</time></trkpt><trkpt lat="14.374686356520703" lon="121.00887674976568"><ele>66.0</ele><time>2026-05-05T14:31:12Z</time></trkpt><trkpt lat="14.37468931374105" lon="121.00871968964634"><ele>66.0</ele><time>2026-05-05T14:31:13Z</time></trkpt><trkpt lat="14.374690393238525" lon="121.00857354736111"><ele>66.0</ele><time>2026-05-05T14:31:14Z</time></trkpt><trkpt lat="14.374690568902293" lon="121.0084411134661"><ele>66.0</ele><time>2026-05-05T14:31:15Z</time></trkpt><trkpt lat="14.37469216970735" lon="121.00832375958784"><ele>66.0</ele><time>2026-05-05T14:31:16Z</time></trkpt><trkpt lat="14.374692272471304" lon="121.00821942879901"><ele>66.16666666666667</ele><time>2026-05-05T14:31:17Z</time></trkpt><trkpt lat="14.374694561913254" lon="121.00813601894535"><ele>66.33333333333333</ele><time>2026-05-05T14:31:18Z</time></trkpt><trkpt lat="14.374699084778966" lon="121.0080611990357"><ele>66.5</ele><time>2026-05-05T14:31:19Z</time></trkpt><trkpt lat="14.374707405771174" lon="121.0079918915068"><ele>66.66666666666666</ele><time>2026-05-05T14:31:20Z</time></trkpt><trkpt lat="14.374730373194541" lon="121.00785891448194"><ele>66.83333333333333</ele><time>2026-05-05T14:31:22Z</time></trkpt><trkpt lat="14.374737091086413" lon="121.00777210956736"><ele>67.0</ele><time>2026-05-05T14:31:23Z</time></trkpt><trkpt lat="14.374736819012577" lon="121.00767552825361"><ele>67.0</ele><time>2026-05-05T14:31:24Z</time></trkpt><trkpt lat="14.374734826086225" lon="121.00756652447056"><ele>67.0</ele><time>2026-05-05T14:31:25Z</time></trkpt><trkpt lat="14.374729307496077" lon="121.00744348655466"><ele>67.0</ele><time>2026-05-05T14:31:26Z</time></trkpt><trkpt lat="14.374725209817642" lon="121.00730921299167"><ele>67.0</ele><time>2026-05-05T14:31:27Z</time></trkpt><trkpt lat="14.37472381689269" lon="121.00715971297849"><ele>65.66666666666666</ele><time>2026-05-05T14:31:28Z</time></trkpt><trkpt lat="14.374723088728645" lon="121.00700490447468"><ele>64.33333333333333</ele><time>2026-05-05T14:31:29Z</time></trkpt><trkpt lat="14.374727551389489" lon="121.00684672811775"><ele>63.0</ele><time>2026-05-05T14:31:30Z</time></trkpt><trkpt lat="14.374729411087612" lon="121.00667786884267"><ele>62.0</ele><time>2026-05-05T14:31:31Z</time></trkpt><trkpt lat="14.37473160470693" lon="121.00650396689937"><ele>61.0</ele><time>2026-05-05T14:31:32Z</time></trkpt><trkpt lat="14.374732375097096" lon="121.00632669139489"><ele>60.0</ele><time>2026-05-05T14:31:33Z</time></trkpt><trkpt lat="14.374730654922017" lon="121.00614628427279"><ele>60.0</ele><time>2026-05-05T14:31:34Z</time></trkpt><trkpt lat="14.37473117353787" lon="121.00597116799378"><ele>60.0</ele><time>2026-05-05T14:31:35Z</time></trkpt><trkpt lat="14.3747310823746" lon="121.0057915596807"><ele>60.0</ele><time>2026-05-05T14:31:36Z</time></trkpt><trkpt lat="14.374731535753506" lon="121.00563172594715"><ele>60.0</ele><time>2026-05-05T14:31:37Z</time></trkpt><trkpt lat="14.374730973194715" lon="121.00548752390999"><ele>60.0</ele><time>2026-05-05T14:31:38Z</time></trkpt><trkpt lat="14.374729125386084" lon="121.0053494885402"><ele>60.0</ele><time>2026-05-05T14:31:39Z</time></trkpt><trkpt lat="14.374729102527855" lon="121.00521870171993"><ele>60.0</ele><time>2026-05-05T14:31:40Z</time></trkpt><trkpt lat="14.37473129979017" lon="121.00508875947818"><ele>61.25</ele><time>2026-05-05T14:31:41Z</time></trkpt><trkpt lat="14.374737699268701" lon="121.00494983023704"><ele>62.5</ele><time>2026-05-05T14:31:42Z</time></trkpt><trkpt lat="14.374743929756676" lon="121.0048032513467"><ele>63.75</ele><time>2026-05-05T14:31:43Z</time></trkpt><trkpt lat="14.374749890186822" lon="121.00465429014179"><ele>65.0</ele><time>2026-05-05T14:31:44Z</time></trkpt><trkpt lat="14.374746534373504" lon="121.00449808824996"><ele>65.0</ele><time>2026-05-05T14:31:45Z</time></trkpt><trkpt lat="14.374736941558426" lon="121.00433022932609"><ele>65.0</ele><time>2026-05-05T14:31:46Z</time></trkpt><trkpt lat="14.374721082318251" lon="121.00415874274798"><ele>65.0</ele><time>2026-05-05T14:31:47Z</time></trkpt><trkpt lat="14.374697904651985" lon="121.00398061987826"><ele>65.0</ele><time>2026-05-05T14:31:48Z</time></trkpt><trkpt lat="14.374670677038708" lon="121.00380391634694"><ele>65.0</ele><time>2026-05-05T14:31:49Z</time></trkpt><trkpt lat="14.374642315802465" lon="121.00361611345843"><ele>65.0</ele><time>2026-05-05T14:31:50Z</time></trkpt><trkpt lat="14.374614841729143" lon="121.00342905830168"><ele>66.0</ele><time>2026-05-05T14:31:51Z</time></trkpt><trkpt lat="14.374590478543059" lon="121.00323989025414"><ele>67.0</ele><time>2026-05-05T14:31:52Z</time></trkpt><trkpt lat="14.374566553798662" lon="121.00305578507091"><ele>68.0</ele><time>2026-05-05T14:31:53Z</time></trkpt><trkpt lat="14.374546502473699" lon="121.00288158062759"><ele>68.0</ele><time>2026-05-05T14:31:54Z</time></trkpt><trkpt lat="14.374539039531731" lon="121.00272286385244"><ele>68.0</ele><time>2026-05-05T14:31:55Z</time></trkpt><trkpt lat="14.374550829872355" lon="121.00256646321715"><ele>68.0</ele><time>2026-05-05T14:31:56Z</time></trkpt><trkpt lat="14.374582674317782" lon="121.002411772532"><ele>68.0</ele><time>2026-05-05T14:31:57Z</time></trkpt><trkpt lat="14.374624508947889" lon="121.00225505448292"><ele>68.0</ele><time>2026-05-05T14:31:58Z</time></trkpt><trkpt lat="14.37466246018529" lon="121.00209487374218"><ele>68.0</ele><time>2026-05-05T14:31:59Z</time></trkpt><trkpt lat="14.374698387357189" lon="121.00193517351359"><ele>67.66666666666667</ele><time>2026-05-05T14:32:00Z</time></trkpt><trkpt lat="14.374732675789465" lon="121.00177822276113"><ele>67.33333333333333</ele><time>2026-05-05T14:32:01Z</time></trkpt><trkpt lat="14.374766269313925" lon="121.00162089658923"><ele>67.0</ele><time>2026-05-05T14:32:02Z</time></trkpt><trkpt lat="14.374799386638491" lon="121.0014682669624"><ele>66.66666666666666</ele><time>2026-05-05T14:32:03Z</time></trkpt><trkpt lat="14.37483065038498" lon="121.00131169828526"><ele>66.33333333333333</ele><time>2026-05-05T14:32:04Z</time></trkpt><trkpt lat="14.374863731399191" lon="121.00115391252015"><ele>66.0</ele><time>2026-05-05T14:32:05Z</time></trkpt><trkpt lat="14.374897631519357" lon="121.00099028099206"><ele>65.33333333333333</ele><time>2026-05-05T14:32:06Z</time></trkpt><trkpt lat="14.374932322419276" lon="121.0008250316879"><ele>64.66666666666666</ele><time>2026-05-05T14:32:07Z</time></trkpt><trkpt lat="14.374968094308302" lon="121.00065858037779"><ele>64.0</ele><time>2026-05-05T14:32:08Z</time></trkpt><trkpt lat="14.375033960245638" lon="121.00049899672355"><ele>64.0</ele><time>2026-05-05T14:32:09Z</time></trkpt><trkpt lat="14.375089100418714" lon="121.00033272701457"><ele>64.0</ele><time>2026-05-05T14:32:10Z</time></trkpt><trkpt lat="14.375150593356128" lon="121.00017400487107"><ele>64.0</ele><time>2026-05-05T14:32:11Z</time></trkpt><trkpt lat="14.375215310761146" lon="121.0000086034046"><ele>64.0</ele><time>2026-05-05T14:32:12Z</time></trkpt><trkpt lat="14.375310816521646" lon="120.99986055014686"><ele>64.0</ele><time>2026-05-05T14:32:13Z</time></trkpt><trkpt lat="14.375414532216478" lon="120.99971789959694"><ele>64.0</ele><time>2026-05-05T14:32:14Z</time></trkpt><trkpt lat="14.375518672064613" lon="120.99957417335254"><ele>63.666666666666664</ele><time>2026-05-05T14:32:15Z</time></trkpt><trkpt lat="14.375621529978162" lon="120.9994286453038"><ele>63.33333333333333</ele><time>2026-05-05T14:32:16Z</time></trkpt><trkpt lat="14.375724699403452" lon="120.9992937605001"><ele>63.0</ele><time>2026-05-05T14:32:17Z</time></trkpt><trkpt lat="14.375840847279152" lon="120.99916815747534"><ele>63.66666666666667</ele><time>2026-05-05T14:32:18Z</time></trkpt><trkpt lat="14.375966718166286" lon="120.99905776916226"><ele>64.33333333333334</ele><time>2026-05-05T14:32:19Z</time></trkpt><trkpt lat="14.376103087269943" lon="120.99895475388104"><ele>65.0</ele><time>2026-05-05T14:32:20Z</time></trkpt><trkpt lat="14.376243884264294" lon="120.99885263275422"><ele>66.33333333333334</ele><time>2026-05-05T14:32:21Z</time></trkpt><trkpt lat="14.376389940297686" lon="120.9987471303639"><ele>67.66666666666667</ele><time>2026-05-05T14:32:22Z</time></trkpt><trkpt lat="14.376526685904155" lon="120.9986520682202"><ele>69.0</ele><time>2026-05-05T14:32:23Z</time></trkpt><trkpt lat="14.376662888530928" lon="120.9985558431485"><ele>69.0</ele><time>2026-05-05T14:32:24Z</time></trkpt><trkpt lat="14.376797556011539" lon="120.99845888326682"><ele>69.0</ele><time>2026-05-05T14:32:25Z</time></trkpt><trkpt lat="14.376933237673624" lon="120.99835977938521"><ele>69.0</ele><time>2026-05-05T14:32:26Z</time></trkpt><trkpt lat="14.37706595511575" lon="120.99826381380502"><ele>68.0</ele><time>2026-05-05T14:32:27Z</time></trkpt><trkpt lat="14.377192367638738" lon="120.99817312113214"><ele>67.0</ele><time>2026-05-05T14:32:28Z</time></trkpt><trkpt lat="14.37731152756335" lon="120.998086444655"><ele>66.0</ele><time>2026-05-05T14:32:29Z</time></trkpt><trkpt lat="14.37742610526398" lon="120.9980034318807"><ele>65.0</ele><time>2026-05-05T14:32:30Z</time></trkpt><trkpt lat="14.377534212956746" lon="120.99792486154738"><ele>65.0</ele><time>2026-05-05T14:32:31Z</time></trkpt><trkpt lat="14.377639332580125" lon="120.99784798665601"><ele>65.0</ele><time>2026-05-05T14:32:32Z</time></trkpt><trkpt lat="14.37774024501219" lon="120.99777206605442"><ele>65.0</ele><time>2026-05-05T14:32:33Z</time></trkpt><trkpt lat="14.377844754168825" lon="120.99769873957419"><ele>65.0</ele><time>2026-05-05T14:32:34Z</time></trkpt><trkpt lat="14.377942456120422" lon="120.99763115683417"><ele>64.6</ele><time>2026-05-05T14:32:35Z</time></trkpt><trkpt lat="14.378045243050373" lon="120.99756012109016"><ele>64.2</ele><time>2026-05-05T14:32:36Z</time></trkpt><trkpt lat="14.378129220345233" lon="120.99749744897774"><ele>63.8</ele><time>2026-05-05T14:32:37Z</time></trkpt><trkpt lat="14.378216204924929" lon="120.9974339543088"><ele>63.4</ele><time>2026-05-05T14:32:38Z</time></trkpt><trkpt lat="14.378291319235315" lon="120.99738174689986"><ele>63.0</ele><time>2026-05-05T14:32:39Z</time></trkpt><trkpt lat="14.378359785434721" lon="120.99733521501041"><ele>63.0</ele><time>2026-05-05T14:32:40Z</time></trkpt><trkpt lat="14.378421184527888" lon="120.99729149816645"><ele>63.0</ele><time>2026-05-05T14:32:41Z</time></trkpt><trkpt lat="14.378495754466757" lon="120.9972339212233"><ele>63.0</ele><time>2026-05-05T14:32:43Z</time></trkpt><trkpt lat="14.378556286654563" lon="120.99718902855383"><ele>63.0</ele><time>2026-05-05T14:32:46Z</time></trkpt><trkpt lat="14.378645609034882" lon="120.99712189884177"><ele>63.0</ele><time>2026-05-05T14:33:20Z</time></trkpt><trkpt lat="14.378711652307661" lon="120.99707278322228"><ele>63.0</ele><time>2026-05-05T14:33:21Z</time></trkpt><trkpt lat="14.378795083131324" lon="120.99701153872367"><ele>62.75</ele><time>2026-05-05T14:33:22Z</time></trkpt><trkpt lat="14.37888586173762" lon="120.99694283651682"><ele>62.5</ele><time>2026-05-05T14:33:23Z</time></trkpt><trkpt lat="14.378996252250353" lon="120.99685818396888"><ele>62.25</ele><time>2026-05-05T14:33:24Z</time></trkpt><trkpt lat="14.379084584878973" lon="120.9967961250699"><ele>62.0</ele><time>2026-05-05T14:33:25Z</time></trkpt><trkpt lat="14.379208801234611" lon="120.99670677217614"><ele>62.333333333333336</ele><time>2026-05-05T14:33:26Z</time></trkpt><trkpt lat="14.379334248350593" lon="120.99661675538646"><ele>62.66666666666667</ele><time>2026-05-05T14:33:27Z</time></trkpt><trkpt lat="14.379461152067876" lon="120.99652072160158"><ele>63.0</ele><time>2026-05-05T14:33:28Z</time></trkpt><trkpt lat="14.379578402677444" lon="120.99642085381886"><ele>62.33333333333333</ele><time>2026-05-05T14:33:29Z</time></trkpt><trkpt lat="14.379690925901974" lon="120.9963137156045"><ele>61.666666666666664</ele><time>2026-05-05T14:33:30Z</time></trkpt><trkpt lat="14.379799804413524" lon="120.99619304263169"><ele>61.0</ele><time>2026-05-05T14:33:31Z</time></trkpt><trkpt lat="14.379903060110108" lon="120.99606478384838"><ele>61.0</ele><time>2026-05-05T14:33:32Z</time></trkpt><trkpt lat="14.380006485629997" lon="120.99592971530089"><ele>61.0</ele><time>2026-05-05T14:33:33Z</time></trkpt><trkpt lat="14.380101563541032" lon="120.99577931926218"><ele>61.0</ele><time>2026-05-05T14:33:34Z</time></trkpt><trkpt lat="14.380199219459778" lon="120.99562530006676"><ele>61.0</ele><time>2026-05-05T14:33:35Z</time></trkpt><trkpt lat="14.38030005486604" lon="120.99546485381273"><ele>61.0</ele><time>2026-05-05T14:33:36Z</time></trkpt><trkpt lat="14.380393538767835" lon="120.99530120821836"><ele>61.0</ele><time>2026-05-05T14:33:37Z</time></trkpt><trkpt lat="14.380484727680754" lon="120.99515189806681"><ele>61.33333333333333</ele><time>2026-05-05T14:33:38Z</time></trkpt><trkpt lat="14.38056979467694" lon="120.99501100876945"><ele>61.66666666666667</ele><time>2026-05-05T14:33:39Z</time></trkpt><trkpt lat="14.380650301373636" lon="120.99487481920902"><ele>62.0</ele><time>2026-05-05T14:33:40Z</time></trkpt><trkpt lat="14.380712532448701" lon="120.99475147890934"><ele>62.0</ele><time>2026-05-05T14:33:41Z</time></trkpt><trkpt lat="14.38074495953441" lon="120.99463871914784"><ele>62.0</ele><time>2026-05-05T14:33:42Z</time></trkpt><trkpt lat="14.380760654755155" lon="120.99450786132951"><ele>62.0</ele><time>2026-05-05T14:33:43Z</time></trkpt><trkpt lat="14.380763939308393" lon="120.99435856009849"><ele>62.0</ele><time>2026-05-05T14:33:44Z</time></trkpt><trkpt lat="14.380752648492793" lon="120.99419695908553"><ele>61.333333333333336</ele><time>2026-05-05T14:33:45Z</time></trkpt><trkpt lat="14.380737237737474" lon="120.99402522350096"><ele>60.66666666666667</ele><time>2026-05-05T14:33:46Z</time></trkpt><trkpt lat="14.380718806850721" lon="120.99384152655584"><ele>60.0</ele><time>2026-05-05T14:33:47Z</time></trkpt><trkpt lat="14.38071778447204" lon="120.99363689296982"><ele>60.0</ele><time>2026-05-05T14:33:48Z</time></trkpt><trkpt lat="14.380706588173185" lon="120.9934434235029"><ele>60.0</ele><time>2026-05-05T14:33:49Z</time></trkpt><trkpt lat="14.380692106326073" lon="120.99324143428726"><ele>60.0</ele><time>2026-05-05T14:33:50Z</time></trkpt><trkpt lat="14.380671263656408" lon="120.99304630896948"><ele>59.33333333333333</ele><time>2026-05-05T14:33:51Z</time></trkpt><trkpt lat="14.380636120068015" lon="120.99284672252061"><ele>58.666666666666664</ele><time>2026-05-05T14:33:52Z</time></trkpt><trkpt lat="14.380619122193506" lon="120.99264850822357"><ele>58.0</ele><time>2026-05-05T14:33:53Z</time></trkpt><trkpt lat="14.380608291470782" lon="120.99245660596141"><ele>57.33333333333333</ele><time>2026-05-05T14:33:54Z</time></trkpt><trkpt lat="14.380600159799828" lon="120.99227648070936"><ele>56.66666666666667</ele><time>2026-05-05T14:33:55Z</time></trkpt><trkpt lat="14.38058901833658" lon="120.99210165064657"><ele>56.0</ele><time>2026-05-05T14:33:56Z</time></trkpt><trkpt lat="14.380578789467462" lon="120.99194024811015"><ele>56.0</ele><time>2026-05-05T14:33:57Z</time></trkpt><trkpt lat="14.380575250632164" lon="120.99181790655743"><ele>55.99999999999999</ele><time>2026-05-05T14:33:58Z</time></trkpt><trkpt lat="14.380577732355551" lon="120.99170793303846"><ele>55.99999999999999</ele><time>2026-05-05T14:33:59Z</time></trkpt><trkpt lat="14.38059442251218" lon="120.9916108615709"><ele>56.0</ele><time>2026-05-05T14:34:00Z</time></trkpt><trkpt lat="14.380639719273429" lon="120.9915198176438"><ele>56.0</ele><time>2026-05-05T14:34:01Z</time></trkpt><trkpt lat="14.380705343390078" lon="120.99142974147165"><ele>56.25</ele><time>2026-05-05T14:34:02Z</time></trkpt><trkpt lat="14.380786634727391" lon="120.99132021501228"><ele>56.5</ele><time>2026-05-05T14:34:03Z</time></trkpt><trkpt lat="14.380879260079581" lon="120.99119359676696"><ele>56.75</ele><time>2026-05-05T14:34:04Z</time></trkpt><trkpt lat="14.380957051485698" lon="120.9910818259195"><ele>57.0</ele><time>2026-05-05T14:34:05Z</time></trkpt><trkpt lat="14.381053792654088" lon="120.99095134970865"><ele>57.33333333333333</ele><time>2026-05-05T14:34:06Z</time></trkpt><trkpt lat="14.381153257264948" lon="120.99081233156461"><ele>57.666666666666664</ele><time>2026-05-05T14:34:07Z</time></trkpt><trkpt lat="14.38125608491051" lon="120.99067718853141"><ele>58.0</ele><time>2026-05-05T14:34:08Z</time></trkpt><trkpt lat="14.38134758419717" lon="120.99054980649372"><ele>57.666666666666664</ele><time>2026-05-05T14:34:09Z</time></trkpt><trkpt lat="14.381439822050622" lon="120.9904276185421"><ele>57.33333333333333</ele><time>2026-05-05T14:34:10Z</time></trkpt><trkpt lat="14.381537593738825" lon="120.99030086665326"><ele>57.0</ele><time>2026-05-05T14:34:11Z</time></trkpt><trkpt lat="14.381631361132088" lon="120.99017178607306"><ele>57.0</ele><time>2026-05-05T14:34:12Z</time></trkpt><trkpt lat="14.381721683864319" lon="120.99003449923768"><ele>57.0</ele><time>2026-05-05T14:34:13Z</time></trkpt><trkpt lat="14.381792360442894" lon="120.98988913391985"><ele>57.0</ele><time>2026-05-05T14:34:14Z</time></trkpt><trkpt lat="14.381850771183291" lon="120.98973057061582"><ele>55.33333333333333</ele><time>2026-05-05T14:34:15Z</time></trkpt><trkpt lat="14.381892006484915" lon="120.98956224752901"><ele>53.666666666666664</ele><time>2026-05-05T14:34:16Z</time></trkpt><trkpt lat="14.3819152492583" lon="120.98939108669359"><ele>52.0</ele><time>2026-05-05T14:34:17Z</time></trkpt><trkpt lat="14.381926402779838" lon="120.98921883618179"><ele>49.0</ele><time>2026-05-05T14:34:18Z</time></trkpt><trkpt lat="14.381920769608715" lon="120.98905006120404"><ele>46.0</ele><time>2026-05-05T14:34:19Z</time></trkpt><trkpt lat="14.381916996201262" lon="120.98888711457703"><ele>43.0</ele><time>2026-05-05T14:34:20Z</time></trkpt><trkpt lat="14.381923226263567" lon="120.9887267920783"><ele>43.0</ele><time>2026-05-05T14:34:21Z</time></trkpt><trkpt lat="14.381928312127307" lon="120.98858319351783"><ele>43.0</ele><time>2026-05-05T14:34:22Z</time></trkpt><trkpt lat="14.381934425229941" lon="120.98844944705262"><ele>43.0</ele><time>2026-05-05T14:34:23Z</time></trkpt><trkpt lat="14.381938533051487" lon="120.98832686361553"><ele>43.0</ele><time>2026-05-05T14:34:24Z</time></trkpt><trkpt lat="14.381941656652685" lon="120.98820705618454"><ele>43.0</ele><time>2026-05-05T14:34:25Z</time></trkpt><trkpt lat="14.38196103733242" lon="120.98809832035195"><ele>43.0</ele><time>2026-05-05T14:34:26Z</time></trkpt><trkpt lat="14.381979448594405" lon="120.98798439040887"><ele>43.0</ele><time>2026-05-05T14:34:27Z</time></trkpt><trkpt lat="14.382023628933794" lon="120.98786995324066"><ele>43.0</ele><time>2026-05-05T14:34:28Z</time></trkpt><trkpt lat="14.382079492794205" lon="120.98775423173201"><ele>43.0</ele><time>2026-05-05T14:34:29Z</time></trkpt><trkpt lat="14.382144992373702" lon="120.98763245162274"><ele>43.0</ele><time>2026-05-05T14:34:30Z</time></trkpt><trkpt lat="14.382201591063598" lon="120.98750067785281"><ele>43.0</ele><time>2026-05-05T14:34:31Z</time></trkpt><trkpt lat="14.382254144409236" lon="120.98736331503953"><ele>43.0</ele><time>2026-05-05T14:34:32Z</time></trkpt><trkpt lat="14.38232374882345" lon="120.98722386923322"><ele>44.0</ele><time>2026-05-05T14:34:33Z</time></trkpt><trkpt lat="14.382392164601196" lon="120.98708840950574"><ele>45.0</ele><time>2026-05-05T14:34:34Z</time></trkpt><trkpt lat="14.382450778397244" lon="120.98694297727772"><ele>46.0</ele><time>2026-05-05T14:34:35Z</time></trkpt><trkpt lat="14.382523747482315" lon="120.98679754800091"><ele>45.66666666666667</ele><time>2026-05-05T14:34:36Z</time></trkpt><trkpt lat="14.382587599497551" lon="120.98664529758592"><ele>45.333333333333336</ele><time>2026-05-05T14:34:37Z</time></trkpt><trkpt lat="14.382657404828938" lon="120.98648880718393"><ele>45.0</ele><time>2026-05-05T14:34:38Z</time></trkpt><trkpt lat="14.382726230309157" lon="120.986329331413"><ele>45.0</ele><time>2026-05-05T14:34:39Z</time></trkpt><trkpt lat="14.382780523569254" lon="120.98617093715079"><ele>45.0</ele><time>2026-05-05T14:34:40Z</time></trkpt><trkpt lat="14.382883195023089" lon="120.98600528535215"><ele>45.0</ele><time>2026-05-05T14:34:41Z</time></trkpt><trkpt lat="14.382959498495858" lon="120.98584125106213"><ele>45.666666666666664</ele><time>2026-05-05T14:34:42Z</time></trkpt><trkpt lat="14.383036321589522" lon="120.9856786953893"><ele>46.33333333333333</ele><time>2026-05-05T14:34:43Z</time></trkpt><trkpt lat="14.383112757741987" lon="120.98551322290174"><ele>47.0</ele><time>2026-05-05T14:34:44Z</time></trkpt><trkpt lat="14.383191672764996" lon="120.98534308760136"><ele>47.0</ele><time>2026-05-05T14:34:45Z</time></trkpt><trkpt lat="14.383264635823902" lon="120.98517517084053"><ele>47.0</ele><time>2026-05-05T14:34:46Z</time></trkpt><trkpt lat="14.383330205535168" lon="120.98501679629557"><ele>47.0</ele><time>2026-05-05T14:34:47Z</time></trkpt><trkpt lat="14.383391828187026" lon="120.98485829589737"><ele>45.33333333333333</ele><time>2026-05-05T14:34:48Z</time></trkpt><trkpt lat="14.383440889605941" lon="120.98469419977033"><ele>43.666666666666664</ele><time>2026-05-05T14:34:49Z</time></trkpt><trkpt lat="14.383487595859581" lon="120.98452565884759"><ele>42.0</ele><time>2026-05-05T14:34:50Z</time></trkpt><trkpt lat="14.383524128385268" lon="120.98435318235038"><ele>43.666666666666664</ele><time>2026-05-05T14:34:51Z</time></trkpt><trkpt lat="14.383548794887657" lon="120.9841760857795"><ele>45.33333333333333</ele><time>2026-05-05T14:34:52Z</time></trkpt><trkpt lat="14.383568345563257" lon="120.98399890278766"><ele>47.0</ele><time>2026-05-05T14:34:53Z</time></trkpt><trkpt lat="14.383582171958867" lon="120.98382374026589"><ele>47.0</ele><time>2026-05-05T14:34:54Z</time></trkpt><trkpt lat="14.383583413463922" lon="120.98365172602993"><ele>47.0</ele><time>2026-05-05T14:34:55Z</time></trkpt><trkpt lat="14.383576632911236" lon="120.98347485153084"><ele>47.0</ele><time>2026-05-05T14:34:56Z</time></trkpt><trkpt lat="14.3835690189618" lon="120.98329048188062"><ele>46.666666666666664</ele><time>2026-05-05T14:34:57Z</time></trkpt><trkpt lat="14.383562130916882" lon="120.9831032413827"><ele>46.333333333333336</ele><time>2026-05-05T14:34:58Z</time></trkpt><trkpt lat="14.383557216298755" lon="120.98291216904701"><ele>46.0</ele><time>2026-05-05T14:34:59Z</time></trkpt><trkpt lat="14.383554450912227" lon="120.98272560131467"><ele>46.0</ele><time>2026-05-05T14:35:00Z</time></trkpt><trkpt lat="14.383549858311921" lon="120.98253660672137"><ele>46.0</ele><time>2026-05-05T14:35:01Z</time></trkpt><trkpt lat="14.383545416289914" lon="120.98234817375442"><ele>46.0</ele><time>2026-05-05T14:35:02Z</time></trkpt><trkpt lat="14.383539436777303" lon="120.98216232705151"><ele>45.66666666666667</ele><time>2026-05-05T14:35:03Z</time></trkpt><trkpt lat="14.383535585387344" lon="120.98198594730022"><ele>45.333333333333336</ele><time>2026-05-05T14:35:04Z</time></trkpt><trkpt lat="14.383528571999088" lon="120.98181754938649"><ele>45.0</ele><time>2026-05-05T14:35:05Z</time></trkpt><trkpt lat="14.383524182569449" lon="120.98166001528966"><ele>44.5</ele><time>2026-05-05T14:35:06Z</time></trkpt><trkpt lat="14.383519989730818" lon="120.98150614316847"><ele>44.0</ele><time>2026-05-05T14:35:07Z</time></trkpt><trkpt lat="14.383516487266252" lon="120.98136456621097"><ele>43.5</ele><time>2026-05-05T14:35:08Z</time></trkpt><trkpt lat="14.383512655311117" lon="120.98123287538414"><ele>43.0</ele><time>2026-05-05T14:35:09Z</time></trkpt><trkpt lat="14.383512045954463" lon="120.98111628026506"><ele>43.0</ele><time>2026-05-05T14:35:10Z</time></trkpt><trkpt lat="14.383513886828974" lon="120.981009657296"><ele>43.0</ele><time>2026-05-05T14:35:11Z</time></trkpt><trkpt lat="14.383514207513256" lon="120.98091536557665"><ele>43.0</ele><time>2026-05-05T14:35:12Z</time></trkpt><trkpt lat="14.383511602117107" lon="120.98083107757842"><ele>43.0</ele><time>2026-05-05T14:35:13Z</time></trkpt><trkpt lat="14.383513238600466" lon="120.98075141127192"><ele>43.0</ele><time>2026-05-05T14:35:14Z</time></trkpt><trkpt lat="14.383537635920987" lon="120.98066605147099"><ele>43.0</ele><time>2026-05-05T14:35:15Z</time></trkpt><trkpt lat="14.383589818429277" lon="120.98058453886581"><ele>43.0</ele><time>2026-05-05T14:35:16Z</time></trkpt><trkpt lat="14.38366117268649" lon="120.98050784082126"><ele>43.0</ele><time>2026-05-05T14:35:17Z</time></trkpt><trkpt lat="14.383759746299965" lon="120.98044574927704"><ele>43.0</ele><time>2026-05-05T14:35:18Z</time></trkpt><trkpt lat="14.383875178955599" lon="120.98039886518286"><ele>43.0</ele><time>2026-05-05T14:35:19Z</time></trkpt><trkpt lat="14.38399940217788" lon="120.98036117003325"><ele>43.0</ele><time>2026-05-05T14:35:20Z</time></trkpt><trkpt lat="14.38413089743118" lon="120.98031761750569"><ele>43.0</ele><time>2026-05-05T14:35:21Z</time></trkpt><trkpt lat="14.384269849929307" lon="120.98026291590189"><ele>43.0</ele><time>2026-05-05T14:35:22Z</time></trkpt><trkpt lat="14.384412973561238" lon="120.9802078040324"><ele>43.0</ele><time>2026-05-05T14:35:23Z</time></trkpt><trkpt lat="14.384556601551694" lon="120.98015041893764"><ele>43.0</ele><time>2026-05-05T14:35:24Z</time></trkpt><trkpt lat="14.384703341746455" lon="120.98009301445076"><ele>43.0</ele><time>2026-05-05T14:35:25Z</time></trkpt><trkpt lat="14.384850093134292" lon="120.98003364839012"><ele>43.0</ele><time>2026-05-05T14:35:26Z</time></trkpt><trkpt lat="14.384990248853008" lon="120.9799839690521"><ele>43.0</ele><time>2026-05-05T14:35:27Z</time></trkpt><trkpt lat="14.3851295851688" lon="120.97993128383462"><ele>43.0</ele><time>2026-05-05T14:35:28Z</time></trkpt><trkpt lat="14.385265978347482" lon="120.97987789917691"><ele>43.0</ele><time>2026-05-05T14:35:29Z</time></trkpt><trkpt lat="14.385397010448587" lon="120.97982090482807"><ele>43.0</ele><time>2026-05-05T14:35:30Z</time></trkpt><trkpt lat="14.385527066745231" lon="120.97975551400319"><ele>42.5</ele><time>2026-05-05T14:35:31Z</time></trkpt><trkpt lat="14.385637549772882" lon="120.97966450042153"><ele>42.0</ele><time>2026-05-05T14:35:32Z</time></trkpt><trkpt lat="14.385731499933987" lon="120.97954947245799"><ele>41.5</ele><time>2026-05-05T14:35:33Z</time></trkpt><trkpt lat="14.385809803023047" lon="120.97942508024809"><ele>41.0</ele><time>2026-05-05T14:35:34Z</time></trkpt><trkpt lat="14.38586509614838" lon="120.97928657922473"><ele>41.75</ele><time>2026-05-05T14:35:35Z</time></trkpt><trkpt lat="14.385900516225536" lon="120.97913954010018"><ele>42.5</ele><time>2026-05-05T14:35:36Z</time></trkpt><trkpt lat="14.385925309603792" lon="120.9789924530709"><ele>43.25</ele><time>2026-05-05T14:35:37Z</time></trkpt><trkpt lat="14.385939562427957" lon="120.97884798352979"><ele>44.0</ele><time>2026-05-05T14:35:38Z</time></trkpt><trkpt lat="14.38595760588285" lon="120.97870655640034"><ele>44.0</ele><time>2026-05-05T14:35:39Z</time></trkpt><trkpt lat="14.38597748528821" lon="120.97857821569026"><ele>44.0</ele><time>2026-05-05T14:35:40Z</time></trkpt><trkpt lat="14.385992433592936" lon="120.97845959208912"><ele>44.0</ele><time>2026-05-05T14:35:41Z</time></trkpt><trkpt lat="14.386008695337656" lon="120.97835121668041"><ele>44.0</ele><time>2026-05-05T14:35:42Z</time></trkpt><trkpt lat="14.386019521043803" lon="120.97825799332729"><ele>44.0</ele><time>2026-05-05T14:35:43Z</time></trkpt><trkpt lat="14.386029933025359" lon="120.97818089219295"><ele>44.800000000000004</ele><time>2026-05-05T14:35:44Z</time></trkpt><trkpt lat="14.38604263718685" lon="120.97808203161894"><ele>45.6</ele><time>2026-05-05T14:35:46Z</time></trkpt><trkpt lat="14.386057638754892" lon="120.97800646868853"><ele>46.4</ele><time>2026-05-05T14:35:48Z</time></trkpt><trkpt lat="14.386117676252105" lon="120.97794777250267"><ele>47.2</ele><time>2026-05-05T14:35:50Z</time></trkpt><trkpt lat="14.386237797344291" lon="120.97793730273641"><ele>48.0</ele><time>2026-05-05T14:35:51Z</time></trkpt><trkpt lat="14.38633092601806" lon="120.97793021973011"><ele>47.75</ele><time>2026-05-05T14:35:52Z</time></trkpt><trkpt lat="14.386437268196069" lon="120.97791366989496"><ele>47.5</ele><time>2026-05-05T14:35:53Z</time></trkpt><trkpt lat="14.386552806135146" lon="120.9778996949764"><ele>47.25</ele><time>2026-05-05T14:35:54Z</time></trkpt><trkpt lat="14.386670758267222" lon="120.97788180412883"><ele>47.0</ele><time>2026-05-05T14:35:55Z</time></trkpt><trkpt lat="14.386800299672515" lon="120.97786198669134"><ele>47.0</ele><time>2026-05-05T14:35:56Z</time></trkpt><trkpt lat="14.386933073246047" lon="120.97783854126259"><ele>47.0</ele><time>2026-05-05T14:35:57Z</time></trkpt><trkpt lat="14.387070348694184" lon="120.97781612438622"><ele>47.0</ele><time>2026-05-05T14:35:58Z</time></trkpt><trkpt lat="14.387212644818218" lon="120.97779678193363"><ele>47.0</ele><time>2026-05-05T14:35:59Z</time></trkpt><trkpt lat="14.38736093336678" lon="120.97777213851799"><ele>46.5</ele><time>2026-05-05T14:36:00Z</time></trkpt><trkpt lat="14.387509891582802" lon="120.9777467425001"><ele>46.0</ele><time>2026-05-05T14:36:01Z</time></trkpt><trkpt lat="14.387657239268593" lon="120.9777189489515"><ele>45.5</ele><time>2026-05-05T14:36:02Z</time></trkpt><trkpt lat="14.387796502625974" lon="120.97769303823291"><ele>45.0</ele><time>2026-05-05T14:36:03Z</time></trkpt><trkpt lat="14.387934781934128" lon="120.97766760686842"><ele>45.25</ele><time>2026-05-05T14:36:04Z</time></trkpt><trkpt lat="14.388070646099813" lon="120.97764803089323"><ele>45.5</ele><time>2026-05-05T14:36:05Z</time></trkpt><trkpt lat="14.388199544962402" lon="120.97764217458604"><ele>45.75</ele><time>2026-05-05T14:36:06Z</time></trkpt><trkpt lat="14.388319022951336" lon="120.97763987160374"><ele>46.0</ele><time>2026-05-05T14:36:07Z</time></trkpt><trkpt lat="14.388428432678973" lon="120.97763928022474"><ele>46.0</ele><time>2026-05-05T14:36:08Z</time></trkpt><trkpt lat="14.388535984436935" lon="120.97764163941935"><ele>46.0</ele><time>2026-05-05T14:36:09Z</time></trkpt><trkpt lat="14.388641310182168" lon="120.9776442634575"><ele>46.0</ele><time>2026-05-05T14:36:10Z</time></trkpt><trkpt lat="14.388739278695633" lon="120.97764706046185"><ele>46.0</ele><time>2026-05-05T14:36:11Z</time></trkpt><trkpt lat="14.388831730156085" lon="120.97764412038683"><ele>46.0</ele><time>2026-05-05T14:36:12Z</time></trkpt><trkpt lat="14.388928012885684" lon="120.97764271478569"><ele>45.599999999999994</ele><time>2026-05-05T14:36:13Z</time></trkpt><trkpt lat="14.389025918690702" lon="120.97763931465408"><ele>45.2</ele><time>2026-05-05T14:36:14Z</time></trkpt><trkpt lat="14.389118816683045" lon="120.97763820307293"><ele>44.8</ele><time>2026-05-05T14:36:15Z</time></trkpt><trkpt lat="14.389219306995253" lon="120.97764051770483"><ele>44.400000000000006</ele><time>2026-05-05T14:36:16Z</time></trkpt><trkpt lat="14.389321423069383" lon="120.97763748548776"><ele>44.0</ele><time>2026-05-05T14:36:17Z</time></trkpt><trkpt lat="14.389415542796796" lon="120.97764027650545"><ele>44.0</ele><time>2026-05-05T14:36:18Z</time></trkpt><trkpt lat="14.389503114384453" lon="120.97764612605084"><ele>44.0</ele><time>2026-05-05T14:36:19Z</time></trkpt><trkpt lat="14.389598636118226" lon="120.9776486359122"><ele>44.0</ele><time>2026-05-05T14:36:20Z</time></trkpt><trkpt lat="14.389710030091358" lon="120.97764959315177"><ele>44.0</ele><time>2026-05-05T14:36:21Z</time></trkpt><trkpt lat="14.389819803330376" lon="120.97765449337672"><ele>44.0</ele><time>2026-05-05T14:36:22Z</time></trkpt><trkpt lat="14.389933373077653" lon="120.97765785356034"><ele>43.5</ele><time>2026-05-05T14:36:23Z</time></trkpt><trkpt lat="14.39005746179625" lon="120.9776624224758"><ele>43.0</ele><time>2026-05-05T14:36:24Z</time></trkpt><trkpt lat="14.390173270045693" lon="120.9776630976429"><ele>42.5</ele><time>2026-05-05T14:36:25Z</time></trkpt><trkpt lat="14.390280916252678" lon="120.97766406187755"><ele>42.0</ele><time>2026-05-05T14:36:26Z</time></trkpt><trkpt lat="14.39038423230991" lon="120.97766595669533"><ele>42.0</ele><time>2026-05-05T14:36:27Z</time></trkpt><trkpt lat="14.390494823570652" lon="120.97767028324186"><ele>42.0</ele><time>2026-05-05T14:36:28Z</time></trkpt><trkpt lat="14.390604992833481" lon="120.97767526695266"><ele>42.0</ele><time>2026-05-05T14:36:29Z</time></trkpt><trkpt lat="14.39072001905655" lon="120.977681251639"><ele>42.0</ele><time>2026-05-05T14:36:30Z</time></trkpt><trkpt lat="14.390836483120916" lon="120.97768926387546"><ele>41.5</ele><time>2026-05-05T14:36:31Z</time></trkpt><trkpt lat="14.390954840407831" lon="120.97769641572535"><ele>41.0</ele><time>2026-05-05T14:36:32Z</time></trkpt><trkpt lat="14.391073987342622" lon="120.97770287870775"><ele>40.5</ele><time>2026-05-05T14:36:33Z</time></trkpt><trkpt lat="14.39119288775796" lon="120.97770577945356"><ele>40.0</ele><time>2026-05-05T14:36:34Z</time></trkpt><trkpt lat="14.3913095791686" lon="120.97770954248523"><ele>40.2</ele><time>2026-05-05T14:36:35Z</time></trkpt><trkpt lat="14.391424710703753" lon="120.97771330024624"><ele>40.4</ele><time>2026-05-05T14:36:36Z</time></trkpt><trkpt lat="14.391531781134178" lon="120.97771404637392"><ele>40.599999999999994</ele><time>2026-05-05T14:36:37Z</time></trkpt><trkpt lat="14.391641777088203" lon="120.97771324901204"><ele>40.8</ele><time>2026-05-05T14:36:38Z</time></trkpt><trkpt lat="14.391748656520628" lon="120.97771326735096"><ele>41.0</ele><time>2026-05-05T14:36:39Z</time></trkpt><trkpt lat="14.39186989580796" lon="120.97771961535707"><ele>41.0</ele><time>2026-05-05T14:36:40Z</time></trkpt><trkpt lat="14.39196556355702" lon="120.97773236177714"><ele>41.0</ele><time>2026-05-05T14:36:41Z</time></trkpt><trkpt lat="14.392072658223286" lon="120.97773324382"><ele>41.0</ele><time>2026-05-05T14:36:42Z</time></trkpt><trkpt lat="14.392170026384372" lon="120.97772761405315"><ele>41.0</ele><time>2026-05-05T14:36:43Z</time></trkpt><trkpt lat="14.392257826458671" lon="120.97772166161593"><ele>41.0</ele><time>2026-05-05T14:36:44Z</time></trkpt><trkpt lat="14.39233173357484" lon="120.97772105678507"><ele>41.166666666666664</ele><time>2026-05-05T14:36:45Z</time></trkpt><trkpt lat="14.392402587517871" lon="120.97771198433739"><ele>41.33333333333333</ele><time>2026-05-05T14:36:46Z</time></trkpt><trkpt lat="14.392486817821446" lon="120.9777069752869"><ele>41.5</ele><time>2026-05-05T14:36:47Z</time></trkpt><trkpt lat="14.392575408738736" lon="120.97770144031227"><ele>41.666666666666664</ele><time>2026-05-05T14:36:48Z</time></trkpt><trkpt lat="14.392653158593856" lon="120.9776951506298"><ele>41.833333333333336</ele><time>2026-05-05T14:36:49Z</time></trkpt><trkpt lat="14.392738957812947" lon="120.97771149470654"><ele>42.0</ele><time>2026-05-05T14:36:50Z</time></trkpt><trkpt lat="14.392849594760149" lon="120.9777054993524"><ele>42.0</ele><time>2026-05-05T14:36:51Z</time></trkpt><trkpt lat="14.392970380097397" lon="120.97771105708298"><ele>42.0</ele><time>2026-05-05T14:36:52Z</time></trkpt><trkpt lat="14.393096822744733" lon="120.97771496386005"><ele>42.0</ele><time>2026-05-05T14:36:53Z</time></trkpt><trkpt lat="14.393231798415323" lon="120.97771201264906"><ele>42.0</ele><time>2026-05-05T14:36:54Z</time></trkpt><trkpt lat="14.393374188121873" lon="120.97770719141351"><ele>41.25</ele><time>2026-05-05T14:36:55Z</time></trkpt><trkpt lat="14.393514699079853" lon="120.97770814665304"><ele>40.5</ele><time>2026-05-05T14:36:56Z</time></trkpt><trkpt lat="14.393657210918452" lon="120.97771202194961"><ele>39.75</ele><time>2026-05-05T14:36:57Z</time></trkpt><trkpt lat="14.393804499930594" lon="120.97771430164318"><ele>39.0</ele><time>2026-05-05T14:36:58Z</time></trkpt><trkpt lat="14.393950184333614" lon="120.97771332268131"><ele>39.0</ele><time>2026-05-05T14:36:59Z</time></trkpt><trkpt lat="14.394091643563108" lon="120.97771270053077"><ele>39.0</ele><time>2026-05-05T14:37:00Z</time></trkpt><trkpt lat="14.394221487281998" lon="120.97771472966043"><ele>39.0</ele><time>2026-05-05T14:37:01Z</time></trkpt><trkpt lat="14.394343384105493" lon="120.9777177001931"><ele>39.0</ele><time>2026-05-05T14:37:02Z</time></trkpt><trkpt lat="14.39446757629458" lon="120.977718197267"><ele>39.0</ele><time>2026-05-05T14:37:03Z</time></trkpt><trkpt lat="14.394592881995615" lon="120.97772002456526"><ele>39.0</ele><time>2026-05-05T14:37:04Z</time></trkpt><trkpt lat="14.394722481540759" lon="120.97772143468526"><ele>39.0</ele><time>2026-05-05T14:37:05Z</time></trkpt><trkpt lat="14.394852122738039" lon="120.97772764248177"><ele>39.0</ele><time>2026-05-05T14:37:06Z</time></trkpt><trkpt lat="14.394976732874309" lon="120.97773255649096"><ele>39.0</ele><time>2026-05-05T14:37:07Z</time></trkpt><trkpt lat="14.395098180169493" lon="120.97773304311397"><ele>39.0</ele><time>2026-05-05T14:37:08Z</time></trkpt><trkpt lat="14.395219909595697" lon="120.97774086946296"><ele>39.0</ele><time>2026-05-05T14:37:09Z</time></trkpt><trkpt lat="14.395346366456687" lon="120.97774440460586"><ele>39.0</ele><time>2026-05-05T14:37:10Z</time></trkpt><trkpt lat="14.395466334908823" lon="120.97775075309751"><ele>39.75</ele><time>2026-05-05T14:37:11Z</time></trkpt><trkpt lat="14.395590339281462" lon="120.97775328625195"><ele>40.5</ele><time>2026-05-05T14:37:12Z</time></trkpt><trkpt lat="14.395722326794226" lon="120.97774896671355"><ele>41.25</ele><time>2026-05-05T14:37:13Z</time></trkpt><trkpt lat="14.395842394111469" lon="120.97775625024845"><ele>42.0</ele><time>2026-05-05T14:37:14Z</time></trkpt><trkpt lat="14.395970637328618" lon="120.9777611161608"><ele>42.0</ele><time>2026-05-05T14:37:15Z</time></trkpt><trkpt lat="14.39608411661091" lon="120.97776319739427"><ele>42.0</ele><time>2026-05-05T14:37:16Z</time></trkpt><trkpt lat="14.396195991063546" lon="120.97776637908223"><ele>42.0</ele><time>2026-05-05T14:37:17Z</time></trkpt><trkpt lat="14.396306240013248" lon="120.97777318225057"><ele>42.0</ele><time>2026-05-05T14:37:18Z</time></trkpt><trkpt lat="14.396424531598354" lon="120.97777458957093"><ele>41.25</ele><time>2026-05-05T14:37:19Z</time></trkpt><trkpt lat="14.396538352622393" lon="120.97777723013802"><ele>40.5</ele><time>2026-05-05T14:37:20Z</time></trkpt><trkpt lat="14.396655022502491" lon="120.97778090007787"><ele>39.75</ele><time>2026-05-05T14:37:21Z</time></trkpt><trkpt lat="14.396772642567791" lon="120.97778411161522"><ele>39.0</ele><time>2026-05-05T14:37:22Z</time></trkpt><trkpt lat="14.396888433446087" lon="120.97778717608921"><ele>39.0</ele><time>2026-05-05T14:37:23Z</time></trkpt><trkpt lat="14.396998355497685" lon="120.97779168367185"><ele>39.0</ele><time>2026-05-05T14:37:24Z</time></trkpt><trkpt lat="14.397103927905302" lon="120.97779469321122"><ele>39.0</ele><time>2026-05-05T14:37:25Z</time></trkpt><trkpt lat="14.397217249324616" lon="120.97779770220103"><ele>39.0</ele><time>2026-05-05T14:37:26Z</time></trkpt><trkpt lat="14.397308878101578" lon="120.97780166556448"><ele>39.0</ele><time>2026-05-05T14:37:27Z</time></trkpt><trkpt lat="14.397380921093678" lon="120.97780982346137"><ele>39.0</ele><time>2026-05-05T14:37:28Z</time></trkpt><trkpt lat="14.397506449773894" lon="120.97781986485104"><ele>39.0</ele><time>2026-05-05T14:37:30Z</time></trkpt><trkpt lat="14.397584549652509" lon="120.97781744129298"><ele>39.0</ele><time>2026-05-05T14:37:31Z</time></trkpt><trkpt lat="14.397654962917866" lon="120.9778219566136"><ele>39.0</ele><time>2026-05-05T14:37:32Z</time></trkpt><trkpt lat="14.397782462618558" lon="120.97782723340397"><ele>39.0</ele><time>2026-05-05T14:37:34Z</time></trkpt><trkpt lat="14.397885733614553" lon="120.97782597042578"><ele>39.0</ele><time>2026-05-05T14:37:36Z</time></trkpt><trkpt lat="14.397949470319043" lon="120.9778271711438"><ele>39.0</ele><time>2026-05-05T14:37:38Z</time></trkpt><trkpt lat="14.398011426145558" lon="120.97783946835699"><ele>39.0</ele><time>2026-05-05T14:37:47Z</time></trkpt><trkpt lat="14.398105040129725" lon="120.9778289424488"><ele>39.0</ele><time>2026-05-05T14:37:49Z</time></trkpt><trkpt lat="14.398204682772525" lon="120.97783082734108"><ele>39.0</ele><time>2026-05-05T14:37:51Z</time></trkpt><trkpt lat="14.398323624994877" lon="120.9778117488641"><ele>39.0</ele><time>2026-05-05T14:37:53Z</time></trkpt><trkpt lat="14.39840739373743" lon="120.97780997684669"><ele>38.6</ele><time>2026-05-05T14:37:55Z</time></trkpt><trkpt lat="14.398483245064702" lon="120.97780793050332"><ele>38.2</ele><time>2026-05-05T14:37:57Z</time></trkpt><trkpt lat="14.398586202842612" lon="120.97778415277784"><ele>37.800000000000004</ele><time>2026-05-05T14:38:01Z</time></trkpt><trkpt lat="14.398721023393124" lon="120.97775157215364"><ele>37.4</ele><time>2026-05-05T14:38:03Z</time></trkpt><trkpt lat="14.398802098389568" lon="120.97773098150937"><ele>37.0</ele><time>2026-05-05T14:38:04Z</time></trkpt><trkpt lat="14.39889245603993" lon="120.97770990848115"><ele>37.0</ele><time>2026-05-05T14:38:05Z</time></trkpt><trkpt lat="14.39898743413222" lon="120.97768648823043"><ele>37.0</ele><time>2026-05-05T14:38:06Z</time></trkpt><trkpt lat="14.39909591274454" lon="120.97766327882577"><ele>37.0</ele><time>2026-05-05T14:38:07Z</time></trkpt><trkpt lat="14.399199920923076" lon="120.97765650749986"><ele>37.0</ele><time>2026-05-05T14:38:08Z</time></trkpt><trkpt lat="14.399293009026584" lon="120.97761831347529"><ele>37.0</ele><time>2026-05-05T14:38:09Z</time></trkpt><trkpt lat="14.399379271091997" lon="120.97760036001475"><ele>37.0</ele><time>2026-05-05T14:38:10Z</time></trkpt><trkpt lat="14.399463467455385" lon="120.9775845505122"><ele>37.0</ele><time>2026-05-05T14:38:11Z</time></trkpt><trkpt lat="14.399534669396344" lon="120.97757373308336"><ele>37.0</ele><time>2026-05-05T14:38:12Z</time></trkpt><trkpt lat="14.399612636788124" lon="120.97755747327545"><ele>37.0</ele><time>2026-05-05T14:38:13Z</time></trkpt><trkpt lat="14.399677833510173" lon="120.97753992852533"><ele>37.0</ele><time>2026-05-05T14:38:14Z</time></trkpt><trkpt lat="14.399801577809512" lon="120.9775168551457"><ele>37.0</ele><time>2026-05-05T14:38:16Z</time></trkpt><trkpt lat="14.399870582220444" lon="120.97749789347827"><ele>37.0</ele><time>2026-05-05T14:38:17Z</time></trkpt><trkpt lat="14.399968594527431" lon="120.97746842020206"><ele>37.0</ele><time>2026-05-05T14:38:19Z</time></trkpt><trkpt lat="14.40003285104794" lon="120.97745729933291"><ele>37.0</ele><time>2026-05-05T14:38:20Z</time></trkpt><trkpt lat="14.40009713663529" lon="120.97744371834118"><ele>37.0</ele><time>2026-05-05T14:38:21Z</time></trkpt><trkpt lat="14.40017627675483" lon="120.97742205775225"><ele>37.0</ele><time>2026-05-05T14:38:22Z</time></trkpt><trkpt lat="14.400256390211025" lon="120.97740129638643"><ele>37.0</ele><time>2026-05-05T14:38:23Z</time></trkpt><trkpt lat="14.400345854078227" lon="120.97738784460665"><ele>37.0</ele><time>2026-05-05T14:38:24Z</time></trkpt><trkpt lat="14.400450203648933" lon="120.97736937873978"><ele>37.0</ele><time>2026-05-05T14:38:25Z</time></trkpt><trkpt lat="14.400554140793043" lon="120.97734280353399"><ele>37.0</ele><time>2026-05-05T14:38:26Z</time></trkpt><trkpt lat="14.4006659572259" lon="120.97731769855251"><ele>37.0</ele><time>2026-05-05T14:38:27Z</time></trkpt><trkpt lat="14.40079600416762" lon="120.9773009580335"><ele>36.800000000000004</ele><time>2026-05-05T14:38:28Z</time></trkpt><trkpt lat="14.400910224037734" lon="120.97727266345787"><ele>36.6</ele><time>2026-05-05T14:38:29Z</time></trkpt><trkpt lat="14.401017795190974" lon="120.97724566971861"><ele>36.400000000000006</ele><time>2026-05-05T14:38:30Z</time></trkpt><trkpt lat="14.401119071312685" lon="120.97722198648414"><ele>36.2</ele><time>2026-05-05T14:38:31Z</time></trkpt><trkpt lat="14.401231178478673" lon="120.97720066943191"><ele>36.0</ele><time>2026-05-05T14:38:32Z</time></trkpt><trkpt lat="14.401347375205" lon="120.97717404972644"><ele>36.0</ele><time>2026-05-05T14:38:33Z</time></trkpt><trkpt lat="14.401452088815693" lon="120.9771459659933"><ele>36.0</ele><time>2026-05-05T14:38:34Z</time></trkpt><trkpt lat="14.401571141815566" lon="120.97711780114084"><ele>36.0</ele><time>2026-05-05T14:38:35Z</time></trkpt><trkpt lat="14.401692168798697" lon="120.97710779521947"><ele>36.0</ele><time>2026-05-05T14:38:36Z</time></trkpt><trkpt lat="14.401816257023166" lon="120.97710112528048"><ele>36.0</ele><time>2026-05-05T14:38:37Z</time></trkpt><trkpt lat="14.401931119246402" lon="120.97709554429852"><ele>36.0</ele><time>2026-05-05T14:38:38Z</time></trkpt><trkpt lat="14.402053851322192" lon="120.97709569864493"><ele>36.0</ele><time>2026-05-05T14:38:39Z</time></trkpt><trkpt lat="14.402173918926383" lon="120.97710277866805"><ele>36.0</ele><time>2026-05-05T14:38:40Z</time></trkpt><trkpt lat="14.402312039748201" lon="120.97711179320358"><ele>35.75</ele><time>2026-05-05T14:38:41Z</time></trkpt><trkpt lat="14.402439826619172" lon="120.97711193025772"><ele>35.5</ele><time>2026-05-05T14:38:42Z</time></trkpt><trkpt lat="14.402573031227567" lon="120.97711014361403"><ele>35.25</ele><time>2026-05-05T14:38:43Z</time></trkpt><trkpt lat="14.402696692080347" lon="120.97710868988905"><ele>35.0</ele><time>2026-05-05T14:38:44Z</time></trkpt><trkpt lat="14.402812727103239" lon="120.97710517766569"><ele>35.0</ele><time>2026-05-05T14:38:45Z</time></trkpt><trkpt lat="14.402931400502775" lon="120.97709777452268"><ele>35.0</ele><time>2026-05-05T14:38:46Z</time></trkpt><trkpt lat="14.403047502517644" lon="120.97708459241679"><ele>35.0</ele><time>2026-05-05T14:38:47Z</time></trkpt><trkpt lat="14.403171631375441" lon="120.97706659683405"><ele>35.0</ele><time>2026-05-05T14:38:48Z</time></trkpt><trkpt lat="14.403290349450684" lon="120.97704797716094"><ele>34.5</ele><time>2026-05-05T14:38:49Z</time></trkpt><trkpt lat="14.403414329866695" lon="120.97703286774613"><ele>34.0</ele><time>2026-05-05T14:38:50Z</time></trkpt><trkpt lat="14.4035399679959" lon="120.97701745899859"><ele>33.5</ele><time>2026-05-05T14:38:51Z</time></trkpt><trkpt lat="14.403669767554138" lon="120.97700081676841"><ele>33.0</ele><time>2026-05-05T14:38:52Z</time></trkpt><trkpt lat="14.403798965357295" lon="120.97698530780647"><ele>34.5</ele><time>2026-05-05T14:38:53Z</time></trkpt><trkpt lat="14.403927933103313" lon="120.97697745526662"><ele>36.0</ele><time>2026-05-05T14:38:54Z</time></trkpt><trkpt lat="14.404063230509928" lon="120.9769743826159"><ele>37.5</ele><time>2026-05-05T14:38:55Z</time></trkpt><trkpt lat="14.404196776216589" lon="120.97698541457146"><ele>39.0</ele><time>2026-05-05T14:38:56Z</time></trkpt><trkpt lat="14.404328772806396" lon="120.97700226223441"><ele>39.0</ele><time>2026-05-05T14:38:57Z</time></trkpt><trkpt lat="14.404451196601926" lon="120.9770254329885"><ele>39.0</ele><time>2026-05-05T14:38:58Z</time></trkpt><trkpt lat="14.404572418814414" lon="120.9770503637449"><ele>39.0</ele><time>2026-05-05T14:38:59Z</time></trkpt><trkpt lat="14.404687758117717" lon="120.97707878860368"><ele>39.0</ele><time>2026-05-05T14:39:00Z</time></trkpt><trkpt lat="14.404782307044526" lon="120.97710793449899"><ele>38.833333333333336</ele><time>2026-05-05T14:39:01Z</time></trkpt><trkpt lat="14.40487118386269" lon="120.9771438990789"><ele>38.666666666666664</ele><time>2026-05-05T14:39:02Z</time></trkpt><trkpt lat="14.404945475549319" lon="120.97717913687308"><ele>38.5</ele><time>2026-05-05T14:39:03Z</time></trkpt><trkpt lat="14.405024375148416" lon="120.97721503667384"><ele>38.33333333333333</ele><time>2026-05-05T14:39:04Z</time></trkpt><trkpt lat="14.405101467116221" lon="120.97724926769224"><ele>38.166666666666664</ele><time>2026-05-05T14:39:05Z</time></trkpt><trkpt lat="14.405173140842319" lon="120.97728351416012"><ele>38.0</ele><time>2026-05-05T14:39:06Z</time></trkpt><trkpt lat="14.405287268152174" lon="120.9773383044985"><ele>38.0</ele><time>2026-05-05T14:39:08Z</time></trkpt><trkpt lat="14.405396233460733" lon="120.97738587000897"><ele>38.0</ele><time>2026-05-05T14:39:10Z</time></trkpt><trkpt lat="14.405512195034417" lon="120.9774299475045"><ele>38.0</ele><time>2026-05-05T14:39:12Z</time></trkpt><trkpt lat="14.40559451289763" lon="120.97746366115658"><ele>38.0</ele><time>2026-05-05T14:39:14Z</time></trkpt><trkpt lat="14.405658949292686" lon="120.97748884157866"><ele>38.0</ele><time>2026-05-05T14:39:16Z</time></trkpt><trkpt lat="14.405749095195823" lon="120.97752576457422"><ele>37.666666666666664</ele><time>2026-05-05T14:39:18Z</time></trkpt><trkpt lat="14.405817433081468" lon="120.97755618423048"><ele>37.33333333333333</ele><time>2026-05-05T14:39:19Z</time></trkpt><trkpt lat="14.405887837532255" lon="120.97759130250572"><ele>37.0</ele><time>2026-05-05T14:39:20Z</time></trkpt><trkpt lat="14.405960068356963" lon="120.9776206804073"><ele>36.666666666666664</ele><time>2026-05-05T14:39:21Z</time></trkpt><trkpt lat="14.406025664002444" lon="120.97763964797818"><ele>36.333333333333336</ele><time>2026-05-05T14:39:22Z</time></trkpt><trkpt lat="14.40613733691445" lon="120.97765753014941"><ele>36.0</ele><time>2026-05-05T14:39:24Z</time></trkpt><trkpt lat="14.40624585657768" lon="120.97767407843163"><ele>36.0</ele><time>2026-05-05T14:39:26Z</time></trkpt><trkpt lat="14.406322016591009" lon="120.97767375388163"><ele>36.0</ele><time>2026-05-05T14:39:28Z</time></trkpt><trkpt lat="14.406391791550284" lon="120.97767215704094"><ele>36.0</ele><time>2026-05-05T14:39:31Z</time></trkpt><trkpt lat="14.406455538616806" lon="120.97767779177863"><ele>36.0</ele><time>2026-05-05T14:39:35Z</time></trkpt><trkpt lat="14.406563269274475" lon="120.97767515860274"><ele>36.0</ele><time>2026-05-05T14:39:44Z</time></trkpt><trkpt lat="14.40664624661026" lon="120.9776636582221"><ele>36.0</ele><time>2026-05-05T14:39:45Z</time></trkpt><trkpt lat="14.406754505157831" lon="120.97766106666485"><ele>35.0</ele><time>2026-05-05T14:39:46Z</time></trkpt><trkpt lat="14.40686745263672" lon="120.9776605078549"><ele>34.0</ele><time>2026-05-05T14:39:47Z</time></trkpt><trkpt lat="14.406987364291066" lon="120.97766386376945"><ele>33.0</ele><time>2026-05-05T14:39:48Z</time></trkpt><trkpt lat="14.407109720811532" lon="120.97769014207076"><ele>32.0</ele><time>2026-05-05T14:39:49Z</time></trkpt><trkpt lat="14.407238378341912" lon="120.97771061217132"><ele>31.5</ele><time>2026-05-05T14:39:50Z</time></trkpt><trkpt lat="14.407368579852806" lon="120.97773047465759"><ele>31.0</ele><time>2026-05-05T14:39:51Z</time></trkpt><trkpt lat="14.407497043701914" lon="120.97775170030529"><ele>30.5</ele><time>2026-05-05T14:39:52Z</time></trkpt><trkpt lat="14.4076243984013" lon="120.97775790211682"><ele>30.0</ele><time>2026-05-05T14:39:53Z</time></trkpt><trkpt lat="14.407731389830385" lon="120.97779540703903"><ele>30.0</ele><time>2026-05-05T14:39:54Z</time></trkpt><trkpt lat="14.40785579287937" lon="120.97780664233751"><ele>30.0</ele><time>2026-05-05T14:39:55Z</time></trkpt><trkpt lat="14.407978602006315" lon="120.97780887384116"><ele>30.0</ele><time>2026-05-05T14:39:56Z</time></trkpt><trkpt lat="14.408104669167091" lon="120.97780302819687"><ele>30.0</ele><time>2026-05-05T14:39:57Z</time></trkpt><trkpt lat="14.408222819834569" lon="120.97778492556805"><ele>29.75</ele><time>2026-05-05T14:39:58Z</time></trkpt><trkpt lat="14.408340067757495" lon="120.97775921523976"><ele>29.5</ele><time>2026-05-05T14:39:59Z</time></trkpt><trkpt lat="14.408456777761089" lon="120.97769366753481"><ele>29.25</ele><time>2026-05-05T14:40:00Z</time></trkpt><trkpt lat="14.408565412721972" lon="120.97762386733581"><ele>29.0</ele><time>2026-05-05T14:40:01Z</time></trkpt><trkpt lat="14.408674819468683" lon="120.97753136756691"><ele>29.75</ele><time>2026-05-05T14:40:02Z</time></trkpt><trkpt lat="14.408775366229902" lon="120.97744211371756"><ele>30.5</ele><time>2026-05-05T14:40:03Z</time></trkpt><trkpt lat="14.408875756970724" lon="120.97735195224477"><ele>31.25</ele><time>2026-05-05T14:40:04Z</time></trkpt><trkpt lat="14.408974084779306" lon="120.97725536549699"><ele>32.0</ele><time>2026-05-05T14:40:05Z</time></trkpt><trkpt lat="14.409036449185612" lon="120.97711857551194"><ele>32.0</ele><time>2026-05-05T14:40:06Z</time></trkpt><trkpt lat="14.409135804447539" lon="120.97702621357651"><ele>32.0</ele><time>2026-05-05T14:40:07Z</time></trkpt><trkpt lat="14.409227611479954" lon="120.97693875517967"><ele>32.0</ele><time>2026-05-05T14:40:08Z</time></trkpt><trkpt lat="14.409310218612562" lon="120.97685638009185"><ele>32.0</ele><time>2026-05-05T14:40:09Z</time></trkpt><trkpt lat="14.40943753395663" lon="120.97681023371405"><ele>32.0</ele><time>2026-05-05T14:40:10Z</time></trkpt><trkpt lat="14.409526752705215" lon="120.97672617028388"><ele>32.0</ele><time>2026-05-05T14:40:11Z</time></trkpt><trkpt lat="14.409619043993192" lon="120.97664023469416"><ele>32.0</ele><time>2026-05-05T14:40:12Z</time></trkpt><trkpt lat="14.409715806702822" lon="120.97655013537636"><ele>32.0</ele><time>2026-05-05T14:40:13Z</time></trkpt><trkpt lat="14.409816752310624" lon="120.97645907990425"><ele>31.5</ele><time>2026-05-05T14:40:14Z</time></trkpt><trkpt lat="14.409914019703558" lon="120.97637075777081"><ele>31.0</ele><time>2026-05-05T14:40:15Z</time></trkpt><trkpt lat="14.410016619564175" lon="120.97627759361335"><ele>30.5</ele><time>2026-05-05T14:40:16Z</time></trkpt><trkpt lat="14.410118726292872" lon="120.97618484098926"><ele>30.0</ele><time>2026-05-05T14:40:17Z</time></trkpt><trkpt lat="14.410216496844946" lon="120.97609597794936"><ele>30.0</ele><time>2026-05-05T14:40:18Z</time></trkpt><trkpt lat="14.410268927080672" lon="120.97597308659608"><ele>30.0</ele><time>2026-05-05T14:40:19Z</time></trkpt><trkpt lat="14.41035931616579" lon="120.97589681485263"><ele>30.0</ele><time>2026-05-05T14:40:20Z</time></trkpt><trkpt lat="14.410443673981318" lon="120.97582817374747"><ele>30.0</ele><time>2026-05-05T14:40:21Z</time></trkpt><trkpt lat="14.410519498687442" lon="120.9757619425075"><ele>29.666666666666668</ele><time>2026-05-05T14:40:22Z</time></trkpt><trkpt lat="14.410619942706449" lon="120.97574766892609"><ele>29.333333333333336</ele><time>2026-05-05T14:40:23Z</time></trkpt><trkpt lat="14.410680424382882" lon="120.97569329126345"><ele>29.0</ele><time>2026-05-05T14:40:24Z</time></trkpt><trkpt lat="14.410736898140048" lon="120.97564270708907"><ele>28.666666666666668</ele><time>2026-05-05T14:40:25Z</time></trkpt><trkpt lat="14.410785704451406" lon="120.97559899067508"><ele>28.333333333333336</ele><time>2026-05-05T14:40:26Z</time></trkpt><trkpt lat="14.410841824029164" lon="120.97554872408924"><ele>28.0</ele><time>2026-05-05T14:40:27Z</time></trkpt><trkpt lat="14.410907750235069" lon="120.97549978843335"><ele>28.0</ele><time>2026-05-05T14:40:28Z</time></trkpt><trkpt lat="14.410986400631467" lon="120.9754259795106"><ele>28.0</ele><time>2026-05-05T14:40:29Z</time></trkpt><trkpt lat="14.41107501860963" lon="120.97535189069498"><ele>28.0</ele><time>2026-05-05T14:40:30Z</time></trkpt><trkpt lat="14.411167011981624" lon="120.97528169885288"><ele>28.0</ele><time>2026-05-05T14:40:31Z</time></trkpt><trkpt lat="14.411275392053522" lon="120.97519827225341"><ele>28.0</ele><time>2026-05-05T14:40:32Z</time></trkpt><trkpt lat="14.411379298220883" lon="120.97511828952362"><ele>28.0</ele><time>2026-05-05T14:40:33Z</time></trkpt><trkpt lat="14.41149096617562" lon="120.97503233272033"><ele>28.0</ele><time>2026-05-05T14:40:34Z</time></trkpt><trkpt lat="14.411600084163371" lon="120.97495732915067"><ele>28.0</ele><time>2026-05-05T14:40:35Z</time></trkpt><trkpt lat="14.411722630570504" lon="120.97488726378832"><ele>28.0</ele><time>2026-05-05T14:40:36Z</time></trkpt><trkpt lat="14.411846463446695" lon="120.97481939429389"><ele>28.0</ele><time>2026-05-05T14:40:37Z</time></trkpt><trkpt lat="14.411975509430958" lon="120.97475660941362"><ele>28.0</ele><time>2026-05-05T14:40:38Z</time></trkpt><trkpt lat="14.412101861274403" lon="120.97469593700073"><ele>28.0</ele><time>2026-05-05T14:40:39Z</time></trkpt><trkpt lat="14.41222949268118" lon="120.97463483622698"><ele>27.75</ele><time>2026-05-05T14:40:40Z</time></trkpt><trkpt lat="14.412353040316471" lon="120.9745756904703"><ele>27.5</ele><time>2026-05-05T14:40:41Z</time></trkpt><trkpt lat="14.412477904723852" lon="120.97451591433008"><ele>27.25</ele><time>2026-05-05T14:40:42Z</time></trkpt><trkpt lat="14.41260275555126" lon="120.97445614469582"><ele>27.0</ele><time>2026-05-05T14:40:43Z</time></trkpt><trkpt lat="14.412723961162826" lon="120.97440758738203"><ele>27.0</ele><time>2026-05-05T14:40:44Z</time></trkpt><trkpt lat="14.4128486698992" lon="120.97436437308104"><ele>27.0</ele><time>2026-05-05T14:40:45Z</time></trkpt><trkpt lat="14.412975782849278" lon="120.97432382987789"><ele>27.0</ele><time>2026-05-05T14:40:46Z</time></trkpt><trkpt lat="14.413107626873998" lon="120.97428530043406"><ele>27.0</ele><time>2026-05-05T14:40:47Z</time></trkpt><trkpt lat="14.413240336829688" lon="120.97424494916203"><ele>26.5</ele><time>2026-05-05T14:40:48Z</time></trkpt><trkpt lat="14.413363621377723" lon="120.97423050348144"><ele>26.0</ele><time>2026-05-05T14:40:49Z</time></trkpt><trkpt lat="14.413500419457238" lon="120.97422029235457"><ele>25.5</ele><time>2026-05-05T14:40:50Z</time></trkpt><trkpt lat="14.413642593727529" lon="120.97422252110422"><ele>25.0</ele><time>2026-05-05T14:40:51Z</time></trkpt><trkpt lat="14.413788280966084" lon="120.97422480492365"><ele>25.0</ele><time>2026-05-05T14:40:52Z</time></trkpt><trkpt lat="14.41393162042331" lon="120.97423221284814"><ele>25.0</ele><time>2026-05-05T14:40:53Z</time></trkpt><trkpt lat="14.41407610843478" lon="120.97425086826264"><ele>25.0</ele><time>2026-05-05T14:40:54Z</time></trkpt><trkpt lat="14.414221220636156" lon="120.97426914506731"><ele>25.0</ele><time>2026-05-05T14:40:55Z</time></trkpt><trkpt lat="14.41436429228718" lon="120.97428714320544"><ele>25.0</ele><time>2026-05-05T14:40:56Z</time></trkpt><trkpt lat="14.414505856705357" lon="120.9743089947482"><ele>25.0</ele><time>2026-05-05T14:40:57Z</time></trkpt><trkpt lat="14.414641292109339" lon="120.97433015899139"><ele>25.0</ele><time>2026-05-05T14:40:58Z</time></trkpt><trkpt lat="14.414768241974304" lon="120.97434999719839"><ele>25.0</ele><time>2026-05-05T14:40:59Z</time></trkpt><trkpt lat="14.414899182666964" lon="120.97437037179238"><ele>25.25</ele><time>2026-05-05T14:41:00Z</time></trkpt><trkpt lat="14.415032466347858" lon="120.97439111825389"><ele>25.5</ele><time>2026-05-05T14:41:01Z</time></trkpt><trkpt lat="14.415159256301422" lon="120.97441085392077"><ele>25.75</ele><time>2026-05-05T14:41:02Z</time></trkpt><trkpt lat="14.415289098460159" lon="120.97443106468845"><ele>26.0</ele><time>2026-05-05T14:41:03Z</time></trkpt><trkpt lat="14.415417435033067" lon="120.97445065277878"><ele>25.75</ele><time>2026-05-05T14:41:04Z</time></trkpt><trkpt lat="14.41554733075764" lon="120.9744701075771"><ele>25.5</ele><time>2026-05-05T14:41:05Z</time></trkpt><trkpt lat="14.415679762344364" lon="120.9744907496321"><ele>25.25</ele><time>2026-05-05T14:41:06Z</time></trkpt><trkpt lat="14.415814488504049" lon="120.97451218334233"><ele>25.0</ele><time>2026-05-05T14:41:07Z</time></trkpt><trkpt lat="14.41594440696646" lon="120.97453290515352"><ele>25.0</ele><time>2026-05-05T14:41:08Z</time></trkpt><trkpt lat="14.416078903068689" lon="120.97455442815831"><ele>25.0</ele><time>2026-05-05T14:41:09Z</time></trkpt><trkpt lat="14.416208654581991" lon="120.9745751919058"><ele>25.0</ele><time>2026-05-05T14:41:10Z</time></trkpt><trkpt lat="14.416343632492158" lon="120.97459629397754"><ele>25.0</ele><time>2026-05-05T14:41:11Z</time></trkpt><trkpt lat="14.41647711820244" lon="120.9746135848162"><ele>24.5</ele><time>2026-05-05T14:41:12Z</time></trkpt><trkpt lat="14.416608506101515" lon="120.97463368827512"><ele>24.0</ele><time>2026-05-05T14:41:13Z</time></trkpt><trkpt lat="14.416744080222463" lon="120.97463598196903"><ele>23.5</ele><time>2026-05-05T14:41:14Z</time></trkpt><trkpt lat="14.4168792186422" lon="120.97462536434561"><ele>23.0</ele><time>2026-05-05T14:41:15Z</time></trkpt><trkpt lat="14.41701337904217" lon="120.97463183808766"><ele>23.0</ele><time>2026-05-05T14:41:16Z</time></trkpt><trkpt lat="14.417151451475169" lon="120.97464856057316"><ele>23.0</ele><time>2026-05-05T14:41:17Z</time></trkpt><trkpt lat="14.417284446127637" lon="120.9746526671151"><ele>23.0</ele><time>2026-05-05T14:41:18Z</time></trkpt><trkpt lat="14.41740959996128" lon="120.97465430095824"><ele>23.0</ele><time>2026-05-05T14:41:19Z</time></trkpt><trkpt lat="14.417531735679656" lon="120.97465588419426"><ele>23.0</ele><time>2026-05-05T14:41:20Z</time></trkpt><trkpt lat="14.417652786618959" lon="120.97465798065029"><ele>23.0</ele><time>2026-05-05T14:41:21Z</time></trkpt><trkpt lat="14.417756114708766" lon="120.9746606289547"><ele>23.0</ele><time>2026-05-05T14:41:22Z</time></trkpt><trkpt lat="14.417871818857316" lon="120.97466376612107"><ele>23.0</ele><time>2026-05-05T14:41:23Z</time></trkpt><trkpt lat="14.417987923804708" lon="120.97466691415627"><ele>23.0</ele><time>2026-05-05T14:41:24Z</time></trkpt><trkpt lat="14.418094061051148" lon="120.97467064994686"><ele>23.0</ele><time>2026-05-05T14:41:25Z</time></trkpt><trkpt lat="14.418194382560207" lon="120.97467440978079"><ele>23.0</ele><time>2026-05-05T14:41:26Z</time></trkpt><trkpt lat="14.41830449029542" lon="120.97467853638125"><ele>23.0</ele><time>2026-05-05T14:41:27Z</time></trkpt><trkpt lat="14.41841104212437" lon="120.97468252971666"><ele>23.0</ele><time>2026-05-05T14:41:28Z</time></trkpt><trkpt lat="14.418521249584618" lon="120.97470374808375"><ele>23.0</ele><time>2026-05-05T14:41:29Z</time></trkpt><trkpt lat="14.418623247515495" lon="120.97472255193813"><ele>23.0</ele><time>2026-05-05T14:41:30Z</time></trkpt><trkpt lat="14.418717342261846" lon="120.97473989879724"><ele>23.0</ele><time>2026-05-05T14:41:31Z</time></trkpt><trkpt lat="14.418795444527962" lon="120.9747542973564"><ele>23.0</ele><time>2026-05-05T14:41:32Z</time></trkpt><trkpt lat="14.41886660953706" lon="120.97476741700193"><ele>23.0</ele><time>2026-05-05T14:41:33Z</time></trkpt><trkpt lat="14.418952898246658" lon="120.9747833247771"><ele>23.0</ele><time>2026-05-05T14:41:34Z</time></trkpt><trkpt lat="14.419052663965784" lon="120.97480171710556"><ele>23.5</ele><time>2026-05-05T14:41:35Z</time></trkpt><trkpt lat="14.419158249142663" lon="120.9748211823333"><ele>24.0</ele><time>2026-05-05T14:41:36Z</time></trkpt><trkpt lat="14.41926674678577" lon="120.97485471307897"><ele>24.5</ele><time>2026-05-05T14:41:37Z</time></trkpt><trkpt lat="14.41938242733032" lon="120.97487836902984"><ele>25.0</ele><time>2026-05-05T14:41:38Z</time></trkpt><trkpt lat="14.419496383623658" lon="120.97491667666009"><ele>25.0</ele><time>2026-05-05T14:41:39Z</time></trkpt><trkpt lat="14.419604367841067" lon="120.97495130758759"><ele>25.0</ele><time>2026-05-05T14:41:40Z</time></trkpt><trkpt lat="14.419709105409078" lon="120.97497872964288"><ele>25.0</ele><time>2026-05-05T14:41:41Z</time></trkpt><trkpt lat="14.419808794457138" lon="120.97502638462667"><ele>25.0</ele><time>2026-05-05T14:41:42Z</time></trkpt><trkpt lat="14.419922539240526" lon="120.97506178513916"><ele>24.5</ele><time>2026-05-05T14:41:43Z</time></trkpt><trkpt lat="14.420031751749942" lon="120.97509568071634"><ele>24.0</ele><time>2026-05-05T14:41:44Z</time></trkpt><trkpt lat="14.420142547191437" lon="120.97513006756535"><ele>23.5</ele><time>2026-05-05T14:41:45Z</time></trkpt><trkpt lat="14.420255514472814" lon="120.97516512822362"><ele>23.0</ele><time>2026-05-05T14:41:46Z</time></trkpt><trkpt lat="14.420369568545315" lon="120.97518118670851"><ele>22.75</ele><time>2026-05-05T14:41:47Z</time></trkpt><trkpt lat="14.42048727384109" lon="120.97520336583216"><ele>22.5</ele><time>2026-05-05T14:41:48Z</time></trkpt><trkpt lat="14.420615730370452" lon="120.97519334584116"><ele>22.25</ele><time>2026-05-05T14:41:49Z</time></trkpt><trkpt lat="14.420734656685132" lon="120.97519605553686"><ele>22.0</ele><time>2026-05-05T14:41:50Z</time></trkpt><trkpt lat="14.42085805954322" lon="120.97519107409923"><ele>22.0</ele><time>2026-05-05T14:41:51Z</time></trkpt><trkpt lat="14.420972553564887" lon="120.97518371807902"><ele>22.0</ele><time>2026-05-05T14:41:52Z</time></trkpt><trkpt lat="14.421099336088313" lon="120.97517615908139"><ele>22.0</ele><time>2026-05-05T14:41:53Z</time></trkpt><trkpt lat="14.421221133482458" lon="120.97516889729634"><ele>22.0</ele><time>2026-05-05T14:41:54Z</time></trkpt><trkpt lat="14.421348213855211" lon="120.97516132090504"><ele>22.400000000000002</ele><time>2026-05-05T14:41:55Z</time></trkpt><trkpt lat="14.42147295549614" lon="120.97514270878683"><ele>22.8</ele><time>2026-05-05T14:41:56Z</time></trkpt><trkpt lat="14.42159082193441" lon="120.97512234695527"><ele>23.2</ele><time>2026-05-05T14:41:57Z</time></trkpt><trkpt lat="14.421695178946694" lon="120.97510431891843"><ele>23.6</ele><time>2026-05-05T14:41:58Z</time></trkpt><trkpt lat="14.421781688145916" lon="120.97508937416056"><ele>24.0</ele><time>2026-05-05T14:41:59Z</time></trkpt><trkpt lat="14.421867843780673" lon="120.97507449047608"><ele>24.0</ele><time>2026-05-05T14:42:00Z</time></trkpt><trkpt lat="14.421949252155798" lon="120.97506042690007"><ele>24.0</ele><time>2026-05-05T14:42:01Z</time></trkpt><trkpt lat="14.422031507253934" lon="120.97504621704688"><ele>24.0</ele><time>2026-05-05T14:42:02Z</time></trkpt><trkpt lat="14.42213104947059" lon="120.97503133351856"><ele>24.0</ele><time>2026-05-05T14:42:03Z</time></trkpt><trkpt lat="14.422234525315885" lon="120.975018375385"><ele>24.0</ele><time>2026-05-05T14:42:04Z</time></trkpt><trkpt lat="14.422348764724854" lon="120.97500729040661"><ele>24.5</ele><time>2026-05-05T14:42:05Z</time></trkpt><trkpt lat="14.42246137237067" lon="120.974998344574"><ele>25.0</ele><time>2026-05-05T14:42:06Z</time></trkpt><trkpt lat="14.422577017813024" lon="120.97499609735016"><ele>25.5</ele><time>2026-05-05T14:42:07Z</time></trkpt><trkpt lat="14.422698451741866" lon="120.97499027792365"><ele>26.0</ele><time>2026-05-05T14:42:08Z</time></trkpt><trkpt lat="14.422822565048227" lon="120.97498624108522"><ele>26.0</ele><time>2026-05-05T14:42:09Z</time></trkpt><trkpt lat="14.422947818364369" lon="120.97498212287496"><ele>26.0</ele><time>2026-05-05T14:42:10Z</time></trkpt><trkpt lat="14.42307600976543" lon="120.97497922832189"><ele>26.0</ele><time>2026-05-05T14:42:11Z</time></trkpt><trkpt lat="14.423207071271742" lon="120.97498015591118"><ele>26.0</ele><time>2026-05-05T14:42:12Z</time></trkpt><trkpt lat="14.42334820241861" lon="120.9749801559117"><ele>25.25</ele><time>2026-05-05T14:42:13Z</time></trkpt><trkpt lat="14.423468385846986" lon="120.97498015591303"><ele>24.5</ele><time>2026-05-05T14:42:14Z</time></trkpt><trkpt lat="14.423588339772905" lon="120.97498015591334"><ele>23.75</ele><time>2026-05-05T14:42:15Z</time></trkpt><trkpt lat="14.423712368401768" lon="120.97498015591447"><ele>23.0</ele><time>2026-05-05T14:42:16Z</time></trkpt><trkpt lat="14.42383815952377" lon="120.97497939942505"><ele>23.0</ele><time>2026-05-05T14:42:17Z</time></trkpt><trkpt lat="14.423965494205952" lon="120.97497478254485"><ele>23.0</ele><time>2026-05-05T14:42:18Z</time></trkpt><trkpt lat="14.42408812455099" lon="120.97497084456695"><ele>23.0</ele><time>2026-05-05T14:42:19Z</time></trkpt><trkpt lat="14.424204934407296" lon="120.97496786672991"><ele>23.0</ele><time>2026-05-05T14:42:20Z</time></trkpt><trkpt lat="14.424318272346836" lon="120.97496472567"><ele>23.0</ele><time>2026-05-05T14:42:21Z</time></trkpt><trkpt lat="14.424426387709156" lon="120.97496157803702"><ele>23.0</ele><time>2026-05-05T14:42:22Z</time></trkpt><trkpt lat="14.424524199472753" lon="120.97495873038028"><ele>23.0</ele><time>2026-05-05T14:42:23Z</time></trkpt><trkpt lat="14.424615807002997" lon="120.97495606334985"><ele>23.0</ele><time>2026-05-05T14:42:24Z</time></trkpt><trkpt lat="14.424698730441285" lon="120.97495364914597"><ele>23.0</ele><time>2026-05-05T14:42:25Z</time></trkpt><trkpt lat="14.42476290163965" lon="120.97493756832851"><ele>23.0</ele><time>2026-05-05T14:42:26Z</time></trkpt><trkpt lat="14.424879659743976" lon="120.97494521412165"><ele>22.833333333333336</ele><time>2026-05-05T14:42:28Z</time></trkpt><trkpt lat="14.424951956294539" lon="120.97494135963099"><ele>22.666666666666668</ele><time>2026-05-05T14:42:29Z</time></trkpt><trkpt lat="14.425028849259116" lon="120.97493364350385"><ele>22.5</ele><time>2026-05-05T14:42:30Z</time></trkpt><trkpt lat="14.425093869883131" lon="120.97493722962585"><ele>22.333333333333332</ele><time>2026-05-05T14:42:31Z</time></trkpt><trkpt lat="14.425156757537167" lon="120.97494990644942"><ele>22.166666666666664</ele><time>2026-05-05T14:42:32Z</time></trkpt><trkpt lat="14.42528827992428" lon="120.97494976692322"><ele>22.0</ele><time>2026-05-05T14:42:34Z</time></trkpt><trkpt lat="14.42540101593769" lon="120.97495053570285"><ele>22.333333333333332</ele><time>2026-05-05T14:42:36Z</time></trkpt><trkpt lat="14.425480041876648" lon="120.9749521001"><ele>22.666666666666664</ele><time>2026-05-05T14:42:38Z</time></trkpt><trkpt lat="14.42555369492174" lon="120.97495382874233"><ele>23.0</ele><time>2026-05-05T14:42:41Z</time></trkpt><trkpt lat="14.425627673528888" lon="120.97495556537389"><ele>23.333333333333332</ele><time>2026-05-05T14:42:43Z</time></trkpt><trkpt lat="14.42570239551429" lon="120.97495731910374"><ele>23.666666666666668</ele><time>2026-05-05T14:42:46Z</time></trkpt><trkpt lat="14.42578911401253" lon="120.97495935439166"><ele>24.0</ele><time>2026-05-05T14:42:49Z</time></trkpt><trkpt lat="14.425881672180735" lon="120.97496170855992"><ele>24.0</ele><time>2026-05-05T14:42:52Z</time></trkpt><trkpt lat="14.425946302901602" lon="120.9749647619805"><ele>24.0</ele><time>2026-05-05T14:42:54Z</time></trkpt><trkpt lat="14.426025255321736" lon="120.97496797562515"><ele>24.0</ele><time>2026-05-05T14:42:57Z</time></trkpt><trkpt lat="14.42611895669378" lon="120.97497109510373"><ele>24.0</ele><time>2026-05-05T14:43:00Z</time></trkpt><trkpt lat="14.426255804449696" lon="120.9749756510034"><ele>24.0</ele><time>2026-05-05T14:43:02Z</time></trkpt><trkpt lat="14.42634793760858" lon="120.97498059166847"><ele>23.75</ele><time>2026-05-05T14:43:03Z</time></trkpt><trkpt lat="14.426458698613107" lon="120.97498601683527"><ele>23.5</ele><time>2026-05-05T14:43:04Z</time></trkpt><trkpt lat="14.42657655204637" lon="120.97499268003494"><ele>23.25</ele><time>2026-05-05T14:43:05Z</time></trkpt><trkpt lat="14.426697089795514" lon="120.97500400242623"><ele>23.0</ele><time>2026-05-05T14:43:06Z</time></trkpt><trkpt lat="14.426814819042942" lon="120.97501180859825"><ele>23.0</ele><time>2026-05-05T14:43:07Z</time></trkpt><trkpt lat="14.426921249033992" lon="120.9750178151409"><ele>23.0</ele><time>2026-05-05T14:43:08Z</time></trkpt><trkpt lat="14.427033255779198" lon="120.97502443631257"><ele>23.0</ele><time>2026-05-05T14:43:09Z</time></trkpt><trkpt lat="14.42714674173287" lon="120.97503121713143"><ele>23.0</ele><time>2026-05-05T14:43:10Z</time></trkpt><trkpt lat="14.427266934433405" lon="120.97503839868106"><ele>22.599999999999998</ele><time>2026-05-05T14:43:11Z</time></trkpt><trkpt lat="14.42737864790717" lon="120.9750486014465"><ele>22.2</ele><time>2026-05-05T14:43:12Z</time></trkpt><trkpt lat="14.427480004021337" lon="120.97505824015657"><ele>21.8</ele><time>2026-05-05T14:43:13Z</time></trkpt><trkpt lat="14.427571430049209" lon="120.97506693454022"><ele>21.4</ele><time>2026-05-05T14:43:14Z</time></trkpt><trkpt lat="14.427656179366075" lon="120.97507499398463"><ele>21.0</ele><time>2026-05-05T14:43:15Z</time></trkpt><trkpt lat="14.427735723011525" lon="120.97508255838399"><ele>21.0</ele><time>2026-05-05T14:43:16Z</time></trkpt><trkpt lat="14.427816283832941" lon="120.97509106033283"><ele>21.0</ele><time>2026-05-05T14:43:17Z</time></trkpt><trkpt lat="14.427909656262207" lon="120.97508551933247"><ele>21.0</ele><time>2026-05-05T14:43:18Z</time></trkpt><trkpt lat="14.4279838443883" lon="120.97508056327631"><ele>21.0</ele><time>2026-05-05T14:43:19Z</time></trkpt><trkpt lat="14.428058086620467" lon="120.97507560639608"><ele>21.0</ele><time>2026-05-05T14:43:20Z</time></trkpt><trkpt lat="14.428130368587166" lon="120.9750707803954"><ele>21.0</ele><time>2026-05-05T14:43:21Z</time></trkpt><trkpt lat="14.428215993777103" lon="120.97506506351652"><ele>20.666666666666668</ele><time>2026-05-05T14:43:22Z</time></trkpt><trkpt lat="14.428291163487962" lon="120.97506004471276"><ele>20.333333333333332</ele><time>2026-05-05T14:43:23Z</time></trkpt><trkpt lat="14.428365751597065" lon="120.97505517670255"><ele>20.0</ele><time>2026-05-05T14:43:24Z</time></trkpt><trkpt lat="14.428441116656561" lon="120.9750503420668"><ele>19.666666666666664</ele><time>2026-05-05T14:43:25Z</time></trkpt><trkpt lat="14.428527614702286" lon="120.97504479325578"><ele>19.333333333333332</ele><time>2026-05-05T14:43:26Z</time></trkpt><trkpt lat="14.428597950909081" lon="120.97504028121934"><ele>19.0</ele><time>2026-05-05T14:43:27Z</time></trkpt><trkpt lat="14.428675128188612" lon="120.97503506321424"><ele>19.0</ele><time>2026-05-05T14:43:28Z</time></trkpt><trkpt lat="14.428756305549621" lon="120.97502958248025"><ele>19.0</ele><time>2026-05-05T14:43:29Z</time></trkpt><trkpt lat="14.428842022969103" lon="120.97502379522251"><ele>19.0</ele><time>2026-05-05T14:43:30Z</time></trkpt><trkpt lat="14.428913478810786" lon="120.97501897084261"><ele>19.0</ele><time>2026-05-05T14:43:31Z</time></trkpt><trkpt lat="14.428986942024263" lon="120.97501289804788"><ele>19.0</ele><time>2026-05-05T14:43:32Z</time></trkpt><trkpt lat="14.42905869368117" lon="120.97500594992803"><ele>19.0</ele><time>2026-05-05T14:43:33Z</time></trkpt><trkpt lat="14.429130662410278" lon="120.97499898078591"><ele>19.0</ele><time>2026-05-05T14:43:34Z</time></trkpt><trkpt lat="14.429203150361962" lon="120.97499196136609"><ele>19.0</ele><time>2026-05-05T14:43:35Z</time></trkpt><trkpt lat="14.42926961099225" lon="120.97498552558588"><ele>19.0</ele><time>2026-05-05T14:43:36Z</time></trkpt><trkpt lat="14.429342013819396" lon="120.97498131436885"><ele>19.0</ele><time>2026-05-05T14:43:37Z</time></trkpt><trkpt lat="14.429415861368804" lon="120.97497598597757"><ele>19.0</ele><time>2026-05-05T14:43:38Z</time></trkpt><trkpt lat="14.42948051971824" lon="120.97497050516476"><ele>19.0</ele><time>2026-05-05T14:43:39Z</time></trkpt><trkpt lat="14.429601463571316" lon="120.97496026000925"><ele>19.2</ele><time>2026-05-05T14:43:41Z</time></trkpt><trkpt lat="14.429730008773786" lon="120.97494937098706"><ele>19.4</ele><time>2026-05-05T14:43:43Z</time></trkpt><trkpt lat="14.42988070760563" lon="120.97493489680042"><ele>19.6</ele><time>2026-05-05T14:43:45Z</time></trkpt><trkpt lat="14.4299620961626" lon="120.97492723184487"><ele>19.8</ele><time>2026-05-05T14:43:46Z</time></trkpt><trkpt lat="14.43003956939506" lon="120.97492289092122"><ele>20.0</ele><time>2026-05-05T14:43:47Z</time></trkpt><trkpt lat="14.43011021575626" lon="120.97491873424211"><ele>20.0</ele><time>2026-05-05T14:43:48Z</time></trkpt><trkpt lat="14.430198432859793" lon="120.97491354373585"><ele>20.0</ele><time>2026-05-05T14:43:49Z</time></trkpt><trkpt lat="14.430294709130823" lon="120.97490787904621"><ele>20.0</ele><time>2026-05-05T14:43:50Z</time></trkpt><trkpt lat="14.430389998996727" lon="120.97490227239388"><ele>20.0</ele><time>2026-05-05T14:43:51Z</time></trkpt><trkpt lat="14.430465418926023" lon="120.97489783521316"><ele>20.0</ele><time>2026-05-05T14:43:52Z</time></trkpt><trkpt lat="14.430547375188896" lon="120.97489301308232"><ele>20.0</ele><time>2026-05-05T14:43:53Z</time></trkpt><trkpt lat="14.430616527038104" lon="120.97488894433577"><ele>19.833333333333336</ele><time>2026-05-05T14:43:54Z</time></trkpt><trkpt lat="14.430751642666197" lon="120.97488099442083"><ele>19.666666666666668</ele><time>2026-05-05T14:43:56Z</time></trkpt><trkpt lat="14.430828782409021" lon="120.97487645566223"><ele>19.5</ele><time>2026-05-05T14:43:57Z</time></trkpt><trkpt lat="14.430898611799998" lon="120.97487204424664"><ele>19.333333333333332</ele><time>2026-05-05T14:43:58Z</time></trkpt><trkpt lat="14.43096660581281" lon="120.97486826905724"><ele>19.166666666666664</ele><time>2026-05-05T14:43:59Z</time></trkpt><trkpt lat="14.431043751555508" lon="120.97486481925847"><ele>19.0</ele><time>2026-05-05T14:44:00Z</time></trkpt><trkpt lat="14.431123457275506" lon="120.9748621050836"><ele>19.0</ele><time>2026-05-05T14:44:01Z</time></trkpt><trkpt lat="14.431196798475414" lon="120.97485960763505"><ele>19.0</ele><time>2026-05-05T14:44:02Z</time></trkpt><trkpt lat="14.431266478000596" lon="120.97485723487571"><ele>19.0</ele><time>2026-05-05T14:44:03Z</time></trkpt><trkpt lat="14.431331893856273" lon="120.9748550073071"><ele>19.0</ele><time>2026-05-05T14:44:04Z</time></trkpt><trkpt lat="14.431469192240439" lon="120.97485033195771"><ele>19.0</ele><time>2026-05-05T14:44:06Z</time></trkpt><trkpt lat="14.431545918920841" lon="120.97484575385847"><ele>19.0</ele><time>2026-05-05T14:44:07Z</time></trkpt><trkpt lat="14.43162672459364" lon="120.974840671199"><ele>19.0</ele><time>2026-05-05T14:44:08Z</time></trkpt><trkpt lat="14.431713932529382" lon="120.9748351858367"><ele>19.0</ele><time>2026-05-05T14:44:09Z</time></trkpt><trkpt lat="14.43179934952394" lon="120.97482981312653"><ele>19.0</ele><time>2026-05-05T14:44:10Z</time></trkpt><trkpt lat="14.431875861083874" lon="120.97482500056672"><ele>19.0</ele><time>2026-05-05T14:44:11Z</time></trkpt><trkpt lat="14.431959220963233" lon="120.9748197572422"><ele>19.0</ele><time>2026-05-05T14:44:12Z</time></trkpt><trkpt lat="14.43204441118757" lon="120.97481441820872"><ele>19.0</ele><time>2026-05-05T14:44:13Z</time></trkpt><trkpt lat="14.432153751278136" lon="120.97480756253151"><ele>19.0</ele><time>2026-05-05T14:44:14Z</time></trkpt><trkpt lat="14.432265986260349" lon="120.97480052534206"><ele>19.0</ele><time>2026-05-05T14:44:15Z</time></trkpt><trkpt lat="14.432390108121167" lon="120.97478963176276"><ele>19.0</ele><time>2026-05-05T14:44:16Z</time></trkpt><trkpt lat="14.432506485704634" lon="120.97477871193728"><ele>19.0</ele><time>2026-05-05T14:44:17Z</time></trkpt><trkpt lat="14.432621123186196" lon="120.97476795538914"><ele>19.0</ele><time>2026-05-05T14:44:18Z</time></trkpt><trkpt lat="14.432745566256987" lon="120.97475795546995"><ele>19.0</ele><time>2026-05-05T14:44:19Z</time></trkpt><trkpt lat="14.432865041617164" lon="120.9747481761568"><ele>19.0</ele><time>2026-05-05T14:44:20Z</time></trkpt><trkpt lat="14.432983586539542" lon="120.97473806317986"><ele>19.0</ele><time>2026-05-05T14:44:21Z</time></trkpt><trkpt lat="14.433110626577992" lon="120.97472722549749"><ele>19.5</ele><time>2026-05-05T14:44:22Z</time></trkpt><trkpt lat="14.43324197061538" lon="120.9747043585546"><ele>20.0</ele><time>2026-05-05T14:44:23Z</time></trkpt><trkpt lat="14.433376530542407" lon="120.97469760698627"><ele>20.5</ele><time>2026-05-05T14:44:24Z</time></trkpt><trkpt lat="14.433511674900528" lon="120.9747038073242"><ele>21.0</ele><time>2026-05-05T14:44:25Z</time></trkpt><trkpt lat="14.433646630818025" lon="120.97469830839306"><ele>21.0</ele><time>2026-05-05T14:44:26Z</time></trkpt><trkpt lat="14.433782447759246" lon="120.97469299553623"><ele>21.0</ele><time>2026-05-05T14:44:27Z</time></trkpt><trkpt lat="14.433921261769742" lon="120.9746834254849"><ele>21.0</ele><time>2026-05-05T14:44:28Z</time></trkpt><trkpt lat="14.434053009351436" lon="120.97467315086527"><ele>21.0</ele><time>2026-05-05T14:44:29Z</time></trkpt><trkpt lat="14.434176977025063" lon="120.97466348297436"><ele>20.25</ele><time>2026-05-05T14:44:30Z</time></trkpt><trkpt lat="14.434290988310439" lon="120.97465459156025"><ele>19.5</ele><time>2026-05-05T14:44:31Z</time></trkpt><trkpt lat="14.434402653230475" lon="120.9746554847933"><ele>18.75</ele><time>2026-05-05T14:44:32Z</time></trkpt><trkpt lat="14.434535143983092" lon="120.97465934129617"><ele>18.0</ele><time>2026-05-05T14:44:33Z</time></trkpt><trkpt lat="14.434647254102668" lon="120.97466260456773"><ele>17.666666666666668</ele><time>2026-05-05T14:44:34Z</time></trkpt><trkpt lat="14.434749149354678" lon="120.97466552786744"><ele>17.333333333333332</ele><time>2026-05-05T14:44:35Z</time></trkpt><trkpt lat="14.43482445513603" lon="120.97465150287147"><ele>17.0</ele><time>2026-05-05T14:44:36Z</time></trkpt><trkpt lat="14.434920584854925" lon="120.97467041266246"><ele>16.666666666666664</ele><time>2026-05-05T14:44:38Z</time></trkpt><trkpt lat="14.435000390640988" lon="120.97467268660819"><ele>16.333333333333332</ele><time>2026-05-05T14:44:40Z</time></trkpt><trkpt lat="14.435068487163548" lon="120.97467462687679"><ele>16.0</ele><time>2026-05-05T14:44:41Z</time></trkpt><trkpt lat="14.435149419294426" lon="120.97466119405499"><ele>16.0</ele><time>2026-05-05T14:44:42Z</time></trkpt><trkpt lat="14.435235540680651" lon="120.97466310249169"><ele>16.0</ele><time>2026-05-05T14:44:43Z</time></trkpt><trkpt lat="14.435329281390763" lon="120.97468509415651"><ele>16.0</ele><time>2026-05-05T14:44:44Z</time></trkpt><trkpt lat="14.435437479215073" lon="120.97469165437472"><ele>16.0</ele><time>2026-05-05T14:44:45Z</time></trkpt><trkpt lat="14.435543114172015" lon="120.97469805920123"><ele>16.0</ele><time>2026-05-05T14:44:46Z</time></trkpt><trkpt lat="14.435655942601022" lon="120.9747035739059"><ele>15.4</ele><time>2026-05-05T14:44:47Z</time></trkpt><trkpt lat="14.435764902072632" lon="120.97470795170722"><ele>14.8</ele><time>2026-05-05T14:44:48Z</time></trkpt><trkpt lat="14.435862520322575" lon="120.97471077157593"><ele>14.200000000000001</ele><time>2026-05-05T14:44:49Z</time></trkpt><trkpt lat="14.435954992577837" lon="120.97471133253723"><ele>13.600000000000001</ele><time>2026-05-05T14:44:50Z</time></trkpt><trkpt lat="14.43605087064091" lon="120.97471196670868"><ele>13.0</ele><time>2026-05-05T14:44:51Z</time></trkpt><trkpt lat="14.43613404177918" lon="120.97471293061285"><ele>13.0</ele><time>2026-05-05T14:44:52Z</time></trkpt><trkpt lat="14.436226288432232" lon="120.97470756736163"><ele>13.0</ele><time>2026-05-05T14:44:53Z</time></trkpt><trkpt lat="14.436325057626988" lon="120.97469868356615"><ele>13.0</ele><time>2026-05-05T14:44:54Z</time></trkpt><trkpt lat="14.436420486786316" lon="120.97469010018958"><ele>13.0</ele><time>2026-05-05T14:44:55Z</time></trkpt><trkpt lat="14.436526180012118" lon="120.97467317379665"><ele>13.0</ele><time>2026-05-05T14:44:56Z</time></trkpt><trkpt lat="14.436616610514125" lon="120.97465803158765"><ele>13.2</ele><time>2026-05-05T14:44:57Z</time></trkpt><trkpt lat="14.436697891524927" lon="120.97464207627917"><ele>13.4</ele><time>2026-05-05T14:44:58Z</time></trkpt><trkpt lat="14.436784007234044" lon="120.9746251719294"><ele>13.599999999999998</ele><time>2026-05-05T14:44:59Z</time></trkpt><trkpt lat="14.43687409501995" lon="120.97460485807088"><ele>13.799999999999999</ele><time>2026-05-05T14:45:00Z</time></trkpt><trkpt lat="14.43697256604303" lon="120.97458192538107"><ele>14.0</ele><time>2026-05-05T14:45:01Z</time></trkpt><trkpt lat="14.437079509735664" lon="120.97455701951077"><ele>13.666666666666668</ele><time>2026-05-05T14:45:02Z</time></trkpt><trkpt lat="14.437166203949113" lon="120.97453682949534"><ele>13.333333333333334</ele><time>2026-05-05T14:45:03Z</time></trkpt><trkpt lat="14.437247109154729" lon="120.97451798766608"><ele>13.0</ele><time>2026-05-05T14:45:04Z</time></trkpt><trkpt lat="14.437329313359996" lon="120.97449238180745"><ele>12.666666666666668</ele><time>2026-05-05T14:45:05Z</time></trkpt><trkpt lat="14.437415344082696" lon="120.97446870102844"><ele>12.333333333333334</ele><time>2026-05-05T14:45:06Z</time></trkpt><trkpt lat="14.43750281303627" lon="120.97444462436343"><ele>12.0</ele><time>2026-05-05T14:45:07Z</time></trkpt><trkpt lat="14.437599639580032" lon="120.974417971932"><ele>12.0</ele><time>2026-05-05T14:45:08Z</time></trkpt><trkpt lat="14.437702327368912" lon="120.97437750573961"><ele>12.0</ele><time>2026-05-05T14:45:09Z</time></trkpt><trkpt lat="14.437795889387143" lon="120.97434223584924"><ele>12.0</ele><time>2026-05-05T14:45:10Z</time></trkpt><trkpt lat="14.437882024054776" lon="120.97430275300201"><ele>12.0</ele><time>2026-05-05T14:45:11Z</time></trkpt><trkpt lat="14.437955606406833" lon="120.9742657747925"><ele>12.0</ele><time>2026-05-05T14:45:12Z</time></trkpt><trkpt lat="14.438023042259715" lon="120.9742263507541"><ele>12.0</ele><time>2026-05-05T14:45:13Z</time></trkpt><trkpt lat="14.43808699666419" lon="120.97413804089494"><ele>12.0</ele><time>2026-05-05T14:45:14Z</time></trkpt><trkpt lat="14.438140110801863" lon="120.9740479410617"><ele>12.0</ele><time>2026-05-05T14:45:15Z</time></trkpt><trkpt lat="14.438201014550488" lon="120.97396372936274"><ele>12.0</ele><time>2026-05-05T14:45:16Z</time></trkpt><trkpt lat="14.438264753025543" lon="120.97389737125016"><ele>12.0</ele><time>2026-05-05T14:45:17Z</time></trkpt><trkpt lat="14.438338366536447" lon="120.97384340388093"><ele>12.0</ele><time>2026-05-05T14:45:18Z</time></trkpt><trkpt lat="14.438426929454133" lon="120.97379074355882"><ele>12.0</ele><time>2026-05-05T14:45:19Z</time></trkpt><trkpt lat="14.438513549483028" lon="120.97373709583415"><ele>12.0</ele><time>2026-05-05T14:45:20Z</time></trkpt><trkpt lat="14.438591375036953" lon="120.97369421142986"><ele>12.0</ele><time>2026-05-05T14:45:21Z</time></trkpt><trkpt lat="14.438678961160782" lon="120.97364588135491"><ele>12.0</ele><time>2026-05-05T14:45:22Z</time></trkpt><trkpt lat="14.438759362910005" lon="120.97359666748252"><ele>12.0</ele><time>2026-05-05T14:45:23Z</time></trkpt><trkpt lat="14.438848666432877" lon="120.97354309466171"><ele>12.0</ele><time>2026-05-05T14:45:24Z</time></trkpt><trkpt lat="14.43894112001398" lon="120.97349306046813"><ele>12.0</ele><time>2026-05-05T14:45:25Z</time></trkpt><trkpt lat="14.439043559241629" lon="120.97343779953046"><ele>12.0</ele><time>2026-05-05T14:45:26Z</time></trkpt><trkpt lat="14.43914381602054" lon="120.97338371591552"><ele>12.0</ele><time>2026-05-05T14:45:27Z</time></trkpt><trkpt lat="14.439249457377226" lon="120.97332672758506"><ele>12.25</ele><time>2026-05-05T14:45:28Z</time></trkpt><trkpt lat="14.43935921230472" lon="120.97326752018493"><ele>12.5</ele><time>2026-05-05T14:45:29Z</time></trkpt><trkpt lat="14.43947171826174" lon="120.97320682873918"><ele>12.75</ele><time>2026-05-05T14:45:30Z</time></trkpt><trkpt lat="14.439582406545716" lon="120.97314711783872"><ele>13.0</ele><time>2026-05-05T14:45:31Z</time></trkpt><trkpt lat="14.439690708651925" lon="120.97308869416499"><ele>12.5</ele><time>2026-05-05T14:45:32Z</time></trkpt><trkpt lat="14.43979309762611" lon="120.97303346033503"><ele>12.0</ele><time>2026-05-05T14:45:33Z</time></trkpt><trkpt lat="14.43989133716232" lon="120.97298046492408"><ele>11.5</ele><time>2026-05-05T14:45:34Z</time></trkpt><trkpt lat="14.439997573822323" lon="120.97292236481103"><ele>11.0</ele><time>2026-05-05T14:45:35Z</time></trkpt><trkpt lat="14.440102860157095" lon="120.97286713919983"><ele>11.0</ele><time>2026-05-05T14:45:36Z</time></trkpt><trkpt lat="14.44020264361704" lon="120.97281837842333"><ele>11.0</ele><time>2026-05-05T14:45:37Z</time></trkpt><trkpt lat="14.440299686659026" lon="120.97277096800032"><ele>11.0</ele><time>2026-05-05T14:45:38Z</time></trkpt><trkpt lat="14.440386121311937" lon="120.9727299970551"><ele>11.0</ele><time>2026-05-05T14:45:39Z</time></trkpt><trkpt lat="14.440466413632548" lon="120.97269190624786"><ele>11.0</ele><time>2026-05-05T14:45:40Z</time></trkpt><trkpt lat="14.440548375312673" lon="120.97265302351526"><ele>11.333333333333332</ele><time>2026-05-05T14:45:41Z</time></trkpt><trkpt lat="14.440637685045914" lon="120.97261723125301"><ele>11.666666666666666</ele><time>2026-05-05T14:45:42Z</time></trkpt><trkpt lat="14.44072732200105" lon="120.9725831813448"><ele>12.0</ele><time>2026-05-05T14:45:43Z</time></trkpt><trkpt lat="14.440806286568545" lon="120.97255335100981"><ele>12.333333333333332</ele><time>2026-05-05T14:45:44Z</time></trkpt><trkpt lat="14.440875644221501" lon="120.97253112182027"><ele>12.666666666666666</ele><time>2026-05-05T14:45:45Z</time></trkpt><trkpt lat="14.440948014274893" lon="120.97250792715168"><ele>13.0</ele><time>2026-05-05T14:45:46Z</time></trkpt><trkpt lat="14.441011822200144" lon="120.97248747665196"><ele>12.999999999999998</ele><time>2026-05-05T14:45:47Z</time></trkpt><trkpt lat="14.44107463161577" lon="120.97246734617654"><ele>13.0</ele><time>2026-05-05T14:45:48Z</time></trkpt><trkpt lat="14.44113903386905" lon="120.97244670519706"><ele>13.0</ele><time>2026-05-05T14:45:49Z</time></trkpt><trkpt lat="14.441251900249677" lon="120.97241053141346"><ele>13.0</ele><time>2026-05-05T14:45:51Z</time></trkpt><trkpt lat="14.441313002737607" lon="120.97239094801192"><ele>12.999999999999998</ele><time>2026-05-05T14:45:52Z</time></trkpt><trkpt lat="14.441375486441784" lon="120.97237092192516"><ele>13.0</ele><time>2026-05-05T14:45:53Z</time></trkpt><trkpt lat="14.441471124818527" lon="120.97234026973615"><ele>13.0</ele><time>2026-05-05T14:45:55Z</time></trkpt><trkpt lat="14.441580241897407" lon="120.9723052976117"><ele>13.0</ele><time>2026-05-05T14:45:57Z</time></trkpt><trkpt lat="14.441669432601135" lon="120.97227671191717"><ele>13.0</ele><time>2026-05-05T14:45:58Z</time></trkpt><trkpt lat="14.441778440731305" lon="120.97223270461342"><ele>13.0</ele><time>2026-05-05T14:45:59Z</time></trkpt><trkpt lat="14.441892653563572" lon="120.97218624447378"><ele>13.0</ele><time>2026-05-05T14:46:00Z</time></trkpt><trkpt lat="14.442002826983408" lon="120.97214131739048"><ele>13.0</ele><time>2026-05-05T14:46:01Z</time></trkpt><trkpt lat="14.442093766869489" lon="120.97210408753897"><ele>13.0</ele><time>2026-05-05T14:46:02Z</time></trkpt><trkpt lat="14.442168713917507" lon="120.97207340499111"><ele>13.0</ele><time>2026-05-05T14:46:03Z</time></trkpt><trkpt lat="14.442244774534013" lon="120.97204226655947"><ele>13.0</ele><time>2026-05-05T14:46:04Z</time></trkpt><trkpt lat="14.442329184503613" lon="120.9720077099897"><ele>13.0</ele><time>2026-05-05T14:46:05Z</time></trkpt><trkpt lat="14.442443143416382" lon="120.97196105646589"><ele>12.25</ele><time>2026-05-05T14:46:06Z</time></trkpt><trkpt lat="14.442559204951252" lon="120.97191703655565"><ele>11.5</ele><time>2026-05-05T14:46:07Z</time></trkpt><trkpt lat="14.442692289025333" lon="120.97186536768615"><ele>10.75</ele><time>2026-05-05T14:46:08Z</time></trkpt><trkpt lat="14.442820613761574" lon="120.9718104137062"><ele>10.0</ele><time>2026-05-05T14:46:09Z</time></trkpt><trkpt lat="14.442936079662715" lon="120.97175909552388"><ele>10.0</ele><time>2026-05-05T14:46:10Z</time></trkpt><trkpt lat="14.443057204945701" lon="120.97170752592118"><ele>10.0</ele><time>2026-05-05T14:46:11Z</time></trkpt><trkpt lat="14.443184224951143" lon="120.97166090022745"><ele>10.0</ele><time>2026-05-05T14:46:12Z</time></trkpt><trkpt lat="14.443307503073559" lon="120.97161564807307"><ele>10.0</ele><time>2026-05-05T14:46:13Z</time></trkpt><trkpt lat="14.443414230098835" lon="120.97157647139538"><ele>10.0</ele><time>2026-05-05T14:46:14Z</time></trkpt><trkpt lat="14.443525020887988" lon="120.97153580301524"><ele>10.0</ele><time>2026-05-05T14:46:15Z</time></trkpt><trkpt lat="14.443633977428775" lon="120.97148690205019"><ele>10.0</ele><time>2026-05-05T14:46:16Z</time></trkpt><trkpt lat="14.443730315757499" lon="120.97144279694736"><ele>10.0</ele><time>2026-05-05T14:46:17Z</time></trkpt><trkpt lat="14.443812624546657" lon="120.97141063248758"><ele>10.0</ele><time>2026-05-05T14:46:18Z</time></trkpt><trkpt lat="14.443912161457046" lon="120.97137423152448"><ele>10.2</ele><time>2026-05-05T14:46:19Z</time></trkpt><trkpt lat="14.444013969668067" lon="120.97133699994157"><ele>10.4</ele><time>2026-05-05T14:46:20Z</time></trkpt><trkpt lat="14.44412734466193" lon="120.97129500844035"><ele>10.600000000000001</ele><time>2026-05-05T14:46:21Z</time></trkpt><trkpt lat="14.444226599194268" lon="120.97125792897329"><ele>10.8</ele><time>2026-05-05T14:46:22Z</time></trkpt><trkpt lat="14.444328776032894" lon="120.97121975780013"><ele>11.0</ele><time>2026-05-05T14:46:23Z</time></trkpt><trkpt lat="14.444423200662436" lon="120.97118353361726"><ele>11.0</ele><time>2026-05-05T14:46:24Z</time></trkpt><trkpt lat="14.444522573126445" lon="120.97113741657984"><ele>11.0</ele><time>2026-05-05T14:46:25Z</time></trkpt><trkpt lat="14.444625157051567" lon="120.97108980919187"><ele>11.0</ele><time>2026-05-05T14:46:26Z</time></trkpt><trkpt lat="14.444734100068453" lon="120.9710109617836"><ele>11.0</ele><time>2026-05-05T14:46:27Z</time></trkpt><trkpt lat="14.444839725839097" lon="120.97093823613038"><ele>10.75</ele><time>2026-05-05T14:46:28Z</time></trkpt><trkpt lat="14.444942888803626" lon="120.97086442943687"><ele>10.5</ele><time>2026-05-05T14:46:29Z</time></trkpt><trkpt lat="14.445053170630388" lon="120.97078282428355"><ele>10.25</ele><time>2026-05-05T14:46:30Z</time></trkpt><trkpt lat="14.445157625703299" lon="120.97070110919478"><ele>10.0</ele><time>2026-05-05T14:46:31Z</time></trkpt><trkpt lat="14.445259792123975" lon="120.97062118449793"><ele>10.0</ele><time>2026-05-05T14:46:32Z</time></trkpt><trkpt lat="14.44535934920144" lon="120.9705426803663"><ele>10.0</ele><time>2026-05-05T14:46:33Z</time></trkpt><trkpt lat="14.445465069101024" lon="120.9704576383823"><ele>10.0</ele><time>2026-05-05T14:46:34Z</time></trkpt><trkpt lat="14.445565982352653" lon="120.97037590611353"><ele>10.0</ele><time>2026-05-05T14:46:35Z</time></trkpt><trkpt lat="14.445672311553356" lon="120.97028978735193"><ele>10.0</ele><time>2026-05-05T14:46:36Z</time></trkpt><trkpt lat="14.445776098898927" lon="120.97020572731277"><ele>10.0</ele><time>2026-05-05T14:46:37Z</time></trkpt><trkpt lat="14.445880884398308" lon="120.97012140781827"><ele>10.0</ele><time>2026-05-05T14:46:38Z</time></trkpt><trkpt lat="14.445984335603969" lon="120.97003893241012"><ele>10.0</ele><time>2026-05-05T14:46:39Z</time></trkpt><trkpt lat="14.446073722866485" lon="120.96996325106547"><ele>10.4</ele><time>2026-05-05T14:46:40Z</time></trkpt><trkpt lat="14.446159586740375" lon="120.96988679458327"><ele>10.8</ele><time>2026-05-05T14:46:41Z</time></trkpt><trkpt lat="14.446237246923959" lon="120.969817643264"><ele>11.2</ele><time>2026-05-05T14:46:42Z</time></trkpt><trkpt lat="14.446313512987656" lon="120.96976267720406"><ele>11.6</ele><time>2026-05-05T14:46:43Z</time></trkpt><trkpt lat="14.446392638447742" lon="120.96971674416203"><ele>12.0</ele><time>2026-05-05T14:46:44Z</time></trkpt><trkpt lat="14.446476684259665" lon="120.96966562483803"><ele>11.2</ele><time>2026-05-05T14:46:45Z</time></trkpt><trkpt lat="14.446536215487079" lon="120.96962140464363"><ele>10.399999999999999</ele><time>2026-05-05T14:46:46Z</time></trkpt><trkpt lat="14.446640817344793" lon="120.96959811259966"><ele>9.600000000000001</ele><time>2026-05-05T14:46:47Z</time></trkpt><trkpt lat="14.446753996359266" lon="120.96957291063362"><ele>8.8</ele><time>2026-05-05T14:46:48Z</time></trkpt><trkpt lat="14.446873859723608" lon="120.96954622023861"><ele>8.0</ele><time>2026-05-05T14:46:49Z</time></trkpt><trkpt lat="14.44699263118668" lon="120.96951977298346"><ele>8.0</ele><time>2026-05-05T14:46:50Z</time></trkpt><trkpt lat="14.447108369368156" lon="120.9694786733707"><ele>8.0</ele><time>2026-05-05T14:46:51Z</time></trkpt><trkpt lat="14.447219466661473" lon="120.96948669058034"><ele>8.0</ele><time>2026-05-05T14:46:52Z</time></trkpt><trkpt lat="14.447318909350564" lon="120.96948184650763"><ele>8.0</ele><time>2026-05-05T14:46:53Z</time></trkpt><trkpt lat="14.447421441294516" lon="120.96947685195052"><ele>8.0</ele><time>2026-05-05T14:46:54Z</time></trkpt><trkpt lat="14.44752876158193" lon="120.96947162415154"><ele>7.75</ele><time>2026-05-05T14:46:55Z</time></trkpt><trkpt lat="14.447644840307255" lon="120.96946621657922"><ele>7.5</ele><time>2026-05-05T14:46:56Z</time></trkpt><trkpt lat="14.447765196410543" lon="120.969462520196"><ele>7.25</ele><time>2026-05-05T14:46:57Z</time></trkpt><trkpt lat="14.44788180829503" lon="120.96945896303727"><ele>7.0</ele><time>2026-05-05T14:46:58Z</time></trkpt><trkpt lat="14.44799359695544" lon="120.96945555300712"><ele>7.5</ele><time>2026-05-05T14:46:59Z</time></trkpt><trkpt lat="14.448106975847063" lon="120.9694379784665"><ele>8.0</ele><time>2026-05-05T14:47:00Z</time></trkpt><trkpt lat="14.448219953307103" lon="120.96944118715066"><ele>8.5</ele><time>2026-05-05T14:47:01Z</time></trkpt><trkpt lat="14.448335836845759" lon="120.9694391451554"><ele>9.0</ele><time>2026-05-05T14:47:02Z</time></trkpt><trkpt lat="14.448447072377101" lon="120.96943243858271"><ele>9.0</ele><time>2026-05-05T14:47:03Z</time></trkpt><trkpt lat="14.448543592490411" lon="120.96942617813559"><ele>9.0</ele><time>2026-05-05T14:47:04Z</time></trkpt><trkpt lat="14.448652385765605" lon="120.96942665166453"><ele>9.0</ele><time>2026-05-05T14:47:05Z</time></trkpt><trkpt lat="14.448768187326522" lon="120.96942738560493"><ele>9.0</ele><time>2026-05-05T14:47:06Z</time></trkpt><trkpt lat="14.448871204187915" lon="120.96942413315605"><ele>9.0</ele><time>2026-05-05T14:47:07Z</time></trkpt><trkpt lat="14.448963456438724" lon="120.96941889204763"><ele>8.8</ele><time>2026-05-05T14:47:08Z</time></trkpt><trkpt lat="14.449059638980177" lon="120.96942023543761"><ele>8.600000000000001</ele><time>2026-05-05T14:47:09Z</time></trkpt><trkpt lat="14.449161482253945" lon="120.96942022059798"><ele>8.4</ele><time>2026-05-05T14:47:10Z</time></trkpt><trkpt lat="14.449264345721817" lon="120.96941664293682"><ele>8.200000000000001</ele><time>2026-05-05T14:47:11Z</time></trkpt><trkpt lat="14.449373647790086" lon="120.96941413613027"><ele>8.0</ele><time>2026-05-05T14:47:12Z</time></trkpt><trkpt lat="14.449484820720674" lon="120.96941136340747"><ele>8.0</ele><time>2026-05-05T14:47:13Z</time></trkpt><trkpt lat="14.449595686886274" lon="120.96940792533852"><ele>8.0</ele><time>2026-05-05T14:47:14Z</time></trkpt><trkpt lat="14.449690419544487" lon="120.96940414654469"><ele>8.0</ele><time>2026-05-05T14:47:15Z</time></trkpt><trkpt lat="14.449786538058486" lon="120.96940063214008"><ele>8.0</ele><time>2026-05-05T14:47:16Z</time></trkpt><trkpt lat="14.449884064691732" lon="120.96940158680393"><ele>8.0</ele><time>2026-05-05T14:47:17Z</time></trkpt><trkpt lat="14.449989186550285" lon="120.96939786972631"><ele>7.800000000000001</ele><time>2026-05-05T14:47:18Z</time></trkpt><trkpt lat="14.450091636590896" lon="120.9693916901397"><ele>7.6000000000000005</ele><time>2026-05-05T14:47:19Z</time></trkpt><trkpt lat="14.450202262726414" lon="120.96939095776294"><ele>7.3999999999999995</ele><time>2026-05-05T14:47:20Z</time></trkpt><trkpt lat="14.450308429331166" lon="120.96939213765361"><ele>7.199999999999999</ele><time>2026-05-05T14:47:21Z</time></trkpt><trkpt lat="14.450414281295838" lon="120.96939399085878"><ele>7.0</ele><time>2026-05-05T14:47:22Z</time></trkpt><trkpt lat="14.450526739045515" lon="120.96939356628911"><ele>7.5</ele><time>2026-05-05T14:47:23Z</time></trkpt><trkpt lat="14.450644338751006" lon="120.96939993904208"><ele>8.0</ele><time>2026-05-05T14:47:24Z</time></trkpt><trkpt lat="14.450763804515448" lon="120.96940415349184"><ele>8.5</ele><time>2026-05-05T14:47:25Z</time></trkpt><trkpt lat="14.450883197102424" lon="120.96940961499669"><ele>9.0</ele><time>2026-05-05T14:47:26Z</time></trkpt><trkpt lat="14.450996466010654" lon="120.96941655340837"><ele>9.0</ele><time>2026-05-05T14:47:27Z</time></trkpt><trkpt lat="14.451098732324581" lon="120.9694206171286"><ele>9.0</ele><time>2026-05-05T14:47:28Z</time></trkpt><trkpt lat="14.451202417127329" lon="120.96942633061192"><ele>9.0</ele><time>2026-05-05T14:47:29Z</time></trkpt><trkpt lat="14.451293656645001" lon="120.96943022322172"><ele>9.0</ele><time>2026-05-05T14:47:30Z</time></trkpt><trkpt lat="14.451363315315064" lon="120.96943102525047"><ele>9.0</ele><time>2026-05-05T14:47:31Z</time></trkpt><trkpt lat="14.451460564726817" lon="120.96943311747452"><ele>9.333333333333334</ele><time>2026-05-05T14:47:33Z</time></trkpt><trkpt lat="14.451528642641362" lon="120.96942924341367"><ele>9.666666666666666</ele><time>2026-05-05T14:47:37Z</time></trkpt><trkpt lat="14.451631606315415" lon="120.9694343729515"><ele>10.0</ele><time>2026-05-05T14:47:39Z</time></trkpt><trkpt lat="14.45170209592559" lon="120.96943562620189"><ele>10.333333333333332</ele><time>2026-05-05T14:47:40Z</time></trkpt><trkpt lat="14.451771502222718" lon="120.96943921430582"><ele>10.666666666666666</ele><time>2026-05-05T14:47:41Z</time></trkpt><trkpt lat="14.451848527674354" lon="120.9694375374833"><ele>11.0</ele><time>2026-05-05T14:47:42Z</time></trkpt><trkpt lat="14.451933844682594" lon="120.96943574248947"><ele>11.0</ele><time>2026-05-05T14:47:43Z</time></trkpt><trkpt lat="14.452019989591811" lon="120.96943598664359"><ele>11.0</ele><time>2026-05-05T14:47:44Z</time></trkpt><trkpt lat="14.452127350642359" lon="120.96943527356719"><ele>11.0</ele><time>2026-05-05T14:47:45Z</time></trkpt><trkpt lat="14.452227263073384" lon="120.96943419504109"><ele>11.0</ele><time>2026-05-05T14:47:46Z</time></trkpt><trkpt lat="14.452332123405734" lon="120.96942900974496"><ele>11.0</ele><time>2026-05-05T14:47:47Z</time></trkpt><trkpt lat="14.452444138961923" lon="120.9694244307679"><ele>10.8</ele><time>2026-05-05T14:47:48Z</time></trkpt><trkpt lat="14.452555393202719" lon="120.96942696516678"><ele>10.600000000000001</ele><time>2026-05-05T14:47:49Z</time></trkpt><trkpt lat="14.45266780972939" lon="120.96943118561407"><ele>10.4</ele><time>2026-05-05T14:47:50Z</time></trkpt><trkpt lat="14.452777910643793" lon="120.96943937479128"><ele>10.2</ele><time>2026-05-05T14:47:51Z</time></trkpt><trkpt lat="14.452883130522723" lon="120.96944936223622"><ele>10.0</ele><time>2026-05-05T14:47:52Z</time></trkpt><trkpt lat="14.45297550560823" lon="120.96946080314612"><ele>9.6</ele><time>2026-05-05T14:47:53Z</time></trkpt><trkpt lat="14.453071682012697" lon="120.96947670411753"><ele>9.2</ele><time>2026-05-05T14:47:54Z</time></trkpt><trkpt lat="14.453174561569378" lon="120.96950570770976"><ele>8.8</ele><time>2026-05-05T14:47:55Z</time></trkpt><trkpt lat="14.45328735107709" lon="120.96953842673975"><ele>8.4</ele><time>2026-05-05T14:47:56Z</time></trkpt><trkpt lat="14.453349787856043" lon="120.96959014687833"><ele>8.0</ele><time>2026-05-05T14:47:57Z</time></trkpt><trkpt lat="14.453447497074613" lon="120.96965077584436"><ele>8.0</ele><time>2026-05-05T14:47:58Z</time></trkpt><trkpt lat="14.45354554873064" lon="120.96970086911605"><ele>8.0</ele><time>2026-05-05T14:47:59Z</time></trkpt><trkpt lat="14.453649168948536" lon="120.96973645325122"><ele>8.0</ele><time>2026-05-05T14:48:00Z</time></trkpt><trkpt lat="14.45375531355608" lon="120.96975595033018"><ele>8.0</ele><time>2026-05-05T14:48:01Z</time></trkpt><trkpt lat="14.453863973621287" lon="120.96976924123936"><ele>8.0</ele><time>2026-05-05T14:48:02Z</time></trkpt><trkpt lat="14.453975735574703" lon="120.96978417951767"><ele>8.200000000000001</ele><time>2026-05-05T14:48:03Z</time></trkpt><trkpt lat="14.454087697140851" lon="120.96980089116425"><ele>8.4</ele><time>2026-05-05T14:48:04Z</time></trkpt><trkpt lat="14.454200475750957" lon="120.96981673398446"><ele>8.600000000000001</ele><time>2026-05-05T14:48:05Z</time></trkpt><trkpt lat="14.4543067812251" lon="120.9698266078638"><ele>8.8</ele><time>2026-05-05T14:48:06Z</time></trkpt><trkpt lat="14.454417973663158" lon="120.96983937501051"><ele>9.0</ele><time>2026-05-05T14:48:07Z</time></trkpt><trkpt lat="14.45452273500157" lon="120.9698478450882"><ele>8.6</ele><time>2026-05-05T14:48:08Z</time></trkpt><trkpt lat="14.454621722126372" lon="120.96984948419107"><ele>8.2</ele><time>2026-05-05T14:48:09Z</time></trkpt><trkpt lat="14.454718439724" lon="120.96986083227726"><ele>7.799999999999999</ele><time>2026-05-05T14:48:09.999Z</time></trkpt><trkpt lat="14.454817596679703" lon="120.96984323579773"><ele>7.3999999999999995</ele><time>2026-05-05T14:48:10.999Z</time></trkpt><trkpt lat="14.454916132773715" lon="120.9698364500439"><ele>7.0</ele><time>2026-05-05T14:48:11.999Z</time></trkpt><trkpt lat="14.454999696293797" lon="120.96981865902083"><ele>7.000000000000001</ele><time>2026-05-05T14:48:12.999Z</time></trkpt><trkpt lat="14.455085716636248" lon="120.9698172976039"><ele>7.0</ele><time>2026-05-05T14:48:13.999Z</time></trkpt><trkpt lat="14.455171697265865" lon="120.96977911137738"><ele>7.0</ele><time>2026-05-05T14:48:14.999Z</time></trkpt><trkpt lat="14.455251716838802" lon="120.96973418975787"><ele>7.0</ele><time>2026-05-05T14:48:16Z</time></trkpt><trkpt lat="14.455320105603933" lon="120.96969305232953"><ele>7.000000000000001</ele><time>2026-05-05T14:48:17Z</time></trkpt><trkpt lat="14.45538527031651" lon="120.96965005847005"><ele>7.0</ele><time>2026-05-05T14:48:18Z</time></trkpt><trkpt lat="14.45546834920887" lon="120.9695952418087"><ele>7.000000000000001</ele><time>2026-05-05T14:48:19Z</time></trkpt><trkpt lat="14.455531889137735" lon="120.96955331720856"><ele>7.0</ele><time>2026-05-05T14:48:20Z</time></trkpt><trkpt lat="14.45559473111749" lon="120.96950703366049"><ele>7.0</ele><time>2026-05-05T14:48:21Z</time></trkpt><trkpt lat="14.455645803872914" lon="120.96945329015853"><ele>7.0</ele><time>2026-05-05T14:48:22Z</time></trkpt><trkpt lat="14.455685213004427" lon="120.96938221583292"><ele>7.000000000000001</ele><time>2026-05-05T14:48:23Z</time></trkpt><trkpt lat="14.455710426037458" lon="120.96930129273474"><ele>7.0</ele><time>2026-05-05T14:48:24Z</time></trkpt><trkpt lat="14.455733242980967" lon="120.9692263452381"><ele>7.166666666666667</ele><time>2026-05-05T14:48:25Z</time></trkpt><trkpt lat="14.455756762297678" lon="120.9691490905841"><ele>7.333333333333334</ele><time>2026-05-05T14:48:26Z</time></trkpt><trkpt lat="14.455779300974395" lon="120.96907505591372"><ele>7.5</ele><time>2026-05-05T14:48:27Z</time></trkpt><trkpt lat="14.45580277386143" lon="120.96899960509178"><ele>7.666666666666666</ele><time>2026-05-05T14:48:28Z</time></trkpt><trkpt lat="14.455829913986875" lon="120.96891248356137"><ele>7.833333333333333</ele><time>2026-05-05T14:48:29Z</time></trkpt><trkpt lat="14.455865470538043" lon="120.96881221966183"><ele>8.0</ele><time>2026-05-05T14:48:30Z</time></trkpt><trkpt lat="14.455903666802698" lon="120.9687045122148"><ele>8.0</ele><time>2026-05-05T14:48:31Z</time></trkpt><trkpt lat="14.455941687917752" lon="120.96859641581848"><ele>8.0</ele><time>2026-05-05T14:48:32Z</time></trkpt><trkpt lat="14.455985681450333" lon="120.96849327798955"><ele>8.0</ele><time>2026-05-05T14:48:33Z</time></trkpt><trkpt lat="14.456040939200582" lon="120.96838915688762"><ele>8.0</ele><time>2026-05-05T14:48:34Z</time></trkpt><trkpt lat="14.456092111883695" lon="120.9682923683452"><ele>8.0</ele><time>2026-05-05T14:48:35Z</time></trkpt><trkpt lat="14.456147627997105" lon="120.96821333289586"><ele>7.75</ele><time>2026-05-05T14:48:36Z</time></trkpt><trkpt lat="14.456216709455836" lon="120.9681313146263"><ele>7.5</ele><time>2026-05-05T14:48:37Z</time></trkpt><trkpt lat="14.456299112402863" lon="120.96803665108932"><ele>7.25</ele><time>2026-05-05T14:48:38Z</time></trkpt><trkpt lat="14.456387194569556" lon="120.96795510896855"><ele>7.0</ele><time>2026-05-05T14:48:39Z</time></trkpt><trkpt lat="14.456485526686665" lon="120.9678622129334"><ele>7.5</ele><time>2026-05-05T14:48:40Z</time></trkpt><trkpt lat="14.456588633152752" lon="120.96776204864744"><ele>8.0</ele><time>2026-05-05T14:48:41Z</time></trkpt><trkpt lat="14.456694752569481" lon="120.96765637096674"><ele>8.5</ele><time>2026-05-05T14:48:42Z</time></trkpt><trkpt lat="14.456801106446585" lon="120.96755045976367"><ele>9.0</ele><time>2026-05-05T14:48:43Z</time></trkpt><trkpt lat="14.456908082316035" lon="120.96744656339246"><ele>9.0</ele><time>2026-05-05T14:48:44Z</time></trkpt><trkpt lat="14.457012738743039" lon="120.96734441262619"><ele>9.0</ele><time>2026-05-05T14:48:45Z</time></trkpt><trkpt lat="14.45711819123403" lon="120.96724148485569"><ele>9.0</ele><time>2026-05-05T14:48:46Z</time></trkpt><trkpt lat="14.457223892678988" lon="120.96713831408879"><ele>9.0</ele><time>2026-05-05T14:48:47Z</time></trkpt><trkpt lat="14.457329510595796" lon="120.96703522485232"><ele>9.0</ele><time>2026-05-05T14:48:48Z</time></trkpt><trkpt lat="14.457431987322739" lon="120.96693520198708"><ele>9.0</ele><time>2026-05-05T14:48:49Z</time></trkpt><trkpt lat="14.457525320615417" lon="120.96684293770942"><ele>9.0</ele><time>2026-05-05T14:48:50Z</time></trkpt><trkpt lat="14.457613951300184" lon="120.96675517824073"><ele>9.0</ele><time>2026-05-05T14:48:51Z</time></trkpt><trkpt lat="14.45769697559811" lon="120.96667246908342"><ele>8.8</ele><time>2026-05-05T14:48:52Z</time></trkpt><trkpt lat="14.457774378570269" lon="120.96659536010802"><ele>8.600000000000001</ele><time>2026-05-05T14:48:53Z</time></trkpt><trkpt lat="14.457819785452267" lon="120.96649317670206"><ele>8.4</ele><time>2026-05-05T14:48:54Z</time></trkpt><trkpt lat="14.457894655299693" lon="120.966419781161"><ele>8.200000000000001</ele><time>2026-05-05T14:48:55Z</time></trkpt><trkpt lat="14.457960322663853" lon="120.96635407844806"><ele>8.0</ele><time>2026-05-05T14:48:56Z</time></trkpt><trkpt lat="14.458028047663143" lon="120.96628932015979"><ele>7.800000000000001</ele><time>2026-05-05T14:48:57Z</time></trkpt><trkpt lat="14.45809853496018" lon="120.96622373073613"><ele>7.6000000000000005</ele><time>2026-05-05T14:48:58Z</time></trkpt><trkpt lat="14.458175164444427" lon="120.96615016712892"><ele>7.3999999999999995</ele><time>2026-05-05T14:48:59Z</time></trkpt><trkpt lat="14.458278803411588" lon="120.96610475707408"><ele>7.199999999999999</ele><time>2026-05-05T14:49:00Z</time></trkpt><trkpt lat="14.458359755280542" lon="120.96602724534"><ele>7.0</ele><time>2026-05-05T14:49:01Z</time></trkpt><trkpt lat="14.45843787200039" lon="120.96595130426128"><ele>7.0</ele><time>2026-05-05T14:49:02Z</time></trkpt><trkpt lat="14.458527600722421" lon="120.96586054148932"><ele>7.0</ele><time>2026-05-05T14:49:03Z</time></trkpt><trkpt lat="14.458615646750728" lon="120.96577149026055"><ele>7.0</ele><time>2026-05-05T14:49:04Z</time></trkpt><trkpt lat="14.458716659372866" lon="120.96567273636614"><ele>7.0</ele><time>2026-05-05T14:49:05Z</time></trkpt><trkpt lat="14.458824908261315" lon="120.96556985063368"><ele>7.0</ele><time>2026-05-05T14:49:06Z</time></trkpt><trkpt lat="14.458934790083937" lon="120.96546690066359"><ele>7.0</ele><time>2026-05-05T14:49:07Z</time></trkpt><trkpt lat="14.459036828411204" lon="120.96537099947092"><ele>7.0</ele><time>2026-05-05T14:49:08Z</time></trkpt><trkpt lat="14.459126167005524" lon="120.96528535091322"><ele>7.0</ele><time>2026-05-05T14:49:09Z</time></trkpt><trkpt lat="14.459195875224133" lon="120.96521578778189"><ele>7.000000000000001</ele><time>2026-05-05T14:49:10Z</time></trkpt><trkpt lat="14.45924773783403" lon="120.96516403310783"><ele>7.0</ele><time>2026-05-05T14:49:11Z</time></trkpt><trkpt lat="14.45930968286035" lon="120.96510309856973"><ele>7.0</ele><time>2026-05-05T14:49:13Z</time></trkpt><trkpt lat="14.459356449996715" lon="120.96505846281708"><ele>7.0</ele><time>2026-05-05T14:49:14Z</time></trkpt><trkpt lat="14.459414760468903" lon="120.96500082813931"><ele>7.000000000000001</ele><time>2026-05-05T14:49:15Z</time></trkpt><trkpt lat="14.45947784937179" lon="120.96493922989198"><ele>7.0</ele><time>2026-05-05T14:49:16Z</time></trkpt><trkpt lat="14.459547731965724" lon="120.96487099845889"><ele>6.8</ele><time>2026-05-05T14:49:17Z</time></trkpt><trkpt lat="14.459622367706787" lon="120.96479736399218"><ele>6.6</ele><time>2026-05-05T14:49:18Z</time></trkpt><trkpt lat="14.45970176051737" lon="120.96471813639982"><ele>6.3999999999999995</ele><time>2026-05-05T14:49:19Z</time></trkpt><trkpt lat="14.459778128115374" lon="120.96464192776232"><ele>6.199999999999999</ele><time>2026-05-05T14:49:20Z</time></trkpt><trkpt lat="14.45985314441009" lon="120.96457024254066"><ele>6.0</ele><time>2026-05-05T14:49:21Z</time></trkpt><trkpt lat="14.459920918163538" lon="120.96450551681639"><ele>6.0</ele><time>2026-05-05T14:49:22Z</time></trkpt><trkpt lat="14.459987755621253" lon="120.9644416853572"><ele>6.0</ele><time>2026-05-05T14:49:23Z</time></trkpt><trkpt lat="14.460059520405574" lon="120.96437314815323"><ele>6.0</ele><time>2026-05-05T14:49:24Z</time></trkpt><trkpt lat="14.460136238348584" lon="120.96429969112705"><ele>6.0</ele><time>2026-05-05T14:49:25Z</time></trkpt><trkpt lat="14.460223939701628" lon="120.96421567339318"><ele>6.0</ele><time>2026-05-05T14:49:26Z</time></trkpt><trkpt lat="14.460307115721744" lon="120.964135990956"><ele>6.166666666666667</ele><time>2026-05-05T14:49:27Z</time></trkpt><trkpt lat="14.46038437404219" lon="120.96406317648557"><ele>6.333333333333334</ele><time>2026-05-05T14:49:28Z</time></trkpt><trkpt lat="14.460454426041132" lon="120.96399925839118"><ele>6.5</ele><time>2026-05-05T14:49:29Z</time></trkpt><trkpt lat="14.460515797225288" lon="120.96394326106058"><ele>6.666666666666667</ele><time>2026-05-05T14:49:30Z</time></trkpt><trkpt lat="14.46056667308953" lon="120.96390097223316"><ele>6.833333333333334</ele><time>2026-05-05T14:49:31Z</time></trkpt><trkpt lat="14.460621011616189" lon="120.96385888520088"><ele>7.0</ele><time>2026-05-05T14:49:32Z</time></trkpt><trkpt lat="14.460681577130776" lon="120.9638119751259"><ele>7.666666666666667</ele><time>2026-05-05T14:49:33Z</time></trkpt><trkpt lat="14.460745345546895" lon="120.96376085967333"><ele>8.333333333333334</ele><time>2026-05-05T14:49:34Z</time></trkpt><trkpt lat="14.460806321041765" lon="120.96371301829856"><ele>9.0</ele><time>2026-05-05T14:49:35Z</time></trkpt><trkpt lat="14.460872986568893" lon="120.96366071247665"><ele>9.666666666666666</ele><time>2026-05-05T14:49:36Z</time></trkpt><trkpt lat="14.460938796548403" lon="120.96360570766053"><ele>10.333333333333332</ele><time>2026-05-05T14:49:37Z</time></trkpt><trkpt lat="14.46098954985223" lon="120.96355916086168"><ele>11.0</ele><time>2026-05-05T14:49:38Z</time></trkpt><trkpt lat="14.461067483961163" lon="120.96348768592271"><ele>11.0</ele><time>2026-05-05T14:49:40Z</time></trkpt><trkpt lat="14.461126520557695" lon="120.9634335423111"><ele>11.0</ele><time>2026-05-05T14:49:42Z</time></trkpt><trkpt lat="14.461189861470869" lon="120.96338097416097"><ele>11.0</ele><time>2026-05-05T14:49:45Z</time></trkpt><trkpt lat="14.46124639136127" lon="120.9633347477652"><ele>11.0</ele><time>2026-05-05T14:49:48Z</time></trkpt><trkpt lat="14.461344309978058" lon="120.96324743842932"><ele>11.0</ele><time>2026-05-05T14:49:50Z</time></trkpt><trkpt lat="14.461394978255598" lon="120.96319827420821"><ele>11.0</ele><time>2026-05-05T14:49:51Z</time></trkpt><trkpt lat="14.461496229887551" lon="120.96310941336966"><ele>10.4</ele><time>2026-05-05T14:49:53Z</time></trkpt><trkpt lat="14.461557002330625" lon="120.96306307214165"><ele>9.8</ele><time>2026-05-05T14:49:54Z</time></trkpt><trkpt lat="14.461664145368179" lon="120.9630005191304"><ele>9.200000000000001</ele><time>2026-05-05T14:49:56Z</time></trkpt><trkpt lat="14.461736072132425" lon="120.96295427269736"><ele>8.600000000000001</ele><time>2026-05-05T14:49:58Z</time></trkpt><trkpt lat="14.461814873428239" lon="120.96295099140652"><ele>8.0</ele><time>2026-05-05T14:50:03.999Z</time></trkpt><trkpt lat="14.461957163002088" lon="120.96311678243893"><ele>8.0</ele><time>2026-05-05T14:50:08.999Z</time></trkpt><trkpt lat="14.462007951690804" lon="120.96319226417656"><ele>8.0</ele><time>2026-05-05T14:50:10.999Z</time></trkpt><trkpt lat="14.462052424417292" lon="120.96326662188879"><ele>8.0</ele><time>2026-05-05T14:50:12.999Z</time></trkpt><trkpt lat="14.462097874000206" lon="120.96334100204096"><ele>8.0</ele><time>2026-05-05T14:50:14.999Z</time></trkpt><trkpt lat="14.462155601682005" lon="120.96343839804078"><ele>8.0</ele><time>2026-05-05T14:50:16.999Z</time></trkpt><trkpt lat="14.462223573543614" lon="120.96354777100295"><ele>8.166666666666666</ele><time>2026-05-05T14:50:18.999Z</time></trkpt><trkpt lat="14.462260368411574" lon="120.96360941173975"><ele>8.333333333333332</ele><time>2026-05-05T14:50:19.999Z</time></trkpt><trkpt lat="14.462303490275701" lon="120.9636780679723"><ele>8.5</ele><time>2026-05-05T14:50:20.999Z</time></trkpt><trkpt lat="14.46235700164168" lon="120.96375536011509"><ele>8.666666666666666</ele><time>2026-05-05T14:50:22Z</time></trkpt><trkpt lat="14.462412475113519" lon="120.96383158756389"><ele>8.833333333333334</ele><time>2026-05-05T14:50:23Z</time></trkpt><trkpt lat="14.46245870288851" lon="120.96389600450267"><ele>9.0</ele><time>2026-05-05T14:50:24Z</time></trkpt><trkpt lat="14.462511707783502" lon="120.96397281004624"><ele>9.0</ele><time>2026-05-05T14:50:25Z</time></trkpt><trkpt lat="14.4625691938193" lon="120.96406260494057"><ele>9.0</ele><time>2026-05-05T14:50:26Z</time></trkpt><trkpt lat="14.462626373226978" lon="120.96416433598974"><ele>9.0</ele><time>2026-05-05T14:50:27Z</time></trkpt><trkpt lat="14.462679453999966" lon="120.96425074008029"><ele>9.0</ele><time>2026-05-05T14:50:28Z</time></trkpt><trkpt lat="14.462720131813295" lon="120.96431742280836"><ele>9.0</ele><time>2026-05-05T14:50:29Z</time></trkpt><trkpt lat="14.462758751100871" lon="120.96438030202445"><ele>8.8</ele><time>2026-05-05T14:50:30Z</time></trkpt><trkpt lat="14.462811587724833" lon="120.96446277451898"><ele>8.600000000000001</ele><time>2026-05-05T14:50:31Z</time></trkpt><trkpt lat="14.462856684299474" lon="120.96452134247406"><ele>8.4</ele><time>2026-05-05T14:50:32Z</time></trkpt><trkpt lat="14.462919788405541" lon="120.96459694002908"><ele>8.200000000000001</ele><time>2026-05-05T14:50:33Z</time></trkpt><trkpt lat="14.462971716416755" lon="120.96468098258758"><ele>8.0</ele><time>2026-05-05T14:50:34Z</time></trkpt><trkpt lat="14.463016938832062" lon="120.96475932012083"><ele>7.999999999999999</ele><time>2026-05-05T14:50:35Z</time></trkpt><trkpt lat="14.463055537021226" lon="120.9648276364407"><ele>8.0</ele><time>2026-05-05T14:50:36Z</time></trkpt><trkpt lat="14.463098405464374" lon="120.96488917244845"><ele>8.0</ele><time>2026-05-05T14:50:37Z</time></trkpt><trkpt lat="14.463139525164467" lon="120.9649524254129"><ele>8.0</ele><time>2026-05-05T14:50:38Z</time></trkpt><trkpt lat="14.46320990225866" lon="120.96505986117486"><ele>7.999999999999999</ele><time>2026-05-05T14:50:40Z</time></trkpt><trkpt lat="14.463248372323473" lon="120.96511936116839"><ele>8.0</ele><time>2026-05-05T14:50:41Z</time></trkpt><trkpt lat="14.463324171948335" lon="120.96522337034068"><ele>8.142857142857142</ele><time>2026-05-05T14:50:43Z</time></trkpt><trkpt lat="14.46335878876077" lon="120.96528052119481"><ele>8.285714285714285</ele><time>2026-05-05T14:50:44Z</time></trkpt><trkpt lat="14.4633964145816" lon="120.96533652929797"><ele>8.428571428571429</ele><time>2026-05-05T14:50:45Z</time></trkpt><trkpt lat="14.463437986557626" lon="120.96539940923655"><ele>8.571428571428571</ele><time>2026-05-05T14:50:46Z</time></trkpt><trkpt lat="14.4634874670515" lon="120.96545687100348"><ele>8.714285714285715</ele><time>2026-05-05T14:50:47Z</time></trkpt><trkpt lat="14.463528678130027" lon="120.96552166223977"><ele>8.857142857142858</ele><time>2026-05-05T14:50:48Z</time></trkpt><trkpt lat="14.463572223263364" lon="120.96558498858329"><ele>9.0</ele><time>2026-05-05T14:50:49Z</time></trkpt><trkpt lat="14.463613226709867" lon="120.96564561619417"><ele>9.000000000000002</ele><time>2026-05-05T14:50:50Z</time></trkpt><trkpt lat="14.463644239412355" lon="120.96571651610799"><ele>9.0</ele><time>2026-05-05T14:50:51Z</time></trkpt><trkpt lat="14.463690918773276" lon="120.9657687473751"><ele>9.0</ele><time>2026-05-05T14:50:52Z</time></trkpt><trkpt lat="14.463731985518832" lon="120.96583352405992"><ele>9.0</ele><time>2026-05-05T14:50:53Z</time></trkpt><trkpt lat="14.463772021393837" lon="120.96589713048901"><ele>9.0</ele><time>2026-05-05T14:50:54Z</time></trkpt><trkpt lat="14.463814843222591" lon="120.96595836572723"><ele>9.000000000000002</ele><time>2026-05-05T14:50:55Z</time></trkpt><trkpt lat="14.463853763760422" lon="120.96601089980452"><ele>9.0</ele><time>2026-05-05T14:50:56Z</time></trkpt><trkpt lat="14.463908656413226" lon="120.96609381963096"><ele>9.0</ele><time>2026-05-05T14:50:58Z</time></trkpt><trkpt lat="14.4639639514861" lon="120.9661891787171"><ele>9.0</ele><time>2026-05-05T14:51:00Z</time></trkpt><trkpt lat="14.463996118233473" lon="120.96624594659157"><ele>9.0</ele><time>2026-05-05T14:51:01Z</time></trkpt><trkpt lat="14.464066128738374" lon="120.96635932925757"><ele>9.0</ele><time>2026-05-05T14:51:03Z</time></trkpt><trkpt lat="14.464103557466697" lon="120.96641663580516"><ele>9.0</ele><time>2026-05-05T14:51:04Z</time></trkpt><trkpt lat="14.464138065907818" lon="120.96647417091624"><ele>9.0</ele><time>2026-05-05T14:51:05Z</time></trkpt><trkpt lat="14.464171332137964" lon="120.96653706551577"><ele>9.0</ele><time>2026-05-05T14:51:06Z</time></trkpt><trkpt lat="14.464215008951669" lon="120.96661040441734"><ele>9.0</ele><time>2026-05-05T14:51:07Z</time></trkpt><trkpt lat="14.464257647746924" lon="120.96668037167483"><ele>9.0</ele><time>2026-05-05T14:51:08Z</time></trkpt><trkpt lat="14.464305478850568" lon="120.96676588491394"><ele>9.0</ele><time>2026-05-05T14:51:09Z</time></trkpt><trkpt lat="14.464356859652607" lon="120.9668485926873"><ele>9.0</ele><time>2026-05-05T14:51:10Z</time></trkpt><trkpt lat="14.464410553680512" lon="120.9669290147828"><ele>9.0</ele><time>2026-05-05T14:51:11Z</time></trkpt><trkpt lat="14.464462528289662" lon="120.96699889636344"><ele>8.833333333333334</ele><time>2026-05-05T14:51:12Z</time></trkpt><trkpt lat="14.464515996302652" lon="120.96705805381086"><ele>8.666666666666666</ele><time>2026-05-05T14:51:13Z</time></trkpt><trkpt lat="14.464575216457266" lon="120.96712264368355"><ele>8.5</ele><time>2026-05-05T14:51:14Z</time></trkpt><trkpt lat="14.464640794287591" lon="120.96718955622897"><ele>8.333333333333332</ele><time>2026-05-05T14:51:15Z</time></trkpt><trkpt lat="14.464712264066051" lon="120.96725205637681"><ele>8.166666666666666</ele><time>2026-05-05T14:51:16Z</time></trkpt><trkpt lat="14.46479376447726" lon="120.96730962153696"><ele>8.0</ele><time>2026-05-05T14:51:17Z</time></trkpt><trkpt lat="14.464890100356673" lon="120.96737435523256"><ele>8.5</ele><time>2026-05-05T14:51:18Z</time></trkpt><trkpt lat="14.464993086606786" lon="120.96744851694517"><ele>9.0</ele><time>2026-05-05T14:51:19Z</time></trkpt><trkpt lat="14.465096007184599" lon="120.96752577186179"><ele>9.5</ele><time>2026-05-05T14:51:20Z</time></trkpt><trkpt lat="14.465195162968802" lon="120.96760161789403"><ele>10.0</ele><time>2026-05-05T14:51:21Z</time></trkpt><trkpt lat="14.465278931411415" lon="120.96766470128918"><ele>10.0</ele><time>2026-05-05T14:51:22Z</time></trkpt><trkpt lat="14.465351874582808" lon="120.967717186495"><ele>10.0</ele><time>2026-05-05T14:51:23Z</time></trkpt><trkpt lat="14.465412549606285" lon="120.9677609160578"><ele>10.0</ele><time>2026-05-05T14:51:24Z</time></trkpt><trkpt lat="14.465486549796198" lon="120.96781645272127"><ele>10.0</ele><time>2026-05-05T14:51:26Z</time></trkpt><trkpt lat="14.465542605433033" lon="120.96785736912808"><ele>10.0</ele><time>2026-05-05T14:51:31Z</time></trkpt><trkpt lat="14.46563109532966" lon="120.96791549462583"><ele>10.0</ele><time>2026-05-05T14:52:09.999Z</time></trkpt><trkpt lat="14.465688207382803" lon="120.96796460204786"><ele>9.5</ele><time>2026-05-05T14:52:10.999Z</time></trkpt><trkpt lat="14.46578032939473" lon="120.96804420489515"><ele>9.0</ele><time>2026-05-05T14:52:12.999Z</time></trkpt><trkpt lat="14.465840613830471" lon="120.9680832965994"><ele>8.5</ele><time>2026-05-05T14:52:13.999Z</time></trkpt><trkpt lat="14.46590309965047" lon="120.96813708111434"><ele>8.0</ele><time>2026-05-05T14:52:14.999Z</time></trkpt><trkpt lat="14.465969693021046" lon="120.96818172919637"><ele>7.500000000000001</ele><time>2026-05-05T14:52:15.999Z</time></trkpt><trkpt lat="14.466039388879548" lon="120.96824504883277"><ele>7.0</ele><time>2026-05-05T14:52:16.999Z</time></trkpt><trkpt lat="14.46610720243517" lon="120.96831204937025"><ele>7.0</ele><time>2026-05-05T14:52:17.999Z</time></trkpt><trkpt lat="14.46617979744572" lon="120.96837548992467"><ele>6.999999999999999</ele><time>2026-05-05T14:52:18.999Z</time></trkpt><trkpt lat="14.466260972754197" lon="120.96844561608017"><ele>6.999999999999999</ele><time>2026-05-05T14:52:19.999Z</time></trkpt><trkpt lat="14.466339494976303" lon="120.96851038056532"><ele>7.0</ele><time>2026-05-05T14:52:20.999Z</time></trkpt><trkpt lat="14.466425102415513" lon="120.96856983458159"><ele>7.0</ele><time>2026-05-05T14:52:21.999Z</time></trkpt><trkpt lat="14.466496222613447" lon="120.96862724128206"><ele>7.25</ele><time>2026-05-05T14:52:22.999Z</time></trkpt><trkpt lat="14.466567935131815" lon="120.96868120641872"><ele>7.5</ele><time>2026-05-05T14:52:23.999Z</time></trkpt><trkpt lat="14.466622372541725" lon="120.96873105405383"><ele>7.75</ele><time>2026-05-05T14:52:24.999Z</time></trkpt><trkpt lat="14.466694024468907" lon="120.96879889818025"><ele>8.0</ele><time>2026-05-05T14:52:26.999Z</time></trkpt><trkpt lat="14.466976817159836" lon="120.96883645040734"><ele>8.0</ele><time>2026-05-05T14:52:38.999Z</time></trkpt><trkpt lat="14.466760117765167" lon="120.96883928212357"><ele>8.0</ele><time>2026-05-05T14:52:40.999Z</time></trkpt><trkpt lat="14.466852061303857" lon="120.96872679283015"><ele>8.0</ele><time>2026-05-05T14:52:43.999Z</time></trkpt><trkpt lat="14.466840044722634" lon="120.96865735187846"><ele>8.0</ele><time>2026-05-05T14:58:04.999Z</time></trkpt><trkpt lat="14.466816866965193" lon="120.96859665050623"><ele>8.0</ele><time>2026-05-05T14:58:11.999Z</time></trkpt><trkpt lat="14.466867147476409" lon="120.96864199008365"><ele>7.999999999999999</ele><time>2026-05-05T14:59:30.999Z</time></trkpt><trkpt lat="14.466833027929841" lon="120.96870059058642"><ele>8.0</ele><time>2026-05-05T15:02:26Z</time></trkpt><trkpt lat="14.466792307873552" lon="120.96875260241312"><ele>8.0</ele><time>2026-05-05T15:02:28Z</time></trkpt><trkpt lat="14.466790368923093" lon="120.96881856530248"><ele>7.999999999999999</ele><time>2026-05-05T15:02:31Z</time></trkpt><trkpt lat="14.466822934663721" lon="120.96890653667232"><ele>8.0</ele><time>2026-05-05T15:02:55.999Z</time></trkpt><trkpt lat="14.46686485415645" lon="120.96897662341703"><ele>8.0</ele><time>2026-05-05T15:02:57.999Z</time></trkpt><trkpt lat="14.466964482500055" lon="120.96904954629298"><ele>7.999999999999999</ele><time>2026-05-05T15:02:59.999Z</time></trkpt><trkpt lat="14.467030329993822" lon="120.96909964494981"><ele>8.0</ele><time>2026-05-05T15:03:00.999Z</time></trkpt><trkpt lat="14.467098728684942" lon="120.96915492567436"><ele>8.0</ele><time>2026-05-05T15:03:01.999Z</time></trkpt><trkpt lat="14.467166210457954" lon="120.96920933934607"><ele>8.0</ele><time>2026-05-05T15:03:02.999Z</time></trkpt><trkpt lat="14.467233778447218" lon="120.96926064883247"><ele>7.999999999999999</ele><time>2026-05-05T15:03:03.999Z</time></trkpt><trkpt lat="14.467300888000617" lon="120.96931340249657"><ele>8.0</ele><time>2026-05-05T15:03:04.999Z</time></trkpt><trkpt lat="14.467360486662587" lon="120.96936102257204"><ele>7.800000000000001</ele><time>2026-05-05T15:03:05.999Z</time></trkpt><trkpt lat="14.46744358615629" lon="120.96942362936365"><ele>7.6000000000000005</ele><time>2026-05-05T15:03:06.999Z</time></trkpt><trkpt lat="14.46751028864013" lon="120.96947650145137"><ele>7.3999999999999995</ele><time>2026-05-05T15:03:07.999Z</time></trkpt><trkpt lat="14.467585461666763" lon="120.96953589094527"><ele>7.199999999999999</ele><time>2026-05-05T15:03:08.999Z</time></trkpt><trkpt lat="14.467669348494423" lon="120.96960097768938"><ele>7.0</ele><time>2026-05-05T15:03:09.999Z</time></trkpt><trkpt lat="14.46775435124162" lon="120.96966687389336"><ele>7.0</ele><time>2026-05-05T15:03:10.999Z</time></trkpt><trkpt lat="14.467836034856578" lon="120.9697245870818"><ele>6.999999999999999</ele><time>2026-05-05T15:03:11.999Z</time></trkpt><trkpt lat="14.467922660905748" lon="120.96978356411334"><ele>6.999999999999999</ele><time>2026-05-05T15:03:12.999Z</time></trkpt><trkpt lat="14.4680082253629" lon="120.9698380675559"><ele>7.0</ele><time>2026-05-05T15:03:13.999Z</time></trkpt><trkpt lat="14.468092046309852" lon="120.96988680862559"><ele>7.0</ele><time>2026-05-05T15:03:14.999Z</time></trkpt><trkpt lat="14.46816899755106" lon="120.96993199358825"><ele>7.000000000000001</ele><time>2026-05-05T15:03:15.999Z</time></trkpt><trkpt lat="14.468249731334724" lon="120.96997183323239"><ele>7.0</ele><time>2026-05-05T15:03:16.999Z</time></trkpt><trkpt lat="14.468330386938604" lon="120.9700031649577"><ele>7.0</ele><time>2026-05-05T15:03:17.999Z</time></trkpt><trkpt lat="14.468406139940015" lon="120.97003030438873"><ele>7.0</ele><time>2026-05-05T15:03:18.999Z</time></trkpt><trkpt lat="14.468491291319754" lon="120.97006373293804"><ele>7.000000000000001</ele><time>2026-05-05T15:03:19.999Z</time></trkpt><trkpt lat="14.468567687361165" lon="120.97009516654416"><ele>7.0</ele><time>2026-05-05T15:03:20.999Z</time></trkpt><trkpt lat="14.468662926585349" lon="120.97012919962295"><ele>7.199999999999999</ele><time>2026-05-05T15:03:21.999Z</time></trkpt><trkpt lat="14.468756385843013" lon="120.97016416430169"><ele>7.3999999999999995</ele><time>2026-05-05T15:03:22.999Z</time></trkpt><trkpt lat="14.468847366712566" lon="120.97020677008545"><ele>7.6000000000000005</ele><time>2026-05-05T15:03:23.999Z</time></trkpt><trkpt lat="14.468940511953713" lon="120.97026799391776"><ele>7.800000000000001</ele><time>2026-05-05T15:03:24.999Z</time></trkpt><trkpt lat="14.469026804085479" lon="120.97034102565634"><ele>8.0</ele><time>2026-05-05T15:03:25.999Z</time></trkpt><trkpt lat="14.469105129096391" lon="120.97042514412644"><ele>7.999999999999999</ele><time>2026-05-05T15:03:26.999Z</time></trkpt><trkpt lat="14.469181600962328" lon="120.97050502315817"><ele>8.0</ele><time>2026-05-05T15:03:27.999Z</time></trkpt><trkpt lat="14.469244157886424" lon="120.97057818897864"><ele>8.0</ele><time>2026-05-05T15:03:28.999Z</time></trkpt><trkpt lat="14.46930417938516" lon="120.9706477669548"><ele>8.0</ele><time>2026-05-05T15:03:29.999Z</time></trkpt><trkpt lat="14.469357079040549" lon="120.97070899460938"><ele>7.999999999999999</ele><time>2026-05-05T15:03:30.999Z</time></trkpt><trkpt lat="14.469407533032998" lon="120.97076749580928"><ele>8.0</ele><time>2026-05-05T15:03:32Z</time></trkpt><trkpt lat="14.469456063691563" lon="120.970820895224"><ele>7.833333333333333</ele><time>2026-05-05T15:03:33Z</time></trkpt><trkpt lat="14.469499059208077" lon="120.97087202285444"><ele>7.666666666666666</ele><time>2026-05-05T15:03:34Z</time></trkpt><trkpt lat="14.469572827575329" lon="120.97095857292256"><ele>7.5</ele><time>2026-05-05T15:03:36Z</time></trkpt><trkpt lat="14.469641297552638" lon="120.97103764988441"><ele>7.333333333333334</ele><time>2026-05-05T15:03:38Z</time></trkpt><trkpt lat="14.469682346936105" lon="120.97108728636493"><ele>7.166666666666667</ele><time>2026-05-05T15:03:39Z</time></trkpt><trkpt lat="14.469722465885889" lon="120.97113806524322"><ele>7.0</ele><time>2026-05-05T15:03:40Z</time></trkpt><trkpt lat="14.469805593834044" lon="120.97124736701954"><ele>7.000000000000001</ele><time>2026-05-05T15:03:42Z</time></trkpt><trkpt lat="14.469850799906135" lon="120.97130839926835"><ele>7.0</ele><time>2026-05-05T15:03:43Z</time></trkpt><trkpt lat="14.46989875916056" lon="120.9713665422066"><ele>7.0</ele><time>2026-05-05T15:03:44Z</time></trkpt><trkpt lat="14.469949268418764" lon="120.97143138795141"><ele>7.0</ele><time>2026-05-05T15:03:45Z</time></trkpt><trkpt lat="14.470001395101894" lon="120.9715007333363"><ele>7.000000000000001</ele><time>2026-05-05T15:03:46Z</time></trkpt><trkpt lat="14.470047035503493" lon="120.97156295466763"><ele>7.0</ele><time>2026-05-05T15:03:47Z</time></trkpt><trkpt lat="14.470091864549287" lon="120.97162418969796"><ele>7.000000000000001</ele><time>2026-05-05T15:03:48Z</time></trkpt><trkpt lat="14.470131800383628" lon="120.97168942746477"><ele>7.0</ele><time>2026-05-05T15:03:49Z</time></trkpt><trkpt lat="14.470178001426614" lon="120.97176104129798"><ele>7.0</ele><time>2026-05-05T15:03:50Z</time></trkpt><trkpt lat="14.470224990650383" lon="120.97182893544655"><ele>7.0</ele><time>2026-05-05T15:03:51Z</time></trkpt><trkpt lat="14.470266658637827" lon="120.97189187626851"><ele>7.000000000000001</ele><time>2026-05-05T15:03:52Z</time></trkpt><trkpt lat="14.470303348836723" lon="120.97195453810333"><ele>7.0</ele><time>2026-05-05T15:03:53Z</time></trkpt><trkpt lat="14.470359003066077" lon="120.97203295431773"><ele>7.000000000000001</ele><time>2026-05-05T15:03:54Z</time></trkpt><trkpt lat="14.470400271356718" lon="120.97209392104547"><ele>7.0</ele><time>2026-05-05T15:03:55Z</time></trkpt><trkpt lat="14.470439754942483" lon="120.97215456813025"><ele>7.0</ele><time>2026-05-05T15:03:56Z</time></trkpt><trkpt lat="14.470502441613357" lon="120.97225539339502"><ele>7.0</ele><time>2026-05-05T15:03:58Z</time></trkpt><trkpt lat="14.470542009967069" lon="120.97231497840406"><ele>7.000000000000001</ele><time>2026-05-05T15:03:59Z</time></trkpt><trkpt lat="14.470583403784673" lon="120.97237450825541"><ele>7.0</ele><time>2026-05-05T15:04:00Z</time></trkpt><trkpt lat="14.47061814619022" lon="120.97243026708229"><ele>7.0</ele><time>2026-05-05T15:04:01Z</time></trkpt><trkpt lat="14.470654746268831" lon="120.97249306786725"><ele>6.999999999999999</ele><time>2026-05-05T15:04:02Z</time></trkpt><trkpt lat="14.470714586661575" lon="120.97259500773245"><ele>6.999999999999999</ele><time>2026-05-05T15:04:04Z</time></trkpt><trkpt lat="14.470780780869397" lon="120.97271044872974"><ele>7.0</ele><time>2026-05-05T15:04:06Z</time></trkpt><trkpt lat="14.470842278447199" lon="120.97281636300016"><ele>7.0</ele><time>2026-05-05T15:04:08Z</time></trkpt><trkpt lat="14.470904050069809" lon="120.97293573482577"><ele>7.0</ele><time>2026-05-05T15:04:10Z</time></trkpt><trkpt lat="14.470942559166682" lon="120.97300418761131"><ele>6.999999999999999</ele><time>2026-05-05T15:04:11Z</time></trkpt><trkpt lat="14.470981710708395" lon="120.97307995188248"><ele>6.999999999999999</ele><time>2026-05-05T15:04:12Z</time></trkpt><trkpt lat="14.471012842961052" lon="120.97314194674"><ele>7.0</ele><time>2026-05-05T15:04:13Z</time></trkpt><trkpt lat="14.471071407462842" lon="120.97324839959239"><ele>7.0</ele><time>2026-05-05T15:04:15Z</time></trkpt><trkpt lat="14.47113006341898" lon="120.97336599854901"><ele>6.857142857142857</ele><time>2026-05-05T15:04:17Z</time></trkpt><trkpt lat="14.471163567066627" lon="120.9734259053645"><ele>6.714285714285714</ele><time>2026-05-05T15:04:18Z</time></trkpt><trkpt lat="14.471197134437638" lon="120.97348715337675"><ele>6.571428571428571</ele><time>2026-05-05T15:04:19Z</time></trkpt><trkpt lat="14.471228801475041" lon="120.97354408692031"><ele>6.428571428571429</ele><time>2026-05-05T15:04:20Z</time></trkpt><trkpt lat="14.47127811396658" lon="120.97363044006158"><ele>6.285714285714286</ele><time>2026-05-05T15:04:22Z</time></trkpt><trkpt lat="14.471314137025832" lon="120.97369640391237"><ele>6.142857142857142</ele><time>2026-05-05T15:04:24Z</time></trkpt><trkpt lat="14.471339913503693" lon="120.97375886825922"><ele>6.0</ele><time>2026-05-05T15:04:28Z</time></trkpt><trkpt lat="14.47136432692827" lon="120.9738444723585"><ele>6.0</ele><time>2026-05-05T15:04:32Z</time></trkpt><trkpt lat="14.471401054925249" lon="120.97391798665798"><ele>6.0</ele><time>2026-05-05T15:04:35Z</time></trkpt><trkpt lat="14.471427590671736" lon="120.97398885513296"><ele>6.0</ele><time>2026-05-05T15:04:40Z</time></trkpt><trkpt lat="14.471487173377636" lon="120.97407631179661"><ele>6.0</ele><time>2026-05-05T15:04:47Z</time></trkpt><trkpt lat="14.471532114168706" lon="120.97417310852741"><ele>6.0</ele><time>2026-05-05T15:04:49Z</time></trkpt><trkpt lat="14.47157334383993" lon="120.97425441511669"><ele>6.25</ele><time>2026-05-05T15:04:51Z</time></trkpt><trkpt lat="14.47163804024398" lon="120.97437535643456"><ele>6.5</ele><time>2026-05-05T15:04:53Z</time></trkpt><trkpt lat="14.471680082757514" lon="120.9744539345238"><ele>6.75</ele><time>2026-05-05T15:04:54Z</time></trkpt><trkpt lat="14.47172938603004" lon="120.97455743851006"><ele>7.0</ele><time>2026-05-05T15:04:55Z</time></trkpt><trkpt lat="14.471787314427004" lon="120.97467376759589"><ele>7.0</ele><time>2026-05-05T15:04:56Z</time></trkpt><trkpt lat="14.47183825538295" lon="120.97477540052856"><ele>6.999999999999999</ele><time>2026-05-05T15:04:57Z</time></trkpt><trkpt lat="14.471894026297985" lon="120.97485830518644"><ele>6.999999999999999</ele><time>2026-05-05T15:04:58Z</time></trkpt><trkpt lat="14.471938826295814" lon="120.9749439098333"><ele>7.0</ele><time>2026-05-05T15:04:59Z</time></trkpt><trkpt lat="14.47200335209831" lon="120.97504442510991"><ele>7.0</ele><time>2026-05-05T15:05:00Z</time></trkpt><trkpt lat="14.472067472727057" lon="120.97515062793573"><ele>7.0</ele><time>2026-05-05T15:05:01Z</time></trkpt><trkpt lat="14.472133417085237" lon="120.97526226085981"><ele>7.0</ele><time>2026-05-05T15:05:02Z</time></trkpt><trkpt lat="14.47221130784874" lon="120.97536348913546"><ele>7.0</ele><time>2026-05-05T15:05:03Z</time></trkpt><trkpt lat="14.472287484287165" lon="120.97545859417086"><ele>7.0</ele><time>2026-05-05T15:05:04Z</time></trkpt><trkpt lat="14.47236215410876" lon="120.97554843065318"><ele>7.0</ele><time>2026-05-05T15:05:05Z</time></trkpt><trkpt lat="14.472422642385322" lon="120.97563180014834"><ele>6.999999999999999</ele><time>2026-05-05T15:05:06Z</time></trkpt><trkpt lat="14.472486047712298" lon="120.97571435742753"><ele>6.999999999999999</ele><time>2026-05-05T15:05:07Z</time></trkpt><trkpt lat="14.472553668278287" lon="120.9757988992932"><ele>7.0</ele><time>2026-05-05T15:05:08Z</time></trkpt><trkpt lat="14.47263032009293" lon="120.97588206709834"><ele>7.0</ele><time>2026-05-05T15:05:09Z</time></trkpt><trkpt lat="14.472700251438816" lon="120.97597356301341"><ele>7.0</ele><time>2026-05-05T15:05:10Z</time></trkpt><trkpt lat="14.47277197671088" lon="120.9760698418023"><ele>6.999999999999999</ele><time>2026-05-05T15:05:11Z</time></trkpt><trkpt lat="14.472843042185358" lon="120.97616362543162"><ele>6.999999999999999</ele><time>2026-05-05T15:05:12Z</time></trkpt><trkpt lat="14.472910016007152" lon="120.97624226545625"><ele>7.0</ele><time>2026-05-05T15:05:13Z</time></trkpt><trkpt lat="14.472971599384994" lon="120.97631329804666"><ele>7.0</ele><time>2026-05-05T15:05:14Z</time></trkpt><trkpt lat="14.473020154536608" lon="120.97636599659137"><ele>7.0</ele><time>2026-05-05T15:05:15Z</time></trkpt><trkpt lat="14.473081226475033" lon="120.97643753597814"><ele>6.999999999999999</ele><time>2026-05-05T15:05:17Z</time></trkpt><trkpt lat="14.47312556024097" lon="120.97651069683943"><ele>6.999999999999999</ele><time>2026-05-05T15:05:19Z</time></trkpt><trkpt lat="14.473167626317192" lon="120.9765873330044"><ele>7.0</ele><time>2026-05-05T15:05:21Z</time></trkpt><trkpt lat="14.473243107038433" lon="120.976702537387"><ele>7.0</ele><time>2026-05-05T15:05:23Z</time></trkpt><trkpt lat="14.473293060550734" lon="120.97677738312998"><ele>6.833333333333334</ele><time>2026-05-05T15:05:24Z</time></trkpt><trkpt lat="14.473337104996311" lon="120.97683669058137"><ele>6.666666666666667</ele><time>2026-05-05T15:05:25Z</time></trkpt><trkpt lat="14.473384411039891" lon="120.97690475699011"><ele>6.5</ele><time>2026-05-05T15:05:26Z</time></trkpt><trkpt lat="14.473442216347397" lon="120.97699894437062"><ele>6.333333333333334</ele><time>2026-05-05T15:05:28Z</time></trkpt><trkpt lat="14.473492060726725" lon="120.97706269102669"><ele>6.166666666666667</ele><time>2026-05-05T15:05:30Z</time></trkpt><trkpt lat="14.473544746413214" lon="120.97712805997027"><ele>6.0</ele><time>2026-05-05T15:05:32Z</time></trkpt><trkpt lat="14.47361247887546" lon="120.97723476679235"><ele>6.0</ele><time>2026-05-05T15:05:34Z</time></trkpt><trkpt lat="14.47365625178171" lon="120.97732014256826"><ele>6.0</ele><time>2026-05-05T15:05:36Z</time></trkpt><trkpt lat="14.473690741943729" lon="120.977379344494"><ele>6.0</ele><time>2026-05-05T15:05:38Z</time></trkpt><trkpt lat="14.473719959785075" lon="120.97744545805047"><ele>6.0</ele><time>2026-05-05T15:05:43Z</time></trkpt><trkpt lat="14.473741336521046" lon="120.9775163123602"><ele>6.0</ele><time>2026-05-05T15:05:46Z</time></trkpt><trkpt lat="14.473788737943156" lon="120.97759689386875"><ele>6.0</ele><time>2026-05-05T15:05:48Z</time></trkpt><trkpt lat="14.473829977469922" lon="120.97766349107312"><ele>6.0</ele><time>2026-05-05T15:05:50Z</time></trkpt><trkpt lat="14.473872579793728" lon="120.97773319825987"><ele>6.0</ele><time>2026-05-05T15:05:52Z</time></trkpt><trkpt lat="14.473932916691139" lon="120.97783616609664"><ele>6.0</ele><time>2026-05-05T15:05:54Z</time></trkpt><trkpt lat="14.473951932005393" lon="120.97790337054377"><ele>6.0</ele><time>2026-05-05T15:05:55Z</time></trkpt><trkpt lat="14.47395286410909" lon="120.97806436703172"><ele>6.0</ele><time>2026-05-05T15:05:57Z</time></trkpt><trkpt lat="14.47392744991048" lon="120.97814457822871"><ele>6.0</ele><time>2026-05-05T15:05:58Z</time></trkpt><trkpt lat="14.4738896512434" lon="120.97822772978282"><ele>6.0</ele><time>2026-05-05T15:05:59Z</time></trkpt><trkpt lat="14.473849474778744" lon="120.97832263439668"><ele>6.0</ele><time>2026-05-05T15:06:00Z</time></trkpt><trkpt lat="14.473810500096763" lon="120.97841465686125"><ele>6.0</ele><time>2026-05-05T15:06:01Z</time></trkpt><trkpt lat="14.473776167339297" lon="120.97848585615213"><ele>6.0</ele><time>2026-05-05T15:06:02Z</time></trkpt><trkpt lat="14.47374709544851" lon="120.97855771176256"><ele>6.0</ele><time>2026-05-05T15:06:03Z</time></trkpt><trkpt lat="14.473723976380587" lon="120.97862170170443"><ele>6.5</ele><time>2026-05-05T15:06:04Z</time></trkpt><trkpt lat="14.473695783740073" lon="120.97870029647329"><ele>7.0</ele><time>2026-05-05T15:06:05Z</time></trkpt><trkpt lat="14.473678640259395" lon="120.97877470448225"><ele>7.5</ele><time>2026-05-05T15:06:06Z</time></trkpt><trkpt lat="14.473673700331316" lon="120.9788702122151"><ele>8.0</ele><time>2026-05-05T15:06:07Z</time></trkpt><trkpt lat="14.473665378167876" lon="120.97896352696425"><ele>8.5</ele><time>2026-05-05T15:06:08Z</time></trkpt><trkpt lat="14.473687979088192" lon="120.97904641340553"><ele>9.0</ele><time>2026-05-05T15:06:09Z</time></trkpt><trkpt lat="14.473698612329466" lon="120.97912914013042"><ele>8.4</ele><time>2026-05-05T15:06:10Z</time></trkpt><trkpt lat="14.473709138585193" lon="120.979211034376"><ele>7.800000000000001</ele><time>2026-05-05T15:06:11Z</time></trkpt><trkpt lat="14.473694409718515" lon="120.97930493669924"><ele>7.199999999999999</ele><time>2026-05-05T15:06:12Z</time></trkpt><trkpt lat="14.473707290491637" lon="120.97939997941126"><ele>6.6</ele><time>2026-05-05T15:06:13Z</time></trkpt><trkpt lat="14.473715886707216" lon="120.97948917061935"><ele>6.0</ele><time>2026-05-05T15:06:14Z</time></trkpt><trkpt lat="14.473730968327605" lon="120.97959398882077"><ele>6.0</ele><time>2026-05-05T15:06:15Z</time></trkpt><trkpt lat="14.473745928845394" lon="120.97969602150243"><ele>6.0</ele><time>2026-05-05T15:06:16Z</time></trkpt><trkpt lat="14.47378200144113" lon="120.97978669956167"><ele>6.0</ele><time>2026-05-05T15:06:17Z</time></trkpt><trkpt lat="14.473773827374933" lon="120.97988072026779"><ele>6.0</ele><time>2026-05-05T15:06:18Z</time></trkpt><trkpt lat="14.473793380372701" lon="120.97998475961454"><ele>6.0</ele><time>2026-05-05T15:06:19Z</time></trkpt><trkpt lat="14.473808618015205" lon="120.980080482952"><ele>5.8</ele><time>2026-05-05T15:06:20Z</time></trkpt><trkpt lat="14.473834113349252" lon="120.98017439396264"><ele>5.6</ele><time>2026-05-05T15:06:21Z</time></trkpt><trkpt lat="14.473866418093271" lon="120.98026079970334"><ele>5.4</ele><time>2026-05-05T15:06:22Z</time></trkpt><trkpt lat="14.473906489384047" lon="120.98034280421514"><ele>5.2</ele><time>2026-05-05T15:06:23Z</time></trkpt><trkpt lat="14.473958446282904" lon="120.98042940328777"><ele>5.0</ele><time>2026-05-05T15:06:24Z</time></trkpt><trkpt lat="14.474012044524338" lon="120.98051813567551"><ele>5.0</ele><time>2026-05-05T15:06:25Z</time></trkpt><trkpt lat="14.474069190836918" lon="120.98061189837333"><ele>5.0</ele><time>2026-05-05T15:06:26Z</time></trkpt><trkpt lat="14.474124550740555" lon="120.98071093829232"><ele>5.0</ele><time>2026-05-05T15:06:27Z</time></trkpt><trkpt lat="14.474181768504984" lon="120.9808108687904"><ele>5.0</ele><time>2026-05-05T15:06:28Z</time></trkpt><trkpt lat="14.474238374242647" lon="120.98090459652468"><ele>5.0</ele><time>2026-05-05T15:06:29Z</time></trkpt><trkpt lat="14.474305381276247" lon="120.98100619480044"><ele>5.75</ele><time>2026-05-05T15:06:30Z</time></trkpt><trkpt lat="14.474378937958958" lon="120.98110838211343"><ele>6.5</ele><time>2026-05-05T15:06:31Z</time></trkpt><trkpt lat="14.474468573815328" lon="120.98121770935144"><ele>7.25</ele><time>2026-05-05T15:06:32Z</time></trkpt><trkpt lat="14.474562755099655" lon="120.98132867401733"><ele>8.0</ele><time>2026-05-05T15:06:33Z</time></trkpt><trkpt lat="14.474662431807621" lon="120.98144212320983"><ele>8.0</ele><time>2026-05-05T15:06:34Z</time></trkpt><trkpt lat="14.474768017636146" lon="120.98155941058886"><ele>8.0</ele><time>2026-05-05T15:06:35Z</time></trkpt><trkpt lat="14.474878331073803" lon="120.98167386606728"><ele>8.0</ele><time>2026-05-05T15:06:36Z</time></trkpt><trkpt lat="14.474985143424554" lon="120.98178143812311"><ele>8.0</ele><time>2026-05-05T15:06:37Z</time></trkpt><trkpt lat="14.475083881090514" lon="120.98188285602379"><ele>8.0</ele><time>2026-05-05T15:06:38Z</time></trkpt><trkpt lat="14.47517800693076" lon="120.98197961912199"><ele>8.0</ele><time>2026-05-05T15:06:39Z</time></trkpt><trkpt lat="14.47527252422243" lon="120.9820741842399"><ele>8.0</ele><time>2026-05-05T15:06:40Z</time></trkpt><trkpt lat="14.475372706121702" lon="120.9821740074027"><ele>8.0</ele><time>2026-05-05T15:06:41Z</time></trkpt><trkpt lat="14.475474345197505" lon="120.98227638069133"><ele>8.0</ele><time>2026-05-05T15:06:42Z</time></trkpt><trkpt lat="14.475576621400922" lon="120.98238514373067"><ele>8.0</ele><time>2026-05-05T15:06:43Z</time></trkpt><trkpt lat="14.475681722202074" lon="120.9825024621294"><ele>8.0</ele><time>2026-05-05T15:06:44Z</time></trkpt><trkpt lat="14.475792520439715" lon="120.98262449685419"><ele>7.333333333333333</ele><time>2026-05-05T15:06:45Z</time></trkpt><trkpt lat="14.475907581282039" lon="120.98274958888207"><ele>6.666666666666666</ele><time>2026-05-05T15:06:46Z</time></trkpt><trkpt lat="14.476031225374427" lon="120.98288006336483"><ele>6.0</ele><time>2026-05-05T15:06:47Z</time></trkpt><trkpt lat="14.476153689830378" lon="120.98300894989822"><ele>6.333333333333334</ele><time>2026-05-05T15:06:48Z</time></trkpt><trkpt lat="14.476282331450827" lon="120.98314091554033"><ele>6.666666666666667</ele><time>2026-05-05T15:06:49Z</time></trkpt><trkpt lat="14.476414054140864" lon="120.98327463748585"><ele>7.0</ele><time>2026-05-05T15:06:50Z</time></trkpt><trkpt lat="14.476548300381525" lon="120.98341201377919"><ele>7.666666666666667</ele><time>2026-05-05T15:06:51Z</time></trkpt><trkpt lat="14.476686524989988" lon="120.98355206020663"><ele>8.333333333333334</ele><time>2026-05-05T15:06:52Z</time></trkpt><trkpt lat="14.476823060633224" lon="120.98369060084487"><ele>9.0</ele><time>2026-05-05T15:06:53Z</time></trkpt><trkpt lat="14.476960559267074" lon="120.98383423720412"><ele>9.0</ele><time>2026-05-05T15:06:54Z</time></trkpt><trkpt lat="14.477101737097058" lon="120.98398045147644"><ele>9.0</ele><time>2026-05-05T15:06:55Z</time></trkpt><trkpt lat="14.477249823996265" lon="120.98412840198613"><ele>9.0</ele><time>2026-05-05T15:06:56Z</time></trkpt><trkpt lat="14.477393976237819" lon="120.98427399550351"><ele>6.666666666666667</ele><time>2026-05-05T15:06:57Z</time></trkpt><trkpt lat="14.47753209140639" lon="120.98440829754092"><ele>4.333333333333333</ele><time>2026-05-05T15:06:58Z</time></trkpt><trkpt lat="14.477658660740966" lon="120.98452948317791"><ele>2.0</ele><time>2026-05-05T15:06:59Z</time></trkpt><trkpt lat="14.477777193290747" lon="120.98464720686567"><ele>2.0</ele><time>2026-05-05T15:07:00Z</time></trkpt><trkpt lat="14.477897074927263" lon="120.98477000925851"><ele>2.0</ele><time>2026-05-05T15:07:01Z</time></trkpt><trkpt lat="14.478016124869757" lon="120.98489311259561"><ele>2.0</ele><time>2026-05-05T15:07:02Z</time></trkpt><trkpt lat="14.478142711696714" lon="120.98502164734363"><ele>5.0</ele><time>2026-05-05T15:07:03Z</time></trkpt><trkpt lat="14.478270666141634" lon="120.98515193947416"><ele>8.0</ele><time>2026-05-05T15:07:04Z</time></trkpt><trkpt lat="14.478398113635752" lon="120.98528767607297"><ele>11.0</ele><time>2026-05-05T15:07:05Z</time></trkpt><trkpt lat="14.478525820331301" lon="120.98543153489317"><ele>11.0</ele><time>2026-05-05T15:07:06Z</time></trkpt><trkpt lat="14.478660187622285" lon="120.98557323715097"><ele>11.0</ele><time>2026-05-05T15:07:07Z</time></trkpt><trkpt lat="14.478797444141184" lon="120.98571104747137"><ele>11.0</ele><time>2026-05-05T15:07:08Z</time></trkpt><trkpt lat="14.47892841870362" lon="120.9858445992154"><ele>8.0</ele><time>2026-05-05T15:07:09Z</time></trkpt><trkpt lat="14.479059555738651" lon="120.98597778887843"><ele>5.0</ele><time>2026-05-05T15:07:10Z</time></trkpt><trkpt lat="14.479186256533989" lon="120.9861094469149"><ele>2.0</ele><time>2026-05-05T15:07:11Z</time></trkpt><trkpt lat="14.479309245056694" lon="120.98623902415504"><ele>2.0</ele><time>2026-05-05T15:07:12Z</time></trkpt><trkpt lat="14.479439314036375" lon="120.98637376888634"><ele>2.0</ele><time>2026-05-05T15:07:13Z</time></trkpt><trkpt lat="14.479570959630312" lon="120.98651020451587"><ele>2.0</ele><time>2026-05-05T15:07:14Z</time></trkpt><trkpt lat="14.47970125331268" lon="120.98664634337055"><ele>2.6666666666666665</ele><time>2026-05-05T15:07:15Z</time></trkpt><trkpt lat="14.479831271754065" lon="120.98677873420098"><ele>3.333333333333333</ele><time>2026-05-05T15:07:16Z</time></trkpt><trkpt lat="14.479959204710868" lon="120.98690651830195"><ele>4.0</ele><time>2026-05-05T15:07:17Z</time></trkpt><trkpt lat="14.480081305329085" lon="120.98702646252497"><ele>4.0</ele><time>2026-05-05T15:07:18Z</time></trkpt><trkpt lat="14.480200247646208" lon="120.98713656068867"><ele>4.0</ele><time>2026-05-05T15:07:19Z</time></trkpt><trkpt lat="14.48031172118867" lon="120.98723522306895"><ele>4.0</ele><time>2026-05-05T15:07:20Z</time></trkpt><trkpt lat="14.480424143112286" lon="120.98732611644387"><ele>4.0</ele><time>2026-05-05T15:07:21Z</time></trkpt><trkpt lat="14.48054495903364" lon="120.98741000703396"><ele>3.6666666666666665</ele><time>2026-05-05T15:07:22Z</time></trkpt><trkpt lat="14.480673968125968" lon="120.98748369042059"><ele>3.333333333333333</ele><time>2026-05-05T15:07:23Z</time></trkpt><trkpt lat="14.480812889866929" lon="120.98755333832415"><ele>3.0</ele><time>2026-05-05T15:07:24Z</time></trkpt><trkpt lat="14.480953909656696" lon="120.98762513356375"><ele>3.0</ele><time>2026-05-05T15:07:25Z</time></trkpt><trkpt lat="14.48109364441309" lon="120.98768982661551"><ele>3.0</ele><time>2026-05-05T15:07:26Z</time></trkpt><trkpt lat="14.481222364035993" lon="120.98774793627533"><ele>3.0</ele><time>2026-05-05T15:07:27Z</time></trkpt><trkpt lat="14.481348547666483" lon="120.98781375683663"><ele>3.0</ele><time>2026-05-05T15:07:28Z</time></trkpt><trkpt lat="14.481478428729275" lon="120.98788352603492"><ele>0.6666666666666667</ele><time>2026-05-05T15:07:29Z</time></trkpt><trkpt lat="14.481615536572075" lon="120.98795154781935"><ele>-1.6666666666666665</ele><time>2026-05-05T15:07:30Z</time></trkpt><trkpt lat="14.481751624785845" lon="120.98801533690813"><ele>-4.0</ele><time>2026-05-05T15:07:31Z</time></trkpt><trkpt lat="14.481887242394842" lon="120.98807884471844"><ele>-4.0</ele><time>2026-05-05T15:07:32Z</time></trkpt><trkpt lat="14.482012681991606" lon="120.98814564613846"><ele>-4.0</ele><time>2026-05-05T15:07:33Z</time></trkpt><trkpt lat="14.482140528482375" lon="120.98820888263825"><ele>-4.0</ele><time>2026-05-05T15:07:34Z</time></trkpt><trkpt lat="14.482258513054754" lon="120.98826650632815"><ele>-4.0</ele><time>2026-05-05T15:07:35Z</time></trkpt><trkpt lat="14.482368529038853" lon="120.98832356168501"><ele>-2.6</ele><time>2026-05-05T15:07:36Z</time></trkpt><trkpt lat="14.482472412526885" lon="120.9883816782533"><ele>-1.2000000000000004</ele><time>2026-05-05T15:07:37Z</time></trkpt><trkpt lat="14.482565553955153" lon="120.98843236320575"><ele>0.19999999999999973</ele><time>2026-05-05T15:07:38Z</time></trkpt><trkpt lat="14.482650763148973" lon="120.98848640549558"><ele>1.5999999999999999</ele><time>2026-05-05T15:07:39Z</time></trkpt><trkpt lat="14.482726698464731" lon="120.98854926699696"><ele>3.0</ele><time>2026-05-05T15:07:40Z</time></trkpt><trkpt lat="14.482793122460725" lon="120.98862128465224"><ele>3.0</ele><time>2026-05-05T15:07:41Z</time></trkpt><trkpt lat="14.482880956360258" lon="120.98870136610383"><ele>3.0</ele><time>2026-05-05T15:07:42Z</time></trkpt><trkpt lat="14.482913007994433" lon="120.98879391538983"><ele>3.0</ele><time>2026-05-05T15:07:43Z</time></trkpt><trkpt lat="14.48297378383773" lon="120.98889067744797"><ele>3.0</ele><time>2026-05-05T15:07:44Z</time></trkpt><trkpt lat="14.483027321792514" lon="120.98898711160469"><ele>3.0</ele><time>2026-05-05T15:07:45Z</time></trkpt><trkpt lat="14.483081735909808" lon="120.9890966253305"><ele>3.0</ele><time>2026-05-05T15:07:46Z</time></trkpt><trkpt lat="14.483145553082316" lon="120.98922842268104"><ele>3.0</ele><time>2026-05-05T15:07:47Z</time></trkpt><trkpt lat="14.483203682277495" lon="120.98934762171291"><ele>3.0</ele><time>2026-05-05T15:07:48Z</time></trkpt><trkpt lat="14.483269871907664" lon="120.98947765759681"><ele>3.0</ele><time>2026-05-05T15:07:49Z</time></trkpt><trkpt lat="14.483334270861322" lon="120.98960036458037"><ele>3.0</ele><time>2026-05-05T15:07:50Z</time></trkpt><trkpt lat="14.483404727104984" lon="120.98971270013206"><ele>3.0</ele><time>2026-05-05T15:07:51Z</time></trkpt><trkpt lat="14.483450029733623" lon="120.98983087005206"><ele>3.0</ele><time>2026-05-05T15:07:52Z</time></trkpt><trkpt lat="14.483461372735668" lon="120.98995715621678"><ele>3.0</ele><time>2026-05-05T15:07:53Z</time></trkpt><trkpt lat="14.48345357573237" lon="120.99009018108075"><ele>4.0</ele><time>2026-05-05T15:07:54Z</time></trkpt><trkpt lat="14.483415954958156" lon="120.99022565630469"><ele>5.0</ele><time>2026-05-05T15:07:55Z</time></trkpt><trkpt lat="14.48335962733262" lon="120.99036185898811"><ele>6.0</ele><time>2026-05-05T15:07:56Z</time></trkpt><trkpt lat="14.48328944605108" lon="120.99049565662476"><ele>7.0</ele><time>2026-05-05T15:07:57Z</time></trkpt><trkpt lat="14.483226984285526" lon="120.99063123144643"><ele>7.0</ele><time>2026-05-05T15:07:58Z</time></trkpt><trkpt lat="14.483178591690075" lon="120.99076085726773"><ele>7.0</ele><time>2026-05-05T15:07:59Z</time></trkpt><trkpt lat="14.48314343823724" lon="120.99087977129588"><ele>7.0</ele><time>2026-05-05T15:08:00Z</time></trkpt><trkpt lat="14.483115500342171" lon="120.99099149568187"><ele>7.0</ele><time>2026-05-05T15:08:01Z</time></trkpt><trkpt lat="14.483106679330335" lon="120.99110531254394"><ele>7.0</ele><time>2026-05-05T15:08:02Z</time></trkpt><trkpt lat="14.483101525458688" lon="120.9912184328137"><ele>6.999999999999999</ele><time>2026-05-05T15:08:03Z</time></trkpt><trkpt lat="14.483110110079245" lon="120.99131937230685"><ele>6.999999999999999</ele><time>2026-05-05T15:08:04Z</time></trkpt><trkpt lat="14.48312769639161" lon="120.99142181165239"><ele>7.0</ele><time>2026-05-05T15:08:05.001Z</time></trkpt><trkpt lat="14.483157333640923" lon="120.9915341004905"><ele>7.0</ele><time>2026-05-05T15:08:06.001Z</time></trkpt><trkpt lat="14.483186506409407" lon="120.9916565503905"><ele>5.75</ele><time>2026-05-05T15:08:07.001Z</time></trkpt><trkpt lat="14.483238889723717" lon="120.9917817235278"><ele>4.5</ele><time>2026-05-05T15:08:08.001Z</time></trkpt><trkpt lat="14.483283709746983" lon="120.99191344364795"><ele>3.25</ele><time>2026-05-05T15:08:09.001Z</time></trkpt><trkpt lat="14.483328961598747" lon="120.99204025219716"><ele>2.0</ele><time>2026-05-05T15:08:10.001Z</time></trkpt><trkpt lat="14.483391241488288" lon="120.99216522208145"><ele>2.0</ele><time>2026-05-05T15:08:11.001Z</time></trkpt><trkpt lat="14.483453872369461" lon="120.99227931256253"><ele>2.0</ele><time>2026-05-05T15:08:12.001Z</time></trkpt><trkpt lat="14.483535712681459" lon="120.99238606523183"><ele>2.0</ele><time>2026-05-05T15:08:13.001Z</time></trkpt><trkpt lat="14.483652535724714" lon="120.99249181008916"><ele>2.0</ele><time>2026-05-05T15:08:14.001Z</time></trkpt><trkpt lat="14.483782271780342" lon="120.99257175457562"><ele>3.333333333333333</ele><time>2026-05-05T15:08:15.001Z</time></trkpt><trkpt lat="14.483918349986444" lon="120.99264797223988"><ele>4.666666666666667</ele><time>2026-05-05T15:08:16.001Z</time></trkpt><trkpt lat="14.484055575127785" lon="120.99273510457061"><ele>6.0</ele><time>2026-05-05T15:08:17.001Z</time></trkpt><trkpt lat="14.48419063569545" lon="120.99282341781891"><ele>6.0</ele><time>2026-05-05T15:08:18.001Z</time></trkpt><trkpt lat="14.484326918814743" lon="120.99291476572691"><ele>6.0</ele><time>2026-05-05T15:08:19.001Z</time></trkpt><trkpt lat="14.484463709926544" lon="120.99300566560812"><ele>6.0</ele><time>2026-05-05T15:08:20.001Z</time></trkpt><trkpt lat="14.484603703930473" lon="120.99309772916533"><ele>6.333333333333334</ele><time>2026-05-05T15:08:21.001Z</time></trkpt><trkpt lat="14.484741519107326" lon="120.99318473335393"><ele>6.666666666666667</ele><time>2026-05-05T15:08:22.001Z</time></trkpt><trkpt lat="14.48488570154958" lon="120.99327945038091"><ele>7.0</ele><time>2026-05-05T15:08:23.001Z</time></trkpt><trkpt lat="14.485023883215984" lon="120.99336570689485"><ele>5.666666666666667</ele><time>2026-05-05T15:08:24.001Z</time></trkpt><trkpt lat="14.485152913867338" lon="120.99345812910488"><ele>4.333333333333334</ele><time>2026-05-05T15:08:25.001Z</time></trkpt><trkpt lat="14.485277970175336" lon="120.9935673360836"><ele>3.0</ele><time>2026-05-05T15:08:26.001Z</time></trkpt><trkpt lat="14.485399721080439" lon="120.99368118150838"><ele>3.333333333333333</ele><time>2026-05-05T15:08:27.001Z</time></trkpt><trkpt lat="14.485514508904272" lon="120.99379277026046"><ele>3.6666666666666665</ele><time>2026-05-05T15:08:28.001Z</time></trkpt><trkpt lat="14.485622621481985" lon="120.99390999328592"><ele>4.0</ele><time>2026-05-05T15:08:29.001Z</time></trkpt><trkpt lat="14.485724816988988" lon="120.99401901986595"><ele>4.0</ele><time>2026-05-05T15:08:30.001Z</time></trkpt><trkpt lat="14.485829835119885" lon="120.99413327276754"><ele>4.0</ele><time>2026-05-05T15:08:31.001Z</time></trkpt><trkpt lat="14.485940555221223" lon="120.99426861421937"><ele>4.0</ele><time>2026-05-05T15:08:32.001Z</time></trkpt><trkpt lat="14.486035017634864" lon="120.9944046960737"><ele>4.0</ele><time>2026-05-05T15:08:33.001Z</time></trkpt><trkpt lat="14.486116256316341" lon="120.99454088295475"><ele>4.0</ele><time>2026-05-05T15:08:34.001Z</time></trkpt><trkpt lat="14.486179936707154" lon="120.99468421141816"><ele>4.0</ele><time>2026-05-05T15:08:35.001Z</time></trkpt><trkpt lat="14.486218287146011" lon="120.99483264221554"><ele>4.0</ele><time>2026-05-05T15:08:36.001Z</time></trkpt><trkpt lat="14.486245948320123" lon="120.99497459101119"><ele>4.0</ele><time>2026-05-05T15:08:37.001Z</time></trkpt><trkpt lat="14.486251261527569" lon="120.99511700431124"><ele>4.0</ele><time>2026-05-05T15:08:38.001Z</time></trkpt><trkpt lat="14.486234486617038" lon="120.99526683789216"><ele>4.0</ele><time>2026-05-05T15:08:39.001Z</time></trkpt><trkpt lat="14.486206862354258" lon="120.99542003808183"><ele>4.0</ele><time>2026-05-05T15:08:40.001Z</time></trkpt><trkpt lat="14.48616503906503" lon="120.99557036309079"><ele>4.0</ele><time>2026-05-05T15:08:41.001Z</time></trkpt><trkpt lat="14.486110450698375" lon="120.99571851569104"><ele>4.0</ele><time>2026-05-05T15:08:42.001Z</time></trkpt><trkpt lat="14.486046909089143" lon="120.99586982634"><ele>4.0</ele><time>2026-05-05T15:08:43.001Z</time></trkpt><trkpt lat="14.485997768374386" lon="120.99603472311158"><ele>4.0</ele><time>2026-05-05T15:08:44.001Z</time></trkpt><trkpt lat="14.485942685863007" lon="120.99619358152223"><ele>4.0</ele><time>2026-05-05T15:08:45.001Z</time></trkpt><trkpt lat="14.485897090936895" lon="120.9963421477941"><ele>4.0</ele><time>2026-05-05T15:08:46.001Z</time></trkpt><trkpt lat="14.485864521102608" lon="120.99648479400076"><ele>4.0</ele><time>2026-05-05T15:08:47.001Z</time></trkpt><trkpt lat="14.485838363047025" lon="120.99663311624413"><ele>4.0</ele><time>2026-05-05T15:08:48.001Z</time></trkpt><trkpt lat="14.485851780732828" lon="120.99678593810305"><ele>4.0</ele><time>2026-05-05T15:08:49.001Z</time></trkpt><trkpt lat="14.485883138520613" lon="120.99694444416083"><ele>5.0</ele><time>2026-05-05T15:08:50.001Z</time></trkpt><trkpt lat="14.4859346414815" lon="120.99710230138277"><ele>6.0</ele><time>2026-05-05T15:08:51.001Z</time></trkpt><trkpt lat="14.48600130614484" lon="120.99725348121524"><ele>7.0</ele><time>2026-05-05T15:08:52.001Z</time></trkpt><trkpt lat="14.486086025621269" lon="120.99740023734867"><ele>7.0</ele><time>2026-05-05T15:08:53.001Z</time></trkpt><trkpt lat="14.486190740566864" lon="120.9975393578068"><ele>7.0</ele><time>2026-05-05T15:08:54.001Z</time></trkpt><trkpt lat="14.48630592280453" lon="120.997667042419"><ele>7.0</ele><time>2026-05-05T15:08:55.001Z</time></trkpt><trkpt lat="14.48642628999197" lon="120.99779326841465"><ele>7.333333333333334</ele><time>2026-05-05T15:08:56.001Z</time></trkpt><trkpt lat="14.486537174816185" lon="120.99791902608818"><ele>7.666666666666666</ele><time>2026-05-05T15:08:57.001Z</time></trkpt><trkpt lat="14.486640735570226" lon="120.99804366414664"><ele>8.0</ele><time>2026-05-05T15:08:58.001Z</time></trkpt><trkpt lat="14.486736297788786" lon="120.99815347624542"><ele>8.0</ele><time>2026-05-05T15:08:59.001Z</time></trkpt><trkpt lat="14.486830732552399" lon="120.99825933938999"><ele>8.0</ele><time>2026-05-05T15:09:00.001Z</time></trkpt><trkpt lat="14.48692660531171" lon="120.9983708383653"><ele>8.0</ele><time>2026-05-05T15:09:01.001Z</time></trkpt><trkpt lat="14.487011600842866" lon="120.99848754260061"><ele>8.0</ele><time>2026-05-05T15:09:02.001Z</time></trkpt><trkpt lat="14.487100241774668" lon="120.99861009983238"><ele>7.0</ele><time>2026-05-05T15:09:03.001Z</time></trkpt><trkpt lat="14.487210027012296" lon="120.99873038614878"><ele>6.0</ele><time>2026-05-05T15:09:04.001Z</time></trkpt><trkpt lat="14.48733633789629" lon="120.99885216763036"><ele>5.0</ele><time>2026-05-05T15:09:05.001Z</time></trkpt><trkpt lat="14.48746165325411" lon="120.99898078780912"><ele>5.0</ele><time>2026-05-05T15:09:06.001Z</time></trkpt><trkpt lat="14.48758162881757" lon="120.99911652425125"><ele>5.0</ele><time>2026-05-05T15:09:07.001Z</time></trkpt><trkpt lat="14.487692678973024" lon="120.9992484208051"><ele>5.0</ele><time>2026-05-05T15:09:08.001Z</time></trkpt><trkpt lat="14.48781074962625" lon="120.99936265416827"><ele>6.0</ele><time>2026-05-05T15:09:09.001Z</time></trkpt><trkpt lat="14.487936987181486" lon="120.99945765846783"><ele>7.0</ele><time>2026-05-05T15:09:10.001Z</time></trkpt><trkpt lat="14.488075130799409" lon="120.99953759669809"><ele>8.0</ele><time>2026-05-05T15:09:11.001Z</time></trkpt><trkpt lat="14.488225574580243" lon="120.99959813321948"><ele>8.0</ele><time>2026-05-05T15:09:12.001Z</time></trkpt><trkpt lat="14.488383008690992" lon="120.99964662051012"><ele>8.0</ele><time>2026-05-05T15:09:13.001Z</time></trkpt><trkpt lat="14.488550438664227" lon="120.99968176932487"><ele>8.0</ele><time>2026-05-05T15:09:14.001Z</time></trkpt><trkpt lat="14.488723382097149" lon="120.99969744843274"><ele>6.333333333333333</ele><time>2026-05-05T15:09:15.001Z</time></trkpt><trkpt lat="14.48889677702517" lon="120.99968582432619"><ele>4.666666666666666</ele><time>2026-05-05T15:09:16.001Z</time></trkpt><trkpt lat="14.48906926930276" lon="120.99965599773519"><ele>3.0</ele><time>2026-05-05T15:09:17.001Z</time></trkpt><trkpt lat="14.48924136450497" lon="120.9996080829259"><ele>3.0</ele><time>2026-05-05T15:09:18.001Z</time></trkpt><trkpt lat="14.4894075005539" lon="120.99953773008117"><ele>3.0</ele><time>2026-05-05T15:09:19.001Z</time></trkpt><trkpt lat="14.48956484069573" lon="120.99944667863357"><ele>3.0</ele><time>2026-05-05T15:09:20.001Z</time></trkpt><trkpt lat="14.4897106117866" lon="120.99933008514024"><ele>3.0</ele><time>2026-05-05T15:09:21.001Z</time></trkpt><trkpt lat="14.489865953440482" lon="120.9992098990006"><ele>3.0</ele><time>2026-05-05T15:09:22.001Z</time></trkpt><trkpt lat="14.490007826544316" lon="120.99908591519474"><ele>3.0</ele><time>2026-05-05T15:09:23.001Z</time></trkpt><trkpt lat="14.490151649086918" lon="120.99895063320858"><ele>1.6666666666666667</ele><time>2026-05-05T15:09:24.001Z</time></trkpt><trkpt lat="14.490298826301808" lon="120.99881092590772"><ele>0.33333333333333337</ele><time>2026-05-05T15:09:25.001Z</time></trkpt><trkpt lat="14.490442407977897" lon="120.9986737539885"><ele>-1.0</ele><time>2026-05-05T15:09:26.001Z</time></trkpt><trkpt lat="14.490590270887965" lon="120.99853239553353"><ele>-1.6666666666666665</ele><time>2026-05-05T15:09:27.001Z</time></trkpt><trkpt lat="14.490729383345057" lon="120.99839915368196"><ele>-2.3333333333333335</ele><time>2026-05-05T15:09:28.001Z</time></trkpt><trkpt lat="14.490851427947035" lon="120.99827557384421"><ele>-3.0</ele><time>2026-05-05T15:09:29.001Z</time></trkpt><trkpt lat="14.490964292725993" lon="120.9981544222596"><ele>-1.6666666666666667</ele><time>2026-05-05T15:09:30.001Z</time></trkpt><trkpt lat="14.491061757226122" lon="120.99802113057955"><ele>-0.33333333333333337</ele><time>2026-05-05T15:09:31.001Z</time></trkpt><trkpt lat="14.491138794663557" lon="120.99787416968948"><ele>1.0</ele><time>2026-05-05T15:09:32.001Z</time></trkpt><trkpt lat="14.491207071091074" lon="120.99771970692322"><ele>1.0</ele><time>2026-05-05T15:09:33.001Z</time></trkpt><trkpt lat="14.491266196217627" lon="120.99755670927733"><ele>1.0</ele><time>2026-05-05T15:09:34.001Z</time></trkpt><trkpt lat="14.491316238009535" lon="120.99738965587458"><ele>1.0</ele><time>2026-05-05T15:09:35.001Z</time></trkpt><trkpt lat="14.491367608502234" lon="120.9972176486279"><ele>0.6666666666666666</ele><time>2026-05-05T15:09:36.001Z</time></trkpt><trkpt lat="14.491421416602666" lon="120.99703747941322"><ele>0.3333333333333333</ele><time>2026-05-05T15:09:37.001Z</time></trkpt><trkpt lat="14.49146964008913" lon="120.99687445480691"><ele>0.0</ele><time>2026-05-05T15:09:38.001Z</time></trkpt><trkpt lat="14.491519752569946" lon="120.996729571214"><ele>1.25</ele><time>2026-05-05T15:09:39.001Z</time></trkpt><trkpt lat="14.491583645506937" lon="120.99660959829902"><ele>2.5</ele><time>2026-05-05T15:09:40.001Z</time></trkpt><trkpt lat="14.491666184092898" lon="120.99650254708918"><ele>3.75</ele><time>2026-05-05T15:09:41.001Z</time></trkpt><trkpt lat="14.491766789949224" lon="120.99640797708064"><ele>5.0</ele><time>2026-05-05T15:09:42.001Z</time></trkpt><trkpt lat="14.491880674940775" lon="120.99632647739573"><ele>5.0</ele><time>2026-05-05T15:09:43.001Z</time></trkpt><trkpt lat="14.491990966651842" lon="120.99625954232035"><ele>5.0</ele><time>2026-05-05T15:09:44.001Z</time></trkpt><trkpt lat="14.492096676396473" lon="120.99620750678594"><ele>5.0</ele><time>2026-05-05T15:09:45.001Z</time></trkpt><trkpt lat="14.492223799189476" lon="120.9961929824688"><ele>5.0</ele><time>2026-05-05T15:09:46.001Z</time></trkpt><trkpt lat="14.49235489309417" lon="120.99620155930224"><ele>6.0</ele><time>2026-05-05T15:09:47.001Z</time></trkpt><trkpt lat="14.492491350165732" lon="120.99621333070367"><ele>7.0</ele><time>2026-05-05T15:09:48.001Z</time></trkpt><trkpt lat="14.492630227359099" lon="120.99622536438784"><ele>8.0</ele><time>2026-05-05T15:09:49.001Z</time></trkpt><trkpt lat="14.492780318129276" lon="120.99623188012613"><ele>9.0</ele><time>2026-05-05T15:09:50.001Z</time></trkpt><trkpt lat="14.492933275531929" lon="120.99623677118765"><ele>9.0</ele><time>2026-05-05T15:09:51.001Z</time></trkpt><trkpt lat="14.493086129138186" lon="120.99624345688346"><ele>9.0</ele><time>2026-05-05T15:09:52.001Z</time></trkpt><trkpt lat="14.493242155643987" lon="120.9962488247415"><ele>9.0</ele><time>2026-05-05T15:09:53.001Z</time></trkpt><trkpt lat="14.493399361624883" lon="120.99625229598757"><ele>9.0</ele><time>2026-05-05T15:09:54.001Z</time></trkpt><trkpt lat="14.493550643595093" lon="120.99625583277532"><ele>9.0</ele><time>2026-05-05T15:09:55.001Z</time></trkpt><trkpt lat="14.493694057892917" lon="120.99626604503612"><ele>9.0</ele><time>2026-05-05T15:09:56.001Z</time></trkpt><trkpt lat="14.493821313875808" lon="120.99629262568146"><ele>9.0</ele><time>2026-05-05T15:09:57.001Z</time></trkpt><trkpt lat="14.493933782546314" lon="120.99635168781656"><ele>8.75</ele><time>2026-05-05T15:09:58.001Z</time></trkpt><trkpt lat="14.494040058611377" lon="120.99642966948181"><ele>8.5</ele><time>2026-05-05T15:09:59.001Z</time></trkpt><trkpt lat="14.494131677784623" lon="120.9965282097052"><ele>8.25</ele><time>2026-05-05T15:10:00.001Z</time></trkpt><trkpt lat="14.494206535320282" lon="120.99665653438284"><ele>8.0</ele><time>2026-05-05T15:10:01.001Z</time></trkpt><trkpt lat="14.494266948298641" lon="120.99679666374777"><ele>8.0</ele><time>2026-05-05T15:10:02.001Z</time></trkpt><trkpt lat="14.49432864377164" lon="120.99694398025596"><ele>8.0</ele><time>2026-05-05T15:10:03.001Z</time></trkpt><trkpt lat="14.494391580395114" lon="120.99709225157888"><ele>8.0</ele><time>2026-05-05T15:10:04.001Z</time></trkpt><trkpt lat="14.49445488212468" lon="120.99724537232149"><ele>8.0</ele><time>2026-05-05T15:10:05.001Z</time></trkpt><trkpt lat="14.494523214873572" lon="120.99740209229289"><ele>8.0</ele><time>2026-05-05T15:10:06.001Z</time></trkpt><trkpt lat="14.494593643244142" lon="120.99756091239898"><ele>8.0</ele><time>2026-05-05T15:10:07.001Z</time></trkpt><trkpt lat="14.49466414607223" lon="120.99772268467498"><ele>6.333333333333333</ele><time>2026-05-05T15:10:08.001Z</time></trkpt><trkpt lat="14.494738769211681" lon="120.99788656696323"><ele>4.666666666666666</ele><time>2026-05-05T15:10:09.001Z</time></trkpt><trkpt lat="14.49481939546215" lon="120.99805052839828"><ele>3.0</ele><time>2026-05-05T15:10:10.001Z</time></trkpt><trkpt lat="14.494905542985878" lon="120.99821810745414"><ele>4.666666666666666</ele><time>2026-05-05T15:10:11.001Z</time></trkpt><trkpt lat="14.49498589339563" lon="120.99837745610772"><ele>6.333333333333333</ele><time>2026-05-05T15:10:12.001Z</time></trkpt><trkpt lat="14.495076353604684" lon="120.99854765042616"><ele>8.0</ele><time>2026-05-05T15:10:13.001Z</time></trkpt><trkpt lat="14.495164411711164" lon="120.99871442134598"><ele>8.0</ele><time>2026-05-05T15:10:14.001Z</time></trkpt><trkpt lat="14.495258029770724" lon="120.9988864153321"><ele>8.0</ele><time>2026-05-05T15:10:15.001Z</time></trkpt><trkpt lat="14.495348211139733" lon="120.99905391434845"><ele>8.0</ele><time>2026-05-05T15:10:16.001Z</time></trkpt><trkpt lat="14.495448190115715" lon="120.99923390610225"><ele>7.25</ele><time>2026-05-05T15:10:17.001Z</time></trkpt><trkpt lat="14.495537940457275" lon="120.99939242744463"><ele>6.5</ele><time>2026-05-05T15:10:18.001Z</time></trkpt><trkpt lat="14.495602424428291" lon="120.99951303894166"><ele>5.75</ele><time>2026-05-05T15:10:19.001Z</time></trkpt><trkpt lat="14.495657429132894" lon="120.99962195126186"><ele>5.0</ele><time>2026-05-05T15:10:20.001Z</time></trkpt><trkpt lat="14.495713908356295" lon="120.99972644673869"><ele>5.0</ele><time>2026-05-05T15:10:21.001Z</time></trkpt><trkpt lat="14.495770937954452" lon="120.99982133286531"><ele>5.0</ele><time>2026-05-05T15:10:22.001Z</time></trkpt><trkpt lat="14.495827034220026" lon="120.99990433128103"><ele>5.0</ele><time>2026-05-05T15:10:23.001Z</time></trkpt><trkpt lat="14.495876183746292" lon="120.99997016481308"><ele>5.0</ele><time>2026-05-05T15:10:24.001Z</time></trkpt><trkpt lat="14.495920611696603" lon="121.00003060872473"><ele>5.0</ele><time>2026-05-05T15:10:25.001Z</time></trkpt><trkpt lat="14.495976040469849" lon="121.00010044202857"><ele>5.0</ele><time>2026-05-05T15:10:27.001Z</time></trkpt><trkpt lat="14.496019802606204" lon="121.00015069498696"><ele>5.0</ele><time>2026-05-05T15:10:30.001Z</time></trkpt><trkpt lat="14.496058624230114" lon="121.00020840771784"><ele>5.0</ele><time>2026-05-05T15:10:37.001Z</time></trkpt><trkpt lat="14.496232480748764" lon="121.00021431216457"><ele>5.0</ele><time>2026-05-05T15:10:43.001Z</time></trkpt><trkpt lat="14.496279121829929" lon="121.00012547674926"><ele>5.0</ele><time>2026-05-05T15:10:44.001Z</time></trkpt><trkpt lat="14.496333516877874" lon="121.00006551948478"><ele>5.0</ele><time>2026-05-05T15:10:45.001Z</time></trkpt><trkpt lat="14.496399058648208" lon="120.99999327567862"><ele>4.8</ele><time>2026-05-05T15:10:46.001Z</time></trkpt><trkpt lat="14.496470066187825" lon="120.99991500714864"><ele>4.6</ele><time>2026-05-05T15:10:47.001Z</time></trkpt><trkpt lat="14.49655237550371" lon="120.99982428124052"><ele>4.4</ele><time>2026-05-05T15:10:48.001Z</time></trkpt><trkpt lat="14.496632888511565" lon="120.999735535244"><ele>4.2</ele><time>2026-05-05T15:10:49.001Z</time></trkpt><trkpt lat="14.496706290052952" lon="120.99965499499942"><ele>4.0</ele><time>2026-05-05T15:10:50.001Z</time></trkpt><trkpt lat="14.496773268502562" lon="120.99958167923802"><ele>4.0</ele><time>2026-05-05T15:10:51.001Z</time></trkpt><trkpt lat="14.496832067343986" lon="120.99948673157708"><ele>4.0</ele><time>2026-05-05T15:10:52.001Z</time></trkpt><trkpt lat="14.496865759939372" lon="120.9993550357552"><ele>4.0</ele><time>2026-05-05T15:10:53.001Z</time></trkpt><trkpt lat="14.496893527994184" lon="120.99923979088268"><ele>4.0</ele><time>2026-05-05T15:10:54.001Z</time></trkpt><trkpt lat="14.496923020902567" lon="120.99911815812496"><ele>4.0</ele><time>2026-05-05T15:10:55.001Z</time></trkpt><trkpt lat="14.496949973345226" lon="120.99900725162614"><ele>4.0</ele><time>2026-05-05T15:10:56.001Z</time></trkpt><trkpt lat="14.496976212577048" lon="120.9988992798083"><ele>4.0</ele><time>2026-05-05T15:10:57.001Z</time></trkpt><trkpt lat="14.497000549245103" lon="120.99880152503245"><ele>4.0</ele><time>2026-05-05T15:10:58.001Z</time></trkpt><trkpt lat="14.49702874007216" lon="120.998718536222"><ele>4.0</ele><time>2026-05-05T15:10:59.001Z</time></trkpt><trkpt lat="14.49706477719174" lon="120.99861831548982"><ele>4.2</ele><time>2026-05-05T15:11:00.001Z</time></trkpt><trkpt lat="14.497125970953922" lon="120.99855660353629"><ele>4.4</ele><time>2026-05-05T15:11:01.001Z</time></trkpt><trkpt lat="14.497179911204146" lon="120.99847583154136"><ele>4.6</ele><time>2026-05-05T15:11:02.001Z</time></trkpt><trkpt lat="14.497234655597925" lon="120.99840000879082"><ele>4.8</ele><time>2026-05-05T15:11:03.001Z</time></trkpt><trkpt lat="14.49728675044181" lon="120.99833025861017"><ele>5.0</ele><time>2026-05-05T15:11:04.001Z</time></trkpt><trkpt lat="14.497343678459178" lon="120.99825403746208"><ele>5.0</ele><time>2026-05-05T15:11:05.001Z</time></trkpt><trkpt lat="14.497392086134028" lon="120.99818922415862"><ele>5.0</ele><time>2026-05-05T15:11:06.001Z</time></trkpt><trkpt lat="14.497494086740293" lon="120.9981063898031"><ele>5.0</ele><time>2026-05-05T15:11:08.001Z</time></trkpt><trkpt lat="14.497570174921005" lon="120.99807570621836"><ele>5.0</ele><time>2026-05-05T15:11:09.001Z</time></trkpt><trkpt lat="14.497652182990516" lon="120.9980618918701"><ele>5.0</ele><time>2026-05-05T15:11:10.001Z</time></trkpt><trkpt lat="14.497738822301127" lon="120.99803038074847"><ele>5.0</ele><time>2026-05-05T15:11:11.001Z</time></trkpt><trkpt lat="14.49783307139104" lon="120.99801096977072"><ele>5.0</ele><time>2026-05-05T15:11:12.001Z</time></trkpt><trkpt lat="14.497940513822602" lon="120.99798860202937"><ele>5.0</ele><time>2026-05-05T15:11:13.001Z</time></trkpt><trkpt lat="14.49803024230729" lon="120.99797311899178"><ele>5.0</ele><time>2026-05-05T15:11:14.001Z</time></trkpt><trkpt lat="14.498134082171363" lon="120.99795545281825"><ele>5.0</ele><time>2026-05-05T15:11:15.001Z</time></trkpt><trkpt lat="14.498240951244792" lon="120.99793695594572"><ele>5.0</ele><time>2026-05-05T15:11:16.001Z</time></trkpt><trkpt lat="14.498324692534352" lon="120.99792283796322"><ele>5.0</ele><time>2026-05-05T15:11:17.001Z</time></trkpt><trkpt lat="14.498406019973979" lon="120.99791179848155"><ele>5.0</ele><time>2026-05-05T15:11:18.001Z</time></trkpt><trkpt lat="14.498490500629215" lon="120.99789462576813"><ele>5.0</ele><time>2026-05-05T15:11:19.001Z</time></trkpt><trkpt lat="14.498584767454547" lon="120.9978757447999"><ele>5.0</ele><time>2026-05-05T15:11:20.001Z</time></trkpt><trkpt lat="14.498671686555122" lon="120.9978525038798"><ele>5.0</ele><time>2026-05-05T15:11:21.001Z</time></trkpt><trkpt lat="14.4987540793507" lon="120.99783676052331"><ele>4.666666666666667</ele><time>2026-05-05T15:11:22.001Z</time></trkpt><trkpt lat="14.498843936740613" lon="120.99782101871969"><ele>4.333333333333334</ele><time>2026-05-05T15:11:23.001Z</time></trkpt><trkpt lat="14.498928340159813" lon="120.9978048874093"><ele>4.0</ele><time>2026-05-05T15:11:24.001Z</time></trkpt><trkpt lat="14.499009411083074" lon="120.99778579427198"><ele>3.666666666666667</ele><time>2026-05-05T15:11:25.001Z</time></trkpt><trkpt lat="14.499085356873406" lon="120.99775878282269"><ele>3.3333333333333335</ele><time>2026-05-05T15:11:26.001Z</time></trkpt><trkpt lat="14.499169631259296" lon="120.99774382462046"><ele>3.0</ele><time>2026-05-05T15:11:27.001Z</time></trkpt><trkpt lat="14.499266003127106" lon="120.99772230531289"><ele>3.0</ele><time>2026-05-05T15:11:28.001Z</time></trkpt><trkpt lat="14.499373249903273" lon="120.99769844602547"><ele>3.0</ele><time>2026-05-05T15:11:29.001Z</time></trkpt><trkpt lat="14.499484213901157" lon="120.99765805195831"><ele>3.0</ele><time>2026-05-05T15:11:30.001Z</time></trkpt><trkpt lat="14.499599746460827" lon="120.99763420770749"><ele>3.0</ele><time>2026-05-05T15:11:31.001Z</time></trkpt><trkpt lat="14.49970478013487" lon="120.99760904789858"><ele>3.1666666666666665</ele><time>2026-05-05T15:11:32.001Z</time></trkpt><trkpt lat="14.499802529384606" lon="120.99758589519314"><ele>3.333333333333333</ele><time>2026-05-05T15:11:33.001Z</time></trkpt><trkpt lat="14.499885833858716" lon="120.99756688375986"><ele>3.5</ele><time>2026-05-05T15:11:34.001Z</time></trkpt><trkpt lat="14.499962063946953" lon="120.99756741542413"><ele>3.6666666666666665</ele><time>2026-05-05T15:11:35.001Z</time></trkpt><trkpt lat="14.500029948493195" lon="120.99755021907684"><ele>3.833333333333333</ele><time>2026-05-05T15:11:36.001Z</time></trkpt><trkpt lat="14.500135265395508" lon="120.99750744020389"><ele>4.0</ele><time>2026-05-05T15:11:38.001Z</time></trkpt><trkpt lat="14.500230194121905" lon="120.99745586575435"><ele>4.25</ele><time>2026-05-05T15:11:40.001Z</time></trkpt><trkpt lat="14.500321260310605" lon="120.99739267659123"><ele>4.5</ele><time>2026-05-05T15:11:42.001Z</time></trkpt><trkpt lat="14.500453182053514" lon="120.99745540973582"><ele>4.75</ele><time>2026-05-05T15:11:44.001Z</time></trkpt><trkpt lat="14.500522963578534" lon="120.99752248672779"><ele>5.0</ele><time>2026-05-05T15:11:45.001Z</time></trkpt><trkpt lat="14.50059915629974" lon="120.99759818779864"><ele>5.0</ele><time>2026-05-05T15:11:46.001Z</time></trkpt><trkpt lat="14.500691276270512" lon="120.99766882896873"><ele>5.0</ele><time>2026-05-05T15:11:47.001Z</time></trkpt><trkpt lat="14.50078631105941" lon="120.99773479729886"><ele>5.0</ele><time>2026-05-05T15:11:48.001Z</time></trkpt><trkpt lat="14.500880431956174" lon="120.9977961496628"><ele>5.0</ele><time>2026-05-05T15:11:49.001Z</time></trkpt><trkpt lat="14.500982129974608" lon="120.99786087627075"><ele>5.0</ele><time>2026-05-05T15:11:50.001Z</time></trkpt><trkpt lat="14.501082235346777" lon="120.9979215789205"><ele>5.0</ele><time>2026-05-05T15:11:51.001Z</time></trkpt><trkpt lat="14.50119272651036" lon="120.99798414382745"><ele>5.0</ele><time>2026-05-05T15:11:52.001Z</time></trkpt><trkpt lat="14.501293287346385" lon="120.99805171488867"><ele>5.0</ele><time>2026-05-05T15:11:53.001Z</time></trkpt><trkpt lat="14.501403981983735" lon="120.99812069000251"><ele>5.25</ele><time>2026-05-05T15:11:54.001Z</time></trkpt><trkpt lat="14.501507763375153" lon="120.99818260972138"><ele>5.5</ele><time>2026-05-05T15:11:55.001Z</time></trkpt><trkpt lat="14.501610436921606" lon="120.99824262066925"><ele>5.75</ele><time>2026-05-05T15:11:56.001Z</time></trkpt><trkpt lat="14.501699263365946" lon="120.99829981495205"><ele>6.0</ele><time>2026-05-05T15:11:57.001Z</time></trkpt><trkpt lat="14.501799380586744" lon="120.99835565780079"><ele>6.5</ele><time>2026-05-05T15:11:58.001Z</time></trkpt><trkpt lat="14.501874880723323" lon="120.99840738796792"><ele>7.0</ele><time>2026-05-05T15:11:59.001Z</time></trkpt><trkpt lat="14.501952882398708" lon="120.99845447427643"><ele>7.5</ele><time>2026-05-05T15:12:00.001Z</time></trkpt><trkpt lat="14.502020775764292" lon="120.99849986367158"><ele>8.0</ele><time>2026-05-05T15:12:01.001Z</time></trkpt><trkpt lat="14.502085172530458" lon="120.99853913346867"><ele>8.5</ele><time>2026-05-05T15:12:02.001Z</time></trkpt><trkpt lat="14.502164568477724" lon="120.99859123853408"><ele>9.0</ele><time>2026-05-05T15:12:04.001Z</time></trkpt><trkpt lat="14.502268762259686" lon="120.99865199880301"><ele>9.0</ele><time>2026-05-05T15:12:06.001Z</time></trkpt><trkpt lat="14.50235312745137" lon="120.99869474155633"><ele>9.0</ele><time>2026-05-05T15:12:07.001Z</time></trkpt><trkpt lat="14.502439226175383" lon="120.99874542050206"><ele>9.0</ele><time>2026-05-05T15:12:08.001Z</time></trkpt><trkpt lat="14.50254157450926" lon="120.99880892813333"><ele>9.0</ele><time>2026-05-05T15:12:09.001Z</time></trkpt><trkpt lat="14.50263401962368" lon="120.99887121378423"><ele>9.0</ele><time>2026-05-05T15:12:10.001Z</time></trkpt><trkpt lat="14.502731030547915" lon="120.99893298081946"><ele>9.0</ele><time>2026-05-05T15:12:11.001Z</time></trkpt><trkpt lat="14.502829439750485" lon="120.99899480221372"><ele>9.0</ele><time>2026-05-05T15:12:12.001Z</time></trkpt><trkpt lat="14.502932359487286" lon="120.99905771316452"><ele>9.0</ele><time>2026-05-05T15:12:13.001Z</time></trkpt><trkpt lat="14.503032217356434" lon="120.99911959485549"><ele>9.0</ele><time>2026-05-05T15:12:14.001Z</time></trkpt><trkpt lat="14.503130432407213" lon="120.99917841824201"><ele>9.0</ele><time>2026-05-05T15:12:15.001Z</time></trkpt><trkpt lat="14.503232965420741" lon="120.99924094256407"><ele>9.0</ele><time>2026-05-05T15:12:16.001Z</time></trkpt><trkpt lat="14.503340258452148" lon="120.99930834919604"><ele>9.0</ele><time>2026-05-05T15:12:17.001Z</time></trkpt><trkpt lat="14.503441655819612" lon="120.99937452856064"><ele>9.0</ele><time>2026-05-05T15:12:18.001Z</time></trkpt><trkpt lat="14.503551060800573" lon="120.9994453689388"><ele>9.0</ele><time>2026-05-05T15:12:19.001Z</time></trkpt><trkpt lat="14.503665019009548" lon="120.99951593083512"><ele>9.0</ele><time>2026-05-05T15:12:20.001Z</time></trkpt><trkpt lat="14.503777781417675" lon="120.99958598403954"><ele>9.0</ele><time>2026-05-05T15:12:21.001Z</time></trkpt><trkpt lat="14.50388762661397" lon="120.99965737111302"><ele>9.0</ele><time>2026-05-05T15:12:22.001Z</time></trkpt><trkpt lat="14.504006599949149" lon="120.99972788942392"><ele>9.25</ele><time>2026-05-05T15:12:23.001Z</time></trkpt><trkpt lat="14.504127811818794" lon="120.99980491899859"><ele>9.5</ele><time>2026-05-05T15:12:24.001Z</time></trkpt><trkpt lat="14.504241087412561" lon="120.99989222410798"><ele>9.75</ele><time>2026-05-05T15:12:25.001Z</time></trkpt><trkpt lat="14.504355186277825" lon="120.99998014769047"><ele>10.0</ele><time>2026-05-05T15:12:26.001Z</time></trkpt><trkpt lat="14.504461043741241" lon="121.00006577575992"><ele>10.0</ele><time>2026-05-05T15:12:27.001Z</time></trkpt><trkpt lat="14.50456628960623" lon="121.0001400954309"><ele>10.0</ele><time>2026-05-05T15:12:28.001Z</time></trkpt><trkpt lat="14.504670726854858" lon="121.00020818727133"><ele>10.0</ele><time>2026-05-05T15:12:29.001Z</time></trkpt><trkpt lat="14.504781080432762" lon="121.00027954793121"><ele>10.0</ele><time>2026-05-05T15:12:30.001Z</time></trkpt><trkpt lat="14.50488338071266" lon="121.00034309929276"><ele>9.4</ele><time>2026-05-05T15:12:31.001Z</time></trkpt><trkpt lat="14.504977393568595" lon="121.0004047496546"><ele>8.8</ele><time>2026-05-05T15:12:32.001Z</time></trkpt><trkpt lat="14.505056104381412" lon="121.00046003749199"><ele>8.2</ele><time>2026-05-05T15:12:33.001Z</time></trkpt><trkpt lat="14.505146729906924" lon="121.00051460093474"><ele>7.6</ele><time>2026-05-05T15:12:34.001Z</time></trkpt><trkpt lat="14.505232635026271" lon="121.00056772577165"><ele>7.0</ele><time>2026-05-05T15:12:35.001Z</time></trkpt><trkpt lat="14.505320907768134" lon="121.00062260568463"><ele>7.6</ele><time>2026-05-05T15:12:36.001Z</time></trkpt><trkpt lat="14.505415448051558" lon="121.00067422756709"><ele>8.2</ele><time>2026-05-05T15:12:37.001Z</time></trkpt><trkpt lat="14.505510025978108" lon="121.0007214857123"><ele>8.8</ele><time>2026-05-05T15:12:38.001Z</time></trkpt><trkpt lat="14.505605760422497" lon="121.00076597224442"><ele>9.4</ele><time>2026-05-05T15:12:39.001Z</time></trkpt><trkpt lat="14.505694897166345" lon="121.00080738491992"><ele>10.0</ele><time>2026-05-05T15:12:40.001Z</time></trkpt><trkpt lat="14.50577469113398" lon="121.00084657678816"><ele>10.0</ele><time>2026-05-05T15:12:41.001Z</time></trkpt><trkpt lat="14.50585563907836" lon="121.00088722680108"><ele>10.0</ele><time>2026-05-05T15:12:42.001Z</time></trkpt><trkpt lat="14.505944072561512" lon="121.00092579481058"><ele>10.0</ele><time>2026-05-05T15:12:43.001Z</time></trkpt><trkpt lat="14.50602835341061" lon="121.00096242027159"><ele>10.0</ele><time>2026-05-05T15:12:44.001Z</time></trkpt><trkpt lat="14.506106844641225" lon="121.00099241960183"><ele>10.0</ele><time>2026-05-05T15:12:45.001Z</time></trkpt><trkpt lat="14.506183142339419" lon="121.00101813815084"><ele>10.0</ele><time>2026-05-05T15:12:46.001Z</time></trkpt><trkpt lat="14.50626635257983" lon="121.001040790412"><ele>10.0</ele><time>2026-05-05T15:12:47.001Z</time></trkpt><trkpt lat="14.5063559258826" lon="121.00107003766281"><ele>10.0</ele><time>2026-05-05T15:12:48.001Z</time></trkpt><trkpt lat="14.506449947085674" lon="121.00111179150622"><ele>10.0</ele><time>2026-05-05T15:12:49.001Z</time></trkpt><trkpt lat="14.506542659746113" lon="121.00115241139875"><ele>10.0</ele><time>2026-05-05T15:12:50.001Z</time></trkpt><trkpt lat="14.506626909062204" lon="121.00118447848601"><ele>10.0</ele><time>2026-05-05T15:12:51.001Z</time></trkpt><trkpt lat="14.506688716112004" lon="121.0012083954216"><ele>10.0</ele><time>2026-05-05T15:12:52.001Z</time></trkpt><trkpt lat="14.506746375296133" lon="121.00124011659898"><ele>10.0</ele><time>2026-05-05T15:12:54.001Z</time></trkpt><trkpt lat="14.506805441101417" lon="121.00126378876448"><ele>10.0</ele><time>2026-05-05T15:13:00.001Z</time></trkpt><trkpt lat="14.506864916821357" lon="121.00129602349114"><ele>10.0</ele><time>2026-05-05T15:13:06.001Z</time></trkpt><trkpt lat="14.506957272608373" lon="121.00132494390252"><ele>10.0</ele><time>2026-05-05T15:13:08.001Z</time></trkpt><trkpt lat="14.507031914732785" lon="121.00134459168042"><ele>10.0</ele><time>2026-05-05T15:13:09.001Z</time></trkpt><trkpt lat="14.507123092432602" lon="121.00137292942219"><ele>9.5</ele><time>2026-05-05T15:13:10.001Z</time></trkpt><trkpt lat="14.507226103057247" lon="121.0014083806342"><ele>9.0</ele><time>2026-05-05T15:13:11.001Z</time></trkpt><trkpt lat="14.507340783119496" lon="121.00145205872641"><ele>8.5</ele><time>2026-05-05T15:13:12.001Z</time></trkpt><trkpt lat="14.507461473871585" lon="121.00150044176195"><ele>8.0</ele><time>2026-05-05T15:13:13.001Z</time></trkpt><trkpt lat="14.507586277231447" lon="121.001555986476"><ele>8.0</ele><time>2026-05-05T15:13:14.001Z</time></trkpt><trkpt lat="14.507717372350669" lon="121.00161747705754"><ele>8.0</ele><time>2026-05-05T15:13:15.001Z</time></trkpt><trkpt lat="14.507851931182698" lon="121.00168557607736"><ele>8.0</ele><time>2026-05-05T15:13:16.001Z</time></trkpt><trkpt lat="14.507992773291797" lon="121.00175498735207"><ele>8.333333333333332</ele><time>2026-05-05T15:13:17.001Z</time></trkpt><trkpt lat="14.508132607658435" lon="121.00181379081971"><ele>8.666666666666666</ele><time>2026-05-05T15:13:18.001Z</time></trkpt><trkpt lat="14.508286194693104" lon="121.00186549154554"><ele>9.0</ele><time>2026-05-05T15:13:19.001Z</time></trkpt><trkpt lat="14.508442666681765" lon="121.00191816282609"><ele>9.0</ele><time>2026-05-05T15:13:20.001Z</time></trkpt><trkpt lat="14.508602270141331" lon="121.00197112687076"><ele>9.0</ele><time>2026-05-05T15:13:21.001Z</time></trkpt><trkpt lat="14.508766824009946" lon="121.00201782010444"><ele>9.0</ele><time>2026-05-05T15:13:22.001Z</time></trkpt><trkpt lat="14.508934923187821" lon="121.0020545789203"><ele>8.333333333333334</ele><time>2026-05-05T15:13:23.001Z</time></trkpt><trkpt lat="14.509101625719376" lon="121.00209271634982"><ele>7.666666666666667</ele><time>2026-05-05T15:13:24.001Z</time></trkpt><trkpt lat="14.509271217253687" lon="121.00214506694336"><ele>7.0</ele><time>2026-05-05T15:13:25.001Z</time></trkpt><trkpt lat="14.509429237432927" lon="121.0022127091985"><ele>6.333333333333334</ele><time>2026-05-05T15:13:26.001Z</time></trkpt><trkpt lat="14.509582366190582" lon="121.00227779712718"><ele>5.666666666666667</ele><time>2026-05-05T15:13:27.001Z</time></trkpt><trkpt lat="14.509746894932697" lon="121.00233087349581"><ele>5.0</ele><time>2026-05-05T15:13:28.001Z</time></trkpt><trkpt lat="14.50991497957684" lon="121.00238523155292"><ele>5.0</ele><time>2026-05-05T15:13:29.001Z</time></trkpt><trkpt lat="14.510087499411382" lon="121.00243781730235"><ele>5.0</ele><time>2026-05-05T15:13:30.001Z</time></trkpt><trkpt lat="14.510259234054422" lon="121.0025082237374"><ele>5.0</ele><time>2026-05-05T15:13:31.001Z</time></trkpt><trkpt lat="14.51042470776052" lon="121.00256451363815"><ele>5.333333333333334</ele><time>2026-05-05T15:13:32.001Z</time></trkpt><trkpt lat="14.51058721996137" lon="121.0026245902438"><ele>5.666666666666667</ele><time>2026-05-05T15:13:33.001Z</time></trkpt><trkpt lat="14.510754714865893" lon="121.00268363694471"><ele>6.0</ele><time>2026-05-05T15:13:34.001Z</time></trkpt><trkpt lat="14.510911481000544" lon="121.0027452848267"><ele>6.0</ele><time>2026-05-05T15:13:35.001Z</time></trkpt><trkpt lat="14.511069459168967" lon="121.0028072728569"><ele>6.0</ele><time>2026-05-05T15:13:36.001Z</time></trkpt><trkpt lat="14.511215330631918" lon="121.0028659590402"><ele>6.0</ele><time>2026-05-05T15:13:37.001Z</time></trkpt><trkpt lat="14.51135619353977" lon="121.00292366730214"><ele>6.0</ele><time>2026-05-05T15:13:38.001Z</time></trkpt><trkpt lat="14.5114954122603" lon="121.00297869211778"><ele>6.0</ele><time>2026-05-05T15:13:39.001Z</time></trkpt><trkpt lat="14.511636788145088" lon="121.00302903678309"><ele>6.0</ele><time>2026-05-05T15:13:40.001Z</time></trkpt><trkpt lat="14.511778318606803" lon="121.00308142207156"><ele>6.0</ele><time>2026-05-05T15:13:41.001Z</time></trkpt><trkpt lat="14.511918199895447" lon="121.00313047548569"><ele>6.0</ele><time>2026-05-05T15:13:42.001Z</time></trkpt><trkpt lat="14.512047877191666" lon="121.00317451346005"><ele>6.0</ele><time>2026-05-05T15:13:43.001Z</time></trkpt><trkpt lat="14.512173354017111" lon="121.00321910402883"><ele>6.0</ele><time>2026-05-05T15:13:44.001Z</time></trkpt><trkpt lat="14.512306351205426" lon="121.00326427413133"><ele>6.0</ele><time>2026-05-05T15:13:45.001Z</time></trkpt><trkpt lat="14.512437570810793" lon="121.00331441042586"><ele>6.333333333333334</ele><time>2026-05-05T15:13:46.001Z</time></trkpt><trkpt lat="14.512580368536753" lon="121.00336240179071"><ele>6.666666666666667</ele><time>2026-05-05T15:13:47.001Z</time></trkpt><trkpt lat="14.512725482675222" lon="121.00341368076995"><ele>7.0</ele><time>2026-05-05T15:13:48.001Z</time></trkpt><trkpt lat="14.512878865867435" lon="121.00346752780032"><ele>7.333333333333334</ele><time>2026-05-05T15:13:49.001Z</time></trkpt><trkpt lat="14.513031978962843" lon="121.00351844706637"><ele>7.666666666666666</ele><time>2026-05-05T15:13:50.001Z</time></trkpt><trkpt lat="14.513183752204077" lon="121.00357450991801"><ele>8.0</ele><time>2026-05-05T15:13:51.001Z</time></trkpt><trkpt lat="14.513332958345629" lon="121.00362725495094"><ele>8.0</ele><time>2026-05-05T15:13:52.001Z</time></trkpt><trkpt lat="14.513488262436942" lon="121.00367509395977"><ele>8.0</ele><time>2026-05-05T15:13:53.001Z</time></trkpt><trkpt lat="14.513621849783265" lon="121.003721809537"><ele>8.0</ele><time>2026-05-05T15:13:54.001Z</time></trkpt><trkpt lat="14.513756564981396" lon="121.00376560254881"><ele>8.0</ele><time>2026-05-05T15:13:55.001Z</time></trkpt><trkpt lat="14.51388876144095" lon="121.00381149114946"><ele>9.0</ele><time>2026-05-05T15:13:56.001Z</time></trkpt><trkpt lat="14.514015310172752" lon="121.0038559736209"><ele>10.0</ele><time>2026-05-05T15:13:57.001Z</time></trkpt><trkpt lat="14.51413524005757" lon="121.00389568762884"><ele>11.0</ele><time>2026-05-05T15:13:58.001Z</time></trkpt><trkpt lat="14.514243746570564" lon="121.00392839601423"><ele>12.0</ele><time>2026-05-05T15:13:59.001Z</time></trkpt><trkpt lat="14.514336626447966" lon="121.00395399917007"><ele>12.0</ele><time>2026-05-05T15:14:00.001Z</time></trkpt><trkpt lat="14.514410721958296" lon="121.0039674091064"><ele>12.0</ele><time>2026-05-05T15:14:01.001Z</time></trkpt><trkpt lat="14.514478960607473" lon="121.00397713175906"><ele>12.0</ele><time>2026-05-05T15:14:02.001Z</time></trkpt><trkpt lat="14.514541247606568" lon="121.00399558486818"><ele>12.0</ele><time>2026-05-05T15:14:03.001Z</time></trkpt><trkpt lat="14.514639333429265" lon="121.00403837373189"><ele>12.0</ele><time>2026-05-05T15:14:05.001Z</time></trkpt><trkpt lat="14.514714861640945" lon="121.00407094196215"><ele>12.0</ele><time>2026-05-05T15:14:08.001Z</time></trkpt><trkpt lat="14.514777005362141" lon="121.0040905587234"><ele>11.571428571428571</ele><time>2026-05-05T15:14:11.001Z</time></trkpt><trkpt lat="14.514848719095921" lon="121.00411611269756"><ele>11.142857142857142</ele><time>2026-05-05T15:14:15.001Z</time></trkpt><trkpt lat="14.514913075238622" lon="121.00411785236125"><ele>10.714285714285715</ele><time>2026-05-05T15:14:22.001Z</time></trkpt><trkpt lat="14.51497599720079" lon="121.00414136072594"><ele>10.285714285714285</ele><time>2026-05-05T15:14:26.001Z</time></trkpt><trkpt lat="14.515044212559232" lon="121.0041619643754"><ele>9.857142857142858</ele><time>2026-05-05T15:14:28.001Z</time></trkpt><trkpt lat="14.515108956127245" lon="121.00421808380452"><ele>9.428571428571429</ele><time>2026-05-05T15:14:30.001Z</time></trkpt><trkpt lat="14.515172803969309" lon="121.00424287420195"><ele>9.0</ele><time>2026-05-05T15:14:32.001Z</time></trkpt><trkpt lat="14.515238033641321" lon="121.00426701668464"><ele>8.75</ele><time>2026-05-05T15:14:34.001Z</time></trkpt><trkpt lat="14.515417695455913" lon="121.00415829042396"><ele>8.5</ele><time>2026-05-05T15:14:36.001Z</time></trkpt><trkpt lat="14.515446522221216" lon="121.00410046244345"><ele>8.25</ele><time>2026-05-05T15:14:37.001Z</time></trkpt><trkpt lat="14.51548554297859" lon="121.00401654916631"><ele>8.0</ele><time>2026-05-05T15:14:38.001Z</time></trkpt><trkpt lat="14.515532827928373" lon="121.00391811701195"><ele>8.0</ele><time>2026-05-05T15:14:39.001Z</time></trkpt><trkpt lat="14.515587942099097" lon="121.00380338669831"><ele>8.0</ele><time>2026-05-05T15:14:40.001Z</time></trkpt><trkpt lat="14.515645292672248" lon="121.00368411694559"><ele>8.0</ele><time>2026-05-05T15:14:41.001Z</time></trkpt><trkpt lat="14.515702777704933" lon="121.00356372787428"><ele>8.0</ele><time>2026-05-05T15:14:42.001Z</time></trkpt><trkpt lat="14.515758954049609" lon="121.00343478211316"><ele>7.333333333333333</ele><time>2026-05-05T15:14:43.001Z</time></trkpt><trkpt lat="14.515828120826786" lon="121.00330020659271"><ele>6.666666666666666</ele><time>2026-05-05T15:14:44.001Z</time></trkpt><trkpt lat="14.515901572976741" lon="121.00315677772171"><ele>6.0</ele><time>2026-05-05T15:14:45.001Z</time></trkpt><trkpt lat="14.515978074960161" lon="121.00300602202863"><ele>6.0</ele><time>2026-05-05T15:14:46.001Z</time></trkpt><trkpt lat="14.51605577482962" lon="121.00286250226486"><ele>6.0</ele><time>2026-05-05T15:14:47.001Z</time></trkpt><trkpt lat="14.51613177388529" lon="121.00270931441061"><ele>6.0</ele><time>2026-05-05T15:14:48.001Z</time></trkpt><trkpt lat="14.516204051901031" lon="121.00256679550706"><ele>6.333333333333334</ele><time>2026-05-05T15:14:49.001Z</time></trkpt><trkpt lat="14.516274524220764" lon="121.00242899723662"><ele>6.666666666666667</ele><time>2026-05-05T15:14:50.001Z</time></trkpt><trkpt lat="14.516347431288048" lon="121.00228643817141"><ele>7.0</ele><time>2026-05-05T15:14:51.001Z</time></trkpt><trkpt lat="14.516423421004825" lon="121.0021374405189"><ele>7.0</ele><time>2026-05-05T15:14:52.001Z</time></trkpt><trkpt lat="14.516423701820052" lon="121.00194711723898"><ele>7.0</ele><time>2026-05-05T15:14:53.001Z</time></trkpt><trkpt lat="14.516492649166048" lon="121.00180232670404"><ele>7.0</ele><time>2026-05-05T15:14:54.001Z</time></trkpt><trkpt lat="14.516552633051944" lon="121.00167935273127"><ele>6.8</ele><time>2026-05-05T15:14:55.001Z</time></trkpt><trkpt lat="14.516604545413184" lon="121.00158193073808"><ele>6.6</ele><time>2026-05-05T15:14:56.001Z</time></trkpt><trkpt lat="14.516659696397754" lon="121.00149004993936"><ele>6.3999999999999995</ele><time>2026-05-05T15:14:57.001Z</time></trkpt><trkpt lat="14.516704959203055" lon="121.00141328022234"><ele>6.199999999999999</ele><time>2026-05-05T15:14:58.001Z</time></trkpt><trkpt lat="14.516737683240928" lon="121.00135598199422"><ele>6.0</ele><time>2026-05-05T15:14:59.001Z</time></trkpt><trkpt lat="14.516785202015068" lon="121.0012661470461"><ele>6.0</ele><time>2026-05-05T15:15:01.001Z</time></trkpt><trkpt lat="14.51683539625839" lon="121.00121383799977"><ele>6.0</ele><time>2026-05-05T15:15:04.001Z</time></trkpt><trkpt lat="14.516866622875776" lon="121.00113067781454"><ele>6.0</ele><time>2026-05-05T15:15:22.001Z</time></trkpt><trkpt lat="14.516859395188494" lon="121.00098705911027"><ele>6.0</ele><time>2026-05-05T15:15:24.001Z</time></trkpt><trkpt lat="14.516877811079262" lon="121.00091319586245"><ele>6.0</ele><time>2026-05-05T15:15:25.001Z</time></trkpt><trkpt lat="14.516896384524314" lon="121.0008323941247"><ele>5.8</ele><time>2026-05-05T15:15:26.001Z</time></trkpt><trkpt lat="14.516910166836876" lon="121.00074767164891"><ele>5.6</ele><time>2026-05-05T15:15:27.001Z</time></trkpt><trkpt lat="14.51692035451495" lon="121.00066103789965"><ele>5.4</ele><time>2026-05-05T15:15:28.001Z</time></trkpt><trkpt lat="14.516923398304026" lon="121.00053300608381"><ele>5.2</ele><time>2026-05-05T15:15:29.001Z</time></trkpt><trkpt lat="14.51693281750483" lon="121.00039964147346"><ele>5.0</ele><time>2026-05-05T15:15:30.001Z</time></trkpt><trkpt lat="14.516929251005557" lon="121.00026435763493"><ele>5.0</ele><time>2026-05-05T15:15:31.001Z</time></trkpt><trkpt lat="14.51693127191989" lon="121.00011471502668"><ele>5.0</ele><time>2026-05-05T15:15:32.001Z</time></trkpt><trkpt lat="14.516920499988991" lon="120.9999427859857"><ele>5.0</ele><time>2026-05-05T15:15:33.001Z</time></trkpt><trkpt lat="14.516936107267146" lon="120.99977145081189"><ele>5.0</ele><time>2026-05-05T15:15:34.001Z</time></trkpt><trkpt lat="14.516946399082657" lon="120.99960026900811"><ele>5.0</ele><time>2026-05-05T15:15:35.001Z</time></trkpt><trkpt lat="14.516948392776566" lon="120.9994286910666"><ele>5.0</ele><time>2026-05-05T15:15:36.001Z</time></trkpt><trkpt lat="14.5169449364581" lon="120.99924491064773"><ele>5.333333333333334</ele><time>2026-05-05T15:15:37.001Z</time></trkpt><trkpt lat="14.516951412600168" lon="120.99907951307739"><ele>5.666666666666667</ele><time>2026-05-05T15:15:38.001Z</time></trkpt><trkpt lat="14.516961950403195" lon="120.99891082769767"><ele>6.0</ele><time>2026-05-05T15:15:39.001Z</time></trkpt><trkpt lat="14.516974282867341" lon="120.99872666884829"><ele>6.0</ele><time>2026-05-05T15:15:40.001Z</time></trkpt><trkpt lat="14.516965726105358" lon="120.9985453793009"><ele>6.0</ele><time>2026-05-05T15:15:41.001Z</time></trkpt><trkpt lat="14.516971218736005" lon="120.99836971085412"><ele>6.0</ele><time>2026-05-05T15:15:42.001Z</time></trkpt><trkpt lat="14.51697293144544" lon="120.99819439259025"><ele>5.666666666666667</ele><time>2026-05-05T15:15:43.001Z</time></trkpt><trkpt lat="14.51698263169247" lon="120.99802056255164"><ele>5.333333333333334</ele><time>2026-05-05T15:15:44.001Z</time></trkpt><trkpt lat="14.51698688909394" lon="120.99784582954062"><ele>5.0</ele><time>2026-05-05T15:15:45.001Z</time></trkpt><trkpt lat="14.516992263723823" lon="120.99768653340135"><ele>5.0</ele><time>2026-05-05T15:15:46.001Z</time></trkpt><trkpt lat="14.517000365440627" lon="120.99753762492041"><ele>5.0</ele><time>2026-05-05T15:15:47.001Z</time></trkpt><trkpt lat="14.517018300734344" lon="120.99739179340914"><ele>5.0</ele><time>2026-05-05T15:15:48.001Z</time></trkpt><trkpt lat="14.51703221572026" lon="120.99724939959789"><ele>5.0</ele><time>2026-05-05T15:15:49.001Z</time></trkpt><trkpt lat="14.51704558698742" lon="120.99711579359062"><ele>4.8</ele><time>2026-05-05T15:15:50.001Z</time></trkpt><trkpt lat="14.517052030688305" lon="120.99698526986383"><ele>4.6</ele><time>2026-05-05T15:15:51.001Z</time></trkpt><trkpt lat="14.51707923026654" lon="120.9968731069505"><ele>4.4</ele><time>2026-05-05T15:15:52.001Z</time></trkpt><trkpt lat="14.517089528225068" lon="120.99677372438974"><ele>4.2</ele><time>2026-05-05T15:15:53.001Z</time></trkpt><trkpt lat="14.517111016976104" lon="120.9966857925477"><ele>4.0</ele><time>2026-05-05T15:15:54.001Z</time></trkpt><trkpt lat="14.517131969427213" lon="120.9966035064383"><ele>4.5</ele><time>2026-05-05T15:15:55.001Z</time></trkpt><trkpt lat="14.517152528056119" lon="120.99652784997073"><ele>5.0</ele><time>2026-05-05T15:15:57.001Z</time></trkpt><trkpt lat="14.517175007118828" lon="120.99645615251387"><ele>5.5</ele><time>2026-05-05T15:15:59.001Z</time></trkpt><trkpt lat="14.517192641969158" lon="120.99638531250737"><ele>6.0</ele><time>2026-05-05T15:16:08.001Z</time></trkpt><trkpt lat="14.517204492484082" lon="120.99627464595555"><ele>6.500000000000001</ele><time>2026-05-05T15:16:10.001Z</time></trkpt><trkpt lat="14.51720795655963" lon="120.99618261235202"><ele>7.0</ele><time>2026-05-05T15:16:11.001Z</time></trkpt><trkpt lat="14.517218998975526" lon="120.99607798316092"><ele>7.0</ele><time>2026-05-05T15:16:12.001Z</time></trkpt><trkpt lat="14.517226941940459" lon="120.99597727081093"><ele>7.0</ele><time>2026-05-05T15:16:13.001Z</time></trkpt><trkpt lat="14.517239078063183" lon="120.99586342216195"><ele>7.0</ele><time>2026-05-05T15:16:14.001Z</time></trkpt><trkpt lat="14.517251927267736" lon="120.99573496444467"><ele>7.0</ele><time>2026-05-05T15:16:15.001Z</time></trkpt><trkpt lat="14.517266071094548" lon="120.99560252899583"><ele>7.0</ele><time>2026-05-05T15:16:16.001Z</time></trkpt><trkpt lat="14.517286650665914" lon="120.99546927117227"><ele>7.0</ele><time>2026-05-05T15:16:17.001Z</time></trkpt><trkpt lat="14.517308510816676" lon="120.99532499786464"><ele>7.0</ele><time>2026-05-05T15:16:18.001Z</time></trkpt><trkpt lat="14.517326627045016" lon="120.99515849398334"><ele>7.0</ele><time>2026-05-05T15:16:19.001Z</time></trkpt><trkpt lat="14.517344443862207" lon="120.99499714960257"><ele>7.333333333333334</ele><time>2026-05-05T15:16:20.001Z</time></trkpt><trkpt lat="14.517364553628244" lon="120.99482961047688"><ele>7.666666666666666</ele><time>2026-05-05T15:16:21.001Z</time></trkpt><trkpt lat="14.517387661966039" lon="120.99466794366163"><ele>8.0</ele><time>2026-05-05T15:16:22.001Z</time></trkpt><trkpt lat="14.517413159688266" lon="120.99452328743398"><ele>8.0</ele><time>2026-05-05T15:16:23.001Z</time></trkpt><trkpt lat="14.517424502743303" lon="120.99437269289047"><ele>8.0</ele><time>2026-05-05T15:16:24.001Z</time></trkpt><trkpt lat="14.517443568213299" lon="120.99423367536252"><ele>8.0</ele><time>2026-05-05T15:16:25.001Z</time></trkpt><trkpt lat="14.517455769191754" lon="120.9941026626893"><ele>8.0</ele><time>2026-05-05T15:16:26.001Z</time></trkpt><trkpt lat="14.517476796219885" lon="120.99398541855506"><ele>8.166666666666666</ele><time>2026-05-05T15:16:27.001Z</time></trkpt><trkpt lat="14.517494276030257" lon="120.99387926985435"><ele>8.333333333333332</ele><time>2026-05-05T15:16:28Z</time></trkpt><trkpt lat="14.51750890202464" lon="120.99378118317536"><ele>8.5</ele><time>2026-05-05T15:16:29Z</time></trkpt><trkpt lat="14.517531917016697" lon="120.99369697852097"><ele>8.666666666666666</ele><time>2026-05-05T15:16:30Z</time></trkpt><trkpt lat="14.517556397027816" lon="120.9936359706185"><ele>8.833333333333334</ele><time>2026-05-05T15:16:31Z</time></trkpt><trkpt lat="14.51759497427728" lon="120.99358051303383"><ele>9.0</ele><time>2026-05-05T15:16:32Z</time></trkpt><trkpt lat="14.51765365961007" lon="120.99351466937206"><ele>9.0</ele><time>2026-05-05T15:16:33Z</time></trkpt><trkpt lat="14.51773688011295" lon="120.99347666772627"><ele>9.0</ele><time>2026-05-05T15:16:34Z</time></trkpt><trkpt lat="14.517811738149259" lon="120.99348855036008"><ele>9.0</ele><time>2026-05-05T15:16:35Z</time></trkpt><trkpt lat="14.517924565238738" lon="120.99350426566939"><ele>9.0</ele><time>2026-05-05T15:16:36Z</time></trkpt><trkpt lat="14.518037710220156" lon="120.99348529428137"><ele>9.0</ele><time>2026-05-05T15:16:37Z</time></trkpt><trkpt lat="14.518187361933364" lon="120.99351219813879"><ele>13.0</ele><time>2026-05-05T15:16:38Z</time></trkpt><trkpt lat="14.518330673745568" lon="120.99352231827382"><ele>17.0</ele><time>2026-05-05T15:16:39Z</time></trkpt><trkpt lat="14.518489720503553" lon="120.99353371134261"><ele>21.0</ele><time>2026-05-05T15:16:40Z</time></trkpt><trkpt lat="14.518650815738772" lon="120.99354578108996"><ele>23.0</ele><time>2026-05-05T15:16:41Z</time></trkpt><trkpt lat="14.518824106893396" lon="120.99355881787241"><ele>25.0</ele><time>2026-05-05T15:16:42Z</time></trkpt><trkpt lat="14.518998757160674" lon="120.99357343271852"><ele>27.0</ele><time>2026-05-05T15:16:43Z</time></trkpt><trkpt lat="14.519183084462993" lon="120.99358683428088"><ele>27.0</ele><time>2026-05-05T15:16:44Z</time></trkpt><trkpt lat="14.519376544723093" lon="120.99359918345061"><ele>27.0</ele><time>2026-05-05T15:16:45Z</time></trkpt><trkpt lat="14.519568291847325" lon="120.99361317232669"><ele>27.0</ele><time>2026-05-05T15:16:46Z</time></trkpt><trkpt lat="14.519775695613157" lon="120.99362708554946"><ele>20.666666666666668</ele><time>2026-05-05T15:16:47Z</time></trkpt><trkpt lat="14.519977337343715" lon="120.99364318456736"><ele>14.333333333333332</ele><time>2026-05-05T15:16:48Z</time></trkpt><trkpt lat="14.520185704069082" lon="120.99366215588006"><ele>8.0</ele><time>2026-05-05T15:16:49Z</time></trkpt><trkpt lat="14.5203843723397" lon="120.99367490604375"><ele>7.0</ele><time>2026-05-05T15:16:50Z</time></trkpt><trkpt lat="14.520586727726087" lon="120.99368912932152"><ele>6.0</ele><time>2026-05-05T15:16:51Z</time></trkpt><trkpt lat="14.520787717121936" lon="120.99370950926603"><ele>5.0</ele><time>2026-05-05T15:16:52Z</time></trkpt><trkpt lat="14.520988548661904" lon="120.99371979481316"><ele>5.0</ele><time>2026-05-05T15:16:53Z</time></trkpt><trkpt lat="14.521182938455688" lon="120.99372862070793"><ele>5.0</ele><time>2026-05-05T15:16:54Z</time></trkpt><trkpt lat="14.521361671971665" lon="120.99373198534681"><ele>5.0</ele><time>2026-05-05T15:16:55Z</time></trkpt><trkpt lat="14.521531984041482" lon="120.99373610959834"><ele>5.0</ele><time>2026-05-05T15:16:56Z</time></trkpt><trkpt lat="14.521682651299663" lon="120.99373627995153"><ele>5.0</ele><time>2026-05-05T15:16:57Z</time></trkpt><trkpt lat="14.521810708733993" lon="120.99373777779488"><ele>5.0</ele><time>2026-05-05T15:16:58Z</time></trkpt><trkpt lat="14.521925643496544" lon="120.99374300204309"><ele>5.0</ele><time>2026-05-05T15:16:59Z</time></trkpt><trkpt lat="14.522045726179034" lon="120.99374604661719"><ele>5.0</ele><time>2026-05-05T15:17:00Z</time></trkpt><trkpt lat="14.522177563049755" lon="120.99375398765424"><ele>5.0</ele><time>2026-05-05T15:17:01Z</time></trkpt><trkpt lat="14.52232839762799" lon="120.99375916003333"><ele>5.0</ele><time>2026-05-05T15:17:02Z</time></trkpt><trkpt lat="14.522484956530116" lon="120.99376513684409"><ele>5.0</ele><time>2026-05-05T15:17:03Z</time></trkpt><trkpt lat="14.522651087410926" lon="120.99376065125476"><ele>5.0</ele><time>2026-05-05T15:17:04Z</time></trkpt><trkpt lat="14.522823831724946" lon="120.99375018395659"><ele>5.0</ele><time>2026-05-05T15:17:05Z</time></trkpt><trkpt lat="14.523008205432514" lon="120.99375198343319"><ele>5.0</ele><time>2026-05-05T15:17:06Z</time></trkpt><trkpt lat="14.523193485982386" lon="120.99375104537518"><ele>6.0</ele><time>2026-05-05T15:17:07Z</time></trkpt><trkpt lat="14.523376349665586" lon="120.99375404795555"><ele>7.0</ele><time>2026-05-05T15:17:08Z</time></trkpt><trkpt lat="14.523543934860315" lon="120.99375117376742"><ele>8.0</ele><time>2026-05-05T15:17:09Z</time></trkpt><trkpt lat="14.523720659383127" lon="120.99375442387218"><ele>8.0</ele><time>2026-05-05T15:17:10Z</time></trkpt><trkpt lat="14.523895385732656" lon="120.99376269871033"><ele>8.0</ele><time>2026-05-05T15:17:11Z</time></trkpt><trkpt lat="14.524057948640046" lon="120.99376793739273"><ele>8.0</ele><time>2026-05-05T15:17:12Z</time></trkpt><trkpt lat="14.524250130597858" lon="120.99379038158692"><ele>8.0</ele><time>2026-05-05T15:17:13Z</time></trkpt><trkpt lat="14.524425942100766" lon="120.9937943294418"><ele>8.0</ele><time>2026-05-05T15:17:14Z</time></trkpt><trkpt lat="14.524607693948818" lon="120.99379515588822"><ele>8.0</ele><time>2026-05-05T15:17:15Z</time></trkpt><trkpt lat="14.524796335516765" lon="120.99380030758955"><ele>8.333333333333332</ele><time>2026-05-05T15:17:16Z</time></trkpt><trkpt lat="14.524983286606922" lon="120.99380499678107"><ele>8.666666666666666</ele><time>2026-05-05T15:17:17Z</time></trkpt><trkpt lat="14.525158281790597" lon="120.99380412721635"><ele>9.0</ele><time>2026-05-05T15:17:18Z</time></trkpt><trkpt lat="14.525322299855501" lon="120.99380324160161"><ele>11.0</ele><time>2026-05-05T15:17:19Z</time></trkpt><trkpt lat="14.525496476172204" lon="120.99381212823045"><ele>13.0</ele><time>2026-05-05T15:17:20Z</time></trkpt><trkpt lat="14.525657027968112" lon="120.99382366337997"><ele>15.0</ele><time>2026-05-05T15:17:21Z</time></trkpt><trkpt lat="14.525819740019102" lon="120.99383254270982"><ele>15.0</ele><time>2026-05-05T15:17:22Z</time></trkpt><trkpt lat="14.525988031780246" lon="120.99384276349478"><ele>15.0</ele><time>2026-05-05T15:17:23Z</time></trkpt><trkpt lat="14.526127636301801" lon="120.99383975344594"><ele>15.0</ele><time>2026-05-05T15:17:24Z</time></trkpt><trkpt lat="14.526252356759436" lon="120.99384301096751"><ele>15.0</ele><time>2026-05-05T15:17:25Z</time></trkpt><trkpt lat="14.52637830805368" lon="120.99383773218807"><ele>13.4</ele><time>2026-05-05T15:17:26Z</time></trkpt><trkpt lat="14.526481189397229" lon="120.9938186144616"><ele>11.8</ele><time>2026-05-05T15:17:27Z</time></trkpt><trkpt lat="14.526586457742305" lon="120.99380308999233"><ele>10.2</ele><time>2026-05-05T15:17:28Z</time></trkpt><trkpt lat="14.526698420050959" lon="120.99379253029127"><ele>8.6</ele><time>2026-05-05T15:17:29Z</time></trkpt><trkpt lat="14.526791344644984" lon="120.99378552292376"><ele>7.0</ele><time>2026-05-05T15:17:30Z</time></trkpt><trkpt lat="14.526901712037091" lon="120.9937812241399"><ele>7.0</ele><time>2026-05-05T15:17:31Z</time></trkpt><trkpt lat="14.527016728840962" lon="120.99377949846276"><ele>7.0</ele><time>2026-05-05T15:17:32Z</time></trkpt><trkpt lat="14.527137228681779" lon="120.99377407470695"><ele>7.0</ele><time>2026-05-05T15:17:33Z</time></trkpt><trkpt lat="14.527262147156081" lon="120.99376491015059"><ele>7.0</ele><time>2026-05-05T15:17:34Z</time></trkpt><trkpt lat="14.527397921540539" lon="120.99374984617323"><ele>7.5</ele><time>2026-05-05T15:17:35Z</time></trkpt><trkpt lat="14.527543530176175" lon="120.99372787526093"><ele>8.0</ele><time>2026-05-05T15:17:36Z</time></trkpt><trkpt lat="14.527690291569778" lon="120.99370312740213"><ele>8.5</ele><time>2026-05-05T15:17:37Z</time></trkpt><trkpt lat="14.52783462481597" lon="120.99368235747757"><ele>9.0</ele><time>2026-05-05T15:17:38Z</time></trkpt><trkpt lat="14.527990409116581" lon="120.9936628223941"><ele>9.0</ele><time>2026-05-05T15:17:39Z</time></trkpt><trkpt lat="14.528139188077319" lon="120.9936457753711"><ele>9.0</ele><time>2026-05-05T15:17:40Z</time></trkpt><trkpt lat="14.5283039684033" lon="120.99362235402444"><ele>9.0</ele><time>2026-05-05T15:17:41Z</time></trkpt><trkpt lat="14.528448683526548" lon="120.993600173362"><ele>9.0</ele><time>2026-05-05T15:17:42Z</time></trkpt><trkpt lat="14.528586345274794" lon="120.99357470596522"><ele>9.0</ele><time>2026-05-05T15:17:43Z</time></trkpt><trkpt lat="14.528724432507476" lon="120.99355740007823"><ele>9.0</ele><time>2026-05-05T15:17:44Z</time></trkpt><trkpt lat="14.52886711794918" lon="120.99354271232862"><ele>9.0</ele><time>2026-05-05T15:17:45Z</time></trkpt><trkpt lat="14.529019692786402" lon="120.99352699568979"><ele>8.333333333333334</ele><time>2026-05-05T15:17:46Z</time></trkpt><trkpt lat="14.529171189905389" lon="120.99350994485111"><ele>7.666666666666667</ele><time>2026-05-05T15:17:47Z</time></trkpt><trkpt lat="14.529327590777346" lon="120.99348975614953"><ele>7.0</ele><time>2026-05-05T15:17:48Z</time></trkpt><trkpt lat="14.529480887908148" lon="120.99347173881097"><ele>7.75</ele><time>2026-05-05T15:17:49Z</time></trkpt><trkpt lat="14.529632093120236" lon="120.99345416294322"><ele>8.5</ele><time>2026-05-05T15:17:50Z</time></trkpt><trkpt lat="14.529783081797175" lon="120.99343577689686"><ele>9.25</ele><time>2026-05-05T15:17:51Z</time></trkpt><trkpt lat="14.529927308549162" lon="120.99342012348937"><ele>10.0</ele><time>2026-05-05T15:17:52Z</time></trkpt><trkpt lat="14.530074637421722" lon="120.99340320420853"><ele>10.0</ele><time>2026-05-05T15:17:53Z</time></trkpt><trkpt lat="14.530226087504571" lon="120.99338538427413"><ele>10.0</ele><time>2026-05-05T15:17:54Z</time></trkpt><trkpt lat="14.530374960437122" lon="120.99336801493428"><ele>10.0</ele><time>2026-05-05T15:17:55Z</time></trkpt><trkpt lat="14.53054219791191" lon="120.99333876882172"><ele>7.666666666666667</ele><time>2026-05-05T15:17:56Z</time></trkpt><trkpt lat="14.53069994061698" lon="120.99331430023862"><ele>5.333333333333334</ele><time>2026-05-05T15:17:57Z</time></trkpt><trkpt lat="14.530859931958972" lon="120.99328859056557"><ele>3.0</ele><time>2026-05-05T15:17:58Z</time></trkpt><trkpt lat="14.531009041750252" lon="120.99327112812281"><ele>3.0</ele><time>2026-05-05T15:17:59Z</time></trkpt><trkpt lat="14.531150609380704" lon="120.99325334537791"><ele>3.0</ele><time>2026-05-05T15:18:00Z</time></trkpt><trkpt lat="14.531305267260286" lon="120.99323333511069"><ele>3.0</ele><time>2026-05-05T15:18:01Z</time></trkpt><trkpt lat="14.531449984376064" lon="120.99321729867724"><ele>3.0</ele><time>2026-05-05T15:18:02Z</time></trkpt><trkpt lat="14.531596012414496" lon="120.99320156855877"><ele>3.75</ele><time>2026-05-05T15:18:03Z</time></trkpt><trkpt lat="14.531732998122806" lon="120.99318475205887"><ele>4.5</ele><time>2026-05-05T15:18:04Z</time></trkpt><trkpt lat="14.531866085923696" lon="120.99316577119754"><ele>5.25</ele><time>2026-05-05T15:18:05Z</time></trkpt><trkpt lat="14.531980466600709" lon="120.99315524729921"><ele>6.0</ele><time>2026-05-05T15:18:06Z</time></trkpt><trkpt lat="14.532108124126237" lon="120.99313407613559"><ele>6.5</ele><time>2026-05-05T15:18:07Z</time></trkpt><trkpt lat="14.532213422309022" lon="120.99312420022459"><ele>7.0</ele><time>2026-05-05T15:18:08Z</time></trkpt><trkpt lat="14.532326758637135" lon="120.99310713122475"><ele>7.5</ele><time>2026-05-05T15:18:09Z</time></trkpt><trkpt lat="14.532442216757982" lon="120.99309211514475"><ele>8.0</ele><time>2026-05-05T15:18:10Z</time></trkpt><trkpt lat="14.532568798708969" lon="120.99307330227752"><ele>8.0</ele><time>2026-05-05T15:18:11Z</time></trkpt><trkpt lat="14.532697838965621" lon="120.993041774517"><ele>8.0</ele><time>2026-05-05T15:18:12Z</time></trkpt><trkpt lat="14.532840817621498" lon="120.99300676339428"><ele>8.0</ele><time>2026-05-05T15:18:13Z</time></trkpt><trkpt lat="14.5329921794515" lon="120.99297728344408"><ele>8.0</ele><time>2026-05-05T15:18:14Z</time></trkpt><trkpt lat="14.53314738654832" lon="120.99295427606862"><ele>9.666666666666666</ele><time>2026-05-05T15:18:15Z</time></trkpt><trkpt lat="14.533304712014042" lon="120.99293938032561"><ele>11.333333333333332</ele><time>2026-05-05T15:18:16Z</time></trkpt><trkpt lat="14.533470517942893" lon="120.99292248503534"><ele>13.0</ele><time>2026-05-05T15:18:17Z</time></trkpt><trkpt lat="14.533653557646703" lon="120.99289697094115"><ele>11.0</ele><time>2026-05-05T15:18:18Z</time></trkpt><trkpt lat="14.533851988387921" lon="120.99287822063272"><ele>9.0</ele><time>2026-05-05T15:18:19Z</time></trkpt><trkpt lat="14.534042922541433" lon="120.99286029245714"><ele>7.0</ele><time>2026-05-05T15:18:20Z</time></trkpt><trkpt lat="14.534207327107415" lon="120.9928402248309"><ele>7.0</ele><time>2026-05-05T15:18:21Z</time></trkpt><trkpt lat="14.534392291599241" lon="120.99282025055993"><ele>7.0</ele><time>2026-05-05T15:18:22Z</time></trkpt><trkpt lat="14.534566224407547" lon="120.99280304051543"><ele>7.0</ele><time>2026-05-05T15:18:23Z</time></trkpt><trkpt lat="14.53475116238718" lon="120.99278767521629"><ele>7.666666666666667</ele><time>2026-05-05T15:18:24Z</time></trkpt><trkpt lat="14.534920695861805" lon="120.99276510899041"><ele>8.333333333333334</ele><time>2026-05-05T15:18:25Z</time></trkpt><trkpt lat="14.535093823541409" lon="120.99274195773471"><ele>9.0</ele><time>2026-05-05T15:18:26Z</time></trkpt><trkpt lat="14.535277392305384" lon="120.9927170152323"><ele>9.0</ele><time>2026-05-05T15:18:27Z</time></trkpt><trkpt lat="14.535469776796935" lon="120.9927001063234"><ele>9.0</ele><time>2026-05-05T15:18:28Z</time></trkpt><trkpt lat="14.53562285474541" lon="120.99269465652114"><ele>9.0</ele><time>2026-05-05T15:18:29Z</time></trkpt><trkpt lat="14.535764509975218" lon="120.99267842676099"><ele>9.0</ele><time>2026-05-05T15:18:30Z</time></trkpt><trkpt lat="14.536004634780022" lon="120.99262972244581"><ele>9.0</ele><time>2026-05-05T15:18:31Z</time></trkpt><trkpt lat="14.536208767869033" lon="120.99261229338518"><ele>10.666666666666668</ele><time>2026-05-05T15:18:32Z</time></trkpt><trkpt lat="14.536402415247338" lon="120.99259280733399"><ele>12.333333333333334</ele><time>2026-05-05T15:18:33Z</time></trkpt><trkpt lat="14.536577623438584" lon="120.99256383283642"><ele>14.0</ele><time>2026-05-05T15:18:34Z</time></trkpt><trkpt lat="14.536752431183949" lon="120.99254884717"><ele>14.0</ele><time>2026-05-05T15:18:35Z</time></trkpt><trkpt lat="14.536899081231018" lon="120.9925299058392"><ele>14.0</ele><time>2026-05-05T15:18:36Z</time></trkpt><trkpt lat="14.537037091244043" lon="120.99252476260408"><ele>14.0</ele><time>2026-05-05T15:18:37Z</time></trkpt><trkpt lat="14.537181710357617" lon="120.99251301279112"><ele>14.0</ele><time>2026-05-05T15:18:38Z</time></trkpt><trkpt lat="14.537321305740502" lon="120.9924945144976"><ele>12.75</ele><time>2026-05-05T15:18:39Z</time></trkpt><trkpt lat="14.537461610488418" lon="120.99247744698954"><ele>11.5</ele><time>2026-05-05T15:18:40Z</time></trkpt><trkpt lat="14.537600579325268" lon="120.99245758598857"><ele>10.25</ele><time>2026-05-05T15:18:41Z</time></trkpt><trkpt lat="14.537752783739919" lon="120.99243579512803"><ele>9.0</ele><time>2026-05-05T15:18:42Z</time></trkpt><trkpt lat="14.53790230349468" lon="120.99241656402711"><ele>9.0</ele><time>2026-05-05T15:18:43Z</time></trkpt><trkpt lat="14.538044007150797" lon="120.9924008055099"><ele>9.0</ele><time>2026-05-05T15:18:44Z</time></trkpt><trkpt lat="14.53819769609847" lon="120.99238369003594"><ele>9.0</ele><time>2026-05-05T15:18:45Z</time></trkpt><trkpt lat="14.538334603610945" lon="120.99237562202472"><ele>9.0</ele><time>2026-05-05T15:18:46Z</time></trkpt><trkpt lat="14.538480640018989" lon="120.99236510488377"><ele>9.0</ele><time>2026-05-05T15:18:47Z</time></trkpt><trkpt lat="14.538634180396047" lon="120.99235027032032"><ele>9.0</ele><time>2026-05-05T15:18:48Z</time></trkpt><trkpt lat="14.538791778175833" lon="120.99233408383311"><ele>9.0</ele><time>2026-05-05T15:18:49Z</time></trkpt><trkpt lat="14.538945744661119" lon="120.99231712520893"><ele>8.0</ele><time>2026-05-05T15:18:50Z</time></trkpt><trkpt lat="14.539094403665807" lon="120.992302250948"><ele>7.0</ele><time>2026-05-05T15:18:51Z</time></trkpt><trkpt lat="14.539250004575715" lon="120.99228791780263"><ele>6.0</ele><time>2026-05-05T15:18:52Z</time></trkpt><trkpt lat="14.539412223891793" lon="120.99227544215371"><ele>7.0</ele><time>2026-05-05T15:18:53Z</time></trkpt><trkpt lat="14.539567079413958" lon="120.99227544901856"><ele>8.0</ele><time>2026-05-05T15:18:54Z</time></trkpt><trkpt lat="14.539731138473275" lon="120.99227328560306"><ele>9.0</ele><time>2026-05-05T15:18:55Z</time></trkpt><trkpt lat="14.539892900222696" lon="120.99225583923227"><ele>9.0</ele><time>2026-05-05T15:18:56Z</time></trkpt><trkpt lat="14.540036070266046" lon="120.99223104447077"><ele>9.0</ele><time>2026-05-05T15:18:57Z</time></trkpt><trkpt lat="14.540196198725205" lon="120.99219759251626"><ele>9.0</ele><time>2026-05-05T15:18:58Z</time></trkpt><trkpt lat="14.540370924263378" lon="120.99217433153999"><ele>12.666666666666668</ele><time>2026-05-05T15:18:59Z</time></trkpt><trkpt lat="14.540536384120296" lon="120.9921453679067"><ele>16.333333333333336</ele><time>2026-05-05T15:19:00Z</time></trkpt><trkpt lat="14.540720209508466" lon="120.99212142353603"><ele>20.0</ele><time>2026-05-05T15:19:01Z</time></trkpt><trkpt lat="14.540904154571972" lon="120.99210213574216"><ele>20.0</ele><time>2026-05-05T15:19:02Z</time></trkpt><trkpt lat="14.541087993282275" lon="120.99207156339054"><ele>20.0</ele><time>2026-05-05T15:19:03Z</time></trkpt><trkpt lat="14.541288281948033" lon="120.99203329732583"><ele>20.0</ele><time>2026-05-05T15:19:04Z</time></trkpt><trkpt lat="14.541485824586475" lon="120.99199945429923"><ele>16.0</ele><time>2026-05-05T15:19:05Z</time></trkpt><trkpt lat="14.541691090960432" lon="120.99195581948706"><ele>12.0</ele><time>2026-05-05T15:19:06Z</time></trkpt><trkpt lat="14.541893362934513" lon="120.99192275315272"><ele>8.0</ele><time>2026-05-05T15:19:07Z</time></trkpt><trkpt lat="14.542111306506575" lon="120.99187868666209"><ele>8.0</ele><time>2026-05-05T15:19:08Z</time></trkpt><trkpt lat="14.54232635101719" lon="120.99183371661246"><ele>8.0</ele><time>2026-05-05T15:19:09Z</time></trkpt><trkpt lat="14.542540824300469" lon="120.99180254500416"><ele>8.0</ele><time>2026-05-05T15:19:10Z</time></trkpt><trkpt lat="14.54274145580847" lon="120.99178000743183"><ele>7.666666666666666</ele><time>2026-05-05T15:19:11Z</time></trkpt><trkpt lat="14.542948376338066" lon="120.99174837980502"><ele>7.333333333333334</ele><time>2026-05-05T15:19:12Z</time></trkpt><trkpt lat="14.543155294217147" lon="120.99171239347596"><ele>7.0</ele><time>2026-05-05T15:19:13Z</time></trkpt><trkpt lat="14.543368441809552" lon="120.99167765863366"><ele>6.666666666666667</ele><time>2026-05-05T15:19:14Z</time></trkpt><trkpt lat="14.543588065997668" lon="120.99163789234369"><ele>6.333333333333334</ele><time>2026-05-05T15:19:15Z</time></trkpt><trkpt lat="14.543797404934384" lon="120.99159752419637"><ele>6.0</ele><time>2026-05-05T15:19:16Z</time></trkpt><trkpt lat="14.544014119853578" lon="120.99155751313495"><ele>6.666666666666666</ele><time>2026-05-05T15:19:17Z</time></trkpt><trkpt lat="14.544232733100465" lon="120.99152608747099"><ele>7.333333333333333</ele><time>2026-05-05T15:19:18Z</time></trkpt><trkpt lat="14.54445298533005" lon="120.99148918776017"><ele>8.0</ele><time>2026-05-05T15:19:19Z</time></trkpt><trkpt lat="14.5446787836199" lon="120.99144394899443"><ele>9.0</ele><time>2026-05-05T15:19:20Z</time></trkpt><trkpt lat="14.544895674553356" lon="120.99139552342145"><ele>10.0</ele><time>2026-05-05T15:19:21Z</time></trkpt><trkpt lat="14.54509108221257" lon="120.9913485971986"><ele>11.0</ele><time>2026-05-05T15:19:22Z</time></trkpt><trkpt lat="14.545266736372383" lon="120.99130583546098"><ele>9.666666666666666</ele><time>2026-05-05T15:19:23Z</time></trkpt><trkpt lat="14.545460630874377" lon="120.9912563503195"><ele>8.333333333333334</ele><time>2026-05-05T15:19:24Z</time></trkpt><trkpt lat="14.545646614679232" lon="120.9912122520518"><ele>7.0</ele><time>2026-05-05T15:19:25Z</time></trkpt><trkpt lat="14.545830170776545" lon="120.99116864164593"><ele>7.0</ele><time>2026-05-05T15:19:26Z</time></trkpt><trkpt lat="14.546018901462451" lon="120.99112465863818"><ele>7.0</ele><time>2026-05-05T15:19:27Z</time></trkpt><trkpt lat="14.546232037823179" lon="120.99107076751145"><ele>7.0</ele><time>2026-05-05T15:19:28Z</time></trkpt><trkpt lat="14.546417243797942" lon="120.99102228400969"><ele>8.666666666666668</ele><time>2026-05-05T15:19:29Z</time></trkpt><trkpt lat="14.546618392022072" lon="120.99097499254164"><ele>10.333333333333334</ele><time>2026-05-05T15:19:30Z</time></trkpt><trkpt lat="14.546808733178374" lon="120.99092486037497"><ele>12.0</ele><time>2026-05-05T15:19:31Z</time></trkpt><trkpt lat="14.547004815222083" lon="120.99088041849565"><ele>10.666666666666666</ele><time>2026-05-05T15:19:32Z</time></trkpt><trkpt lat="14.54719268651755" lon="120.99082925487352"><ele>9.333333333333332</ele><time>2026-05-05T15:19:33Z</time></trkpt><trkpt lat="14.547381821984587" lon="120.9907750201284"><ele>8.0</ele><time>2026-05-05T15:19:34Z</time></trkpt><trkpt lat="14.547568053390922" lon="120.99071317431633"><ele>8.0</ele><time>2026-05-05T15:19:35Z</time></trkpt><trkpt lat="14.547747279800497" lon="120.9906515413069"><ele>8.0</ele><time>2026-05-05T15:19:36Z</time></trkpt><trkpt lat="14.54799976147084" lon="120.99063347904824"><ele>8.0</ele><time>2026-05-05T15:19:37Z</time></trkpt><trkpt lat="14.548215509871786" lon="120.9905850362821"><ele>8.0</ele><time>2026-05-05T15:19:38Z</time></trkpt><trkpt lat="14.548431931041947" lon="120.9905366133263"><ele>8.0</ele><time>2026-05-05T15:19:39Z</time></trkpt><trkpt lat="14.548643631844014" lon="120.99048572207873"><ele>8.0</ele><time>2026-05-05T15:19:40Z</time></trkpt><trkpt lat="14.548848560119092" lon="120.99043695177473"><ele>8.0</ele><time>2026-05-05T15:19:41Z</time></trkpt><trkpt lat="14.549049444932601" lon="120.99039275798124"><ele>8.0</ele><time>2026-05-05T15:19:42Z</time></trkpt><trkpt lat="14.54923668267481" lon="120.99034750684905"><ele>8.0</ele><time>2026-05-05T15:19:43Z</time></trkpt><trkpt lat="14.549413696181213" lon="120.99030168740362"><ele>8.333333333333332</ele><time>2026-05-05T15:19:44Z</time></trkpt><trkpt lat="14.549583112138368" lon="120.99025883970077"><ele>8.666666666666666</ele><time>2026-05-05T15:19:45Z</time></trkpt><trkpt lat="14.549755946899504" lon="120.99022084844246"><ele>9.0</ele><time>2026-05-05T15:19:46Z</time></trkpt><trkpt lat="14.54992645660825" lon="120.99018124697687"><ele>9.0</ele><time>2026-05-05T15:19:47Z</time></trkpt><trkpt lat="14.55008611220506" lon="120.99014467603754"><ele>9.0</ele><time>2026-05-05T15:19:48Z</time></trkpt><trkpt lat="14.550239766450186" lon="120.99011154409651"><ele>9.0</ele><time>2026-05-05T15:19:49Z</time></trkpt><trkpt lat="14.550384917858718" lon="120.99008474058918"><ele>9.0</ele><time>2026-05-05T15:19:50Z</time></trkpt><trkpt lat="14.550524044368931" lon="120.9900525060016"><ele>9.0</ele><time>2026-05-05T15:19:51Z</time></trkpt><trkpt lat="14.55066422274094" lon="120.99001968622183"><ele>9.0</ele><time>2026-05-05T15:19:52Z</time></trkpt><trkpt lat="14.55080720317971" lon="120.98998766956916"><ele>9.0</ele><time>2026-05-05T15:19:53Z</time></trkpt><trkpt lat="14.550946959010792" lon="120.9899602210591"><ele>9.0</ele><time>2026-05-05T15:19:54Z</time></trkpt><trkpt lat="14.551084566068981" lon="120.98992921892211"><ele>9.0</ele><time>2026-05-05T15:19:55Z</time></trkpt><trkpt lat="14.551220670050258" lon="120.98989756615158"><ele>9.0</ele><time>2026-05-05T15:19:56Z</time></trkpt><trkpt lat="14.551357206670021" lon="120.98986444575354"><ele>9.0</ele><time>2026-05-05T15:19:57Z</time></trkpt><trkpt lat="14.551491093108973" lon="120.9898351751252"><ele>9.0</ele><time>2026-05-05T15:19:58Z</time></trkpt><trkpt lat="14.551619449439764" lon="120.98981069836975"><ele>9.0</ele><time>2026-05-05T15:19:59Z</time></trkpt><trkpt lat="14.551737645727867" lon="120.98978515808338"><ele>9.0</ele><time>2026-05-05T15:20:00Z</time></trkpt><trkpt lat="14.55184315926935" lon="120.98976242378365"><ele>9.0</ele><time>2026-05-05T15:20:01Z</time></trkpt><trkpt lat="14.551930771800905" lon="120.98974354185592"><ele>9.0</ele><time>2026-05-05T15:20:02Z</time></trkpt><trkpt lat="14.551995510185094" lon="120.9897329404843"><ele>9.2</ele><time>2026-05-05T15:20:03Z</time></trkpt><trkpt lat="14.552105282947279" lon="120.9897197064546"><ele>9.4</ele><time>2026-05-05T15:20:05Z</time></trkpt><trkpt lat="14.552177322573373" lon="120.98975517869235"><ele>9.6</ele><time>2026-05-05T15:20:07Z</time></trkpt><trkpt lat="14.552237323106725" lon="120.98986811416638"><ele>9.8</ele><time>2026-05-05T15:20:09Z</time></trkpt><trkpt lat="14.552267943612954" lon="120.98995496839466"><ele>10.0</ele><time>2026-05-05T15:20:10Z</time></trkpt><trkpt lat="14.552307453722609" lon="120.99005335263014"><ele>10.0</ele><time>2026-05-05T15:20:11Z</time></trkpt><trkpt lat="14.552344725451011" lon="120.99016129623631"><ele>10.0</ele><time>2026-05-05T15:20:12Z</time></trkpt><trkpt lat="14.552383377720664" lon="120.99027849610528"><ele>10.0</ele><time>2026-05-05T15:20:13Z</time></trkpt><trkpt lat="14.5524203470969" lon="120.99039149476953"><ele>10.0</ele><time>2026-05-05T15:20:14Z</time></trkpt><trkpt lat="14.552464866063486" lon="120.99051139158553"><ele>10.0</ele><time>2026-05-05T15:20:15Z</time></trkpt><trkpt lat="14.552506981983239" lon="120.99063186109913"><ele>10.0</ele><time>2026-05-05T15:20:16Z</time></trkpt><trkpt lat="14.552552284818157" lon="120.99076357259925"><ele>10.0</ele><time>2026-05-05T15:20:17Z</time></trkpt><trkpt lat="14.552598685754651" lon="120.9908998845938"><ele>10.0</ele><time>2026-05-05T15:20:18Z</time></trkpt><trkpt lat="14.552643636443861" lon="120.99103549281222"><ele>10.0</ele><time>2026-05-05T15:20:19Z</time></trkpt><trkpt lat="14.552688101238553" lon="120.99117175130758"><ele>10.0</ele><time>2026-05-05T15:20:20Z</time></trkpt><trkpt lat="14.552731292412295" lon="120.99130568639046"><ele>10.0</ele><time>2026-05-05T15:20:21Z</time></trkpt><trkpt lat="14.552769113911808" lon="120.99142963915604"><ele>10.0</ele><time>2026-05-05T15:20:22Z</time></trkpt><trkpt lat="14.552812244780915" lon="120.99156708027216"><ele>10.0</ele><time>2026-05-05T15:20:23Z</time></trkpt><trkpt lat="14.55285495351803" lon="120.99169796400719"><ele>10.0</ele><time>2026-05-05T15:20:24Z</time></trkpt><trkpt lat="14.552898486735579" lon="120.99183481805586"><ele>10.0</ele><time>2026-05-05T15:20:25Z</time></trkpt><trkpt lat="14.552942833325815" lon="120.9919803323958"><ele>10.0</ele><time>2026-05-05T15:20:26Z</time></trkpt><trkpt lat="14.552989226423138" lon="120.99213568398996"><ele>10.0</ele><time>2026-05-05T15:20:27Z</time></trkpt><trkpt lat="14.553036471346918" lon="120.99229292105238"><ele>10.0</ele><time>2026-05-05T15:20:28Z</time></trkpt><trkpt lat="14.553084937597907" lon="120.99245906470577"><ele>10.0</ele><time>2026-05-05T15:20:29Z</time></trkpt><trkpt lat="14.55313369186657" lon="120.99262969308602"><ele>9.666666666666668</ele><time>2026-05-05T15:20:30Z</time></trkpt><trkpt lat="14.553177814386869" lon="120.99280395565991"><ele>9.333333333333334</ele><time>2026-05-05T15:20:31Z</time></trkpt><trkpt lat="14.553217529965597" lon="120.99298652844853"><ele>9.0</ele><time>2026-05-05T15:20:32Z</time></trkpt><trkpt lat="14.553246662646517" lon="120.99317495828144"><ele>9.333333333333334</ele><time>2026-05-05T15:20:33Z</time></trkpt><trkpt lat="14.553273926485005" lon="120.99337221216058"><ele>9.666666666666668</ele><time>2026-05-05T15:20:34Z</time></trkpt><trkpt lat="14.553304422406738" lon="120.9935707344702"><ele>10.0</ele><time>2026-05-05T15:20:35Z</time></trkpt><trkpt lat="14.553327375074979" lon="120.99376318381003"><ele>10.0</ele><time>2026-05-05T15:20:36Z</time></trkpt><trkpt lat="14.55334422457509" lon="120.99394453093801"><ele>10.0</ele><time>2026-05-05T15:20:37Z</time></trkpt><trkpt lat="14.553356803862279" lon="120.99411228896184"><ele>10.0</ele><time>2026-05-05T15:20:38Z</time></trkpt><trkpt lat="14.55337400785972" lon="120.99427090445782"><ele>9.0</ele><time>2026-05-05T15:20:39Z</time></trkpt><trkpt lat="14.553399018287699" lon="120.99442990683175"><ele>8.0</ele><time>2026-05-05T15:20:40Z</time></trkpt><trkpt lat="14.553421659641282" lon="120.99459225009164"><ele>7.0</ele><time>2026-05-05T15:20:41Z</time></trkpt><trkpt lat="14.5534441632298" lon="120.99476160666468"><ele>7.0</ele><time>2026-05-05T15:20:42Z</time></trkpt><trkpt lat="14.553468524632189" lon="120.99492821253318"><ele>7.0</ele><time>2026-05-05T15:20:43Z</time></trkpt><trkpt lat="14.553477633771639" lon="120.99509064182263"><ele>7.0</ele><time>2026-05-05T15:20:44Z</time></trkpt><trkpt lat="14.553501774572917" lon="120.99526372780119"><ele>9.0</ele><time>2026-05-05T15:20:45Z</time></trkpt><trkpt lat="14.553528699235525" lon="120.99541995188473"><ele>11.0</ele><time>2026-05-05T15:20:46Z</time></trkpt><trkpt lat="14.55356650870357" lon="120.99557994655397"><ele>13.0</ele><time>2026-05-05T15:20:47Z</time></trkpt><trkpt lat="14.553605200213962" lon="120.99573478214288"><ele>13.75</ele><time>2026-05-05T15:20:48Z</time></trkpt><trkpt lat="14.553640002082865" lon="120.99589286238526"><ele>14.5</ele><time>2026-05-05T15:20:49Z</time></trkpt><trkpt lat="14.553675351495496" lon="120.99602449104376"><ele>15.25</ele><time>2026-05-05T15:20:50Z</time></trkpt><trkpt lat="14.553712409654995" lon="120.99617058494731"><ele>16.0</ele><time>2026-05-05T15:20:51Z</time></trkpt><trkpt lat="14.553743890303515" lon="120.99630155507168"><ele>14.600000000000001</ele><time>2026-05-05T15:20:52Z</time></trkpt><trkpt lat="14.55377570579128" lon="120.99642018104119"><ele>13.200000000000001</ele><time>2026-05-05T15:20:53Z</time></trkpt><trkpt lat="14.553803693148518" lon="120.9965378207759"><ele>11.8</ele><time>2026-05-05T15:20:54Z</time></trkpt><trkpt lat="14.553830540934612" lon="120.99663227809404"><ele>10.4</ele><time>2026-05-05T15:20:55Z</time></trkpt><trkpt lat="14.553853253457497" lon="120.99672022985636"><ele>9.0</ele><time>2026-05-05T15:20:56Z</time></trkpt><trkpt lat="14.553870678718168" lon="120.99678344208266"><ele>8.4</ele><time>2026-05-05T15:20:57Z</time></trkpt><trkpt lat="14.553889708191676" lon="120.99684888674474"><ele>7.800000000000001</ele><time>2026-05-05T15:20:58Z</time></trkpt><trkpt lat="14.553925206774746" lon="120.99694992171615"><ele>7.199999999999999</ele><time>2026-05-05T15:21:00Z</time></trkpt><trkpt lat="14.553946430157959" lon="120.99705527565884"><ele>6.6</ele><time>2026-05-05T15:21:02Z</time></trkpt><trkpt lat="14.554019735789042" lon="120.99713528347108"><ele>6.0</ele><time>2026-05-05T15:21:04Z</time></trkpt><trkpt lat="14.554102136103218" lon="120.9971740646561"><ele>6.0</ele><time>2026-05-05T15:21:06Z</time></trkpt><trkpt lat="14.55417470342656" lon="120.99717501052976"><ele>6.0</ele><time>2026-05-05T15:21:08Z</time></trkpt><trkpt lat="14.554248025096417" lon="120.99716138403856"><ele>6.0</ele><time>2026-05-05T15:21:12Z</time></trkpt><trkpt lat="14.55434414287534" lon="120.99714788028099"><ele>6.0</ele><time>2026-05-05T15:21:14Z</time></trkpt><trkpt lat="14.554426043051599" lon="120.99711617124755"><ele>6.0</ele><time>2026-05-05T15:21:15Z</time></trkpt><trkpt lat="14.55450439392543" lon="120.99710104898212"><ele>6.0</ele><time>2026-05-05T15:21:16Z</time></trkpt><trkpt lat="14.554629314434003" lon="120.9970904881707"><ele>6.75</ele><time>2026-05-05T15:21:17Z</time></trkpt><trkpt lat="14.55475778002248" lon="120.99706084813245"><ele>7.5</ele><time>2026-05-05T15:21:18Z</time></trkpt><trkpt lat="14.554908589361544" lon="120.99702782068479"><ele>8.25</ele><time>2026-05-05T15:21:19Z</time></trkpt><trkpt lat="14.555038856574473" lon="120.99699896867362"><ele>9.0</ele><time>2026-05-05T15:21:20Z</time></trkpt><trkpt lat="14.555151182726428" lon="120.99697141955345"><ele>9.0</ele><time>2026-05-05T15:21:21Z</time></trkpt><trkpt lat="14.555252287400107" lon="120.99694125990365"><ele>9.0</ele><time>2026-05-05T15:21:22Z</time></trkpt><trkpt lat="14.555349457440803" lon="120.9969147979692"><ele>9.0</ele><time>2026-05-05T15:21:23Z</time></trkpt><trkpt lat="14.55544892868119" lon="120.99689224132047"><ele>9.0</ele><time>2026-05-05T15:21:24Z</time></trkpt><trkpt lat="14.555544306864606" lon="120.99686852107209"><ele>9.0</ele><time>2026-05-05T15:21:25Z</time></trkpt><trkpt lat="14.555628475394954" lon="120.99685366479423"><ele>9.0</ele><time>2026-05-05T15:21:26Z</time></trkpt><trkpt lat="14.555710942793466" lon="120.9968339004444"><ele>9.0</ele><time>2026-05-05T15:21:27Z</time></trkpt><trkpt lat="14.555784419027274" lon="120.99681841841092"><ele>9.0</ele><time>2026-05-05T15:21:28Z</time></trkpt><trkpt lat="14.555863284009405" lon="120.9967944540164"><ele>9.0</ele><time>2026-05-05T15:21:29Z</time></trkpt><trkpt lat="14.55594633985545" lon="120.9967774240654"><ele>9.0</ele><time>2026-05-05T15:21:30Z</time></trkpt><trkpt lat="14.556035412760835" lon="120.99675761986828"><ele>9.0</ele><time>2026-05-05T15:21:31Z</time></trkpt><trkpt lat="14.55613943849666" lon="120.99674186542819"><ele>9.166666666666666</ele><time>2026-05-05T15:21:32Z</time></trkpt><trkpt lat="14.556218432223226" lon="120.99671940137"><ele>9.333333333333334</ele><time>2026-05-05T15:21:33Z</time></trkpt><trkpt lat="14.55629814855092" lon="120.9966994167619"><ele>9.5</ele><time>2026-05-05T15:21:34Z</time></trkpt><trkpt lat="14.556378770110188" lon="120.99668168853282"><ele>9.666666666666668</ele><time>2026-05-05T15:21:35Z</time></trkpt><trkpt lat="14.556458954704105" lon="120.99666318370204"><ele>9.833333333333334</ele><time>2026-05-05T15:21:36Z</time></trkpt><trkpt lat="14.55654241276206" lon="120.99664544063155"><ele>10.0</ele><time>2026-05-05T15:21:37Z</time></trkpt><trkpt lat="14.556628461267122" lon="120.99662598322817"><ele>10.2</ele><time>2026-05-05T15:21:38Z</time></trkpt><trkpt lat="14.556722840514766" lon="120.99660725927131"><ele>10.4</ele><time>2026-05-05T15:21:39Z</time></trkpt><trkpt lat="14.55681601998568" lon="120.99658421603107"><ele>10.600000000000001</ele><time>2026-05-05T15:21:40Z</time></trkpt><trkpt lat="14.55692183638669" lon="120.9965536305557"><ele>10.8</ele><time>2026-05-05T15:21:41Z</time></trkpt><trkpt lat="14.557019319216137" lon="120.99653611365089"><ele>11.0</ele><time>2026-05-05T15:21:42Z</time></trkpt><trkpt lat="14.55711393789198" lon="120.99652413006973"><ele>11.0</ele><time>2026-05-05T15:21:43Z</time></trkpt><trkpt lat="14.557191858286542" lon="120.99650592842939"><ele>11.0</ele><time>2026-05-05T15:21:44Z</time></trkpt><trkpt lat="14.557278723648746" lon="120.99648680839698"><ele>11.0</ele><time>2026-05-05T15:21:45Z</time></trkpt><trkpt lat="14.557372133769627" lon="120.99646760617884"><ele>11.0</ele><time>2026-05-05T15:21:46Z</time></trkpt><trkpt lat="14.557471461918748" lon="120.99644548406232"><ele>11.0</ele><time>2026-05-05T15:21:47Z</time></trkpt><trkpt lat="14.557558742436614" lon="120.99642334834812"><ele>11.0</ele><time>2026-05-05T15:21:48Z</time></trkpt><trkpt lat="14.557653717283817" lon="120.99640382100877"><ele>11.0</ele><time>2026-05-05T15:21:49Z</time></trkpt><trkpt lat="14.557748172957087" lon="120.99637788536816"><ele>11.0</ele><time>2026-05-05T15:21:50Z</time></trkpt><trkpt lat="14.557835086461056" lon="120.99636031796078"><ele>11.0</ele><time>2026-05-05T15:21:51Z</time></trkpt><trkpt lat="14.55790664986531" lon="120.99633827106291"><ele>11.0</ele><time>2026-05-05T15:21:52Z</time></trkpt><trkpt lat="14.55797420929682" lon="120.99631404733356"><ele>11.0</ele><time>2026-05-05T15:21:53Z</time></trkpt><trkpt lat="14.558040740993269" lon="120.99630062706031"><ele>10.600000000000001</ele><time>2026-05-05T15:21:54Z</time></trkpt><trkpt lat="14.55815099953147" lon="120.9962846620225"><ele>10.200000000000001</ele><time>2026-05-05T15:21:56Z</time></trkpt><trkpt lat="14.558219348116081" lon="120.99627708510741"><ele>9.8</ele><time>2026-05-05T15:21:59Z</time></trkpt><trkpt lat="14.558230859947798" lon="120.99620606359976"><ele>9.4</ele><time>2026-05-05T15:22:04Z</time></trkpt><trkpt lat="14.558163416855928" lon="120.99603235443993"><ele>9.0</ele><time>2026-05-05T15:22:09Z</time></trkpt><trkpt lat="14.558115288105892" lon="120.99593705807484"><ele>9.0</ele><time>2026-05-05T15:22:11Z</time></trkpt><trkpt lat="14.558065617317995" lon="120.99588285613413"><ele>9.0</ele><time>2026-05-05T15:22:13Z</time></trkpt><trkpt lat="14.558044604935246" lon="120.99580986404365"><ele>9.0</ele><time>2026-05-05T15:22:16Z</time></trkpt><trkpt lat="14.558027324741959" lon="120.99572365272627"><ele>9.0</ele><time>2026-05-05T15:22:19Z</time></trkpt><trkpt lat="14.558008689707949" lon="120.99564055420666"><ele>9.0</ele><time>2026-05-05T15:22:22.06Z</time></trkpt><trkpt lat="14.558131647104084" lon="120.99535844591203"><ele>9.0</ele><time>2026-05-05T15:23:59Z</time></trkpt><trkpt lat="14.558207901434088" lon="120.99534621140218"><ele>9.0</ele><time>2026-05-05T15:24:02Z</time></trkpt><trkpt lat="14.55830244514638" lon="120.99533629841504"><ele>9.0</ele><time>2026-05-05T15:24:10.001Z</time></trkpt><trkpt lat="14.558362707513584" lon="120.99531284665808"><ele>9.0</ele><time>2026-05-05T15:28:08Z</time></trkpt><trkpt lat="14.558311189156768" lon="120.99525576267645"><ele>9.0</ele><time>2026-05-05T15:28:22Z</time></trkpt></trkseg></trk></gpx>